<?xml version="1.0" encoding="UTF-8" standalone="no" ?>
<gpx xmlns="http://www.topografix.com/GPX/1/1" xmlns:xsi="http://www.w3.org/2001/XMLSchema-instance" xsi:schemaLocation="http://www.topografix.com/GPX/1/1 http://www.topografix.com/GPX/1/1/gpx.xsd" version="1.1" creator="VisuGPX - https://www.visugpx.com">
  <metadata>
    <name>20210127 09:23 Siricoca-Garuche-Mt Ours</name>
    <desc><![CDATA[Beau circuit permettant d enchaîner 3 sommets de l arrière - pays mentonnais]]></desc>
  </metadata>
  <trk>
    <name><![CDATA[20210127 09:23 Siricoca-Garuche-Mt Ours]]></name>
    <trkseg>
      <trkpt lat="43.80229" lon="7.45834">
        <ele>592.75597432877</ele>
        <time>2021-01-27T08:23:31Z</time>
      </trkpt>
      <trkpt lat="43.80229" lon="7.45834">
        <ele>592.75597432877</ele>
        <time>2021-01-27T08:23:32Z</time>
      </trkpt>
      <trkpt lat="43.8023" lon="7.45836">
        <ele>594.75597082039</ele>
        <time>2021-01-27T08:23:33Z</time>
      </trkpt>
      <trkpt lat="43.8023" lon="7.45836">
        <ele>595.75594187289</ele>
        <time>2021-01-27T08:23:35Z</time>
      </trkpt>
      <trkpt lat="43.80231" lon="7.45836">
        <ele>594.75590704629</ele>
        <time>2021-01-27T08:23:36Z</time>
      </trkpt>
      <trkpt lat="43.80231" lon="7.45835">
        <ele>595.75591795921</ele>
        <time>2021-01-27T08:23:52Z</time>
      </trkpt>
      <trkpt lat="43.80229" lon="7.45836">
        <ele>599.7560170352</ele>
        <time>2021-01-27T08:23:53Z</time>
      </trkpt>
      <trkpt lat="43.80229" lon="7.45836">
        <ele>599.75601484349</ele>
        <time>2021-01-27T08:24:31Z</time>
      </trkpt>
      <trkpt lat="43.80228" lon="7.45834">
        <ele>600.7560528159</ele>
        <time>2021-01-27T08:24:33Z</time>
      </trkpt>
      <trkpt lat="43.80227" lon="7.45834">
        <ele>600.75605787527</ele>
        <time>2021-01-27T08:24:35Z</time>
      </trkpt>
      <trkpt lat="43.80226" lon="7.45831">
        <ele>600.75611308107</ele>
        <time>2021-01-27T08:24:41Z</time>
      </trkpt>
      <trkpt lat="43.80226" lon="7.45831">
        <ele>600.7561213724</ele>
        <time>2021-01-27T08:24:57Z</time>
      </trkpt>
      <trkpt lat="43.80225" lon="7.45833">
        <ele>600.7561804074</ele>
        <time>2021-01-27T08:24:59Z</time>
      </trkpt>
      <trkpt lat="43.80225" lon="7.45833">
        <ele>600.75615629899</ele>
        <time>2021-01-27T08:26:51Z</time>
      </trkpt>
      <trkpt lat="43.80224" lon="7.45836">
        <ele>599.75623210795</ele>
        <time>2021-01-27T08:26:55Z</time>
      </trkpt>
      <trkpt lat="43.80224" lon="7.45836">
        <ele>598.75623879228</ele>
        <time>2021-01-27T08:26:58Z</time>
      </trkpt>
      <trkpt lat="43.80224" lon="7.45837">
        <ele>598.75626882093</ele>
        <time>2021-01-27T08:26:59Z</time>
      </trkpt>
      <trkpt lat="43.80223" lon="7.45838">
        <ele>598.75631268524</ele>
        <time>2021-01-27T08:27:00Z</time>
      </trkpt>
      <trkpt lat="43.80222" lon="7.45839">
        <ele>598.75635544161</ele>
        <time>2021-01-27T08:27:01Z</time>
      </trkpt>
      <trkpt lat="43.80221" lon="7.45839">
        <ele>598.75639731504</ele>
        <time>2021-01-27T08:27:02Z</time>
      </trkpt>
      <trkpt lat="43.80219" lon="7.45838">
        <ele>598.75646475833</ele>
        <time>2021-01-27T08:27:04Z</time>
      </trkpt>
      <trkpt lat="43.80218" lon="7.45837">
        <ele>598.7565076126</ele>
        <time>2021-01-27T08:27:05Z</time>
      </trkpt>
      <trkpt lat="43.80217" lon="7.45837">
        <ele>598.7565679814</ele>
        <time>2021-01-27T08:27:06Z</time>
      </trkpt>
      <trkpt lat="43.80216" lon="7.45836">
        <ele>597.75662487737</ele>
        <time>2021-01-27T08:27:07Z</time>
      </trkpt>
      <trkpt lat="43.80215" lon="7.45836">
        <ele>596.75667030047</ele>
        <time>2021-01-27T08:27:08Z</time>
      </trkpt>
      <trkpt lat="43.80214" lon="7.45836">
        <ele>597.75671926191</ele>
        <time>2021-01-27T08:27:09Z</time>
      </trkpt>
      <trkpt lat="43.80212" lon="7.45835">
        <ele>597.7567893916</ele>
        <time>2021-01-27T08:27:10Z</time>
      </trkpt>
      <trkpt lat="43.8021" lon="7.45834">
        <ele>596.75685929165</ele>
        <time>2021-01-27T08:27:11Z</time>
      </trkpt>
      <trkpt lat="43.80207" lon="7.45833">
        <ele>596.75700744024</ele>
        <time>2021-01-27T08:27:13Z</time>
      </trkpt>
      <trkpt lat="43.80205" lon="7.45831">
        <ele>595.7570675886</ele>
        <time>2021-01-27T08:27:14Z</time>
      </trkpt>
      <trkpt lat="43.80204" lon="7.4583">
        <ele>596.75710287472</ele>
        <time>2021-01-27T08:27:15Z</time>
      </trkpt>
      <trkpt lat="43.80203" lon="7.45828">
        <ele>596.75713294101</ele>
        <time>2021-01-27T08:27:16Z</time>
      </trkpt>
      <trkpt lat="43.80203" lon="7.45828">
        <ele>595.75715746947</ele>
        <time>2021-01-27T08:27:17Z</time>
      </trkpt>
      <trkpt lat="43.80202" lon="7.45827">
        <ele>595.75716512257</ele>
        <time>2021-01-27T08:27:18Z</time>
      </trkpt>
      <trkpt lat="43.80202" lon="7.45827">
        <ele>595.75717566018</ele>
        <time>2021-01-27T08:27:19Z</time>
      </trkpt>
      <trkpt lat="43.80201" lon="7.45826">
        <ele>595.75720472481</ele>
        <time>2021-01-27T08:27:20Z</time>
      </trkpt>
      <trkpt lat="43.80201" lon="7.45824">
        <ele>595.7572238183</ele>
        <time>2021-01-27T08:27:21Z</time>
      </trkpt>
      <trkpt lat="43.80199" lon="7.45823">
        <ele>596.75728058007</ele>
        <time>2021-01-27T08:27:23Z</time>
      </trkpt>
      <trkpt lat="43.80199" lon="7.45822">
        <ele>596.75726206577</ele>
        <time>2021-01-27T08:27:28Z</time>
      </trkpt>
      <trkpt lat="43.80199" lon="7.4582">
        <ele>596.75725564054</ele>
        <time>2021-01-27T08:27:30Z</time>
      </trkpt>
      <trkpt lat="43.80199" lon="7.45821">
        <ele>594.75727898836</ele>
        <time>2021-01-27T08:27:38Z</time>
      </trkpt>
      <trkpt lat="43.80198" lon="7.4582">
        <ele>594.75731030802</ele>
        <time>2021-01-27T08:27:40Z</time>
      </trkpt>
      <trkpt lat="43.80198" lon="7.4582">
        <ele>595.75731249676</ele>
        <time>2021-01-27T08:27:46Z</time>
      </trkpt>
      <trkpt lat="43.80198" lon="7.45819">
        <ele>595.75732030026</ele>
        <time>2021-01-27T08:27:48Z</time>
      </trkpt>
      <trkpt lat="43.80198" lon="7.45818">
        <ele>595.75728200733</ele>
        <time>2021-01-27T08:27:50Z</time>
      </trkpt>
      <trkpt lat="43.80198" lon="7.45818">
        <ele>595.75728200733</ele>
        <time>2021-01-27T08:27:53Z</time>
      </trkpt>
      <trkpt lat="43.80198" lon="7.45819">
        <ele>595.75729262938</ele>
        <time>2021-01-27T08:28:38Z</time>
      </trkpt>
      <trkpt lat="43.80197" lon="7.4582">
        <ele>595.75734065955</ele>
        <time>2021-01-27T08:28:39Z</time>
      </trkpt>
      <trkpt lat="43.80197" lon="7.45819">
        <ele>596.75733331387</ele>
        <time>2021-01-27T08:30:11Z</time>
      </trkpt>
      <trkpt lat="43.80197" lon="7.45816">
        <ele>594.75734016168</ele>
        <time>2021-01-27T08:30:20Z</time>
      </trkpt>
      <trkpt lat="43.80197" lon="7.45817">
        <ele>594.75732939352</ele>
        <time>2021-01-27T08:30:45Z</time>
      </trkpt>
      <trkpt lat="43.80197" lon="7.45818">
        <ele>596.75734083212</ele>
        <time>2021-01-27T08:30:47Z</time>
      </trkpt>
      <trkpt lat="43.80197" lon="7.45819">
        <ele>595.75735127616</ele>
        <time>2021-01-27T08:31:01Z</time>
      </trkpt>
      <trkpt lat="43.80198" lon="7.4582">
        <ele>594.7573351221</ele>
        <time>2021-01-27T08:31:02Z</time>
      </trkpt>
      <trkpt lat="43.80199" lon="7.4582">
        <ele>594.75729179408</ele>
        <time>2021-01-27T08:31:03Z</time>
      </trkpt>
      <trkpt lat="43.802" lon="7.45821">
        <ele>595.75724725483</ele>
        <time>2021-01-27T08:31:05Z</time>
      </trkpt>
      <trkpt lat="43.802" lon="7.45821">
        <ele>594.75723203741</ele>
        <time>2021-01-27T08:31:07Z</time>
      </trkpt>
      <trkpt lat="43.80201" lon="7.45822">
        <ele>594.75721171675</ele>
        <time>2021-01-27T08:31:11Z</time>
      </trkpt>
      <trkpt lat="43.80201" lon="7.45824">
        <ele>593.7572248733</ele>
        <time>2021-01-27T08:31:13Z</time>
      </trkpt>
      <trkpt lat="43.802" lon="7.45825">
        <ele>593.7572585378</ele>
        <time>2021-01-27T08:31:17Z</time>
      </trkpt>
      <trkpt lat="43.80202" lon="7.45825">
        <ele>594.75719001617</ele>
        <time>2021-01-27T08:31:18Z</time>
      </trkpt>
      <trkpt lat="43.80203" lon="7.45826">
        <ele>594.75715286229</ele>
        <time>2021-01-27T08:31:19Z</time>
      </trkpt>
      <trkpt lat="43.80204" lon="7.45827">
        <ele>595.75711771001</ele>
        <time>2021-01-27T08:31:20Z</time>
      </trkpt>
      <trkpt lat="43.80204" lon="7.45828">
        <ele>594.75709075168</ele>
        <time>2021-01-27T08:31:22Z</time>
      </trkpt>
      <trkpt lat="43.80205" lon="7.45828">
        <ele>595.75705281024</ele>
        <time>2021-01-27T08:31:23Z</time>
      </trkpt>
      <trkpt lat="43.80206" lon="7.45829">
        <ele>595.75700843083</ele>
        <time>2021-01-27T08:31:24Z</time>
      </trkpt>
      <trkpt lat="43.80207" lon="7.4583">
        <ele>594.7569665545</ele>
        <time>2021-01-27T08:31:25Z</time>
      </trkpt>
      <trkpt lat="43.80208" lon="7.4583">
        <ele>594.75692110512</ele>
        <time>2021-01-27T08:31:26Z</time>
      </trkpt>
      <trkpt lat="43.80209" lon="7.45831">
        <ele>595.75687136766</ele>
        <time>2021-01-27T08:31:27Z</time>
      </trkpt>
      <trkpt lat="43.80211" lon="7.45831">
        <ele>595.75682650755</ele>
        <time>2021-01-27T08:31:28Z</time>
      </trkpt>
      <trkpt lat="43.80211" lon="7.45831">
        <ele>595.75679401012</ele>
        <time>2021-01-27T08:31:29Z</time>
      </trkpt>
      <trkpt lat="43.80212" lon="7.4583">
        <ele>595.75676261471</ele>
        <time>2021-01-27T08:31:30Z</time>
      </trkpt>
      <trkpt lat="43.80212" lon="7.45831">
        <ele>596.75675869263</ele>
        <time>2021-01-27T08:31:37Z</time>
      </trkpt>
      <trkpt lat="43.80214" lon="7.45831">
        <ele>596.75667091203</ele>
        <time>2021-01-27T08:31:39Z</time>
      </trkpt>
      <trkpt lat="43.80215" lon="7.45832">
        <ele>596.75662075335</ele>
        <time>2021-01-27T08:31:40Z</time>
      </trkpt>
      <trkpt lat="43.80217" lon="7.45832">
        <ele>596.7565495072</ele>
        <time>2021-01-27T08:31:41Z</time>
      </trkpt>
      <trkpt lat="43.80217" lon="7.45832">
        <ele>596.7565236773</ele>
        <time>2021-01-27T08:31:42Z</time>
      </trkpt>
      <trkpt lat="43.80218" lon="7.45833">
        <ele>595.75651576881</ele>
        <time>2021-01-27T08:31:44Z</time>
      </trkpt>
      <trkpt lat="43.80218" lon="7.45834">
        <ele>596.75647999609</ele>
        <time>2021-01-27T08:31:45Z</time>
      </trkpt>
      <trkpt lat="43.80219" lon="7.45834">
        <ele>596.75645453793</ele>
        <time>2021-01-27T08:31:46Z</time>
      </trkpt>
      <trkpt lat="43.8022" lon="7.45835">
        <ele>596.75640422135</ele>
        <time>2021-01-27T08:31:48Z</time>
      </trkpt>
      <trkpt lat="43.80222" lon="7.45836">
        <ele>596.75631700217</ele>
        <time>2021-01-27T08:31:50Z</time>
      </trkpt>
      <trkpt lat="43.80224" lon="7.45836">
        <ele>595.75625355824</ele>
        <time>2021-01-27T08:31:51Z</time>
      </trkpt>
      <trkpt lat="43.80225" lon="7.45835">
        <ele>595.75620386152</ele>
        <time>2021-01-27T08:31:52Z</time>
      </trkpt>
      <trkpt lat="43.80227" lon="7.45834">
        <ele>595.75610027702</ele>
        <time>2021-01-27T08:31:54Z</time>
      </trkpt>
      <trkpt lat="43.80227" lon="7.45834">
        <ele>596.75606104869</ele>
        <time>2021-01-27T08:31:55Z</time>
      </trkpt>
      <trkpt lat="43.80228" lon="7.45834">
        <ele>595.75602344661</ele>
        <time>2021-01-27T08:31:56Z</time>
      </trkpt>
      <trkpt lat="43.80229" lon="7.45834">
        <ele>595.75599172689</ele>
        <time>2021-01-27T08:31:58Z</time>
      </trkpt>
      <trkpt lat="43.80229" lon="7.45834">
        <ele>594.75596205395</ele>
        <time>2021-01-27T08:32:02Z</time>
      </trkpt>
      <trkpt lat="43.8023" lon="7.45834">
        <ele>594.75593724949</ele>
        <time>2021-01-27T08:32:04Z</time>
      </trkpt>
      <trkpt lat="43.80231" lon="7.45834">
        <ele>594.75590523041</ele>
        <time>2021-01-27T08:32:05Z</time>
      </trkpt>
      <trkpt lat="43.80232" lon="7.45834">
        <ele>595.75586014807</ele>
        <time>2021-01-27T08:32:06Z</time>
      </trkpt>
      <trkpt lat="43.80233" lon="7.45833">
        <ele>594.75580196769</ele>
        <time>2021-01-27T08:32:07Z</time>
      </trkpt>
      <trkpt lat="43.80234" lon="7.45833">
        <ele>594.75577031407</ele>
        <time>2021-01-27T08:32:08Z</time>
      </trkpt>
      <trkpt lat="43.80236" lon="7.45832">
        <ele>594.75565691817</ele>
        <time>2021-01-27T08:32:10Z</time>
      </trkpt>
      <trkpt lat="43.80237" lon="7.45831">
        <ele>595.75559276759</ele>
        <time>2021-01-27T08:32:11Z</time>
      </trkpt>
      <trkpt lat="43.80238" lon="7.4583">
        <ele>595.75554082125</ele>
        <time>2021-01-27T08:32:12Z</time>
      </trkpt>
      <trkpt lat="43.80239" lon="7.4583">
        <ele>595.75549577084</ele>
        <time>2021-01-27T08:32:13Z</time>
      </trkpt>
      <trkpt lat="43.80239" lon="7.45829">
        <ele>595.75547753642</ele>
        <time>2021-01-27T08:32:14Z</time>
      </trkpt>
      <trkpt lat="43.8024" lon="7.45828">
        <ele>595.75544356338</ele>
        <time>2021-01-27T08:32:15Z</time>
      </trkpt>
      <trkpt lat="43.8024" lon="7.45827">
        <ele>594.75540835398</ele>
        <time>2021-01-27T08:32:16Z</time>
      </trkpt>
      <trkpt lat="43.80241" lon="7.45826">
        <ele>594.7553487345</ele>
        <time>2021-01-27T08:32:18Z</time>
      </trkpt>
      <trkpt lat="43.80242" lon="7.45825">
        <ele>593.75531983168</ele>
        <time>2021-01-27T08:32:20Z</time>
      </trkpt>
      <trkpt lat="43.80242" lon="7.45823">
        <ele>593.75530100599</ele>
        <time>2021-01-27T08:32:21Z</time>
      </trkpt>
      <trkpt lat="43.80242" lon="7.45823">
        <ele>592.75528451737</ele>
        <time>2021-01-27T08:32:22Z</time>
      </trkpt>
      <trkpt lat="43.80243" lon="7.45822">
        <ele>592.75522202848</ele>
        <time>2021-01-27T08:32:24Z</time>
      </trkpt>
      <trkpt lat="43.80243" lon="7.45822">
        <ele>592.75522202848</ele>
        <time>2021-01-27T08:32:26Z</time>
      </trkpt>
      <trkpt lat="43.80244" lon="7.45819">
        <ele>592.75516725971</ele>
        <time>2021-01-27T08:32:28Z</time>
      </trkpt>
      <trkpt lat="43.80245" lon="7.45817">
        <ele>591.75512519931</ele>
        <time>2021-01-27T08:32:30Z</time>
      </trkpt>
      <trkpt lat="43.80244" lon="7.45816">
        <ele>591.75512067603</ele>
        <time>2021-01-27T08:32:31Z</time>
      </trkpt>
      <trkpt lat="43.80244" lon="7.45815">
        <ele>591.75510901024</ele>
        <time>2021-01-27T08:32:32Z</time>
      </trkpt>
      <trkpt lat="43.80245" lon="7.45814">
        <ele>590.75508592295</ele>
        <time>2021-01-27T08:32:34Z</time>
      </trkpt>
      <trkpt lat="43.80245" lon="7.45813">
        <ele>590.755074241</ele>
        <time>2021-01-27T08:32:35Z</time>
      </trkpt>
      <trkpt lat="43.80245" lon="7.45813">
        <ele>591.75505459269</ele>
        <time>2021-01-27T08:32:36Z</time>
      </trkpt>
      <trkpt lat="43.80245" lon="7.45812">
        <ele>591.75503891895</ele>
        <time>2021-01-27T08:32:37Z</time>
      </trkpt>
      <trkpt lat="43.80245" lon="7.45811">
        <ele>591.75504628293</ele>
        <time>2021-01-27T08:32:41Z</time>
      </trkpt>
      <trkpt lat="43.80245" lon="7.45809">
        <ele>592.7550396896</ele>
        <time>2021-01-27T08:32:42Z</time>
      </trkpt>
      <trkpt lat="43.80244" lon="7.4581">
        <ele>592.75507788838</ele>
        <time>2021-01-27T08:32:46Z</time>
      </trkpt>
      <trkpt lat="43.80242" lon="7.45811">
        <ele>590.7551726995</ele>
        <time>2021-01-27T08:32:49Z</time>
      </trkpt>
      <trkpt lat="43.80242" lon="7.4581">
        <ele>591.7551858353</ele>
        <time>2021-01-27T08:32:52Z</time>
      </trkpt>
      <trkpt lat="43.80242" lon="7.45809">
        <ele>591.7551730932</ele>
        <time>2021-01-27T08:32:55Z</time>
      </trkpt>
      <trkpt lat="43.80242" lon="7.45808">
        <ele>592.7551689074</ele>
        <time>2021-01-27T08:32:56Z</time>
      </trkpt>
      <trkpt lat="43.80242" lon="7.45808">
        <ele>594.75516778263</ele>
        <time>2021-01-27T08:33:01Z</time>
      </trkpt>
      <trkpt lat="43.80243" lon="7.45808">
        <ele>596.75511311311</ele>
        <time>2021-01-27T08:33:07Z</time>
      </trkpt>
      <trkpt lat="43.80243" lon="7.45809">
        <ele>597.75512128466</ele>
        <time>2021-01-27T08:33:17Z</time>
      </trkpt>
      <trkpt lat="43.80243" lon="7.45809">
        <ele>597.75513902144</ele>
        <time>2021-01-27T08:33:21Z</time>
      </trkpt>
      <trkpt lat="43.80243" lon="7.45808">
        <ele>597.75509092299</ele>
        <time>2021-01-27T08:33:23Z</time>
      </trkpt>
      <trkpt lat="43.80243" lon="7.45805">
        <ele>596.75508350201</ele>
        <time>2021-01-27T08:33:25Z</time>
      </trkpt>
      <trkpt lat="43.80242" lon="7.45804">
        <ele>595.75511683625</ele>
        <time>2021-01-27T08:33:26Z</time>
      </trkpt>
      <trkpt lat="43.80242" lon="7.45802">
        <ele>594.75510111346</ele>
        <time>2021-01-27T08:33:27Z</time>
      </trkpt>
      <trkpt lat="43.80242" lon="7.458">
        <ele>594.75509340408</ele>
        <time>2021-01-27T08:33:28Z</time>
      </trkpt>
      <trkpt lat="43.80242" lon="7.45799">
        <ele>593.7550732591</ele>
        <time>2021-01-27T08:33:29Z</time>
      </trkpt>
      <trkpt lat="43.80242" lon="7.45798">
        <ele>594.75505691971</ele>
        <time>2021-01-27T08:33:30Z</time>
      </trkpt>
      <trkpt lat="43.80242" lon="7.45796">
        <ele>594.75505754094</ele>
        <time>2021-01-27T08:33:31Z</time>
      </trkpt>
      <trkpt lat="43.80242" lon="7.45795">
        <ele>594.7550451479</ele>
        <time>2021-01-27T08:33:32Z</time>
      </trkpt>
      <trkpt lat="43.80242" lon="7.45793">
        <ele>595.75503325693</ele>
        <time>2021-01-27T08:33:34Z</time>
      </trkpt>
      <trkpt lat="43.80242" lon="7.45791">
        <ele>595.75500230248</ele>
        <time>2021-01-27T08:33:35Z</time>
      </trkpt>
      <trkpt lat="43.80243" lon="7.45789">
        <ele>595.75494481281</ele>
        <time>2021-01-27T08:33:36Z</time>
      </trkpt>
      <trkpt lat="43.80243" lon="7.45787">
        <ele>595.75492490303</ele>
        <time>2021-01-27T08:33:37Z</time>
      </trkpt>
      <trkpt lat="43.80243" lon="7.45785">
        <ele>595.75491543577</ele>
        <time>2021-01-27T08:33:38Z</time>
      </trkpt>
      <trkpt lat="43.80243" lon="7.45783">
        <ele>596.75489484243</ele>
        <time>2021-01-27T08:33:39Z</time>
      </trkpt>
      <trkpt lat="43.80243" lon="7.45781">
        <ele>595.75487132516</ele>
        <time>2021-01-27T08:33:40Z</time>
      </trkpt>
      <trkpt lat="43.80243" lon="7.45779">
        <ele>595.75487886547</ele>
        <time>2021-01-27T08:33:41Z</time>
      </trkpt>
      <trkpt lat="43.80243" lon="7.45777">
        <ele>595.75486793034</ele>
        <time>2021-01-27T08:33:42Z</time>
      </trkpt>
      <trkpt lat="43.80243" lon="7.45774">
        <ele>595.75483607831</ele>
        <time>2021-01-27T08:33:44Z</time>
      </trkpt>
      <trkpt lat="43.80243" lon="7.45772">
        <ele>595.75483551213</ele>
        <time>2021-01-27T08:33:45Z</time>
      </trkpt>
      <trkpt lat="43.80242" lon="7.45771">
        <ele>595.75483097154</ele>
        <time>2021-01-27T08:33:46Z</time>
      </trkpt>
      <trkpt lat="43.80242" lon="7.4577">
        <ele>595.75482513824</ele>
        <time>2021-01-27T08:33:47Z</time>
      </trkpt>
      <trkpt lat="43.80243" lon="7.45769">
        <ele>595.75480611921</ele>
        <time>2021-01-27T08:33:48Z</time>
      </trkpt>
      <trkpt lat="43.80242" lon="7.45766">
        <ele>595.75479926122</ele>
        <time>2021-01-27T08:33:50Z</time>
      </trkpt>
      <trkpt lat="43.80242" lon="7.45764">
        <ele>595.75479729317</ele>
        <time>2021-01-27T08:33:51Z</time>
      </trkpt>
      <trkpt lat="43.80242" lon="7.45762">
        <ele>595.75479156368</ele>
        <time>2021-01-27T08:33:53Z</time>
      </trkpt>
      <trkpt lat="43.80242" lon="7.45758">
        <ele>595.75474769158</ele>
        <time>2021-01-27T08:33:55Z</time>
      </trkpt>
      <trkpt lat="43.80242" lon="7.45757">
        <ele>596.75474061339</ele>
        <time>2021-01-27T08:33:56Z</time>
      </trkpt>
      <trkpt lat="43.80242" lon="7.45756">
        <ele>595.75471868382</ele>
        <time>2021-01-27T08:33:57Z</time>
      </trkpt>
      <trkpt lat="43.80243" lon="7.45751">
        <ele>596.75464226485</ele>
        <time>2021-01-27T08:34:00Z</time>
      </trkpt>
      <trkpt lat="43.80243" lon="7.45749">
        <ele>596.75463098913</ele>
        <time>2021-01-27T08:34:01Z</time>
      </trkpt>
      <trkpt lat="43.80243" lon="7.45746">
        <ele>596.75457548293</ele>
        <time>2021-01-27T08:34:03Z</time>
      </trkpt>
      <trkpt lat="43.80244" lon="7.45742">
        <ele>598.75451844568</ele>
        <time>2021-01-27T08:34:05Z</time>
      </trkpt>
      <trkpt lat="43.80244" lon="7.45741">
        <ele>597.75448916188</ele>
        <time>2021-01-27T08:34:06Z</time>
      </trkpt>
      <trkpt lat="43.80244" lon="7.45739">
        <ele>598.75446721397</ele>
        <time>2021-01-27T08:34:07Z</time>
      </trkpt>
      <trkpt lat="43.80245" lon="7.45737">
        <ele>598.75444968561</ele>
        <time>2021-01-27T08:34:08Z</time>
      </trkpt>
      <trkpt lat="43.80245" lon="7.45734">
        <ele>597.75441948168</ele>
        <time>2021-01-27T08:34:10Z</time>
      </trkpt>
      <trkpt lat="43.80245" lon="7.45732">
        <ele>597.75439545083</ele>
        <time>2021-01-27T08:34:11Z</time>
      </trkpt>
      <trkpt lat="43.80245" lon="7.4573">
        <ele>598.75436470499</ele>
        <time>2021-01-27T08:34:12Z</time>
      </trkpt>
      <trkpt lat="43.80246" lon="7.45728">
        <ele>598.75432713157</ele>
        <time>2021-01-27T08:34:13Z</time>
      </trkpt>
      <trkpt lat="43.80246" lon="7.45726">
        <ele>598.75429840687</ele>
        <time>2021-01-27T08:34:14Z</time>
      </trkpt>
      <trkpt lat="43.80246" lon="7.45725">
        <ele>598.75427275106</ele>
        <time>2021-01-27T08:34:15Z</time>
      </trkpt>
      <trkpt lat="43.80246" lon="7.45723">
        <ele>598.75424743892</ele>
        <time>2021-01-27T08:34:16Z</time>
      </trkpt>
      <trkpt lat="43.80246" lon="7.45721">
        <ele>599.75423905639</ele>
        <time>2021-01-27T08:34:17Z</time>
      </trkpt>
      <trkpt lat="43.80246" lon="7.45718">
        <ele>599.75419895773</ele>
        <time>2021-01-27T08:34:19Z</time>
      </trkpt>
      <trkpt lat="43.80247" lon="7.45717">
        <ele>599.75418619634</ele>
        <time>2021-01-27T08:34:20Z</time>
      </trkpt>
      <trkpt lat="43.80246" lon="7.45716">
        <ele>599.75418910981</ele>
        <time>2021-01-27T08:34:21Z</time>
      </trkpt>
      <trkpt lat="43.80246" lon="7.45714">
        <ele>599.75418991065</ele>
        <time>2021-01-27T08:34:22Z</time>
      </trkpt>
      <trkpt lat="43.80246" lon="7.45712">
        <ele>599.7541783345</ele>
        <time>2021-01-27T08:34:23Z</time>
      </trkpt>
      <trkpt lat="43.80246" lon="7.4571">
        <ele>599.75414363897</ele>
        <time>2021-01-27T08:34:24Z</time>
      </trkpt>
      <trkpt lat="43.80247" lon="7.45709">
        <ele>599.75408076872</ele>
        <time>2021-01-27T08:34:25Z</time>
      </trkpt>
      <trkpt lat="43.80248" lon="7.45706">
        <ele>599.75402112552</ele>
        <time>2021-01-27T08:34:26Z</time>
      </trkpt>
      <trkpt lat="43.80249" lon="7.45703">
        <ele>599.75395752271</ele>
        <time>2021-01-27T08:34:28Z</time>
      </trkpt>
      <trkpt lat="43.80251" lon="7.457">
        <ele>598.75384621503</ele>
        <time>2021-01-27T08:34:30Z</time>
      </trkpt>
      <trkpt lat="43.80252" lon="7.45698">
        <ele>598.75379170807</ele>
        <time>2021-01-27T08:34:31Z</time>
      </trkpt>
      <trkpt lat="43.80252" lon="7.45697">
        <ele>598.75374830357</ele>
        <time>2021-01-27T08:34:32Z</time>
      </trkpt>
      <trkpt lat="43.80253" lon="7.45695">
        <ele>597.75372243684</ele>
        <time>2021-01-27T08:34:33Z</time>
      </trkpt>
      <trkpt lat="43.80253" lon="7.45693">
        <ele>598.75369302785</ele>
        <time>2021-01-27T08:34:34Z</time>
      </trkpt>
      <trkpt lat="43.80253" lon="7.45692">
        <ele>598.75365074632</ele>
        <time>2021-01-27T08:34:35Z</time>
      </trkpt>
      <trkpt lat="43.80254" lon="7.4569">
        <ele>599.75361537376</ele>
        <time>2021-01-27T08:34:36Z</time>
      </trkpt>
      <trkpt lat="43.80254" lon="7.45688">
        <ele>599.75358512769</ele>
        <time>2021-01-27T08:34:38Z</time>
      </trkpt>
      <trkpt lat="43.80255" lon="7.45685">
        <ele>600.75351820209</ele>
        <time>2021-01-27T08:34:39Z</time>
      </trkpt>
      <trkpt lat="43.80255" lon="7.45682">
        <ele>600.75348972283</ele>
        <time>2021-01-27T08:34:40Z</time>
      </trkpt>
      <trkpt lat="43.80255" lon="7.4568">
        <ele>601.75347230771</ele>
        <time>2021-01-27T08:34:41Z</time>
      </trkpt>
      <trkpt lat="43.80255" lon="7.45679">
        <ele>600.75344500187</ele>
        <time>2021-01-27T08:34:42Z</time>
      </trkpt>
      <trkpt lat="43.80257" lon="7.45675">
        <ele>600.7533666111</ele>
        <time>2021-01-27T08:34:44Z</time>
      </trkpt>
      <trkpt lat="43.80257" lon="7.45674">
        <ele>600.75332606458</ele>
        <time>2021-01-27T08:34:45Z</time>
      </trkpt>
      <trkpt lat="43.80258" lon="7.45672">
        <ele>600.75327888104</ele>
        <time>2021-01-27T08:34:46Z</time>
      </trkpt>
      <trkpt lat="43.80258" lon="7.4567">
        <ele>600.7532469436</ele>
        <time>2021-01-27T08:34:47Z</time>
      </trkpt>
      <trkpt lat="43.80258" lon="7.45666">
        <ele>600.75322021774</ele>
        <time>2021-01-27T08:34:49Z</time>
      </trkpt>
      <trkpt lat="43.80258" lon="7.45664">
        <ele>600.75318311804</ele>
        <time>2021-01-27T08:34:50Z</time>
      </trkpt>
      <trkpt lat="43.80259" lon="7.45662">
        <ele>601.75316207291</ele>
        <time>2021-01-27T08:34:51Z</time>
      </trkpt>
      <trkpt lat="43.80259" lon="7.4566">
        <ele>601.75314641697</ele>
        <time>2021-01-27T08:34:52Z</time>
      </trkpt>
      <trkpt lat="43.80258" lon="7.45659">
        <ele>601.75313863458</ele>
        <time>2021-01-27T08:34:53Z</time>
      </trkpt>
      <trkpt lat="43.80259" lon="7.45657">
        <ele>602.75312046478</ele>
        <time>2021-01-27T08:34:54Z</time>
      </trkpt>
      <trkpt lat="43.80259" lon="7.45656">
        <ele>602.75309998185</ele>
        <time>2021-01-27T08:34:55Z</time>
      </trkpt>
      <trkpt lat="43.80259" lon="7.45654">
        <ele>602.75305852802</ele>
        <time>2021-01-27T08:34:56Z</time>
      </trkpt>
      <trkpt lat="43.8026" lon="7.45651">
        <ele>602.75298138894</ele>
        <time>2021-01-27T08:34:58Z</time>
      </trkpt>
      <trkpt lat="43.80261" lon="7.45648">
        <ele>601.75293048723</ele>
        <time>2021-01-27T08:35:00Z</time>
      </trkpt>
      <trkpt lat="43.80261" lon="7.45646">
        <ele>601.75290070064</ele>
        <time>2021-01-27T08:35:01Z</time>
      </trkpt>
      <trkpt lat="43.80262" lon="7.45643">
        <ele>601.75284834895</ele>
        <time>2021-01-27T08:35:02Z</time>
      </trkpt>
      <trkpt lat="43.80262" lon="7.45642">
        <ele>601.75282498306</ele>
        <time>2021-01-27T08:35:03Z</time>
      </trkpt>
      <trkpt lat="43.80263" lon="7.4564">
        <ele>601.75278713653</ele>
        <time>2021-01-27T08:35:04Z</time>
      </trkpt>
      <trkpt lat="43.80263" lon="7.45638">
        <ele>602.75274007075</ele>
        <time>2021-01-27T08:35:05Z</time>
      </trkpt>
      <trkpt lat="43.80264" lon="7.45636">
        <ele>602.75270133372</ele>
        <time>2021-01-27T08:35:06Z</time>
      </trkpt>
      <trkpt lat="43.80265" lon="7.45632">
        <ele>600.75262311895</ele>
        <time>2021-01-27T08:35:08Z</time>
      </trkpt>
      <trkpt lat="43.80265" lon="7.4563">
        <ele>600.75260018063</ele>
        <time>2021-01-27T08:35:09Z</time>
      </trkpt>
      <trkpt lat="43.80265" lon="7.45629">
        <ele>600.75256533874</ele>
        <time>2021-01-27T08:35:10Z</time>
      </trkpt>
      <trkpt lat="43.80265" lon="7.45627">
        <ele>600.75254566086</ele>
        <time>2021-01-27T08:35:11Z</time>
      </trkpt>
      <trkpt lat="43.80266" lon="7.45626">
        <ele>599.75253110335</ele>
        <time>2021-01-27T08:35:12Z</time>
      </trkpt>
      <trkpt lat="43.80266" lon="7.45625">
        <ele>599.75249843866</ele>
        <time>2021-01-27T08:35:13Z</time>
      </trkpt>
      <trkpt lat="43.80267" lon="7.45622">
        <ele>599.75243852169</ele>
        <time>2021-01-27T08:35:15Z</time>
      </trkpt>
      <trkpt lat="43.80267" lon="7.4562">
        <ele>598.75238803761</ele>
        <time>2021-01-27T08:35:16Z</time>
      </trkpt>
      <trkpt lat="43.80269" lon="7.45619">
        <ele>598.75232810136</ele>
        <time>2021-01-27T08:35:17Z</time>
      </trkpt>
      <trkpt lat="43.80269" lon="7.45618">
        <ele>598.75229089539</ele>
        <time>2021-01-27T08:35:18Z</time>
      </trkpt>
      <trkpt lat="43.80269" lon="7.45617">
        <ele>598.75226961113</ele>
        <time>2021-01-27T08:35:19Z</time>
      </trkpt>
      <trkpt lat="43.8027" lon="7.45616">
        <ele>598.75224187251</ele>
        <time>2021-01-27T08:35:20Z</time>
      </trkpt>
      <trkpt lat="43.8027" lon="7.45616">
        <ele>598.75223225208</ele>
        <time>2021-01-27T08:35:23Z</time>
      </trkpt>
      <trkpt lat="43.80271" lon="7.45613">
        <ele>598.75217539518</ele>
        <time>2021-01-27T08:35:25Z</time>
      </trkpt>
      <trkpt lat="43.80271" lon="7.45611">
        <ele>597.75214217253</ele>
        <time>2021-01-27T08:35:26Z</time>
      </trkpt>
      <trkpt lat="43.80272" lon="7.4561">
        <ele>597.75210842523</ele>
        <time>2021-01-27T08:35:27Z</time>
      </trkpt>
      <trkpt lat="43.80275" lon="7.45606">
        <ele>597.75192404448</ele>
        <time>2021-01-27T08:35:30Z</time>
      </trkpt>
      <trkpt lat="43.80275" lon="7.45605">
        <ele>597.75188534211</ele>
        <time>2021-01-27T08:35:32Z</time>
      </trkpt>
      <trkpt lat="43.80276" lon="7.45602">
        <ele>598.75181763598</ele>
        <time>2021-01-27T08:35:33Z</time>
      </trkpt>
      <trkpt lat="43.80277" lon="7.456">
        <ele>598.75177102124</ele>
        <time>2021-01-27T08:35:34Z</time>
      </trkpt>
      <trkpt lat="43.80278" lon="7.45599">
        <ele>598.75172687559</ele>
        <time>2021-01-27T08:35:35Z</time>
      </trkpt>
      <trkpt lat="43.80279" lon="7.45599">
        <ele>599.75167790003</ele>
        <time>2021-01-27T08:35:36Z</time>
      </trkpt>
      <trkpt lat="43.8028" lon="7.45597">
        <ele>600.75161571415</ele>
        <time>2021-01-27T08:35:38Z</time>
      </trkpt>
      <trkpt lat="43.80283" lon="7.45597">
        <ele>600.75147374609</ele>
        <time>2021-01-27T08:35:40Z</time>
      </trkpt>
      <trkpt lat="43.80284" lon="7.45598">
        <ele>600.75142841523</ele>
        <time>2021-01-27T08:35:41Z</time>
      </trkpt>
      <trkpt lat="43.80286" lon="7.45599">
        <ele>600.75133911916</ele>
        <time>2021-01-27T08:35:43Z</time>
      </trkpt>
      <trkpt lat="43.80288" lon="7.45599">
        <ele>600.75126479009</ele>
        <time>2021-01-27T08:35:44Z</time>
      </trkpt>
      <trkpt lat="43.80288" lon="7.456">
        <ele>600.75123538833</ele>
        <time>2021-01-27T08:35:45Z</time>
      </trkpt>
      <trkpt lat="43.80289" lon="7.45601">
        <ele>600.75119639687</ele>
        <time>2021-01-27T08:35:46Z</time>
      </trkpt>
      <trkpt lat="43.8029" lon="7.45601">
        <ele>601.75114875871</ele>
        <time>2021-01-27T08:35:47Z</time>
      </trkpt>
      <trkpt lat="43.80292" lon="7.45602">
        <ele>601.75108249811</ele>
        <time>2021-01-27T08:35:48Z</time>
      </trkpt>
      <trkpt lat="43.80293" lon="7.45603">
        <ele>601.75102116947</ele>
        <time>2021-01-27T08:35:49Z</time>
      </trkpt>
      <trkpt lat="43.80295" lon="7.45603">
        <ele>603.75096720625</ele>
        <time>2021-01-27T08:35:50Z</time>
      </trkpt>
      <trkpt lat="43.80296" lon="7.45604">
        <ele>603.75090775822</ele>
        <time>2021-01-27T08:35:51Z</time>
      </trkpt>
      <trkpt lat="43.80297" lon="7.45604">
        <ele>603.75086194353</ele>
        <time>2021-01-27T08:35:52Z</time>
      </trkpt>
      <trkpt lat="43.80298" lon="7.45605">
        <ele>603.75080355184</ele>
        <time>2021-01-27T08:35:54Z</time>
      </trkpt>
      <trkpt lat="43.803" lon="7.45605">
        <ele>604.75073399109</ele>
        <time>2021-01-27T08:35:55Z</time>
      </trkpt>
      <trkpt lat="43.80301" lon="7.45605">
        <ele>604.75067930788</ele>
        <time>2021-01-27T08:35:56Z</time>
      </trkpt>
      <trkpt lat="43.80302" lon="7.45605">
        <ele>604.75061965073</ele>
        <time>2021-01-27T08:35:57Z</time>
      </trkpt>
      <trkpt lat="43.80304" lon="7.45604">
        <ele>604.75056004765</ele>
        <time>2021-01-27T08:35:58Z</time>
      </trkpt>
      <trkpt lat="43.80305" lon="7.45605">
        <ele>605.75049780288</ele>
        <time>2021-01-27T08:35:59Z</time>
      </trkpt>
      <trkpt lat="43.80307" lon="7.45604">
        <ele>605.75039890272</ele>
        <time>2021-01-27T08:36:01Z</time>
      </trkpt>
      <trkpt lat="43.8031" lon="7.45603">
        <ele>605.75027141606</ele>
        <time>2021-01-27T08:36:03Z</time>
      </trkpt>
      <trkpt lat="43.80311" lon="7.45603">
        <ele>604.75018044779</ele>
        <time>2021-01-27T08:36:05Z</time>
      </trkpt>
      <trkpt lat="43.80313" lon="7.45602">
        <ele>605.75009555871</ele>
        <time>2021-01-27T08:36:06Z</time>
      </trkpt>
      <trkpt lat="43.80314" lon="7.45602">
        <ele>605.75003697542</ele>
        <time>2021-01-27T08:36:07Z</time>
      </trkpt>
      <trkpt lat="43.80316" lon="7.45601">
        <ele>605.74992127309</ele>
        <time>2021-01-27T08:36:09Z</time>
      </trkpt>
      <trkpt lat="43.80318" lon="7.456">
        <ele>605.74984660321</ele>
        <time>2021-01-27T08:36:10Z</time>
      </trkpt>
      <trkpt lat="43.80319" lon="7.456">
        <ele>605.74979362151</ele>
        <time>2021-01-27T08:36:11Z</time>
      </trkpt>
      <trkpt lat="43.8032" lon="7.456">
        <ele>605.74973586793</ele>
        <time>2021-01-27T08:36:12Z</time>
      </trkpt>
      <trkpt lat="43.80323" lon="7.45601">
        <ele>606.74961693062</ele>
        <time>2021-01-27T08:36:14Z</time>
      </trkpt>
      <trkpt lat="43.80324" lon="7.45602">
        <ele>607.7495586385</ele>
        <time>2021-01-27T08:36:15Z</time>
      </trkpt>
      <trkpt lat="43.80326" lon="7.45603">
        <ele>607.74949347948</ele>
        <time>2021-01-27T08:36:16Z</time>
      </trkpt>
      <trkpt lat="43.80327" lon="7.45603">
        <ele>607.74943294925</ele>
        <time>2021-01-27T08:36:17Z</time>
      </trkpt>
      <trkpt lat="43.8033" lon="7.45603">
        <ele>607.74929343733</ele>
        <time>2021-01-27T08:36:19Z</time>
      </trkpt>
      <trkpt lat="43.80332" lon="7.45602">
        <ele>607.74922473746</ele>
        <time>2021-01-27T08:36:20Z</time>
      </trkpt>
      <trkpt lat="43.80333" lon="7.45602">
        <ele>608.74914742182</ele>
        <time>2021-01-27T08:36:21Z</time>
      </trkpt>
      <trkpt lat="43.80335" lon="7.45602">
        <ele>607.74907491548</ele>
        <time>2021-01-27T08:36:22Z</time>
      </trkpt>
      <trkpt lat="43.80336" lon="7.45602">
        <ele>607.74899539166</ele>
        <time>2021-01-27T08:36:24Z</time>
      </trkpt>
      <trkpt lat="43.80337" lon="7.45602">
        <ele>607.74895395591</ele>
        <time>2021-01-27T08:36:25Z</time>
      </trkpt>
      <trkpt lat="43.80338" lon="7.45602">
        <ele>607.74890628637</ele>
        <time>2021-01-27T08:36:26Z</time>
      </trkpt>
      <trkpt lat="43.8034" lon="7.45602">
        <ele>607.74883845933</ele>
        <time>2021-01-27T08:36:27Z</time>
      </trkpt>
      <trkpt lat="43.80341" lon="7.45602">
        <ele>607.74878097114</ele>
        <time>2021-01-27T08:36:28Z</time>
      </trkpt>
      <trkpt lat="43.80343" lon="7.45601">
        <ele>607.74869925363</ele>
        <time>2021-01-27T08:36:29Z</time>
      </trkpt>
      <trkpt lat="43.80344" lon="7.45602">
        <ele>607.74864559645</ele>
        <time>2021-01-27T08:36:30Z</time>
      </trkpt>
      <trkpt lat="43.80345" lon="7.45601">
        <ele>608.74857602669</ele>
        <time>2021-01-27T08:36:31Z</time>
      </trkpt>
      <trkpt lat="43.80347" lon="7.45602">
        <ele>608.74851172609</ele>
        <time>2021-01-27T08:36:32Z</time>
      </trkpt>
      <trkpt lat="43.80348" lon="7.456">
        <ele>607.74841299092</ele>
        <time>2021-01-27T08:36:34Z</time>
      </trkpt>
      <trkpt lat="43.8035" lon="7.456">
        <ele>607.7483465865</ele>
        <time>2021-01-27T08:36:35Z</time>
      </trkpt>
      <trkpt lat="43.80351" lon="7.456">
        <ele>607.74829344715</ele>
        <time>2021-01-27T08:36:36Z</time>
      </trkpt>
      <trkpt lat="43.80351" lon="7.45601">
        <ele>608.74827743336</ele>
        <time>2021-01-27T08:36:37Z</time>
      </trkpt>
      <trkpt lat="43.80353" lon="7.45601">
        <ele>607.748225138</ele>
        <time>2021-01-27T08:36:38Z</time>
      </trkpt>
      <trkpt lat="43.80355" lon="7.45601">
        <ele>608.74812042076</ele>
        <time>2021-01-27T08:36:40Z</time>
      </trkpt>
      <trkpt lat="43.80356" lon="7.456">
        <ele>609.74806177105</ele>
        <time>2021-01-27T08:36:41Z</time>
      </trkpt>
      <trkpt lat="43.80357" lon="7.456">
        <ele>610.74803109183</ele>
        <time>2021-01-27T08:36:42Z</time>
      </trkpt>
      <trkpt lat="43.80357" lon="7.456">
        <ele>610.74800682502</ele>
        <time>2021-01-27T08:36:44Z</time>
      </trkpt>
      <trkpt lat="43.80358" lon="7.456">
        <ele>610.74795301626</ele>
        <time>2021-01-27T08:36:45Z</time>
      </trkpt>
      <trkpt lat="43.80359" lon="7.456">
        <ele>610.74790314892</ele>
        <time>2021-01-27T08:36:46Z</time>
      </trkpt>
      <trkpt lat="43.8036" lon="7.456">
        <ele>609.74784853204</ele>
        <time>2021-01-27T08:36:47Z</time>
      </trkpt>
      <trkpt lat="43.80363" lon="7.45599">
        <ele>609.74773721631</ele>
        <time>2021-01-27T08:36:49Z</time>
      </trkpt>
      <trkpt lat="43.80364" lon="7.456">
        <ele>609.74766856635</ele>
        <time>2021-01-27T08:36:50Z</time>
      </trkpt>
      <trkpt lat="43.80366" lon="7.456">
        <ele>609.74759144493</ele>
        <time>2021-01-27T08:36:51Z</time>
      </trkpt>
      <trkpt lat="43.80367" lon="7.45599">
        <ele>609.74753830003</ele>
        <time>2021-01-27T08:36:52Z</time>
      </trkpt>
      <trkpt lat="43.80369" lon="7.45598">
        <ele>609.74743336298</ele>
        <time>2021-01-27T08:36:54Z</time>
      </trkpt>
      <trkpt lat="43.8037" lon="7.45598">
        <ele>609.74738188259</ele>
        <time>2021-01-27T08:36:55Z</time>
      </trkpt>
      <trkpt lat="43.80371" lon="7.45597">
        <ele>608.74733236661</ele>
        <time>2021-01-27T08:36:56Z</time>
      </trkpt>
      <trkpt lat="43.80372" lon="7.45597">
        <ele>608.74729788602</ele>
        <time>2021-01-27T08:36:57Z</time>
      </trkpt>
      <trkpt lat="43.80373" lon="7.45595">
        <ele>607.74720281465</ele>
        <time>2021-01-27T08:36:59Z</time>
      </trkpt>
      <trkpt lat="43.80374" lon="7.45594">
        <ele>607.74715035204</ele>
        <time>2021-01-27T08:37:00Z</time>
      </trkpt>
      <trkpt lat="43.80375" lon="7.45593">
        <ele>606.7470819554</ele>
        <time>2021-01-27T08:37:01Z</time>
      </trkpt>
      <trkpt lat="43.80377" lon="7.45592">
        <ele>606.74700850563</ele>
        <time>2021-01-27T08:37:02Z</time>
      </trkpt>
      <trkpt lat="43.80378" lon="7.45589">
        <ele>605.74694342281</ele>
        <time>2021-01-27T08:37:04Z</time>
      </trkpt>
      <trkpt lat="43.80379" lon="7.45586">
        <ele>605.74684988843</ele>
        <time>2021-01-27T08:37:06Z</time>
      </trkpt>
      <trkpt lat="43.8038" lon="7.45585">
        <ele>605.74679011687</ele>
        <time>2021-01-27T08:37:07Z</time>
      </trkpt>
      <trkpt lat="43.80381" lon="7.45583">
        <ele>605.74674539048</ele>
        <time>2021-01-27T08:37:08Z</time>
      </trkpt>
      <trkpt lat="43.80381" lon="7.45583">
        <ele>605.7467178901</ele>
        <time>2021-01-27T08:37:11Z</time>
      </trkpt>
      <trkpt lat="43.80381" lon="7.45583">
        <ele>606.7467119917</ele>
        <time>2021-01-27T08:37:16Z</time>
      </trkpt>
      <trkpt lat="43.80383" lon="7.45584">
        <ele>607.74665686686</ele>
        <time>2021-01-27T08:37:26Z</time>
      </trkpt>
      <trkpt lat="43.80383" lon="7.45583">
        <ele>606.74664398647</ele>
        <time>2021-01-27T08:37:45Z</time>
      </trkpt>
      <trkpt lat="43.80384" lon="7.45583">
        <ele>606.7466080151</ele>
        <time>2021-01-27T08:37:46Z</time>
      </trkpt>
      <trkpt lat="43.80383" lon="7.45583">
        <ele>605.7466203197</ele>
        <time>2021-01-27T08:37:50Z</time>
      </trkpt>
      <trkpt lat="43.80383" lon="7.45582">
        <ele>606.74664816005</ele>
        <time>2021-01-27T08:37:52Z</time>
      </trkpt>
      <trkpt lat="43.80382" lon="7.45581">
        <ele>604.74665781059</ele>
        <time>2021-01-27T08:37:56Z</time>
      </trkpt>
      <trkpt lat="43.80382" lon="7.4558">
        <ele>606.74665511991</ele>
        <time>2021-01-27T08:37:59Z</time>
      </trkpt>
      <trkpt lat="43.80382" lon="7.45579">
        <ele>607.74665031248</ele>
        <time>2021-01-27T08:38:01Z</time>
      </trkpt>
      <trkpt lat="43.80381" lon="7.45579">
        <ele>606.74668645337</ele>
        <time>2021-01-27T08:38:04Z</time>
      </trkpt>
      <trkpt lat="43.80381" lon="7.4558">
        <ele>606.74672339129</ele>
        <time>2021-01-27T08:38:06Z</time>
      </trkpt>
      <trkpt lat="43.80381" lon="7.4558">
        <ele>606.74672339129</ele>
        <time>2021-01-27T08:38:23Z</time>
      </trkpt>
      <trkpt lat="43.8038" lon="7.45579">
        <ele>605.7467352411</ele>
        <time>2021-01-27T08:38:25Z</time>
      </trkpt>
      <trkpt lat="43.8038" lon="7.45579">
        <ele>605.74673649696</ele>
        <time>2021-01-27T08:38:26Z</time>
      </trkpt>
      <trkpt lat="43.80381" lon="7.45579">
        <ele>605.74669909386</ele>
        <time>2021-01-27T08:38:27Z</time>
      </trkpt>
      <trkpt lat="43.80382" lon="7.4558">
        <ele>606.74668055877</ele>
        <time>2021-01-27T08:38:30Z</time>
      </trkpt>
      <trkpt lat="43.8038" lon="7.45582">
        <ele>606.74676767845</ele>
        <time>2021-01-27T08:38:31Z</time>
      </trkpt>
      <trkpt lat="43.8038" lon="7.45582">
        <ele>606.74676809216</ele>
        <time>2021-01-27T08:38:43Z</time>
      </trkpt>
      <trkpt lat="43.80379" lon="7.45582">
        <ele>605.74682696725</ele>
        <time>2021-01-27T08:38:45Z</time>
      </trkpt>
      <trkpt lat="43.80378" lon="7.45583">
        <ele>606.74685346782</ele>
        <time>2021-01-27T08:39:00Z</time>
      </trkpt>
      <trkpt lat="43.8038" lon="7.45582">
        <ele>606.74678737027</ele>
        <time>2021-01-27T08:39:04Z</time>
      </trkpt>
      <trkpt lat="43.80379" lon="7.45582">
        <ele>606.74681789448</ele>
        <time>2021-01-27T08:39:17Z</time>
      </trkpt>
      <trkpt lat="43.80379" lon="7.45582">
        <ele>606.74683678183</ele>
        <time>2021-01-27T08:39:29Z</time>
      </trkpt>
      <trkpt lat="43.80378" lon="7.45583">
        <ele>606.74685184866</ele>
        <time>2021-01-27T08:39:37Z</time>
      </trkpt>
      <trkpt lat="43.80379" lon="7.45582">
        <ele>607.74679735517</ele>
        <time>2021-01-27T08:39:49Z</time>
      </trkpt>
      <trkpt lat="43.80379" lon="7.45582">
        <ele>608.74680432028</ele>
        <time>2021-01-27T08:39:59Z</time>
      </trkpt>
      <trkpt lat="43.8038" lon="7.45584">
        <ele>608.74678701902</ele>
        <time>2021-01-27T08:40:01Z</time>
      </trkpt>
      <trkpt lat="43.8038" lon="7.45584">
        <ele>607.74678566322</ele>
        <time>2021-01-27T08:40:03Z</time>
      </trkpt>
      <trkpt lat="43.8038" lon="7.45581">
        <ele>605.74676841997</ele>
        <time>2021-01-27T08:40:05Z</time>
      </trkpt>
      <trkpt lat="43.8038" lon="7.45581">
        <ele>604.74675637362</ele>
        <time>2021-01-27T08:40:06Z</time>
      </trkpt>
      <trkpt lat="43.8038" lon="7.45579">
        <ele>603.74672473581</ele>
        <time>2021-01-27T08:40:07Z</time>
      </trkpt>
      <trkpt lat="43.80382" lon="7.45577">
        <ele>604.74665267666</ele>
        <time>2021-01-27T08:40:09Z</time>
      </trkpt>
      <trkpt lat="43.80382" lon="7.45575">
        <ele>604.74660021426</ele>
        <time>2021-01-27T08:40:10Z</time>
      </trkpt>
      <trkpt lat="43.80384" lon="7.45573">
        <ele>605.74653174047</ele>
        <time>2021-01-27T08:40:11Z</time>
      </trkpt>
      <trkpt lat="43.80385" lon="7.45572">
        <ele>605.74645065732</ele>
        <time>2021-01-27T08:40:12Z</time>
      </trkpt>
      <trkpt lat="43.80386" lon="7.45572">
        <ele>605.74639331271</ele>
        <time>2021-01-27T08:40:13Z</time>
      </trkpt>
      <trkpt lat="43.80388" lon="7.45568">
        <ele>605.74629129541</ele>
        <time>2021-01-27T08:40:15Z</time>
      </trkpt>
      <trkpt lat="43.80388" lon="7.45567">
        <ele>605.74626334811</ele>
        <time>2021-01-27T08:40:16Z</time>
      </trkpt>
      <trkpt lat="43.80388" lon="7.45565">
        <ele>605.74624349378</ele>
        <time>2021-01-27T08:40:17Z</time>
      </trkpt>
      <trkpt lat="43.80389" lon="7.45564">
        <ele>604.74620754281</ele>
        <time>2021-01-27T08:40:18Z</time>
      </trkpt>
      <trkpt lat="43.8039" lon="7.45563">
        <ele>604.74614360416</ele>
        <time>2021-01-27T08:40:19Z</time>
      </trkpt>
      <trkpt lat="43.80391" lon="7.45562">
        <ele>604.74609231411</ele>
        <time>2021-01-27T08:40:20Z</time>
      </trkpt>
      <trkpt lat="43.80392" lon="7.4556">
        <ele>604.74600561047</ele>
        <time>2021-01-27T08:40:21Z</time>
      </trkpt>
      <trkpt lat="43.80393" lon="7.45558">
        <ele>604.7459297819</ele>
        <time>2021-01-27T08:40:22Z</time>
      </trkpt>
      <trkpt lat="43.80396" lon="7.45556">
        <ele>604.74581520429</ele>
        <time>2021-01-27T08:40:24Z</time>
      </trkpt>
      <trkpt lat="43.80397" lon="7.45555">
        <ele>604.74575055725</ele>
        <time>2021-01-27T08:40:26Z</time>
      </trkpt>
      <trkpt lat="43.80398" lon="7.45555">
        <ele>604.74571031884</ele>
        <time>2021-01-27T08:40:27Z</time>
      </trkpt>
      <trkpt lat="43.80398" lon="7.45555">
        <ele>604.74567294948</ele>
        <time>2021-01-27T08:40:29Z</time>
      </trkpt>
      <trkpt lat="43.804" lon="7.45557">
        <ele>604.74560189554</ele>
        <time>2021-01-27T08:40:30Z</time>
      </trkpt>
      <trkpt lat="43.80401" lon="7.45557">
        <ele>605.74556669577</ele>
        <time>2021-01-27T08:40:31Z</time>
      </trkpt>
      <trkpt lat="43.80402" lon="7.45558">
        <ele>605.74553756809</ele>
        <time>2021-01-27T08:40:32Z</time>
      </trkpt>
      <trkpt lat="43.80403" lon="7.45559">
        <ele>605.74548850902</ele>
        <time>2021-01-27T08:40:34Z</time>
      </trkpt>
      <trkpt lat="43.80406" lon="7.45562">
        <ele>605.74538613521</ele>
        <time>2021-01-27T08:40:35Z</time>
      </trkpt>
      <trkpt lat="43.80407" lon="7.45563">
        <ele>604.74535053014</ele>
        <time>2021-01-27T08:40:36Z</time>
      </trkpt>
      <trkpt lat="43.80408" lon="7.45563">
        <ele>605.7452749456</ele>
        <time>2021-01-27T08:40:37Z</time>
      </trkpt>
      <trkpt lat="43.8041" lon="7.45564">
        <ele>605.74521701274</ele>
        <time>2021-01-27T08:40:38Z</time>
      </trkpt>
      <trkpt lat="43.80411" lon="7.45565">
        <ele>606.74516925087</ele>
        <time>2021-01-27T08:40:39Z</time>
      </trkpt>
      <trkpt lat="43.80412" lon="7.45566">
        <ele>605.7451179546</ele>
        <time>2021-01-27T08:40:40Z</time>
      </trkpt>
      <trkpt lat="43.80414" lon="7.45566">
        <ele>605.74505626141</ele>
        <time>2021-01-27T08:40:41Z</time>
      </trkpt>
      <trkpt lat="43.80415" lon="7.45567">
        <ele>605.74499720027</ele>
        <time>2021-01-27T08:40:42Z</time>
      </trkpt>
      <trkpt lat="43.80416" lon="7.45567">
        <ele>605.74494868688</ele>
        <time>2021-01-27T08:40:43Z</time>
      </trkpt>
      <trkpt lat="43.80417" lon="7.45567">
        <ele>605.74489210713</ele>
        <time>2021-01-27T08:40:44Z</time>
      </trkpt>
      <trkpt lat="43.80419" lon="7.45568">
        <ele>605.74482302813</ele>
        <time>2021-01-27T08:40:45Z</time>
      </trkpt>
      <trkpt lat="43.8042" lon="7.45568">
        <ele>605.74475375451</ele>
        <time>2021-01-27T08:40:46Z</time>
      </trkpt>
      <trkpt lat="43.80422" lon="7.45568">
        <ele>605.74468580155</ele>
        <time>2021-01-27T08:40:47Z</time>
      </trkpt>
      <trkpt lat="43.80423" lon="7.45568">
        <ele>605.74463545418</ele>
        <time>2021-01-27T08:40:48Z</time>
      </trkpt>
      <trkpt lat="43.80424" lon="7.45567">
        <ele>605.74458847151</ele>
        <time>2021-01-27T08:40:49Z</time>
      </trkpt>
      <trkpt lat="43.80425" lon="7.45568">
        <ele>605.7445372002</ele>
        <time>2021-01-27T08:40:50Z</time>
      </trkpt>
      <trkpt lat="43.80426" lon="7.45568">
        <ele>605.74448535745</ele>
        <time>2021-01-27T08:40:51Z</time>
      </trkpt>
      <trkpt lat="43.80427" lon="7.45568">
        <ele>606.74442513353</ele>
        <time>2021-01-27T08:40:52Z</time>
      </trkpt>
      <trkpt lat="43.80428" lon="7.45568">
        <ele>606.74437029256</ele>
        <time>2021-01-27T08:40:53Z</time>
      </trkpt>
      <trkpt lat="43.8043" lon="7.45569">
        <ele>606.74430886219</ele>
        <time>2021-01-27T08:40:54Z</time>
      </trkpt>
      <trkpt lat="43.80431" lon="7.4557">
        <ele>606.74424313589</ele>
        <time>2021-01-27T08:40:55Z</time>
      </trkpt>
      <trkpt lat="43.80433" lon="7.4557">
        <ele>605.74418263867</ele>
        <time>2021-01-27T08:40:56Z</time>
      </trkpt>
      <trkpt lat="43.80434" lon="7.4557">
        <ele>605.74411302793</ele>
        <time>2021-01-27T08:40:57Z</time>
      </trkpt>
      <trkpt lat="43.80435" lon="7.4557">
        <ele>605.74406543431</ele>
        <time>2021-01-27T08:40:58Z</time>
      </trkpt>
      <trkpt lat="43.80436" lon="7.4557">
        <ele>605.74404827419</ele>
        <time>2021-01-27T08:41:00Z</time>
      </trkpt>
      <trkpt lat="43.80437" lon="7.4557">
        <ele>605.74400077432</ele>
        <time>2021-01-27T08:41:01Z</time>
      </trkpt>
      <trkpt lat="43.80437" lon="7.4557">
        <ele>605.74400077432</ele>
        <time>2021-01-27T08:41:02Z</time>
      </trkpt>
      <trkpt lat="43.80439" lon="7.4557">
        <ele>605.74389842933</ele>
        <time>2021-01-27T08:41:03Z</time>
      </trkpt>
      <trkpt lat="43.8044" lon="7.45571">
        <ele>605.74384415712</ele>
        <time>2021-01-27T08:41:04Z</time>
      </trkpt>
      <trkpt lat="43.80442" lon="7.45571">
        <ele>605.74378294262</ele>
        <time>2021-01-27T08:41:05Z</time>
      </trkpt>
      <trkpt lat="43.80443" lon="7.45572">
        <ele>606.74370524802</ele>
        <time>2021-01-27T08:41:06Z</time>
      </trkpt>
      <trkpt lat="43.80445" lon="7.45573">
        <ele>607.74361692852</ele>
        <time>2021-01-27T08:41:07Z</time>
      </trkpt>
      <trkpt lat="43.80447" lon="7.45573">
        <ele>606.74354366109</ele>
        <time>2021-01-27T08:41:08Z</time>
      </trkpt>
      <trkpt lat="43.80448" lon="7.45574">
        <ele>607.74348000501</ele>
        <time>2021-01-27T08:41:09Z</time>
      </trkpt>
      <trkpt lat="43.8045" lon="7.45575">
        <ele>607.74340006295</ele>
        <time>2021-01-27T08:41:10Z</time>
      </trkpt>
      <trkpt lat="43.80452" lon="7.45575">
        <ele>607.7433306118</ele>
        <time>2021-01-27T08:41:11Z</time>
      </trkpt>
      <trkpt lat="43.80454" lon="7.45576">
        <ele>608.74325145883</ele>
        <time>2021-01-27T08:41:12Z</time>
      </trkpt>
      <trkpt lat="43.80455" lon="7.45576">
        <ele>608.74319988468</ele>
        <time>2021-01-27T08:41:13Z</time>
      </trkpt>
      <trkpt lat="43.80456" lon="7.45576">
        <ele>607.74313964735</ele>
        <time>2021-01-27T08:41:14Z</time>
      </trkpt>
      <trkpt lat="43.80458" lon="7.45576">
        <ele>608.74304001589</ele>
        <time>2021-01-27T08:41:15Z</time>
      </trkpt>
      <trkpt lat="43.8046" lon="7.45576">
        <ele>609.74297023696</ele>
        <time>2021-01-27T08:41:16Z</time>
      </trkpt>
      <trkpt lat="43.80461" lon="7.45575">
        <ele>609.7429107686</ele>
        <time>2021-01-27T08:41:17Z</time>
      </trkpt>
      <trkpt lat="43.80462" lon="7.45575">
        <ele>609.74283390922</ele>
        <time>2021-01-27T08:41:18Z</time>
      </trkpt>
      <trkpt lat="43.80464" lon="7.45574">
        <ele>609.74275272594</ele>
        <time>2021-01-27T08:41:19Z</time>
      </trkpt>
      <trkpt lat="43.80465" lon="7.45573">
        <ele>608.74267466122</ele>
        <time>2021-01-27T08:41:20Z</time>
      </trkpt>
      <trkpt lat="43.80467" lon="7.45572">
        <ele>608.74260415244</ele>
        <time>2021-01-27T08:41:21Z</time>
      </trkpt>
      <trkpt lat="43.80468" lon="7.45572">
        <ele>608.74252312739</ele>
        <time>2021-01-27T08:41:22Z</time>
      </trkpt>
      <trkpt lat="43.8047" lon="7.45571">
        <ele>607.74244783652</ele>
        <time>2021-01-27T08:41:23Z</time>
      </trkpt>
      <trkpt lat="43.80471" lon="7.4557">
        <ele>606.74236783569</ele>
        <time>2021-01-27T08:41:24Z</time>
      </trkpt>
      <trkpt lat="43.80473" lon="7.45569">
        <ele>606.74229674081</ele>
        <time>2021-01-27T08:41:25Z</time>
      </trkpt>
      <trkpt lat="43.80474" lon="7.45568">
        <ele>606.74222340966</ele>
        <time>2021-01-27T08:41:26Z</time>
      </trkpt>
      <trkpt lat="43.80475" lon="7.45567">
        <ele>605.74214791936</ele>
        <time>2021-01-27T08:41:27Z</time>
      </trkpt>
      <trkpt lat="43.80477" lon="7.45566">
        <ele>606.74207773033</ele>
        <time>2021-01-27T08:41:28Z</time>
      </trkpt>
      <trkpt lat="43.80478" lon="7.45565">
        <ele>606.74200773327</ele>
        <time>2021-01-27T08:41:29Z</time>
      </trkpt>
      <trkpt lat="43.80479" lon="7.45563">
        <ele>606.74194374449</ele>
        <time>2021-01-27T08:41:30Z</time>
      </trkpt>
      <trkpt lat="43.80481" lon="7.45562">
        <ele>606.74186546702</ele>
        <time>2021-01-27T08:41:31Z</time>
      </trkpt>
      <trkpt lat="43.80482" lon="7.45562">
        <ele>606.74179554521</ele>
        <time>2021-01-27T08:41:32Z</time>
      </trkpt>
      <trkpt lat="43.80483" lon="7.45561">
        <ele>606.74174558087</ele>
        <time>2021-01-27T08:41:33Z</time>
      </trkpt>
      <trkpt lat="43.80484" lon="7.4556">
        <ele>606.7417029918</ele>
        <time>2021-01-27T08:41:34Z</time>
      </trkpt>
      <trkpt lat="43.80485" lon="7.45558">
        <ele>606.7416341242</ele>
        <time>2021-01-27T08:41:35Z</time>
      </trkpt>
      <trkpt lat="43.80486" lon="7.45557">
        <ele>606.74157618066</ele>
        <time>2021-01-27T08:41:36Z</time>
      </trkpt>
      <trkpt lat="43.80487" lon="7.45557">
        <ele>606.74149683957</ele>
        <time>2021-01-27T08:41:37Z</time>
      </trkpt>
      <trkpt lat="43.80489" lon="7.45556">
        <ele>605.74142881378</ele>
        <time>2021-01-27T08:41:38Z</time>
      </trkpt>
      <trkpt lat="43.8049" lon="7.45555">
        <ele>605.74136896689</ele>
        <time>2021-01-27T08:41:39Z</time>
      </trkpt>
      <trkpt lat="43.80491" lon="7.45554">
        <ele>605.74131329944</ele>
        <time>2021-01-27T08:41:40Z</time>
      </trkpt>
      <trkpt lat="43.80492" lon="7.45553">
        <ele>606.74125695259</ele>
        <time>2021-01-27T08:41:41Z</time>
      </trkpt>
      <trkpt lat="43.80493" lon="7.45552">
        <ele>606.74119001595</ele>
        <time>2021-01-27T08:41:42Z</time>
      </trkpt>
      <trkpt lat="43.80494" lon="7.4555">
        <ele>606.74111163329</ele>
        <time>2021-01-27T08:41:43Z</time>
      </trkpt>
      <trkpt lat="43.80495" lon="7.45549">
        <ele>605.74106612409</ele>
        <time>2021-01-27T08:41:44Z</time>
      </trkpt>
      <trkpt lat="43.80496" lon="7.45548">
        <ele>605.7410044466</ele>
        <time>2021-01-27T08:41:45Z</time>
      </trkpt>
      <trkpt lat="43.80497" lon="7.45547">
        <ele>604.74096086517</ele>
        <time>2021-01-27T08:41:46Z</time>
      </trkpt>
      <trkpt lat="43.80497" lon="7.45546">
        <ele>604.74093032965</ele>
        <time>2021-01-27T08:41:47Z</time>
      </trkpt>
      <trkpt lat="43.80498" lon="7.45545">
        <ele>603.74089705469</ele>
        <time>2021-01-27T08:41:48Z</time>
      </trkpt>
      <trkpt lat="43.80498" lon="7.45543">
        <ele>603.74086690642</ele>
        <time>2021-01-27T08:41:49Z</time>
      </trkpt>
      <trkpt lat="43.80499" lon="7.45543">
        <ele>603.74083365152</ele>
        <time>2021-01-27T08:41:50Z</time>
      </trkpt>
      <trkpt lat="43.805" lon="7.45543">
        <ele>603.7407693902</ele>
        <time>2021-01-27T08:41:51Z</time>
      </trkpt>
      <trkpt lat="43.80502" lon="7.45543">
        <ele>603.74070564913</ele>
        <time>2021-01-27T08:41:52Z</time>
      </trkpt>
      <trkpt lat="43.80503" lon="7.45543">
        <ele>603.74065351109</ele>
        <time>2021-01-27T08:41:53Z</time>
      </trkpt>
      <trkpt lat="43.80504" lon="7.45542">
        <ele>603.74058860363</ele>
        <time>2021-01-27T08:41:54Z</time>
      </trkpt>
      <trkpt lat="43.80505" lon="7.45541">
        <ele>604.74054234685</ele>
        <time>2021-01-27T08:41:55Z</time>
      </trkpt>
      <trkpt lat="43.80506" lon="7.4554">
        <ele>604.74048631512</ele>
        <time>2021-01-27T08:41:56Z</time>
      </trkpt>
      <trkpt lat="43.80507" lon="7.4554">
        <ele>604.7404202356</ele>
        <time>2021-01-27T08:41:57Z</time>
      </trkpt>
      <trkpt lat="43.80508" lon="7.45539">
        <ele>604.74036077694</ele>
        <time>2021-01-27T08:41:58Z</time>
      </trkpt>
      <trkpt lat="43.80509" lon="7.45538">
        <ele>604.74029706584</ele>
        <time>2021-01-27T08:41:59Z</time>
      </trkpt>
      <trkpt lat="43.80511" lon="7.45537">
        <ele>604.7402114601</ele>
        <time>2021-01-27T08:42:00Z</time>
      </trkpt>
      <trkpt lat="43.80512" lon="7.45535">
        <ele>604.74013473343</ele>
        <time>2021-01-27T08:42:01Z</time>
      </trkpt>
      <trkpt lat="43.80513" lon="7.45534">
        <ele>604.74006708208</ele>
        <time>2021-01-27T08:42:02Z</time>
      </trkpt>
      <trkpt lat="43.80515" lon="7.45534">
        <ele>604.74000806196</ele>
        <time>2021-01-27T08:42:03Z</time>
      </trkpt>
      <trkpt lat="43.80515" lon="7.45533">
        <ele>604.73996336685</ele>
        <time>2021-01-27T08:42:04Z</time>
      </trkpt>
      <trkpt lat="43.80516" lon="7.45532">
        <ele>604.73991931546</ele>
        <time>2021-01-27T08:42:05Z</time>
      </trkpt>
      <trkpt lat="43.80517" lon="7.45531">
        <ele>604.73988077511</ele>
        <time>2021-01-27T08:42:06Z</time>
      </trkpt>
      <trkpt lat="43.80518" lon="7.4553">
        <ele>604.73982520852</ele>
        <time>2021-01-27T08:42:07Z</time>
      </trkpt>
      <trkpt lat="43.80519" lon="7.4553">
        <ele>604.73977472921</ele>
        <time>2021-01-27T08:42:08Z</time>
      </trkpt>
      <trkpt lat="43.8052" lon="7.45529">
        <ele>604.73973435042</ele>
        <time>2021-01-27T08:42:09Z</time>
      </trkpt>
      <trkpt lat="43.8052" lon="7.45527">
        <ele>605.73968665997</ele>
        <time>2021-01-27T08:42:10Z</time>
      </trkpt>
      <trkpt lat="43.80521" lon="7.45527">
        <ele>604.73962362289</ele>
        <time>2021-01-27T08:42:11Z</time>
      </trkpt>
      <trkpt lat="43.80523" lon="7.45526">
        <ele>604.73956510372</ele>
        <time>2021-01-27T08:42:12Z</time>
      </trkpt>
      <trkpt lat="43.80524" lon="7.45525">
        <ele>604.7394927471</ele>
        <time>2021-01-27T08:42:13Z</time>
      </trkpt>
      <trkpt lat="43.80525" lon="7.45524">
        <ele>604.73941356582</ele>
        <time>2021-01-27T08:42:14Z</time>
      </trkpt>
      <trkpt lat="43.80527" lon="7.45523">
        <ele>604.73933183612</ele>
        <time>2021-01-27T08:42:15Z</time>
      </trkpt>
      <trkpt lat="43.80529" lon="7.45523">
        <ele>603.73922485156</ele>
        <time>2021-01-27T08:42:16Z</time>
      </trkpt>
      <trkpt lat="43.80531" lon="7.45522">
        <ele>603.7391457098</ele>
        <time>2021-01-27T08:42:17Z</time>
      </trkpt>
      <trkpt lat="43.80532" lon="7.45522">
        <ele>603.73907499117</ele>
        <time>2021-01-27T08:42:18Z</time>
      </trkpt>
      <trkpt lat="43.80534" lon="7.45521">
        <ele>602.73900019277</ele>
        <time>2021-01-27T08:42:19Z</time>
      </trkpt>
      <trkpt lat="43.80535" lon="7.4552">
        <ele>601.73892790911</ele>
        <time>2021-01-27T08:42:20Z</time>
      </trkpt>
      <trkpt lat="43.80536" lon="7.45519">
        <ele>601.73886406673</ele>
        <time>2021-01-27T08:42:21Z</time>
      </trkpt>
      <trkpt lat="43.80537" lon="7.45518">
        <ele>601.73881603831</ele>
        <time>2021-01-27T08:42:22Z</time>
      </trkpt>
      <trkpt lat="43.80538" lon="7.45517">
        <ele>601.73877838689</ele>
        <time>2021-01-27T08:42:23Z</time>
      </trkpt>
      <trkpt lat="43.80538" lon="7.45516">
        <ele>601.7387397188</ele>
        <time>2021-01-27T08:42:24Z</time>
      </trkpt>
      <trkpt lat="43.80539" lon="7.45514">
        <ele>602.73867958684</ele>
        <time>2021-01-27T08:42:25Z</time>
      </trkpt>
      <trkpt lat="43.8054" lon="7.45512">
        <ele>601.7386200669</ele>
        <time>2021-01-27T08:42:26Z</time>
      </trkpt>
      <trkpt lat="43.80541" lon="7.45511">
        <ele>601.73856966185</ele>
        <time>2021-01-27T08:42:27Z</time>
      </trkpt>
      <trkpt lat="43.80542" lon="7.4551">
        <ele>601.738511702</ele>
        <time>2021-01-27T08:42:28Z</time>
      </trkpt>
      <trkpt lat="43.80543" lon="7.45508">
        <ele>600.73844900923</ele>
        <time>2021-01-27T08:42:29Z</time>
      </trkpt>
      <trkpt lat="43.80544" lon="7.45506">
        <ele>600.73838062085</ele>
        <time>2021-01-27T08:42:30Z</time>
      </trkpt>
      <trkpt lat="43.80545" lon="7.45505">
        <ele>600.73832120404</ele>
        <time>2021-01-27T08:42:31Z</time>
      </trkpt>
      <trkpt lat="43.80546" lon="7.45504">
        <ele>600.73827709805</ele>
        <time>2021-01-27T08:42:32Z</time>
      </trkpt>
      <trkpt lat="43.80547" lon="7.45503">
        <ele>600.7382248259</ele>
        <time>2021-01-27T08:42:33Z</time>
      </trkpt>
      <trkpt lat="43.80547" lon="7.45501">
        <ele>600.7381817438</ele>
        <time>2021-01-27T08:42:34Z</time>
      </trkpt>
      <trkpt lat="43.80548" lon="7.455">
        <ele>600.7381390816</ele>
        <time>2021-01-27T08:42:35Z</time>
      </trkpt>
      <trkpt lat="43.80549" lon="7.45498">
        <ele>600.73807825668</ele>
        <time>2021-01-27T08:42:36Z</time>
      </trkpt>
      <trkpt lat="43.8055" lon="7.45497">
        <ele>600.738005106</ele>
        <time>2021-01-27T08:42:37Z</time>
      </trkpt>
      <trkpt lat="43.80552" lon="7.45496">
        <ele>600.73792039977</ele>
        <time>2021-01-27T08:42:38Z</time>
      </trkpt>
      <trkpt lat="43.80553" lon="7.45495">
        <ele>601.73783712417</ele>
        <time>2021-01-27T08:42:39Z</time>
      </trkpt>
      <trkpt lat="43.80554" lon="7.45494">
        <ele>600.73778745269</ele>
        <time>2021-01-27T08:42:40Z</time>
      </trkpt>
      <trkpt lat="43.80555" lon="7.45494">
        <ele>601.73774367975</ele>
        <time>2021-01-27T08:42:41Z</time>
      </trkpt>
      <trkpt lat="43.80556" lon="7.45493">
        <ele>601.73767185011</ele>
        <time>2021-01-27T08:42:42Z</time>
      </trkpt>
      <trkpt lat="43.80558" lon="7.45492">
        <ele>601.73760413826</ele>
        <time>2021-01-27T08:42:43Z</time>
      </trkpt>
      <trkpt lat="43.80559" lon="7.45491">
        <ele>601.73753391249</ele>
        <time>2021-01-27T08:42:44Z</time>
      </trkpt>
      <trkpt lat="43.8056" lon="7.4549">
        <ele>601.73747328208</ele>
        <time>2021-01-27T08:42:45Z</time>
      </trkpt>
      <trkpt lat="43.80561" lon="7.45489">
        <ele>601.73741759314</ele>
        <time>2021-01-27T08:42:46Z</time>
      </trkpt>
      <trkpt lat="43.80562" lon="7.45489">
        <ele>601.73736878519</ele>
        <time>2021-01-27T08:42:47Z</time>
      </trkpt>
      <trkpt lat="43.80563" lon="7.45488">
        <ele>601.73732254871</ele>
        <time>2021-01-27T08:42:48Z</time>
      </trkpt>
      <trkpt lat="43.80564" lon="7.45487">
        <ele>602.73725357979</ele>
        <time>2021-01-27T08:42:49Z</time>
      </trkpt>
      <trkpt lat="43.80565" lon="7.45486">
        <ele>602.73720252632</ele>
        <time>2021-01-27T08:42:50Z</time>
      </trkpt>
      <trkpt lat="43.80566" lon="7.45485">
        <ele>602.73713507829</ele>
        <time>2021-01-27T08:42:51Z</time>
      </trkpt>
      <trkpt lat="43.80568" lon="7.45484">
        <ele>602.73707242688</ele>
        <time>2021-01-27T08:42:52Z</time>
      </trkpt>
      <trkpt lat="43.80569" lon="7.45483">
        <ele>602.73701211857</ele>
        <time>2021-01-27T08:42:53Z</time>
      </trkpt>
      <trkpt lat="43.80569" lon="7.45482">
        <ele>601.73697605486</ele>
        <time>2021-01-27T08:42:54Z</time>
      </trkpt>
      <trkpt lat="43.8057" lon="7.45482">
        <ele>601.73692363184</ele>
        <time>2021-01-27T08:42:55Z</time>
      </trkpt>
      <trkpt lat="43.80571" lon="7.45481">
        <ele>602.73686226219</ele>
        <time>2021-01-27T08:42:56Z</time>
      </trkpt>
      <trkpt lat="43.80572" lon="7.4548">
        <ele>602.73680646121</ele>
        <time>2021-01-27T08:42:57Z</time>
      </trkpt>
      <trkpt lat="43.80573" lon="7.45478">
        <ele>601.73675121625</ele>
        <time>2021-01-27T08:42:58Z</time>
      </trkpt>
      <trkpt lat="43.80574" lon="7.45476">
        <ele>601.73670363472</ele>
        <time>2021-01-27T08:42:59Z</time>
      </trkpt>
      <trkpt lat="43.80574" lon="7.45475">
        <ele>601.73666062754</ele>
        <time>2021-01-27T08:43:00Z</time>
      </trkpt>
      <trkpt lat="43.80575" lon="7.45473">
        <ele>601.73663618849</ele>
        <time>2021-01-27T08:43:01Z</time>
      </trkpt>
      <trkpt lat="43.80575" lon="7.45472">
        <ele>601.73659743123</ele>
        <time>2021-01-27T08:43:02Z</time>
      </trkpt>
      <trkpt lat="43.80576" lon="7.4547">
        <ele>601.7365548301</ele>
        <time>2021-01-27T08:43:03Z</time>
      </trkpt>
      <trkpt lat="43.80576" lon="7.45468">
        <ele>600.73652550324</ele>
        <time>2021-01-27T08:43:04Z</time>
      </trkpt>
      <trkpt lat="43.80577" lon="7.45466">
        <ele>600.73648060438</ele>
        <time>2021-01-27T08:43:05Z</time>
      </trkpt>
      <trkpt lat="43.80577" lon="7.45465">
        <ele>600.73644903449</ele>
        <time>2021-01-27T08:43:06Z</time>
      </trkpt>
      <trkpt lat="43.80578" lon="7.45464">
        <ele>600.73640301029</ele>
        <time>2021-01-27T08:43:07Z</time>
      </trkpt>
      <trkpt lat="43.80579" lon="7.45462">
        <ele>601.73632816295</ele>
        <time>2021-01-27T08:43:08Z</time>
      </trkpt>
      <trkpt lat="43.80581" lon="7.45461">
        <ele>601.73624480466</ele>
        <time>2021-01-27T08:43:09Z</time>
      </trkpt>
      <trkpt lat="43.80582" lon="7.45458">
        <ele>600.73614606072</ele>
        <time>2021-01-27T08:43:10Z</time>
      </trkpt>
      <trkpt lat="43.80584" lon="7.45457">
        <ele>600.73606888355</ele>
        <time>2021-01-27T08:43:11Z</time>
      </trkpt>
      <trkpt lat="43.80585" lon="7.45455">
        <ele>599.73600484012</ele>
        <time>2021-01-27T08:43:12Z</time>
      </trkpt>
      <trkpt lat="43.80585" lon="7.45453">
        <ele>599.73595415488</ele>
        <time>2021-01-27T08:43:13Z</time>
      </trkpt>
      <trkpt lat="43.80586" lon="7.45452">
        <ele>598.73591290907</ele>
        <time>2021-01-27T08:43:14Z</time>
      </trkpt>
      <trkpt lat="43.80586" lon="7.4545">
        <ele>597.73587539988</ele>
        <time>2021-01-27T08:43:15Z</time>
      </trkpt>
      <trkpt lat="43.80587" lon="7.45449">
        <ele>597.73582925797</ele>
        <time>2021-01-27T08:43:16Z</time>
      </trkpt>
      <trkpt lat="43.80588" lon="7.45448">
        <ele>597.7357701163</ele>
        <time>2021-01-27T08:43:17Z</time>
      </trkpt>
      <trkpt lat="43.8059" lon="7.45447">
        <ele>597.73569545392</ele>
        <time>2021-01-27T08:43:18Z</time>
      </trkpt>
      <trkpt lat="43.80591" lon="7.45446">
        <ele>597.73562317579</ele>
        <time>2021-01-27T08:43:19Z</time>
      </trkpt>
      <trkpt lat="43.80592" lon="7.45445">
        <ele>597.73556517866</ele>
        <time>2021-01-27T08:43:20Z</time>
      </trkpt>
      <trkpt lat="43.80593" lon="7.45443">
        <ele>597.73552094916</ele>
        <time>2021-01-27T08:43:21Z</time>
      </trkpt>
      <trkpt lat="43.80594" lon="7.45442">
        <ele>596.73546419213</ele>
        <time>2021-01-27T08:43:22Z</time>
      </trkpt>
      <trkpt lat="43.80594" lon="7.4544">
        <ele>596.73541621139</ele>
        <time>2021-01-27T08:43:23Z</time>
      </trkpt>
      <trkpt lat="43.80596" lon="7.45439">
        <ele>596.73534560174</ele>
        <time>2021-01-27T08:43:24Z</time>
      </trkpt>
      <trkpt lat="43.80596" lon="7.45437">
        <ele>596.73531137041</ele>
        <time>2021-01-27T08:43:25Z</time>
      </trkpt>
      <trkpt lat="43.80596" lon="7.45436">
        <ele>595.73528233944</ele>
        <time>2021-01-27T08:43:26Z</time>
      </trkpt>
      <trkpt lat="43.80596" lon="7.45434">
        <ele>595.7352740544</ele>
        <time>2021-01-27T08:43:27Z</time>
      </trkpt>
      <trkpt lat="43.80596" lon="7.45433">
        <ele>595.73526056473</ele>
        <time>2021-01-27T08:43:28Z</time>
      </trkpt>
      <trkpt lat="43.80596" lon="7.45432">
        <ele>596.73524140881</ele>
        <time>2021-01-27T08:43:29Z</time>
      </trkpt>
      <trkpt lat="43.80597" lon="7.4543">
        <ele>595.73520865487</ele>
        <time>2021-01-27T08:43:30Z</time>
      </trkpt>
      <trkpt lat="43.80597" lon="7.4543">
        <ele>595.73517685055</ele>
        <time>2021-01-27T08:43:31Z</time>
      </trkpt>
      <trkpt lat="43.80598" lon="7.45429">
        <ele>596.73513333177</ele>
        <time>2021-01-27T08:43:32Z</time>
      </trkpt>
      <trkpt lat="43.80599" lon="7.45429">
        <ele>595.73509223557</ele>
        <time>2021-01-27T08:43:33Z</time>
      </trkpt>
      <trkpt lat="43.80599" lon="7.45428">
        <ele>595.73506602353</ele>
        <time>2021-01-27T08:43:34Z</time>
      </trkpt>
      <trkpt lat="43.806" lon="7.45427">
        <ele>595.73502072887</ele>
        <time>2021-01-27T08:43:35Z</time>
      </trkpt>
      <trkpt lat="43.80601" lon="7.45426">
        <ele>595.73497695548</ele>
        <time>2021-01-27T08:43:36Z</time>
      </trkpt>
      <trkpt lat="43.80602" lon="7.45424">
        <ele>595.73490256872</ele>
        <time>2021-01-27T08:43:37Z</time>
      </trkpt>
      <trkpt lat="43.80603" lon="7.45424">
        <ele>595.7348368145</ele>
        <time>2021-01-27T08:43:38Z</time>
      </trkpt>
      <trkpt lat="43.80604" lon="7.45423">
        <ele>594.73480647288</ele>
        <time>2021-01-27T08:43:39Z</time>
      </trkpt>
      <trkpt lat="43.80605" lon="7.45423">
        <ele>594.73476512677</ele>
        <time>2021-01-27T08:43:40Z</time>
      </trkpt>
      <trkpt lat="43.80606" lon="7.45422">
        <ele>595.73471291638</ele>
        <time>2021-01-27T08:43:41Z</time>
      </trkpt>
      <trkpt lat="43.80607" lon="7.45422">
        <ele>595.73466862824</ele>
        <time>2021-01-27T08:43:42Z</time>
      </trkpt>
      <trkpt lat="43.80608" lon="7.45421">
        <ele>595.73461524446</ele>
        <time>2021-01-27T08:43:43Z</time>
      </trkpt>
      <trkpt lat="43.80609" lon="7.45421">
        <ele>595.73455927152</ele>
        <time>2021-01-27T08:43:44Z</time>
      </trkpt>
      <trkpt lat="43.8061" lon="7.4542">
        <ele>595.7345123742</ele>
        <time>2021-01-27T08:43:45Z</time>
      </trkpt>
      <trkpt lat="43.8061" lon="7.4542">
        <ele>595.73446940088</ele>
        <time>2021-01-27T08:43:46Z</time>
      </trkpt>
      <trkpt lat="43.80611" lon="7.4542">
        <ele>594.73442304183</ele>
        <time>2021-01-27T08:43:47Z</time>
      </trkpt>
      <trkpt lat="43.80611" lon="7.4542">
        <ele>594.73442304183</ele>
        <time>2021-01-27T08:43:49Z</time>
      </trkpt>
      <trkpt lat="43.80614" lon="7.45419">
        <ele>595.73428739038</ele>
        <time>2021-01-27T08:43:50Z</time>
      </trkpt>
      <trkpt lat="43.80615" lon="7.45419">
        <ele>594.73426026147</ele>
        <time>2021-01-27T08:43:51Z</time>
      </trkpt>
      <trkpt lat="43.80615" lon="7.45418">
        <ele>595.73423478515</ele>
        <time>2021-01-27T08:43:52Z</time>
      </trkpt>
      <trkpt lat="43.80616" lon="7.45418">
        <ele>596.73418702309</ele>
        <time>2021-01-27T08:43:53Z</time>
      </trkpt>
      <trkpt lat="43.80617" lon="7.45416">
        <ele>596.73412290531</ele>
        <time>2021-01-27T08:43:54Z</time>
      </trkpt>
      <trkpt lat="43.80618" lon="7.45415">
        <ele>596.73406218092</ele>
        <time>2021-01-27T08:43:55Z</time>
      </trkpt>
      <trkpt lat="43.80619" lon="7.45414">
        <ele>596.73399340132</ele>
        <time>2021-01-27T08:43:56Z</time>
      </trkpt>
      <trkpt lat="43.80621" lon="7.45413">
        <ele>596.73392487389</ele>
        <time>2021-01-27T08:43:57Z</time>
      </trkpt>
      <trkpt lat="43.80623" lon="7.45413">
        <ele>596.73383046492</ele>
        <time>2021-01-27T08:43:58Z</time>
      </trkpt>
      <trkpt lat="43.80624" lon="7.45412">
        <ele>595.73375097905</ele>
        <time>2021-01-27T08:43:59Z</time>
      </trkpt>
      <trkpt lat="43.80626" lon="7.45411">
        <ele>595.73367288884</ele>
        <time>2021-01-27T08:44:00Z</time>
      </trkpt>
      <trkpt lat="43.80627" lon="7.4541">
        <ele>594.73359587445</ele>
        <time>2021-01-27T08:44:01Z</time>
      </trkpt>
      <trkpt lat="43.80628" lon="7.45409">
        <ele>593.73352647079</ele>
        <time>2021-01-27T08:44:02Z</time>
      </trkpt>
      <trkpt lat="43.8063" lon="7.45409">
        <ele>593.73346392847</ele>
        <time>2021-01-27T08:44:03Z</time>
      </trkpt>
      <trkpt lat="43.8063" lon="7.45408">
        <ele>593.73341305401</ele>
        <time>2021-01-27T08:44:04Z</time>
      </trkpt>
      <trkpt lat="43.80631" lon="7.45408">
        <ele>593.73337853017</ele>
        <time>2021-01-27T08:44:05Z</time>
      </trkpt>
      <trkpt lat="43.80632" lon="7.45407">
        <ele>592.73333518996</ele>
        <time>2021-01-27T08:44:06Z</time>
      </trkpt>
      <trkpt lat="43.80633" lon="7.45407">
        <ele>593.73327535105</ele>
        <time>2021-01-27T08:44:07Z</time>
      </trkpt>
      <trkpt lat="43.80634" lon="7.45406">
        <ele>592.73322843529</ele>
        <time>2021-01-27T08:44:08Z</time>
      </trkpt>
      <trkpt lat="43.80635" lon="7.45404">
        <ele>591.73316408887</ele>
        <time>2021-01-27T08:44:09Z</time>
      </trkpt>
      <trkpt lat="43.80636" lon="7.45402">
        <ele>590.73309134612</ele>
        <time>2021-01-27T08:44:10Z</time>
      </trkpt>
      <trkpt lat="43.80637" lon="7.45401">
        <ele>589.7330519087</ele>
        <time>2021-01-27T08:44:11Z</time>
      </trkpt>
      <trkpt lat="43.80637" lon="7.454">
        <ele>587.73303896264</ele>
        <time>2021-01-27T08:44:12Z</time>
      </trkpt>
      <trkpt lat="43.80637" lon="7.45398">
        <ele>587.73301437156</ele>
        <time>2021-01-27T08:44:13Z</time>
      </trkpt>
      <trkpt lat="43.80638" lon="7.45398">
        <ele>586.73298179078</ele>
        <time>2021-01-27T08:44:14Z</time>
      </trkpt>
      <trkpt lat="43.80638" lon="7.45396">
        <ele>585.73294646019</ele>
        <time>2021-01-27T08:44:15Z</time>
      </trkpt>
      <trkpt lat="43.80639" lon="7.45393">
        <ele>585.73289109466</ele>
        <time>2021-01-27T08:44:16Z</time>
      </trkpt>
      <trkpt lat="43.8064" lon="7.45391">
        <ele>585.73282055905</ele>
        <time>2021-01-27T08:44:17Z</time>
      </trkpt>
      <trkpt lat="43.80641" lon="7.45388">
        <ele>585.73271589115</ele>
        <time>2021-01-27T08:44:19Z</time>
      </trkpt>
      <trkpt lat="43.80642" lon="7.45387">
        <ele>585.73267000005</ele>
        <time>2021-01-27T08:44:20Z</time>
      </trkpt>
      <trkpt lat="43.80643" lon="7.45386">
        <ele>585.73261401932</ele>
        <time>2021-01-27T08:44:21Z</time>
      </trkpt>
      <trkpt lat="43.80645" lon="7.45385">
        <ele>585.73254614832</ele>
        <time>2021-01-27T08:44:22Z</time>
      </trkpt>
      <trkpt lat="43.80646" lon="7.45385">
        <ele>584.73248609434</ele>
        <time>2021-01-27T08:44:23Z</time>
      </trkpt>
      <trkpt lat="43.80647" lon="7.45382">
        <ele>585.73238121705</ele>
        <time>2021-01-27T08:44:25Z</time>
      </trkpt>
      <trkpt lat="43.80648" lon="7.4538">
        <ele>584.73232699295</ele>
        <time>2021-01-27T08:44:26Z</time>
      </trkpt>
      <trkpt lat="43.80649" lon="7.45378">
        <ele>585.73227747245</ele>
        <time>2021-01-27T08:44:27Z</time>
      </trkpt>
      <trkpt lat="43.80649" lon="7.45377">
        <ele>584.73223176947</ele>
        <time>2021-01-27T08:44:28Z</time>
      </trkpt>
      <trkpt lat="43.8065" lon="7.45376">
        <ele>584.73221483819</ele>
        <time>2021-01-27T08:44:29Z</time>
      </trkpt>
      <trkpt lat="43.80651" lon="7.45375">
        <ele>584.73216030406</ele>
        <time>2021-01-27T08:44:30Z</time>
      </trkpt>
      <trkpt lat="43.80652" lon="7.45374">
        <ele>583.73208330357</ele>
        <time>2021-01-27T08:44:31Z</time>
      </trkpt>
      <trkpt lat="43.80653" lon="7.45373">
        <ele>583.73202999141</ele>
        <time>2021-01-27T08:44:32Z</time>
      </trkpt>
      <trkpt lat="43.80654" lon="7.45371">
        <ele>583.73197045784</ele>
        <time>2021-01-27T08:44:34Z</time>
      </trkpt>
      <trkpt lat="43.80654" lon="7.4537">
        <ele>582.73194532009</ele>
        <time>2021-01-27T08:44:35Z</time>
      </trkpt>
      <trkpt lat="43.80655" lon="7.45368">
        <ele>581.73191120813</ele>
        <time>2021-01-27T08:44:36Z</time>
      </trkpt>
      <trkpt lat="43.80655" lon="7.45367">
        <ele>581.73186634448</ele>
        <time>2021-01-27T08:44:37Z</time>
      </trkpt>
      <trkpt lat="43.80656" lon="7.45366">
        <ele>580.73181985041</ele>
        <time>2021-01-27T08:44:38Z</time>
      </trkpt>
      <trkpt lat="43.80656" lon="7.45365">
        <ele>580.73180116569</ele>
        <time>2021-01-27T08:44:39Z</time>
      </trkpt>
      <trkpt lat="43.80657" lon="7.45364">
        <ele>579.73174933329</ele>
        <time>2021-01-27T08:44:41Z</time>
      </trkpt>
      <trkpt lat="43.80659" lon="7.45363">
        <ele>580.73168324062</ele>
        <time>2021-01-27T08:44:42Z</time>
      </trkpt>
      <trkpt lat="43.80659" lon="7.45363">
        <ele>580.73164280288</ele>
        <time>2021-01-27T08:44:43Z</time>
      </trkpt>
      <trkpt lat="43.8066" lon="7.45361">
        <ele>579.73158654257</ele>
        <time>2021-01-27T08:44:44Z</time>
      </trkpt>
      <trkpt lat="43.80661" lon="7.4536">
        <ele>578.73152221745</ele>
        <time>2021-01-27T08:44:45Z</time>
      </trkpt>
      <trkpt lat="43.80662" lon="7.45358">
        <ele>578.73145308029</ele>
        <time>2021-01-27T08:44:46Z</time>
      </trkpt>
      <trkpt lat="43.80663" lon="7.45356">
        <ele>577.7314086904</ele>
        <time>2021-01-27T08:44:47Z</time>
      </trkpt>
      <trkpt lat="43.80663" lon="7.45354">
        <ele>577.73138818314</ele>
        <time>2021-01-27T08:44:49Z</time>
      </trkpt>
      <trkpt lat="43.80664" lon="7.45353">
        <ele>575.7313240867</ele>
        <time>2021-01-27T08:44:51Z</time>
      </trkpt>
      <trkpt lat="43.80665" lon="7.45351">
        <ele>575.73127943006</ele>
        <time>2021-01-27T08:44:52Z</time>
      </trkpt>
      <trkpt lat="43.80665" lon="7.4535">
        <ele>576.73123024102</ele>
        <time>2021-01-27T08:44:53Z</time>
      </trkpt>
      <trkpt lat="43.80667" lon="7.45347">
        <ele>575.73113984243</ele>
        <time>2021-01-27T08:44:55Z</time>
      </trkpt>
      <trkpt lat="43.80668" lon="7.45345">
        <ele>576.73108313089</ele>
        <time>2021-01-27T08:44:56Z</time>
      </trkpt>
      <trkpt lat="43.80668" lon="7.45344">
        <ele>575.73106822076</ele>
        <time>2021-01-27T08:44:57Z</time>
      </trkpt>
      <trkpt lat="43.80668" lon="7.45342">
        <ele>575.7310281253</ele>
        <time>2021-01-27T08:44:58Z</time>
      </trkpt>
      <trkpt lat="43.80669" lon="7.45338">
        <ele>575.73096928911</ele>
        <time>2021-01-27T08:45:00Z</time>
      </trkpt>
      <trkpt lat="43.80669" lon="7.45336">
        <ele>576.73094566664</ele>
        <time>2021-01-27T08:45:01Z</time>
      </trkpt>
      <trkpt lat="43.80669" lon="7.45335">
        <ele>576.73091389712</ele>
        <time>2021-01-27T08:45:02Z</time>
      </trkpt>
      <trkpt lat="43.80669" lon="7.45332">
        <ele>575.73088876865</ele>
        <time>2021-01-27T08:45:04Z</time>
      </trkpt>
      <trkpt lat="43.80669" lon="7.45329">
        <ele>575.73085775705</ele>
        <time>2021-01-27T08:45:06Z</time>
      </trkpt>
      <trkpt lat="43.8067" lon="7.45328">
        <ele>574.73082093636</ele>
        <time>2021-01-27T08:45:07Z</time>
      </trkpt>
      <trkpt lat="43.8067" lon="7.45326">
        <ele>574.73079944874</ele>
        <time>2021-01-27T08:45:08Z</time>
      </trkpt>
      <trkpt lat="43.8067" lon="7.45324">
        <ele>574.73076041277</ele>
        <time>2021-01-27T08:45:10Z</time>
      </trkpt>
      <trkpt lat="43.80671" lon="7.45322">
        <ele>574.73073736997</ele>
        <time>2021-01-27T08:45:11Z</time>
      </trkpt>
      <trkpt lat="43.80671" lon="7.45321">
        <ele>574.73072989114</ele>
        <time>2021-01-27T08:45:12Z</time>
      </trkpt>
      <trkpt lat="43.80671" lon="7.4532">
        <ele>575.73071036629</ele>
        <time>2021-01-27T08:45:13Z</time>
      </trkpt>
      <trkpt lat="43.80671" lon="7.45319">
        <ele>573.73069430353</ele>
        <time>2021-01-27T08:45:15Z</time>
      </trkpt>
      <trkpt lat="43.80671" lon="7.45317">
        <ele>573.73069789323</ele>
        <time>2021-01-27T08:45:16Z</time>
      </trkpt>
      <trkpt lat="43.80671" lon="7.45317">
        <ele>573.73068348355</ele>
        <time>2021-01-27T08:45:17Z</time>
      </trkpt>
      <trkpt lat="43.80671" lon="7.45316">
        <ele>573.73065118559</ele>
        <time>2021-01-27T08:45:18Z</time>
      </trkpt>
      <trkpt lat="43.80672" lon="7.45314">
        <ele>573.73058034976</ele>
        <time>2021-01-27T08:45:20Z</time>
      </trkpt>
      <trkpt lat="43.80673" lon="7.45314">
        <ele>573.73054603257</ele>
        <time>2021-01-27T08:45:22Z</time>
      </trkpt>
      <trkpt lat="43.80673" lon="7.45313">
        <ele>573.73053159054</ele>
        <time>2021-01-27T08:45:25Z</time>
      </trkpt>
      <trkpt lat="43.80674" lon="7.45312">
        <ele>574.7304764564</ele>
        <time>2021-01-27T08:45:26Z</time>
      </trkpt>
      <trkpt lat="43.80675" lon="7.45313">
        <ele>574.73045736238</ele>
        <time>2021-01-27T08:45:27Z</time>
      </trkpt>
      <trkpt lat="43.80675" lon="7.45314">
        <ele>574.73044073396</ele>
        <time>2021-01-27T08:45:29Z</time>
      </trkpt>
      <trkpt lat="43.80676" lon="7.45315">
        <ele>576.73040959333</ele>
        <time>2021-01-27T08:45:30Z</time>
      </trkpt>
      <trkpt lat="43.80676" lon="7.45316">
        <ele>580.73039727722</ele>
        <time>2021-01-27T08:45:41Z</time>
      </trkpt>
      <trkpt lat="43.80676" lon="7.45317">
        <ele>580.7304379667</ele>
        <time>2021-01-27T08:45:45Z</time>
      </trkpt>
      <trkpt lat="43.80676" lon="7.45317">
        <ele>580.73044371103</ele>
        <time>2021-01-27T08:45:54Z</time>
      </trkpt>
      <trkpt lat="43.80676" lon="7.45316">
        <ele>580.73040658014</ele>
        <time>2021-01-27T08:45:56Z</time>
      </trkpt>
      <trkpt lat="43.80677" lon="7.45316">
        <ele>579.73038597259</ele>
        <time>2021-01-27T08:45:57Z</time>
      </trkpt>
      <trkpt lat="43.80677" lon="7.45315">
        <ele>579.73035630671</ele>
        <time>2021-01-27T08:45:58Z</time>
      </trkpt>
      <trkpt lat="43.80679" lon="7.45316">
        <ele>579.73030370958</ele>
        <time>2021-01-27T08:46:00Z</time>
      </trkpt>
      <trkpt lat="43.80679" lon="7.45316">
        <ele>579.73025738157</ele>
        <time>2021-01-27T08:46:01Z</time>
      </trkpt>
      <trkpt lat="43.80681" lon="7.45315">
        <ele>579.73019925426</ele>
        <time>2021-01-27T08:46:02Z</time>
      </trkpt>
      <trkpt lat="43.80682" lon="7.45316">
        <ele>579.73013480036</ele>
        <time>2021-01-27T08:46:03Z</time>
      </trkpt>
      <trkpt lat="43.80683" lon="7.45316">
        <ele>580.73010988544</ele>
        <time>2021-01-27T08:46:04Z</time>
      </trkpt>
      <trkpt lat="43.80683" lon="7.45315">
        <ele>580.73006853594</ele>
        <time>2021-01-27T08:46:06Z</time>
      </trkpt>
      <trkpt lat="43.80683" lon="7.45315">
        <ele>580.73006853594</ele>
        <time>2021-01-27T08:46:07Z</time>
      </trkpt>
      <trkpt lat="43.80685" lon="7.45314">
        <ele>580.72998825352</ele>
        <time>2021-01-27T08:46:08Z</time>
      </trkpt>
      <trkpt lat="43.80686" lon="7.45314">
        <ele>580.72993849197</ele>
        <time>2021-01-27T08:46:09Z</time>
      </trkpt>
      <trkpt lat="43.80687" lon="7.45313">
        <ele>580.72989210902</ele>
        <time>2021-01-27T08:46:10Z</time>
      </trkpt>
      <trkpt lat="43.80687" lon="7.45313">
        <ele>578.72987267158</ele>
        <time>2021-01-27T08:46:14Z</time>
      </trkpt>
      <trkpt lat="43.80688" lon="7.45314">
        <ele>578.7298546567</ele>
        <time>2021-01-27T08:46:16Z</time>
      </trkpt>
      <trkpt lat="43.80688" lon="7.45315">
        <ele>579.72983177346</ele>
        <time>2021-01-27T08:46:17Z</time>
      </trkpt>
      <trkpt lat="43.80689" lon="7.45316">
        <ele>579.72982514971</ele>
        <time>2021-01-27T08:46:18Z</time>
      </trkpt>
      <trkpt lat="43.80689" lon="7.45318">
        <ele>579.72982739435</ele>
        <time>2021-01-27T08:46:19Z</time>
      </trkpt>
      <trkpt lat="43.80689" lon="7.4532">
        <ele>579.72981760948</ele>
        <time>2021-01-27T08:46:20Z</time>
      </trkpt>
      <trkpt lat="43.8069" lon="7.45321">
        <ele>579.729809113</ele>
        <time>2021-01-27T08:46:21Z</time>
      </trkpt>
      <trkpt lat="43.8069" lon="7.45321">
        <ele>579.72979963177</ele>
        <time>2021-01-27T08:46:23Z</time>
      </trkpt>
      <trkpt lat="43.80692" lon="7.45324">
        <ele>579.72974374775</ele>
        <time>2021-01-27T08:46:25Z</time>
      </trkpt>
      <trkpt lat="43.80692" lon="7.45324">
        <ele>579.72973088748</ele>
        <time>2021-01-27T08:46:26Z</time>
      </trkpt>
      <trkpt lat="43.80693" lon="7.45325">
        <ele>579.72971546008</ele>
        <time>2021-01-27T08:46:27Z</time>
      </trkpt>
      <trkpt lat="43.80693" lon="7.45326">
        <ele>579.72969320777</ele>
        <time>2021-01-27T08:46:29Z</time>
      </trkpt>
      <trkpt lat="43.80694" lon="7.45327">
        <ele>578.72966364051</ele>
        <time>2021-01-27T08:46:31Z</time>
      </trkpt>
      <trkpt lat="43.80695" lon="7.4533">
        <ele>579.72963831828</ele>
        <time>2021-01-27T08:46:32Z</time>
      </trkpt>
      <trkpt lat="43.80696" lon="7.45331">
        <ele>579.72960916445</ele>
        <time>2021-01-27T08:46:33Z</time>
      </trkpt>
      <trkpt lat="43.80698" lon="7.45333">
        <ele>578.72955267624</ele>
        <time>2021-01-27T08:46:35Z</time>
      </trkpt>
      <trkpt lat="43.80698" lon="7.45334">
        <ele>578.72952882725</ele>
        <time>2021-01-27T08:46:36Z</time>
      </trkpt>
      <trkpt lat="43.80698" lon="7.45335">
        <ele>578.7295288156</ele>
        <time>2021-01-27T08:46:37Z</time>
      </trkpt>
      <trkpt lat="43.80699" lon="7.45337">
        <ele>579.72950054889</ele>
        <time>2021-01-27T08:46:39Z</time>
      </trkpt>
      <trkpt lat="43.80701" lon="7.45338">
        <ele>579.72945184024</ele>
        <time>2021-01-27T08:46:41Z</time>
      </trkpt>
      <trkpt lat="43.80702" lon="7.45339">
        <ele>578.72941005536</ele>
        <time>2021-01-27T08:46:42Z</time>
      </trkpt>
      <trkpt lat="43.80703" lon="7.45339">
        <ele>578.72937432912</ele>
        <time>2021-01-27T08:46:43Z</time>
      </trkpt>
      <trkpt lat="43.80704" lon="7.45339">
        <ele>578.72932794113</ele>
        <time>2021-01-27T08:46:45Z</time>
      </trkpt>
      <trkpt lat="43.80706" lon="7.45341">
        <ele>578.72923926966</ele>
        <time>2021-01-27T08:46:46Z</time>
      </trkpt>
      <trkpt lat="43.80707" lon="7.45341">
        <ele>579.72918798974</ele>
        <time>2021-01-27T08:46:47Z</time>
      </trkpt>
      <trkpt lat="43.80707" lon="7.45342">
        <ele>579.72916569013</ele>
        <time>2021-01-27T08:46:48Z</time>
      </trkpt>
      <trkpt lat="43.80708" lon="7.45343">
        <ele>579.72913242484</ele>
        <time>2021-01-27T08:46:49Z</time>
      </trkpt>
      <trkpt lat="43.80709" lon="7.45344">
        <ele>578.72910120969</ele>
        <time>2021-01-27T08:46:50Z</time>
      </trkpt>
      <trkpt lat="43.8071" lon="7.45344">
        <ele>578.72906791413</ele>
        <time>2021-01-27T08:46:51Z</time>
      </trkpt>
      <trkpt lat="43.80711" lon="7.45345">
        <ele>578.72904687378</ele>
        <time>2021-01-27T08:46:52Z</time>
      </trkpt>
      <trkpt lat="43.80711" lon="7.45346">
        <ele>579.72901784551</ele>
        <time>2021-01-27T08:46:54Z</time>
      </trkpt>
      <trkpt lat="43.80712" lon="7.45347">
        <ele>579.72898704592</ele>
        <time>2021-01-27T08:46:57Z</time>
      </trkpt>
      <trkpt lat="43.80714" lon="7.45348">
        <ele>579.72889044189</ele>
        <time>2021-01-27T08:46:58Z</time>
      </trkpt>
      <trkpt lat="43.80716" lon="7.45349">
        <ele>579.72883919657</ele>
        <time>2021-01-27T08:47:00Z</time>
      </trkpt>
      <trkpt lat="43.80717" lon="7.4535">
        <ele>579.72879685473</ele>
        <time>2021-01-27T08:47:01Z</time>
      </trkpt>
      <trkpt lat="43.80718" lon="7.4535">
        <ele>579.72875869808</ele>
        <time>2021-01-27T08:47:02Z</time>
      </trkpt>
      <trkpt lat="43.80718" lon="7.4535">
        <ele>579.72871872672</ele>
        <time>2021-01-27T08:47:03Z</time>
      </trkpt>
      <trkpt lat="43.80718" lon="7.4535">
        <ele>579.72871872672</ele>
        <time>2021-01-27T08:47:05Z</time>
      </trkpt>
      <trkpt lat="43.8072" lon="7.45352">
        <ele>579.72866263217</ele>
        <time>2021-01-27T08:47:06Z</time>
      </trkpt>
      <trkpt lat="43.80721" lon="7.45354">
        <ele>579.72864793263</ele>
        <time>2021-01-27T08:47:07Z</time>
      </trkpt>
      <trkpt lat="43.80722" lon="7.45354">
        <ele>578.72859914088</ele>
        <time>2021-01-27T08:47:09Z</time>
      </trkpt>
      <trkpt lat="43.80723" lon="7.45354">
        <ele>579.72854446636</ele>
        <time>2021-01-27T08:47:11Z</time>
      </trkpt>
      <trkpt lat="43.80723" lon="7.45355">
        <ele>580.72852529737</ele>
        <time>2021-01-27T08:47:12Z</time>
      </trkpt>
      <trkpt lat="43.80725" lon="7.45355">
        <ele>580.72846560213</ele>
        <time>2021-01-27T08:47:13Z</time>
      </trkpt>
      <trkpt lat="43.80726" lon="7.45355">
        <ele>580.7284217548</ele>
        <time>2021-01-27T08:47:15Z</time>
      </trkpt>
      <trkpt lat="43.80726" lon="7.45356">
        <ele>580.72840287442</ele>
        <time>2021-01-27T08:47:17Z</time>
      </trkpt>
      <trkpt lat="43.80729" lon="7.45359">
        <ele>581.72828483258</ele>
        <time>2021-01-27T08:47:19Z</time>
      </trkpt>
      <trkpt lat="43.80731" lon="7.45361">
        <ele>580.72822649311</ele>
        <time>2021-01-27T08:47:21Z</time>
      </trkpt>
      <trkpt lat="43.80732" lon="7.45362">
        <ele>580.72819786787</ele>
        <time>2021-01-27T08:47:22Z</time>
      </trkpt>
      <trkpt lat="43.80733" lon="7.45363">
        <ele>580.72814837165</ele>
        <time>2021-01-27T08:47:23Z</time>
      </trkpt>
      <trkpt lat="43.80735" lon="7.45364">
        <ele>580.72806893257</ele>
        <time>2021-01-27T08:47:25Z</time>
      </trkpt>
      <trkpt lat="43.80736" lon="7.45365">
        <ele>581.72804023211</ele>
        <time>2021-01-27T08:47:26Z</time>
      </trkpt>
      <trkpt lat="43.80737" lon="7.45365">
        <ele>581.72798860997</ele>
        <time>2021-01-27T08:47:27Z</time>
      </trkpt>
      <trkpt lat="43.80738" lon="7.45368">
        <ele>581.72794017872</ele>
        <time>2021-01-27T08:47:29Z</time>
      </trkpt>
      <trkpt lat="43.8074" lon="7.4537">
        <ele>581.72788685292</ele>
        <time>2021-01-27T08:47:31Z</time>
      </trkpt>
      <trkpt lat="43.80741" lon="7.45371">
        <ele>582.72786482307</ele>
        <time>2021-01-27T08:47:32Z</time>
      </trkpt>
      <trkpt lat="43.80741" lon="7.45372">
        <ele>582.7278381744</ele>
        <time>2021-01-27T08:47:33Z</time>
      </trkpt>
      <trkpt lat="43.80742" lon="7.45373">
        <ele>582.72780985458</ele>
        <time>2021-01-27T08:47:34Z</time>
      </trkpt>
      <trkpt lat="43.80743" lon="7.45375">
        <ele>582.72779537781</ele>
        <time>2021-01-27T08:47:35Z</time>
      </trkpt>
      <trkpt lat="43.80743" lon="7.45376">
        <ele>582.72778982263</ele>
        <time>2021-01-27T08:47:36Z</time>
      </trkpt>
      <trkpt lat="43.80744" lon="7.45377">
        <ele>582.72776148571</ele>
        <time>2021-01-27T08:47:37Z</time>
      </trkpt>
      <trkpt lat="43.80744" lon="7.45378">
        <ele>582.72774331069</ele>
        <time>2021-01-27T08:47:38Z</time>
      </trkpt>
      <trkpt lat="43.80746" lon="7.45381">
        <ele>583.72769048383</ele>
        <time>2021-01-27T08:47:40Z</time>
      </trkpt>
      <trkpt lat="43.80747" lon="7.45382">
        <ele>584.72766051688</ele>
        <time>2021-01-27T08:47:41Z</time>
      </trkpt>
      <trkpt lat="43.80748" lon="7.45383">
        <ele>585.72762720122</ele>
        <time>2021-01-27T08:47:42Z</time>
      </trkpt>
      <trkpt lat="43.80748" lon="7.45385">
        <ele>585.72761270717</ele>
        <time>2021-01-27T08:47:43Z</time>
      </trkpt>
      <trkpt lat="43.80749" lon="7.45385">
        <ele>585.72757528226</ele>
        <time>2021-01-27T08:47:44Z</time>
      </trkpt>
      <trkpt lat="43.80751" lon="7.45388">
        <ele>585.72753535081</ele>
        <time>2021-01-27T08:47:46Z</time>
      </trkpt>
      <trkpt lat="43.80751" lon="7.45389">
        <ele>586.72751436859</ele>
        <time>2021-01-27T08:47:47Z</time>
      </trkpt>
      <trkpt lat="43.80752" lon="7.4539">
        <ele>586.72750719727</ele>
        <time>2021-01-27T08:47:48Z</time>
      </trkpt>
      <trkpt lat="43.80752" lon="7.45392">
        <ele>587.72749442166</ele>
        <time>2021-01-27T08:47:49Z</time>
      </trkpt>
      <trkpt lat="43.80753" lon="7.45393">
        <ele>587.72747477944</ele>
        <time>2021-01-27T08:47:50Z</time>
      </trkpt>
      <trkpt lat="43.80754" lon="7.45394">
        <ele>588.72745592354</ele>
        <time>2021-01-27T08:47:51Z</time>
      </trkpt>
      <trkpt lat="43.80754" lon="7.45395">
        <ele>588.7274469622</ele>
        <time>2021-01-27T08:47:52Z</time>
      </trkpt>
      <trkpt lat="43.80755" lon="7.45397">
        <ele>588.72742283828</ele>
        <time>2021-01-27T08:47:53Z</time>
      </trkpt>
      <trkpt lat="43.80756" lon="7.454">
        <ele>589.72738088795</ele>
        <time>2021-01-27T08:47:55Z</time>
      </trkpt>
      <trkpt lat="43.80757" lon="7.45401">
        <ele>589.72737182668</ele>
        <time>2021-01-27T08:47:56Z</time>
      </trkpt>
      <trkpt lat="43.80757" lon="7.45402">
        <ele>589.72735326162</ele>
        <time>2021-01-27T08:47:57Z</time>
      </trkpt>
      <trkpt lat="43.80758" lon="7.45405">
        <ele>589.72732566581</ele>
        <time>2021-01-27T08:47:59Z</time>
      </trkpt>
      <trkpt lat="43.80759" lon="7.45408">
        <ele>590.72730853535</ele>
        <time>2021-01-27T08:48:01Z</time>
      </trkpt>
      <trkpt lat="43.8076" lon="7.45409">
        <ele>590.72728293773</ele>
        <time>2021-01-27T08:48:02Z</time>
      </trkpt>
      <trkpt lat="43.80761" lon="7.45411">
        <ele>590.72728203018</ele>
        <time>2021-01-27T08:48:03Z</time>
      </trkpt>
      <trkpt lat="43.80761" lon="7.45413">
        <ele>590.72728960689</ele>
        <time>2021-01-27T08:48:05Z</time>
      </trkpt>
      <trkpt lat="43.80761" lon="7.45414">
        <ele>591.72727848163</ele>
        <time>2021-01-27T08:48:06Z</time>
      </trkpt>
      <trkpt lat="43.80761" lon="7.45415">
        <ele>592.7272799493</ele>
        <time>2021-01-27T08:48:07Z</time>
      </trkpt>
      <trkpt lat="43.80761" lon="7.45416">
        <ele>592.72728478161</ele>
        <time>2021-01-27T08:48:08Z</time>
      </trkpt>
      <trkpt lat="43.80762" lon="7.45418">
        <ele>592.72727331353</ele>
        <time>2021-01-27T08:48:10Z</time>
      </trkpt>
      <trkpt lat="43.80763" lon="7.45419">
        <ele>592.72725247958</ele>
        <time>2021-01-27T08:48:11Z</time>
      </trkpt>
      <trkpt lat="43.80764" lon="7.4542">
        <ele>593.72721545998</ele>
        <time>2021-01-27T08:48:12Z</time>
      </trkpt>
      <trkpt lat="43.80765" lon="7.4542">
        <ele>593.72718288131</ele>
        <time>2021-01-27T08:48:13Z</time>
      </trkpt>
      <trkpt lat="43.80765" lon="7.45421">
        <ele>593.72715076217</ele>
        <time>2021-01-27T08:48:14Z</time>
      </trkpt>
      <trkpt lat="43.80766" lon="7.45423">
        <ele>593.72712779309</ele>
        <time>2021-01-27T08:48:15Z</time>
      </trkpt>
      <trkpt lat="43.80767" lon="7.45424">
        <ele>594.72709600318</ele>
        <time>2021-01-27T08:48:16Z</time>
      </trkpt>
      <trkpt lat="43.80768" lon="7.45424">
        <ele>594.72706140006</ele>
        <time>2021-01-27T08:48:17Z</time>
      </trkpt>
      <trkpt lat="43.8077" lon="7.45425">
        <ele>595.72695115323</ele>
        <time>2021-01-27T08:48:19Z</time>
      </trkpt>
      <trkpt lat="43.80771" lon="7.45425">
        <ele>596.72691931619</ele>
        <time>2021-01-27T08:48:20Z</time>
      </trkpt>
      <trkpt lat="43.80772" lon="7.45426">
        <ele>596.72687373374</ele>
        <time>2021-01-27T08:48:21Z</time>
      </trkpt>
      <trkpt lat="43.80773" lon="7.45426">
        <ele>596.7268297575</ele>
        <time>2021-01-27T08:48:22Z</time>
      </trkpt>
      <trkpt lat="43.80774" lon="7.45426">
        <ele>596.72680491743</ele>
        <time>2021-01-27T08:48:23Z</time>
      </trkpt>
      <trkpt lat="43.80775" lon="7.45427">
        <ele>597.72674361811</ele>
        <time>2021-01-27T08:48:24Z</time>
      </trkpt>
      <trkpt lat="43.80776" lon="7.45427">
        <ele>596.72670119295</ele>
        <time>2021-01-27T08:48:25Z</time>
      </trkpt>
      <trkpt lat="43.80777" lon="7.45426">
        <ele>596.72665205915</ele>
        <time>2021-01-27T08:48:26Z</time>
      </trkpt>
      <trkpt lat="43.80777" lon="7.45426">
        <ele>596.72662470173</ele>
        <time>2021-01-27T08:48:27Z</time>
      </trkpt>
      <trkpt lat="43.80778" lon="7.45426">
        <ele>596.72659271481</ele>
        <time>2021-01-27T08:48:28Z</time>
      </trkpt>
      <trkpt lat="43.80779" lon="7.45425">
        <ele>596.72653254688</ele>
        <time>2021-01-27T08:48:29Z</time>
      </trkpt>
      <trkpt lat="43.8078" lon="7.45425">
        <ele>596.72651794223</ele>
        <time>2021-01-27T08:48:31Z</time>
      </trkpt>
      <trkpt lat="43.80781" lon="7.45425">
        <ele>596.72646129639</ele>
        <time>2021-01-27T08:48:32Z</time>
      </trkpt>
      <trkpt lat="43.80782" lon="7.45426">
        <ele>596.72640524611</ele>
        <time>2021-01-27T08:48:33Z</time>
      </trkpt>
      <trkpt lat="43.80783" lon="7.45425">
        <ele>596.72634853752</ele>
        <time>2021-01-27T08:48:34Z</time>
      </trkpt>
      <trkpt lat="43.80784" lon="7.45425">
        <ele>596.72629848576</ele>
        <time>2021-01-27T08:48:35Z</time>
      </trkpt>
      <trkpt lat="43.80785" lon="7.45425">
        <ele>596.72625459772</ele>
        <time>2021-01-27T08:48:36Z</time>
      </trkpt>
      <trkpt lat="43.80786" lon="7.45425">
        <ele>596.72621664257</ele>
        <time>2021-01-27T08:48:37Z</time>
      </trkpt>
      <trkpt lat="43.80787" lon="7.45425">
        <ele>596.72616568367</ele>
        <time>2021-01-27T08:48:38Z</time>
      </trkpt>
      <trkpt lat="43.80788" lon="7.45424">
        <ele>596.72612560545</ele>
        <time>2021-01-27T08:48:39Z</time>
      </trkpt>
      <trkpt lat="43.80788" lon="7.45424">
        <ele>595.72608583597</ele>
        <time>2021-01-27T08:48:42Z</time>
      </trkpt>
      <trkpt lat="43.8079" lon="7.45423">
        <ele>595.72597941774</ele>
        <time>2021-01-27T08:48:43Z</time>
      </trkpt>
      <trkpt lat="43.80791" lon="7.45423">
        <ele>595.72595211756</ele>
        <time>2021-01-27T08:48:44Z</time>
      </trkpt>
      <trkpt lat="43.80791" lon="7.45424">
        <ele>596.72595129493</ele>
        <time>2021-01-27T08:48:45Z</time>
      </trkpt>
      <trkpt lat="43.80792" lon="7.45424">
        <ele>596.72593137132</ele>
        <time>2021-01-27T08:48:48Z</time>
      </trkpt>
      <trkpt lat="43.80793" lon="7.45424">
        <ele>597.72585480297</ele>
        <time>2021-01-27T08:48:49Z</time>
      </trkpt>
      <trkpt lat="43.80794" lon="7.45424">
        <ele>597.72581331451</ele>
        <time>2021-01-27T08:48:51Z</time>
      </trkpt>
      <trkpt lat="43.80795" lon="7.45424">
        <ele>597.72575599903</ele>
        <time>2021-01-27T08:48:52Z</time>
      </trkpt>
      <trkpt lat="43.80796" lon="7.45424">
        <ele>597.72572078318</ele>
        <time>2021-01-27T08:48:54Z</time>
      </trkpt>
      <trkpt lat="43.80798" lon="7.45423">
        <ele>597.72562406064</ele>
        <time>2021-01-27T08:48:57Z</time>
      </trkpt>
      <trkpt lat="43.80798" lon="7.45423">
        <ele>597.72560500271</ele>
        <time>2021-01-27T08:48:58Z</time>
      </trkpt>
      <trkpt lat="43.80799" lon="7.45421">
        <ele>597.72553971322</ele>
        <time>2021-01-27T08:49:00Z</time>
      </trkpt>
      <trkpt lat="43.808" lon="7.45422">
        <ele>597.72549282334</ele>
        <time>2021-01-27T08:49:01Z</time>
      </trkpt>
      <trkpt lat="43.80801" lon="7.45421">
        <ele>597.72543530255</ele>
        <time>2021-01-27T08:49:02Z</time>
      </trkpt>
      <trkpt lat="43.80802" lon="7.4542">
        <ele>596.72537906206</ele>
        <time>2021-01-27T08:49:03Z</time>
      </trkpt>
      <trkpt lat="43.80803" lon="7.45419">
        <ele>596.72533650805</ele>
        <time>2021-01-27T08:49:04Z</time>
      </trkpt>
      <trkpt lat="43.80804" lon="7.45418">
        <ele>596.72527059707</ele>
        <time>2021-01-27T08:49:05Z</time>
      </trkpt>
      <trkpt lat="43.80805" lon="7.45418">
        <ele>596.72525869755</ele>
        <time>2021-01-27T08:49:08Z</time>
      </trkpt>
      <trkpt lat="43.80807" lon="7.45418">
        <ele>596.72514355125</ele>
        <time>2021-01-27T08:49:11Z</time>
      </trkpt>
      <trkpt lat="43.80808" lon="7.45418">
        <ele>597.72510562007</ele>
        <time>2021-01-27T08:49:14Z</time>
      </trkpt>
      <trkpt lat="43.80809" lon="7.45418">
        <ele>597.72506288058</ele>
        <time>2021-01-27T08:49:15Z</time>
      </trkpt>
      <trkpt lat="43.8081" lon="7.45417">
        <ele>597.72500459099</ele>
        <time>2021-01-27T08:49:16Z</time>
      </trkpt>
      <trkpt lat="43.80811" lon="7.45417">
        <ele>597.72495469446</ele>
        <time>2021-01-27T08:49:17Z</time>
      </trkpt>
      <trkpt lat="43.80812" lon="7.45417">
        <ele>597.72489922148</ele>
        <time>2021-01-27T08:49:18Z</time>
      </trkpt>
      <trkpt lat="43.80813" lon="7.45416">
        <ele>598.72484412914</ele>
        <time>2021-01-27T08:49:19Z</time>
      </trkpt>
      <trkpt lat="43.80814" lon="7.45416">
        <ele>598.72479904662</ele>
        <time>2021-01-27T08:49:20Z</time>
      </trkpt>
      <trkpt lat="43.80815" lon="7.45416">
        <ele>598.72477033116</ele>
        <time>2021-01-27T08:49:21Z</time>
      </trkpt>
      <trkpt lat="43.80815" lon="7.45415">
        <ele>599.7247486833</ele>
        <time>2021-01-27T08:49:22Z</time>
      </trkpt>
      <trkpt lat="43.80816" lon="7.45415">
        <ele>599.72471548077</ele>
        <time>2021-01-27T08:49:23Z</time>
      </trkpt>
      <trkpt lat="43.80817" lon="7.45415">
        <ele>600.72463004873</ele>
        <time>2021-01-27T08:49:25Z</time>
      </trkpt>
      <trkpt lat="43.80818" lon="7.45415">
        <ele>600.72459149507</ele>
        <time>2021-01-27T08:49:26Z</time>
      </trkpt>
      <trkpt lat="43.80819" lon="7.45414">
        <ele>600.72455294063</ele>
        <time>2021-01-27T08:49:27Z</time>
      </trkpt>
      <trkpt lat="43.8082" lon="7.45414">
        <ele>600.72447532856</ele>
        <time>2021-01-27T08:49:29Z</time>
      </trkpt>
      <trkpt lat="43.80823" lon="7.45413">
        <ele>599.72435274827</ele>
        <time>2021-01-27T08:49:31Z</time>
      </trkpt>
      <trkpt lat="43.80824" lon="7.45412">
        <ele>599.72430214346</ele>
        <time>2021-01-27T08:49:32Z</time>
      </trkpt>
      <trkpt lat="43.80824" lon="7.45411">
        <ele>599.72425769667</ele>
        <time>2021-01-27T08:49:33Z</time>
      </trkpt>
      <trkpt lat="43.80825" lon="7.45409">
        <ele>599.72422933156</ele>
        <time>2021-01-27T08:49:35Z</time>
      </trkpt>
      <trkpt lat="43.80825" lon="7.45408">
        <ele>598.72419982451</ele>
        <time>2021-01-27T08:49:36Z</time>
      </trkpt>
      <trkpt lat="43.80825" lon="7.45407">
        <ele>598.72417656258</ele>
        <time>2021-01-27T08:49:37Z</time>
      </trkpt>
      <trkpt lat="43.80826" lon="7.45406">
        <ele>598.72412140094</ele>
        <time>2021-01-27T08:49:39Z</time>
      </trkpt>
      <trkpt lat="43.80828" lon="7.45406">
        <ele>598.72405479268</ele>
        <time>2021-01-27T08:49:41Z</time>
      </trkpt>
      <trkpt lat="43.80828" lon="7.45405">
        <ele>599.72402121973</ele>
        <time>2021-01-27T08:49:42Z</time>
      </trkpt>
      <trkpt lat="43.80829" lon="7.45405">
        <ele>599.72398477173</ele>
        <time>2021-01-27T08:49:43Z</time>
      </trkpt>
      <trkpt lat="43.8083" lon="7.45404">
        <ele>599.72394783548</ele>
        <time>2021-01-27T08:49:44Z</time>
      </trkpt>
      <trkpt lat="43.8083" lon="7.45403">
        <ele>598.72390396944</ele>
        <time>2021-01-27T08:49:45Z</time>
      </trkpt>
      <trkpt lat="43.8083" lon="7.45403">
        <ele>598.72390396944</ele>
        <time>2021-01-27T08:49:47Z</time>
      </trkpt>
      <trkpt lat="43.80833" lon="7.45403">
        <ele>597.72376135017</ele>
        <time>2021-01-27T08:49:49Z</time>
      </trkpt>
      <trkpt lat="43.80835" lon="7.45403">
        <ele>597.72370240222</ele>
        <time>2021-01-27T08:49:50Z</time>
      </trkpt>
      <trkpt lat="43.80835" lon="7.45403">
        <ele>597.72366378321</ele>
        <time>2021-01-27T08:49:51Z</time>
      </trkpt>
      <trkpt lat="43.80836" lon="7.45402">
        <ele>597.72361540219</ele>
        <time>2021-01-27T08:49:52Z</time>
      </trkpt>
      <trkpt lat="43.80836" lon="7.45402">
        <ele>597.72361540219</ele>
        <time>2021-01-27T08:49:54Z</time>
      </trkpt>
      <trkpt lat="43.80839" lon="7.45403">
        <ele>597.72349971008</ele>
        <time>2021-01-27T08:49:56Z</time>
      </trkpt>
      <trkpt lat="43.80839" lon="7.45403">
        <ele>597.72347231517</ele>
        <time>2021-01-27T08:49:57Z</time>
      </trkpt>
      <trkpt lat="43.8084" lon="7.45403">
        <ele>597.72344679613</ele>
        <time>2021-01-27T08:49:58Z</time>
      </trkpt>
      <trkpt lat="43.80841" lon="7.45404">
        <ele>598.72341633157</ele>
        <time>2021-01-27T08:49:59Z</time>
      </trkpt>
      <trkpt lat="43.80842" lon="7.45404">
        <ele>598.72338382087</ele>
        <time>2021-01-27T08:50:00Z</time>
      </trkpt>
      <trkpt lat="43.80843" lon="7.45404">
        <ele>597.72333236337</ele>
        <time>2021-01-27T08:50:01Z</time>
      </trkpt>
      <trkpt lat="43.80843" lon="7.45404">
        <ele>597.72330681448</ele>
        <time>2021-01-27T08:50:02Z</time>
      </trkpt>
      <trkpt lat="43.80845" lon="7.45405">
        <ele>597.72323826203</ele>
        <time>2021-01-27T08:50:04Z</time>
      </trkpt>
      <trkpt lat="43.80846" lon="7.45405">
        <ele>598.72315945715</ele>
        <time>2021-01-27T08:50:06Z</time>
      </trkpt>
      <trkpt lat="43.80847" lon="7.45405">
        <ele>598.72311869468</ele>
        <time>2021-01-27T08:50:07Z</time>
      </trkpt>
      <trkpt lat="43.80848" lon="7.45406">
        <ele>598.72307983455</ele>
        <time>2021-01-27T08:50:08Z</time>
      </trkpt>
      <trkpt lat="43.80851" lon="7.45405">
        <ele>598.72296505868</ele>
        <time>2021-01-27T08:50:10Z</time>
      </trkpt>
      <trkpt lat="43.80852" lon="7.45406">
        <ele>598.7229048603</ele>
        <time>2021-01-27T08:50:11Z</time>
      </trkpt>
      <trkpt lat="43.80853" lon="7.45405">
        <ele>598.72285331283</ele>
        <time>2021-01-27T08:50:12Z</time>
      </trkpt>
      <trkpt lat="43.80855" lon="7.45405">
        <ele>597.72275073141</ele>
        <time>2021-01-27T08:50:14Z</time>
      </trkpt>
      <trkpt lat="43.80858" lon="7.45404">
        <ele>597.72260837091</ele>
        <time>2021-01-27T08:50:16Z</time>
      </trkpt>
      <trkpt lat="43.80859" lon="7.45403">
        <ele>597.72253809002</ele>
        <time>2021-01-27T08:50:17Z</time>
      </trkpt>
      <trkpt lat="43.8086" lon="7.45403">
        <ele>597.72248558936</ele>
        <time>2021-01-27T08:50:18Z</time>
      </trkpt>
      <trkpt lat="43.80862" lon="7.45404">
        <ele>597.722403433</ele>
        <time>2021-01-27T08:50:20Z</time>
      </trkpt>
      <trkpt lat="43.80863" lon="7.45404">
        <ele>597.72235352987</ele>
        <time>2021-01-27T08:50:21Z</time>
      </trkpt>
      <trkpt lat="43.80864" lon="7.45404">
        <ele>597.72230982109</ele>
        <time>2021-01-27T08:50:22Z</time>
      </trkpt>
      <trkpt lat="43.80867" lon="7.45404">
        <ele>597.72216359134</ele>
        <time>2021-01-27T08:50:24Z</time>
      </trkpt>
      <trkpt lat="43.80869" lon="7.45405">
        <ele>597.72207347592</ele>
        <time>2021-01-27T08:50:26Z</time>
      </trkpt>
      <trkpt lat="43.8087" lon="7.45405">
        <ele>597.72202708084</ele>
        <time>2021-01-27T08:50:27Z</time>
      </trkpt>
      <trkpt lat="43.80872" lon="7.45406">
        <ele>597.7219710108</ele>
        <time>2021-01-27T08:50:28Z</time>
      </trkpt>
      <trkpt lat="43.80873" lon="7.45405">
        <ele>596.72191213464</ele>
        <time>2021-01-27T08:50:29Z</time>
      </trkpt>
      <trkpt lat="43.80874" lon="7.45405">
        <ele>596.72186509921</ele>
        <time>2021-01-27T08:50:30Z</time>
      </trkpt>
      <trkpt lat="43.80875" lon="7.45406">
        <ele>597.72180668211</ele>
        <time>2021-01-27T08:50:31Z</time>
      </trkpt>
      <trkpt lat="43.80876" lon="7.45406">
        <ele>597.72175827652</ele>
        <time>2021-01-27T08:50:32Z</time>
      </trkpt>
      <trkpt lat="43.80877" lon="7.45407">
        <ele>597.72171793409</ele>
        <time>2021-01-27T08:50:33Z</time>
      </trkpt>
      <trkpt lat="43.80879" lon="7.45408">
        <ele>599.7216370252</ele>
        <time>2021-01-27T08:50:35Z</time>
      </trkpt>
      <trkpt lat="43.8088" lon="7.45408">
        <ele>599.72158448959</ele>
        <time>2021-01-27T08:50:36Z</time>
      </trkpt>
      <trkpt lat="43.80881" lon="7.45408">
        <ele>599.72152809695</ele>
        <time>2021-01-27T08:50:37Z</time>
      </trkpt>
      <trkpt lat="43.80883" lon="7.45408">
        <ele>599.72145481357</ele>
        <time>2021-01-27T08:50:38Z</time>
      </trkpt>
      <trkpt lat="43.80884" lon="7.45408">
        <ele>599.72140945025</ele>
        <time>2021-01-27T08:50:39Z</time>
      </trkpt>
      <trkpt lat="43.80886" lon="7.45408">
        <ele>599.72133315406</ele>
        <time>2021-01-27T08:50:40Z</time>
      </trkpt>
      <trkpt lat="43.80887" lon="7.45408">
        <ele>599.72127628974</ele>
        <time>2021-01-27T08:50:41Z</time>
      </trkpt>
      <trkpt lat="43.80888" lon="7.45408">
        <ele>599.72120355445</ele>
        <time>2021-01-27T08:50:42Z</time>
      </trkpt>
      <trkpt lat="43.80891" lon="7.45407">
        <ele>599.72106997786</ele>
        <time>2021-01-27T08:50:44Z</time>
      </trkpt>
      <trkpt lat="43.80892" lon="7.45408">
        <ele>599.72101292889</ele>
        <time>2021-01-27T08:50:45Z</time>
      </trkpt>
      <trkpt lat="43.80894" lon="7.45408">
        <ele>599.72094602885</ele>
        <time>2021-01-27T08:50:46Z</time>
      </trkpt>
      <trkpt lat="43.80895" lon="7.45408">
        <ele>599.72088102344</ele>
        <time>2021-01-27T08:50:47Z</time>
      </trkpt>
      <trkpt lat="43.80896" lon="7.45407">
        <ele>599.72082094142</ele>
        <time>2021-01-27T08:50:48Z</time>
      </trkpt>
      <trkpt lat="43.80897" lon="7.45408">
        <ele>599.72077301853</ele>
        <time>2021-01-27T08:50:49Z</time>
      </trkpt>
      <trkpt lat="43.80899" lon="7.45408">
        <ele>599.72072099504</ele>
        <time>2021-01-27T08:50:50Z</time>
      </trkpt>
      <trkpt lat="43.809" lon="7.45407">
        <ele>599.72066830551</ele>
        <time>2021-01-27T08:50:51Z</time>
      </trkpt>
      <trkpt lat="43.80901" lon="7.45407">
        <ele>600.72060696601</ele>
        <time>2021-01-27T08:50:52Z</time>
      </trkpt>
      <trkpt lat="43.80903" lon="7.45407">
        <ele>600.7204970347</ele>
        <time>2021-01-27T08:50:54Z</time>
      </trkpt>
      <trkpt lat="43.80905" lon="7.45407">
        <ele>601.72041074846</ele>
        <time>2021-01-27T08:50:56Z</time>
      </trkpt>
      <trkpt lat="43.80906" lon="7.45407">
        <ele>601.72035463083</ele>
        <time>2021-01-27T08:50:57Z</time>
      </trkpt>
      <trkpt lat="43.80907" lon="7.45406">
        <ele>602.72030431638</ele>
        <time>2021-01-27T08:50:58Z</time>
      </trkpt>
      <trkpt lat="43.80909" lon="7.45404">
        <ele>602.72021223346</ele>
        <time>2021-01-27T08:51:00Z</time>
      </trkpt>
      <trkpt lat="43.80909" lon="7.45404">
        <ele>601.72017013178</ele>
        <time>2021-01-27T08:51:01Z</time>
      </trkpt>
      <trkpt lat="43.8091" lon="7.45403">
        <ele>601.72011803288</ele>
        <time>2021-01-27T08:51:02Z</time>
      </trkpt>
      <trkpt lat="43.80912" lon="7.45401">
        <ele>601.72001846517</ele>
        <time>2021-01-27T08:51:04Z</time>
      </trkpt>
      <trkpt lat="43.80914" lon="7.45399">
        <ele>601.71991559211</ele>
        <time>2021-01-27T08:51:06Z</time>
      </trkpt>
      <trkpt lat="43.80914" lon="7.45399">
        <ele>601.7198857013</ele>
        <time>2021-01-27T08:51:08Z</time>
      </trkpt>
      <trkpt lat="43.80917" lon="7.45399">
        <ele>602.71977875506</ele>
        <time>2021-01-27T08:51:10Z</time>
      </trkpt>
      <trkpt lat="43.80917" lon="7.45398">
        <ele>602.7197353255</ele>
        <time>2021-01-27T08:51:11Z</time>
      </trkpt>
      <trkpt lat="43.80918" lon="7.45398">
        <ele>601.71969348426</ele>
        <time>2021-01-27T08:51:12Z</time>
      </trkpt>
      <trkpt lat="43.80919" lon="7.45398">
        <ele>602.71965283175</ele>
        <time>2021-01-27T08:51:13Z</time>
      </trkpt>
      <trkpt lat="43.80921" lon="7.45398">
        <ele>603.71957120968</ele>
        <time>2021-01-27T08:51:14Z</time>
      </trkpt>
      <trkpt lat="43.80922" lon="7.45398">
        <ele>603.71950645906</ele>
        <time>2021-01-27T08:51:15Z</time>
      </trkpt>
      <trkpt lat="43.80923" lon="7.45397">
        <ele>603.71945377644</ele>
        <time>2021-01-27T08:51:16Z</time>
      </trkpt>
      <trkpt lat="43.80924" lon="7.45397">
        <ele>604.71939807544</ele>
        <time>2021-01-27T08:51:17Z</time>
      </trkpt>
      <trkpt lat="43.80927" lon="7.45396">
        <ele>604.71925847695</ele>
        <time>2021-01-27T08:51:19Z</time>
      </trkpt>
      <trkpt lat="43.8093" lon="7.45396">
        <ele>604.71911821239</ele>
        <time>2021-01-27T08:51:21Z</time>
      </trkpt>
      <trkpt lat="43.80931" lon="7.45396">
        <ele>604.7190636176</ele>
        <time>2021-01-27T08:51:22Z</time>
      </trkpt>
      <trkpt lat="43.80932" lon="7.45396">
        <ele>604.71902117047</ele>
        <time>2021-01-27T08:51:23Z</time>
      </trkpt>
      <trkpt lat="43.80933" lon="7.45396">
        <ele>604.71898913667</ele>
        <time>2021-01-27T08:51:24Z</time>
      </trkpt>
      <trkpt lat="43.80934" lon="7.45396">
        <ele>605.71894962711</ele>
        <time>2021-01-27T08:51:25Z</time>
      </trkpt>
      <trkpt lat="43.80935" lon="7.45395">
        <ele>605.71888628769</ele>
        <time>2021-01-27T08:51:26Z</time>
      </trkpt>
      <trkpt lat="43.80936" lon="7.45394">
        <ele>605.71881992474</ele>
        <time>2021-01-27T08:51:27Z</time>
      </trkpt>
      <trkpt lat="43.80937" lon="7.45394">
        <ele>606.71874824094</ele>
        <time>2021-01-27T08:51:28Z</time>
      </trkpt>
      <trkpt lat="43.80939" lon="7.45392">
        <ele>606.71863484094</ele>
        <time>2021-01-27T08:51:30Z</time>
      </trkpt>
      <trkpt lat="43.8094" lon="7.45392">
        <ele>606.71858976821</ele>
        <time>2021-01-27T08:51:31Z</time>
      </trkpt>
      <trkpt lat="43.80941" lon="7.45392">
        <ele>607.71854537818</ele>
        <time>2021-01-27T08:51:32Z</time>
      </trkpt>
      <trkpt lat="43.80942" lon="7.45392">
        <ele>607.71849103937</ele>
        <time>2021-01-27T08:51:33Z</time>
      </trkpt>
      <trkpt lat="43.80943" lon="7.45391">
        <ele>606.71843754064</ele>
        <time>2021-01-27T08:51:34Z</time>
      </trkpt>
      <trkpt lat="43.80945" lon="7.45391">
        <ele>606.7183386209</ele>
        <time>2021-01-27T08:51:36Z</time>
      </trkpt>
      <trkpt lat="43.80946" lon="7.45391">
        <ele>606.71829278645</ele>
        <time>2021-01-27T08:51:37Z</time>
      </trkpt>
      <trkpt lat="43.80947" lon="7.45391">
        <ele>606.71824434645</ele>
        <time>2021-01-27T08:51:38Z</time>
      </trkpt>
      <trkpt lat="43.80949" lon="7.4539">
        <ele>606.71814944428</ele>
        <time>2021-01-27T08:51:40Z</time>
      </trkpt>
      <trkpt lat="43.8095" lon="7.45389">
        <ele>607.7181098916</ele>
        <time>2021-01-27T08:51:41Z</time>
      </trkpt>
      <trkpt lat="43.80951" lon="7.45389">
        <ele>607.71807952003</ele>
        <time>2021-01-27T08:51:42Z</time>
      </trkpt>
      <trkpt lat="43.80951" lon="7.45389">
        <ele>607.71804747082</ele>
        <time>2021-01-27T08:51:43Z</time>
      </trkpt>
      <trkpt lat="43.80953" lon="7.45389">
        <ele>607.71798531469</ele>
        <time>2021-01-27T08:51:44Z</time>
      </trkpt>
      <trkpt lat="43.80954" lon="7.45389">
        <ele>607.71793396405</ele>
        <time>2021-01-27T08:51:45Z</time>
      </trkpt>
      <trkpt lat="43.80955" lon="7.45389">
        <ele>607.71788446514</ele>
        <time>2021-01-27T08:51:46Z</time>
      </trkpt>
      <trkpt lat="43.80956" lon="7.45389">
        <ele>607.71783756965</ele>
        <time>2021-01-27T08:51:47Z</time>
      </trkpt>
      <trkpt lat="43.80957" lon="7.45389">
        <ele>607.71778741528</ele>
        <time>2021-01-27T08:51:48Z</time>
      </trkpt>
      <trkpt lat="43.80958" lon="7.45389">
        <ele>607.71773388365</ele>
        <time>2021-01-27T08:51:49Z</time>
      </trkpt>
      <trkpt lat="43.8096" lon="7.45388">
        <ele>606.71760773691</ele>
        <time>2021-01-27T08:51:51Z</time>
      </trkpt>
      <trkpt lat="43.80962" lon="7.45389">
        <ele>605.71752983145</ele>
        <time>2021-01-27T08:51:52Z</time>
      </trkpt>
      <trkpt lat="43.80964" lon="7.45389">
        <ele>605.71744571899</ele>
        <time>2021-01-27T08:51:53Z</time>
      </trkpt>
      <trkpt lat="43.80966" lon="7.45388">
        <ele>604.71734139166</ele>
        <time>2021-01-27T08:51:55Z</time>
      </trkpt>
      <trkpt lat="43.80967" lon="7.45389">
        <ele>603.71729343189</ele>
        <time>2021-01-27T08:51:56Z</time>
      </trkpt>
      <trkpt lat="43.80968" lon="7.45388">
        <ele>603.71723343294</ele>
        <time>2021-01-27T08:51:57Z</time>
      </trkpt>
      <trkpt lat="43.80969" lon="7.45388">
        <ele>603.71717646807</ele>
        <time>2021-01-27T08:51:58Z</time>
      </trkpt>
      <trkpt lat="43.80972" lon="7.45387">
        <ele>601.71703751296</ele>
        <time>2021-01-27T08:52:00Z</time>
      </trkpt>
      <trkpt lat="43.80973" lon="7.45386">
        <ele>601.71698097954</ele>
        <time>2021-01-27T08:52:01Z</time>
      </trkpt>
      <trkpt lat="43.80974" lon="7.45385">
        <ele>601.71692266198</ele>
        <time>2021-01-27T08:52:02Z</time>
      </trkpt>
      <trkpt lat="43.80975" lon="7.45385">
        <ele>601.71689943145</ele>
        <time>2021-01-27T08:52:03Z</time>
      </trkpt>
      <trkpt lat="43.80975" lon="7.45384">
        <ele>601.71688028715</ele>
        <time>2021-01-27T08:52:04Z</time>
      </trkpt>
      <trkpt lat="43.80975" lon="7.45383">
        <ele>601.71686099266</ele>
        <time>2021-01-27T08:52:06Z</time>
      </trkpt>
      <trkpt lat="43.80976" lon="7.45382">
        <ele>601.71679290047</ele>
        <time>2021-01-27T08:52:08Z</time>
      </trkpt>
      <trkpt lat="43.80977" lon="7.45381">
        <ele>600.71677335221</ele>
        <time>2021-01-27T08:52:12Z</time>
      </trkpt>
      <trkpt lat="43.80977" lon="7.4538">
        <ele>598.71675076802</ele>
        <time>2021-01-27T08:52:13Z</time>
      </trkpt>
      <trkpt lat="43.80978" lon="7.45379">
        <ele>598.71670351247</ele>
        <time>2021-01-27T08:52:14Z</time>
      </trkpt>
      <trkpt lat="43.80979" lon="7.45378">
        <ele>598.71664665702</ele>
        <time>2021-01-27T08:52:15Z</time>
      </trkpt>
      <trkpt lat="43.8098" lon="7.45377">
        <ele>598.71659157869</ele>
        <time>2021-01-27T08:52:16Z</time>
      </trkpt>
      <trkpt lat="43.80981" lon="7.45376">
        <ele>597.71652967873</ele>
        <time>2021-01-27T08:52:17Z</time>
      </trkpt>
      <trkpt lat="43.80981" lon="7.45375">
        <ele>597.71649105826</ele>
        <time>2021-01-27T08:52:18Z</time>
      </trkpt>
      <trkpt lat="43.80982" lon="7.45373">
        <ele>597.71643514511</ele>
        <time>2021-01-27T08:52:19Z</time>
      </trkpt>
      <trkpt lat="43.80983" lon="7.45372">
        <ele>598.7163902771</ele>
        <time>2021-01-27T08:52:20Z</time>
      </trkpt>
      <trkpt lat="43.80984" lon="7.45371">
        <ele>599.71634445129</ele>
        <time>2021-01-27T08:52:21Z</time>
      </trkpt>
      <trkpt lat="43.80984" lon="7.4537">
        <ele>599.71629340048</ele>
        <time>2021-01-27T08:52:22Z</time>
      </trkpt>
      <trkpt lat="43.80985" lon="7.45369">
        <ele>598.7162593874</ele>
        <time>2021-01-27T08:52:23Z</time>
      </trkpt>
      <trkpt lat="43.80985" lon="7.45366">
        <ele>598.71622075276</ele>
        <time>2021-01-27T08:52:25Z</time>
      </trkpt>
      <trkpt lat="43.80985" lon="7.45365">
        <ele>598.71620941171</ele>
        <time>2021-01-27T08:52:26Z</time>
      </trkpt>
      <trkpt lat="43.80986" lon="7.45363">
        <ele>599.71617032135</ele>
        <time>2021-01-27T08:52:27Z</time>
      </trkpt>
      <trkpt lat="43.80986" lon="7.4536">
        <ele>599.71611548572</ele>
        <time>2021-01-27T08:52:29Z</time>
      </trkpt>
      <trkpt lat="43.80987" lon="7.45359">
        <ele>599.71608412978</ele>
        <time>2021-01-27T08:52:30Z</time>
      </trkpt>
      <trkpt lat="43.80987" lon="7.45358">
        <ele>599.71605876659</ele>
        <time>2021-01-27T08:52:31Z</time>
      </trkpt>
      <trkpt lat="43.80987" lon="7.45357">
        <ele>599.71603799267</ele>
        <time>2021-01-27T08:52:32Z</time>
      </trkpt>
      <trkpt lat="43.80987" lon="7.45355">
        <ele>599.71602579894</ele>
        <time>2021-01-27T08:52:33Z</time>
      </trkpt>
      <trkpt lat="43.80989" lon="7.45352">
        <ele>599.71590091398</ele>
        <time>2021-01-27T08:52:35Z</time>
      </trkpt>
      <trkpt lat="43.8099" lon="7.45351">
        <ele>599.71586685217</ele>
        <time>2021-01-27T08:52:36Z</time>
      </trkpt>
      <trkpt lat="43.8099" lon="7.4535">
        <ele>599.71582598041</ele>
        <time>2021-01-27T08:52:37Z</time>
      </trkpt>
      <trkpt lat="43.80991" lon="7.45346">
        <ele>599.71574215578</ele>
        <time>2021-01-27T08:52:39Z</time>
      </trkpt>
      <trkpt lat="43.80992" lon="7.45344">
        <ele>599.71568508944</ele>
        <time>2021-01-27T08:52:41Z</time>
      </trkpt>
      <trkpt lat="43.80993" lon="7.45344">
        <ele>599.71561253357</ele>
        <time>2021-01-27T08:52:42Z</time>
      </trkpt>
      <trkpt lat="43.80994" lon="7.45343">
        <ele>599.71556852202</ele>
        <time>2021-01-27T08:52:43Z</time>
      </trkpt>
      <trkpt lat="43.80996" lon="7.45341">
        <ele>600.7154449981</ele>
        <time>2021-01-27T08:52:45Z</time>
      </trkpt>
      <trkpt lat="43.80998" lon="7.4534">
        <ele>600.71535634707</ele>
        <time>2021-01-27T08:52:46Z</time>
      </trkpt>
      <trkpt lat="43.81" lon="7.45339">
        <ele>599.71525500668</ele>
        <time>2021-01-27T08:52:47Z</time>
      </trkpt>
      <trkpt lat="43.81001" lon="7.45338">
        <ele>599.71518459583</ele>
        <time>2021-01-27T08:52:48Z</time>
      </trkpt>
      <trkpt lat="43.81003" lon="7.45338">
        <ele>599.71510554378</ele>
        <time>2021-01-27T08:52:49Z</time>
      </trkpt>
      <trkpt lat="43.81004" lon="7.45337">
        <ele>600.71506514745</ele>
        <time>2021-01-27T08:52:50Z</time>
      </trkpt>
      <trkpt lat="43.81005" lon="7.45337">
        <ele>600.71500914195</ele>
        <time>2021-01-27T08:52:51Z</time>
      </trkpt>
      <trkpt lat="43.81006" lon="7.45337">
        <ele>600.71493574973</ele>
        <time>2021-01-27T08:52:52Z</time>
      </trkpt>
      <trkpt lat="43.81008" lon="7.45336">
        <ele>602.71484097441</ele>
        <time>2021-01-27T08:52:54Z</time>
      </trkpt>
      <trkpt lat="43.81009" lon="7.45336">
        <ele>602.71480823378</ele>
        <time>2021-01-27T08:52:55Z</time>
      </trkpt>
      <trkpt lat="43.8101" lon="7.45336">
        <ele>603.7147730309</ele>
        <time>2021-01-27T08:52:56Z</time>
      </trkpt>
      <trkpt lat="43.8101" lon="7.45336">
        <ele>604.71473208693</ele>
        <time>2021-01-27T08:52:57Z</time>
      </trkpt>
      <trkpt lat="43.81011" lon="7.45335">
        <ele>604.71468651523</ele>
        <time>2021-01-27T08:52:58Z</time>
      </trkpt>
      <trkpt lat="43.81014" lon="7.45335">
        <ele>605.71453799723</ele>
        <time>2021-01-27T08:53:00Z</time>
      </trkpt>
      <trkpt lat="43.81015" lon="7.45334">
        <ele>604.71448196411</ele>
        <time>2021-01-27T08:53:01Z</time>
      </trkpt>
      <trkpt lat="43.81017" lon="7.45333">
        <ele>604.71440380362</ele>
        <time>2021-01-27T08:53:02Z</time>
      </trkpt>
      <trkpt lat="43.81018" lon="7.45333">
        <ele>604.71434315016</ele>
        <time>2021-01-27T08:53:03Z</time>
      </trkpt>
      <trkpt lat="43.81019" lon="7.45333">
        <ele>605.71430663313</ele>
        <time>2021-01-27T08:53:04Z</time>
      </trkpt>
      <trkpt lat="43.8102" lon="7.45333">
        <ele>605.71425036135</ele>
        <time>2021-01-27T08:53:05Z</time>
      </trkpt>
      <trkpt lat="43.81021" lon="7.45333">
        <ele>605.71417906103</ele>
        <time>2021-01-27T08:53:06Z</time>
      </trkpt>
      <trkpt lat="43.81023" lon="7.45332">
        <ele>605.71411993087</ele>
        <time>2021-01-27T08:53:07Z</time>
      </trkpt>
      <trkpt lat="43.81024" lon="7.45331">
        <ele>605.7140403507</ele>
        <time>2021-01-27T08:53:08Z</time>
      </trkpt>
      <trkpt lat="43.81026" lon="7.45331">
        <ele>605.71392858778</ele>
        <time>2021-01-27T08:53:10Z</time>
      </trkpt>
      <trkpt lat="43.81029" lon="7.4533">
        <ele>605.71380315445</ele>
        <time>2021-01-27T08:53:12Z</time>
      </trkpt>
      <trkpt lat="43.8103" lon="7.4533">
        <ele>605.71374682488</ele>
        <time>2021-01-27T08:53:13Z</time>
      </trkpt>
      <trkpt lat="43.81031" lon="7.4533">
        <ele>605.71370819867</ele>
        <time>2021-01-27T08:53:14Z</time>
      </trkpt>
      <trkpt lat="43.81033" lon="7.4533">
        <ele>605.71361368961</ele>
        <time>2021-01-27T08:53:16Z</time>
      </trkpt>
      <trkpt lat="43.81034" lon="7.4533">
        <ele>605.71356811906</ele>
        <time>2021-01-27T08:53:17Z</time>
      </trkpt>
      <trkpt lat="43.81035" lon="7.45331">
        <ele>604.7135370455</ele>
        <time>2021-01-27T08:53:18Z</time>
      </trkpt>
      <trkpt lat="43.81036" lon="7.45332">
        <ele>604.7134712185</ele>
        <time>2021-01-27T08:53:20Z</time>
      </trkpt>
      <trkpt lat="43.81038" lon="7.45334">
        <ele>604.71339635178</ele>
        <time>2021-01-27T08:53:22Z</time>
      </trkpt>
      <trkpt lat="43.81039" lon="7.45335">
        <ele>604.71336454197</ele>
        <time>2021-01-27T08:53:23Z</time>
      </trkpt>
      <trkpt lat="43.8104" lon="7.45335">
        <ele>604.71332638591</ele>
        <time>2021-01-27T08:53:27Z</time>
      </trkpt>
      <trkpt lat="43.81041" lon="7.45334">
        <ele>604.71325714003</ele>
        <time>2021-01-27T08:53:28Z</time>
      </trkpt>
      <trkpt lat="43.81042" lon="7.45335">
        <ele>604.71320857219</ele>
        <time>2021-01-27T08:53:30Z</time>
      </trkpt>
      <trkpt lat="43.81044" lon="7.45335">
        <ele>604.71312406086</ele>
        <time>2021-01-27T08:53:32Z</time>
      </trkpt>
      <trkpt lat="43.81045" lon="7.45335">
        <ele>605.71309029561</ele>
        <time>2021-01-27T08:53:33Z</time>
      </trkpt>
      <trkpt lat="43.81047" lon="7.45334">
        <ele>604.71297324461</ele>
        <time>2021-01-27T08:53:35Z</time>
      </trkpt>
      <trkpt lat="43.81049" lon="7.45335">
        <ele>606.71290960018</ele>
        <time>2021-01-27T08:53:36Z</time>
      </trkpt>
      <trkpt lat="43.8105" lon="7.45334">
        <ele>606.71285818697</ele>
        <time>2021-01-27T08:53:37Z</time>
      </trkpt>
      <trkpt lat="43.81051" lon="7.45333">
        <ele>606.71279124558</ele>
        <time>2021-01-27T08:53:38Z</time>
      </trkpt>
      <trkpt lat="43.81051" lon="7.45333">
        <ele>606.71275842103</ele>
        <time>2021-01-27T08:53:39Z</time>
      </trkpt>
      <trkpt lat="43.81052" lon="7.45332">
        <ele>606.71273421509</ele>
        <time>2021-01-27T08:53:40Z</time>
      </trkpt>
      <trkpt lat="43.81052" lon="7.45331">
        <ele>606.71270407171</ele>
        <time>2021-01-27T08:53:41Z</time>
      </trkpt>
      <trkpt lat="43.81053" lon="7.45331">
        <ele>607.7126665823</ele>
        <time>2021-01-27T08:53:42Z</time>
      </trkpt>
      <trkpt lat="43.81054" lon="7.4533">
        <ele>607.71261666053</ele>
        <time>2021-01-27T08:53:43Z</time>
      </trkpt>
      <trkpt lat="43.81054" lon="7.45329">
        <ele>607.71257359005</ele>
        <time>2021-01-27T08:53:44Z</time>
      </trkpt>
      <trkpt lat="43.81056" lon="7.45327">
        <ele>607.71250576443</ele>
        <time>2021-01-27T08:53:46Z</time>
      </trkpt>
      <trkpt lat="43.81056" lon="7.45326">
        <ele>608.71248856351</ele>
        <time>2021-01-27T08:53:47Z</time>
      </trkpt>
      <trkpt lat="43.81056" lon="7.45325">
        <ele>608.7124519469</ele>
        <time>2021-01-27T08:53:48Z</time>
      </trkpt>
      <trkpt lat="43.81056" lon="7.45325">
        <ele>608.71244247255</ele>
        <time>2021-01-27T08:53:49Z</time>
      </trkpt>
      <trkpt lat="43.81056" lon="7.45324">
        <ele>608.71242659365</ele>
        <time>2021-01-27T08:53:50Z</time>
      </trkpt>
      <trkpt lat="43.81057" lon="7.45322">
        <ele>608.71241168101</ele>
        <time>2021-01-27T08:53:51Z</time>
      </trkpt>
      <trkpt lat="43.81057" lon="7.45322">
        <ele>607.7123884582</ele>
        <time>2021-01-27T08:53:52Z</time>
      </trkpt>
      <trkpt lat="43.81057" lon="7.45321">
        <ele>607.71238495326</ele>
        <time>2021-01-27T08:53:53Z</time>
      </trkpt>
      <trkpt lat="43.81058" lon="7.45319">
        <ele>608.71232568558</ele>
        <time>2021-01-27T08:53:55Z</time>
      </trkpt>
      <trkpt lat="43.81059" lon="7.45317">
        <ele>608.71225440899</ele>
        <time>2021-01-27T08:53:57Z</time>
      </trkpt>
      <trkpt lat="43.81059" lon="7.45316">
        <ele>608.71221673515</ele>
        <time>2021-01-27T08:53:58Z</time>
      </trkpt>
      <trkpt lat="43.8106" lon="7.45314">
        <ele>608.71217588905</ele>
        <time>2021-01-27T08:53:59Z</time>
      </trkpt>
      <trkpt lat="43.8106" lon="7.45312">
        <ele>609.71213034172</ele>
        <time>2021-01-27T08:54:01Z</time>
      </trkpt>
      <trkpt lat="43.8106" lon="7.4531">
        <ele>609.7121227043</ele>
        <time>2021-01-27T08:54:02Z</time>
      </trkpt>
      <trkpt lat="43.8106" lon="7.45309">
        <ele>609.71210807152</ele>
        <time>2021-01-27T08:54:03Z</time>
      </trkpt>
      <trkpt lat="43.8106" lon="7.45307">
        <ele>609.71207575008</ele>
        <time>2021-01-27T08:54:05Z</time>
      </trkpt>
      <trkpt lat="43.8106" lon="7.45305">
        <ele>608.71207050759</ele>
        <time>2021-01-27T08:54:07Z</time>
      </trkpt>
      <trkpt lat="43.8106" lon="7.45303">
        <ele>608.71204692578</ele>
        <time>2021-01-27T08:54:08Z</time>
      </trkpt>
      <trkpt lat="43.81061" lon="7.45302">
        <ele>608.71201981524</ele>
        <time>2021-01-27T08:54:09Z</time>
      </trkpt>
      <trkpt lat="43.81062" lon="7.45301">
        <ele>609.71194004256</ele>
        <time>2021-01-27T08:54:11Z</time>
      </trkpt>
      <trkpt lat="43.81063" lon="7.453">
        <ele>609.71186632099</ele>
        <time>2021-01-27T08:54:12Z</time>
      </trkpt>
      <trkpt lat="43.81064" lon="7.45299">
        <ele>609.71181783577</ele>
        <time>2021-01-27T08:54:13Z</time>
      </trkpt>
      <trkpt lat="43.81064" lon="7.45297">
        <ele>609.71178964323</ele>
        <time>2021-01-27T08:54:15Z</time>
      </trkpt>
      <trkpt lat="43.81065" lon="7.45295">
        <ele>608.71172707609</ele>
        <time>2021-01-27T08:54:17Z</time>
      </trkpt>
      <trkpt lat="43.81065" lon="7.45294">
        <ele>608.71172326097</ele>
        <time>2021-01-27T08:54:18Z</time>
      </trkpt>
      <trkpt lat="43.81065" lon="7.45294">
        <ele>608.71172326097</ele>
        <time>2021-01-27T08:54:20Z</time>
      </trkpt>
      <trkpt lat="43.81066" lon="7.4529">
        <ele>609.71164523325</ele>
        <time>2021-01-27T08:54:22Z</time>
      </trkpt>
      <trkpt lat="43.81066" lon="7.45288">
        <ele>608.71161842852</ele>
        <time>2021-01-27T08:54:23Z</time>
      </trkpt>
      <trkpt lat="43.81067" lon="7.45287">
        <ele>609.71157880636</ele>
        <time>2021-01-27T08:54:24Z</time>
      </trkpt>
      <trkpt lat="43.81067" lon="7.45286">
        <ele>608.7115561648</ele>
        <time>2021-01-27T08:54:25Z</time>
      </trkpt>
      <trkpt lat="43.81068" lon="7.45285">
        <ele>608.71149025586</ele>
        <time>2021-01-27T08:54:26Z</time>
      </trkpt>
      <trkpt lat="43.81069" lon="7.45284">
        <ele>607.711459489</ele>
        <time>2021-01-27T08:54:27Z</time>
      </trkpt>
      <trkpt lat="43.81069" lon="7.45283">
        <ele>608.71143209989</ele>
        <time>2021-01-27T08:54:28Z</time>
      </trkpt>
      <trkpt lat="43.81069" lon="7.45282">
        <ele>607.71144590629</ele>
        <time>2021-01-27T08:54:29Z</time>
      </trkpt>
      <trkpt lat="43.81069" lon="7.45281">
        <ele>608.71140045444</ele>
        <time>2021-01-27T08:54:30Z</time>
      </trkpt>
      <trkpt lat="43.81069" lon="7.4528">
        <ele>608.71138458202</ele>
        <time>2021-01-27T08:54:31Z</time>
      </trkpt>
      <trkpt lat="43.8107" lon="7.45278">
        <ele>608.71135586163</ele>
        <time>2021-01-27T08:54:32Z</time>
      </trkpt>
      <trkpt lat="43.8107" lon="7.45277">
        <ele>608.71133452528</ele>
        <time>2021-01-27T08:54:33Z</time>
      </trkpt>
      <trkpt lat="43.8107" lon="7.45276">
        <ele>609.71131241349</ele>
        <time>2021-01-27T08:54:34Z</time>
      </trkpt>
      <trkpt lat="43.8107" lon="7.45274">
        <ele>609.7112906349</ele>
        <time>2021-01-27T08:54:35Z</time>
      </trkpt>
      <trkpt lat="43.8107" lon="7.45273">
        <ele>609.71127490857</ele>
        <time>2021-01-27T08:54:36Z</time>
      </trkpt>
      <trkpt lat="43.81071" lon="7.45272">
        <ele>609.71125460243</ele>
        <time>2021-01-27T08:54:37Z</time>
      </trkpt>
      <trkpt lat="43.8107" lon="7.45271">
        <ele>608.71126863679</ele>
        <time>2021-01-27T08:54:38Z</time>
      </trkpt>
      <trkpt lat="43.8107" lon="7.4527">
        <ele>609.71124425359</ele>
        <time>2021-01-27T08:54:39Z</time>
      </trkpt>
      <trkpt lat="43.81071" lon="7.45268">
        <ele>609.71121631859</ele>
        <time>2021-01-27T08:54:40Z</time>
      </trkpt>
      <trkpt lat="43.8107" lon="7.45267">
        <ele>609.71122410567</ele>
        <time>2021-01-27T08:54:41Z</time>
      </trkpt>
      <trkpt lat="43.8107" lon="7.45266">
        <ele>609.71122586435</ele>
        <time>2021-01-27T08:54:42Z</time>
      </trkpt>
      <trkpt lat="43.81069" lon="7.45264">
        <ele>609.71123585762</ele>
        <time>2021-01-27T08:54:44Z</time>
      </trkpt>
      <trkpt lat="43.81069" lon="7.45261">
        <ele>609.711234612</ele>
        <time>2021-01-27T08:54:46Z</time>
      </trkpt>
      <trkpt lat="43.81069" lon="7.45259">
        <ele>609.71121806204</ele>
        <time>2021-01-27T08:54:47Z</time>
      </trkpt>
      <trkpt lat="43.81068" lon="7.45258">
        <ele>609.71124991334</ele>
        <time>2021-01-27T08:54:48Z</time>
      </trkpt>
      <trkpt lat="43.81067" lon="7.45255">
        <ele>610.71125626928</ele>
        <time>2021-01-27T08:54:50Z</time>
      </trkpt>
      <trkpt lat="43.81067" lon="7.45254">
        <ele>610.71126298952</ele>
        <time>2021-01-27T08:54:51Z</time>
      </trkpt>
      <trkpt lat="43.81067" lon="7.45252">
        <ele>610.71122013995</ele>
        <time>2021-01-27T08:54:52Z</time>
      </trkpt>
      <trkpt lat="43.81068" lon="7.45251">
        <ele>611.71115140434</ele>
        <time>2021-01-27T08:54:53Z</time>
      </trkpt>
      <trkpt lat="43.81069" lon="7.4525">
        <ele>611.71112888982</ele>
        <time>2021-01-27T08:54:54Z</time>
      </trkpt>
      <trkpt lat="43.8107" lon="7.45248">
        <ele>611.71107459222</ele>
        <time>2021-01-27T08:54:55Z</time>
      </trkpt>
      <trkpt lat="43.8107" lon="7.45248">
        <ele>611.71104325698</ele>
        <time>2021-01-27T08:54:56Z</time>
      </trkpt>
      <trkpt lat="43.81071" lon="7.45247">
        <ele>612.71099863449</ele>
        <time>2021-01-27T08:54:57Z</time>
      </trkpt>
      <trkpt lat="43.81071" lon="7.45246">
        <ele>612.710967454</ele>
        <time>2021-01-27T08:54:58Z</time>
      </trkpt>
      <trkpt lat="43.81072" lon="7.45246">
        <ele>613.71093859408</ele>
        <time>2021-01-27T08:54:59Z</time>
      </trkpt>
      <trkpt lat="43.81073" lon="7.45245">
        <ele>613.71089582367</ele>
        <time>2021-01-27T08:55:03Z</time>
      </trkpt>
      <trkpt lat="43.81073" lon="7.45243">
        <ele>615.7108620988</ele>
        <time>2021-01-27T08:55:04Z</time>
      </trkpt>
      <trkpt lat="43.81074" lon="7.45243">
        <ele>615.71081322813</ele>
        <time>2021-01-27T08:55:05Z</time>
      </trkpt>
      <trkpt lat="43.81074" lon="7.45242">
        <ele>615.7107817367</ele>
        <time>2021-01-27T08:55:06Z</time>
      </trkpt>
      <trkpt lat="43.81075" lon="7.45242">
        <ele>615.71073340472</ele>
        <time>2021-01-27T08:55:07Z</time>
      </trkpt>
      <trkpt lat="43.81076" lon="7.45241">
        <ele>616.71068103712</ele>
        <time>2021-01-27T08:55:08Z</time>
      </trkpt>
      <trkpt lat="43.81077" lon="7.45241">
        <ele>616.71063642013</ele>
        <time>2021-01-27T08:55:09Z</time>
      </trkpt>
      <trkpt lat="43.81079" lon="7.45241">
        <ele>617.71054586081</ele>
        <time>2021-01-27T08:55:11Z</time>
      </trkpt>
      <trkpt lat="43.8108" lon="7.4524">
        <ele>618.71048950769</ele>
        <time>2021-01-27T08:55:12Z</time>
      </trkpt>
      <trkpt lat="43.81081" lon="7.45239">
        <ele>618.71042852137</ele>
        <time>2021-01-27T08:55:13Z</time>
      </trkpt>
      <trkpt lat="43.81083" lon="7.45238">
        <ele>617.71031267616</ele>
        <time>2021-01-27T08:55:15Z</time>
      </trkpt>
      <trkpt lat="43.81085" lon="7.45236">
        <ele>617.71022146094</ele>
        <time>2021-01-27T08:55:17Z</time>
      </trkpt>
      <trkpt lat="43.81085" lon="7.45236">
        <ele>617.71019265158</ele>
        <time>2021-01-27T08:55:18Z</time>
      </trkpt>
      <trkpt lat="43.81086" lon="7.45235">
        <ele>617.71015605781</ele>
        <time>2021-01-27T08:55:19Z</time>
      </trkpt>
      <trkpt lat="43.81086" lon="7.45234">
        <ele>616.71012519713</ele>
        <time>2021-01-27T08:55:21Z</time>
      </trkpt>
      <trkpt lat="43.81087" lon="7.45232">
        <ele>617.71010962307</ele>
        <time>2021-01-27T08:55:22Z</time>
      </trkpt>
      <trkpt lat="43.81087" lon="7.45231">
        <ele>617.71008761642</ele>
        <time>2021-01-27T08:55:23Z</time>
      </trkpt>
      <trkpt lat="43.81087" lon="7.45228">
        <ele>617.71002556152</ele>
        <time>2021-01-27T08:55:25Z</time>
      </trkpt>
      <trkpt lat="43.81088" lon="7.45226">
        <ele>617.70996492159</ele>
        <time>2021-01-27T08:55:27Z</time>
      </trkpt>
      <trkpt lat="43.81089" lon="7.45226">
        <ele>618.70991437456</ele>
        <time>2021-01-27T08:55:28Z</time>
      </trkpt>
      <trkpt lat="43.81091" lon="7.45225">
        <ele>618.70983344268</ele>
        <time>2021-01-27T08:55:29Z</time>
      </trkpt>
      <trkpt lat="43.81093" lon="7.45224">
        <ele>618.70972085198</ele>
        <time>2021-01-27T08:55:31Z</time>
      </trkpt>
      <trkpt lat="43.81094" lon="7.45224">
        <ele>618.70968628184</ele>
        <time>2021-01-27T08:55:32Z</time>
      </trkpt>
      <trkpt lat="43.81095" lon="7.45224">
        <ele>618.70964552261</ele>
        <time>2021-01-27T08:55:33Z</time>
      </trkpt>
      <trkpt lat="43.81096" lon="7.45224">
        <ele>618.70959132904</ele>
        <time>2021-01-27T08:55:34Z</time>
      </trkpt>
      <trkpt lat="43.81097" lon="7.45223">
        <ele>619.70951870585</ele>
        <time>2021-01-27T08:55:35Z</time>
      </trkpt>
      <trkpt lat="43.81097" lon="7.45222">
        <ele>618.70948704712</ele>
        <time>2021-01-27T08:55:36Z</time>
      </trkpt>
      <trkpt lat="43.81098" lon="7.45221">
        <ele>618.7094749732</ele>
        <time>2021-01-27T08:55:37Z</time>
      </trkpt>
      <trkpt lat="43.81098" lon="7.45221">
        <ele>619.70943893843</ele>
        <time>2021-01-27T08:55:38Z</time>
      </trkpt>
      <trkpt lat="43.811" lon="7.45221">
        <ele>619.70937993483</ele>
        <time>2021-01-27T08:55:40Z</time>
      </trkpt>
      <trkpt lat="43.811" lon="7.45221">
        <ele>619.70938077929</ele>
        <time>2021-01-27T08:55:58Z</time>
      </trkpt>
      <trkpt lat="43.811" lon="7.45219">
        <ele>618.70935189372</ele>
        <time>2021-01-27T08:56:00Z</time>
      </trkpt>
      <trkpt lat="43.81101" lon="7.45219">
        <ele>618.70930933135</ele>
        <time>2021-01-27T08:56:01Z</time>
      </trkpt>
      <trkpt lat="43.81101" lon="7.45218">
        <ele>619.70927484296</ele>
        <time>2021-01-27T08:56:02Z</time>
      </trkpt>
      <trkpt lat="43.81101" lon="7.45218">
        <ele>619.70925893037</ele>
        <time>2021-01-27T08:56:03Z</time>
      </trkpt>
      <trkpt lat="43.81102" lon="7.45217">
        <ele>619.70922201572</ele>
        <time>2021-01-27T08:56:04Z</time>
      </trkpt>
      <trkpt lat="43.81104" lon="7.45215">
        <ele>619.7090985647</ele>
        <time>2021-01-27T08:56:06Z</time>
      </trkpt>
      <trkpt lat="43.81105" lon="7.45214">
        <ele>619.70903680862</ele>
        <time>2021-01-27T08:56:07Z</time>
      </trkpt>
      <trkpt lat="43.81106" lon="7.45213">
        <ele>618.70898368457</ele>
        <time>2021-01-27T08:56:08Z</time>
      </trkpt>
      <trkpt lat="43.81107" lon="7.45211">
        <ele>617.70892542918</ele>
        <time>2021-01-27T08:56:09Z</time>
      </trkpt>
      <trkpt lat="43.81108" lon="7.45209">
        <ele>617.70884106562</ele>
        <time>2021-01-27T08:56:11Z</time>
      </trkpt>
      <trkpt lat="43.81109" lon="7.45208">
        <ele>617.70878469453</ele>
        <time>2021-01-27T08:56:12Z</time>
      </trkpt>
      <trkpt lat="43.8111" lon="7.45207">
        <ele>617.70873029262</ele>
        <time>2021-01-27T08:56:13Z</time>
      </trkpt>
      <trkpt lat="43.81111" lon="7.45205">
        <ele>616.7086930896</ele>
        <time>2021-01-27T08:56:14Z</time>
      </trkpt>
      <trkpt lat="43.81112" lon="7.45203">
        <ele>616.70861703571</ele>
        <time>2021-01-27T08:56:16Z</time>
      </trkpt>
      <trkpt lat="43.81112" lon="7.45202">
        <ele>617.70859738339</ele>
        <time>2021-01-27T08:56:19Z</time>
      </trkpt>
      <trkpt lat="43.81112" lon="7.45201">
        <ele>617.70859490434</ele>
        <time>2021-01-27T08:56:20Z</time>
      </trkpt>
      <trkpt lat="43.81112" lon="7.45201">
        <ele>617.70859262513</ele>
        <time>2021-01-27T08:56:21Z</time>
      </trkpt>
      <trkpt lat="43.81113" lon="7.452">
        <ele>617.70855067317</ele>
        <time>2021-01-27T08:56:22Z</time>
      </trkpt>
      <trkpt lat="43.81114" lon="7.45199">
        <ele>618.70849043238</ele>
        <time>2021-01-27T08:56:23Z</time>
      </trkpt>
      <trkpt lat="43.81115" lon="7.45198">
        <ele>618.70842474631</ele>
        <time>2021-01-27T08:56:24Z</time>
      </trkpt>
      <trkpt lat="43.81116" lon="7.45195">
        <ele>619.70831656043</ele>
        <time>2021-01-27T08:56:26Z</time>
      </trkpt>
      <trkpt lat="43.81117" lon="7.45194">
        <ele>620.70827036658</ele>
        <time>2021-01-27T08:56:27Z</time>
      </trkpt>
      <trkpt lat="43.81118" lon="7.45192">
        <ele>620.70823252303</ele>
        <time>2021-01-27T08:56:28Z</time>
      </trkpt>
      <trkpt lat="43.81118" lon="7.45192">
        <ele>620.70820107313</ele>
        <time>2021-01-27T08:56:29Z</time>
      </trkpt>
      <trkpt lat="43.81119" lon="7.45191">
        <ele>619.70816822524</ele>
        <time>2021-01-27T08:56:30Z</time>
      </trkpt>
      <trkpt lat="43.81119" lon="7.4519">
        <ele>620.70814922105</ele>
        <time>2021-01-27T08:56:31Z</time>
      </trkpt>
      <trkpt lat="43.8112" lon="7.45189">
        <ele>620.70810737711</ele>
        <time>2021-01-27T08:56:32Z</time>
      </trkpt>
      <trkpt lat="43.8112" lon="7.45188">
        <ele>620.7080811323</ele>
        <time>2021-01-27T08:56:33Z</time>
      </trkpt>
      <trkpt lat="43.81121" lon="7.45187">
        <ele>620.7080125526</ele>
        <time>2021-01-27T08:56:35Z</time>
      </trkpt>
      <trkpt lat="43.81121" lon="7.45186">
        <ele>620.70799286216</ele>
        <time>2021-01-27T08:56:36Z</time>
      </trkpt>
      <trkpt lat="43.81122" lon="7.45185">
        <ele>620.70797698113</ele>
        <time>2021-01-27T08:56:37Z</time>
      </trkpt>
      <trkpt lat="43.81122" lon="7.45184">
        <ele>619.70796870782</ele>
        <time>2021-01-27T08:56:38Z</time>
      </trkpt>
      <trkpt lat="43.81121" lon="7.45183">
        <ele>620.70796630047</ele>
        <time>2021-01-27T08:56:39Z</time>
      </trkpt>
      <trkpt lat="43.81121" lon="7.45182">
        <ele>619.7079727001</ele>
        <time>2021-01-27T08:56:40Z</time>
      </trkpt>
      <trkpt lat="43.81122" lon="7.4518">
        <ele>618.70792573683</ele>
        <time>2021-01-27T08:56:42Z</time>
      </trkpt>
      <trkpt lat="43.81122" lon="7.45179">
        <ele>618.70788960907</ele>
        <time>2021-01-27T08:56:43Z</time>
      </trkpt>
      <trkpt lat="43.81123" lon="7.45177">
        <ele>618.70785025832</ele>
        <time>2021-01-27T08:56:44Z</time>
      </trkpt>
      <trkpt lat="43.81122" lon="7.45175">
        <ele>619.70784189439</ele>
        <time>2021-01-27T08:56:46Z</time>
      </trkpt>
      <trkpt lat="43.81122" lon="7.45174">
        <ele>619.70783478251</ele>
        <time>2021-01-27T08:56:47Z</time>
      </trkpt>
      <trkpt lat="43.81122" lon="7.45172">
        <ele>619.70781154625</ele>
        <time>2021-01-27T08:56:48Z</time>
      </trkpt>
      <trkpt lat="43.81123" lon="7.45171">
        <ele>620.70776014183</ele>
        <time>2021-01-27T08:56:49Z</time>
      </trkpt>
      <trkpt lat="43.81124" lon="7.45169">
        <ele>620.70770946623</ele>
        <time>2021-01-27T08:56:50Z</time>
      </trkpt>
      <trkpt lat="43.81125" lon="7.45167">
        <ele>620.70765261052</ele>
        <time>2021-01-27T08:56:51Z</time>
      </trkpt>
      <trkpt lat="43.81125" lon="7.45166">
        <ele>619.70760800958</ele>
        <time>2021-01-27T08:56:52Z</time>
      </trkpt>
      <trkpt lat="43.81126" lon="7.45165">
        <ele>619.70755645021</ele>
        <time>2021-01-27T08:56:53Z</time>
      </trkpt>
      <trkpt lat="43.81127" lon="7.45164">
        <ele>619.7075228545</ele>
        <time>2021-01-27T08:56:54Z</time>
      </trkpt>
      <trkpt lat="43.81129" lon="7.45163">
        <ele>620.70742747698</ele>
        <time>2021-01-27T08:56:56Z</time>
      </trkpt>
      <trkpt lat="43.81129" lon="7.45162">
        <ele>620.70737622224</ele>
        <time>2021-01-27T08:56:57Z</time>
      </trkpt>
      <trkpt lat="43.8113" lon="7.45161">
        <ele>620.70732418798</ele>
        <time>2021-01-27T08:56:58Z</time>
      </trkpt>
      <trkpt lat="43.81132" lon="7.45162">
        <ele>620.7072513823</ele>
        <time>2021-01-27T08:57:00Z</time>
      </trkpt>
      <trkpt lat="43.81133" lon="7.45162">
        <ele>620.70721067421</ele>
        <time>2021-01-27T08:57:01Z</time>
      </trkpt>
      <trkpt lat="43.81134" lon="7.45163">
        <ele>620.70717963418</ele>
        <time>2021-01-27T08:57:02Z</time>
      </trkpt>
      <trkpt lat="43.81135" lon="7.45164">
        <ele>620.70713695392</ele>
        <time>2021-01-27T08:57:03Z</time>
      </trkpt>
      <trkpt lat="43.81136" lon="7.45165">
        <ele>621.70710132271</ele>
        <time>2021-01-27T08:57:04Z</time>
      </trkpt>
      <trkpt lat="43.81137" lon="7.45165">
        <ele>621.70705237702</ele>
        <time>2021-01-27T08:57:05Z</time>
      </trkpt>
      <trkpt lat="43.81138" lon="7.45165">
        <ele>621.70702111821</ele>
        <time>2021-01-27T08:57:06Z</time>
      </trkpt>
      <trkpt lat="43.81138" lon="7.45165">
        <ele>622.70698396643</ele>
        <time>2021-01-27T08:57:07Z</time>
      </trkpt>
      <trkpt lat="43.81139" lon="7.45165">
        <ele>622.70695113183</ele>
        <time>2021-01-27T08:57:08Z</time>
      </trkpt>
      <trkpt lat="43.81139" lon="7.45166">
        <ele>622.70696623584</ele>
        <time>2021-01-27T08:57:10Z</time>
      </trkpt>
      <trkpt lat="43.81141" lon="7.45168">
        <ele>624.70689930863</ele>
        <time>2021-01-27T08:57:12Z</time>
      </trkpt>
      <trkpt lat="43.81141" lon="7.45168">
        <ele>624.70686303005</ele>
        <time>2021-01-27T08:57:13Z</time>
      </trkpt>
      <trkpt lat="43.81142" lon="7.45168">
        <ele>624.70682791756</ele>
        <time>2021-01-27T08:57:14Z</time>
      </trkpt>
      <trkpt lat="43.81143" lon="7.45169">
        <ele>624.70682291742</ele>
        <time>2021-01-27T08:57:15Z</time>
      </trkpt>
      <trkpt lat="43.81143" lon="7.4517">
        <ele>624.70679525542</ele>
        <time>2021-01-27T08:57:16Z</time>
      </trkpt>
      <trkpt lat="43.81144" lon="7.4517">
        <ele>625.7067739005</ele>
        <time>2021-01-27T08:57:17Z</time>
      </trkpt>
      <trkpt lat="43.81144" lon="7.45171">
        <ele>624.70676805478</ele>
        <time>2021-01-27T08:57:18Z</time>
      </trkpt>
      <trkpt lat="43.81145" lon="7.45171">
        <ele>624.70674098201</ele>
        <time>2021-01-27T08:57:19Z</time>
      </trkpt>
      <trkpt lat="43.81146" lon="7.4517">
        <ele>625.70667383205</ele>
        <time>2021-01-27T08:57:21Z</time>
      </trkpt>
      <trkpt lat="43.81147" lon="7.45171">
        <ele>624.70664514751</ele>
        <time>2021-01-27T08:57:22Z</time>
      </trkpt>
      <trkpt lat="43.81148" lon="7.45171">
        <ele>625.70660194695</ele>
        <time>2021-01-27T08:57:23Z</time>
      </trkpt>
      <trkpt lat="43.81149" lon="7.45171">
        <ele>625.70655255118</ele>
        <time>2021-01-27T08:57:24Z</time>
      </trkpt>
      <trkpt lat="43.81149" lon="7.45171">
        <ele>625.70650893434</ele>
        <time>2021-01-27T08:57:25Z</time>
      </trkpt>
      <trkpt lat="43.8115" lon="7.45171">
        <ele>624.70648113142</ele>
        <time>2021-01-27T08:57:26Z</time>
      </trkpt>
      <trkpt lat="43.81151" lon="7.45171">
        <ele>624.70643754729</ele>
        <time>2021-01-27T08:57:27Z</time>
      </trkpt>
      <trkpt lat="43.81152" lon="7.4517">
        <ele>623.70637772325</ele>
        <time>2021-01-27T08:57:28Z</time>
      </trkpt>
      <trkpt lat="43.81154" lon="7.45169">
        <ele>622.70628529222</ele>
        <time>2021-01-27T08:57:30Z</time>
      </trkpt>
      <trkpt lat="43.81155" lon="7.45168">
        <ele>622.70620608045</ele>
        <time>2021-01-27T08:57:32Z</time>
      </trkpt>
      <trkpt lat="43.81156" lon="7.45168">
        <ele>623.70616749203</ele>
        <time>2021-01-27T08:57:33Z</time>
      </trkpt>
      <trkpt lat="43.81157" lon="7.45168">
        <ele>623.70612715042</ele>
        <time>2021-01-27T08:57:36Z</time>
      </trkpt>
      <trkpt lat="43.81158" lon="7.45166">
        <ele>624.70604474614</ele>
        <time>2021-01-27T08:57:37Z</time>
      </trkpt>
      <trkpt lat="43.81159" lon="7.45166">
        <ele>624.7060211179</ele>
        <time>2021-01-27T08:57:38Z</time>
      </trkpt>
      <trkpt lat="43.81161" lon="7.45166">
        <ele>625.70593026342</ele>
        <time>2021-01-27T08:57:40Z</time>
      </trkpt>
      <trkpt lat="43.81161" lon="7.45166">
        <ele>626.70589271029</ele>
        <time>2021-01-27T08:57:41Z</time>
      </trkpt>
      <trkpt lat="43.81163" lon="7.45166">
        <ele>627.70583352439</ele>
        <time>2021-01-27T08:57:42Z</time>
      </trkpt>
      <trkpt lat="43.81163" lon="7.45165">
        <ele>627.70577997654</ele>
        <time>2021-01-27T08:57:43Z</time>
      </trkpt>
      <trkpt lat="43.81166" lon="7.45164">
        <ele>627.70566357356</ele>
        <time>2021-01-27T08:57:45Z</time>
      </trkpt>
      <trkpt lat="43.81168" lon="7.45163">
        <ele>627.70552822347</ele>
        <time>2021-01-27T08:57:47Z</time>
      </trkpt>
      <trkpt lat="43.8117" lon="7.45163">
        <ele>627.70547062337</ele>
        <time>2021-01-27T08:57:48Z</time>
      </trkpt>
      <trkpt lat="43.8117" lon="7.45162">
        <ele>628.70543311557</ele>
        <time>2021-01-27T08:57:49Z</time>
      </trkpt>
      <trkpt lat="43.81171" lon="7.45162">
        <ele>628.70538842921</ele>
        <time>2021-01-27T08:57:50Z</time>
      </trkpt>
      <trkpt lat="43.81172" lon="7.45162">
        <ele>628.70536217942</ele>
        <time>2021-01-27T08:57:51Z</time>
      </trkpt>
      <trkpt lat="43.81172" lon="7.45161">
        <ele>628.70532904371</ele>
        <time>2021-01-27T08:57:52Z</time>
      </trkpt>
      <trkpt lat="43.81173" lon="7.4516">
        <ele>628.70528755093</ele>
        <time>2021-01-27T08:57:53Z</time>
      </trkpt>
      <trkpt lat="43.81174" lon="7.45159">
        <ele>628.70522790256</ele>
        <time>2021-01-27T08:57:54Z</time>
      </trkpt>
      <trkpt lat="43.81175" lon="7.45158">
        <ele>627.70516738171</ele>
        <time>2021-01-27T08:57:55Z</time>
      </trkpt>
      <trkpt lat="43.81176" lon="7.45158">
        <ele>628.70510843218</ele>
        <time>2021-01-27T08:57:56Z</time>
      </trkpt>
      <trkpt lat="43.81178" lon="7.45157">
        <ele>629.70503550756</ele>
        <time>2021-01-27T08:57:57Z</time>
      </trkpt>
      <trkpt lat="43.81178" lon="7.45157">
        <ele>630.70499059823</ele>
        <time>2021-01-27T08:57:58Z</time>
      </trkpt>
      <trkpt lat="43.81179" lon="7.45156">
        <ele>630.70495161314</ele>
        <time>2021-01-27T08:57:59Z</time>
      </trkpt>
      <trkpt lat="43.81179" lon="7.45155">
        <ele>631.70492188319</ele>
        <time>2021-01-27T08:58:00Z</time>
      </trkpt>
      <trkpt lat="43.8118" lon="7.45154">
        <ele>631.70488415874</ele>
        <time>2021-01-27T08:58:01Z</time>
      </trkpt>
      <trkpt lat="43.81181" lon="7.45153">
        <ele>631.70483950994</ele>
        <time>2021-01-27T08:58:02Z</time>
      </trkpt>
      <trkpt lat="43.81181" lon="7.45152">
        <ele>630.70480898229</ele>
        <time>2021-01-27T08:58:03Z</time>
      </trkpt>
      <trkpt lat="43.81182" lon="7.45151">
        <ele>630.70477663987</ele>
        <time>2021-01-27T08:58:04Z</time>
      </trkpt>
      <trkpt lat="43.81182" lon="7.4515">
        <ele>630.70474922912</ele>
        <time>2021-01-27T08:58:05Z</time>
      </trkpt>
      <trkpt lat="43.81182" lon="7.45149">
        <ele>629.70473197725</ele>
        <time>2021-01-27T08:58:06Z</time>
      </trkpt>
      <trkpt lat="43.81182" lon="7.45148">
        <ele>629.70470672848</ele>
        <time>2021-01-27T08:58:07Z</time>
      </trkpt>
      <trkpt lat="43.81183" lon="7.45147">
        <ele>628.70467120779</ele>
        <time>2021-01-27T08:58:08Z</time>
      </trkpt>
      <trkpt lat="43.81183" lon="7.45146">
        <ele>629.7046399059</ele>
        <time>2021-01-27T08:58:09Z</time>
      </trkpt>
      <trkpt lat="43.81184" lon="7.45144">
        <ele>629.70459183766</ele>
        <time>2021-01-27T08:58:10Z</time>
      </trkpt>
      <trkpt lat="43.81185" lon="7.45143">
        <ele>629.70454131239</ele>
        <time>2021-01-27T08:58:11Z</time>
      </trkpt>
      <trkpt lat="43.81186" lon="7.45142">
        <ele>629.70449148228</ele>
        <time>2021-01-27T08:58:12Z</time>
      </trkpt>
      <trkpt lat="43.81186" lon="7.45141">
        <ele>628.70446191703</ele>
        <time>2021-01-27T08:58:13Z</time>
      </trkpt>
      <trkpt lat="43.81186" lon="7.45139">
        <ele>628.70442615332</ele>
        <time>2021-01-27T08:58:14Z</time>
      </trkpt>
      <trkpt lat="43.81187" lon="7.45137">
        <ele>628.70438329029</ele>
        <time>2021-01-27T08:58:15Z</time>
      </trkpt>
      <trkpt lat="43.81188" lon="7.45135">
        <ele>628.70433751215</ele>
        <time>2021-01-27T08:58:16Z</time>
      </trkpt>
      <trkpt lat="43.81188" lon="7.45134">
        <ele>628.70430781871</ele>
        <time>2021-01-27T08:58:17Z</time>
      </trkpt>
      <trkpt lat="43.81188" lon="7.45133">
        <ele>628.70427334591</ele>
        <time>2021-01-27T08:58:18Z</time>
      </trkpt>
      <trkpt lat="43.81189" lon="7.45131">
        <ele>628.70423973748</ele>
        <time>2021-01-27T08:58:19Z</time>
      </trkpt>
      <trkpt lat="43.81189" lon="7.45129">
        <ele>628.70421232201</ele>
        <time>2021-01-27T08:58:20Z</time>
      </trkpt>
      <trkpt lat="43.81189" lon="7.45128">
        <ele>629.70418772531</ele>
        <time>2021-01-27T08:58:21Z</time>
      </trkpt>
      <trkpt lat="43.81189" lon="7.45127">
        <ele>629.70416261173</ele>
        <time>2021-01-27T08:58:22Z</time>
      </trkpt>
      <trkpt lat="43.8119" lon="7.45125">
        <ele>629.70413337204</ele>
        <time>2021-01-27T08:58:23Z</time>
      </trkpt>
      <trkpt lat="43.8119" lon="7.45123">
        <ele>630.70410766628</ele>
        <time>2021-01-27T08:58:24Z</time>
      </trkpt>
      <trkpt lat="43.8119" lon="7.45122">
        <ele>630.70407862213</ele>
        <time>2021-01-27T08:58:25Z</time>
      </trkpt>
      <trkpt lat="43.81191" lon="7.4512">
        <ele>629.70404193738</ele>
        <time>2021-01-27T08:58:26Z</time>
      </trkpt>
      <trkpt lat="43.81191" lon="7.45119">
        <ele>630.70402112839</ele>
        <time>2021-01-27T08:58:27Z</time>
      </trkpt>
      <trkpt lat="43.81191" lon="7.45117">
        <ele>630.70399884745</ele>
        <time>2021-01-27T08:58:28Z</time>
      </trkpt>
      <trkpt lat="43.81191" lon="7.45116">
        <ele>630.70396799772</ele>
        <time>2021-01-27T08:58:29Z</time>
      </trkpt>
      <trkpt lat="43.81192" lon="7.45115">
        <ele>631.70392477049</ele>
        <time>2021-01-27T08:58:30Z</time>
      </trkpt>
      <trkpt lat="43.81192" lon="7.45113">
        <ele>631.70390744397</ele>
        <time>2021-01-27T08:58:31Z</time>
      </trkpt>
      <trkpt lat="43.81192" lon="7.45112">
        <ele>631.70390395806</ele>
        <time>2021-01-27T08:58:32Z</time>
      </trkpt>
      <trkpt lat="43.81192" lon="7.4511">
        <ele>632.70387797656</ele>
        <time>2021-01-27T08:58:33Z</time>
      </trkpt>
      <trkpt lat="43.81192" lon="7.45109">
        <ele>632.70385635785</ele>
        <time>2021-01-27T08:58:34Z</time>
      </trkpt>
      <trkpt lat="43.81193" lon="7.45108">
        <ele>632.70383045168</ele>
        <time>2021-01-27T08:58:35Z</time>
      </trkpt>
      <trkpt lat="43.81193" lon="7.45107">
        <ele>631.70379135465</ele>
        <time>2021-01-27T08:58:36Z</time>
      </trkpt>
      <trkpt lat="43.81194" lon="7.45106">
        <ele>631.7037423731</ele>
        <time>2021-01-27T08:58:37Z</time>
      </trkpt>
      <trkpt lat="43.81194" lon="7.45104">
        <ele>631.70370643531</ele>
        <time>2021-01-27T08:58:38Z</time>
      </trkpt>
      <trkpt lat="43.81194" lon="7.45103">
        <ele>631.70371884475</ele>
        <time>2021-01-27T08:58:39Z</time>
      </trkpt>
      <trkpt lat="43.81194" lon="7.45101">
        <ele>631.70371446168</ele>
        <time>2021-01-27T08:58:40Z</time>
      </trkpt>
      <trkpt lat="43.81194" lon="7.45099">
        <ele>632.70367254354</ele>
        <time>2021-01-27T08:58:42Z</time>
      </trkpt>
      <trkpt lat="43.81194" lon="7.45098">
        <ele>632.70364677243</ele>
        <time>2021-01-27T08:58:43Z</time>
      </trkpt>
      <trkpt lat="43.81194" lon="7.45096">
        <ele>632.70363271055</ele>
        <time>2021-01-27T08:58:44Z</time>
      </trkpt>
      <trkpt lat="43.81194" lon="7.45095">
        <ele>632.70361095139</ele>
        <time>2021-01-27T08:58:45Z</time>
      </trkpt>
      <trkpt lat="43.81194" lon="7.45093">
        <ele>631.70360035842</ele>
        <time>2021-01-27T08:58:46Z</time>
      </trkpt>
      <trkpt lat="43.81194" lon="7.45092">
        <ele>631.70361049081</ele>
        <time>2021-01-27T08:58:47Z</time>
      </trkpt>
      <trkpt lat="43.81193" lon="7.45091">
        <ele>631.70362524591</ele>
        <time>2021-01-27T08:58:48Z</time>
      </trkpt>
      <trkpt lat="43.81193" lon="7.4509">
        <ele>630.70361315196</ele>
        <time>2021-01-27T08:58:49Z</time>
      </trkpt>
      <trkpt lat="43.81193" lon="7.45087">
        <ele>629.70359755553</ele>
        <time>2021-01-27T08:58:51Z</time>
      </trkpt>
      <trkpt lat="43.81193" lon="7.45085">
        <ele>629.70359088655</ele>
        <time>2021-01-27T08:58:52Z</time>
      </trkpt>
      <trkpt lat="43.81193" lon="7.45084">
        <ele>629.70358965378</ele>
        <time>2021-01-27T08:58:53Z</time>
      </trkpt>
      <trkpt lat="43.81192" lon="7.45081">
        <ele>629.7035868763</ele>
        <time>2021-01-27T08:58:55Z</time>
      </trkpt>
      <trkpt lat="43.81191" lon="7.45078">
        <ele>628.70357822194</ele>
        <time>2021-01-27T08:58:57Z</time>
      </trkpt>
      <trkpt lat="43.81191" lon="7.45076">
        <ele>628.70359062767</ele>
        <time>2021-01-27T08:58:58Z</time>
      </trkpt>
      <trkpt lat="43.8119" lon="7.45074">
        <ele>628.70361212979</ele>
        <time>2021-01-27T08:58:59Z</time>
      </trkpt>
      <trkpt lat="43.81189" lon="7.4507">
        <ele>628.7036307076</ele>
        <time>2021-01-27T08:59:01Z</time>
      </trkpt>
      <trkpt lat="43.81188" lon="7.45068">
        <ele>628.70365342614</ele>
        <time>2021-01-27T08:59:02Z</time>
      </trkpt>
      <trkpt lat="43.81187" lon="7.45066">
        <ele>628.70367390062</ele>
        <time>2021-01-27T08:59:03Z</time>
      </trkpt>
      <trkpt lat="43.81186" lon="7.45063">
        <ele>628.7036964322</ele>
        <time>2021-01-27T08:59:05Z</time>
      </trkpt>
      <trkpt lat="43.81185" lon="7.45061">
        <ele>628.70371616915</ele>
        <time>2021-01-27T08:59:06Z</time>
      </trkpt>
      <trkpt lat="43.81185" lon="7.45059">
        <ele>628.70371959492</ele>
        <time>2021-01-27T08:59:07Z</time>
      </trkpt>
      <trkpt lat="43.81184" lon="7.45058">
        <ele>628.70372225523</ele>
        <time>2021-01-27T08:59:08Z</time>
      </trkpt>
      <trkpt lat="43.81184" lon="7.45057">
        <ele>628.70373036447</ele>
        <time>2021-01-27T08:59:09Z</time>
      </trkpt>
      <trkpt lat="43.81183" lon="7.45056">
        <ele>628.70375219889</ele>
        <time>2021-01-27T08:59:10Z</time>
      </trkpt>
      <trkpt lat="43.81183" lon="7.45052">
        <ele>628.70375774247</ele>
        <time>2021-01-27T08:59:12Z</time>
      </trkpt>
      <trkpt lat="43.81182" lon="7.45051">
        <ele>628.70375130428</ele>
        <time>2021-01-27T08:59:13Z</time>
      </trkpt>
      <trkpt lat="43.81182" lon="7.4505">
        <ele>627.70374111533</ele>
        <time>2021-01-27T08:59:14Z</time>
      </trkpt>
      <trkpt lat="43.81182" lon="7.45048">
        <ele>627.70371627834</ele>
        <time>2021-01-27T08:59:15Z</time>
      </trkpt>
      <trkpt lat="43.81183" lon="7.45046">
        <ele>627.70367404533</ele>
        <time>2021-01-27T08:59:16Z</time>
      </trkpt>
      <trkpt lat="43.81183" lon="7.45044">
        <ele>627.7036501566</ele>
        <time>2021-01-27T08:59:17Z</time>
      </trkpt>
      <trkpt lat="43.81183" lon="7.45043">
        <ele>628.70364165666</ele>
        <time>2021-01-27T08:59:18Z</time>
      </trkpt>
      <trkpt lat="43.81183" lon="7.45042">
        <ele>628.70362263488</ele>
        <time>2021-01-27T08:59:19Z</time>
      </trkpt>
      <trkpt lat="43.81183" lon="7.45041">
        <ele>628.70361246354</ele>
        <time>2021-01-27T08:59:20Z</time>
      </trkpt>
      <trkpt lat="43.81184" lon="7.45039">
        <ele>628.70352963055</ele>
        <time>2021-01-27T08:59:22Z</time>
      </trkpt>
      <trkpt lat="43.81186" lon="7.45038">
        <ele>629.70344288478</ele>
        <time>2021-01-27T08:59:23Z</time>
      </trkpt>
      <trkpt lat="43.81186" lon="7.45037">
        <ele>629.70342884497</ele>
        <time>2021-01-27T08:59:24Z</time>
      </trkpt>
      <trkpt lat="43.81187" lon="7.45037">
        <ele>629.70340229772</ele>
        <time>2021-01-27T08:59:25Z</time>
      </trkpt>
      <trkpt lat="43.81189" lon="7.45038">
        <ele>630.70330148635</ele>
        <time>2021-01-27T08:59:27Z</time>
      </trkpt>
      <trkpt lat="43.8119" lon="7.45038">
        <ele>630.70326817364</ele>
        <time>2021-01-27T08:59:28Z</time>
      </trkpt>
      <trkpt lat="43.8119" lon="7.45037">
        <ele>631.70325008896</ele>
        <time>2021-01-27T08:59:29Z</time>
      </trkpt>
      <trkpt lat="43.81191" lon="7.45036">
        <ele>631.70319703483</ele>
        <time>2021-01-27T08:59:31Z</time>
      </trkpt>
      <trkpt lat="43.81192" lon="7.45036">
        <ele>631.70314136595</ele>
        <time>2021-01-27T08:59:32Z</time>
      </trkpt>
      <trkpt lat="43.81193" lon="7.45036">
        <ele>631.70309310422</ele>
        <time>2021-01-27T08:59:33Z</time>
      </trkpt>
      <trkpt lat="43.81194" lon="7.45036">
        <ele>631.70305368058</ele>
        <time>2021-01-27T08:59:34Z</time>
      </trkpt>
      <trkpt lat="43.81195" lon="7.45036">
        <ele>632.70301890159</ele>
        <time>2021-01-27T08:59:35Z</time>
      </trkpt>
      <trkpt lat="43.81195" lon="7.45036">
        <ele>632.70299327235</ele>
        <time>2021-01-27T08:59:36Z</time>
      </trkpt>
      <trkpt lat="43.81196" lon="7.45037">
        <ele>632.70295951327</ele>
        <time>2021-01-27T08:59:37Z</time>
      </trkpt>
      <trkpt lat="43.81197" lon="7.45037">
        <ele>632.70291691043</ele>
        <time>2021-01-27T08:59:38Z</time>
      </trkpt>
      <trkpt lat="43.81197" lon="7.45038">
        <ele>632.70290244375</ele>
        <time>2021-01-27T08:59:39Z</time>
      </trkpt>
      <trkpt lat="43.81199" lon="7.45037">
        <ele>632.70281961869</ele>
        <time>2021-01-27T08:59:41Z</time>
      </trkpt>
      <trkpt lat="43.812" lon="7.45037">
        <ele>632.70277764777</ele>
        <time>2021-01-27T08:59:42Z</time>
      </trkpt>
      <trkpt lat="43.81201" lon="7.45036">
        <ele>633.70269004497</ele>
        <time>2021-01-27T08:59:43Z</time>
      </trkpt>
      <trkpt lat="43.81204" lon="7.45035">
        <ele>633.70257870682</ele>
        <time>2021-01-27T08:59:45Z</time>
      </trkpt>
      <trkpt lat="43.81205" lon="7.45035">
        <ele>633.70252816204</ele>
        <time>2021-01-27T08:59:47Z</time>
      </trkpt>
      <trkpt lat="43.81206" lon="7.45036">
        <ele>632.70248758484</ele>
        <time>2021-01-27T08:59:48Z</time>
      </trkpt>
      <trkpt lat="43.81207" lon="7.45036">
        <ele>632.70243870775</ele>
        <time>2021-01-27T08:59:50Z</time>
      </trkpt>
      <trkpt lat="43.81209" lon="7.45035">
        <ele>632.70233795947</ele>
        <time>2021-01-27T08:59:52Z</time>
      </trkpt>
      <trkpt lat="43.8121" lon="7.45035">
        <ele>633.7022846673</ele>
        <time>2021-01-27T08:59:53Z</time>
      </trkpt>
      <trkpt lat="43.81211" lon="7.45034">
        <ele>633.70223538542</ele>
        <time>2021-01-27T08:59:54Z</time>
      </trkpt>
      <trkpt lat="43.81213" lon="7.45034">
        <ele>633.70212256719</ele>
        <time>2021-01-27T08:59:56Z</time>
      </trkpt>
      <trkpt lat="43.81214" lon="7.45034">
        <ele>634.70206178089</ele>
        <time>2021-01-27T08:59:57Z</time>
      </trkpt>
      <trkpt lat="43.81215" lon="7.45034">
        <ele>634.70201219231</ele>
        <time>2021-01-27T08:59:58Z</time>
      </trkpt>
      <trkpt lat="43.81217" lon="7.45034">
        <ele>634.70192569219</ele>
        <time>2021-01-27T09:00:00Z</time>
      </trkpt>
      <trkpt lat="43.81218" lon="7.45035">
        <ele>633.70188060478</ele>
        <time>2021-01-27T09:00:01Z</time>
      </trkpt>
      <trkpt lat="43.81219" lon="7.45035">
        <ele>634.70184113073</ele>
        <time>2021-01-27T09:00:02Z</time>
      </trkpt>
      <trkpt lat="43.8122" lon="7.45035">
        <ele>634.7018049856</ele>
        <time>2021-01-27T09:00:03Z</time>
      </trkpt>
      <trkpt lat="43.81221" lon="7.45035">
        <ele>634.70176737433</ele>
        <time>2021-01-27T09:00:04Z</time>
      </trkpt>
      <trkpt lat="43.81222" lon="7.45036">
        <ele>634.70170323918</ele>
        <time>2021-01-27T09:00:06Z</time>
      </trkpt>
      <trkpt lat="43.81222" lon="7.45036">
        <ele>633.70169817218</ele>
        <time>2021-01-27T09:00:09Z</time>
      </trkpt>
      <trkpt lat="43.81224" lon="7.45038">
        <ele>634.70161908857</ele>
        <time>2021-01-27T09:00:10Z</time>
      </trkpt>
      <trkpt lat="43.81225" lon="7.45039">
        <ele>634.70157569882</ele>
        <time>2021-01-27T09:00:11Z</time>
      </trkpt>
      <trkpt lat="43.81226" lon="7.4504">
        <ele>633.70154853316</ele>
        <time>2021-01-27T09:00:12Z</time>
      </trkpt>
      <trkpt lat="43.81227" lon="7.45041">
        <ele>633.70151834106</ele>
        <time>2021-01-27T09:00:13Z</time>
      </trkpt>
      <trkpt lat="43.81228" lon="7.45042">
        <ele>633.70146102082</ele>
        <time>2021-01-27T09:00:14Z</time>
      </trkpt>
      <trkpt lat="43.81229" lon="7.45043">
        <ele>633.7014356259</ele>
        <time>2021-01-27T09:00:15Z</time>
      </trkpt>
      <trkpt lat="43.8123" lon="7.45044">
        <ele>632.70141224161</ele>
        <time>2021-01-27T09:00:16Z</time>
      </trkpt>
      <trkpt lat="43.81231" lon="7.45044">
        <ele>632.70137135311</ele>
        <time>2021-01-27T09:00:17Z</time>
      </trkpt>
      <trkpt lat="43.81231" lon="7.45045">
        <ele>633.70135222447</ele>
        <time>2021-01-27T09:00:18Z</time>
      </trkpt>
      <trkpt lat="43.81232" lon="7.45046">
        <ele>633.70132232391</ele>
        <time>2021-01-27T09:00:19Z</time>
      </trkpt>
      <trkpt lat="43.81232" lon="7.45047">
        <ele>634.7013316804</ele>
        <time>2021-01-27T09:00:20Z</time>
      </trkpt>
      <trkpt lat="43.81232" lon="7.45047">
        <ele>635.70133138677</ele>
        <time>2021-01-27T09:00:21Z</time>
      </trkpt>
      <trkpt lat="43.81233" lon="7.45048">
        <ele>635.70129158179</ele>
        <time>2021-01-27T09:00:22Z</time>
      </trkpt>
      <trkpt lat="43.81234" lon="7.45048">
        <ele>635.70124256971</ele>
        <time>2021-01-27T09:00:23Z</time>
      </trkpt>
      <trkpt lat="43.81236" lon="7.4505">
        <ele>635.70118901876</ele>
        <time>2021-01-27T09:00:25Z</time>
      </trkpt>
      <trkpt lat="43.81238" lon="7.45051">
        <ele>635.70109941003</ele>
        <time>2021-01-27T09:00:27Z</time>
      </trkpt>
      <trkpt lat="43.81239" lon="7.45052">
        <ele>636.70106727705</ele>
        <time>2021-01-27T09:00:28Z</time>
      </trkpt>
      <trkpt lat="43.8124" lon="7.45054">
        <ele>637.70104108793</ele>
        <time>2021-01-27T09:00:29Z</time>
      </trkpt>
      <trkpt lat="43.81241" lon="7.45056">
        <ele>639.7009811209</ele>
        <time>2021-01-27T09:00:31Z</time>
      </trkpt>
      <trkpt lat="43.81242" lon="7.45056">
        <ele>640.70094759241</ele>
        <time>2021-01-27T09:00:32Z</time>
      </trkpt>
      <trkpt lat="43.81243" lon="7.45057">
        <ele>640.70092333379</ele>
        <time>2021-01-27T09:00:33Z</time>
      </trkpt>
      <trkpt lat="43.81244" lon="7.45057">
        <ele>640.70087383978</ele>
        <time>2021-01-27T09:00:35Z</time>
      </trkpt>
      <trkpt lat="43.81244" lon="7.45057">
        <ele>640.70083682863</ele>
        <time>2021-01-27T09:00:36Z</time>
      </trkpt>
      <trkpt lat="43.81246" lon="7.45057">
        <ele>640.70078358606</ele>
        <time>2021-01-27T09:00:37Z</time>
      </trkpt>
      <trkpt lat="43.81246" lon="7.45056">
        <ele>639.70075523822</ele>
        <time>2021-01-27T09:00:38Z</time>
      </trkpt>
      <trkpt lat="43.81247" lon="7.45056">
        <ele>639.70073084183</ele>
        <time>2021-01-27T09:00:39Z</time>
      </trkpt>
      <trkpt lat="43.81248" lon="7.45056">
        <ele>639.70066207776</ele>
        <time>2021-01-27T09:00:41Z</time>
      </trkpt>
      <trkpt lat="43.81248" lon="7.45055">
        <ele>639.70063398736</ele>
        <time>2021-01-27T09:00:42Z</time>
      </trkpt>
      <trkpt lat="43.81249" lon="7.45054">
        <ele>640.70060024338</ele>
        <time>2021-01-27T09:00:43Z</time>
      </trkpt>
      <trkpt lat="43.81249" lon="7.45054">
        <ele>640.70056939846</ele>
        <time>2021-01-27T09:00:44Z</time>
      </trkpt>
      <trkpt lat="43.8125" lon="7.45053">
        <ele>641.70050582042</ele>
        <time>2021-01-27T09:00:46Z</time>
      </trkpt>
      <trkpt lat="43.81251" lon="7.45052">
        <ele>642.70047746935</ele>
        <time>2021-01-27T09:00:47Z</time>
      </trkpt>
      <trkpt lat="43.81252" lon="7.4505">
        <ele>642.70042192932</ele>
        <time>2021-01-27T09:00:48Z</time>
      </trkpt>
      <trkpt lat="43.81252" lon="7.4505">
        <ele>642.70039990026</ele>
        <time>2021-01-27T09:00:49Z</time>
      </trkpt>
      <trkpt lat="43.81253" lon="7.4505">
        <ele>642.70036418112</ele>
        <time>2021-01-27T09:00:50Z</time>
      </trkpt>
      <trkpt lat="43.81253" lon="7.45049">
        <ele>642.70032456619</ele>
        <time>2021-01-27T09:00:51Z</time>
      </trkpt>
      <trkpt lat="43.81254" lon="7.45048">
        <ele>642.70026858198</ele>
        <time>2021-01-27T09:00:52Z</time>
      </trkpt>
      <trkpt lat="43.81255" lon="7.45048">
        <ele>642.70023718671</ele>
        <time>2021-01-27T09:00:53Z</time>
      </trkpt>
      <trkpt lat="43.81256" lon="7.45047">
        <ele>642.7002046809</ele>
        <time>2021-01-27T09:00:54Z</time>
      </trkpt>
      <trkpt lat="43.81256" lon="7.45047">
        <ele>642.70017242806</ele>
        <time>2021-01-27T09:00:55Z</time>
      </trkpt>
      <trkpt lat="43.81257" lon="7.45046">
        <ele>642.70014273961</ele>
        <time>2021-01-27T09:00:56Z</time>
      </trkpt>
      <trkpt lat="43.81257" lon="7.45046">
        <ele>642.7001176978</ele>
        <time>2021-01-27T09:00:57Z</time>
      </trkpt>
      <trkpt lat="43.81257" lon="7.45045">
        <ele>643.70010485967</ele>
        <time>2021-01-27T09:00:58Z</time>
      </trkpt>
      <trkpt lat="43.81258" lon="7.45044">
        <ele>642.70007409741</ele>
        <time>2021-01-27T09:00:59Z</time>
      </trkpt>
      <trkpt lat="43.81259" lon="7.45042">
        <ele>641.70001828146</ele>
        <time>2021-01-27T09:01:01Z</time>
      </trkpt>
      <trkpt lat="43.81259" lon="7.45041">
        <ele>641.69997738405</ele>
        <time>2021-01-27T09:01:02Z</time>
      </trkpt>
      <trkpt lat="43.81259" lon="7.4504">
        <ele>641.69995607324</ele>
        <time>2021-01-27T09:01:03Z</time>
      </trkpt>
      <trkpt lat="43.8126" lon="7.45039">
        <ele>640.69993527387</ele>
        <time>2021-01-27T09:01:05Z</time>
      </trkpt>
      <trkpt lat="43.8126" lon="7.45037">
        <ele>641.69989454637</ele>
        <time>2021-01-27T09:01:07Z</time>
      </trkpt>
      <trkpt lat="43.8126" lon="7.45036">
        <ele>642.6998721045</ele>
        <time>2021-01-27T09:01:10Z</time>
      </trkpt>
      <trkpt lat="43.81261" lon="7.45034">
        <ele>642.69979803524</ele>
        <time>2021-01-27T09:01:12Z</time>
      </trkpt>
      <trkpt lat="43.81262" lon="7.45034">
        <ele>642.69978634797</ele>
        <time>2021-01-27T09:01:13Z</time>
      </trkpt>
      <trkpt lat="43.81262" lon="7.45032">
        <ele>642.69973029586</ele>
        <time>2021-01-27T09:01:15Z</time>
      </trkpt>
      <trkpt lat="43.81262" lon="7.45032">
        <ele>642.69973029586</ele>
        <time>2021-01-27T09:01:17Z</time>
      </trkpt>
      <trkpt lat="43.81263" lon="7.4503">
        <ele>643.6996613688</ele>
        <time>2021-01-27T09:01:18Z</time>
      </trkpt>
      <trkpt lat="43.81264" lon="7.45029">
        <ele>642.69963074438</ele>
        <time>2021-01-27T09:01:19Z</time>
      </trkpt>
      <trkpt lat="43.81264" lon="7.45028">
        <ele>642.69963131032</ele>
        <time>2021-01-27T09:01:20Z</time>
      </trkpt>
      <trkpt lat="43.81264" lon="7.45027">
        <ele>642.69959455048</ele>
        <time>2021-01-27T09:01:21Z</time>
      </trkpt>
      <trkpt lat="43.81264" lon="7.45026">
        <ele>642.69958147267</ele>
        <time>2021-01-27T09:01:24Z</time>
      </trkpt>
      <trkpt lat="43.81264" lon="7.45025">
        <ele>643.69958336078</ele>
        <time>2021-01-27T09:01:25Z</time>
      </trkpt>
      <trkpt lat="43.81264" lon="7.45024">
        <ele>642.69956632623</ele>
        <time>2021-01-27T09:01:26Z</time>
      </trkpt>
      <trkpt lat="43.81264" lon="7.45023">
        <ele>642.69954038965</ele>
        <time>2021-01-27T09:01:27Z</time>
      </trkpt>
      <trkpt lat="43.81265" lon="7.45022">
        <ele>642.69951057866</ele>
        <time>2021-01-27T09:01:28Z</time>
      </trkpt>
      <trkpt lat="43.81265" lon="7.45021">
        <ele>643.69948141104</ele>
        <time>2021-01-27T09:01:29Z</time>
      </trkpt>
      <trkpt lat="43.81266" lon="7.45019">
        <ele>643.69941888415</ele>
        <time>2021-01-27T09:01:31Z</time>
      </trkpt>
      <trkpt lat="43.81267" lon="7.45019">
        <ele>644.6993966334</ele>
        <time>2021-01-27T09:01:32Z</time>
      </trkpt>
      <trkpt lat="43.81267" lon="7.45018">
        <ele>644.69936952884</ele>
        <time>2021-01-27T09:01:33Z</time>
      </trkpt>
      <trkpt lat="43.81267" lon="7.45017">
        <ele>644.69933146413</ele>
        <time>2021-01-27T09:01:34Z</time>
      </trkpt>
      <trkpt lat="43.81268" lon="7.45016">
        <ele>644.69929012604</ele>
        <time>2021-01-27T09:01:35Z</time>
      </trkpt>
      <trkpt lat="43.81269" lon="7.45015">
        <ele>644.69926090784</ele>
        <time>2021-01-27T09:01:36Z</time>
      </trkpt>
      <trkpt lat="43.81269" lon="7.45014">
        <ele>644.69922809153</ele>
        <time>2021-01-27T09:01:37Z</time>
      </trkpt>
      <trkpt lat="43.81269" lon="7.45013">
        <ele>645.69919588741</ele>
        <time>2021-01-27T09:01:38Z</time>
      </trkpt>
      <trkpt lat="43.81271" lon="7.45012">
        <ele>645.69913357384</ele>
        <time>2021-01-27T09:01:39Z</time>
      </trkpt>
      <trkpt lat="43.81271" lon="7.45011">
        <ele>645.69908266075</ele>
        <time>2021-01-27T09:01:40Z</time>
      </trkpt>
      <trkpt lat="43.81273" lon="7.4501">
        <ele>645.69901543748</ele>
        <time>2021-01-27T09:01:42Z</time>
      </trkpt>
      <trkpt lat="43.81273" lon="7.4501">
        <ele>645.69898941381</ele>
        <time>2021-01-27T09:01:43Z</time>
      </trkpt>
      <trkpt lat="43.81273" lon="7.45009">
        <ele>645.69897465372</ele>
        <time>2021-01-27T09:01:44Z</time>
      </trkpt>
      <trkpt lat="43.81274" lon="7.45008">
        <ele>645.69894861885</ele>
        <time>2021-01-27T09:01:45Z</time>
      </trkpt>
      <trkpt lat="43.81274" lon="7.45007">
        <ele>645.69893254441</ele>
        <time>2021-01-27T09:01:46Z</time>
      </trkpt>
      <trkpt lat="43.81275" lon="7.45007">
        <ele>646.69888934251</ele>
        <time>2021-01-27T09:01:47Z</time>
      </trkpt>
      <trkpt lat="43.81275" lon="7.45006">
        <ele>647.69884337259</ele>
        <time>2021-01-27T09:01:48Z</time>
      </trkpt>
      <trkpt lat="43.81276" lon="7.45005">
        <ele>647.69881324747</ele>
        <time>2021-01-27T09:01:49Z</time>
      </trkpt>
      <trkpt lat="43.81277" lon="7.45005">
        <ele>647.69877957462</ele>
        <time>2021-01-27T09:01:50Z</time>
      </trkpt>
      <trkpt lat="43.81278" lon="7.45004">
        <ele>647.69869270962</ele>
        <time>2021-01-27T09:01:52Z</time>
      </trkpt>
      <trkpt lat="43.81279" lon="7.45004">
        <ele>648.69865055438</ele>
        <time>2021-01-27T09:01:53Z</time>
      </trkpt>
      <trkpt lat="43.8128" lon="7.45003">
        <ele>648.69860770984</ele>
        <time>2021-01-27T09:01:54Z</time>
      </trkpt>
      <trkpt lat="43.8128" lon="7.45002">
        <ele>648.69856743503</ele>
        <time>2021-01-27T09:01:55Z</time>
      </trkpt>
      <trkpt lat="43.81282" lon="7.45">
        <ele>648.69847700357</ele>
        <time>2021-01-27T09:01:57Z</time>
      </trkpt>
      <trkpt lat="43.81282" lon="7.44998">
        <ele>648.69844277575</ele>
        <time>2021-01-27T09:01:58Z</time>
      </trkpt>
      <trkpt lat="43.81283" lon="7.44997">
        <ele>649.69841114265</ele>
        <time>2021-01-27T09:01:59Z</time>
      </trkpt>
      <trkpt lat="43.81283" lon="7.44996">
        <ele>649.69838349568</ele>
        <time>2021-01-27T09:02:00Z</time>
      </trkpt>
      <trkpt lat="43.81284" lon="7.44995">
        <ele>649.69832223364</ele>
        <time>2021-01-27T09:02:01Z</time>
      </trkpt>
      <trkpt lat="43.81285" lon="7.44994">
        <ele>649.69826369823</ele>
        <time>2021-01-27T09:02:02Z</time>
      </trkpt>
      <trkpt lat="43.81286" lon="7.44994">
        <ele>649.69822972137</ele>
        <time>2021-01-27T09:02:03Z</time>
      </trkpt>
      <trkpt lat="43.81288" lon="7.44993">
        <ele>648.6980864475</ele>
        <time>2021-01-27T09:02:05Z</time>
      </trkpt>
      <trkpt lat="43.8129" lon="7.44991">
        <ele>649.69799911716</ele>
        <time>2021-01-27T09:02:07Z</time>
      </trkpt>
      <trkpt lat="43.8129" lon="7.44991">
        <ele>648.69796825484</ele>
        <time>2021-01-27T09:02:08Z</time>
      </trkpt>
      <trkpt lat="43.81291" lon="7.4499">
        <ele>648.69794988096</ele>
        <time>2021-01-27T09:02:09Z</time>
      </trkpt>
      <trkpt lat="43.81292" lon="7.44988">
        <ele>648.69786966793</ele>
        <time>2021-01-27T09:02:11Z</time>
      </trkpt>
      <trkpt lat="43.81293" lon="7.44987">
        <ele>648.69782532257</ele>
        <time>2021-01-27T09:02:12Z</time>
      </trkpt>
      <trkpt lat="43.81294" lon="7.44986">
        <ele>648.69776682795</ele>
        <time>2021-01-27T09:02:13Z</time>
      </trkpt>
      <trkpt lat="43.81294" lon="7.44985">
        <ele>648.69773307343</ele>
        <time>2021-01-27T09:02:14Z</time>
      </trkpt>
      <trkpt lat="43.81295" lon="7.44984">
        <ele>649.69768357851</ele>
        <time>2021-01-27T09:02:15Z</time>
      </trkpt>
      <trkpt lat="43.81295" lon="7.44982">
        <ele>649.69764193731</ele>
        <time>2021-01-27T09:02:16Z</time>
      </trkpt>
      <trkpt lat="43.81296" lon="7.44981">
        <ele>648.69758800224</ele>
        <time>2021-01-27T09:02:17Z</time>
      </trkpt>
      <trkpt lat="43.81297" lon="7.4498">
        <ele>648.69754198531</ele>
        <time>2021-01-27T09:02:18Z</time>
      </trkpt>
      <trkpt lat="43.81298" lon="7.4498">
        <ele>648.69750886549</ele>
        <time>2021-01-27T09:02:19Z</time>
      </trkpt>
      <trkpt lat="43.81298" lon="7.44979">
        <ele>648.69748957138</ele>
        <time>2021-01-27T09:02:20Z</time>
      </trkpt>
      <trkpt lat="43.81298" lon="7.44979">
        <ele>648.69746166577</ele>
        <time>2021-01-27T09:02:21Z</time>
      </trkpt>
      <trkpt lat="43.81299" lon="7.44979">
        <ele>648.6974231423</ele>
        <time>2021-01-27T09:02:24Z</time>
      </trkpt>
      <trkpt lat="43.81302" lon="7.44978">
        <ele>648.69726057145</ele>
        <time>2021-01-27T09:02:26Z</time>
      </trkpt>
      <trkpt lat="43.81303" lon="7.44977">
        <ele>648.69721484941</ele>
        <time>2021-01-27T09:02:27Z</time>
      </trkpt>
      <trkpt lat="43.81304" lon="7.44977">
        <ele>648.69717250509</ele>
        <time>2021-01-27T09:02:28Z</time>
      </trkpt>
      <trkpt lat="43.81305" lon="7.44976">
        <ele>649.69712499736</ele>
        <time>2021-01-27T09:02:29Z</time>
      </trkpt>
      <trkpt lat="43.81306" lon="7.44975">
        <ele>649.69705764771</ele>
        <time>2021-01-27T09:02:30Z</time>
      </trkpt>
      <trkpt lat="43.81307" lon="7.44974">
        <ele>649.69701047735</ele>
        <time>2021-01-27T09:02:31Z</time>
      </trkpt>
      <trkpt lat="43.81307" lon="7.44973">
        <ele>649.69698289147</ele>
        <time>2021-01-27T09:02:32Z</time>
      </trkpt>
      <trkpt lat="43.81308" lon="7.44973">
        <ele>650.69694539084</ele>
        <time>2021-01-27T09:02:33Z</time>
      </trkpt>
      <trkpt lat="43.81309" lon="7.44972">
        <ele>650.69690610559</ele>
        <time>2021-01-27T09:02:34Z</time>
      </trkpt>
      <trkpt lat="43.8131" lon="7.44971">
        <ele>650.6968416183</ele>
        <time>2021-01-27T09:02:35Z</time>
      </trkpt>
      <trkpt lat="43.81311" lon="7.4497">
        <ele>650.69679553915</ele>
        <time>2021-01-27T09:02:36Z</time>
      </trkpt>
      <trkpt lat="43.81311" lon="7.44969">
        <ele>650.69678034053</ele>
        <time>2021-01-27T09:02:37Z</time>
      </trkpt>
      <trkpt lat="43.81312" lon="7.44968">
        <ele>651.69671668453</ele>
        <time>2021-01-27T09:02:38Z</time>
      </trkpt>
      <trkpt lat="43.81313" lon="7.44967">
        <ele>651.69666295523</ele>
        <time>2021-01-27T09:02:39Z</time>
      </trkpt>
      <trkpt lat="43.81315" lon="7.44965">
        <ele>650.69652336465</ele>
        <time>2021-01-27T09:02:41Z</time>
      </trkpt>
      <trkpt lat="43.81316" lon="7.44963">
        <ele>650.6964639336</ele>
        <time>2021-01-27T09:02:42Z</time>
      </trkpt>
      <trkpt lat="43.81317" lon="7.44962">
        <ele>651.69641810104</ele>
        <time>2021-01-27T09:02:43Z</time>
      </trkpt>
      <trkpt lat="43.81317" lon="7.44961">
        <ele>651.69636786439</ele>
        <time>2021-01-27T09:02:44Z</time>
      </trkpt>
      <trkpt lat="43.81318" lon="7.4496">
        <ele>650.69633450218</ele>
        <time>2021-01-27T09:02:45Z</time>
      </trkpt>
      <trkpt lat="43.81319" lon="7.44958">
        <ele>650.6962825222</ele>
        <time>2021-01-27T09:02:46Z</time>
      </trkpt>
      <trkpt lat="43.81319" lon="7.44957">
        <ele>650.69623503333</ele>
        <time>2021-01-27T09:02:47Z</time>
      </trkpt>
      <trkpt lat="43.8132" lon="7.44956">
        <ele>650.69620134533</ele>
        <time>2021-01-27T09:02:48Z</time>
      </trkpt>
      <trkpt lat="43.8132" lon="7.44955">
        <ele>651.69616608955</ele>
        <time>2021-01-27T09:02:49Z</time>
      </trkpt>
      <trkpt lat="43.81321" lon="7.44953">
        <ele>651.69612644108</ele>
        <time>2021-01-27T09:02:50Z</time>
      </trkpt>
      <trkpt lat="43.81322" lon="7.44952">
        <ele>650.69607975152</ele>
        <time>2021-01-27T09:02:52Z</time>
      </trkpt>
      <trkpt lat="43.81322" lon="7.44951">
        <ele>650.69603126402</ele>
        <time>2021-01-27T09:02:53Z</time>
      </trkpt>
      <trkpt lat="43.81323" lon="7.44949">
        <ele>651.69597051429</ele>
        <time>2021-01-27T09:02:54Z</time>
      </trkpt>
      <trkpt lat="43.81326" lon="7.44947">
        <ele>652.69582361748</ele>
        <time>2021-01-27T09:02:56Z</time>
      </trkpt>
      <trkpt lat="43.81327" lon="7.44946">
        <ele>652.69577444701</ele>
        <time>2021-01-27T09:02:57Z</time>
      </trkpt>
      <trkpt lat="43.81327" lon="7.44944">
        <ele>652.69574103584</ele>
        <time>2021-01-27T09:02:58Z</time>
      </trkpt>
      <trkpt lat="43.81328" lon="7.44944">
        <ele>652.6956970365</ele>
        <time>2021-01-27T09:02:59Z</time>
      </trkpt>
      <trkpt lat="43.81328" lon="7.44942">
        <ele>652.69565781908</ele>
        <time>2021-01-27T09:03:00Z</time>
      </trkpt>
      <trkpt lat="43.81329" lon="7.44941">
        <ele>652.69563077803</ele>
        <time>2021-01-27T09:03:01Z</time>
      </trkpt>
      <trkpt lat="43.81329" lon="7.4494">
        <ele>652.69559612917</ele>
        <time>2021-01-27T09:03:02Z</time>
      </trkpt>
      <trkpt lat="43.8133" lon="7.44939">
        <ele>652.69555747904</ele>
        <time>2021-01-27T09:03:03Z</time>
      </trkpt>
      <trkpt lat="43.8133" lon="7.44938">
        <ele>652.69552056708</ele>
        <time>2021-01-27T09:03:04Z</time>
      </trkpt>
      <trkpt lat="43.81332" lon="7.44937">
        <ele>652.69542591275</ele>
        <time>2021-01-27T09:03:06Z</time>
      </trkpt>
      <trkpt lat="43.81333" lon="7.44936">
        <ele>652.69537596686</ele>
        <time>2021-01-27T09:03:07Z</time>
      </trkpt>
      <trkpt lat="43.81333" lon="7.44935">
        <ele>651.69534073369</ele>
        <time>2021-01-27T09:03:08Z</time>
      </trkpt>
      <trkpt lat="43.81334" lon="7.44934">
        <ele>652.69528701294</ele>
        <time>2021-01-27T09:03:09Z</time>
      </trkpt>
      <trkpt lat="43.81335" lon="7.44933">
        <ele>652.69522334265</ele>
        <time>2021-01-27T09:03:10Z</time>
      </trkpt>
      <trkpt lat="43.81337" lon="7.44933">
        <ele>652.6951638181</ele>
        <time>2021-01-27T09:03:11Z</time>
      </trkpt>
      <trkpt lat="43.81338" lon="7.44932">
        <ele>652.69509888927</ele>
        <time>2021-01-27T09:03:12Z</time>
      </trkpt>
      <trkpt lat="43.81339" lon="7.44932">
        <ele>652.69503183414</ele>
        <time>2021-01-27T09:03:13Z</time>
      </trkpt>
      <trkpt lat="43.8134" lon="7.44931">
        <ele>652.69500180963</ele>
        <time>2021-01-27T09:03:14Z</time>
      </trkpt>
      <trkpt lat="43.81341" lon="7.44929">
        <ele>652.69492366703</ele>
        <time>2021-01-27T09:03:16Z</time>
      </trkpt>
      <trkpt lat="43.81342" lon="7.44928">
        <ele>652.69485841494</ele>
        <time>2021-01-27T09:03:17Z</time>
      </trkpt>
      <trkpt lat="43.81343" lon="7.44927">
        <ele>651.69480359517</ele>
        <time>2021-01-27T09:03:18Z</time>
      </trkpt>
      <trkpt lat="43.81344" lon="7.44927">
        <ele>651.69475962178</ele>
        <time>2021-01-27T09:03:19Z</time>
      </trkpt>
      <trkpt lat="43.81345" lon="7.44925">
        <ele>651.69468596053</ele>
        <time>2021-01-27T09:03:20Z</time>
      </trkpt>
      <trkpt lat="43.81346" lon="7.44925">
        <ele>650.69462431542</ele>
        <time>2021-01-27T09:03:21Z</time>
      </trkpt>
      <trkpt lat="43.81347" lon="7.44924">
        <ele>651.69455458071</ele>
        <time>2021-01-27T09:03:22Z</time>
      </trkpt>
      <trkpt lat="43.81348" lon="7.44923">
        <ele>650.6945031955</ele>
        <time>2021-01-27T09:03:23Z</time>
      </trkpt>
      <trkpt lat="43.81349" lon="7.44922">
        <ele>650.69446085283</ele>
        <time>2021-01-27T09:03:24Z</time>
      </trkpt>
      <trkpt lat="43.81349" lon="7.44921">
        <ele>650.69442858354</ele>
        <time>2021-01-27T09:03:25Z</time>
      </trkpt>
      <trkpt lat="43.8135" lon="7.4492">
        <ele>650.69440191563</ele>
        <time>2021-01-27T09:03:26Z</time>
      </trkpt>
      <trkpt lat="43.8135" lon="7.44919">
        <ele>650.69435548779</ele>
        <time>2021-01-27T09:03:27Z</time>
      </trkpt>
      <trkpt lat="43.81351" lon="7.44917">
        <ele>650.69431382671</ele>
        <time>2021-01-27T09:03:28Z</time>
      </trkpt>
      <trkpt lat="43.81351" lon="7.44916">
        <ele>650.69429237653</ele>
        <time>2021-01-27T09:03:29Z</time>
      </trkpt>
      <trkpt lat="43.81353" lon="7.44915">
        <ele>650.694205549</ele>
        <time>2021-01-27T09:03:31Z</time>
      </trkpt>
      <trkpt lat="43.81354" lon="7.44914">
        <ele>650.69414191714</ele>
        <time>2021-01-27T09:03:32Z</time>
      </trkpt>
      <trkpt lat="43.81355" lon="7.44913">
        <ele>650.69408653805</ele>
        <time>2021-01-27T09:03:33Z</time>
      </trkpt>
      <trkpt lat="43.81356" lon="7.44912">
        <ele>649.69401219914</ele>
        <time>2021-01-27T09:03:35Z</time>
      </trkpt>
      <trkpt lat="43.81357" lon="7.44909">
        <ele>648.69394356919</ele>
        <time>2021-01-27T09:03:37Z</time>
      </trkpt>
      <trkpt lat="43.81358" lon="7.44908">
        <ele>648.69389482697</ele>
        <time>2021-01-27T09:03:38Z</time>
      </trkpt>
      <trkpt lat="43.81359" lon="7.44907">
        <ele>647.69384623846</ele>
        <time>2021-01-27T09:03:39Z</time>
      </trkpt>
      <trkpt lat="43.8136" lon="7.44905">
        <ele>647.69374019391</ele>
        <time>2021-01-27T09:03:41Z</time>
      </trkpt>
      <trkpt lat="43.81361" lon="7.44904">
        <ele>648.69369483692</ele>
        <time>2021-01-27T09:03:42Z</time>
      </trkpt>
      <trkpt lat="43.81362" lon="7.44903">
        <ele>648.69364586108</ele>
        <time>2021-01-27T09:03:43Z</time>
      </trkpt>
      <trkpt lat="43.81366" lon="7.44897">
        <ele>647.69339056192</ele>
        <time>2021-01-27T09:03:47Z</time>
      </trkpt>
      <trkpt lat="43.81366" lon="7.44896">
        <ele>647.69335561816</ele>
        <time>2021-01-27T09:03:48Z</time>
      </trkpt>
      <trkpt lat="43.81367" lon="7.44896">
        <ele>647.69332819587</ele>
        <time>2021-01-27T09:03:49Z</time>
      </trkpt>
      <trkpt lat="43.81367" lon="7.44897">
        <ele>647.6933122092</ele>
        <time>2021-01-27T09:03:50Z</time>
      </trkpt>
      <trkpt lat="43.81367" lon="7.44898">
        <ele>646.69332196725</ele>
        <time>2021-01-27T09:03:51Z</time>
      </trkpt>
      <trkpt lat="43.81368" lon="7.44898">
        <ele>647.69332452881</ele>
        <time>2021-01-27T09:03:52Z</time>
      </trkpt>
      <trkpt lat="43.81368" lon="7.44902">
        <ele>647.69335111023</ele>
        <time>2021-01-27T09:03:54Z</time>
      </trkpt>
      <trkpt lat="43.81368" lon="7.44903">
        <ele>647.69335293573</ele>
        <time>2021-01-27T09:03:55Z</time>
      </trkpt>
      <trkpt lat="43.81367" lon="7.44905">
        <ele>647.69340265523</ele>
        <time>2021-01-27T09:03:57Z</time>
      </trkpt>
      <trkpt lat="43.81367" lon="7.44906">
        <ele>647.69340939398</ele>
        <time>2021-01-27T09:03:58Z</time>
      </trkpt>
      <trkpt lat="43.81368" lon="7.44907">
        <ele>647.69340941246</ele>
        <time>2021-01-27T09:04:00Z</time>
      </trkpt>
      <trkpt lat="43.81368" lon="7.44908">
        <ele>646.69340581492</ele>
        <time>2021-01-27T09:04:01Z</time>
      </trkpt>
      <trkpt lat="43.81368" lon="7.44909">
        <ele>646.69339866992</ele>
        <time>2021-01-27T09:04:02Z</time>
      </trkpt>
      <trkpt lat="43.81369" lon="7.44909">
        <ele>646.69338685266</ele>
        <time>2021-01-27T09:04:03Z</time>
      </trkpt>
      <trkpt lat="43.81369" lon="7.4491">
        <ele>646.6933899928</ele>
        <time>2021-01-27T09:04:04Z</time>
      </trkpt>
      <trkpt lat="43.81369" lon="7.44912">
        <ele>647.69341520829</ele>
        <time>2021-01-27T09:04:06Z</time>
      </trkpt>
      <trkpt lat="43.81369" lon="7.44913">
        <ele>648.69341159117</ele>
        <time>2021-01-27T09:04:10Z</time>
      </trkpt>
      <trkpt lat="43.8137" lon="7.44916">
        <ele>649.69338419973</ele>
        <time>2021-01-27T09:04:12Z</time>
      </trkpt>
      <trkpt lat="43.8137" lon="7.44917">
        <ele>649.69340128809</ele>
        <time>2021-01-27T09:04:13Z</time>
      </trkpt>
      <trkpt lat="43.8137" lon="7.44919">
        <ele>649.693420725</ele>
        <time>2021-01-27T09:04:14Z</time>
      </trkpt>
      <trkpt lat="43.8137" lon="7.4492">
        <ele>650.69341617123</ele>
        <time>2021-01-27T09:04:15Z</time>
      </trkpt>
      <trkpt lat="43.8137" lon="7.44921">
        <ele>651.69344829381</ele>
        <time>2021-01-27T09:04:16Z</time>
      </trkpt>
      <trkpt lat="43.8137" lon="7.44923">
        <ele>651.69345971003</ele>
        <time>2021-01-27T09:04:18Z</time>
      </trkpt>
      <trkpt lat="43.8137" lon="7.44923">
        <ele>651.69345794317</ele>
        <time>2021-01-27T09:04:19Z</time>
      </trkpt>
      <trkpt lat="43.8137" lon="7.44925">
        <ele>652.69348125409</ele>
        <time>2021-01-27T09:04:20Z</time>
      </trkpt>
      <trkpt lat="43.81369" lon="7.44927">
        <ele>651.69355234136</ele>
        <time>2021-01-27T09:04:22Z</time>
      </trkpt>
      <trkpt lat="43.81368" lon="7.44928">
        <ele>652.69357998727</ele>
        <time>2021-01-27T09:04:23Z</time>
      </trkpt>
      <trkpt lat="43.81368" lon="7.44929">
        <ele>651.6935932583</ele>
        <time>2021-01-27T09:04:24Z</time>
      </trkpt>
      <trkpt lat="43.81368" lon="7.4493">
        <ele>651.69359941966</ele>
        <time>2021-01-27T09:04:25Z</time>
      </trkpt>
      <trkpt lat="43.81369" lon="7.44931">
        <ele>652.69360154162</ele>
        <time>2021-01-27T09:04:26Z</time>
      </trkpt>
      <trkpt lat="43.81369" lon="7.44932">
        <ele>652.693594017</ele>
        <time>2021-01-27T09:04:27Z</time>
      </trkpt>
      <trkpt lat="43.81369" lon="7.44933">
        <ele>652.69359329011</ele>
        <time>2021-01-27T09:04:28Z</time>
      </trkpt>
      <trkpt lat="43.8137" lon="7.44934">
        <ele>652.69359021021</ele>
        <time>2021-01-27T09:04:29Z</time>
      </trkpt>
      <trkpt lat="43.8137" lon="7.44935">
        <ele>653.69358439077</ele>
        <time>2021-01-27T09:04:30Z</time>
      </trkpt>
      <trkpt lat="43.8137" lon="7.44936">
        <ele>653.69359904987</ele>
        <time>2021-01-27T09:04:31Z</time>
      </trkpt>
      <trkpt lat="43.8137" lon="7.44937">
        <ele>653.69360114172</ele>
        <time>2021-01-27T09:04:32Z</time>
      </trkpt>
      <trkpt lat="43.81371" lon="7.44938">
        <ele>653.69358544007</ele>
        <time>2021-01-27T09:04:33Z</time>
      </trkpt>
      <trkpt lat="43.81371" lon="7.44939">
        <ele>654.69358707524</ele>
        <time>2021-01-27T09:04:35Z</time>
      </trkpt>
      <trkpt lat="43.81371" lon="7.4494">
        <ele>654.69358499706</ele>
        <time>2021-01-27T09:04:36Z</time>
      </trkpt>
      <trkpt lat="43.81371" lon="7.4494">
        <ele>654.69358392726</ele>
        <time>2021-01-27T09:04:37Z</time>
      </trkpt>
      <trkpt lat="43.81371" lon="7.44941">
        <ele>653.69358879957</ele>
        <time>2021-01-27T09:04:38Z</time>
      </trkpt>
      <trkpt lat="43.81371" lon="7.44942">
        <ele>653.69361472564</ele>
        <time>2021-01-27T09:04:39Z</time>
      </trkpt>
      <trkpt lat="43.81371" lon="7.44945">
        <ele>654.69364785344</ele>
        <time>2021-01-27T09:04:41Z</time>
      </trkpt>
      <trkpt lat="43.81371" lon="7.44946">
        <ele>654.69366107638</ele>
        <time>2021-01-27T09:04:42Z</time>
      </trkpt>
      <trkpt lat="43.8137" lon="7.44947">
        <ele>654.6936831813</ele>
        <time>2021-01-27T09:04:43Z</time>
      </trkpt>
      <trkpt lat="43.8137" lon="7.44948">
        <ele>655.69371564803</ele>
        <time>2021-01-27T09:04:44Z</time>
      </trkpt>
      <trkpt lat="43.8137" lon="7.4495">
        <ele>655.69372572455</ele>
        <time>2021-01-27T09:04:45Z</time>
      </trkpt>
      <trkpt lat="43.8137" lon="7.44951">
        <ele>656.6937305904</ele>
        <time>2021-01-27T09:04:46Z</time>
      </trkpt>
      <trkpt lat="43.8137" lon="7.44952">
        <ele>656.6937299068</ele>
        <time>2021-01-27T09:04:47Z</time>
      </trkpt>
      <trkpt lat="43.8137" lon="7.44953">
        <ele>656.69374184327</ele>
        <time>2021-01-27T09:04:48Z</time>
      </trkpt>
      <trkpt lat="43.81371" lon="7.44955">
        <ele>658.69376182586</ele>
        <time>2021-01-27T09:04:50Z</time>
      </trkpt>
      <trkpt lat="43.81371" lon="7.44956">
        <ele>658.6937616571</ele>
        <time>2021-01-27T09:04:51Z</time>
      </trkpt>
      <trkpt lat="43.81371" lon="7.44957">
        <ele>659.69376344871</ele>
        <time>2021-01-27T09:04:52Z</time>
      </trkpt>
      <trkpt lat="43.81372" lon="7.44959">
        <ele>659.69374103703</ele>
        <time>2021-01-27T09:04:53Z</time>
      </trkpt>
      <trkpt lat="43.81372" lon="7.44959">
        <ele>660.69371277976</ele>
        <time>2021-01-27T09:04:55Z</time>
      </trkpt>
      <trkpt lat="43.81373" lon="7.44959">
        <ele>659.69367267539</ele>
        <time>2021-01-27T09:04:59Z</time>
      </trkpt>
      <trkpt lat="43.81375" lon="7.44958">
        <ele>658.69355590853</ele>
        <time>2021-01-27T09:05:01Z</time>
      </trkpt>
      <trkpt lat="43.81376" lon="7.44957">
        <ele>657.69351215954</ele>
        <time>2021-01-27T09:05:02Z</time>
      </trkpt>
      <trkpt lat="43.81377" lon="7.44957">
        <ele>657.69347503949</ele>
        <time>2021-01-27T09:05:03Z</time>
      </trkpt>
      <trkpt lat="43.81377" lon="7.44957">
        <ele>658.69344117587</ele>
        <time>2021-01-27T09:05:04Z</time>
      </trkpt>
      <trkpt lat="43.81378" lon="7.44956">
        <ele>658.69340830695</ele>
        <time>2021-01-27T09:05:07Z</time>
      </trkpt>
      <trkpt lat="43.81379" lon="7.44956">
        <ele>659.69337086534</ele>
        <time>2021-01-27T09:05:08Z</time>
      </trkpt>
      <trkpt lat="43.81379" lon="7.44955">
        <ele>659.69332951297</ele>
        <time>2021-01-27T09:05:09Z</time>
      </trkpt>
      <trkpt lat="43.8138" lon="7.44954">
        <ele>659.69328415392</ele>
        <time>2021-01-27T09:05:10Z</time>
      </trkpt>
      <trkpt lat="43.81381" lon="7.44954">
        <ele>659.69324587578</ele>
        <time>2021-01-27T09:05:11Z</time>
      </trkpt>
      <trkpt lat="43.81381" lon="7.44953">
        <ele>660.69322071459</ele>
        <time>2021-01-27T09:05:15Z</time>
      </trkpt>
      <trkpt lat="43.81382" lon="7.44952">
        <ele>660.69315578284</ele>
        <time>2021-01-27T09:05:16Z</time>
      </trkpt>
      <trkpt lat="43.81383" lon="7.44951">
        <ele>660.69311927884</ele>
        <time>2021-01-27T09:05:17Z</time>
      </trkpt>
      <trkpt lat="43.81384" lon="7.44952">
        <ele>661.69309595072</ele>
        <time>2021-01-27T09:05:18Z</time>
      </trkpt>
      <trkpt lat="43.81384" lon="7.44951">
        <ele>660.69306254444</ele>
        <time>2021-01-27T09:05:21Z</time>
      </trkpt>
      <trkpt lat="43.81386" lon="7.44949">
        <ele>660.69295436066</ele>
        <time>2021-01-27T09:05:23Z</time>
      </trkpt>
      <trkpt lat="43.81386" lon="7.44948">
        <ele>660.69292772575</ele>
        <time>2021-01-27T09:05:27Z</time>
      </trkpt>
      <trkpt lat="43.81387" lon="7.44947">
        <ele>660.692863762</ele>
        <time>2021-01-27T09:05:28Z</time>
      </trkpt>
      <trkpt lat="43.81388" lon="7.44946">
        <ele>660.69280179534</ele>
        <time>2021-01-27T09:05:29Z</time>
      </trkpt>
      <trkpt lat="43.8139" lon="7.44945">
        <ele>660.69272987565</ele>
        <time>2021-01-27T09:05:30Z</time>
      </trkpt>
      <trkpt lat="43.81391" lon="7.44944">
        <ele>660.69267851006</ele>
        <time>2021-01-27T09:05:31Z</time>
      </trkpt>
      <trkpt lat="43.81392" lon="7.44943">
        <ele>660.69262376474</ele>
        <time>2021-01-27T09:05:32Z</time>
      </trkpt>
      <trkpt lat="43.81392" lon="7.44942">
        <ele>661.6925734553</ele>
        <time>2021-01-27T09:05:33Z</time>
      </trkpt>
      <trkpt lat="43.81393" lon="7.44942">
        <ele>661.69252695797</ele>
        <time>2021-01-27T09:05:34Z</time>
      </trkpt>
      <trkpt lat="43.81395" lon="7.44941">
        <ele>660.69244098398</ele>
        <time>2021-01-27T09:05:36Z</time>
      </trkpt>
      <trkpt lat="43.81396" lon="7.44941">
        <ele>660.69240087783</ele>
        <time>2021-01-27T09:05:37Z</time>
      </trkpt>
      <trkpt lat="43.81396" lon="7.4494">
        <ele>661.69236380225</ele>
        <time>2021-01-27T09:05:38Z</time>
      </trkpt>
      <trkpt lat="43.81397" lon="7.44939">
        <ele>661.69231510261</ele>
        <time>2021-01-27T09:05:39Z</time>
      </trkpt>
      <trkpt lat="43.81398" lon="7.44939">
        <ele>661.69227748197</ele>
        <time>2021-01-27T09:05:40Z</time>
      </trkpt>
      <trkpt lat="43.81399" lon="7.44939">
        <ele>661.69223093308</ele>
        <time>2021-01-27T09:05:41Z</time>
      </trkpt>
      <trkpt lat="43.81399" lon="7.44938">
        <ele>662.69220311955</ele>
        <time>2021-01-27T09:05:45Z</time>
      </trkpt>
      <trkpt lat="43.81398" lon="7.44935">
        <ele>662.69222556823</ele>
        <time>2021-01-27T09:05:47Z</time>
      </trkpt>
      <trkpt lat="43.81398" lon="7.44935">
        <ele>662.69224453916</ele>
        <time>2021-01-27T09:05:48Z</time>
      </trkpt>
      <trkpt lat="43.81397" lon="7.44933">
        <ele>663.69224787133</ele>
        <time>2021-01-27T09:05:49Z</time>
      </trkpt>
      <trkpt lat="43.81397" lon="7.44932">
        <ele>663.69224591541</ele>
        <time>2021-01-27T09:05:50Z</time>
      </trkpt>
      <trkpt lat="43.81398" lon="7.44932">
        <ele>663.69219750467</ele>
        <time>2021-01-27T09:05:51Z</time>
      </trkpt>
      <trkpt lat="43.81399" lon="7.44931">
        <ele>664.69216826863</ele>
        <time>2021-01-27T09:05:52Z</time>
      </trkpt>
      <trkpt lat="43.81399" lon="7.44931">
        <ele>665.69213331392</ele>
        <time>2021-01-27T09:05:53Z</time>
      </trkpt>
      <trkpt lat="43.814" lon="7.44931">
        <ele>665.6920862814</ele>
        <time>2021-01-27T09:05:54Z</time>
      </trkpt>
      <trkpt lat="43.814" lon="7.44931">
        <ele>665.69206777347</ele>
        <time>2021-01-27T09:05:55Z</time>
      </trkpt>
      <trkpt lat="43.81402" lon="7.44929">
        <ele>666.69196909294</ele>
        <time>2021-01-27T09:05:57Z</time>
      </trkpt>
      <trkpt lat="43.81403" lon="7.44928">
        <ele>666.6919415444</ele>
        <time>2021-01-27T09:05:58Z</time>
      </trkpt>
      <trkpt lat="43.81403" lon="7.44928">
        <ele>667.69191145931</ele>
        <time>2021-01-27T09:05:59Z</time>
      </trkpt>
      <trkpt lat="43.81404" lon="7.44927">
        <ele>667.6918690309</ele>
        <time>2021-01-27T09:06:00Z</time>
      </trkpt>
      <trkpt lat="43.81405" lon="7.44927">
        <ele>667.69182457372</ele>
        <time>2021-01-27T09:06:01Z</time>
      </trkpt>
      <trkpt lat="43.81406" lon="7.44928">
        <ele>667.69177841055</ele>
        <time>2021-01-27T09:06:02Z</time>
      </trkpt>
      <trkpt lat="43.81407" lon="7.44928">
        <ele>668.69174972665</ele>
        <time>2021-01-27T09:06:03Z</time>
      </trkpt>
      <trkpt lat="43.81407" lon="7.44928">
        <ele>668.69171001606</ele>
        <time>2021-01-27T09:06:04Z</time>
      </trkpt>
      <trkpt lat="43.81408" lon="7.44928">
        <ele>668.6916726747</ele>
        <time>2021-01-27T09:06:05Z</time>
      </trkpt>
      <trkpt lat="43.8141" lon="7.44929">
        <ele>668.69158126087</ele>
        <time>2021-01-27T09:06:07Z</time>
      </trkpt>
      <trkpt lat="43.81411" lon="7.4493">
        <ele>669.69155143715</ele>
        <time>2021-01-27T09:06:08Z</time>
      </trkpt>
      <trkpt lat="43.81412" lon="7.4493">
        <ele>670.69152456869</ele>
        <time>2021-01-27T09:06:09Z</time>
      </trkpt>
      <trkpt lat="43.81413" lon="7.44931">
        <ele>671.69149430066</ele>
        <time>2021-01-27T09:06:10Z</time>
      </trkpt>
      <trkpt lat="43.81413" lon="7.44932">
        <ele>671.69147194517</ele>
        <time>2021-01-27T09:06:11Z</time>
      </trkpt>
      <trkpt lat="43.81414" lon="7.44932">
        <ele>672.69143426028</ele>
        <time>2021-01-27T09:06:12Z</time>
      </trkpt>
      <trkpt lat="43.81414" lon="7.44932">
        <ele>672.69141271095</ele>
        <time>2021-01-27T09:06:13Z</time>
      </trkpt>
      <trkpt lat="43.81415" lon="7.44932">
        <ele>672.69138057777</ele>
        <time>2021-01-27T09:06:16Z</time>
      </trkpt>
      <trkpt lat="43.81417" lon="7.44932">
        <ele>672.69126260638</ele>
        <time>2021-01-27T09:06:17Z</time>
      </trkpt>
      <trkpt lat="43.81419" lon="7.44932">
        <ele>672.69120451396</ele>
        <time>2021-01-27T09:06:18Z</time>
      </trkpt>
      <trkpt lat="43.8142" lon="7.44932">
        <ele>672.69113830933</ele>
        <time>2021-01-27T09:06:19Z</time>
      </trkpt>
      <trkpt lat="43.81421" lon="7.44932">
        <ele>672.69108880067</ele>
        <time>2021-01-27T09:06:20Z</time>
      </trkpt>
      <trkpt lat="43.81422" lon="7.44932">
        <ele>672.69103601289</ele>
        <time>2021-01-27T09:06:21Z</time>
      </trkpt>
      <trkpt lat="43.81423" lon="7.44931">
        <ele>672.69097695582</ele>
        <time>2021-01-27T09:06:22Z</time>
      </trkpt>
      <trkpt lat="43.81425" lon="7.44932">
        <ele>672.69091930715</ele>
        <time>2021-01-27T09:06:23Z</time>
      </trkpt>
      <trkpt lat="43.81427" lon="7.44932">
        <ele>673.69078104172</ele>
        <time>2021-01-27T09:06:25Z</time>
      </trkpt>
      <trkpt lat="43.8143" lon="7.44931">
        <ele>673.69067131441</ele>
        <time>2021-01-27T09:06:27Z</time>
      </trkpt>
      <trkpt lat="43.81431" lon="7.4493">
        <ele>673.69061188137</ele>
        <time>2021-01-27T09:06:28Z</time>
      </trkpt>
      <trkpt lat="43.81432" lon="7.4493">
        <ele>673.69055909149</ele>
        <time>2021-01-27T09:06:29Z</time>
      </trkpt>
      <trkpt lat="43.81433" lon="7.44929">
        <ele>672.69049496244</ele>
        <time>2021-01-27T09:06:30Z</time>
      </trkpt>
      <trkpt lat="43.81434" lon="7.44928">
        <ele>672.69043548205</ele>
        <time>2021-01-27T09:06:31Z</time>
      </trkpt>
      <trkpt lat="43.81435" lon="7.44927">
        <ele>672.69037644141</ele>
        <time>2021-01-27T09:06:32Z</time>
      </trkpt>
      <trkpt lat="43.81436" lon="7.44927">
        <ele>672.69031961605</ele>
        <time>2021-01-27T09:06:33Z</time>
      </trkpt>
      <trkpt lat="43.81437" lon="7.44925">
        <ele>673.69025328554</ele>
        <time>2021-01-27T09:06:34Z</time>
      </trkpt>
      <trkpt lat="43.81438" lon="7.44924">
        <ele>672.69018513165</ele>
        <time>2021-01-27T09:06:35Z</time>
      </trkpt>
      <trkpt lat="43.8144" lon="7.44924">
        <ele>672.69008766518</ele>
        <time>2021-01-27T09:06:37Z</time>
      </trkpt>
      <trkpt lat="43.81441" lon="7.44924">
        <ele>673.69004341705</ele>
        <time>2021-01-27T09:06:38Z</time>
      </trkpt>
      <trkpt lat="43.81442" lon="7.44923">
        <ele>673.68998067085</ele>
        <time>2021-01-27T09:06:39Z</time>
      </trkpt>
      <trkpt lat="43.81444" lon="7.44922">
        <ele>673.68989806816</ele>
        <time>2021-01-27T09:06:41Z</time>
      </trkpt>
      <trkpt lat="43.81446" lon="7.44921">
        <ele>674.68976160964</ele>
        <time>2021-01-27T09:06:43Z</time>
      </trkpt>
      <trkpt lat="43.81447" lon="7.44921">
        <ele>674.6897073819</ele>
        <time>2021-01-27T09:06:44Z</time>
      </trkpt>
      <trkpt lat="43.81448" lon="7.44921">
        <ele>675.68966430403</ele>
        <time>2021-01-27T09:06:45Z</time>
      </trkpt>
      <trkpt lat="43.81449" lon="7.4492">
        <ele>675.68963661269</ele>
        <time>2021-01-27T09:06:46Z</time>
      </trkpt>
      <trkpt lat="43.8145" lon="7.4492">
        <ele>675.68958774199</ele>
        <time>2021-01-27T09:06:47Z</time>
      </trkpt>
      <trkpt lat="43.81451" lon="7.4492">
        <ele>675.68953944739</ele>
        <time>2021-01-27T09:06:48Z</time>
      </trkpt>
      <trkpt lat="43.81452" lon="7.4492">
        <ele>675.68948778452</ele>
        <time>2021-01-27T09:06:49Z</time>
      </trkpt>
      <trkpt lat="43.81453" lon="7.4492">
        <ele>675.68942785334</ele>
        <time>2021-01-27T09:06:50Z</time>
      </trkpt>
      <trkpt lat="43.81454" lon="7.44921">
        <ele>676.68938544636</ele>
        <time>2021-01-27T09:06:51Z</time>
      </trkpt>
      <trkpt lat="43.81456" lon="7.44921">
        <ele>677.68931396317</ele>
        <time>2021-01-27T09:06:53Z</time>
      </trkpt>
      <trkpt lat="43.81457" lon="7.44922">
        <ele>676.68927636761</ele>
        <time>2021-01-27T09:06:54Z</time>
      </trkpt>
      <trkpt lat="43.81457" lon="7.44921">
        <ele>676.68923716795</ele>
        <time>2021-01-27T09:06:55Z</time>
      </trkpt>
      <trkpt lat="43.81458" lon="7.44921">
        <ele>676.6892056247</ele>
        <time>2021-01-27T09:06:56Z</time>
      </trkpt>
      <trkpt lat="43.81459" lon="7.44922">
        <ele>676.68916748475</ele>
        <time>2021-01-27T09:06:57Z</time>
      </trkpt>
      <trkpt lat="43.8146" lon="7.44921">
        <ele>676.68912496876</ele>
        <time>2021-01-27T09:06:58Z</time>
      </trkpt>
      <trkpt lat="43.8146" lon="7.4492">
        <ele>676.68908734067</ele>
        <time>2021-01-27T09:07:00Z</time>
      </trkpt>
      <trkpt lat="43.8146" lon="7.4492">
        <ele>676.68908734067</ele>
        <time>2021-01-27T09:07:01Z</time>
      </trkpt>
      <trkpt lat="43.81462" lon="7.44918">
        <ele>676.68899583179</ele>
        <time>2021-01-27T09:07:02Z</time>
      </trkpt>
      <trkpt lat="43.81462" lon="7.44917">
        <ele>675.68895594245</ele>
        <time>2021-01-27T09:07:03Z</time>
      </trkpt>
      <trkpt lat="43.81463" lon="7.44918">
        <ele>675.68893158952</ele>
        <time>2021-01-27T09:07:04Z</time>
      </trkpt>
      <trkpt lat="43.81464" lon="7.44918">
        <ele>676.68888357685</ele>
        <time>2021-01-27T09:07:06Z</time>
      </trkpt>
      <trkpt lat="43.81464" lon="7.44918">
        <ele>676.68888357685</ele>
        <time>2021-01-27T09:07:45Z</time>
      </trkpt>
      <trkpt lat="43.81463" lon="7.44918">
        <ele>678.68892407867</ele>
        <time>2021-01-27T09:07:47Z</time>
      </trkpt>
      <trkpt lat="43.81463" lon="7.44918">
        <ele>678.68894745258</ele>
        <time>2021-01-27T09:08:42Z</time>
      </trkpt>
      <trkpt lat="43.81462" lon="7.44917">
        <ele>677.68896552504</ele>
        <time>2021-01-27T09:08:47Z</time>
      </trkpt>
      <trkpt lat="43.81462" lon="7.44917">
        <ele>677.6889668803</ele>
        <time>2021-01-27T09:08:52Z</time>
      </trkpt>
      <trkpt lat="43.81461" lon="7.44918">
        <ele>675.68903976163</ele>
        <time>2021-01-27T09:08:53Z</time>
      </trkpt>
      <trkpt lat="43.81461" lon="7.44919">
        <ele>677.68905156269</ele>
        <time>2021-01-27T09:09:11Z</time>
      </trkpt>
      <trkpt lat="43.81462" lon="7.44919">
        <ele>677.68898170394</ele>
        <time>2021-01-27T09:09:12Z</time>
      </trkpt>
      <trkpt lat="43.81463" lon="7.44919">
        <ele>677.68895289845</ele>
        <time>2021-01-27T09:09:13Z</time>
      </trkpt>
      <trkpt lat="43.81463" lon="7.44919">
        <ele>677.68892076999</ele>
        <time>2021-01-27T09:09:14Z</time>
      </trkpt>
      <trkpt lat="43.81464" lon="7.44919">
        <ele>678.68889452286</ele>
        <time>2021-01-27T09:09:15Z</time>
      </trkpt>
      <trkpt lat="43.81465" lon="7.44919">
        <ele>678.68885529597</ele>
        <time>2021-01-27T09:09:18Z</time>
      </trkpt>
      <trkpt lat="43.81466" lon="7.4492">
        <ele>678.6887878256</ele>
        <time>2021-01-27T09:09:19Z</time>
      </trkpt>
      <trkpt lat="43.81467" lon="7.4492">
        <ele>678.68875864548</ele>
        <time>2021-01-27T09:09:20Z</time>
      </trkpt>
      <trkpt lat="43.81468" lon="7.44922">
        <ele>678.6887500093</ele>
        <time>2021-01-27T09:09:21Z</time>
      </trkpt>
      <trkpt lat="43.81468" lon="7.44922">
        <ele>678.68873607486</ele>
        <time>2021-01-27T09:09:24Z</time>
      </trkpt>
      <trkpt lat="43.8147" lon="7.44921">
        <ele>678.68863832909</ele>
        <time>2021-01-27T09:09:26Z</time>
      </trkpt>
      <trkpt lat="43.8147" lon="7.44921">
        <ele>677.68861555813</ele>
        <time>2021-01-27T09:09:33Z</time>
      </trkpt>
      <trkpt lat="43.81469" lon="7.44921">
        <ele>677.68866615951</ele>
        <time>2021-01-27T09:09:34Z</time>
      </trkpt>
      <trkpt lat="43.81469" lon="7.44922">
        <ele>678.68866765009</ele>
        <time>2021-01-27T09:09:35Z</time>
      </trkpt>
      <trkpt lat="43.8147" lon="7.44923">
        <ele>678.68863496925</ele>
        <time>2021-01-27T09:09:39Z</time>
      </trkpt>
      <trkpt lat="43.81472" lon="7.44922">
        <ele>680.68853257716</ele>
        <time>2021-01-27T09:09:41Z</time>
      </trkpt>
      <trkpt lat="43.81473" lon="7.44922">
        <ele>680.68849451412</ele>
        <time>2021-01-27T09:09:42Z</time>
      </trkpt>
      <trkpt lat="43.81474" lon="7.44921">
        <ele>681.68845858438</ele>
        <time>2021-01-27T09:09:43Z</time>
      </trkpt>
      <trkpt lat="43.81474" lon="7.44921">
        <ele>681.68841892679</ele>
        <time>2021-01-27T09:09:44Z</time>
      </trkpt>
      <trkpt lat="43.81475" lon="7.44921">
        <ele>680.68836636566</ele>
        <time>2021-01-27T09:09:45Z</time>
      </trkpt>
      <trkpt lat="43.81477" lon="7.44921">
        <ele>680.68826183542</ele>
        <time>2021-01-27T09:09:47Z</time>
      </trkpt>
      <trkpt lat="43.81478" lon="7.4492">
        <ele>679.68822477264</ele>
        <time>2021-01-27T09:09:48Z</time>
      </trkpt>
      <trkpt lat="43.81479" lon="7.44921">
        <ele>679.68817164504</ele>
        <time>2021-01-27T09:09:49Z</time>
      </trkpt>
      <trkpt lat="43.8148" lon="7.44921">
        <ele>680.68812064462</ele>
        <time>2021-01-27T09:09:50Z</time>
      </trkpt>
      <trkpt lat="43.81481" lon="7.44921">
        <ele>680.68809000028</ele>
        <time>2021-01-27T09:09:51Z</time>
      </trkpt>
      <trkpt lat="43.81482" lon="7.44922">
        <ele>680.68805528068</ele>
        <time>2021-01-27T09:09:52Z</time>
      </trkpt>
      <trkpt lat="43.81483" lon="7.44922">
        <ele>681.68802203335</ele>
        <time>2021-01-27T09:09:53Z</time>
      </trkpt>
      <trkpt lat="43.81484" lon="7.44923">
        <ele>681.68798401948</ele>
        <time>2021-01-27T09:09:54Z</time>
      </trkpt>
      <trkpt lat="43.81486" lon="7.44923">
        <ele>681.68789037844</ele>
        <time>2021-01-27T09:09:56Z</time>
      </trkpt>
      <trkpt lat="43.81487" lon="7.44921">
        <ele>681.68779262836</ele>
        <time>2021-01-27T09:09:58Z</time>
      </trkpt>
      <trkpt lat="43.81488" lon="7.44922">
        <ele>681.68776777277</ele>
        <time>2021-01-27T09:09:59Z</time>
      </trkpt>
      <trkpt lat="43.81489" lon="7.44922">
        <ele>681.68772386336</ele>
        <time>2021-01-27T09:10:00Z</time>
      </trkpt>
      <trkpt lat="43.8149" lon="7.44921">
        <ele>681.6876798531</ele>
        <time>2021-01-27T09:10:01Z</time>
      </trkpt>
      <trkpt lat="43.8149" lon="7.44921">
        <ele>681.68764741021</ele>
        <time>2021-01-27T09:10:02Z</time>
      </trkpt>
      <trkpt lat="43.81491" lon="7.4492">
        <ele>681.68761458882</ele>
        <time>2021-01-27T09:10:03Z</time>
      </trkpt>
      <trkpt lat="43.81492" lon="7.44919">
        <ele>681.68756573354</ele>
        <time>2021-01-27T09:10:04Z</time>
      </trkpt>
      <trkpt lat="43.81492" lon="7.44918">
        <ele>681.68752572158</ele>
        <time>2021-01-27T09:10:05Z</time>
      </trkpt>
      <trkpt lat="43.81493" lon="7.44918">
        <ele>681.68750578522</ele>
        <time>2021-01-27T09:10:07Z</time>
      </trkpt>
      <trkpt lat="43.81493" lon="7.44918">
        <ele>680.68747212171</ele>
        <time>2021-01-27T09:10:08Z</time>
      </trkpt>
      <trkpt lat="43.81494" lon="7.44918">
        <ele>680.68744289514</ele>
        <time>2021-01-27T09:10:09Z</time>
      </trkpt>
      <trkpt lat="43.81496" lon="7.44918">
        <ele>681.68735017522</ele>
        <time>2021-01-27T09:10:11Z</time>
      </trkpt>
      <trkpt lat="43.81497" lon="7.44918">
        <ele>681.68728171184</ele>
        <time>2021-01-27T09:10:13Z</time>
      </trkpt>
      <trkpt lat="43.81498" lon="7.44918">
        <ele>681.68724176277</ele>
        <time>2021-01-27T09:10:14Z</time>
      </trkpt>
      <trkpt lat="43.81499" lon="7.44918">
        <ele>682.68721506194</ele>
        <time>2021-01-27T09:10:15Z</time>
      </trkpt>
      <trkpt lat="43.815" lon="7.44918">
        <ele>683.68715647501</ele>
        <time>2021-01-27T09:10:17Z</time>
      </trkpt>
      <trkpt lat="43.81501" lon="7.44919">
        <ele>684.68712461271</ele>
        <time>2021-01-27T09:10:19Z</time>
      </trkpt>
      <trkpt lat="43.81502" lon="7.44917">
        <ele>683.68702718443</ele>
        <time>2021-01-27T09:10:21Z</time>
      </trkpt>
      <trkpt lat="43.81504" lon="7.44917">
        <ele>684.6869466499</ele>
        <time>2021-01-27T09:10:23Z</time>
      </trkpt>
      <trkpt lat="43.81505" lon="7.44916">
        <ele>684.68690265733</ele>
        <time>2021-01-27T09:10:24Z</time>
      </trkpt>
      <trkpt lat="43.81505" lon="7.44916">
        <ele>685.68686724001</ele>
        <time>2021-01-27T09:10:25Z</time>
      </trkpt>
      <trkpt lat="43.81506" lon="7.44914">
        <ele>684.68682414333</ele>
        <time>2021-01-27T09:10:27Z</time>
      </trkpt>
      <trkpt lat="43.81506" lon="7.44914">
        <ele>684.68682414333</ele>
        <time>2021-01-27T09:10:29Z</time>
      </trkpt>
      <trkpt lat="43.81507" lon="7.44914">
        <ele>685.6867611995</ele>
        <time>2021-01-27T09:10:30Z</time>
      </trkpt>
      <trkpt lat="43.81508" lon="7.44914">
        <ele>685.68672609945</ele>
        <time>2021-01-27T09:10:31Z</time>
      </trkpt>
      <trkpt lat="43.81508" lon="7.44913">
        <ele>685.68669406745</ele>
        <time>2021-01-27T09:10:32Z</time>
      </trkpt>
      <trkpt lat="43.81509" lon="7.44912">
        <ele>685.68665119964</ele>
        <time>2021-01-27T09:10:34Z</time>
      </trkpt>
      <trkpt lat="43.81511" lon="7.44912">
        <ele>685.68655685973</ele>
        <time>2021-01-27T09:10:36Z</time>
      </trkpt>
      <trkpt lat="43.81512" lon="7.44913">
        <ele>685.68651124859</ele>
        <time>2021-01-27T09:10:37Z</time>
      </trkpt>
      <trkpt lat="43.81513" lon="7.44913">
        <ele>685.6864582485</ele>
        <time>2021-01-27T09:10:38Z</time>
      </trkpt>
      <trkpt lat="43.81514" lon="7.44913">
        <ele>685.68640982214</ele>
        <time>2021-01-27T09:10:39Z</time>
      </trkpt>
      <trkpt lat="43.81514" lon="7.44913">
        <ele>685.68641317082</ele>
        <time>2021-01-27T09:10:40Z</time>
      </trkpt>
      <trkpt lat="43.81517" lon="7.44912">
        <ele>686.68628485935</ele>
        <time>2021-01-27T09:10:43Z</time>
      </trkpt>
      <trkpt lat="43.81517" lon="7.44912">
        <ele>686.68625884041</ele>
        <time>2021-01-27T09:10:44Z</time>
      </trkpt>
      <trkpt lat="43.8152" lon="7.44913">
        <ele>685.68615219301</ele>
        <time>2021-01-27T09:10:46Z</time>
      </trkpt>
      <trkpt lat="43.81522" lon="7.44912">
        <ele>685.68604936603</ele>
        <time>2021-01-27T09:10:48Z</time>
      </trkpt>
      <trkpt lat="43.81522" lon="7.44912">
        <ele>685.68601458976</ele>
        <time>2021-01-27T09:10:49Z</time>
      </trkpt>
      <trkpt lat="43.81523" lon="7.44913">
        <ele>685.68599012706</ele>
        <time>2021-01-27T09:10:50Z</time>
      </trkpt>
      <trkpt lat="43.81523" lon="7.44914">
        <ele>685.68599511853</ele>
        <time>2021-01-27T09:10:52Z</time>
      </trkpt>
      <trkpt lat="43.81524" lon="7.44915">
        <ele>686.68595225881</ele>
        <time>2021-01-27T09:10:53Z</time>
      </trkpt>
      <trkpt lat="43.81525" lon="7.44915">
        <ele>687.68592361684</ele>
        <time>2021-01-27T09:10:54Z</time>
      </trkpt>
      <trkpt lat="43.81526" lon="7.44915">
        <ele>687.68588060271</ele>
        <time>2021-01-27T09:10:56Z</time>
      </trkpt>
      <trkpt lat="43.81527" lon="7.44915">
        <ele>687.6858156122</ele>
        <time>2021-01-27T09:10:58Z</time>
      </trkpt>
      <trkpt lat="43.81528" lon="7.44915">
        <ele>688.6857704917</ele>
        <time>2021-01-27T09:10:59Z</time>
      </trkpt>
      <trkpt lat="43.81528" lon="7.44915">
        <ele>688.68574249187</ele>
        <time>2021-01-27T09:11:00Z</time>
      </trkpt>
      <trkpt lat="43.8153" lon="7.44912">
        <ele>688.68565270388</ele>
        <time>2021-01-27T09:11:02Z</time>
      </trkpt>
      <trkpt lat="43.81531" lon="7.44913">
        <ele>688.68561585641</ele>
        <time>2021-01-27T09:11:03Z</time>
      </trkpt>
      <trkpt lat="43.81532" lon="7.44913">
        <ele>689.68557680417</ele>
        <time>2021-01-27T09:11:04Z</time>
      </trkpt>
      <trkpt lat="43.81532" lon="7.44913">
        <ele>689.68554225156</ele>
        <time>2021-01-27T09:11:05Z</time>
      </trkpt>
      <trkpt lat="43.81533" lon="7.44913">
        <ele>689.68548563088</ele>
        <time>2021-01-27T09:11:06Z</time>
      </trkpt>
      <trkpt lat="43.81535" lon="7.44913">
        <ele>689.68541576348</ele>
        <time>2021-01-27T09:11:07Z</time>
      </trkpt>
      <trkpt lat="43.81536" lon="7.44913">
        <ele>690.6853668904</ele>
        <time>2021-01-27T09:11:08Z</time>
      </trkpt>
      <trkpt lat="43.81537" lon="7.44913">
        <ele>690.68532426996</ele>
        <time>2021-01-27T09:11:09Z</time>
      </trkpt>
      <trkpt lat="43.81538" lon="7.44911">
        <ele>690.68522684924</ele>
        <time>2021-01-27T09:11:11Z</time>
      </trkpt>
      <trkpt lat="43.81539" lon="7.4491">
        <ele>691.68519271069</ele>
        <time>2021-01-27T09:11:13Z</time>
      </trkpt>
      <trkpt lat="43.8154" lon="7.44909">
        <ele>690.68511973396</ele>
        <time>2021-01-27T09:11:14Z</time>
      </trkpt>
      <trkpt lat="43.81542" lon="7.44909">
        <ele>689.68502654948</ele>
        <time>2021-01-27T09:11:15Z</time>
      </trkpt>
      <trkpt lat="43.81544" lon="7.44909">
        <ele>690.68494350505</ele>
        <time>2021-01-27T09:11:16Z</time>
      </trkpt>
      <trkpt lat="43.81545" lon="7.44909">
        <ele>689.68487634654</ele>
        <time>2021-01-27T09:11:17Z</time>
      </trkpt>
      <trkpt lat="43.81546" lon="7.44909">
        <ele>689.68481335608</ele>
        <time>2021-01-27T09:11:18Z</time>
      </trkpt>
      <trkpt lat="43.81548" lon="7.44909">
        <ele>689.68476328866</ele>
        <time>2021-01-27T09:11:19Z</time>
      </trkpt>
      <trkpt lat="43.81549" lon="7.44908">
        <ele>689.68469388384</ele>
        <time>2021-01-27T09:11:20Z</time>
      </trkpt>
      <trkpt lat="43.8155" lon="7.44909">
        <ele>689.68463225571</ele>
        <time>2021-01-27T09:11:21Z</time>
      </trkpt>
      <trkpt lat="43.81551" lon="7.44908">
        <ele>689.68457485967</ele>
        <time>2021-01-27T09:11:22Z</time>
      </trkpt>
      <trkpt lat="43.81552" lon="7.44909">
        <ele>689.68454036824</ele>
        <time>2021-01-27T09:11:23Z</time>
      </trkpt>
      <trkpt lat="43.81553" lon="7.44909">
        <ele>690.68450352431</ele>
        <time>2021-01-27T09:11:24Z</time>
      </trkpt>
      <trkpt lat="43.81554" lon="7.44909">
        <ele>690.68445481957</ele>
        <time>2021-01-27T09:11:25Z</time>
      </trkpt>
      <trkpt lat="43.81555" lon="7.44909">
        <ele>690.6844035431</ele>
        <time>2021-01-27T09:11:26Z</time>
      </trkpt>
      <trkpt lat="43.81558" lon="7.44911">
        <ele>690.6842771962</ele>
        <time>2021-01-27T09:11:28Z</time>
      </trkpt>
      <trkpt lat="43.8156" lon="7.44911">
        <ele>690.68420222844</ele>
        <time>2021-01-27T09:11:29Z</time>
      </trkpt>
      <trkpt lat="43.81561" lon="7.44911">
        <ele>690.68412482438</ele>
        <time>2021-01-27T09:11:30Z</time>
      </trkpt>
      <trkpt lat="43.81563" lon="7.44912">
        <ele>691.68404163472</ele>
        <time>2021-01-27T09:11:31Z</time>
      </trkpt>
      <trkpt lat="43.81566" lon="7.44912">
        <ele>691.683915382</ele>
        <time>2021-01-27T09:11:33Z</time>
      </trkpt>
      <trkpt lat="43.81567" lon="7.44912">
        <ele>691.68387579142</ele>
        <time>2021-01-27T09:11:34Z</time>
      </trkpt>
      <trkpt lat="43.81568" lon="7.44913">
        <ele>692.68383625545</ele>
        <time>2021-01-27T09:11:35Z</time>
      </trkpt>
      <trkpt lat="43.8157" lon="7.44914">
        <ele>692.68372098039</ele>
        <time>2021-01-27T09:11:37Z</time>
      </trkpt>
      <trkpt lat="43.81572" lon="7.44914">
        <ele>692.68366346993</ele>
        <time>2021-01-27T09:11:38Z</time>
      </trkpt>
      <trkpt lat="43.81572" lon="7.44915">
        <ele>691.68362525668</ele>
        <time>2021-01-27T09:11:39Z</time>
      </trkpt>
      <trkpt lat="43.81574" lon="7.44914">
        <ele>691.68355075012</ele>
        <time>2021-01-27T09:11:41Z</time>
      </trkpt>
      <trkpt lat="43.81575" lon="7.44912">
        <ele>691.68347124314</ele>
        <time>2021-01-27T09:11:43Z</time>
      </trkpt>
      <trkpt lat="43.81576" lon="7.44911">
        <ele>691.68340479756</ele>
        <time>2021-01-27T09:11:44Z</time>
      </trkpt>
      <trkpt lat="43.81578" lon="7.4491">
        <ele>691.68332744193</ele>
        <time>2021-01-27T09:11:45Z</time>
      </trkpt>
      <trkpt lat="43.8158" lon="7.44909">
        <ele>692.68318699954</ele>
        <time>2021-01-27T09:11:47Z</time>
      </trkpt>
      <trkpt lat="43.81582" lon="7.44909">
        <ele>692.68311523173</ele>
        <time>2021-01-27T09:11:48Z</time>
      </trkpt>
      <trkpt lat="43.81583" lon="7.44909">
        <ele>691.68303790044</ele>
        <time>2021-01-27T09:11:49Z</time>
      </trkpt>
      <trkpt lat="43.81587" lon="7.44909">
        <ele>692.68287747363</ele>
        <time>2021-01-27T09:11:51Z</time>
      </trkpt>
      <trkpt lat="43.81588" lon="7.44908">
        <ele>692.68281969826</ele>
        <time>2021-01-27T09:11:52Z</time>
      </trkpt>
      <trkpt lat="43.81589" lon="7.44908">
        <ele>692.68277309598</ele>
        <time>2021-01-27T09:11:53Z</time>
      </trkpt>
      <trkpt lat="43.8159" lon="7.44908">
        <ele>692.68271625626</ele>
        <time>2021-01-27T09:11:54Z</time>
      </trkpt>
      <trkpt lat="43.81591" lon="7.44908">
        <ele>692.68266655231</ele>
        <time>2021-01-27T09:11:55Z</time>
      </trkpt>
      <trkpt lat="43.81592" lon="7.44908">
        <ele>692.68258707196</ele>
        <time>2021-01-27T09:11:57Z</time>
      </trkpt>
      <trkpt lat="43.81594" lon="7.44908">
        <ele>692.68253253096</ele>
        <time>2021-01-27T09:11:58Z</time>
      </trkpt>
      <trkpt lat="43.81596" lon="7.44908">
        <ele>693.6824437846</ele>
        <time>2021-01-27T09:11:59Z</time>
      </trkpt>
      <trkpt lat="43.81597" lon="7.44908">
        <ele>693.6823846092</ele>
        <time>2021-01-27T09:12:00Z</time>
      </trkpt>
      <trkpt lat="43.81598" lon="7.44908">
        <ele>692.68231127958</ele>
        <time>2021-01-27T09:12:01Z</time>
      </trkpt>
      <trkpt lat="43.81599" lon="7.44908">
        <ele>692.68226021455</ele>
        <time>2021-01-27T09:12:02Z</time>
      </trkpt>
      <trkpt lat="43.816" lon="7.44909">
        <ele>692.68224027889</ele>
        <time>2021-01-27T09:12:03Z</time>
      </trkpt>
      <trkpt lat="43.81601" lon="7.4491">
        <ele>691.68220462183</ele>
        <time>2021-01-27T09:12:04Z</time>
      </trkpt>
      <trkpt lat="43.81603" lon="7.44912">
        <ele>692.68213369943</ele>
        <time>2021-01-27T09:12:06Z</time>
      </trkpt>
      <trkpt lat="43.81603" lon="7.44912">
        <ele>692.68211381222</ele>
        <time>2021-01-27T09:12:08Z</time>
      </trkpt>
      <trkpt lat="43.81604" lon="7.44912">
        <ele>691.68207894806</ele>
        <time>2021-01-27T09:12:09Z</time>
      </trkpt>
      <trkpt lat="43.81605" lon="7.44912">
        <ele>692.68200654718</ele>
        <time>2021-01-27T09:12:10Z</time>
      </trkpt>
      <trkpt lat="43.81607" lon="7.44911">
        <ele>692.68190376093</ele>
        <time>2021-01-27T09:12:11Z</time>
      </trkpt>
      <trkpt lat="43.81609" lon="7.4491">
        <ele>692.68181102833</ele>
        <time>2021-01-27T09:12:12Z</time>
      </trkpt>
      <trkpt lat="43.81611" lon="7.44909">
        <ele>693.68171233268</ele>
        <time>2021-01-27T09:12:13Z</time>
      </trkpt>
      <trkpt lat="43.81613" lon="7.44908">
        <ele>694.68161587801</ele>
        <time>2021-01-27T09:12:14Z</time>
      </trkpt>
      <trkpt lat="43.81614" lon="7.44907">
        <ele>694.6815501698</ele>
        <time>2021-01-27T09:12:15Z</time>
      </trkpt>
      <trkpt lat="43.81615" lon="7.44907">
        <ele>695.68150645003</ele>
        <time>2021-01-27T09:12:16Z</time>
      </trkpt>
      <trkpt lat="43.81615" lon="7.44907">
        <ele>695.68148443925</ele>
        <time>2021-01-27T09:12:17Z</time>
      </trkpt>
      <trkpt lat="43.81616" lon="7.44907">
        <ele>695.6814309819</ele>
        <time>2021-01-27T09:12:18Z</time>
      </trkpt>
      <trkpt lat="43.81617" lon="7.44907">
        <ele>695.68139109276</ele>
        <time>2021-01-27T09:12:19Z</time>
      </trkpt>
      <trkpt lat="43.81618" lon="7.44906">
        <ele>695.68135453843</ele>
        <time>2021-01-27T09:12:20Z</time>
      </trkpt>
      <trkpt lat="43.8162" lon="7.44905">
        <ele>695.68122773037</ele>
        <time>2021-01-27T09:12:22Z</time>
      </trkpt>
      <trkpt lat="43.81622" lon="7.44905">
        <ele>695.68114160143</ele>
        <time>2021-01-27T09:12:23Z</time>
      </trkpt>
      <trkpt lat="43.81624" lon="7.44904">
        <ele>694.68101702846</ele>
        <time>2021-01-27T09:12:24Z</time>
      </trkpt>
      <trkpt lat="43.81626" lon="7.44904">
        <ele>694.68092056855</ele>
        <time>2021-01-27T09:12:25Z</time>
      </trkpt>
      <trkpt lat="43.8163" lon="7.44901">
        <ele>695.68069034417</ele>
        <time>2021-01-27T09:12:27Z</time>
      </trkpt>
      <trkpt lat="43.81632" lon="7.449">
        <ele>695.68059873103</ele>
        <time>2021-01-27T09:12:28Z</time>
      </trkpt>
      <trkpt lat="43.81633" lon="7.44899">
        <ele>694.68054987503</ele>
        <time>2021-01-27T09:12:29Z</time>
      </trkpt>
      <trkpt lat="43.81634" lon="7.44896">
        <ele>693.68045332095</ele>
        <time>2021-01-27T09:12:31Z</time>
      </trkpt>
      <trkpt lat="43.81635" lon="7.44895">
        <ele>693.68040502095</ele>
        <time>2021-01-27T09:12:32Z</time>
      </trkpt>
      <trkpt lat="43.81636" lon="7.44894">
        <ele>693.68034338116</ele>
        <time>2021-01-27T09:12:33Z</time>
      </trkpt>
      <trkpt lat="43.81637" lon="7.44893">
        <ele>692.6802907685</ele>
        <time>2021-01-27T09:12:34Z</time>
      </trkpt>
      <trkpt lat="43.81639" lon="7.44891">
        <ele>693.68019994637</ele>
        <time>2021-01-27T09:12:36Z</time>
      </trkpt>
      <trkpt lat="43.8164" lon="7.44892">
        <ele>693.68013508468</ele>
        <time>2021-01-27T09:12:37Z</time>
      </trkpt>
      <trkpt lat="43.81641" lon="7.44891">
        <ele>694.68009163097</ele>
        <time>2021-01-27T09:12:38Z</time>
      </trkpt>
      <trkpt lat="43.81642" lon="7.44891">
        <ele>694.68004753437</ele>
        <time>2021-01-27T09:12:39Z</time>
      </trkpt>
      <trkpt lat="43.81643" lon="7.44892">
        <ele>694.67999775045</ele>
        <time>2021-01-27T09:12:40Z</time>
      </trkpt>
      <trkpt lat="43.81644" lon="7.44893">
        <ele>694.6799475148</ele>
        <time>2021-01-27T09:12:41Z</time>
      </trkpt>
      <trkpt lat="43.81645" lon="7.44895">
        <ele>694.6799272967</ele>
        <time>2021-01-27T09:12:43Z</time>
      </trkpt>
      <trkpt lat="43.81645" lon="7.44896">
        <ele>694.67992227018</ele>
        <time>2021-01-27T09:12:44Z</time>
      </trkpt>
      <trkpt lat="43.81646" lon="7.44897">
        <ele>695.67989739229</ele>
        <time>2021-01-27T09:12:45Z</time>
      </trkpt>
      <trkpt lat="43.81647" lon="7.44898">
        <ele>695.67988496468</ele>
        <time>2021-01-27T09:12:46Z</time>
      </trkpt>
      <trkpt lat="43.81647" lon="7.449">
        <ele>694.67988010249</ele>
        <time>2021-01-27T09:12:47Z</time>
      </trkpt>
      <trkpt lat="43.81647" lon="7.44902">
        <ele>694.6798805421</ele>
        <time>2021-01-27T09:12:48Z</time>
      </trkpt>
      <trkpt lat="43.81648" lon="7.44903">
        <ele>694.67987457212</ele>
        <time>2021-01-27T09:12:49Z</time>
      </trkpt>
      <trkpt lat="43.81648" lon="7.44904">
        <ele>694.6798870156</ele>
        <time>2021-01-27T09:12:50Z</time>
      </trkpt>
      <trkpt lat="43.81647" lon="7.44907">
        <ele>693.67995125758</ele>
        <time>2021-01-27T09:12:52Z</time>
      </trkpt>
      <trkpt lat="43.81646" lon="7.44908">
        <ele>693.67999776845</ele>
        <time>2021-01-27T09:12:53Z</time>
      </trkpt>
      <trkpt lat="43.81646" lon="7.44909">
        <ele>692.68004305601</ele>
        <time>2021-01-27T09:12:54Z</time>
      </trkpt>
      <trkpt lat="43.81645" lon="7.44911">
        <ele>692.68008362607</ele>
        <time>2021-01-27T09:12:55Z</time>
      </trkpt>
      <trkpt lat="43.81645" lon="7.44912">
        <ele>693.68011984283</ele>
        <time>2021-01-27T09:12:56Z</time>
      </trkpt>
      <trkpt lat="43.81645" lon="7.44914">
        <ele>693.68014301469</ele>
        <time>2021-01-27T09:12:57Z</time>
      </trkpt>
      <trkpt lat="43.81644" lon="7.44915">
        <ele>693.6801820809</ele>
        <time>2021-01-27T09:12:58Z</time>
      </trkpt>
      <trkpt lat="43.81644" lon="7.44916">
        <ele>693.68019016308</ele>
        <time>2021-01-27T09:12:59Z</time>
      </trkpt>
      <trkpt lat="43.81644" lon="7.44918">
        <ele>693.68022974589</ele>
        <time>2021-01-27T09:13:00Z</time>
      </trkpt>
      <trkpt lat="43.81644" lon="7.44919">
        <ele>694.68025321965</ele>
        <time>2021-01-27T09:13:01Z</time>
      </trkpt>
      <trkpt lat="43.81643" lon="7.44921">
        <ele>694.68029225906</ele>
        <time>2021-01-27T09:13:02Z</time>
      </trkpt>
      <trkpt lat="43.81643" lon="7.44923">
        <ele>694.6803338524</ele>
        <time>2021-01-27T09:13:03Z</time>
      </trkpt>
      <trkpt lat="43.81642" lon="7.44925">
        <ele>694.68036608076</ele>
        <time>2021-01-27T09:13:04Z</time>
      </trkpt>
      <trkpt lat="43.81643" lon="7.44927">
        <ele>695.6803804404</ele>
        <time>2021-01-27T09:13:05Z</time>
      </trkpt>
      <trkpt lat="43.81643" lon="7.44928">
        <ele>695.68039080559</ele>
        <time>2021-01-27T09:13:06Z</time>
      </trkpt>
      <trkpt lat="43.81643" lon="7.44929">
        <ele>695.6803801169</ele>
        <time>2021-01-27T09:13:07Z</time>
      </trkpt>
      <trkpt lat="43.81644" lon="7.44931">
        <ele>695.68037264676</ele>
        <time>2021-01-27T09:13:08Z</time>
      </trkpt>
      <trkpt lat="43.81644" lon="7.44932">
        <ele>695.68037246093</ele>
        <time>2021-01-27T09:13:09Z</time>
      </trkpt>
      <trkpt lat="43.81645" lon="7.44933">
        <ele>696.68035628733</ele>
        <time>2021-01-27T09:13:10Z</time>
      </trkpt>
      <trkpt lat="43.81647" lon="7.44935">
        <ele>695.68027080201</ele>
        <time>2021-01-27T09:13:12Z</time>
      </trkpt>
      <trkpt lat="43.81648" lon="7.44935">
        <ele>696.68021819449</ele>
        <time>2021-01-27T09:13:13Z</time>
      </trkpt>
      <trkpt lat="43.81649" lon="7.44936">
        <ele>697.68017857525</ele>
        <time>2021-01-27T09:13:14Z</time>
      </trkpt>
      <trkpt lat="43.81651" lon="7.44937">
        <ele>697.68009683399</ele>
        <time>2021-01-27T09:13:16Z</time>
      </trkpt>
      <trkpt lat="43.81653" lon="7.44937">
        <ele>697.68001033096</ele>
        <time>2021-01-27T09:13:18Z</time>
      </trkpt>
      <trkpt lat="43.81653" lon="7.44937">
        <ele>697.67996840725</ele>
        <time>2021-01-27T09:13:19Z</time>
      </trkpt>
      <trkpt lat="43.81655" lon="7.44937">
        <ele>698.6799019616</ele>
        <time>2021-01-27T09:13:20Z</time>
      </trkpt>
      <trkpt lat="43.81657" lon="7.44937">
        <ele>697.67979216952</ele>
        <time>2021-01-27T09:13:22Z</time>
      </trkpt>
      <trkpt lat="43.81658" lon="7.44937">
        <ele>697.67973340046</ele>
        <time>2021-01-27T09:13:23Z</time>
      </trkpt>
      <trkpt lat="43.81659" lon="7.44937">
        <ele>697.67968699679</ele>
        <time>2021-01-27T09:13:24Z</time>
      </trkpt>
      <trkpt lat="43.8166" lon="7.44937">
        <ele>698.67965333655</ele>
        <time>2021-01-27T09:13:25Z</time>
      </trkpt>
      <trkpt lat="43.81661" lon="7.44937">
        <ele>699.67959903931</ele>
        <time>2021-01-27T09:13:26Z</time>
      </trkpt>
      <trkpt lat="43.81662" lon="7.44937">
        <ele>699.67953247065</ele>
        <time>2021-01-27T09:13:27Z</time>
      </trkpt>
      <trkpt lat="43.81663" lon="7.44937">
        <ele>700.67947976591</ele>
        <time>2021-01-27T09:13:28Z</time>
      </trkpt>
      <trkpt lat="43.81665" lon="7.44936">
        <ele>700.67941903998</ele>
        <time>2021-01-27T09:13:29Z</time>
      </trkpt>
      <trkpt lat="43.81666" lon="7.44936">
        <ele>700.67932487676</ele>
        <time>2021-01-27T09:13:31Z</time>
      </trkpt>
      <trkpt lat="43.81667" lon="7.44934">
        <ele>700.67929004864</ele>
        <time>2021-01-27T09:13:32Z</time>
      </trkpt>
      <trkpt lat="43.81668" lon="7.44933">
        <ele>700.6792492792</ele>
        <time>2021-01-27T09:13:33Z</time>
      </trkpt>
      <trkpt lat="43.81668" lon="7.44933">
        <ele>700.67921674313</ele>
        <time>2021-01-27T09:13:34Z</time>
      </trkpt>
      <trkpt lat="43.81669" lon="7.44932">
        <ele>700.67916836738</ele>
        <time>2021-01-27T09:13:35Z</time>
      </trkpt>
      <trkpt lat="43.8167" lon="7.44932">
        <ele>699.6791242806</ele>
        <time>2021-01-27T09:13:36Z</time>
      </trkpt>
      <trkpt lat="43.81671" lon="7.44931">
        <ele>699.67906439089</ele>
        <time>2021-01-27T09:13:38Z</time>
      </trkpt>
      <trkpt lat="43.81672" lon="7.44931">
        <ele>699.67900796172</ele>
        <time>2021-01-27T09:13:39Z</time>
      </trkpt>
      <trkpt lat="43.81673" lon="7.44931">
        <ele>699.67894619349</ele>
        <time>2021-01-27T09:13:40Z</time>
      </trkpt>
      <trkpt lat="43.81674" lon="7.44932">
        <ele>699.67889815655</ele>
        <time>2021-01-27T09:13:41Z</time>
      </trkpt>
      <trkpt lat="43.81675" lon="7.44932">
        <ele>699.67885695749</ele>
        <time>2021-01-27T09:13:42Z</time>
      </trkpt>
      <trkpt lat="43.81676" lon="7.44931">
        <ele>700.67880435825</ele>
        <time>2021-01-27T09:13:43Z</time>
      </trkpt>
      <trkpt lat="43.81678" lon="7.44932">
        <ele>700.67875347841</ele>
        <time>2021-01-27T09:13:44Z</time>
      </trkpt>
      <trkpt lat="43.8168" lon="7.44932">
        <ele>701.67862466513</ele>
        <time>2021-01-27T09:13:46Z</time>
      </trkpt>
      <trkpt lat="43.81682" lon="7.44932">
        <ele>700.67853651013</ele>
        <time>2021-01-27T09:13:48Z</time>
      </trkpt>
      <trkpt lat="43.81683" lon="7.44932">
        <ele>700.67850178597</ele>
        <time>2021-01-27T09:13:49Z</time>
      </trkpt>
      <trkpt lat="43.81684" lon="7.44932">
        <ele>700.67847002093</ele>
        <time>2021-01-27T09:13:50Z</time>
      </trkpt>
      <trkpt lat="43.81686" lon="7.44934">
        <ele>701.67839209402</ele>
        <time>2021-01-27T09:13:52Z</time>
      </trkpt>
      <trkpt lat="43.81686" lon="7.44935">
        <ele>701.67837546004</ele>
        <time>2021-01-27T09:13:53Z</time>
      </trkpt>
      <trkpt lat="43.81687" lon="7.44936">
        <ele>702.6783523268</ele>
        <time>2021-01-27T09:13:54Z</time>
      </trkpt>
      <trkpt lat="43.81688" lon="7.44938">
        <ele>701.67831641784</ele>
        <time>2021-01-27T09:13:56Z</time>
      </trkpt>
      <trkpt lat="43.81688" lon="7.4494">
        <ele>701.67833604278</ele>
        <time>2021-01-27T09:13:58Z</time>
      </trkpt>
      <trkpt lat="43.81687" lon="7.44941">
        <ele>701.67838261365</ele>
        <time>2021-01-27T09:13:59Z</time>
      </trkpt>
      <trkpt lat="43.81687" lon="7.44943">
        <ele>700.67842229802</ele>
        <time>2021-01-27T09:14:00Z</time>
      </trkpt>
      <trkpt lat="43.81687" lon="7.44944">
        <ele>701.67843796644</ele>
        <time>2021-01-27T09:14:01Z</time>
      </trkpt>
      <trkpt lat="43.81685" lon="7.44947">
        <ele>700.6785496524</ele>
        <time>2021-01-27T09:14:03Z</time>
      </trkpt>
      <trkpt lat="43.81684" lon="7.44949">
        <ele>700.67860224043</ele>
        <time>2021-01-27T09:14:04Z</time>
      </trkpt>
      <trkpt lat="43.81684" lon="7.4495">
        <ele>700.67862325601</ele>
        <time>2021-01-27T09:14:05Z</time>
      </trkpt>
      <trkpt lat="43.81686" lon="7.44952">
        <ele>699.67858443795</ele>
        <time>2021-01-27T09:14:07Z</time>
      </trkpt>
      <trkpt lat="43.81686" lon="7.44953">
        <ele>700.67857001439</ele>
        <time>2021-01-27T09:14:08Z</time>
      </trkpt>
      <trkpt lat="43.81687" lon="7.44954">
        <ele>700.6785557687</ele>
        <time>2021-01-27T09:14:09Z</time>
      </trkpt>
      <trkpt lat="43.81688" lon="7.44955">
        <ele>700.67852173805</ele>
        <time>2021-01-27T09:14:10Z</time>
      </trkpt>
      <trkpt lat="43.81688" lon="7.44957">
        <ele>701.67851323372</ele>
        <time>2021-01-27T09:14:11Z</time>
      </trkpt>
      <trkpt lat="43.81689" lon="7.44958">
        <ele>700.67849022724</ele>
        <time>2021-01-27T09:14:12Z</time>
      </trkpt>
      <trkpt lat="43.81689" lon="7.44959">
        <ele>700.67848005264</ele>
        <time>2021-01-27T09:14:13Z</time>
      </trkpt>
      <trkpt lat="43.8169" lon="7.44959">
        <ele>700.67845350941</ele>
        <time>2021-01-27T09:14:14Z</time>
      </trkpt>
      <trkpt lat="43.8169" lon="7.44959">
        <ele>700.6784324088</ele>
        <time>2021-01-27T09:14:17Z</time>
      </trkpt>
      <trkpt lat="43.81692" lon="7.4496">
        <ele>701.67834542588</ele>
        <time>2021-01-27T09:14:18Z</time>
      </trkpt>
      <trkpt lat="43.81693" lon="7.4496">
        <ele>701.67831209806</ele>
        <time>2021-01-27T09:14:19Z</time>
      </trkpt>
      <trkpt lat="43.81694" lon="7.44961">
        <ele>701.67827282383</ele>
        <time>2021-01-27T09:14:20Z</time>
      </trkpt>
      <trkpt lat="43.81695" lon="7.44962">
        <ele>702.67823059928</ele>
        <time>2021-01-27T09:14:21Z</time>
      </trkpt>
      <trkpt lat="43.81696" lon="7.44964">
        <ele>702.67821484115</ele>
        <time>2021-01-27T09:14:22Z</time>
      </trkpt>
      <trkpt lat="43.81696" lon="7.44964">
        <ele>703.6781928018</ele>
        <time>2021-01-27T09:14:23Z</time>
      </trkpt>
      <trkpt lat="43.81697" lon="7.44965">
        <ele>703.67814174291</ele>
        <time>2021-01-27T09:14:24Z</time>
      </trkpt>
      <trkpt lat="43.81698" lon="7.44965">
        <ele>702.67812216697</ele>
        <time>2021-01-27T09:14:25Z</time>
      </trkpt>
      <trkpt lat="43.81699" lon="7.44966">
        <ele>703.67808031174</ele>
        <time>2021-01-27T09:14:26Z</time>
      </trkpt>
      <trkpt lat="43.817" lon="7.44967">
        <ele>702.67806785279</ele>
        <time>2021-01-27T09:14:27Z</time>
      </trkpt>
      <trkpt lat="43.81701" lon="7.44968">
        <ele>703.67802829018</ele>
        <time>2021-01-27T09:14:28Z</time>
      </trkpt>
      <trkpt lat="43.81702" lon="7.44969">
        <ele>703.67797834608</ele>
        <time>2021-01-27T09:14:29Z</time>
      </trkpt>
      <trkpt lat="43.81703" lon="7.4497">
        <ele>703.67794131112</ele>
        <time>2021-01-27T09:14:30Z</time>
      </trkpt>
      <trkpt lat="43.81704" lon="7.44971">
        <ele>703.67788902506</ele>
        <time>2021-01-27T09:14:31Z</time>
      </trkpt>
      <trkpt lat="43.81705" lon="7.44971">
        <ele>702.6778622198</ele>
        <time>2021-01-27T09:14:32Z</time>
      </trkpt>
      <trkpt lat="43.81706" lon="7.44972">
        <ele>702.67782345327</ele>
        <time>2021-01-27T09:14:33Z</time>
      </trkpt>
      <trkpt lat="43.81707" lon="7.44972">
        <ele>703.67776338381</ele>
        <time>2021-01-27T09:14:34Z</time>
      </trkpt>
      <trkpt lat="43.81708" lon="7.44973">
        <ele>703.67770724047</ele>
        <time>2021-01-27T09:14:35Z</time>
      </trkpt>
      <trkpt lat="43.81709" lon="7.44973">
        <ele>703.67766487666</ele>
        <time>2021-01-27T09:14:36Z</time>
      </trkpt>
      <trkpt lat="43.8171" lon="7.44974">
        <ele>704.67762590693</ele>
        <time>2021-01-27T09:14:37Z</time>
      </trkpt>
      <trkpt lat="43.81711" lon="7.44974">
        <ele>704.67759025182</ele>
        <time>2021-01-27T09:14:38Z</time>
      </trkpt>
      <trkpt lat="43.81712" lon="7.44975">
        <ele>704.67755551572</ele>
        <time>2021-01-27T09:14:39Z</time>
      </trkpt>
      <trkpt lat="43.81713" lon="7.44976">
        <ele>704.67751542478</ele>
        <time>2021-01-27T09:14:40Z</time>
      </trkpt>
      <trkpt lat="43.81715" lon="7.44976">
        <ele>705.67745050204</ele>
        <time>2021-01-27T09:14:41Z</time>
      </trkpt>
      <trkpt lat="43.81716" lon="7.44977">
        <ele>705.67739471404</ele>
        <time>2021-01-27T09:14:42Z</time>
      </trkpt>
      <trkpt lat="43.81716" lon="7.44978">
        <ele>704.67737099607</ele>
        <time>2021-01-27T09:14:43Z</time>
      </trkpt>
      <trkpt lat="43.81717" lon="7.44978">
        <ele>704.67735156542</ele>
        <time>2021-01-27T09:14:44Z</time>
      </trkpt>
      <trkpt lat="43.81718" lon="7.44979">
        <ele>704.67732745819</ele>
        <time>2021-01-27T09:14:45Z</time>
      </trkpt>
      <trkpt lat="43.81719" lon="7.4498">
        <ele>703.67726979439</ele>
        <time>2021-01-27T09:14:46Z</time>
      </trkpt>
      <trkpt lat="43.81721" lon="7.4498">
        <ele>703.67719564036</ele>
        <time>2021-01-27T09:14:47Z</time>
      </trkpt>
      <trkpt lat="43.81722" lon="7.44981">
        <ele>703.67715171009</ele>
        <time>2021-01-27T09:14:48Z</time>
      </trkpt>
      <trkpt lat="43.81723" lon="7.44981">
        <ele>703.67711876238</ele>
        <time>2021-01-27T09:14:49Z</time>
      </trkpt>
      <trkpt lat="43.81723" lon="7.44981">
        <ele>703.67708966111</ele>
        <time>2021-01-27T09:14:50Z</time>
      </trkpt>
      <trkpt lat="43.81724" lon="7.44981">
        <ele>703.67705037525</ele>
        <time>2021-01-27T09:14:51Z</time>
      </trkpt>
      <trkpt lat="43.81726" lon="7.44981">
        <ele>703.67694398099</ele>
        <time>2021-01-27T09:14:53Z</time>
      </trkpt>
      <trkpt lat="43.81727" lon="7.44981">
        <ele>703.67688337029</ele>
        <time>2021-01-27T09:14:54Z</time>
      </trkpt>
      <trkpt lat="43.81728" lon="7.44982">
        <ele>703.67683828781</ele>
        <time>2021-01-27T09:14:55Z</time>
      </trkpt>
      <trkpt lat="43.8173" lon="7.44983">
        <ele>704.67678376839</ele>
        <time>2021-01-27T09:14:56Z</time>
      </trkpt>
      <trkpt lat="43.81731" lon="7.44983">
        <ele>704.67674429093</ele>
        <time>2021-01-27T09:14:57Z</time>
      </trkpt>
      <trkpt lat="43.81731" lon="7.44984">
        <ele>704.67674278165</ele>
        <time>2021-01-27T09:14:58Z</time>
      </trkpt>
      <trkpt lat="43.81732" lon="7.44984">
        <ele>704.676702857</ele>
        <time>2021-01-27T09:14:59Z</time>
      </trkpt>
      <trkpt lat="43.81733" lon="7.44986">
        <ele>704.67665094231</ele>
        <time>2021-01-27T09:15:01Z</time>
      </trkpt>
      <trkpt lat="43.81735" lon="7.44987">
        <ele>704.67658815087</ele>
        <time>2021-01-27T09:15:03Z</time>
      </trkpt>
      <trkpt lat="43.81736" lon="7.44988">
        <ele>704.67652684523</ele>
        <time>2021-01-27T09:15:04Z</time>
      </trkpt>
      <trkpt lat="43.81737" lon="7.44989">
        <ele>705.67649474433</ele>
        <time>2021-01-27T09:15:05Z</time>
      </trkpt>
      <trkpt lat="43.81739" lon="7.4499">
        <ele>706.6764307822</ele>
        <time>2021-01-27T09:15:06Z</time>
      </trkpt>
      <trkpt lat="43.8174" lon="7.44991">
        <ele>706.67638927246</ele>
        <time>2021-01-27T09:15:07Z</time>
      </trkpt>
      <trkpt lat="43.81741" lon="7.44991">
        <ele>706.67634967679</ele>
        <time>2021-01-27T09:15:08Z</time>
      </trkpt>
      <trkpt lat="43.81741" lon="7.44991">
        <ele>706.67632217872</ele>
        <time>2021-01-27T09:15:09Z</time>
      </trkpt>
      <trkpt lat="43.81742" lon="7.44991">
        <ele>706.67627190361</ele>
        <time>2021-01-27T09:15:10Z</time>
      </trkpt>
      <trkpt lat="43.81744" lon="7.4499">
        <ele>705.67617857178</ele>
        <time>2021-01-27T09:15:12Z</time>
      </trkpt>
      <trkpt lat="43.81745" lon="7.4499">
        <ele>705.67614633598</ele>
        <time>2021-01-27T09:15:13Z</time>
      </trkpt>
      <trkpt lat="43.81745" lon="7.4499">
        <ele>706.67611827962</ele>
        <time>2021-01-27T09:15:15Z</time>
      </trkpt>
      <trkpt lat="43.81746" lon="7.44989">
        <ele>706.67607722754</ele>
        <time>2021-01-27T09:15:16Z</time>
      </trkpt>
      <trkpt lat="43.81747" lon="7.4499">
        <ele>706.67605371576</ele>
        <time>2021-01-27T09:15:26Z</time>
      </trkpt>
      <trkpt lat="43.81748" lon="7.44994">
        <ele>708.6760404691</ele>
        <time>2021-01-27T09:15:28Z</time>
      </trkpt>
      <trkpt lat="43.81748" lon="7.44994">
        <ele>709.67602127115</ele>
        <time>2021-01-27T09:15:29Z</time>
      </trkpt>
      <trkpt lat="43.81748" lon="7.44996">
        <ele>710.67603540823</ele>
        <time>2021-01-27T09:15:30Z</time>
      </trkpt>
      <trkpt lat="43.81749" lon="7.44998">
        <ele>711.67604195097</ele>
        <time>2021-01-27T09:15:32Z</time>
      </trkpt>
      <trkpt lat="43.81749" lon="7.44998">
        <ele>711.67604195097</ele>
        <time>2021-01-27T09:15:33Z</time>
      </trkpt>
      <trkpt lat="43.8175" lon="7.44999">
        <ele>711.67598011736</ele>
        <time>2021-01-27T09:15:34Z</time>
      </trkpt>
      <trkpt lat="43.81753" lon="7.45">
        <ele>711.67585283046</ele>
        <time>2021-01-27T09:15:36Z</time>
      </trkpt>
      <trkpt lat="43.81755" lon="7.45001">
        <ele>712.67578871432</ele>
        <time>2021-01-27T09:15:38Z</time>
      </trkpt>
      <trkpt lat="43.81756" lon="7.45001">
        <ele>713.67574370819</ele>
        <time>2021-01-27T09:15:39Z</time>
      </trkpt>
      <trkpt lat="43.81756" lon="7.45002">
        <ele>713.67572932048</ele>
        <time>2021-01-27T09:15:40Z</time>
      </trkpt>
      <trkpt lat="43.81757" lon="7.45003">
        <ele>714.67569248821</ele>
        <time>2021-01-27T09:15:41Z</time>
      </trkpt>
      <trkpt lat="43.81758" lon="7.45003">
        <ele>715.67564888318</ele>
        <time>2021-01-27T09:15:42Z</time>
      </trkpt>
      <trkpt lat="43.81759" lon="7.45003">
        <ele>715.67557927769</ele>
        <time>2021-01-27T09:15:43Z</time>
      </trkpt>
      <trkpt lat="43.81761" lon="7.45003">
        <ele>716.67551469292</ele>
        <time>2021-01-27T09:15:44Z</time>
      </trkpt>
      <trkpt lat="43.81761" lon="7.45003">
        <ele>716.67552324008</ele>
        <time>2021-01-27T09:15:45Z</time>
      </trkpt>
      <trkpt lat="43.81763" lon="7.45004">
        <ele>716.67542642801</ele>
        <time>2021-01-27T09:15:47Z</time>
      </trkpt>
      <trkpt lat="43.81764" lon="7.45004">
        <ele>717.67535698755</ele>
        <time>2021-01-27T09:15:48Z</time>
      </trkpt>
      <trkpt lat="43.81766" lon="7.45004">
        <ele>716.67530189192</ele>
        <time>2021-01-27T09:15:49Z</time>
      </trkpt>
      <trkpt lat="43.81766" lon="7.45004">
        <ele>716.67526356544</ele>
        <time>2021-01-27T09:15:50Z</time>
      </trkpt>
      <trkpt lat="43.81767" lon="7.45005">
        <ele>716.67522609987</ele>
        <time>2021-01-27T09:15:51Z</time>
      </trkpt>
      <trkpt lat="43.81768" lon="7.45005">
        <ele>716.67518362613</ele>
        <time>2021-01-27T09:15:52Z</time>
      </trkpt>
      <trkpt lat="43.81769" lon="7.45005">
        <ele>716.67514066534</ele>
        <time>2021-01-27T09:15:53Z</time>
      </trkpt>
      <trkpt lat="43.8177" lon="7.45005">
        <ele>717.67507846271</ele>
        <time>2021-01-27T09:15:54Z</time>
      </trkpt>
      <trkpt lat="43.81772" lon="7.45006">
        <ele>717.67501522211</ele>
        <time>2021-01-27T09:15:56Z</time>
      </trkpt>
      <trkpt lat="43.81774" lon="7.45006">
        <ele>718.67491322502</ele>
        <time>2021-01-27T09:15:58Z</time>
      </trkpt>
      <trkpt lat="43.81774" lon="7.45006">
        <ele>718.67491322502</ele>
        <time>2021-01-27T09:15:59Z</time>
      </trkpt>
      <trkpt lat="43.81776" lon="7.45006">
        <ele>718.67483145836</ele>
        <time>2021-01-27T09:16:00Z</time>
      </trkpt>
      <trkpt lat="43.81776" lon="7.45006">
        <ele>718.67480587816</ele>
        <time>2021-01-27T09:16:01Z</time>
      </trkpt>
      <trkpt lat="43.81777" lon="7.45007">
        <ele>718.67478059413</ele>
        <time>2021-01-27T09:16:02Z</time>
      </trkpt>
      <trkpt lat="43.81778" lon="7.45008">
        <ele>718.67475831289</ele>
        <time>2021-01-27T09:16:03Z</time>
      </trkpt>
      <trkpt lat="43.81778" lon="7.45009">
        <ele>719.67474968546</ele>
        <time>2021-01-27T09:16:05Z</time>
      </trkpt>
      <trkpt lat="43.8178" lon="7.45009">
        <ele>720.67463788631</ele>
        <time>2021-01-27T09:16:07Z</time>
      </trkpt>
      <trkpt lat="43.81781" lon="7.45009">
        <ele>720.67461092247</ele>
        <time>2021-01-27T09:16:08Z</time>
      </trkpt>
      <trkpt lat="43.81782" lon="7.45009">
        <ele>720.67457511066</ele>
        <time>2021-01-27T09:16:09Z</time>
      </trkpt>
      <trkpt lat="43.81783" lon="7.4501">
        <ele>719.6745225793</ele>
        <time>2021-01-27T09:16:11Z</time>
      </trkpt>
      <trkpt lat="43.81783" lon="7.4501">
        <ele>719.6745225793</ele>
        <time>2021-01-27T09:16:13Z</time>
      </trkpt>
      <trkpt lat="43.81785" lon="7.45011">
        <ele>720.67442590293</ele>
        <time>2021-01-27T09:16:14Z</time>
      </trkpt>
      <trkpt lat="43.81786" lon="7.45011">
        <ele>720.67438199353</ele>
        <time>2021-01-27T09:16:15Z</time>
      </trkpt>
      <trkpt lat="43.81788" lon="7.45011">
        <ele>721.67430329148</ele>
        <time>2021-01-27T09:16:17Z</time>
      </trkpt>
      <trkpt lat="43.81789" lon="7.45012">
        <ele>721.67427725509</ele>
        <time>2021-01-27T09:16:18Z</time>
      </trkpt>
      <trkpt lat="43.81789" lon="7.45012">
        <ele>721.67425048013</ele>
        <time>2021-01-27T09:16:19Z</time>
      </trkpt>
      <trkpt lat="43.81791" lon="7.45013">
        <ele>722.67416628038</ele>
        <time>2021-01-27T09:16:21Z</time>
      </trkpt>
      <trkpt lat="43.81793" lon="7.45014">
        <ele>723.67409657825</ele>
        <time>2021-01-27T09:16:23Z</time>
      </trkpt>
      <trkpt lat="43.81793" lon="7.45015">
        <ele>724.67408387588</ele>
        <time>2021-01-27T09:16:24Z</time>
      </trkpt>
      <trkpt lat="43.81794" lon="7.45016">
        <ele>723.67406939052</ele>
        <time>2021-01-27T09:16:25Z</time>
      </trkpt>
      <trkpt lat="43.81795" lon="7.45017">
        <ele>724.67400542881</ele>
        <time>2021-01-27T09:16:27Z</time>
      </trkpt>
      <trkpt lat="43.81796" lon="7.45017">
        <ele>724.67396415419</ele>
        <time>2021-01-27T09:16:28Z</time>
      </trkpt>
      <trkpt lat="43.81797" lon="7.45017">
        <ele>725.67391176604</ele>
        <time>2021-01-27T09:16:29Z</time>
      </trkpt>
      <trkpt lat="43.81798" lon="7.45018">
        <ele>726.67387904156</ele>
        <time>2021-01-27T09:16:30Z</time>
      </trkpt>
      <trkpt lat="43.81799" lon="7.45018">
        <ele>726.6738548739</ele>
        <time>2021-01-27T09:16:33Z</time>
      </trkpt>
      <trkpt lat="43.81801" lon="7.45017">
        <ele>727.67373479807</ele>
        <time>2021-01-27T09:16:36Z</time>
      </trkpt>
      <trkpt lat="43.81801" lon="7.45016">
        <ele>726.67371099216</ele>
        <time>2021-01-27T09:16:39Z</time>
      </trkpt>
      <trkpt lat="43.81803" lon="7.45016">
        <ele>728.67361898934</ele>
        <time>2021-01-27T09:16:40Z</time>
      </trkpt>
      <trkpt lat="43.81805" lon="7.45016">
        <ele>729.67352037905</ele>
        <time>2021-01-27T09:16:42Z</time>
      </trkpt>
      <trkpt lat="43.81806" lon="7.45016">
        <ele>729.67347834166</ele>
        <time>2021-01-27T09:16:43Z</time>
      </trkpt>
      <trkpt lat="43.81807" lon="7.45015">
        <ele>729.67343559199</ele>
        <time>2021-01-27T09:16:44Z</time>
      </trkpt>
      <trkpt lat="43.81808" lon="7.45016">
        <ele>729.67340286612</ele>
        <time>2021-01-27T09:16:45Z</time>
      </trkpt>
      <trkpt lat="43.81809" lon="7.45017">
        <ele>729.67336678032</ele>
        <time>2021-01-27T09:16:46Z</time>
      </trkpt>
      <trkpt lat="43.8181" lon="7.45017">
        <ele>729.67332949258</ele>
        <time>2021-01-27T09:16:47Z</time>
      </trkpt>
      <trkpt lat="43.8181" lon="7.45017">
        <ele>729.67330406672</ele>
        <time>2021-01-27T09:16:48Z</time>
      </trkpt>
      <trkpt lat="43.81811" lon="7.45017">
        <ele>729.67325197665</ele>
        <time>2021-01-27T09:16:49Z</time>
      </trkpt>
      <trkpt lat="43.81812" lon="7.45018">
        <ele>729.67321814325</ele>
        <time>2021-01-27T09:16:50Z</time>
      </trkpt>
      <trkpt lat="43.81814" lon="7.45018">
        <ele>729.67314762958</ele>
        <time>2021-01-27T09:16:52Z</time>
      </trkpt>
      <trkpt lat="43.81814" lon="7.45018">
        <ele>729.67314762958</ele>
        <time>2021-01-27T09:16:53Z</time>
      </trkpt>
      <trkpt lat="43.81815" lon="7.4502">
        <ele>731.6730934794</ele>
        <time>2021-01-27T09:16:54Z</time>
      </trkpt>
      <trkpt lat="43.81818" lon="7.45022">
        <ele>733.67295868945</ele>
        <time>2021-01-27T09:16:56Z</time>
      </trkpt>
      <trkpt lat="43.8182" lon="7.45022">
        <ele>733.6728937415</ele>
        <time>2021-01-27T09:16:58Z</time>
      </trkpt>
      <trkpt lat="43.8182" lon="7.45022">
        <ele>733.67286368292</ele>
        <time>2021-01-27T09:16:59Z</time>
      </trkpt>
      <trkpt lat="43.81821" lon="7.45022">
        <ele>732.67282390036</ele>
        <time>2021-01-27T09:17:00Z</time>
      </trkpt>
      <trkpt lat="43.81822" lon="7.45022">
        <ele>732.67278115554</ele>
        <time>2021-01-27T09:17:01Z</time>
      </trkpt>
      <trkpt lat="43.81824" lon="7.45022">
        <ele>732.67271071655</ele>
        <time>2021-01-27T09:17:03Z</time>
      </trkpt>
      <trkpt lat="43.81825" lon="7.45022">
        <ele>732.67266742299</ele>
        <time>2021-01-27T09:17:05Z</time>
      </trkpt>
      <trkpt lat="43.81826" lon="7.45023">
        <ele>732.67257777368</ele>
        <time>2021-01-27T09:17:07Z</time>
      </trkpt>
      <trkpt lat="43.81828" lon="7.45023">
        <ele>731.67252406194</ele>
        <time>2021-01-27T09:17:08Z</time>
      </trkpt>
      <trkpt lat="43.81829" lon="7.45023">
        <ele>732.67247196909</ele>
        <time>2021-01-27T09:17:09Z</time>
      </trkpt>
      <trkpt lat="43.81831" lon="7.45024">
        <ele>733.67236054268</ele>
        <time>2021-01-27T09:17:11Z</time>
      </trkpt>
      <trkpt lat="43.81833" lon="7.45023">
        <ele>734.67225839938</ele>
        <time>2021-01-27T09:17:13Z</time>
      </trkpt>
      <trkpt lat="43.81835" lon="7.45023">
        <ele>734.67218758904</ele>
        <time>2021-01-27T09:17:14Z</time>
      </trkpt>
      <trkpt lat="43.81836" lon="7.45022">
        <ele>734.67213656786</ele>
        <time>2021-01-27T09:17:15Z</time>
      </trkpt>
      <trkpt lat="43.81837" lon="7.45022">
        <ele>734.67208589721</ele>
        <time>2021-01-27T09:17:16Z</time>
      </trkpt>
      <trkpt lat="43.81838" lon="7.45022">
        <ele>735.67203555127</ele>
        <time>2021-01-27T09:17:17Z</time>
      </trkpt>
      <trkpt lat="43.81838" lon="7.45022">
        <ele>734.67201227143</ele>
        <time>2021-01-27T09:17:18Z</time>
      </trkpt>
      <trkpt lat="43.81839" lon="7.45021">
        <ele>735.6719866844</ele>
        <time>2021-01-27T09:17:19Z</time>
      </trkpt>
      <trkpt lat="43.8184" lon="7.4502">
        <ele>734.67190783044</ele>
        <time>2021-01-27T09:17:21Z</time>
      </trkpt>
      <trkpt lat="43.81841" lon="7.4502">
        <ele>734.67187746715</ele>
        <time>2021-01-27T09:17:22Z</time>
      </trkpt>
      <trkpt lat="43.81841" lon="7.4502">
        <ele>734.67184928922</ele>
        <time>2021-01-27T09:17:23Z</time>
      </trkpt>
      <trkpt lat="43.81841" lon="7.4502">
        <ele>734.67182617984</ele>
        <time>2021-01-27T09:17:24Z</time>
      </trkpt>
      <trkpt lat="43.81842" lon="7.4502">
        <ele>734.6717871926</ele>
        <time>2021-01-27T09:17:26Z</time>
      </trkpt>
      <trkpt lat="43.81844" lon="7.45019">
        <ele>735.67171048009</ele>
        <time>2021-01-27T09:17:28Z</time>
      </trkpt>
      <trkpt lat="43.81844" lon="7.45019">
        <ele>735.67167684942</ele>
        <time>2021-01-27T09:17:29Z</time>
      </trkpt>
      <trkpt lat="43.81845" lon="7.45019">
        <ele>734.67166057035</ele>
        <time>2021-01-27T09:17:30Z</time>
      </trkpt>
      <trkpt lat="43.81846" lon="7.4502">
        <ele>734.67163206035</ele>
        <time>2021-01-27T09:17:31Z</time>
      </trkpt>
      <trkpt lat="43.81846" lon="7.45021">
        <ele>734.67161673777</ele>
        <time>2021-01-27T09:17:32Z</time>
      </trkpt>
      <trkpt lat="43.81847" lon="7.45021">
        <ele>735.67156847892</ele>
        <time>2021-01-27T09:17:33Z</time>
      </trkpt>
      <trkpt lat="43.81848" lon="7.45021">
        <ele>735.6715326688</ele>
        <time>2021-01-27T09:17:34Z</time>
      </trkpt>
      <trkpt lat="43.81849" lon="7.4502">
        <ele>735.67147254764</ele>
        <time>2021-01-27T09:17:36Z</time>
      </trkpt>
      <trkpt lat="43.8185" lon="7.4502">
        <ele>735.67143331198</ele>
        <time>2021-01-27T09:17:37Z</time>
      </trkpt>
      <trkpt lat="43.81851" lon="7.45021">
        <ele>735.67139735391</ele>
        <time>2021-01-27T09:17:38Z</time>
      </trkpt>
      <trkpt lat="43.81852" lon="7.45022">
        <ele>736.67134814793</ele>
        <time>2021-01-27T09:17:39Z</time>
      </trkpt>
      <trkpt lat="43.81853" lon="7.45022">
        <ele>736.67131591592</ele>
        <time>2021-01-27T09:17:40Z</time>
      </trkpt>
      <trkpt lat="43.81854" lon="7.45022">
        <ele>736.67127572413</ele>
        <time>2021-01-27T09:17:41Z</time>
      </trkpt>
      <trkpt lat="43.81855" lon="7.45022">
        <ele>737.67120916902</ele>
        <time>2021-01-27T09:17:43Z</time>
      </trkpt>
      <trkpt lat="43.81855" lon="7.45022">
        <ele>737.6711848348</ele>
        <time>2021-01-27T09:17:44Z</time>
      </trkpt>
      <trkpt lat="43.81856" lon="7.45022">
        <ele>737.67114926537</ele>
        <time>2021-01-27T09:17:45Z</time>
      </trkpt>
      <trkpt lat="43.81857" lon="7.45022">
        <ele>737.67109363439</ele>
        <time>2021-01-27T09:17:47Z</time>
      </trkpt>
      <trkpt lat="43.81858" lon="7.45022">
        <ele>736.67106693564</ele>
        <time>2021-01-27T09:17:51Z</time>
      </trkpt>
      <trkpt lat="43.8186" lon="7.45022">
        <ele>737.67097949967</ele>
        <time>2021-01-27T09:17:53Z</time>
      </trkpt>
      <trkpt lat="43.81861" lon="7.45022">
        <ele>737.67093954546</ele>
        <time>2021-01-27T09:17:54Z</time>
      </trkpt>
      <trkpt lat="43.81862" lon="7.45023">
        <ele>738.67088738246</ele>
        <time>2021-01-27T09:17:55Z</time>
      </trkpt>
      <trkpt lat="43.81863" lon="7.45024">
        <ele>740.67081475281</ele>
        <time>2021-01-27T09:17:57Z</time>
      </trkpt>
      <trkpt lat="43.81864" lon="7.45024">
        <ele>740.67079426503</ele>
        <time>2021-01-27T09:17:58Z</time>
      </trkpt>
      <trkpt lat="43.81864" lon="7.45024">
        <ele>740.67078031528</ele>
        <time>2021-01-27T09:18:01Z</time>
      </trkpt>
      <trkpt lat="43.81866" lon="7.45025">
        <ele>741.67071908333</ele>
        <time>2021-01-27T09:18:02Z</time>
      </trkpt>
      <trkpt lat="43.81866" lon="7.45024">
        <ele>741.6706869241</ele>
        <time>2021-01-27T09:18:03Z</time>
      </trkpt>
      <trkpt lat="43.81867" lon="7.45025">
        <ele>741.67065215784</ele>
        <time>2021-01-27T09:18:04Z</time>
      </trkpt>
      <trkpt lat="43.81868" lon="7.45026">
        <ele>741.67062306884</ele>
        <time>2021-01-27T09:18:06Z</time>
      </trkpt>
      <trkpt lat="43.81869" lon="7.45026">
        <ele>741.67056203368</ele>
        <time>2021-01-27T09:18:08Z</time>
      </trkpt>
      <trkpt lat="43.8187" lon="7.45026">
        <ele>741.6705385089</ele>
        <time>2021-01-27T09:18:12Z</time>
      </trkpt>
      <trkpt lat="43.81871" lon="7.45027">
        <ele>741.67049166364</ele>
        <time>2021-01-27T09:18:13Z</time>
      </trkpt>
      <trkpt lat="43.81871" lon="7.45028">
        <ele>742.67048831808</ele>
        <time>2021-01-27T09:18:14Z</time>
      </trkpt>
      <trkpt lat="43.81873" lon="7.45031">
        <ele>742.67044924657</ele>
        <time>2021-01-27T09:18:16Z</time>
      </trkpt>
      <trkpt lat="43.81873" lon="7.45032">
        <ele>742.67043462561</ele>
        <time>2021-01-27T09:18:17Z</time>
      </trkpt>
      <trkpt lat="43.81874" lon="7.45032">
        <ele>742.67041634653</ele>
        <time>2021-01-27T09:18:18Z</time>
      </trkpt>
      <trkpt lat="43.81874" lon="7.45033">
        <ele>742.67040049679</ele>
        <time>2021-01-27T09:18:19Z</time>
      </trkpt>
      <trkpt lat="43.81875" lon="7.45035">
        <ele>742.67038078144</ele>
        <time>2021-01-27T09:18:20Z</time>
      </trkpt>
      <trkpt lat="43.81876" lon="7.45036">
        <ele>742.67034250628</ele>
        <time>2021-01-27T09:18:21Z</time>
      </trkpt>
      <trkpt lat="43.81878" lon="7.45038">
        <ele>742.6702909406</ele>
        <time>2021-01-27T09:18:23Z</time>
      </trkpt>
      <trkpt lat="43.81879" lon="7.45039">
        <ele>742.67024932547</ele>
        <time>2021-01-27T09:18:24Z</time>
      </trkpt>
      <trkpt lat="43.8188" lon="7.4504">
        <ele>743.67019882558</ele>
        <time>2021-01-27T09:18:25Z</time>
      </trkpt>
      <trkpt lat="43.81882" lon="7.4504">
        <ele>743.67010277232</ele>
        <time>2021-01-27T09:18:27Z</time>
      </trkpt>
      <trkpt lat="43.81883" lon="7.45041">
        <ele>744.67005645859</ele>
        <time>2021-01-27T09:18:28Z</time>
      </trkpt>
      <trkpt lat="43.81885" lon="7.45042">
        <ele>744.67000623313</ele>
        <time>2021-01-27T09:18:29Z</time>
      </trkpt>
      <trkpt lat="43.81886" lon="7.45042">
        <ele>745.66993186198</ele>
        <time>2021-01-27T09:18:31Z</time>
      </trkpt>
      <trkpt lat="43.81888" lon="7.45043">
        <ele>745.66985268202</ele>
        <time>2021-01-27T09:18:33Z</time>
      </trkpt>
      <trkpt lat="43.81889" lon="7.45043">
        <ele>745.66981430446</ele>
        <time>2021-01-27T09:18:34Z</time>
      </trkpt>
      <trkpt lat="43.81889" lon="7.45044">
        <ele>746.66979091414</ele>
        <time>2021-01-27T09:18:35Z</time>
      </trkpt>
      <trkpt lat="43.81891" lon="7.45045">
        <ele>746.66972938072</ele>
        <time>2021-01-27T09:18:37Z</time>
      </trkpt>
      <trkpt lat="43.81892" lon="7.45046">
        <ele>746.66970757287</ele>
        <time>2021-01-27T09:18:38Z</time>
      </trkpt>
      <trkpt lat="43.81892" lon="7.45046">
        <ele>746.66967496803</ele>
        <time>2021-01-27T09:18:39Z</time>
      </trkpt>
      <trkpt lat="43.81894" lon="7.45048">
        <ele>747.66961006282</ele>
        <time>2021-01-27T09:18:41Z</time>
      </trkpt>
      <trkpt lat="43.81895" lon="7.45049">
        <ele>748.66957482591</ele>
        <time>2021-01-27T09:18:43Z</time>
      </trkpt>
      <trkpt lat="43.81895" lon="7.4505">
        <ele>748.66957560367</ele>
        <time>2021-01-27T09:18:44Z</time>
      </trkpt>
      <trkpt lat="43.81896" lon="7.45052">
        <ele>748.66957326648</ele>
        <time>2021-01-27T09:18:45Z</time>
      </trkpt>
      <trkpt lat="43.81896" lon="7.45053">
        <ele>748.66958633516</ele>
        <time>2021-01-27T09:18:46Z</time>
      </trkpt>
      <trkpt lat="43.81896" lon="7.45054">
        <ele>748.66956799121</ele>
        <time>2021-01-27T09:18:47Z</time>
      </trkpt>
      <trkpt lat="43.81897" lon="7.45056">
        <ele>748.66955626163</ele>
        <time>2021-01-27T09:18:48Z</time>
      </trkpt>
      <trkpt lat="43.81897" lon="7.45057">
        <ele>748.66956279297</ele>
        <time>2021-01-27T09:18:49Z</time>
      </trkpt>
      <trkpt lat="43.81898" lon="7.45059">
        <ele>748.669565493</ele>
        <time>2021-01-27T09:18:50Z</time>
      </trkpt>
      <trkpt lat="43.81898" lon="7.45062">
        <ele>748.6695568607</ele>
        <time>2021-01-27T09:18:52Z</time>
      </trkpt>
      <trkpt lat="43.81899" lon="7.45063">
        <ele>749.66954698889</ele>
        <time>2021-01-27T09:18:53Z</time>
      </trkpt>
      <trkpt lat="43.81899" lon="7.45064">
        <ele>749.66953926124</ele>
        <time>2021-01-27T09:18:54Z</time>
      </trkpt>
      <trkpt lat="43.819" lon="7.45066">
        <ele>749.6695376019</ele>
        <time>2021-01-27T09:18:55Z</time>
      </trkpt>
      <trkpt lat="43.819" lon="7.45068">
        <ele>749.66952510633</ele>
        <time>2021-01-27T09:18:56Z</time>
      </trkpt>
      <trkpt lat="43.81901" lon="7.45069">
        <ele>749.66951493007</ele>
        <time>2021-01-27T09:18:57Z</time>
      </trkpt>
      <trkpt lat="43.81902" lon="7.4507">
        <ele>749.66950365084</ele>
        <time>2021-01-27T09:18:58Z</time>
      </trkpt>
      <trkpt lat="43.81902" lon="7.45072">
        <ele>749.6694872284</ele>
        <time>2021-01-27T09:18:59Z</time>
      </trkpt>
      <trkpt lat="43.81904" lon="7.45075">
        <ele>749.66945848465</ele>
        <time>2021-01-27T09:19:01Z</time>
      </trkpt>
      <trkpt lat="43.81905" lon="7.45078">
        <ele>748.66943859821</ele>
        <time>2021-01-27T09:19:03Z</time>
      </trkpt>
      <trkpt lat="43.81905" lon="7.45079">
        <ele>748.66942626673</ele>
        <time>2021-01-27T09:19:04Z</time>
      </trkpt>
      <trkpt lat="43.81906" lon="7.4508">
        <ele>749.66938296247</ele>
        <time>2021-01-27T09:19:05Z</time>
      </trkpt>
      <trkpt lat="43.81908" lon="7.45081">
        <ele>750.66932754483</ele>
        <time>2021-01-27T09:19:06Z</time>
      </trkpt>
      <trkpt lat="43.81909" lon="7.45081">
        <ele>750.6692865273</ele>
        <time>2021-01-27T09:19:07Z</time>
      </trkpt>
      <trkpt lat="43.8191" lon="7.45081">
        <ele>750.6692336555</ele>
        <time>2021-01-27T09:19:08Z</time>
      </trkpt>
      <trkpt lat="43.81911" lon="7.45081">
        <ele>750.66918148162</ele>
        <time>2021-01-27T09:19:09Z</time>
      </trkpt>
      <trkpt lat="43.81913" lon="7.45083">
        <ele>750.669102046</ele>
        <time>2021-01-27T09:19:11Z</time>
      </trkpt>
      <trkpt lat="43.81915" lon="7.45085">
        <ele>751.66903464153</ele>
        <time>2021-01-27T09:19:13Z</time>
      </trkpt>
      <trkpt lat="43.81916" lon="7.45086">
        <ele>750.66900982298</ele>
        <time>2021-01-27T09:19:14Z</time>
      </trkpt>
      <trkpt lat="43.81917" lon="7.45087">
        <ele>750.66896734961</ele>
        <time>2021-01-27T09:19:15Z</time>
      </trkpt>
      <trkpt lat="43.81917" lon="7.4509">
        <ele>751.66895502912</ele>
        <time>2021-01-27T09:19:17Z</time>
      </trkpt>
      <trkpt lat="43.81918" lon="7.45091">
        <ele>751.66892449218</ele>
        <time>2021-01-27T09:19:18Z</time>
      </trkpt>
      <trkpt lat="43.8192" lon="7.45093">
        <ele>750.6688929578</ele>
        <time>2021-01-27T09:19:19Z</time>
      </trkpt>
      <trkpt lat="43.81922" lon="7.45094">
        <ele>751.6688090153</ele>
        <time>2021-01-27T09:19:21Z</time>
      </trkpt>
      <trkpt lat="43.81923" lon="7.45096">
        <ele>751.66874573125</ele>
        <time>2021-01-27T09:19:23Z</time>
      </trkpt>
      <trkpt lat="43.81924" lon="7.45097">
        <ele>751.6687096451</ele>
        <time>2021-01-27T09:19:24Z</time>
      </trkpt>
      <trkpt lat="43.81925" lon="7.45099">
        <ele>751.66868547877</ele>
        <time>2021-01-27T09:19:25Z</time>
      </trkpt>
      <trkpt lat="43.81926" lon="7.45101">
        <ele>751.66865144448</ele>
        <time>2021-01-27T09:19:27Z</time>
      </trkpt>
      <trkpt lat="43.81927" lon="7.45102">
        <ele>752.66864152131</ele>
        <time>2021-01-27T09:19:28Z</time>
      </trkpt>
      <trkpt lat="43.81927" lon="7.45103">
        <ele>752.66862716444</ele>
        <time>2021-01-27T09:19:29Z</time>
      </trkpt>
      <trkpt lat="43.81929" lon="7.45106">
        <ele>752.66858188277</ele>
        <time>2021-01-27T09:19:31Z</time>
      </trkpt>
      <trkpt lat="43.8193" lon="7.45107">
        <ele>752.66855287221</ele>
        <time>2021-01-27T09:19:32Z</time>
      </trkpt>
      <trkpt lat="43.81931" lon="7.45108">
        <ele>753.66851484045</ele>
        <time>2021-01-27T09:19:33Z</time>
      </trkpt>
      <trkpt lat="43.81932" lon="7.45109">
        <ele>753.66847222903</ele>
        <time>2021-01-27T09:19:34Z</time>
      </trkpt>
      <trkpt lat="43.81933" lon="7.4511">
        <ele>753.6684370202</ele>
        <time>2021-01-27T09:19:35Z</time>
      </trkpt>
      <trkpt lat="43.81934" lon="7.45112">
        <ele>753.66840139999</ele>
        <time>2021-01-27T09:19:36Z</time>
      </trkpt>
      <trkpt lat="43.81936" lon="7.45114">
        <ele>753.66834516608</ele>
        <time>2021-01-27T09:19:38Z</time>
      </trkpt>
      <trkpt lat="43.81937" lon="7.45116">
        <ele>753.66833415428</ele>
        <time>2021-01-27T09:19:39Z</time>
      </trkpt>
      <trkpt lat="43.81937" lon="7.45117">
        <ele>753.66832500705</ele>
        <time>2021-01-27T09:19:40Z</time>
      </trkpt>
      <trkpt lat="43.81938" lon="7.45118">
        <ele>753.66829955212</ele>
        <time>2021-01-27T09:19:41Z</time>
      </trkpt>
      <trkpt lat="43.81939" lon="7.45119">
        <ele>753.66826584329</ele>
        <time>2021-01-27T09:19:42Z</time>
      </trkpt>
      <trkpt lat="43.8194" lon="7.4512">
        <ele>753.66823569985</ele>
        <time>2021-01-27T09:19:43Z</time>
      </trkpt>
      <trkpt lat="43.8194" lon="7.45121">
        <ele>753.66821498973</ele>
        <time>2021-01-27T09:19:44Z</time>
      </trkpt>
      <trkpt lat="43.81942" lon="7.45123">
        <ele>753.66816214752</ele>
        <time>2021-01-27T09:19:46Z</time>
      </trkpt>
      <trkpt lat="43.81944" lon="7.45124">
        <ele>753.6680802062</ele>
        <time>2021-01-27T09:19:48Z</time>
      </trkpt>
      <trkpt lat="43.81945" lon="7.45125">
        <ele>753.66804645733</ele>
        <time>2021-01-27T09:19:49Z</time>
      </trkpt>
      <trkpt lat="43.81946" lon="7.45126">
        <ele>753.66800473153</ele>
        <time>2021-01-27T09:19:50Z</time>
      </trkpt>
      <trkpt lat="43.81947" lon="7.45127">
        <ele>753.66796810943</ele>
        <time>2021-01-27T09:19:51Z</time>
      </trkpt>
      <trkpt lat="43.81948" lon="7.45128">
        <ele>753.66792371955</ele>
        <time>2021-01-27T09:19:52Z</time>
      </trkpt>
      <trkpt lat="43.81949" lon="7.45129">
        <ele>753.66788777406</ele>
        <time>2021-01-27T09:19:53Z</time>
      </trkpt>
      <trkpt lat="43.8195" lon="7.4513">
        <ele>754.6678573511</ele>
        <time>2021-01-27T09:19:54Z</time>
      </trkpt>
      <trkpt lat="43.81951" lon="7.4513">
        <ele>754.66781782199</ele>
        <time>2021-01-27T09:19:55Z</time>
      </trkpt>
      <trkpt lat="43.81953" lon="7.45131">
        <ele>754.66771513873</ele>
        <time>2021-01-27T09:19:57Z</time>
      </trkpt>
      <trkpt lat="43.81954" lon="7.45132">
        <ele>754.66766632872</ele>
        <time>2021-01-27T09:19:58Z</time>
      </trkpt>
      <trkpt lat="43.81955" lon="7.45133">
        <ele>755.66762307238</ele>
        <time>2021-01-27T09:19:59Z</time>
      </trkpt>
      <trkpt lat="43.81957" lon="7.45133">
        <ele>755.66752816614</ele>
        <time>2021-01-27T09:20:01Z</time>
      </trkpt>
      <trkpt lat="43.81958" lon="7.45133">
        <ele>755.66748587134</ele>
        <time>2021-01-27T09:20:03Z</time>
      </trkpt>
      <trkpt lat="43.8196" lon="7.45133">
        <ele>756.66741177474</ele>
        <time>2021-01-27T09:20:04Z</time>
      </trkpt>
      <trkpt lat="43.81961" lon="7.45134">
        <ele>756.66736774529</ele>
        <time>2021-01-27T09:20:05Z</time>
      </trkpt>
      <trkpt lat="43.81963" lon="7.45133">
        <ele>757.66726981711</ele>
        <time>2021-01-27T09:20:07Z</time>
      </trkpt>
      <trkpt lat="43.81964" lon="7.45133">
        <ele>756.66723367803</ele>
        <time>2021-01-27T09:20:20Z</time>
      </trkpt>
      <trkpt lat="43.81965" lon="7.45131">
        <ele>757.66714743593</ele>
        <time>2021-01-27T09:20:23Z</time>
      </trkpt>
      <trkpt lat="43.81965" lon="7.45131">
        <ele>757.66715211358</ele>
        <time>2021-01-27T09:20:50Z</time>
      </trkpt>
      <trkpt lat="43.81965" lon="7.4513">
        <ele>757.66713305511</ele>
        <time>2021-01-27T09:20:51Z</time>
      </trkpt>
      <trkpt lat="43.81964" lon="7.4513">
        <ele>756.66715910498</ele>
        <time>2021-01-27T09:20:59Z</time>
      </trkpt>
      <trkpt lat="43.81966" lon="7.45131">
        <ele>756.66709039856</ele>
        <time>2021-01-27T09:21:01Z</time>
      </trkpt>
      <trkpt lat="43.81966" lon="7.4513">
        <ele>756.6670771291</ele>
        <time>2021-01-27T09:21:07Z</time>
      </trkpt>
      <trkpt lat="43.81968" lon="7.4513">
        <ele>757.66699502359</ele>
        <time>2021-01-27T09:21:08Z</time>
      </trkpt>
      <trkpt lat="43.81969" lon="7.4513">
        <ele>757.66695261471</ele>
        <time>2021-01-27T09:21:09Z</time>
      </trkpt>
      <trkpt lat="43.81969" lon="7.45129">
        <ele>757.66691242227</ele>
        <time>2021-01-27T09:21:10Z</time>
      </trkpt>
      <trkpt lat="43.81972" lon="7.45127">
        <ele>757.66678970068</ele>
        <time>2021-01-27T09:21:12Z</time>
      </trkpt>
      <trkpt lat="43.81973" lon="7.45127">
        <ele>757.6667299378</ele>
        <time>2021-01-27T09:21:13Z</time>
      </trkpt>
      <trkpt lat="43.81974" lon="7.45125">
        <ele>757.66666753939</ele>
        <time>2021-01-27T09:21:14Z</time>
      </trkpt>
      <trkpt lat="43.81974" lon="7.45124">
        <ele>758.66662849638</ele>
        <time>2021-01-27T09:21:15Z</time>
      </trkpt>
      <trkpt lat="43.81974" lon="7.45123">
        <ele>758.66662660808</ele>
        <time>2021-01-27T09:21:23Z</time>
      </trkpt>
      <trkpt lat="43.81974" lon="7.45122">
        <ele>758.66658999434</ele>
        <time>2021-01-27T09:21:24Z</time>
      </trkpt>
      <trkpt lat="43.81975" lon="7.45121">
        <ele>758.66654045016</ele>
        <time>2021-01-27T09:21:25Z</time>
      </trkpt>
      <trkpt lat="43.81978" lon="7.4512">
        <ele>758.66641104958</ele>
        <time>2021-01-27T09:21:27Z</time>
      </trkpt>
      <trkpt lat="43.81979" lon="7.45119">
        <ele>758.66634970562</ele>
        <time>2021-01-27T09:21:28Z</time>
      </trkpt>
      <trkpt lat="43.8198" lon="7.45119">
        <ele>758.66628550481</ele>
        <time>2021-01-27T09:21:29Z</time>
      </trkpt>
      <trkpt lat="43.81983" lon="7.45118">
        <ele>759.6661334976</ele>
        <time>2021-01-27T09:21:31Z</time>
      </trkpt>
      <trkpt lat="43.81985" lon="7.45118">
        <ele>759.66602252557</ele>
        <time>2021-01-27T09:21:33Z</time>
      </trkpt>
      <trkpt lat="43.81986" lon="7.45118">
        <ele>759.66597805748</ele>
        <time>2021-01-27T09:21:34Z</time>
      </trkpt>
      <trkpt lat="43.81987" lon="7.45118">
        <ele>759.6659253863</ele>
        <time>2021-01-27T09:21:35Z</time>
      </trkpt>
      <trkpt lat="43.81989" lon="7.45118">
        <ele>759.66583587811</ele>
        <time>2021-01-27T09:21:37Z</time>
      </trkpt>
      <trkpt lat="43.8199" lon="7.45119">
        <ele>760.66579388818</ele>
        <time>2021-01-27T09:21:38Z</time>
      </trkpt>
      <trkpt lat="43.81991" lon="7.45119">
        <ele>759.66575369336</ele>
        <time>2021-01-27T09:21:39Z</time>
      </trkpt>
      <trkpt lat="43.81994" lon="7.45121">
        <ele>760.6656473463</ele>
        <time>2021-01-27T09:21:41Z</time>
      </trkpt>
      <trkpt lat="43.81996" lon="7.45122">
        <ele>760.66558120425</ele>
        <time>2021-01-27T09:21:43Z</time>
      </trkpt>
      <trkpt lat="43.81996" lon="7.45122">
        <ele>761.66554150008</ele>
        <time>2021-01-27T09:21:45Z</time>
      </trkpt>
      <trkpt lat="43.81997" lon="7.45122">
        <ele>761.66550103986</ele>
        <time>2021-01-27T09:21:47Z</time>
      </trkpt>
      <trkpt lat="43.81998" lon="7.45122">
        <ele>761.6654850806</ele>
        <time>2021-01-27T09:21:50Z</time>
      </trkpt>
      <trkpt lat="43.81998" lon="7.45125">
        <ele>760.66549770019</ele>
        <time>2021-01-27T09:21:51Z</time>
      </trkpt>
      <trkpt lat="43.81998" lon="7.45127">
        <ele>760.66553534323</ele>
        <time>2021-01-27T09:21:52Z</time>
      </trkpt>
      <trkpt lat="43.81997" lon="7.45128">
        <ele>760.66557590752</ele>
        <time>2021-01-27T09:21:53Z</time>
      </trkpt>
      <trkpt lat="43.81997" lon="7.4513">
        <ele>761.66561802839</ele>
        <time>2021-01-27T09:21:54Z</time>
      </trkpt>
      <trkpt lat="43.81996" lon="7.45131">
        <ele>761.66566001141</ele>
        <time>2021-01-27T09:21:56Z</time>
      </trkpt>
      <trkpt lat="43.81996" lon="7.45135">
        <ele>762.66572037645</ele>
        <time>2021-01-27T09:21:58Z</time>
      </trkpt>
      <trkpt lat="43.81996" lon="7.45137">
        <ele>762.66574255536</ele>
        <time>2021-01-27T09:21:59Z</time>
      </trkpt>
      <trkpt lat="43.81996" lon="7.45139">
        <ele>762.66576601123</ele>
        <time>2021-01-27T09:22:00Z</time>
      </trkpt>
      <trkpt lat="43.81995" lon="7.45141">
        <ele>763.66581030827</ele>
        <time>2021-01-27T09:22:01Z</time>
      </trkpt>
      <trkpt lat="43.81995" lon="7.45142">
        <ele>763.6658437532</ele>
        <time>2021-01-27T09:22:02Z</time>
      </trkpt>
      <trkpt lat="43.81995" lon="7.45145">
        <ele>763.66585076967</ele>
        <time>2021-01-27T09:22:03Z</time>
      </trkpt>
      <trkpt lat="43.81995" lon="7.45146">
        <ele>763.66585794141</ele>
        <time>2021-01-27T09:22:04Z</time>
      </trkpt>
      <trkpt lat="43.81995" lon="7.45147">
        <ele>762.66587605036</ele>
        <time>2021-01-27T09:22:05Z</time>
      </trkpt>
      <trkpt lat="43.81995" lon="7.45147">
        <ele>762.66591189847</ele>
        <time>2021-01-27T09:22:09Z</time>
      </trkpt>
      <trkpt lat="43.81993" lon="7.4515">
        <ele>762.66601003851</ele>
        <time>2021-01-27T09:22:10Z</time>
      </trkpt>
      <trkpt lat="43.81993" lon="7.45151">
        <ele>761.66604292175</ele>
        <time>2021-01-27T09:22:11Z</time>
      </trkpt>
      <trkpt lat="43.81992" lon="7.45153">
        <ele>762.66607942713</ele>
        <time>2021-01-27T09:22:13Z</time>
      </trkpt>
      <trkpt lat="43.81992" lon="7.45154">
        <ele>762.66609050069</ele>
        <time>2021-01-27T09:22:15Z</time>
      </trkpt>
      <trkpt lat="43.81991" lon="7.45156">
        <ele>762.6661668937</ele>
        <time>2021-01-27T09:22:17Z</time>
      </trkpt>
      <trkpt lat="43.81991" lon="7.45156">
        <ele>762.66617145565</ele>
        <time>2021-01-27T09:22:18Z</time>
      </trkpt>
      <trkpt lat="43.81991" lon="7.45157">
        <ele>762.66617045097</ele>
        <time>2021-01-27T09:22:19Z</time>
      </trkpt>
      <trkpt lat="43.81991" lon="7.45158">
        <ele>763.66620437587</ele>
        <time>2021-01-27T09:22:21Z</time>
      </trkpt>
      <trkpt lat="43.81991" lon="7.4516">
        <ele>764.66623313442</ele>
        <time>2021-01-27T09:22:23Z</time>
      </trkpt>
      <trkpt lat="43.81991" lon="7.45161">
        <ele>764.66623895588</ele>
        <time>2021-01-27T09:22:24Z</time>
      </trkpt>
      <trkpt lat="43.81991" lon="7.45161">
        <ele>764.66624982226</ele>
        <time>2021-01-27T09:22:28Z</time>
      </trkpt>
      <trkpt lat="43.81991" lon="7.45163">
        <ele>765.66626671017</ele>
        <time>2021-01-27T09:22:29Z</time>
      </trkpt>
      <trkpt lat="43.8199" lon="7.45164">
        <ele>765.66632054045</ele>
        <time>2021-01-27T09:22:31Z</time>
      </trkpt>
      <trkpt lat="43.81989" lon="7.45167">
        <ele>765.66639762581</ele>
        <time>2021-01-27T09:22:33Z</time>
      </trkpt>
      <trkpt lat="43.81989" lon="7.45169">
        <ele>765.66642940324</ele>
        <time>2021-01-27T09:22:34Z</time>
      </trkpt>
      <trkpt lat="43.81989" lon="7.45171">
        <ele>765.66645249736</ele>
        <time>2021-01-27T09:22:35Z</time>
      </trkpt>
      <trkpt lat="43.81988" lon="7.45173">
        <ele>765.66648664211</ele>
        <time>2021-01-27T09:22:36Z</time>
      </trkpt>
      <trkpt lat="43.81988" lon="7.45174">
        <ele>765.66651054962</ele>
        <time>2021-01-27T09:22:37Z</time>
      </trkpt>
      <trkpt lat="43.81988" lon="7.45175">
        <ele>766.66651114695</ele>
        <time>2021-01-27T09:22:38Z</time>
      </trkpt>
      <trkpt lat="43.81989" lon="7.45175">
        <ele>766.66650010242</ele>
        <time>2021-01-27T09:22:39Z</time>
      </trkpt>
      <trkpt lat="43.81989" lon="7.45176">
        <ele>766.6665003073</ele>
        <time>2021-01-27T09:22:40Z</time>
      </trkpt>
      <trkpt lat="43.81989" lon="7.45177">
        <ele>765.66649030706</ele>
        <time>2021-01-27T09:22:42Z</time>
      </trkpt>
      <trkpt lat="43.81989" lon="7.45179">
        <ele>766.66652275764</ele>
        <time>2021-01-27T09:22:44Z</time>
      </trkpt>
      <trkpt lat="43.8199" lon="7.4518">
        <ele>766.66651818373</ele>
        <time>2021-01-27T09:22:46Z</time>
      </trkpt>
      <trkpt lat="43.8199" lon="7.45181">
        <ele>765.66650879312</ele>
        <time>2021-01-27T09:22:55Z</time>
      </trkpt>
      <trkpt lat="43.81991" lon="7.45184">
        <ele>765.66648518561</ele>
        <time>2021-01-27T09:22:56Z</time>
      </trkpt>
      <trkpt lat="43.81991" lon="7.45185">
        <ele>764.66649249742</ele>
        <time>2021-01-27T09:22:57Z</time>
      </trkpt>
      <trkpt lat="43.81991" lon="7.45186">
        <ele>764.66651704514</ele>
        <time>2021-01-27T09:22:58Z</time>
      </trkpt>
      <trkpt lat="43.81991" lon="7.45186">
        <ele>763.6665308918</ele>
        <time>2021-01-27T09:22:59Z</time>
      </trkpt>
      <trkpt lat="43.81991" lon="7.45188">
        <ele>763.66654952085</ele>
        <time>2021-01-27T09:23:00Z</time>
      </trkpt>
      <trkpt lat="43.8199" lon="7.45189">
        <ele>763.66659839769</ele>
        <time>2021-01-27T09:23:01Z</time>
      </trkpt>
      <trkpt lat="43.81989" lon="7.4519">
        <ele>762.66663865023</ele>
        <time>2021-01-27T09:23:02Z</time>
      </trkpt>
      <trkpt lat="43.81989" lon="7.45191">
        <ele>762.66664729743</ele>
        <time>2021-01-27T09:23:03Z</time>
      </trkpt>
      <trkpt lat="43.8199" lon="7.45192">
        <ele>762.66663350366</ele>
        <time>2021-01-27T09:23:06Z</time>
      </trkpt>
      <trkpt lat="43.81989" lon="7.45193">
        <ele>763.66667685915</ele>
        <time>2021-01-27T09:23:07Z</time>
      </trkpt>
      <trkpt lat="43.81989" lon="7.45193">
        <ele>764.66671109599</ele>
        <time>2021-01-27T09:23:12Z</time>
      </trkpt>
      <trkpt lat="43.81989" lon="7.45194">
        <ele>765.66669450409</ele>
        <time>2021-01-27T09:23:14Z</time>
      </trkpt>
      <trkpt lat="43.81989" lon="7.45195">
        <ele>765.66669548474</ele>
        <time>2021-01-27T09:23:17Z</time>
      </trkpt>
      <trkpt lat="43.8199" lon="7.45196">
        <ele>765.66668942013</ele>
        <time>2021-01-27T09:23:19Z</time>
      </trkpt>
      <trkpt lat="43.8199" lon="7.45196">
        <ele>763.66668728034</ele>
        <time>2021-01-27T09:23:26Z</time>
      </trkpt>
      <trkpt lat="43.81987" lon="7.45198">
        <ele>761.66685167238</ele>
        <time>2021-01-27T09:23:28Z</time>
      </trkpt>
      <trkpt lat="43.81986" lon="7.45199">
        <ele>761.66690281356</ele>
        <time>2021-01-27T09:23:29Z</time>
      </trkpt>
      <trkpt lat="43.81985" lon="7.452">
        <ele>761.66697373484</ele>
        <time>2021-01-27T09:23:30Z</time>
      </trkpt>
      <trkpt lat="43.81984" lon="7.45201">
        <ele>762.66703391794</ele>
        <time>2021-01-27T09:23:31Z</time>
      </trkpt>
      <trkpt lat="43.81982" lon="7.45202">
        <ele>761.66710253405</ele>
        <time>2021-01-27T09:23:32Z</time>
      </trkpt>
      <trkpt lat="43.81981" lon="7.45202">
        <ele>762.66715875417</ele>
        <time>2021-01-27T09:23:33Z</time>
      </trkpt>
      <trkpt lat="43.8198" lon="7.45203">
        <ele>762.6672118388</ele>
        <time>2021-01-27T09:23:34Z</time>
      </trkpt>
      <trkpt lat="43.81979" lon="7.45203">
        <ele>762.66725582674</ele>
        <time>2021-01-27T09:23:35Z</time>
      </trkpt>
      <trkpt lat="43.81978" lon="7.45204">
        <ele>762.66732547069</ele>
        <time>2021-01-27T09:23:37Z</time>
      </trkpt>
      <trkpt lat="43.81976" lon="7.45204">
        <ele>762.66742469215</ele>
        <time>2021-01-27T09:23:39Z</time>
      </trkpt>
      <trkpt lat="43.81975" lon="7.45204">
        <ele>762.66747097358</ele>
        <time>2021-01-27T09:23:40Z</time>
      </trkpt>
      <trkpt lat="43.81974" lon="7.45204">
        <ele>763.66752357097</ele>
        <time>2021-01-27T09:23:41Z</time>
      </trkpt>
      <trkpt lat="43.81973" lon="7.45204">
        <ele>763.66758271132</ele>
        <time>2021-01-27T09:23:42Z</time>
      </trkpt>
      <trkpt lat="43.81971" lon="7.45204">
        <ele>763.66764714547</ele>
        <time>2021-01-27T09:23:43Z</time>
      </trkpt>
      <trkpt lat="43.81971" lon="7.45203">
        <ele>764.66767590231</ele>
        <time>2021-01-27T09:23:44Z</time>
      </trkpt>
      <trkpt lat="43.8197" lon="7.45202">
        <ele>764.66768561313</ele>
        <time>2021-01-27T09:23:45Z</time>
      </trkpt>
      <trkpt lat="43.81969" lon="7.45202">
        <ele>764.66771916514</ele>
        <time>2021-01-27T09:23:50Z</time>
      </trkpt>
      <trkpt lat="43.81968" lon="7.45203">
        <ele>764.66780967185</ele>
        <time>2021-01-27T09:23:51Z</time>
      </trkpt>
      <trkpt lat="43.81966" lon="7.45204">
        <ele>766.66788831384</ele>
        <time>2021-01-27T09:23:53Z</time>
      </trkpt>
      <trkpt lat="43.81965" lon="7.45204">
        <ele>766.66794871779</ele>
        <time>2021-01-27T09:23:54Z</time>
      </trkpt>
      <trkpt lat="43.81964" lon="7.45205">
        <ele>767.66798956368</ele>
        <time>2021-01-27T09:23:55Z</time>
      </trkpt>
      <trkpt lat="43.81963" lon="7.45205">
        <ele>767.6680462243</ele>
        <time>2021-01-27T09:23:57Z</time>
      </trkpt>
      <trkpt lat="43.81962" lon="7.45205">
        <ele>767.66809322771</ele>
        <time>2021-01-27T09:23:59Z</time>
      </trkpt>
      <trkpt lat="43.81961" lon="7.45204">
        <ele>767.6681255177</ele>
        <time>2021-01-27T09:24:00Z</time>
      </trkpt>
      <trkpt lat="43.81961" lon="7.45204">
        <ele>766.66814621294</ele>
        <time>2021-01-27T09:24:01Z</time>
      </trkpt>
      <trkpt lat="43.81959" lon="7.45203">
        <ele>766.66825079628</ele>
        <time>2021-01-27T09:24:03Z</time>
      </trkpt>
      <trkpt lat="43.81957" lon="7.45203">
        <ele>766.66831782435</ele>
        <time>2021-01-27T09:24:04Z</time>
      </trkpt>
      <trkpt lat="43.81956" lon="7.45203">
        <ele>766.66836189968</ele>
        <time>2021-01-27T09:24:05Z</time>
      </trkpt>
      <trkpt lat="43.81954" lon="7.45203">
        <ele>767.66845821685</ele>
        <time>2021-01-27T09:24:07Z</time>
      </trkpt>
      <trkpt lat="43.81953" lon="7.45203">
        <ele>767.66849907014</ele>
        <time>2021-01-27T09:24:08Z</time>
      </trkpt>
      <trkpt lat="43.81953" lon="7.45202">
        <ele>767.66851080534</ele>
        <time>2021-01-27T09:24:09Z</time>
      </trkpt>
      <trkpt lat="43.81952" lon="7.45202">
        <ele>766.66854080361</ele>
        <time>2021-01-27T09:24:10Z</time>
      </trkpt>
      <trkpt lat="43.81951" lon="7.45202">
        <ele>766.66859456646</ele>
        <time>2021-01-27T09:24:11Z</time>
      </trkpt>
      <trkpt lat="43.8195" lon="7.45202">
        <ele>766.66865789277</ele>
        <time>2021-01-27T09:24:12Z</time>
      </trkpt>
      <trkpt lat="43.81948" lon="7.45202">
        <ele>766.66874261557</ele>
        <time>2021-01-27T09:24:14Z</time>
      </trkpt>
      <trkpt lat="43.81945" lon="7.45202">
        <ele>766.66887005134</ele>
        <time>2021-01-27T09:24:16Z</time>
      </trkpt>
      <trkpt lat="43.81944" lon="7.45202">
        <ele>767.66892470455</ele>
        <time>2021-01-27T09:24:17Z</time>
      </trkpt>
      <trkpt lat="43.81943" lon="7.45202">
        <ele>768.66897164434</ele>
        <time>2021-01-27T09:24:18Z</time>
      </trkpt>
      <trkpt lat="43.81943" lon="7.45202">
        <ele>768.66899598024</ele>
        <time>2021-01-27T09:24:19Z</time>
      </trkpt>
      <trkpt lat="43.81942" lon="7.45203">
        <ele>767.6690246396</ele>
        <time>2021-01-27T09:24:20Z</time>
      </trkpt>
      <trkpt lat="43.81942" lon="7.45203">
        <ele>768.66904368486</ele>
        <time>2021-01-27T09:24:21Z</time>
      </trkpt>
      <trkpt lat="43.81941" lon="7.45204">
        <ele>768.66909673038</ele>
        <time>2021-01-27T09:24:23Z</time>
      </trkpt>
      <trkpt lat="43.8194" lon="7.45203">
        <ele>769.66912790939</ele>
        <time>2021-01-27T09:24:24Z</time>
      </trkpt>
      <trkpt lat="43.81939" lon="7.45203">
        <ele>769.66915912262</ele>
        <time>2021-01-27T09:24:25Z</time>
      </trkpt>
      <trkpt lat="43.81938" lon="7.45203">
        <ele>769.66921539937</ele>
        <time>2021-01-27T09:24:26Z</time>
      </trkpt>
      <trkpt lat="43.81938" lon="7.45203">
        <ele>769.66921539937</ele>
        <time>2021-01-27T09:24:27Z</time>
      </trkpt>
      <trkpt lat="43.81937" lon="7.45203">
        <ele>769.66930196768</ele>
        <time>2021-01-27T09:24:28Z</time>
      </trkpt>
      <trkpt lat="43.81936" lon="7.45204">
        <ele>770.66934546262</ele>
        <time>2021-01-27T09:24:29Z</time>
      </trkpt>
      <trkpt lat="43.81934" lon="7.45204">
        <ele>770.66941919443</ele>
        <time>2021-01-27T09:24:31Z</time>
      </trkpt>
      <trkpt lat="43.81933" lon="7.45205">
        <ele>769.66949396351</ele>
        <time>2021-01-27T09:24:33Z</time>
      </trkpt>
      <trkpt lat="43.81932" lon="7.45206">
        <ele>769.6695499578</ele>
        <time>2021-01-27T09:24:34Z</time>
      </trkpt>
      <trkpt lat="43.81931" lon="7.45206">
        <ele>769.66959404684</ele>
        <time>2021-01-27T09:24:35Z</time>
      </trkpt>
      <trkpt lat="43.81929" lon="7.45206">
        <ele>769.66968542314</ele>
        <time>2021-01-27T09:24:37Z</time>
      </trkpt>
      <trkpt lat="43.81928" lon="7.45206">
        <ele>769.66975202968</ele>
        <time>2021-01-27T09:24:39Z</time>
      </trkpt>
      <trkpt lat="43.81927" lon="7.45208">
        <ele>770.66978512126</ele>
        <time>2021-01-27T09:24:40Z</time>
      </trkpt>
      <trkpt lat="43.81927" lon="7.45208">
        <ele>770.66981489073</ele>
        <time>2021-01-27T09:24:41Z</time>
      </trkpt>
      <trkpt lat="43.81927" lon="7.4521">
        <ele>771.66981382444</ele>
        <time>2021-01-27T09:24:43Z</time>
      </trkpt>
      <trkpt lat="43.81928" lon="7.4521">
        <ele>771.66979232448</ele>
        <time>2021-01-27T09:24:44Z</time>
      </trkpt>
      <trkpt lat="43.81928" lon="7.45211">
        <ele>771.66979802924</ele>
        <time>2021-01-27T09:24:45Z</time>
      </trkpt>
      <trkpt lat="43.81929" lon="7.45212">
        <ele>772.66977782758</ele>
        <time>2021-01-27T09:24:49Z</time>
      </trkpt>
      <trkpt lat="43.8193" lon="7.45214">
        <ele>774.669728527</ele>
        <time>2021-01-27T09:24:50Z</time>
      </trkpt>
      <trkpt lat="43.81931" lon="7.45214">
        <ele>774.66970964359</ele>
        <time>2021-01-27T09:24:51Z</time>
      </trkpt>
      <trkpt lat="43.81932" lon="7.45215">
        <ele>774.66967255753</ele>
        <time>2021-01-27T09:24:53Z</time>
      </trkpt>
      <trkpt lat="43.81932" lon="7.45215">
        <ele>774.66967255753</ele>
        <time>2021-01-27T09:24:55Z</time>
      </trkpt>
      <trkpt lat="43.81933" lon="7.45217">
        <ele>775.66964545021</ele>
        <time>2021-01-27T09:24:56Z</time>
      </trkpt>
      <trkpt lat="43.81933" lon="7.45218">
        <ele>775.66963910153</ele>
        <time>2021-01-27T09:24:57Z</time>
      </trkpt>
      <trkpt lat="43.81933" lon="7.45219">
        <ele>775.66964541743</ele>
        <time>2021-01-27T09:24:58Z</time>
      </trkpt>
      <trkpt lat="43.81933" lon="7.45219">
        <ele>775.66962330994</ele>
        <time>2021-01-27T09:24:59Z</time>
      </trkpt>
      <trkpt lat="43.81934" lon="7.45219">
        <ele>776.66959034007</ele>
        <time>2021-01-27T09:25:01Z</time>
      </trkpt>
      <trkpt lat="43.81935" lon="7.4522">
        <ele>776.66956855091</ele>
        <time>2021-01-27T09:25:02Z</time>
      </trkpt>
      <trkpt lat="43.81936" lon="7.4522">
        <ele>776.66953728706</ele>
        <time>2021-01-27T09:25:03Z</time>
      </trkpt>
      <trkpt lat="43.81936" lon="7.45221">
        <ele>777.66952632497</ele>
        <time>2021-01-27T09:25:04Z</time>
      </trkpt>
      <trkpt lat="43.81937" lon="7.45222">
        <ele>777.66948332988</ele>
        <time>2021-01-27T09:25:05Z</time>
      </trkpt>
      <trkpt lat="43.81938" lon="7.45223">
        <ele>778.66945480624</ele>
        <time>2021-01-27T09:25:06Z</time>
      </trkpt>
      <trkpt lat="43.81939" lon="7.45223">
        <ele>778.66942179259</ele>
        <time>2021-01-27T09:25:07Z</time>
      </trkpt>
      <trkpt lat="43.8194" lon="7.45225">
        <ele>779.66939130019</ele>
        <time>2021-01-27T09:25:09Z</time>
      </trkpt>
      <trkpt lat="43.8194" lon="7.45226">
        <ele>780.66937228523</ele>
        <time>2021-01-27T09:25:11Z</time>
      </trkpt>
      <trkpt lat="43.81941" lon="7.45226">
        <ele>780.66935402259</ele>
        <time>2021-01-27T09:25:12Z</time>
      </trkpt>
      <trkpt lat="43.81941" lon="7.45226">
        <ele>780.66932747152</ele>
        <time>2021-01-27T09:25:13Z</time>
      </trkpt>
      <trkpt lat="43.81942" lon="7.45226">
        <ele>780.66930531129</ele>
        <time>2021-01-27T09:25:14Z</time>
      </trkpt>
      <trkpt lat="43.81942" lon="7.45226">
        <ele>780.66927798575</ele>
        <time>2021-01-27T09:25:15Z</time>
      </trkpt>
      <trkpt lat="43.81943" lon="7.45226">
        <ele>781.66925676786</ele>
        <time>2021-01-27T09:25:17Z</time>
      </trkpt>
      <trkpt lat="43.81945" lon="7.45227">
        <ele>781.66917563765</ele>
        <time>2021-01-27T09:25:19Z</time>
      </trkpt>
      <trkpt lat="43.81945" lon="7.45228">
        <ele>781.66916677119</ele>
        <time>2021-01-27T09:25:20Z</time>
      </trkpt>
      <trkpt lat="43.81945" lon="7.45229">
        <ele>781.66916993487</ele>
        <time>2021-01-27T09:25:21Z</time>
      </trkpt>
      <trkpt lat="43.81946" lon="7.45232">
        <ele>781.66917186246</ele>
        <time>2021-01-27T09:25:23Z</time>
      </trkpt>
      <trkpt lat="43.81946" lon="7.45233">
        <ele>782.6691639589</ele>
        <time>2021-01-27T09:25:24Z</time>
      </trkpt>
      <trkpt lat="43.81946" lon="7.45234">
        <ele>782.66917439245</ele>
        <time>2021-01-27T09:25:25Z</time>
      </trkpt>
      <trkpt lat="43.81947" lon="7.45235">
        <ele>782.66915805562</ele>
        <time>2021-01-27T09:25:27Z</time>
      </trkpt>
      <trkpt lat="43.81949" lon="7.45237">
        <ele>783.66907696843</ele>
        <time>2021-01-27T09:25:30Z</time>
      </trkpt>
      <trkpt lat="43.81949" lon="7.45238">
        <ele>783.66907969931</ele>
        <time>2021-01-27T09:25:31Z</time>
      </trkpt>
      <trkpt lat="43.8195" lon="7.45239">
        <ele>784.66906572663</ele>
        <time>2021-01-27T09:25:33Z</time>
      </trkpt>
      <trkpt lat="43.8195" lon="7.45239">
        <ele>784.66906572663</ele>
        <time>2021-01-27T09:25:35Z</time>
      </trkpt>
      <trkpt lat="43.81952" lon="7.4524">
        <ele>785.66898598863</ele>
        <time>2021-01-27T09:25:37Z</time>
      </trkpt>
      <trkpt lat="43.81953" lon="7.4524">
        <ele>785.66892918842</ele>
        <time>2021-01-27T09:25:39Z</time>
      </trkpt>
      <trkpt lat="43.81953" lon="7.4524">
        <ele>785.66892918842</ele>
        <time>2021-01-27T09:25:41Z</time>
      </trkpt>
      <trkpt lat="43.81954" lon="7.45241">
        <ele>786.66889653831</ele>
        <time>2021-01-27T09:25:42Z</time>
      </trkpt>
      <trkpt lat="43.81954" lon="7.45241">
        <ele>786.66887536831</ele>
        <time>2021-01-27T09:25:43Z</time>
      </trkpt>
      <trkpt lat="43.81955" lon="7.45242">
        <ele>786.66886731942</ele>
        <time>2021-01-27T09:25:44Z</time>
      </trkpt>
      <trkpt lat="43.81955" lon="7.45243">
        <ele>786.6688650686</ele>
        <time>2021-01-27T09:25:46Z</time>
      </trkpt>
      <trkpt lat="43.81956" lon="7.45244">
        <ele>785.66883067979</ele>
        <time>2021-01-27T09:25:48Z</time>
      </trkpt>
      <trkpt lat="43.81956" lon="7.45244">
        <ele>785.66881356167</ele>
        <time>2021-01-27T09:25:49Z</time>
      </trkpt>
      <trkpt lat="43.81957" lon="7.45244">
        <ele>786.66877998333</ele>
        <time>2021-01-27T09:25:50Z</time>
      </trkpt>
      <trkpt lat="43.81958" lon="7.45243">
        <ele>787.66874965883</ele>
        <time>2021-01-27T09:25:53Z</time>
      </trkpt>
      <trkpt lat="43.81958" lon="7.45246">
        <ele>788.66874397791</ele>
        <time>2021-01-27T09:25:54Z</time>
      </trkpt>
      <trkpt lat="43.81958" lon="7.45247">
        <ele>788.6687482733</ele>
        <time>2021-01-27T09:25:55Z</time>
      </trkpt>
      <trkpt lat="43.81958" lon="7.45248">
        <ele>789.66876081325</ele>
        <time>2021-01-27T09:25:57Z</time>
      </trkpt>
      <trkpt lat="43.81958" lon="7.45248">
        <ele>788.66879446171</ele>
        <time>2021-01-27T09:25:58Z</time>
      </trkpt>
      <trkpt lat="43.81957" lon="7.45248">
        <ele>788.66883777556</ele>
        <time>2021-01-27T09:26:00Z</time>
      </trkpt>
      <trkpt lat="43.81956" lon="7.45248">
        <ele>788.66887700688</ele>
        <time>2021-01-27T09:26:01Z</time>
      </trkpt>
      <trkpt lat="43.81955" lon="7.45248">
        <ele>788.66891303631</ele>
        <time>2021-01-27T09:26:02Z</time>
      </trkpt>
      <trkpt lat="43.81955" lon="7.45248">
        <ele>789.6689421142</ele>
        <time>2021-01-27T09:26:03Z</time>
      </trkpt>
      <trkpt lat="43.81954" lon="7.45249">
        <ele>789.66897590108</ele>
        <time>2021-01-27T09:26:05Z</time>
      </trkpt>
      <trkpt lat="43.81954" lon="7.45251">
        <ele>788.66899964973</ele>
        <time>2021-01-27T09:26:07Z</time>
      </trkpt>
      <trkpt lat="43.81953" lon="7.45251">
        <ele>788.66903198658</ele>
        <time>2021-01-27T09:26:10Z</time>
      </trkpt>
      <trkpt lat="43.81953" lon="7.45251">
        <ele>788.669057438</ele>
        <time>2021-01-27T09:26:11Z</time>
      </trkpt>
      <trkpt lat="43.8195" lon="7.45251">
        <ele>788.66918663884</ele>
        <time>2021-01-27T09:26:14Z</time>
      </trkpt>
      <trkpt lat="43.8195" lon="7.45251">
        <ele>788.66919525422</ele>
        <time>2021-01-27T09:26:15Z</time>
      </trkpt>
      <trkpt lat="43.81948" lon="7.45251">
        <ele>788.66926835774</ele>
        <time>2021-01-27T09:26:17Z</time>
      </trkpt>
      <trkpt lat="43.81948" lon="7.45251">
        <ele>788.66928777483</ele>
        <time>2021-01-27T09:26:19Z</time>
      </trkpt>
      <trkpt lat="43.81947" lon="7.4525">
        <ele>787.66932060777</ele>
        <time>2021-01-27T09:26:20Z</time>
      </trkpt>
      <trkpt lat="43.81946" lon="7.4525">
        <ele>787.66935543721</ele>
        <time>2021-01-27T09:26:21Z</time>
      </trkpt>
      <trkpt lat="43.81945" lon="7.4525">
        <ele>787.66942134913</ele>
        <time>2021-01-27T09:26:23Z</time>
      </trkpt>
      <trkpt lat="43.81945" lon="7.45251">
        <ele>787.66944760397</ele>
        <time>2021-01-27T09:26:24Z</time>
      </trkpt>
      <trkpt lat="43.81944" lon="7.45251">
        <ele>787.66947980186</ele>
        <time>2021-01-27T09:26:25Z</time>
      </trkpt>
      <trkpt lat="43.81943" lon="7.45251">
        <ele>787.66950389915</ele>
        <time>2021-01-27T09:26:28Z</time>
      </trkpt>
      <trkpt lat="43.81942" lon="7.45253">
        <ele>787.6696070464</ele>
        <time>2021-01-27T09:26:30Z</time>
      </trkpt>
      <trkpt lat="43.81942" lon="7.45254">
        <ele>788.66959708771</ele>
        <time>2021-01-27T09:26:32Z</time>
      </trkpt>
      <trkpt lat="43.81943" lon="7.45256">
        <ele>790.6695950987</ele>
        <time>2021-01-27T09:26:34Z</time>
      </trkpt>
      <trkpt lat="43.81943" lon="7.45256">
        <ele>790.66959022081</ele>
        <time>2021-01-27T09:26:37Z</time>
      </trkpt>
      <trkpt lat="43.81944" lon="7.45259">
        <ele>790.66955394218</ele>
        <time>2021-01-27T09:26:39Z</time>
      </trkpt>
      <trkpt lat="43.81945" lon="7.4526">
        <ele>791.66954197207</ele>
        <time>2021-01-27T09:26:43Z</time>
      </trkpt>
      <trkpt lat="43.81946" lon="7.45262">
        <ele>791.66951884321</ele>
        <time>2021-01-27T09:26:44Z</time>
      </trkpt>
      <trkpt lat="43.81946" lon="7.45263">
        <ele>791.66951447646</ele>
        <time>2021-01-27T09:26:45Z</time>
      </trkpt>
      <trkpt lat="43.81947" lon="7.45263">
        <ele>791.66948680651</ele>
        <time>2021-01-27T09:26:46Z</time>
      </trkpt>
      <trkpt lat="43.81947" lon="7.45264">
        <ele>791.66948209461</ele>
        <time>2021-01-27T09:26:49Z</time>
      </trkpt>
      <trkpt lat="43.81948" lon="7.45266">
        <ele>792.66943370549</ele>
        <time>2021-01-27T09:26:50Z</time>
      </trkpt>
      <trkpt lat="43.81949" lon="7.45267">
        <ele>793.66941933966</ele>
        <time>2021-01-27T09:26:51Z</time>
      </trkpt>
      <trkpt lat="43.81951" lon="7.45269">
        <ele>794.66936998004</ele>
        <time>2021-01-27T09:26:53Z</time>
      </trkpt>
      <trkpt lat="43.81951" lon="7.4527">
        <ele>794.66934620288</ele>
        <time>2021-01-27T09:26:54Z</time>
      </trkpt>
      <trkpt lat="43.81952" lon="7.45271">
        <ele>794.66933384355</ele>
        <time>2021-01-27T09:26:55Z</time>
      </trkpt>
      <trkpt lat="43.81953" lon="7.45274">
        <ele>794.66930999907</ele>
        <time>2021-01-27T09:26:57Z</time>
      </trkpt>
      <trkpt lat="43.81953" lon="7.45275">
        <ele>796.66930053443</ele>
        <time>2021-01-27T09:26:59Z</time>
      </trkpt>
      <trkpt lat="43.81953" lon="7.45275">
        <ele>796.66930053443</ele>
        <time>2021-01-27T09:27:01Z</time>
      </trkpt>
      <trkpt lat="43.81955" lon="7.45277">
        <ele>796.66926502305</ele>
        <time>2021-01-27T09:27:03Z</time>
      </trkpt>
      <trkpt lat="43.81955" lon="7.45278">
        <ele>797.66924837381</ele>
        <time>2021-01-27T09:27:04Z</time>
      </trkpt>
      <trkpt lat="43.81956" lon="7.45278">
        <ele>796.66922820968</ele>
        <time>2021-01-27T09:27:05Z</time>
      </trkpt>
      <trkpt lat="43.81956" lon="7.45279">
        <ele>796.6692343494</ele>
        <time>2021-01-27T09:27:07Z</time>
      </trkpt>
      <trkpt lat="43.81957" lon="7.4528">
        <ele>797.66917630544</ele>
        <time>2021-01-27T09:27:09Z</time>
      </trkpt>
      <trkpt lat="43.81958" lon="7.45281">
        <ele>798.66914008065</ele>
        <time>2021-01-27T09:27:10Z</time>
      </trkpt>
      <trkpt lat="43.81959" lon="7.4528">
        <ele>797.66908768548</ele>
        <time>2021-01-27T09:27:12Z</time>
      </trkpt>
      <trkpt lat="43.8196" lon="7.4528">
        <ele>797.66905211879</ele>
        <time>2021-01-27T09:27:13Z</time>
      </trkpt>
      <trkpt lat="43.8196" lon="7.45281">
        <ele>798.66904503799</ele>
        <time>2021-01-27T09:27:14Z</time>
      </trkpt>
      <trkpt lat="43.81961" lon="7.45281">
        <ele>798.66902475188</ele>
        <time>2021-01-27T09:27:15Z</time>
      </trkpt>
      <trkpt lat="43.81961" lon="7.45282">
        <ele>798.66899383998</ele>
        <time>2021-01-27T09:27:16Z</time>
      </trkpt>
      <trkpt lat="43.81963" lon="7.45284">
        <ele>798.6689487457</ele>
        <time>2021-01-27T09:27:18Z</time>
      </trkpt>
      <trkpt lat="43.81963" lon="7.45284">
        <ele>798.66893349437</ele>
        <time>2021-01-27T09:27:19Z</time>
      </trkpt>
      <trkpt lat="43.81964" lon="7.45285">
        <ele>799.66891745323</ele>
        <time>2021-01-27T09:27:20Z</time>
      </trkpt>
      <trkpt lat="43.81964" lon="7.45286">
        <ele>799.66890329277</ele>
        <time>2021-01-27T09:27:21Z</time>
      </trkpt>
      <trkpt lat="43.81965" lon="7.45287">
        <ele>800.66886661931</ele>
        <time>2021-01-27T09:27:22Z</time>
      </trkpt>
      <trkpt lat="43.81966" lon="7.45287">
        <ele>800.66883404476</ele>
        <time>2021-01-27T09:27:23Z</time>
      </trkpt>
      <trkpt lat="43.81966" lon="7.45288">
        <ele>800.66882447083</ele>
        <time>2021-01-27T09:27:24Z</time>
      </trkpt>
      <trkpt lat="43.81967" lon="7.45288">
        <ele>801.66879678378</ele>
        <time>2021-01-27T09:27:25Z</time>
      </trkpt>
      <trkpt lat="43.81968" lon="7.45288">
        <ele>801.66876135496</ele>
        <time>2021-01-27T09:27:27Z</time>
      </trkpt>
      <trkpt lat="43.81968" lon="7.45288">
        <ele>801.66875108651</ele>
        <time>2021-01-27T09:27:30Z</time>
      </trkpt>
      <trkpt lat="43.81971" lon="7.45291">
        <ele>803.66862975992</ele>
        <time>2021-01-27T09:27:33Z</time>
      </trkpt>
      <trkpt lat="43.81972" lon="7.45292">
        <ele>803.66861063506</ele>
        <time>2021-01-27T09:27:34Z</time>
      </trkpt>
      <trkpt lat="43.81973" lon="7.45293">
        <ele>804.66857797721</ele>
        <time>2021-01-27T09:27:35Z</time>
      </trkpt>
      <trkpt lat="43.81973" lon="7.45293">
        <ele>804.66853964486</ele>
        <time>2021-01-27T09:27:37Z</time>
      </trkpt>
      <trkpt lat="43.81976" lon="7.45294">
        <ele>805.66842448625</ele>
        <time>2021-01-27T09:27:40Z</time>
      </trkpt>
      <trkpt lat="43.81977" lon="7.45294">
        <ele>806.66838306518</ele>
        <time>2021-01-27T09:27:44Z</time>
      </trkpt>
      <trkpt lat="43.81978" lon="7.45295">
        <ele>806.66832944555</ele>
        <time>2021-01-27T09:27:45Z</time>
      </trkpt>
      <trkpt lat="43.8198" lon="7.45297">
        <ele>806.66828268906</ele>
        <time>2021-01-27T09:27:47Z</time>
      </trkpt>
      <trkpt lat="43.81981" lon="7.45297">
        <ele>807.66824168515</ele>
        <time>2021-01-27T09:27:48Z</time>
      </trkpt>
      <trkpt lat="43.81982" lon="7.45297">
        <ele>807.66820144379</ele>
        <time>2021-01-27T09:27:49Z</time>
      </trkpt>
      <trkpt lat="43.81983" lon="7.45297">
        <ele>807.66814370096</ele>
        <time>2021-01-27T09:27:50Z</time>
      </trkpt>
      <trkpt lat="43.81983" lon="7.45296">
        <ele>807.6681077922</ele>
        <time>2021-01-27T09:27:51Z</time>
      </trkpt>
      <trkpt lat="43.81984" lon="7.45297">
        <ele>807.66809438075</ele>
        <time>2021-01-27T09:27:52Z</time>
      </trkpt>
      <trkpt lat="43.81985" lon="7.45298">
        <ele>807.66806230916</ele>
        <time>2021-01-27T09:27:53Z</time>
      </trkpt>
      <trkpt lat="43.81986" lon="7.45299">
        <ele>807.66802682761</ele>
        <time>2021-01-27T09:27:54Z</time>
      </trkpt>
      <trkpt lat="43.81987" lon="7.45301">
        <ele>809.66799174799</ele>
        <time>2021-01-27T09:27:56Z</time>
      </trkpt>
      <trkpt lat="43.81987" lon="7.45301">
        <ele>809.66799174799</ele>
        <time>2021-01-27T09:27:58Z</time>
      </trkpt>
      <trkpt lat="43.81988" lon="7.45304">
        <ele>808.66799096133</ele>
        <time>2021-01-27T09:27:59Z</time>
      </trkpt>
      <trkpt lat="43.81988" lon="7.45305">
        <ele>808.66799528488</ele>
        <time>2021-01-27T09:28:00Z</time>
      </trkpt>
      <trkpt lat="43.81989" lon="7.45307">
        <ele>808.6679855555</ele>
        <time>2021-01-27T09:28:01Z</time>
      </trkpt>
      <trkpt lat="43.81989" lon="7.45308">
        <ele>809.66796293321</ele>
        <time>2021-01-27T09:28:02Z</time>
      </trkpt>
      <trkpt lat="43.81991" lon="7.4531">
        <ele>809.6679269562</ele>
        <time>2021-01-27T09:28:04Z</time>
      </trkpt>
      <trkpt lat="43.81991" lon="7.45311">
        <ele>808.66791738387</ele>
        <time>2021-01-27T09:28:05Z</time>
      </trkpt>
      <trkpt lat="43.81992" lon="7.45312">
        <ele>809.66789495375</ele>
        <time>2021-01-27T09:28:07Z</time>
      </trkpt>
      <trkpt lat="43.81992" lon="7.45312">
        <ele>810.66786224115</ele>
        <time>2021-01-27T09:28:08Z</time>
      </trkpt>
      <trkpt lat="43.81993" lon="7.45314">
        <ele>811.66783286395</ele>
        <time>2021-01-27T09:28:09Z</time>
      </trkpt>
      <trkpt lat="43.81994" lon="7.45314">
        <ele>811.66780953785</ele>
        <time>2021-01-27T09:28:10Z</time>
      </trkpt>
      <trkpt lat="43.81995" lon="7.45315">
        <ele>811.66777638893</ele>
        <time>2021-01-27T09:28:11Z</time>
      </trkpt>
      <trkpt lat="43.81996" lon="7.45316">
        <ele>813.66771133154</ele>
        <time>2021-01-27T09:28:13Z</time>
      </trkpt>
      <trkpt lat="43.81997" lon="7.45317">
        <ele>812.667695317</ele>
        <time>2021-01-27T09:28:14Z</time>
      </trkpt>
      <trkpt lat="43.81998" lon="7.45318">
        <ele>812.66766979223</ele>
        <time>2021-01-27T09:28:17Z</time>
      </trkpt>
      <trkpt lat="43.82" lon="7.45319">
        <ele>813.66759989329</ele>
        <time>2021-01-27T09:28:18Z</time>
      </trkpt>
      <trkpt lat="43.82" lon="7.4532">
        <ele>813.66757146674</ele>
        <time>2021-01-27T09:28:19Z</time>
      </trkpt>
      <trkpt lat="43.82001" lon="7.45321">
        <ele>813.66755528328</ele>
        <time>2021-01-27T09:28:20Z</time>
      </trkpt>
      <trkpt lat="43.82001" lon="7.45322">
        <ele>815.66757652349</ele>
        <time>2021-01-27T09:28:22Z</time>
      </trkpt>
      <trkpt lat="43.82" lon="7.45322">
        <ele>815.66763491453</ele>
        <time>2021-01-27T09:28:24Z</time>
      </trkpt>
      <trkpt lat="43.81999" lon="7.45322">
        <ele>815.66767963414</ele>
        <time>2021-01-27T09:28:25Z</time>
      </trkpt>
      <trkpt lat="43.81998" lon="7.45322">
        <ele>815.66771533842</ele>
        <time>2021-01-27T09:28:26Z</time>
      </trkpt>
      <trkpt lat="43.81997" lon="7.45322">
        <ele>815.66775145881</ele>
        <time>2021-01-27T09:28:28Z</time>
      </trkpt>
      <trkpt lat="43.81995" lon="7.45322">
        <ele>815.66782330945</ele>
        <time>2021-01-27T09:28:29Z</time>
      </trkpt>
      <trkpt lat="43.81994" lon="7.45322">
        <ele>815.66787815904</ele>
        <time>2021-01-27T09:28:30Z</time>
      </trkpt>
      <trkpt lat="43.81992" lon="7.45321">
        <ele>814.66795648687</ele>
        <time>2021-01-27T09:28:32Z</time>
      </trkpt>
      <trkpt lat="43.81991" lon="7.45321">
        <ele>814.66803814155</ele>
        <time>2021-01-27T09:28:34Z</time>
      </trkpt>
      <trkpt lat="43.8199" lon="7.45321">
        <ele>814.66806758394</ele>
        <time>2021-01-27T09:28:35Z</time>
      </trkpt>
      <trkpt lat="43.81989" lon="7.45321">
        <ele>813.66812213915</ele>
        <time>2021-01-27T09:28:36Z</time>
      </trkpt>
      <trkpt lat="43.81988" lon="7.45322">
        <ele>814.6681526608</ele>
        <time>2021-01-27T09:28:37Z</time>
      </trkpt>
      <trkpt lat="43.81988" lon="7.45322">
        <ele>814.668174097</ele>
        <time>2021-01-27T09:28:38Z</time>
      </trkpt>
      <trkpt lat="43.81987" lon="7.45322">
        <ele>814.66820815339</ele>
        <time>2021-01-27T09:28:39Z</time>
      </trkpt>
      <trkpt lat="43.81987" lon="7.45323">
        <ele>813.66824728129</ele>
        <time>2021-01-27T09:28:40Z</time>
      </trkpt>
      <trkpt lat="43.81986" lon="7.45326">
        <ele>812.66831093766</ele>
        <time>2021-01-27T09:28:42Z</time>
      </trkpt>
      <trkpt lat="43.81986" lon="7.45327">
        <ele>813.66830828885</ele>
        <time>2021-01-27T09:28:44Z</time>
      </trkpt>
      <trkpt lat="43.81986" lon="7.45328">
        <ele>813.66831267141</ele>
        <time>2021-01-27T09:28:45Z</time>
      </trkpt>
      <trkpt lat="43.81987" lon="7.45329">
        <ele>813.66831569953</ele>
        <time>2021-01-27T09:28:46Z</time>
      </trkpt>
      <trkpt lat="43.81987" lon="7.45329">
        <ele>814.66831012192</ele>
        <time>2021-01-27T09:28:49Z</time>
      </trkpt>
      <trkpt lat="43.81988" lon="7.45331">
        <ele>816.66830628186</ele>
        <time>2021-01-27T09:28:50Z</time>
      </trkpt>
      <trkpt lat="43.81987" lon="7.45333">
        <ele>817.66835082287</ele>
        <time>2021-01-27T09:28:52Z</time>
      </trkpt>
      <trkpt lat="43.81987" lon="7.45334">
        <ele>817.66838340553</ele>
        <time>2021-01-27T09:28:54Z</time>
      </trkpt>
      <trkpt lat="43.81987" lon="7.45335">
        <ele>817.66835500056</ele>
        <time>2021-01-27T09:28:58Z</time>
      </trkpt>
      <trkpt lat="43.81987" lon="7.45337">
        <ele>819.66840884831</ele>
        <time>2021-01-27T09:28:59Z</time>
      </trkpt>
      <trkpt lat="43.81987" lon="7.45338">
        <ele>819.66842374296</ele>
        <time>2021-01-27T09:29:00Z</time>
      </trkpt>
      <trkpt lat="43.81987" lon="7.45339">
        <ele>819.66841734271</ele>
        <time>2021-01-27T09:29:01Z</time>
      </trkpt>
      <trkpt lat="43.81988" lon="7.4534">
        <ele>819.66839655694</ele>
        <time>2021-01-27T09:29:03Z</time>
      </trkpt>
      <trkpt lat="43.81988" lon="7.4534">
        <ele>819.66839655694</ele>
        <time>2021-01-27T09:29:05Z</time>
      </trkpt>
      <trkpt lat="43.81989" lon="7.45343">
        <ele>821.66838267039</ele>
        <time>2021-01-27T09:29:07Z</time>
      </trkpt>
      <trkpt lat="43.81989" lon="7.45343">
        <ele>821.66839006784</ele>
        <time>2021-01-27T09:29:09Z</time>
      </trkpt>
      <trkpt lat="43.81989" lon="7.45344">
        <ele>821.6683557495</ele>
        <time>2021-01-27T09:29:10Z</time>
      </trkpt>
      <trkpt lat="43.8199" lon="7.45344">
        <ele>822.66833719793</ele>
        <time>2021-01-27T09:29:11Z</time>
      </trkpt>
      <trkpt lat="43.81991" lon="7.45345">
        <ele>823.66828419245</ele>
        <time>2021-01-27T09:29:13Z</time>
      </trkpt>
      <trkpt lat="43.81991" lon="7.45345">
        <ele>823.66828419245</ele>
        <time>2021-01-27T09:29:15Z</time>
      </trkpt>
      <trkpt lat="43.81993" lon="7.45346">
        <ele>823.66821119705</ele>
        <time>2021-01-27T09:29:16Z</time>
      </trkpt>
      <trkpt lat="43.81994" lon="7.45347">
        <ele>823.66819760406</ele>
        <time>2021-01-27T09:29:17Z</time>
      </trkpt>
      <trkpt lat="43.81995" lon="7.45349">
        <ele>824.66815543161</ele>
        <time>2021-01-27T09:29:19Z</time>
      </trkpt>
      <trkpt lat="43.81995" lon="7.4535">
        <ele>825.66816635529</ele>
        <time>2021-01-27T09:29:20Z</time>
      </trkpt>
      <trkpt lat="43.81995" lon="7.45351">
        <ele>825.66815589726</ele>
        <time>2021-01-27T09:29:21Z</time>
      </trkpt>
      <trkpt lat="43.81996" lon="7.45352">
        <ele>825.66814262621</ele>
        <time>2021-01-27T09:29:22Z</time>
      </trkpt>
      <trkpt lat="43.81996" lon="7.45353">
        <ele>825.66814512844</ele>
        <time>2021-01-27T09:29:23Z</time>
      </trkpt>
      <trkpt lat="43.81994" lon="7.45354">
        <ele>825.66824206845</ele>
        <time>2021-01-27T09:29:25Z</time>
      </trkpt>
      <trkpt lat="43.81994" lon="7.45355">
        <ele>826.66825644042</ele>
        <time>2021-01-27T09:29:29Z</time>
      </trkpt>
      <trkpt lat="43.81994" lon="7.45359">
        <ele>827.66827934519</ele>
        <time>2021-01-27T09:29:32Z</time>
      </trkpt>
      <trkpt lat="43.81995" lon="7.45359">
        <ele>827.66827333389</ele>
        <time>2021-01-27T09:29:35Z</time>
      </trkpt>
      <trkpt lat="43.81995" lon="7.45361">
        <ele>828.66828900267</ele>
        <time>2021-01-27T09:29:36Z</time>
      </trkpt>
      <trkpt lat="43.81995" lon="7.45362">
        <ele>829.66827574814</ele>
        <time>2021-01-27T09:29:38Z</time>
      </trkpt>
      <trkpt lat="43.81996" lon="7.45363">
        <ele>830.66826893252</ele>
        <time>2021-01-27T09:29:40Z</time>
      </trkpt>
      <trkpt lat="43.81998" lon="7.45366">
        <ele>830.6682218989</ele>
        <time>2021-01-27T09:29:44Z</time>
      </trkpt>
      <trkpt lat="43.81998" lon="7.45367">
        <ele>830.66822759646</ele>
        <time>2021-01-27T09:29:46Z</time>
      </trkpt>
      <trkpt lat="43.81999" lon="7.45369">
        <ele>831.66819424019</ele>
        <time>2021-01-27T09:29:48Z</time>
      </trkpt>
      <trkpt lat="43.81998" lon="7.45369">
        <ele>831.6682055838</ele>
        <time>2021-01-27T09:29:50Z</time>
      </trkpt>
      <trkpt lat="43.81999" lon="7.4537">
        <ele>832.66820391494</ele>
        <time>2021-01-27T09:29:55Z</time>
      </trkpt>
      <trkpt lat="43.81999" lon="7.45373">
        <ele>832.66823525016</ele>
        <time>2021-01-27T09:29:57Z</time>
      </trkpt>
      <trkpt lat="43.81999" lon="7.45374">
        <ele>831.66823163412</ele>
        <time>2021-01-27T09:29:59Z</time>
      </trkpt>
      <trkpt lat="43.82" lon="7.45374">
        <ele>831.66820169766</ele>
        <time>2021-01-27T09:30:01Z</time>
      </trkpt>
      <trkpt lat="43.82" lon="7.45373">
        <ele>830.66818218733</ele>
        <time>2021-01-27T09:30:02Z</time>
      </trkpt>
      <trkpt lat="43.82001" lon="7.45373">
        <ele>831.66815076347</ele>
        <time>2021-01-27T09:30:05Z</time>
      </trkpt>
      <trkpt lat="43.82002" lon="7.45375">
        <ele>831.66812066082</ele>
        <time>2021-01-27T09:30:07Z</time>
      </trkpt>
      <trkpt lat="43.82003" lon="7.45377">
        <ele>830.66807704291</ele>
        <time>2021-01-27T09:30:09Z</time>
      </trkpt>
      <trkpt lat="43.82004" lon="7.45378">
        <ele>831.66805754648</ele>
        <time>2021-01-27T09:30:10Z</time>
      </trkpt>
      <trkpt lat="43.82004" lon="7.45379">
        <ele>831.66805758393</ele>
        <time>2021-01-27T09:30:11Z</time>
      </trkpt>
      <trkpt lat="43.82004" lon="7.4538">
        <ele>831.66804957343</ele>
        <time>2021-01-27T09:30:13Z</time>
      </trkpt>
      <trkpt lat="43.82005" lon="7.4538">
        <ele>832.66802042511</ele>
        <time>2021-01-27T09:30:15Z</time>
      </trkpt>
      <trkpt lat="43.82008" lon="7.45382">
        <ele>832.66792502016</ele>
        <time>2021-01-27T09:30:19Z</time>
      </trkpt>
      <trkpt lat="43.82008" lon="7.45383">
        <ele>833.66790315471</ele>
        <time>2021-01-27T09:30:21Z</time>
      </trkpt>
      <trkpt lat="43.8201" lon="7.45385">
        <ele>834.66785265352</ele>
        <time>2021-01-27T09:30:24Z</time>
      </trkpt>
      <trkpt lat="43.8201" lon="7.45386">
        <ele>835.66783639626</ele>
        <time>2021-01-27T09:30:28Z</time>
      </trkpt>
      <trkpt lat="43.82011" lon="7.45387">
        <ele>835.66779220193</ele>
        <time>2021-01-27T09:30:29Z</time>
      </trkpt>
      <trkpt lat="43.82012" lon="7.45388">
        <ele>835.66777659623</ele>
        <time>2021-01-27T09:30:30Z</time>
      </trkpt>
      <trkpt lat="43.82012" lon="7.45388">
        <ele>835.66776229847</ele>
        <time>2021-01-27T09:30:31Z</time>
      </trkpt>
      <trkpt lat="43.82013" lon="7.45389">
        <ele>836.66775207738</ele>
        <time>2021-01-27T09:30:34Z</time>
      </trkpt>
      <trkpt lat="43.82014" lon="7.4539">
        <ele>836.66768672267</ele>
        <time>2021-01-27T09:30:35Z</time>
      </trkpt>
      <trkpt lat="43.82015" lon="7.4539">
        <ele>836.66766095323</ele>
        <time>2021-01-27T09:30:36Z</time>
      </trkpt>
      <trkpt lat="43.82016" lon="7.45391">
        <ele>836.66763779759</ele>
        <time>2021-01-27T09:30:37Z</time>
      </trkpt>
      <trkpt lat="43.82016" lon="7.45391">
        <ele>837.66760626325</ele>
        <time>2021-01-27T09:30:38Z</time>
      </trkpt>
      <trkpt lat="43.82017" lon="7.45391">
        <ele>836.66757474876</ele>
        <time>2021-01-27T09:30:39Z</time>
      </trkpt>
      <trkpt lat="43.82017" lon="7.45392">
        <ele>837.66756837838</ele>
        <time>2021-01-27T09:30:40Z</time>
      </trkpt>
      <trkpt lat="43.82018" lon="7.45394">
        <ele>839.66756071382</ele>
        <time>2021-01-27T09:30:42Z</time>
      </trkpt>
      <trkpt lat="43.82019" lon="7.45395">
        <ele>840.66753075867</ele>
        <time>2021-01-27T09:30:44Z</time>
      </trkpt>
      <trkpt lat="43.82019" lon="7.45395">
        <ele>841.66751340937</ele>
        <time>2021-01-27T09:30:45Z</time>
      </trkpt>
      <trkpt lat="43.8202" lon="7.45396">
        <ele>841.66748023082</ele>
        <time>2021-01-27T09:30:46Z</time>
      </trkpt>
      <trkpt lat="43.82021" lon="7.45397">
        <ele>840.66745148099</ele>
        <time>2021-01-27T09:30:47Z</time>
      </trkpt>
      <trkpt lat="43.82022" lon="7.45397">
        <ele>841.6674212879</ele>
        <time>2021-01-27T09:30:48Z</time>
      </trkpt>
      <trkpt lat="43.82022" lon="7.45398">
        <ele>841.66740348463</ele>
        <time>2021-01-27T09:30:49Z</time>
      </trkpt>
      <trkpt lat="43.82023" lon="7.45398">
        <ele>842.6673659604</ele>
        <time>2021-01-27T09:30:50Z</time>
      </trkpt>
      <trkpt lat="43.82024" lon="7.45399">
        <ele>842.66734059679</ele>
        <time>2021-01-27T09:30:51Z</time>
      </trkpt>
      <trkpt lat="43.82025" lon="7.45398">
        <ele>842.66727149721</ele>
        <time>2021-01-27T09:30:53Z</time>
      </trkpt>
      <trkpt lat="43.82026" lon="7.45399">
        <ele>842.66723693283</ele>
        <time>2021-01-27T09:30:54Z</time>
      </trkpt>
      <trkpt lat="43.82027" lon="7.45399">
        <ele>842.66720676587</ele>
        <time>2021-01-27T09:30:55Z</time>
      </trkpt>
      <trkpt lat="43.82028" lon="7.454">
        <ele>843.66715277114</ele>
        <time>2021-01-27T09:30:57Z</time>
      </trkpt>
      <trkpt lat="43.82029" lon="7.454">
        <ele>843.66709818311</ele>
        <time>2021-01-27T09:30:59Z</time>
      </trkpt>
      <trkpt lat="43.8203" lon="7.454">
        <ele>843.66705356936</ele>
        <time>2021-01-27T09:31:00Z</time>
      </trkpt>
      <trkpt lat="43.82031" lon="7.45401">
        <ele>843.66702713225</ele>
        <time>2021-01-27T09:31:01Z</time>
      </trkpt>
      <trkpt lat="43.82032" lon="7.454">
        <ele>843.66695019324</ele>
        <time>2021-01-27T09:31:03Z</time>
      </trkpt>
      <trkpt lat="43.82033" lon="7.45399">
        <ele>842.6668921829</ele>
        <time>2021-01-27T09:31:04Z</time>
      </trkpt>
      <trkpt lat="43.82034" lon="7.454">
        <ele>842.66685612715</ele>
        <time>2021-01-27T09:31:05Z</time>
      </trkpt>
      <trkpt lat="43.82036" lon="7.454">
        <ele>842.66678877906</ele>
        <time>2021-01-27T09:31:07Z</time>
      </trkpt>
      <trkpt lat="43.82037" lon="7.45402">
        <ele>842.66674385092</ele>
        <time>2021-01-27T09:31:09Z</time>
      </trkpt>
      <trkpt lat="43.82038" lon="7.45403">
        <ele>843.66671157749</ele>
        <time>2021-01-27T09:31:10Z</time>
      </trkpt>
      <trkpt lat="43.82039" lon="7.45403">
        <ele>843.6666632806</ele>
        <time>2021-01-27T09:31:11Z</time>
      </trkpt>
      <trkpt lat="43.82041" lon="7.45404">
        <ele>844.6665703086</ele>
        <time>2021-01-27T09:31:13Z</time>
      </trkpt>
      <trkpt lat="43.82042" lon="7.45405">
        <ele>845.66654069336</ele>
        <time>2021-01-27T09:31:14Z</time>
      </trkpt>
      <trkpt lat="43.82043" lon="7.45406">
        <ele>845.66650809448</ele>
        <time>2021-01-27T09:31:15Z</time>
      </trkpt>
      <trkpt lat="43.82044" lon="7.45407">
        <ele>845.66646226846</ele>
        <time>2021-01-27T09:31:16Z</time>
      </trkpt>
      <trkpt lat="43.82045" lon="7.45408">
        <ele>845.66643576163</ele>
        <time>2021-01-27T09:31:17Z</time>
      </trkpt>
      <trkpt lat="43.82046" lon="7.45408">
        <ele>846.66640329419</ele>
        <time>2021-01-27T09:31:18Z</time>
      </trkpt>
      <trkpt lat="43.82046" lon="7.45409">
        <ele>846.66638142044</ele>
        <time>2021-01-27T09:31:19Z</time>
      </trkpt>
      <trkpt lat="43.82047" lon="7.45409">
        <ele>846.66636202343</ele>
        <time>2021-01-27T09:31:20Z</time>
      </trkpt>
      <trkpt lat="43.82049" lon="7.45411">
        <ele>847.66630188</ele>
        <time>2021-01-27T09:31:22Z</time>
      </trkpt>
      <trkpt lat="43.8205" lon="7.45412">
        <ele>847.66626737176</ele>
        <time>2021-01-27T09:31:23Z</time>
      </trkpt>
      <trkpt lat="43.82051" lon="7.45413">
        <ele>848.66622325</ele>
        <time>2021-01-27T09:31:24Z</time>
      </trkpt>
      <trkpt lat="43.82052" lon="7.45413">
        <ele>847.66616222744</ele>
        <time>2021-01-27T09:31:25Z</time>
      </trkpt>
      <trkpt lat="43.82053" lon="7.45415">
        <ele>847.66611739199</ele>
        <time>2021-01-27T09:31:26Z</time>
      </trkpt>
      <trkpt lat="43.82055" lon="7.45415">
        <ele>847.66604979769</ele>
        <time>2021-01-27T09:31:28Z</time>
      </trkpt>
      <trkpt lat="43.82055" lon="7.45415">
        <ele>847.66603655817</ele>
        <time>2021-01-27T09:31:33Z</time>
      </trkpt>
      <trkpt lat="43.82056" lon="7.45413">
        <ele>846.6659724488</ele>
        <time>2021-01-27T09:31:34Z</time>
      </trkpt>
      <trkpt lat="43.82057" lon="7.45413">
        <ele>846.66593884888</ele>
        <time>2021-01-27T09:31:41Z</time>
      </trkpt>
      <trkpt lat="43.82055" lon="7.45412">
        <ele>845.66599466674</ele>
        <time>2021-01-27T09:31:45Z</time>
      </trkpt>
      <trkpt lat="43.82055" lon="7.45411">
        <ele>845.66599740551</ele>
        <time>2021-01-27T09:32:02Z</time>
      </trkpt>
      <trkpt lat="43.82055" lon="7.4541">
        <ele>846.66599479025</ele>
        <time>2021-01-27T09:32:04Z</time>
      </trkpt>
      <trkpt lat="43.82056" lon="7.45411">
        <ele>846.66596770788</ele>
        <time>2021-01-27T09:32:05Z</time>
      </trkpt>
      <trkpt lat="43.82056" lon="7.45412">
        <ele>846.66594669604</ele>
        <time>2021-01-27T09:32:06Z</time>
      </trkpt>
      <trkpt lat="43.82057" lon="7.45414">
        <ele>846.6659202571</ele>
        <time>2021-01-27T09:32:08Z</time>
      </trkpt>
      <trkpt lat="43.82058" lon="7.45415">
        <ele>846.66590942254</ele>
        <time>2021-01-27T09:32:10Z</time>
      </trkpt>
      <trkpt lat="43.82059" lon="7.45416">
        <ele>846.66587972441</ele>
        <time>2021-01-27T09:32:11Z</time>
      </trkpt>
      <trkpt lat="43.82059" lon="7.45417">
        <ele>846.66586161697</ele>
        <time>2021-01-27T09:32:12Z</time>
      </trkpt>
      <trkpt lat="43.8206" lon="7.45418">
        <ele>846.66585187465</ele>
        <time>2021-01-27T09:32:13Z</time>
      </trkpt>
      <trkpt lat="43.8206" lon="7.45418">
        <ele>846.66585109052</ele>
        <time>2021-01-27T09:32:14Z</time>
      </trkpt>
      <trkpt lat="43.82061" lon="7.45419">
        <ele>846.66582824063</ele>
        <time>2021-01-27T09:32:15Z</time>
      </trkpt>
      <trkpt lat="43.82061" lon="7.4542">
        <ele>846.66580873153</ele>
        <time>2021-01-27T09:32:18Z</time>
      </trkpt>
      <trkpt lat="43.82063" lon="7.45421">
        <ele>847.66574202148</ele>
        <time>2021-01-27T09:32:19Z</time>
      </trkpt>
      <trkpt lat="43.82064" lon="7.45422">
        <ele>847.66571421208</ele>
        <time>2021-01-27T09:32:20Z</time>
      </trkpt>
      <trkpt lat="43.82064" lon="7.45423">
        <ele>847.6656846966</ele>
        <time>2021-01-27T09:32:21Z</time>
      </trkpt>
      <trkpt lat="43.82066" lon="7.45425">
        <ele>848.66564278265</ele>
        <time>2021-01-27T09:32:23Z</time>
      </trkpt>
      <trkpt lat="43.82066" lon="7.45425">
        <ele>848.66563622542</ele>
        <time>2021-01-27T09:32:24Z</time>
      </trkpt>
      <trkpt lat="43.82067" lon="7.45426">
        <ele>847.66561627625</ele>
        <time>2021-01-27T09:32:25Z</time>
      </trkpt>
      <trkpt lat="43.82069" lon="7.4543">
        <ele>846.66556095911</ele>
        <time>2021-01-27T09:32:29Z</time>
      </trkpt>
      <trkpt lat="43.82069" lon="7.4543">
        <ele>846.66553816351</ele>
        <time>2021-01-27T09:32:31Z</time>
      </trkpt>
      <trkpt lat="43.8207" lon="7.45432">
        <ele>846.66550761821</ele>
        <time>2021-01-27T09:32:33Z</time>
      </trkpt>
      <trkpt lat="43.82071" lon="7.45433">
        <ele>846.66548416252</ele>
        <time>2021-01-27T09:32:34Z</time>
      </trkpt>
      <trkpt lat="43.82072" lon="7.45433">
        <ele>846.66545770008</ele>
        <time>2021-01-27T09:32:35Z</time>
      </trkpt>
      <trkpt lat="43.82073" lon="7.45434">
        <ele>846.66542166257</ele>
        <time>2021-01-27T09:32:37Z</time>
      </trkpt>
      <trkpt lat="43.82073" lon="7.45434">
        <ele>846.66542166257</ele>
        <time>2021-01-27T09:32:38Z</time>
      </trkpt>
      <trkpt lat="43.82074" lon="7.45436">
        <ele>846.66536414777</ele>
        <time>2021-01-27T09:32:39Z</time>
      </trkpt>
      <trkpt lat="43.82075" lon="7.45438">
        <ele>846.66533508806</ele>
        <time>2021-01-27T09:32:40Z</time>
      </trkpt>
      <trkpt lat="43.82076" lon="7.45437">
        <ele>845.66530262015</ele>
        <time>2021-01-27T09:32:41Z</time>
      </trkpt>
      <trkpt lat="43.82077" lon="7.45439">
        <ele>845.66526710536</ele>
        <time>2021-01-27T09:32:43Z</time>
      </trkpt>
      <trkpt lat="43.82078" lon="7.4544">
        <ele>845.66524116056</ele>
        <time>2021-01-27T09:32:44Z</time>
      </trkpt>
      <trkpt lat="43.82079" lon="7.45441">
        <ele>845.66520422819</ele>
        <time>2021-01-27T09:32:45Z</time>
      </trkpt>
      <trkpt lat="43.82079" lon="7.45444">
        <ele>845.66521424568</ele>
        <time>2021-01-27T09:32:46Z</time>
      </trkpt>
      <trkpt lat="43.8208" lon="7.45445">
        <ele>846.66520989774</ele>
        <time>2021-01-27T09:32:47Z</time>
      </trkpt>
      <trkpt lat="43.8208" lon="7.45447">
        <ele>847.6652208907</ele>
        <time>2021-01-27T09:32:48Z</time>
      </trkpt>
      <trkpt lat="43.8208" lon="7.45448">
        <ele>847.66522989039</ele>
        <time>2021-01-27T09:32:49Z</time>
      </trkpt>
      <trkpt lat="43.8208" lon="7.45449">
        <ele>848.6652286687</ele>
        <time>2021-01-27T09:32:50Z</time>
      </trkpt>
      <trkpt lat="43.8208" lon="7.4545">
        <ele>848.66527273717</ele>
        <time>2021-01-27T09:32:52Z</time>
      </trkpt>
      <trkpt lat="43.82079" lon="7.4545">
        <ele>849.6653084085</ele>
        <time>2021-01-27T09:32:54Z</time>
      </trkpt>
      <trkpt lat="43.82078" lon="7.45449">
        <ele>848.66535450209</ele>
        <time>2021-01-27T09:32:55Z</time>
      </trkpt>
      <trkpt lat="43.82077" lon="7.45448">
        <ele>848.66538083899</ele>
        <time>2021-01-27T09:32:56Z</time>
      </trkpt>
      <trkpt lat="43.82076" lon="7.45448">
        <ele>848.66541280132</ele>
        <time>2021-01-27T09:32:57Z</time>
      </trkpt>
      <trkpt lat="43.82075" lon="7.45448">
        <ele>847.66546055041</ele>
        <time>2021-01-27T09:32:58Z</time>
      </trkpt>
      <trkpt lat="43.82075" lon="7.45447">
        <ele>847.66548530563</ele>
        <time>2021-01-27T09:32:59Z</time>
      </trkpt>
      <trkpt lat="43.82074" lon="7.45447">
        <ele>846.66552959858</ele>
        <time>2021-01-27T09:33:00Z</time>
      </trkpt>
      <trkpt lat="43.82073" lon="7.45447">
        <ele>846.66553257113</ele>
        <time>2021-01-27T09:33:01Z</time>
      </trkpt>
      <trkpt lat="43.82071" lon="7.45446">
        <ele>846.66563448032</ele>
        <time>2021-01-27T09:33:06Z</time>
      </trkpt>
      <trkpt lat="43.8207" lon="7.45447">
        <ele>845.66568571392</ele>
        <time>2021-01-27T09:33:07Z</time>
      </trkpt>
      <trkpt lat="43.82068" lon="7.45446">
        <ele>844.66577998964</ele>
        <time>2021-01-27T09:33:09Z</time>
      </trkpt>
      <trkpt lat="43.82067" lon="7.45445">
        <ele>844.66582534661</ele>
        <time>2021-01-27T09:33:10Z</time>
      </trkpt>
      <trkpt lat="43.82066" lon="7.45445">
        <ele>844.66586494008</ele>
        <time>2021-01-27T09:33:11Z</time>
      </trkpt>
      <trkpt lat="43.82064" lon="7.45444">
        <ele>844.66594359874</ele>
        <time>2021-01-27T09:33:13Z</time>
      </trkpt>
      <trkpt lat="43.82063" lon="7.45443">
        <ele>844.66598337229</ele>
        <time>2021-01-27T09:33:14Z</time>
      </trkpt>
      <trkpt lat="43.82062" lon="7.45443">
        <ele>844.66601177912</ele>
        <time>2021-01-27T09:33:15Z</time>
      </trkpt>
      <trkpt lat="43.8206" lon="7.45442">
        <ele>843.66609823135</ele>
        <time>2021-01-27T09:33:17Z</time>
      </trkpt>
      <trkpt lat="43.82059" lon="7.45442">
        <ele>843.66616392715</ele>
        <time>2021-01-27T09:33:19Z</time>
      </trkpt>
      <trkpt lat="43.82058" lon="7.45442">
        <ele>843.66621625265</ele>
        <time>2021-01-27T09:33:20Z</time>
      </trkpt>
      <trkpt lat="43.82057" lon="7.45441">
        <ele>843.66623990066</ele>
        <time>2021-01-27T09:33:21Z</time>
      </trkpt>
      <trkpt lat="43.82056" lon="7.4544">
        <ele>842.66629418911</ele>
        <time>2021-01-27T09:33:23Z</time>
      </trkpt>
      <trkpt lat="43.82055" lon="7.4544">
        <ele>842.66632171854</ele>
        <time>2021-01-27T09:33:24Z</time>
      </trkpt>
      <trkpt lat="43.82054" lon="7.4544">
        <ele>842.66636618238</ele>
        <time>2021-01-27T09:33:25Z</time>
      </trkpt>
      <trkpt lat="43.82053" lon="7.4544">
        <ele>842.66643864396</ele>
        <time>2021-01-27T09:33:27Z</time>
      </trkpt>
      <trkpt lat="43.8205" lon="7.45439">
        <ele>842.66655859724</ele>
        <time>2021-01-27T09:33:29Z</time>
      </trkpt>
      <trkpt lat="43.82049" lon="7.45439">
        <ele>842.66662549531</ele>
        <time>2021-01-27T09:33:30Z</time>
      </trkpt>
      <trkpt lat="43.82048" lon="7.4544">
        <ele>842.66667066727</ele>
        <time>2021-01-27T09:33:31Z</time>
      </trkpt>
      <trkpt lat="43.82047" lon="7.4544">
        <ele>842.66672841334</ele>
        <time>2021-01-27T09:33:32Z</time>
      </trkpt>
      <trkpt lat="43.82046" lon="7.45441">
        <ele>842.6667849219</ele>
        <time>2021-01-27T09:33:33Z</time>
      </trkpt>
      <trkpt lat="43.82045" lon="7.45441">
        <ele>841.66683064723</ele>
        <time>2021-01-27T09:33:34Z</time>
      </trkpt>
      <trkpt lat="43.82044" lon="7.45442">
        <ele>842.666878996</ele>
        <time>2021-01-27T09:33:35Z</time>
      </trkpt>
      <trkpt lat="43.82043" lon="7.45443">
        <ele>842.66693033625</ele>
        <time>2021-01-27T09:33:36Z</time>
      </trkpt>
      <trkpt lat="43.82041" lon="7.45445">
        <ele>841.66702689821</ele>
        <time>2021-01-27T09:33:38Z</time>
      </trkpt>
      <trkpt lat="43.82041" lon="7.45445">
        <ele>842.66705137263</ele>
        <time>2021-01-27T09:33:39Z</time>
      </trkpt>
      <trkpt lat="43.82041" lon="7.45446">
        <ele>841.66708020016</ele>
        <time>2021-01-27T09:33:40Z</time>
      </trkpt>
      <trkpt lat="43.8204" lon="7.45447">
        <ele>841.66710602277</ele>
        <time>2021-01-27T09:33:41Z</time>
      </trkpt>
      <trkpt lat="43.82039" lon="7.45447">
        <ele>842.66715384101</ele>
        <time>2021-01-27T09:33:42Z</time>
      </trkpt>
      <trkpt lat="43.82038" lon="7.45447">
        <ele>842.66719672045</ele>
        <time>2021-01-27T09:33:43Z</time>
      </trkpt>
      <trkpt lat="43.82038" lon="7.45448">
        <ele>842.66724272371</ele>
        <time>2021-01-27T09:33:44Z</time>
      </trkpt>
      <trkpt lat="43.82037" lon="7.45448">
        <ele>843.66728519718</ele>
        <time>2021-01-27T09:33:45Z</time>
      </trkpt>
      <trkpt lat="43.82035" lon="7.45449">
        <ele>843.66737975545</ele>
        <time>2021-01-27T09:33:47Z</time>
      </trkpt>
      <trkpt lat="43.82033" lon="7.4545">
        <ele>843.66748326146</ele>
        <time>2021-01-27T09:33:49Z</time>
      </trkpt>
      <trkpt lat="43.82032" lon="7.45451">
        <ele>843.66753314259</ele>
        <time>2021-01-27T09:33:50Z</time>
      </trkpt>
      <trkpt lat="43.82032" lon="7.45452">
        <ele>844.66755166192</ele>
        <time>2021-01-27T09:33:51Z</time>
      </trkpt>
      <trkpt lat="43.82031" lon="7.45452">
        <ele>844.66759779813</ele>
        <time>2021-01-27T09:33:52Z</time>
      </trkpt>
      <trkpt lat="43.8203" lon="7.45452">
        <ele>844.66765445554</ele>
        <time>2021-01-27T09:33:53Z</time>
      </trkpt>
      <trkpt lat="43.82029" lon="7.45452">
        <ele>845.66771272304</ele>
        <time>2021-01-27T09:33:54Z</time>
      </trkpt>
      <trkpt lat="43.82028" lon="7.45452">
        <ele>845.66775062237</ele>
        <time>2021-01-27T09:33:55Z</time>
      </trkpt>
      <trkpt lat="43.82027" lon="7.45454">
        <ele>845.66782117725</ele>
        <time>2021-01-27T09:33:57Z</time>
      </trkpt>
      <trkpt lat="43.82025" lon="7.45456">
        <ele>846.66792888169</ele>
        <time>2021-01-27T09:33:59Z</time>
      </trkpt>
      <trkpt lat="43.82024" lon="7.45457">
        <ele>846.66797715175</ele>
        <time>2021-01-27T09:34:00Z</time>
      </trkpt>
      <trkpt lat="43.82024" lon="7.45458">
        <ele>847.66801844281</ele>
        <time>2021-01-27T09:34:01Z</time>
      </trkpt>
      <trkpt lat="43.82023" lon="7.4546">
        <ele>848.66806387298</ele>
        <time>2021-01-27T09:34:03Z</time>
      </trkpt>
      <trkpt lat="43.82024" lon="7.4546">
        <ele>850.66803376872</ele>
        <time>2021-01-27T09:34:34Z</time>
      </trkpt>
      <trkpt lat="43.82024" lon="7.45463">
        <ele>850.66804923043</ele>
        <time>2021-01-27T09:34:37Z</time>
      </trkpt>
      <trkpt lat="43.82024" lon="7.45464">
        <ele>850.6680687585</ele>
        <time>2021-01-27T09:34:44Z</time>
      </trkpt>
      <trkpt lat="43.82023" lon="7.45465">
        <ele>849.66813792187</ele>
        <time>2021-01-27T09:34:45Z</time>
      </trkpt>
      <trkpt lat="43.82023" lon="7.45464">
        <ele>850.66810668164</ele>
        <time>2021-01-27T09:36:16Z</time>
      </trkpt>
      <trkpt lat="43.82023" lon="7.45466">
        <ele>855.66814690936</ele>
        <time>2021-01-27T09:37:03Z</time>
      </trkpt>
      <trkpt lat="43.82023" lon="7.45466">
        <ele>858.66812567764</ele>
        <time>2021-01-27T09:38:19Z</time>
      </trkpt>
      <trkpt lat="43.82024" lon="7.45467">
        <ele>859.66810207793</ele>
        <time>2021-01-27T09:38:20Z</time>
      </trkpt>
      <trkpt lat="43.82023" lon="7.45467">
        <ele>858.66812288578</ele>
        <time>2021-01-27T09:40:31Z</time>
      </trkpt>
      <trkpt lat="43.82023" lon="7.45468">
        <ele>857.66815467511</ele>
        <time>2021-01-27T09:40:32Z</time>
      </trkpt>
      <trkpt lat="43.82022" lon="7.45468">
        <ele>856.66818197636</ele>
        <time>2021-01-27T09:40:33Z</time>
      </trkpt>
      <trkpt lat="43.82022" lon="7.45467">
        <ele>856.66819479103</ele>
        <time>2021-01-27T09:40:34Z</time>
      </trkpt>
      <trkpt lat="43.82022" lon="7.45467">
        <ele>859.66821333009</ele>
        <time>2021-01-27T09:43:07Z</time>
      </trkpt>
      <trkpt lat="43.82021" lon="7.45468">
        <ele>859.66825435744</ele>
        <time>2021-01-27T09:43:09Z</time>
      </trkpt>
      <trkpt lat="43.8202" lon="7.45469">
        <ele>860.6682873669</ele>
        <time>2021-01-27T09:43:11Z</time>
      </trkpt>
      <trkpt lat="43.82019" lon="7.45471">
        <ele>859.6683569657</ele>
        <time>2021-01-27T09:43:13Z</time>
      </trkpt>
      <trkpt lat="43.82019" lon="7.45472">
        <ele>860.66837368928</ele>
        <time>2021-01-27T09:43:14Z</time>
      </trkpt>
      <trkpt lat="43.82019" lon="7.45473">
        <ele>860.66840694688</ele>
        <time>2021-01-27T09:43:15Z</time>
      </trkpt>
      <trkpt lat="43.82019" lon="7.45474">
        <ele>861.66843236127</ele>
        <time>2021-01-27T09:43:16Z</time>
      </trkpt>
      <trkpt lat="43.82019" lon="7.45475">
        <ele>861.66843204032</ele>
        <time>2021-01-27T09:43:17Z</time>
      </trkpt>
      <trkpt lat="43.82018" lon="7.45478">
        <ele>860.66848178304</ele>
        <time>2021-01-27T09:43:19Z</time>
      </trkpt>
      <trkpt lat="43.82018" lon="7.45478">
        <ele>859.66850322829</ele>
        <time>2021-01-27T09:43:20Z</time>
      </trkpt>
      <trkpt lat="43.82018" lon="7.45479">
        <ele>860.66852436145</ele>
        <time>2021-01-27T09:43:21Z</time>
      </trkpt>
      <trkpt lat="43.82017" lon="7.4548">
        <ele>860.66855545324</ele>
        <time>2021-01-27T09:43:22Z</time>
      </trkpt>
      <trkpt lat="43.82017" lon="7.45481">
        <ele>860.66857909984</ele>
        <time>2021-01-27T09:43:23Z</time>
      </trkpt>
      <trkpt lat="43.82017" lon="7.45482">
        <ele>861.66859303713</ele>
        <time>2021-01-27T09:43:24Z</time>
      </trkpt>
      <trkpt lat="43.82017" lon="7.45483">
        <ele>862.66860036451</ele>
        <time>2021-01-27T09:43:25Z</time>
      </trkpt>
      <trkpt lat="43.82017" lon="7.45483">
        <ele>862.66862541422</ele>
        <time>2021-01-27T09:43:26Z</time>
      </trkpt>
      <trkpt lat="43.82017" lon="7.45485">
        <ele>862.66864279372</ele>
        <time>2021-01-27T09:43:28Z</time>
      </trkpt>
      <trkpt lat="43.82017" lon="7.45486">
        <ele>863.66866794977</ele>
        <time>2021-01-27T09:43:29Z</time>
      </trkpt>
      <trkpt lat="43.82016" lon="7.45488">
        <ele>862.66871095502</ele>
        <time>2021-01-27T09:43:30Z</time>
      </trkpt>
      <trkpt lat="43.82016" lon="7.45492">
        <ele>863.66876133319</ele>
        <time>2021-01-27T09:43:32Z</time>
      </trkpt>
      <trkpt lat="43.82016" lon="7.45495">
        <ele>863.66880738731</ele>
        <time>2021-01-27T09:43:34Z</time>
      </trkpt>
      <trkpt lat="43.82015" lon="7.45495">
        <ele>863.66882657458</ele>
        <time>2021-01-27T09:43:35Z</time>
      </trkpt>
      <trkpt lat="43.82015" lon="7.45497">
        <ele>864.66885120822</ele>
        <time>2021-01-27T09:43:36Z</time>
      </trkpt>
      <trkpt lat="43.82016" lon="7.45499">
        <ele>865.66882001619</ele>
        <time>2021-01-27T09:43:38Z</time>
      </trkpt>
      <trkpt lat="43.82017" lon="7.455">
        <ele>865.66882080014</ele>
        <time>2021-01-27T09:43:39Z</time>
      </trkpt>
      <trkpt lat="43.82017" lon="7.45501">
        <ele>866.66882078262</ele>
        <time>2021-01-27T09:43:40Z</time>
      </trkpt>
      <trkpt lat="43.82017" lon="7.45503">
        <ele>865.6688217597</ele>
        <time>2021-01-27T09:43:42Z</time>
      </trkpt>
      <trkpt lat="43.82018" lon="7.45506">
        <ele>867.66883285112</ele>
        <time>2021-01-27T09:43:44Z</time>
      </trkpt>
      <trkpt lat="43.82018" lon="7.45507">
        <ele>867.66883041409</ele>
        <time>2021-01-27T09:43:45Z</time>
      </trkpt>
      <trkpt lat="43.82018" lon="7.45508">
        <ele>867.66883306264</ele>
        <time>2021-01-27T09:43:46Z</time>
      </trkpt>
      <trkpt lat="43.82018" lon="7.4551">
        <ele>868.66886318188</ele>
        <time>2021-01-27T09:43:48Z</time>
      </trkpt>
      <trkpt lat="43.82018" lon="7.45512">
        <ele>868.6688902648</ele>
        <time>2021-01-27T09:43:49Z</time>
      </trkpt>
      <trkpt lat="43.82018" lon="7.45513">
        <ele>868.66891483065</ele>
        <time>2021-01-27T09:43:50Z</time>
      </trkpt>
      <trkpt lat="43.82018" lon="7.45515">
        <ele>868.66892546347</ele>
        <time>2021-01-27T09:43:51Z</time>
      </trkpt>
      <trkpt lat="43.82018" lon="7.45516">
        <ele>869.66892382136</ele>
        <time>2021-01-27T09:43:52Z</time>
      </trkpt>
      <trkpt lat="43.82018" lon="7.45517">
        <ele>869.66893085114</ele>
        <time>2021-01-27T09:43:53Z</time>
      </trkpt>
      <trkpt lat="43.82019" lon="7.45518">
        <ele>869.66892079532</ele>
        <time>2021-01-27T09:43:54Z</time>
      </trkpt>
      <trkpt lat="43.82019" lon="7.45519">
        <ele>869.66892882409</ele>
        <time>2021-01-27T09:43:55Z</time>
      </trkpt>
      <trkpt lat="43.82019" lon="7.45522">
        <ele>869.66894518366</ele>
        <time>2021-01-27T09:43:57Z</time>
      </trkpt>
      <trkpt lat="43.82019" lon="7.45523">
        <ele>870.66897360128</ele>
        <time>2021-01-27T09:43:59Z</time>
      </trkpt>
      <trkpt lat="43.82019" lon="7.45524">
        <ele>871.66898096218</ele>
        <time>2021-01-27T09:44:00Z</time>
      </trkpt>
      <trkpt lat="43.82019" lon="7.45525">
        <ele>871.66898797551</ele>
        <time>2021-01-27T09:44:01Z</time>
      </trkpt>
      <trkpt lat="43.82019" lon="7.45526">
        <ele>871.66900344978</ele>
        <time>2021-01-27T09:44:02Z</time>
      </trkpt>
      <trkpt lat="43.82019" lon="7.45527">
        <ele>872.66899043555</ele>
        <time>2021-01-27T09:44:03Z</time>
      </trkpt>
      <trkpt lat="43.82019" lon="7.45528">
        <ele>871.66900825521</ele>
        <time>2021-01-27T09:44:04Z</time>
      </trkpt>
      <trkpt lat="43.8202" lon="7.4553">
        <ele>871.66900315077</ele>
        <time>2021-01-27T09:44:05Z</time>
      </trkpt>
      <trkpt lat="43.8202" lon="7.45531">
        <ele>871.66899868036</ele>
        <time>2021-01-27T09:44:07Z</time>
      </trkpt>
      <trkpt lat="43.82021" lon="7.45532">
        <ele>871.66897630834</ele>
        <time>2021-01-27T09:44:08Z</time>
      </trkpt>
      <trkpt lat="43.82022" lon="7.45532">
        <ele>871.6689390499</ele>
        <time>2021-01-27T09:44:09Z</time>
      </trkpt>
      <trkpt lat="43.82022" lon="7.45532">
        <ele>871.66890826169</ele>
        <time>2021-01-27T09:44:10Z</time>
      </trkpt>
      <trkpt lat="43.82023" lon="7.45531">
        <ele>871.66886251272</ele>
        <time>2021-01-27T09:44:11Z</time>
      </trkpt>
      <trkpt lat="43.82024" lon="7.45531">
        <ele>871.66882509286</ele>
        <time>2021-01-27T09:44:12Z</time>
      </trkpt>
      <trkpt lat="43.82025" lon="7.45529">
        <ele>871.66873945174</ele>
        <time>2021-01-27T09:44:14Z</time>
      </trkpt>
      <trkpt lat="43.82026" lon="7.45529">
        <ele>871.66870096876</ele>
        <time>2021-01-27T09:44:15Z</time>
      </trkpt>
      <trkpt lat="43.82027" lon="7.45528">
        <ele>871.66865461137</ele>
        <time>2021-01-27T09:44:16Z</time>
      </trkpt>
      <trkpt lat="43.82028" lon="7.45527">
        <ele>871.66856782015</ele>
        <time>2021-01-27T09:44:18Z</time>
      </trkpt>
      <trkpt lat="43.82029" lon="7.45526">
        <ele>871.66853045773</ele>
        <time>2021-01-27T09:44:19Z</time>
      </trkpt>
      <trkpt lat="43.8203" lon="7.45526">
        <ele>870.66849944018</ele>
        <time>2021-01-27T09:44:20Z</time>
      </trkpt>
      <trkpt lat="43.82031" lon="7.45525">
        <ele>870.66843123612</ele>
        <time>2021-01-27T09:44:22Z</time>
      </trkpt>
      <trkpt lat="43.82033" lon="7.45523">
        <ele>870.66831938527</ele>
        <time>2021-01-27T09:44:24Z</time>
      </trkpt>
      <trkpt lat="43.82034" lon="7.45523">
        <ele>870.66826780657</ele>
        <time>2021-01-27T09:44:25Z</time>
      </trkpt>
      <trkpt lat="43.82035" lon="7.45522">
        <ele>870.66820814827</ele>
        <time>2021-01-27T09:44:26Z</time>
      </trkpt>
      <trkpt lat="43.82036" lon="7.45521">
        <ele>870.66813831568</ele>
        <time>2021-01-27T09:44:28Z</time>
      </trkpt>
      <trkpt lat="43.82036" lon="7.45519">
        <ele>869.66810301878</ele>
        <time>2021-01-27T09:44:29Z</time>
      </trkpt>
      <trkpt lat="43.82037" lon="7.45519">
        <ele>869.668061377</ele>
        <time>2021-01-27T09:44:30Z</time>
      </trkpt>
      <trkpt lat="43.82039" lon="7.45518">
        <ele>869.66796535309</ele>
        <time>2021-01-27T09:44:32Z</time>
      </trkpt>
      <trkpt lat="43.82041" lon="7.45518">
        <ele>869.66787646999</ele>
        <time>2021-01-27T09:44:34Z</time>
      </trkpt>
      <trkpt lat="43.82041" lon="7.45518">
        <ele>869.66784931475</ele>
        <time>2021-01-27T09:44:35Z</time>
      </trkpt>
      <trkpt lat="43.82042" lon="7.45517">
        <ele>869.66780889545</ele>
        <time>2021-01-27T09:44:36Z</time>
      </trkpt>
      <trkpt lat="43.82043" lon="7.45517">
        <ele>869.66775141586</ele>
        <time>2021-01-27T09:44:37Z</time>
      </trkpt>
      <trkpt lat="43.82044" lon="7.45516">
        <ele>869.66770889628</ele>
        <time>2021-01-27T09:44:38Z</time>
      </trkpt>
      <trkpt lat="43.82045" lon="7.45516">
        <ele>869.66766773168</ele>
        <time>2021-01-27T09:44:39Z</time>
      </trkpt>
      <trkpt lat="43.82046" lon="7.45516">
        <ele>870.66763518573</ele>
        <time>2021-01-27T09:44:40Z</time>
      </trkpt>
      <trkpt lat="43.82046" lon="7.45517">
        <ele>869.66759823866</ele>
        <time>2021-01-27T09:44:41Z</time>
      </trkpt>
      <trkpt lat="43.82048" lon="7.45516">
        <ele>870.66753537899</ele>
        <time>2021-01-27T09:44:43Z</time>
      </trkpt>
      <trkpt lat="43.82048" lon="7.45517">
        <ele>871.66751572709</ele>
        <time>2021-01-27T09:44:44Z</time>
      </trkpt>
      <trkpt lat="43.82049" lon="7.45517">
        <ele>872.66746786592</ele>
        <time>2021-01-27T09:44:45Z</time>
      </trkpt>
      <trkpt lat="43.8205" lon="7.45518">
        <ele>874.66745884898</ele>
        <time>2021-01-27T09:44:46Z</time>
      </trkpt>
      <trkpt lat="43.8205" lon="7.45518">
        <ele>874.66743509977</ele>
        <time>2021-01-27T09:44:47Z</time>
      </trkpt>
      <trkpt lat="43.82051" lon="7.45518">
        <ele>874.66741881194</ele>
        <time>2021-01-27T09:44:48Z</time>
      </trkpt>
      <trkpt lat="43.82051" lon="7.45519">
        <ele>873.66739944838</ele>
        <time>2021-01-27T09:44:49Z</time>
      </trkpt>
      <trkpt lat="43.82052" lon="7.4552">
        <ele>873.66737456199</ele>
        <time>2021-01-27T09:44:50Z</time>
      </trkpt>
      <trkpt lat="43.82054" lon="7.45524">
        <ele>873.66732082441</ele>
        <time>2021-01-27T09:44:52Z</time>
      </trkpt>
      <trkpt lat="43.82055" lon="7.45526">
        <ele>874.66729754721</ele>
        <time>2021-01-27T09:44:54Z</time>
      </trkpt>
      <trkpt lat="43.82055" lon="7.45527">
        <ele>874.66730002625</ele>
        <time>2021-01-27T09:44:55Z</time>
      </trkpt>
      <trkpt lat="43.82056" lon="7.45527">
        <ele>875.66727670545</ele>
        <time>2021-01-27T09:44:58Z</time>
      </trkpt>
      <trkpt lat="43.82056" lon="7.45528">
        <ele>875.66726045935</ele>
        <time>2021-01-27T09:44:59Z</time>
      </trkpt>
      <trkpt lat="43.82056" lon="7.45529">
        <ele>875.6672734653</ele>
        <time>2021-01-27T09:45:00Z</time>
      </trkpt>
      <trkpt lat="43.82057" lon="7.4553">
        <ele>876.66723929496</ele>
        <time>2021-01-27T09:45:01Z</time>
      </trkpt>
      <trkpt lat="43.82059" lon="7.45532">
        <ele>877.66719769026</ele>
        <time>2021-01-27T09:45:03Z</time>
      </trkpt>
      <trkpt lat="43.82059" lon="7.45534">
        <ele>877.66718105311</ele>
        <time>2021-01-27T09:45:04Z</time>
      </trkpt>
      <trkpt lat="43.8206" lon="7.45535">
        <ele>878.66715503846</ele>
        <time>2021-01-27T09:45:05Z</time>
      </trkpt>
      <trkpt lat="43.82061" lon="7.45538">
        <ele>879.66714396402</ele>
        <time>2021-01-27T09:45:07Z</time>
      </trkpt>
      <trkpt lat="43.82063" lon="7.45541">
        <ele>878.6671091989</ele>
        <time>2021-01-27T09:45:09Z</time>
      </trkpt>
      <trkpt lat="43.82063" lon="7.45541">
        <ele>878.66707340684</ele>
        <time>2021-01-27T09:45:10Z</time>
      </trkpt>
      <trkpt lat="43.82064" lon="7.45541">
        <ele>877.66703067001</ele>
        <time>2021-01-27T09:45:11Z</time>
      </trkpt>
      <trkpt lat="43.82065" lon="7.45542">
        <ele>878.667007939</ele>
        <time>2021-01-27T09:45:13Z</time>
      </trkpt>
      <trkpt lat="43.82066" lon="7.45543">
        <ele>878.66699215368</ele>
        <time>2021-01-27T09:45:14Z</time>
      </trkpt>
      <trkpt lat="43.82067" lon="7.45544">
        <ele>878.66696537218</ele>
        <time>2021-01-27T09:45:15Z</time>
      </trkpt>
      <trkpt lat="43.82067" lon="7.45545">
        <ele>878.66695686054</ele>
        <time>2021-01-27T09:45:16Z</time>
      </trkpt>
      <trkpt lat="43.82067" lon="7.45546">
        <ele>878.6669422343</ele>
        <time>2021-01-27T09:45:17Z</time>
      </trkpt>
      <trkpt lat="43.82068" lon="7.45546">
        <ele>878.66691932302</ele>
        <time>2021-01-27T09:45:18Z</time>
      </trkpt>
      <trkpt lat="43.82068" lon="7.45547">
        <ele>878.66690166618</ele>
        <time>2021-01-27T09:45:19Z</time>
      </trkpt>
      <trkpt lat="43.82069" lon="7.45547">
        <ele>878.66688976862</ele>
        <time>2021-01-27T09:45:20Z</time>
      </trkpt>
      <trkpt lat="43.82069" lon="7.45549">
        <ele>878.66687932684</ele>
        <time>2021-01-27T09:45:22Z</time>
      </trkpt>
      <trkpt lat="43.8207" lon="7.4555">
        <ele>879.6668577876</ele>
        <time>2021-01-27T09:45:23Z</time>
      </trkpt>
      <trkpt lat="43.82071" lon="7.45551">
        <ele>879.66684614045</ele>
        <time>2021-01-27T09:45:24Z</time>
      </trkpt>
      <trkpt lat="43.82071" lon="7.45551">
        <ele>878.66681722596</ele>
        <time>2021-01-27T09:45:26Z</time>
      </trkpt>
      <trkpt lat="43.82072" lon="7.45551">
        <ele>878.66680209105</ele>
        <time>2021-01-27T09:45:27Z</time>
      </trkpt>
      <trkpt lat="43.82073" lon="7.45554">
        <ele>878.66677229957</ele>
        <time>2021-01-27T09:45:29Z</time>
      </trkpt>
      <trkpt lat="43.82073" lon="7.45555">
        <ele>878.66676435953</ele>
        <time>2021-01-27T09:45:30Z</time>
      </trkpt>
      <trkpt lat="43.82074" lon="7.45557">
        <ele>878.66674016026</ele>
        <time>2021-01-27T09:45:31Z</time>
      </trkpt>
      <trkpt lat="43.82074" lon="7.4556">
        <ele>879.66677139162</ele>
        <time>2021-01-27T09:45:33Z</time>
      </trkpt>
      <trkpt lat="43.82074" lon="7.45561">
        <ele>879.66680728258</ele>
        <time>2021-01-27T09:45:34Z</time>
      </trkpt>
      <trkpt lat="43.82073" lon="7.4556">
        <ele>880.66683491702</ele>
        <time>2021-01-27T09:45:35Z</time>
      </trkpt>
      <trkpt lat="43.82071" lon="7.4556">
        <ele>880.66691809963</ele>
        <time>2021-01-27T09:45:37Z</time>
      </trkpt>
      <trkpt lat="43.82069" lon="7.45559">
        <ele>879.66700828239</ele>
        <time>2021-01-27T09:45:39Z</time>
      </trkpt>
      <trkpt lat="43.82068" lon="7.45559">
        <ele>879.66703962371</ele>
        <time>2021-01-27T09:45:40Z</time>
      </trkpt>
      <trkpt lat="43.82068" lon="7.45559">
        <ele>880.66707091035</ele>
        <time>2021-01-27T09:45:41Z</time>
      </trkpt>
      <trkpt lat="43.82065" lon="7.45562">
        <ele>879.66725313642</ele>
        <time>2021-01-27T09:45:44Z</time>
      </trkpt>
      <trkpt lat="43.82064" lon="7.45562">
        <ele>880.66729919253</ele>
        <time>2021-01-27T09:45:45Z</time>
      </trkpt>
      <trkpt lat="43.82062" lon="7.45563">
        <ele>879.66739089998</ele>
        <time>2021-01-27T09:45:47Z</time>
      </trkpt>
      <trkpt lat="43.8206" lon="7.45563">
        <ele>879.66747879749</ele>
        <time>2021-01-27T09:45:49Z</time>
      </trkpt>
      <trkpt lat="43.82059" lon="7.45564">
        <ele>880.66753167143</ele>
        <time>2021-01-27T09:45:50Z</time>
      </trkpt>
      <trkpt lat="43.82058" lon="7.45564">
        <ele>880.66757249813</ele>
        <time>2021-01-27T09:45:51Z</time>
      </trkpt>
      <trkpt lat="43.82057" lon="7.45564">
        <ele>880.66763038377</ele>
        <time>2021-01-27T09:45:52Z</time>
      </trkpt>
      <trkpt lat="43.82056" lon="7.45564">
        <ele>879.66768846568</ele>
        <time>2021-01-27T09:45:53Z</time>
      </trkpt>
      <trkpt lat="43.82055" lon="7.45565">
        <ele>880.66774293164</ele>
        <time>2021-01-27T09:45:54Z</time>
      </trkpt>
      <trkpt lat="43.82054" lon="7.45565">
        <ele>880.66779396417</ele>
        <time>2021-01-27T09:45:55Z</time>
      </trkpt>
      <trkpt lat="43.82053" lon="7.45566">
        <ele>880.66784778334</ele>
        <time>2021-01-27T09:45:56Z</time>
      </trkpt>
      <trkpt lat="43.82052" lon="7.45566">
        <ele>881.66787452325</ele>
        <time>2021-01-27T09:45:57Z</time>
      </trkpt>
      <trkpt lat="43.82052" lon="7.45567">
        <ele>881.66790414931</ele>
        <time>2021-01-27T09:45:58Z</time>
      </trkpt>
      <trkpt lat="43.82052" lon="7.45569">
        <ele>881.66794362958</ele>
        <time>2021-01-27T09:45:59Z</time>
      </trkpt>
      <trkpt lat="43.82051" lon="7.4557">
        <ele>880.66796790818</ele>
        <time>2021-01-27T09:46:00Z</time>
      </trkpt>
      <trkpt lat="43.82051" lon="7.45571">
        <ele>881.66800759033</ele>
        <time>2021-01-27T09:46:01Z</time>
      </trkpt>
      <trkpt lat="43.8205" lon="7.45573">
        <ele>881.66807292257</ele>
        <time>2021-01-27T09:46:02Z</time>
      </trkpt>
      <trkpt lat="43.82049" lon="7.45574">
        <ele>881.66811351557</ele>
        <time>2021-01-27T09:46:03Z</time>
      </trkpt>
      <trkpt lat="43.82049" lon="7.45576">
        <ele>881.66814320498</ele>
        <time>2021-01-27T09:46:04Z</time>
      </trkpt>
      <trkpt lat="43.82049" lon="7.45577">
        <ele>881.66814578185</ele>
        <time>2021-01-27T09:46:05Z</time>
      </trkpt>
      <trkpt lat="43.82049" lon="7.45579">
        <ele>882.66816571678</ele>
        <time>2021-01-27T09:46:07Z</time>
      </trkpt>
      <trkpt lat="43.82049" lon="7.45581">
        <ele>882.66818361839</ele>
        <time>2021-01-27T09:46:09Z</time>
      </trkpt>
      <trkpt lat="43.8205" lon="7.45582">
        <ele>883.66817925226</ele>
        <time>2021-01-27T09:46:10Z</time>
      </trkpt>
      <trkpt lat="43.8205" lon="7.45583">
        <ele>883.66816627822</ele>
        <time>2021-01-27T09:46:11Z</time>
      </trkpt>
      <trkpt lat="43.8205" lon="7.45585">
        <ele>883.66818361378</ele>
        <time>2021-01-27T09:46:13Z</time>
      </trkpt>
      <trkpt lat="43.82051" lon="7.45586">
        <ele>884.66817887076</ele>
        <time>2021-01-27T09:46:17Z</time>
      </trkpt>
      <trkpt lat="43.82054" lon="7.45586">
        <ele>884.66803337247</ele>
        <time>2021-01-27T09:46:20Z</time>
      </trkpt>
      <trkpt lat="43.82055" lon="7.45586">
        <ele>884.66800380159</ele>
        <time>2021-01-27T09:46:21Z</time>
      </trkpt>
      <trkpt lat="43.82056" lon="7.45587">
        <ele>885.66795318185</ele>
        <time>2021-01-27T09:46:23Z</time>
      </trkpt>
      <trkpt lat="43.82057" lon="7.45587">
        <ele>885.667904875</ele>
        <time>2021-01-27T09:46:24Z</time>
      </trkpt>
      <trkpt lat="43.82058" lon="7.45587">
        <ele>886.66786708435</ele>
        <time>2021-01-27T09:46:25Z</time>
      </trkpt>
      <trkpt lat="43.82059" lon="7.45587">
        <ele>886.66781653152</ele>
        <time>2021-01-27T09:46:27Z</time>
      </trkpt>
      <trkpt lat="43.82059" lon="7.45587">
        <ele>886.66781653152</ele>
        <time>2021-01-27T09:46:29Z</time>
      </trkpt>
      <trkpt lat="43.8206" lon="7.45587">
        <ele>886.66773812004</ele>
        <time>2021-01-27T09:46:30Z</time>
      </trkpt>
      <trkpt lat="43.82061" lon="7.45587">
        <ele>887.66770888276</ele>
        <time>2021-01-27T09:46:31Z</time>
      </trkpt>
      <trkpt lat="43.82062" lon="7.45587">
        <ele>887.66767482701</ele>
        <time>2021-01-27T09:46:32Z</time>
      </trkpt>
      <trkpt lat="43.82063" lon="7.45588">
        <ele>888.66764098789</ele>
        <time>2021-01-27T09:46:33Z</time>
      </trkpt>
      <trkpt lat="43.82064" lon="7.45589">
        <ele>889.6676003608</ele>
        <time>2021-01-27T09:46:34Z</time>
      </trkpt>
      <trkpt lat="43.82065" lon="7.45591">
        <ele>889.66756925963</ele>
        <time>2021-01-27T09:46:35Z</time>
      </trkpt>
      <trkpt lat="43.82066" lon="7.45591">
        <ele>889.66752555394</ele>
        <time>2021-01-27T09:46:36Z</time>
      </trkpt>
      <trkpt lat="43.82068" lon="7.45592">
        <ele>889.6674336457</ele>
        <time>2021-01-27T09:46:38Z</time>
      </trkpt>
      <trkpt lat="43.82069" lon="7.45593">
        <ele>889.66740187765</ele>
        <time>2021-01-27T09:46:39Z</time>
      </trkpt>
      <trkpt lat="43.82069" lon="7.45594">
        <ele>889.66738877306</ele>
        <time>2021-01-27T09:46:40Z</time>
      </trkpt>
      <trkpt lat="43.8207" lon="7.45596">
        <ele>890.66737057076</ele>
        <time>2021-01-27T09:46:41Z</time>
      </trkpt>
      <trkpt lat="43.82071" lon="7.45597">
        <ele>890.66734916874</ele>
        <time>2021-01-27T09:46:42Z</time>
      </trkpt>
      <trkpt lat="43.82071" lon="7.45598">
        <ele>891.66733530978</ele>
        <time>2021-01-27T09:46:43Z</time>
      </trkpt>
      <trkpt lat="43.82072" lon="7.45598">
        <ele>892.6673142316</ele>
        <time>2021-01-27T09:46:44Z</time>
      </trkpt>
      <trkpt lat="43.82073" lon="7.45599">
        <ele>891.66729335669</ele>
        <time>2021-01-27T09:46:45Z</time>
      </trkpt>
      <trkpt lat="43.82074" lon="7.456">
        <ele>890.66725020523</ele>
        <time>2021-01-27T09:46:47Z</time>
      </trkpt>
      <trkpt lat="43.82075" lon="7.45601">
        <ele>890.66720539346</ele>
        <time>2021-01-27T09:46:48Z</time>
      </trkpt>
      <trkpt lat="43.82076" lon="7.45602">
        <ele>890.66717519296</ele>
        <time>2021-01-27T09:46:49Z</time>
      </trkpt>
      <trkpt lat="43.82076" lon="7.45602">
        <ele>891.66715761818</ele>
        <time>2021-01-27T09:46:50Z</time>
      </trkpt>
      <trkpt lat="43.82077" lon="7.45603">
        <ele>891.66713403571</ele>
        <time>2021-01-27T09:46:51Z</time>
      </trkpt>
      <trkpt lat="43.82078" lon="7.45603">
        <ele>891.66708265967</ele>
        <time>2021-01-27T09:46:53Z</time>
      </trkpt>
      <trkpt lat="43.82078" lon="7.45603">
        <ele>891.66708265967</ele>
        <time>2021-01-27T09:46:54Z</time>
      </trkpt>
      <trkpt lat="43.82079" lon="7.45605">
        <ele>891.6670544554</ele>
        <time>2021-01-27T09:46:55Z</time>
      </trkpt>
      <trkpt lat="43.8208" lon="7.45608">
        <ele>890.66707397647</ele>
        <time>2021-01-27T09:46:57Z</time>
      </trkpt>
      <trkpt lat="43.8208" lon="7.45611">
        <ele>891.66709997078</ele>
        <time>2021-01-27T09:46:59Z</time>
      </trkpt>
      <trkpt lat="43.82079" lon="7.45612">
        <ele>891.66713005489</ele>
        <time>2021-01-27T09:47:00Z</time>
      </trkpt>
      <trkpt lat="43.82079" lon="7.45612">
        <ele>891.66715201524</ele>
        <time>2021-01-27T09:47:01Z</time>
      </trkpt>
      <trkpt lat="43.82077" lon="7.45613">
        <ele>891.66722830258</ele>
        <time>2021-01-27T09:47:03Z</time>
      </trkpt>
      <trkpt lat="43.82075" lon="7.45614">
        <ele>890.66734042723</ele>
        <time>2021-01-27T09:47:05Z</time>
      </trkpt>
      <trkpt lat="43.82074" lon="7.45615">
        <ele>890.66738718548</ele>
        <time>2021-01-27T09:47:06Z</time>
      </trkpt>
      <trkpt lat="43.82074" lon="7.45615">
        <ele>890.66741779271</ele>
        <time>2021-01-27T09:47:07Z</time>
      </trkpt>
      <trkpt lat="43.82073" lon="7.45615">
        <ele>890.66744383089</ele>
        <time>2021-01-27T09:47:08Z</time>
      </trkpt>
      <trkpt lat="43.82073" lon="7.45615">
        <ele>891.6674651111</ele>
        <time>2021-01-27T09:47:09Z</time>
      </trkpt>
      <trkpt lat="43.82072" lon="7.45616">
        <ele>891.66750574381</ele>
        <time>2021-01-27T09:47:10Z</time>
      </trkpt>
      <trkpt lat="43.82071" lon="7.45616">
        <ele>891.66755383347</ele>
        <time>2021-01-27T09:47:11Z</time>
      </trkpt>
      <trkpt lat="43.8207" lon="7.45616">
        <ele>891.66760148606</ele>
        <time>2021-01-27T09:47:12Z</time>
      </trkpt>
      <trkpt lat="43.82069" lon="7.45618">
        <ele>891.66768028851</ele>
        <time>2021-01-27T09:47:14Z</time>
      </trkpt>
      <trkpt lat="43.82068" lon="7.45619">
        <ele>891.66772970385</ele>
        <time>2021-01-27T09:47:15Z</time>
      </trkpt>
      <trkpt lat="43.82068" lon="7.45619">
        <ele>891.66776267194</ele>
        <time>2021-01-27T09:47:16Z</time>
      </trkpt>
      <trkpt lat="43.82067" lon="7.4562">
        <ele>891.66779886333</ele>
        <time>2021-01-27T09:47:17Z</time>
      </trkpt>
      <trkpt lat="43.82066" lon="7.45621">
        <ele>891.66783949699</ele>
        <time>2021-01-27T09:47:18Z</time>
      </trkpt>
      <trkpt lat="43.82066" lon="7.45622">
        <ele>891.66787560305</ele>
        <time>2021-01-27T09:47:19Z</time>
      </trkpt>
      <trkpt lat="43.82065" lon="7.45623">
        <ele>890.66791446272</ele>
        <time>2021-01-27T09:47:20Z</time>
      </trkpt>
      <trkpt lat="43.82064" lon="7.45624">
        <ele>891.66796536411</ele>
        <time>2021-01-27T09:47:21Z</time>
      </trkpt>
      <trkpt lat="43.82064" lon="7.45626">
        <ele>892.66802007066</ele>
        <time>2021-01-27T09:47:23Z</time>
      </trkpt>
      <trkpt lat="43.82063" lon="7.45627">
        <ele>892.66807247125</ele>
        <time>2021-01-27T09:47:25Z</time>
      </trkpt>
      <trkpt lat="43.82062" lon="7.45627">
        <ele>893.66811758063</ele>
        <time>2021-01-27T09:47:26Z</time>
      </trkpt>
      <trkpt lat="43.82062" lon="7.45628">
        <ele>893.66813709524</ele>
        <time>2021-01-27T09:47:27Z</time>
      </trkpt>
      <trkpt lat="43.82061" lon="7.45629">
        <ele>894.66816596896</ele>
        <time>2021-01-27T09:47:28Z</time>
      </trkpt>
      <trkpt lat="43.82061" lon="7.4563">
        <ele>895.66818630494</ele>
        <time>2021-01-27T09:47:29Z</time>
      </trkpt>
      <trkpt lat="43.82061" lon="7.45631">
        <ele>894.66821078355</ele>
        <time>2021-01-27T09:47:30Z</time>
      </trkpt>
      <trkpt lat="43.8206" lon="7.45632">
        <ele>894.66823431086</ele>
        <time>2021-01-27T09:47:31Z</time>
      </trkpt>
      <trkpt lat="43.8206" lon="7.45634">
        <ele>894.66829177732</ele>
        <time>2021-01-27T09:47:33Z</time>
      </trkpt>
      <trkpt lat="43.82059" lon="7.45637">
        <ele>894.66835892796</ele>
        <time>2021-01-27T09:47:35Z</time>
      </trkpt>
      <trkpt lat="43.82058" lon="7.45638">
        <ele>894.66840939342</ele>
        <time>2021-01-27T09:47:36Z</time>
      </trkpt>
      <trkpt lat="43.82058" lon="7.45639">
        <ele>894.66842697307</ele>
        <time>2021-01-27T09:47:37Z</time>
      </trkpt>
      <trkpt lat="43.82058" lon="7.4564">
        <ele>894.66843323186</ele>
        <time>2021-01-27T09:47:38Z</time>
      </trkpt>
      <trkpt lat="43.82058" lon="7.45641">
        <ele>894.66843747317</ele>
        <time>2021-01-27T09:47:39Z</time>
      </trkpt>
      <trkpt lat="43.82058" lon="7.45642">
        <ele>894.66845790712</ele>
        <time>2021-01-27T09:47:40Z</time>
      </trkpt>
      <trkpt lat="43.82058" lon="7.45642">
        <ele>894.66846734541</ele>
        <time>2021-01-27T09:47:41Z</time>
      </trkpt>
      <trkpt lat="43.82057" lon="7.45644">
        <ele>895.66855609336</ele>
        <time>2021-01-27T09:47:43Z</time>
      </trkpt>
      <trkpt lat="43.82056" lon="7.45644">
        <ele>895.66860391507</ele>
        <time>2021-01-27T09:47:44Z</time>
      </trkpt>
      <trkpt lat="43.82055" lon="7.45645">
        <ele>894.66864061835</ele>
        <time>2021-01-27T09:47:45Z</time>
      </trkpt>
      <trkpt lat="43.82055" lon="7.45646">
        <ele>894.66867202328</ele>
        <time>2021-01-27T09:47:47Z</time>
      </trkpt>
      <trkpt lat="43.82054" lon="7.45648">
        <ele>895.66872800615</ele>
        <time>2021-01-27T09:47:48Z</time>
      </trkpt>
      <trkpt lat="43.82054" lon="7.45649">
        <ele>895.66875416353</ele>
        <time>2021-01-27T09:47:49Z</time>
      </trkpt>
      <trkpt lat="43.82054" lon="7.4565">
        <ele>895.66877224775</ele>
        <time>2021-01-27T09:47:50Z</time>
      </trkpt>
      <trkpt lat="43.82053" lon="7.45652">
        <ele>895.66882244473</ele>
        <time>2021-01-27T09:47:52Z</time>
      </trkpt>
      <trkpt lat="43.82053" lon="7.45653">
        <ele>896.66883861696</ele>
        <time>2021-01-27T09:47:53Z</time>
      </trkpt>
      <trkpt lat="43.82052" lon="7.45654">
        <ele>896.66886209708</ele>
        <time>2021-01-27T09:47:56Z</time>
      </trkpt>
      <trkpt lat="43.82051" lon="7.45658">
        <ele>898.66898254434</ele>
        <time>2021-01-27T09:47:58Z</time>
      </trkpt>
      <trkpt lat="43.8205" lon="7.45659">
        <ele>898.66902039395</ele>
        <time>2021-01-27T09:48:00Z</time>
      </trkpt>
      <trkpt lat="43.8205" lon="7.4566">
        <ele>898.66905578046</ele>
        <time>2021-01-27T09:48:01Z</time>
      </trkpt>
      <trkpt lat="43.82049" lon="7.45661">
        <ele>898.66908328305</ele>
        <time>2021-01-27T09:48:02Z</time>
      </trkpt>
      <trkpt lat="43.82049" lon="7.45662">
        <ele>898.66910654896</ele>
        <time>2021-01-27T09:48:03Z</time>
      </trkpt>
      <trkpt lat="43.82049" lon="7.45663">
        <ele>898.6691244999</ele>
        <time>2021-01-27T09:48:06Z</time>
      </trkpt>
      <trkpt lat="43.82048" lon="7.45666">
        <ele>898.66919851919</ele>
        <time>2021-01-27T09:48:08Z</time>
      </trkpt>
      <trkpt lat="43.82048" lon="7.45668">
        <ele>898.66921755394</ele>
        <time>2021-01-27T09:48:09Z</time>
      </trkpt>
      <trkpt lat="43.82048" lon="7.45669">
        <ele>898.66924151298</ele>
        <time>2021-01-27T09:48:10Z</time>
      </trkpt>
      <trkpt lat="43.82048" lon="7.4567">
        <ele>898.66926375936</ele>
        <time>2021-01-27T09:48:11Z</time>
      </trkpt>
      <trkpt lat="43.82047" lon="7.45671">
        <ele>898.66929298278</ele>
        <time>2021-01-27T09:48:12Z</time>
      </trkpt>
      <trkpt lat="43.82047" lon="7.45672">
        <ele>899.66931251161</ele>
        <time>2021-01-27T09:48:15Z</time>
      </trkpt>
      <trkpt lat="43.82047" lon="7.45674">
        <ele>899.66934103203</ele>
        <time>2021-01-27T09:48:16Z</time>
      </trkpt>
      <trkpt lat="43.82048" lon="7.45675">
        <ele>899.66932308088</ele>
        <time>2021-01-27T09:48:17Z</time>
      </trkpt>
      <trkpt lat="43.82048" lon="7.45677">
        <ele>900.66932435837</ele>
        <time>2021-01-27T09:48:19Z</time>
      </trkpt>
      <trkpt lat="43.82048" lon="7.45678">
        <ele>899.66933099704</ele>
        <time>2021-01-27T09:48:20Z</time>
      </trkpt>
      <trkpt lat="43.82048" lon="7.4568">
        <ele>900.66933942119</ele>
        <time>2021-01-27T09:48:21Z</time>
      </trkpt>
      <trkpt lat="43.82048" lon="7.45682">
        <ele>901.66938588078</ele>
        <time>2021-01-27T09:48:23Z</time>
      </trkpt>
      <trkpt lat="43.82048" lon="7.45684">
        <ele>901.6694279478</ele>
        <time>2021-01-27T09:48:25Z</time>
      </trkpt>
      <trkpt lat="43.82048" lon="7.45685">
        <ele>901.66943977335</ele>
        <time>2021-01-27T09:48:26Z</time>
      </trkpt>
      <trkpt lat="43.82048" lon="7.45686">
        <ele>901.66943647054</ele>
        <time>2021-01-27T09:48:27Z</time>
      </trkpt>
      <trkpt lat="43.82047" lon="7.45686">
        <ele>901.66948514016</ele>
        <time>2021-01-27T09:48:29Z</time>
      </trkpt>
      <trkpt lat="43.82047" lon="7.45687">
        <ele>901.66950627845</ele>
        <time>2021-01-27T09:48:30Z</time>
      </trkpt>
      <trkpt lat="43.82047" lon="7.45688">
        <ele>901.66950860378</ele>
        <time>2021-01-27T09:48:31Z</time>
      </trkpt>
      <trkpt lat="43.82047" lon="7.45689">
        <ele>901.66952961337</ele>
        <time>2021-01-27T09:48:32Z</time>
      </trkpt>
      <trkpt lat="43.82047" lon="7.4569">
        <ele>901.66953170568</ele>
        <time>2021-01-27T09:48:33Z</time>
      </trkpt>
      <trkpt lat="43.82047" lon="7.45693">
        <ele>902.66953719239</ele>
        <time>2021-01-27T09:48:35Z</time>
      </trkpt>
      <trkpt lat="43.82047" lon="7.45694">
        <ele>902.66954942659</ele>
        <time>2021-01-27T09:48:36Z</time>
      </trkpt>
      <trkpt lat="43.82047" lon="7.45696">
        <ele>902.66957471919</ele>
        <time>2021-01-27T09:48:37Z</time>
      </trkpt>
      <trkpt lat="43.82047" lon="7.45698">
        <ele>902.66961361803</ele>
        <time>2021-01-27T09:48:39Z</time>
      </trkpt>
      <trkpt lat="43.82047" lon="7.45699">
        <ele>903.66963137556</ele>
        <time>2021-01-27T09:48:40Z</time>
      </trkpt>
      <trkpt lat="43.82047" lon="7.45701">
        <ele>903.66965021959</ele>
        <time>2021-01-27T09:48:41Z</time>
      </trkpt>
      <trkpt lat="43.82047" lon="7.45702">
        <ele>903.66967758565</ele>
        <time>2021-01-27T09:48:42Z</time>
      </trkpt>
      <trkpt lat="43.82047" lon="7.45703">
        <ele>903.669688804</ele>
        <time>2021-01-27T09:48:43Z</time>
      </trkpt>
      <trkpt lat="43.82046" lon="7.45704">
        <ele>904.66971107819</ele>
        <time>2021-01-27T09:48:44Z</time>
      </trkpt>
      <trkpt lat="43.82046" lon="7.45706">
        <ele>905.66973301385</ele>
        <time>2021-01-27T09:48:45Z</time>
      </trkpt>
      <trkpt lat="43.82046" lon="7.45707">
        <ele>905.66977347241</ele>
        <time>2021-01-27T09:48:46Z</time>
      </trkpt>
      <trkpt lat="43.82046" lon="7.45709">
        <ele>905.66980048938</ele>
        <time>2021-01-27T09:48:48Z</time>
      </trkpt>
      <trkpt lat="43.82046" lon="7.45711">
        <ele>905.66981354202</ele>
        <time>2021-01-27T09:48:49Z</time>
      </trkpt>
      <trkpt lat="43.82046" lon="7.45712">
        <ele>905.66981958021</ele>
        <time>2021-01-27T09:48:50Z</time>
      </trkpt>
      <trkpt lat="43.82045" lon="7.45713">
        <ele>905.66985594764</ele>
        <time>2021-01-27T09:48:51Z</time>
      </trkpt>
      <trkpt lat="43.82045" lon="7.45713">
        <ele>905.66988600888</ele>
        <time>2021-01-27T09:48:52Z</time>
      </trkpt>
      <trkpt lat="43.82045" lon="7.45715">
        <ele>905.66988307586</ele>
        <time>2021-01-27T09:48:53Z</time>
      </trkpt>
      <trkpt lat="43.82045" lon="7.45715">
        <ele>905.66989173311</ele>
        <time>2021-01-27T09:48:54Z</time>
      </trkpt>
      <trkpt lat="43.82045" lon="7.45716">
        <ele>905.66991037755</ele>
        <time>2021-01-27T09:48:55Z</time>
      </trkpt>
      <trkpt lat="43.82045" lon="7.45718">
        <ele>905.6699297612</ele>
        <time>2021-01-27T09:48:56Z</time>
      </trkpt>
      <trkpt lat="43.82045" lon="7.4572">
        <ele>905.66995879069</ele>
        <time>2021-01-27T09:48:58Z</time>
      </trkpt>
      <trkpt lat="43.82045" lon="7.45723">
        <ele>906.66998467634</ele>
        <time>2021-01-27T09:49:00Z</time>
      </trkpt>
      <trkpt lat="43.82045" lon="7.45724">
        <ele>905.67000527652</ele>
        <time>2021-01-27T09:49:01Z</time>
      </trkpt>
      <trkpt lat="43.82045" lon="7.45726">
        <ele>905.67003778328</ele>
        <time>2021-01-27T09:49:02Z</time>
      </trkpt>
      <trkpt lat="43.82044" lon="7.45728">
        <ele>904.67007650889</ele>
        <time>2021-01-27T09:49:04Z</time>
      </trkpt>
      <trkpt lat="43.82045" lon="7.45729">
        <ele>904.6700837522</ele>
        <time>2021-01-27T09:49:05Z</time>
      </trkpt>
      <trkpt lat="43.82044" lon="7.4573">
        <ele>904.67010290977</ele>
        <time>2021-01-27T09:49:06Z</time>
      </trkpt>
      <trkpt lat="43.82045" lon="7.45733">
        <ele>904.67012306005</ele>
        <time>2021-01-27T09:49:08Z</time>
      </trkpt>
      <trkpt lat="43.82045" lon="7.45736">
        <ele>904.67015143105</ele>
        <time>2021-01-27T09:49:10Z</time>
      </trkpt>
      <trkpt lat="43.82044" lon="7.45737">
        <ele>904.67018162721</ele>
        <time>2021-01-27T09:49:11Z</time>
      </trkpt>
      <trkpt lat="43.82044" lon="7.45739">
        <ele>904.67022430704</ele>
        <time>2021-01-27T09:49:12Z</time>
      </trkpt>
      <trkpt lat="43.82042" lon="7.45739">
        <ele>903.67031450406</ele>
        <time>2021-01-27T09:49:14Z</time>
      </trkpt>
      <trkpt lat="43.82042" lon="7.4574">
        <ele>903.67034241315</ele>
        <time>2021-01-27T09:49:15Z</time>
      </trkpt>
      <trkpt lat="43.82041" lon="7.45741">
        <ele>904.67037845873</ele>
        <time>2021-01-27T09:49:16Z</time>
      </trkpt>
      <trkpt lat="43.8204" lon="7.45742">
        <ele>904.67043180663</ele>
        <time>2021-01-27T09:49:17Z</time>
      </trkpt>
      <trkpt lat="43.82039" lon="7.45742">
        <ele>904.67048099602</ele>
        <time>2021-01-27T09:49:18Z</time>
      </trkpt>
      <trkpt lat="43.82039" lon="7.45743">
        <ele>904.67050537</ele>
        <time>2021-01-27T09:49:19Z</time>
      </trkpt>
      <trkpt lat="43.82038" lon="7.45744">
        <ele>904.67054024085</ele>
        <time>2021-01-27T09:49:20Z</time>
      </trkpt>
      <trkpt lat="43.82038" lon="7.45744">
        <ele>905.67058095108</ele>
        <time>2021-01-27T09:49:21Z</time>
      </trkpt>
      <trkpt lat="43.82035" lon="7.45745">
        <ele>906.67068933752</ele>
        <time>2021-01-27T09:49:23Z</time>
      </trkpt>
      <trkpt lat="43.82033" lon="7.45746">
        <ele>906.67082851949</ele>
        <time>2021-01-27T09:49:25Z</time>
      </trkpt>
      <trkpt lat="43.82032" lon="7.45747">
        <ele>907.67086569195</ele>
        <time>2021-01-27T09:49:26Z</time>
      </trkpt>
      <trkpt lat="43.82031" lon="7.45747">
        <ele>907.67089608866</ele>
        <time>2021-01-27T09:49:27Z</time>
      </trkpt>
      <trkpt lat="43.82031" lon="7.45747">
        <ele>907.67093524842</ele>
        <time>2021-01-27T09:49:28Z</time>
      </trkpt>
      <trkpt lat="43.8203" lon="7.45747">
        <ele>907.67096558435</ele>
        <time>2021-01-27T09:49:29Z</time>
      </trkpt>
      <trkpt lat="43.82029" lon="7.45747">
        <ele>908.67101705897</ele>
        <time>2021-01-27T09:49:30Z</time>
      </trkpt>
      <trkpt lat="43.82028" lon="7.45748">
        <ele>908.671064388</ele>
        <time>2021-01-27T09:49:31Z</time>
      </trkpt>
      <trkpt lat="43.82027" lon="7.45748">
        <ele>908.67110198737</ele>
        <time>2021-01-27T09:49:32Z</time>
      </trkpt>
      <trkpt lat="43.82026" lon="7.45749">
        <ele>908.67118046936</ele>
        <time>2021-01-27T09:49:34Z</time>
      </trkpt>
      <trkpt lat="43.82025" lon="7.4575">
        <ele>909.67121845498</ele>
        <time>2021-01-27T09:49:35Z</time>
      </trkpt>
      <trkpt lat="43.82024" lon="7.4575">
        <ele>910.67125770116</ele>
        <time>2021-01-27T09:49:36Z</time>
      </trkpt>
      <trkpt lat="43.82023" lon="7.45751">
        <ele>910.67133539954</ele>
        <time>2021-01-27T09:49:38Z</time>
      </trkpt>
      <trkpt lat="43.82021" lon="7.45751">
        <ele>910.67142079508</ele>
        <time>2021-01-27T09:49:40Z</time>
      </trkpt>
      <trkpt lat="43.8202" lon="7.45751">
        <ele>910.67147109774</ele>
        <time>2021-01-27T09:49:41Z</time>
      </trkpt>
      <trkpt lat="43.82019" lon="7.4575">
        <ele>909.67152632118</ele>
        <time>2021-01-27T09:49:42Z</time>
      </trkpt>
      <trkpt lat="43.82017" lon="7.4575">
        <ele>908.67159461536</ele>
        <time>2021-01-27T09:49:44Z</time>
      </trkpt>
      <trkpt lat="43.82017" lon="7.4575">
        <ele>908.67162593452</ele>
        <time>2021-01-27T09:49:45Z</time>
      </trkpt>
      <trkpt lat="43.82016" lon="7.4575">
        <ele>908.67164525243</ele>
        <time>2021-01-27T09:49:46Z</time>
      </trkpt>
      <trkpt lat="43.82014" lon="7.4575">
        <ele>908.67174893335</ele>
        <time>2021-01-27T09:49:48Z</time>
      </trkpt>
      <trkpt lat="43.82012" lon="7.45749">
        <ele>908.67181319166</ele>
        <time>2021-01-27T09:49:50Z</time>
      </trkpt>
      <trkpt lat="43.82011" lon="7.45748">
        <ele>908.67185292425</ele>
        <time>2021-01-27T09:49:51Z</time>
      </trkpt>
      <trkpt lat="43.8201" lon="7.45748">
        <ele>908.67189155628</ele>
        <time>2021-01-27T09:49:52Z</time>
      </trkpt>
      <trkpt lat="43.82009" lon="7.45747">
        <ele>909.67196479433</ele>
        <time>2021-01-27T09:49:54Z</time>
      </trkpt>
      <trkpt lat="43.82008" lon="7.45746">
        <ele>909.67200228661</ele>
        <time>2021-01-27T09:49:55Z</time>
      </trkpt>
      <trkpt lat="43.82006" lon="7.45745">
        <ele>909.67204744379</ele>
        <time>2021-01-27T09:49:56Z</time>
      </trkpt>
      <trkpt lat="43.82005" lon="7.45746">
        <ele>910.67210773136</ele>
        <time>2021-01-27T09:49:57Z</time>
      </trkpt>
      <trkpt lat="43.82004" lon="7.45746">
        <ele>910.67215162297</ele>
        <time>2021-01-27T09:49:58Z</time>
      </trkpt>
      <trkpt lat="43.82004" lon="7.45746">
        <ele>911.67218811822</ele>
        <time>2021-01-27T09:49:59Z</time>
      </trkpt>
      <trkpt lat="43.82003" lon="7.45745">
        <ele>911.6722195527</ele>
        <time>2021-01-27T09:50:00Z</time>
      </trkpt>
      <trkpt lat="43.82002" lon="7.45744">
        <ele>911.67224471304</ele>
        <time>2021-01-27T09:50:01Z</time>
      </trkpt>
      <trkpt lat="43.82001" lon="7.45744">
        <ele>912.67230393249</ele>
        <time>2021-01-27T09:50:03Z</time>
      </trkpt>
      <trkpt lat="43.82" lon="7.45745">
        <ele>912.67235968919</ele>
        <time>2021-01-27T09:50:04Z</time>
      </trkpt>
      <trkpt lat="43.81999" lon="7.45745">
        <ele>912.6723972108</ele>
        <time>2021-01-27T09:50:05Z</time>
      </trkpt>
      <trkpt lat="43.81998" lon="7.45745">
        <ele>913.67243542966</ele>
        <time>2021-01-27T09:50:06Z</time>
      </trkpt>
      <trkpt lat="43.81997" lon="7.45745">
        <ele>913.6724639001</ele>
        <time>2021-01-27T09:50:07Z</time>
      </trkpt>
      <trkpt lat="43.81996" lon="7.45744">
        <ele>913.67250182064</ele>
        <time>2021-01-27T09:50:08Z</time>
      </trkpt>
      <trkpt lat="43.81996" lon="7.45744">
        <ele>913.67254290657</ele>
        <time>2021-01-27T09:50:09Z</time>
      </trkpt>
      <trkpt lat="43.81995" lon="7.45745">
        <ele>913.67258303641</ele>
        <time>2021-01-27T09:50:10Z</time>
      </trkpt>
      <trkpt lat="43.81994" lon="7.45746">
        <ele>913.67261889966</ele>
        <time>2021-01-27T09:50:11Z</time>
      </trkpt>
      <trkpt lat="43.81994" lon="7.45747">
        <ele>913.67264937767</ele>
        <time>2021-01-27T09:50:13Z</time>
      </trkpt>
      <trkpt lat="43.81994" lon="7.45749">
        <ele>912.67264534204</ele>
        <time>2021-01-27T09:50:15Z</time>
      </trkpt>
      <trkpt lat="43.81995" lon="7.4575">
        <ele>912.67264070263</ele>
        <time>2021-01-27T09:50:16Z</time>
      </trkpt>
      <trkpt lat="43.81995" lon="7.4575">
        <ele>912.67262092734</ele>
        <time>2021-01-27T09:50:17Z</time>
      </trkpt>
      <trkpt lat="43.81996" lon="7.45752">
        <ele>913.67261631711</ele>
        <time>2021-01-27T09:50:19Z</time>
      </trkpt>
      <trkpt lat="43.81996" lon="7.45752">
        <ele>913.67260733111</ele>
        <time>2021-01-27T09:50:20Z</time>
      </trkpt>
      <trkpt lat="43.81996" lon="7.45753">
        <ele>913.67260539974</ele>
        <time>2021-01-27T09:50:21Z</time>
      </trkpt>
      <trkpt lat="43.81997" lon="7.45756">
        <ele>912.67261878008</ele>
        <time>2021-01-27T09:50:23Z</time>
      </trkpt>
      <trkpt lat="43.81997" lon="7.45758">
        <ele>912.67262654443</ele>
        <time>2021-01-27T09:50:25Z</time>
      </trkpt>
      <trkpt lat="43.81997" lon="7.45759">
        <ele>912.67262748158</ele>
        <time>2021-01-27T09:50:26Z</time>
      </trkpt>
      <trkpt lat="43.81998" lon="7.4576">
        <ele>911.6726344155</ele>
        <time>2021-01-27T09:50:27Z</time>
      </trkpt>
      <trkpt lat="43.81998" lon="7.45762">
        <ele>912.67262760516</ele>
        <time>2021-01-27T09:50:29Z</time>
      </trkpt>
      <trkpt lat="43.81998" lon="7.45764">
        <ele>912.67263897996</ele>
        <time>2021-01-27T09:50:30Z</time>
      </trkpt>
      <trkpt lat="43.81999" lon="7.45764">
        <ele>913.67261058163</ele>
        <time>2021-01-27T09:50:31Z</time>
      </trkpt>
      <trkpt lat="43.82" lon="7.45765">
        <ele>912.67258939489</ele>
        <time>2021-01-27T09:50:32Z</time>
      </trkpt>
      <trkpt lat="43.82" lon="7.45766">
        <ele>912.67256907377</ele>
        <time>2021-01-27T09:50:33Z</time>
      </trkpt>
      <trkpt lat="43.82001" lon="7.45766">
        <ele>912.67255624685</ele>
        <time>2021-01-27T09:50:34Z</time>
      </trkpt>
      <trkpt lat="43.82001" lon="7.45767">
        <ele>912.67254142749</ele>
        <time>2021-01-27T09:50:35Z</time>
      </trkpt>
      <trkpt lat="43.82002" lon="7.45767">
        <ele>913.67252518076</ele>
        <time>2021-01-27T09:50:36Z</time>
      </trkpt>
      <trkpt lat="43.82003" lon="7.45769">
        <ele>913.6725015194</ele>
        <time>2021-01-27T09:50:38Z</time>
      </trkpt>
      <trkpt lat="43.82004" lon="7.45772">
        <ele>914.67247390044</ele>
        <time>2021-01-27T09:50:40Z</time>
      </trkpt>
      <trkpt lat="43.82004" lon="7.45773">
        <ele>914.67245875891</ele>
        <time>2021-01-27T09:50:41Z</time>
      </trkpt>
      <trkpt lat="43.82005" lon="7.45774">
        <ele>915.67244927363</ele>
        <time>2021-01-27T09:50:42Z</time>
      </trkpt>
      <trkpt lat="43.82005" lon="7.45775">
        <ele>915.67243509152</ele>
        <time>2021-01-27T09:50:43Z</time>
      </trkpt>
      <trkpt lat="43.82006" lon="7.45776">
        <ele>915.67241299528</ele>
        <time>2021-01-27T09:50:44Z</time>
      </trkpt>
      <trkpt lat="43.82007" lon="7.45777">
        <ele>915.67239232725</ele>
        <time>2021-01-27T09:50:45Z</time>
      </trkpt>
      <trkpt lat="43.82007" lon="7.45779">
        <ele>915.67239187645</ele>
        <time>2021-01-27T09:50:46Z</time>
      </trkpt>
      <trkpt lat="43.82008" lon="7.45779">
        <ele>913.67236944089</ele>
        <time>2021-01-27T09:50:48Z</time>
      </trkpt>
      <trkpt lat="43.82009" lon="7.45779">
        <ele>914.67231619213</ele>
        <time>2021-01-27T09:50:49Z</time>
      </trkpt>
      <trkpt lat="43.82009" lon="7.4578">
        <ele>915.67229597313</ele>
        <time>2021-01-27T09:50:50Z</time>
      </trkpt>
      <trkpt lat="43.8201" lon="7.45781">
        <ele>914.67227537117</ele>
        <time>2021-01-27T09:50:51Z</time>
      </trkpt>
      <trkpt lat="43.8201" lon="7.45782">
        <ele>915.67228520143</ele>
        <time>2021-01-27T09:50:52Z</time>
      </trkpt>
      <trkpt lat="43.82011" lon="7.45784">
        <ele>916.67228205481</ele>
        <time>2021-01-27T09:50:53Z</time>
      </trkpt>
      <trkpt lat="43.82011" lon="7.45785">
        <ele>916.67228301678</ele>
        <time>2021-01-27T09:50:54Z</time>
      </trkpt>
      <trkpt lat="43.82011" lon="7.45786">
        <ele>916.67228654954</ele>
        <time>2021-01-27T09:50:55Z</time>
      </trkpt>
      <trkpt lat="43.82011" lon="7.45787">
        <ele>917.67228362706</ele>
        <time>2021-01-27T09:50:56Z</time>
      </trkpt>
      <trkpt lat="43.82012" lon="7.45789">
        <ele>917.67228407564</ele>
        <time>2021-01-27T09:50:57Z</time>
      </trkpt>
      <trkpt lat="43.82012" lon="7.45791">
        <ele>918.67229717345</ele>
        <time>2021-01-27T09:50:59Z</time>
      </trkpt>
      <trkpt lat="43.82012" lon="7.45793">
        <ele>918.67231484434</ele>
        <time>2021-01-27T09:51:00Z</time>
      </trkpt>
      <trkpt lat="43.82012" lon="7.45794">
        <ele>919.672334231</ele>
        <time>2021-01-27T09:51:01Z</time>
      </trkpt>
      <trkpt lat="43.82012" lon="7.45797">
        <ele>919.67235322328</ele>
        <time>2021-01-27T09:51:03Z</time>
      </trkpt>
      <trkpt lat="43.82013" lon="7.45798">
        <ele>919.67232266055</ele>
        <time>2021-01-27T09:51:05Z</time>
      </trkpt>
      <trkpt lat="43.82013" lon="7.45799">
        <ele>919.67231850724</ele>
        <time>2021-01-27T09:51:06Z</time>
      </trkpt>
      <trkpt lat="43.82014" lon="7.45799">
        <ele>920.67229159117</ele>
        <time>2021-01-27T09:51:07Z</time>
      </trkpt>
      <trkpt lat="43.82015" lon="7.45801">
        <ele>920.67228539554</ele>
        <time>2021-01-27T09:51:09Z</time>
      </trkpt>
      <trkpt lat="43.82015" lon="7.45802">
        <ele>921.67229449032</ele>
        <time>2021-01-27T09:51:10Z</time>
      </trkpt>
      <trkpt lat="43.82015" lon="7.45803">
        <ele>920.67229037643</ele>
        <time>2021-01-27T09:51:11Z</time>
      </trkpt>
      <trkpt lat="43.82015" lon="7.45806">
        <ele>920.67231324658</ele>
        <time>2021-01-27T09:51:13Z</time>
      </trkpt>
      <trkpt lat="43.82015" lon="7.45809">
        <ele>920.67235628411</ele>
        <time>2021-01-27T09:51:15Z</time>
      </trkpt>
      <trkpt lat="43.82015" lon="7.4581">
        <ele>920.67238124776</ele>
        <time>2021-01-27T09:51:16Z</time>
      </trkpt>
      <trkpt lat="43.82015" lon="7.45812">
        <ele>920.67239975339</ele>
        <time>2021-01-27T09:51:17Z</time>
      </trkpt>
      <trkpt lat="43.82015" lon="7.45813">
        <ele>920.67240940868</ele>
        <time>2021-01-27T09:51:18Z</time>
      </trkpt>
      <trkpt lat="43.82015" lon="7.45814">
        <ele>921.67242867997</ele>
        <time>2021-01-27T09:51:19Z</time>
      </trkpt>
      <trkpt lat="43.82015" lon="7.45815">
        <ele>921.67242008664</ele>
        <time>2021-01-27T09:51:20Z</time>
      </trkpt>
      <trkpt lat="43.82015" lon="7.45816">
        <ele>920.67242371427</ele>
        <time>2021-01-27T09:51:22Z</time>
      </trkpt>
      <trkpt lat="43.82016" lon="7.4582">
        <ele>921.6724197699</ele>
        <time>2021-01-27T09:51:24Z</time>
      </trkpt>
      <trkpt lat="43.82017" lon="7.45821">
        <ele>920.6724077419</ele>
        <time>2021-01-27T09:51:25Z</time>
      </trkpt>
      <trkpt lat="43.82017" lon="7.45822">
        <ele>921.6724003502</ele>
        <time>2021-01-27T09:51:26Z</time>
      </trkpt>
      <trkpt lat="43.82017" lon="7.45823">
        <ele>921.67241620256</ele>
        <time>2021-01-27T09:51:27Z</time>
      </trkpt>
      <trkpt lat="43.82018" lon="7.45825">
        <ele>921.67241445543</ele>
        <time>2021-01-27T09:51:28Z</time>
      </trkpt>
      <trkpt lat="43.82018" lon="7.45826">
        <ele>921.67241448756</ele>
        <time>2021-01-27T09:51:29Z</time>
      </trkpt>
      <trkpt lat="43.82018" lon="7.45827">
        <ele>922.67241352979</ele>
        <time>2021-01-27T09:51:30Z</time>
      </trkpt>
      <trkpt lat="43.82018" lon="7.45829">
        <ele>922.6724227989</ele>
        <time>2021-01-27T09:51:31Z</time>
      </trkpt>
      <trkpt lat="43.82019" lon="7.4583">
        <ele>923.67242061077</ele>
        <time>2021-01-27T09:51:32Z</time>
      </trkpt>
      <trkpt lat="43.82019" lon="7.45832">
        <ele>924.67245281362</ele>
        <time>2021-01-27T09:51:34Z</time>
      </trkpt>
      <trkpt lat="43.82019" lon="7.45833">
        <ele>924.67245401827</ele>
        <time>2021-01-27T09:51:35Z</time>
      </trkpt>
      <trkpt lat="43.82019" lon="7.45835">
        <ele>925.67246491367</ele>
        <time>2021-01-27T09:51:36Z</time>
      </trkpt>
      <trkpt lat="43.82019" lon="7.45836">
        <ele>925.67248509654</ele>
        <time>2021-01-27T09:51:37Z</time>
      </trkpt>
      <trkpt lat="43.82018" lon="7.45837">
        <ele>925.67252444863</ele>
        <time>2021-01-27T09:51:38Z</time>
      </trkpt>
      <trkpt lat="43.82019" lon="7.45838">
        <ele>925.67252114383</ele>
        <time>2021-01-27T09:51:39Z</time>
      </trkpt>
      <trkpt lat="43.82018" lon="7.45839">
        <ele>926.6725374719</ele>
        <time>2021-01-27T09:51:40Z</time>
      </trkpt>
      <trkpt lat="43.82018" lon="7.4584">
        <ele>926.67256063601</ele>
        <time>2021-01-27T09:51:41Z</time>
      </trkpt>
      <trkpt lat="43.82018" lon="7.45843">
        <ele>926.67261049506</ele>
        <time>2021-01-27T09:51:43Z</time>
      </trkpt>
      <trkpt lat="43.82017" lon="7.45845">
        <ele>927.6726928624</ele>
        <time>2021-01-27T09:51:45Z</time>
      </trkpt>
      <trkpt lat="43.82016" lon="7.45846">
        <ele>927.67272741802</ele>
        <time>2021-01-27T09:51:46Z</time>
      </trkpt>
      <trkpt lat="43.82016" lon="7.45847">
        <ele>927.6727605963</ele>
        <time>2021-01-27T09:51:47Z</time>
      </trkpt>
      <trkpt lat="43.82015" lon="7.45848">
        <ele>928.67278147973</ele>
        <time>2021-01-27T09:51:48Z</time>
      </trkpt>
      <trkpt lat="43.82015" lon="7.45849">
        <ele>928.6728059731</ele>
        <time>2021-01-27T09:51:49Z</time>
      </trkpt>
      <trkpt lat="43.82015" lon="7.4585">
        <ele>927.67283281213</ele>
        <time>2021-01-27T09:51:50Z</time>
      </trkpt>
      <trkpt lat="43.82015" lon="7.45852">
        <ele>927.67285385855</ele>
        <time>2021-01-27T09:51:51Z</time>
      </trkpt>
      <trkpt lat="43.82014" lon="7.45853">
        <ele>928.67288757916</ele>
        <time>2021-01-27T09:51:52Z</time>
      </trkpt>
      <trkpt lat="43.82014" lon="7.45855">
        <ele>928.67291718566</ele>
        <time>2021-01-27T09:51:53Z</time>
      </trkpt>
      <trkpt lat="43.82014" lon="7.45856">
        <ele>928.67294845651</ele>
        <time>2021-01-27T09:51:54Z</time>
      </trkpt>
      <trkpt lat="43.82014" lon="7.45857">
        <ele>928.67296595989</ele>
        <time>2021-01-27T09:51:55Z</time>
      </trkpt>
      <trkpt lat="43.82013" lon="7.45859">
        <ele>928.67299833598</ele>
        <time>2021-01-27T09:51:56Z</time>
      </trkpt>
      <trkpt lat="43.82013" lon="7.4586">
        <ele>929.67304838229</ele>
        <time>2021-01-27T09:51:57Z</time>
      </trkpt>
      <trkpt lat="43.82012" lon="7.45861">
        <ele>929.67308852098</ele>
        <time>2021-01-27T09:51:58Z</time>
      </trkpt>
      <trkpt lat="43.82012" lon="7.45862">
        <ele>930.67312001568</ele>
        <time>2021-01-27T09:51:59Z</time>
      </trkpt>
      <trkpt lat="43.82011" lon="7.45863">
        <ele>929.67313460004</ele>
        <time>2021-01-27T09:52:00Z</time>
      </trkpt>
      <trkpt lat="43.82011" lon="7.45864">
        <ele>929.67316030458</ele>
        <time>2021-01-27T09:52:02Z</time>
      </trkpt>
      <trkpt lat="43.82011" lon="7.45865">
        <ele>929.67317169638</ele>
        <time>2021-01-27T09:52:03Z</time>
      </trkpt>
      <trkpt lat="43.82011" lon="7.45866">
        <ele>930.67319910647</ele>
        <time>2021-01-27T09:52:04Z</time>
      </trkpt>
      <trkpt lat="43.8201" lon="7.45867">
        <ele>930.67322880215</ele>
        <time>2021-01-27T09:52:05Z</time>
      </trkpt>
      <trkpt lat="43.8201" lon="7.45868">
        <ele>930.67327012422</ele>
        <time>2021-01-27T09:52:06Z</time>
      </trkpt>
      <trkpt lat="43.8201" lon="7.45869">
        <ele>929.67328704188</ele>
        <time>2021-01-27T09:52:07Z</time>
      </trkpt>
      <trkpt lat="43.82009" lon="7.4587">
        <ele>930.67330744577</ele>
        <time>2021-01-27T09:52:08Z</time>
      </trkpt>
      <trkpt lat="43.8201" lon="7.45872">
        <ele>930.67329812675</ele>
        <time>2021-01-27T09:52:10Z</time>
      </trkpt>
      <trkpt lat="43.8201" lon="7.45873">
        <ele>930.67331068063</ele>
        <time>2021-01-27T09:52:11Z</time>
      </trkpt>
      <trkpt lat="43.8201" lon="7.45874">
        <ele>930.67332466787</ele>
        <time>2021-01-27T09:52:12Z</time>
      </trkpt>
      <trkpt lat="43.8201" lon="7.45875">
        <ele>930.67334023977</ele>
        <time>2021-01-27T09:52:13Z</time>
      </trkpt>
      <trkpt lat="43.8201" lon="7.45876">
        <ele>930.67335262647</ele>
        <time>2021-01-27T09:52:14Z</time>
      </trkpt>
      <trkpt lat="43.82009" lon="7.45877">
        <ele>931.67338215582</ele>
        <time>2021-01-27T09:52:15Z</time>
      </trkpt>
      <trkpt lat="43.8201" lon="7.45878">
        <ele>931.67339106389</ele>
        <time>2021-01-27T09:52:16Z</time>
      </trkpt>
      <trkpt lat="43.8201" lon="7.4588">
        <ele>930.67338705467</ele>
        <time>2021-01-27T09:52:18Z</time>
      </trkpt>
      <trkpt lat="43.82011" lon="7.45881">
        <ele>931.6733706674</ele>
        <time>2021-01-27T09:52:19Z</time>
      </trkpt>
      <trkpt lat="43.82011" lon="7.45882">
        <ele>931.67336288042</ele>
        <time>2021-01-27T09:52:20Z</time>
      </trkpt>
      <trkpt lat="43.82012" lon="7.45883">
        <ele>931.67334060386</ele>
        <time>2021-01-27T09:52:21Z</time>
      </trkpt>
      <trkpt lat="43.82012" lon="7.45884">
        <ele>931.6733373109</ele>
        <time>2021-01-27T09:52:22Z</time>
      </trkpt>
      <trkpt lat="43.82012" lon="7.45885">
        <ele>931.67336756163</ele>
        <time>2021-01-27T09:52:23Z</time>
      </trkpt>
      <trkpt lat="43.82012" lon="7.45887">
        <ele>931.67337426991</ele>
        <time>2021-01-27T09:52:24Z</time>
      </trkpt>
      <trkpt lat="43.82012" lon="7.45888">
        <ele>931.67339766593</ele>
        <time>2021-01-27T09:52:25Z</time>
      </trkpt>
      <trkpt lat="43.82012" lon="7.45889">
        <ele>931.67341500263</ele>
        <time>2021-01-27T09:52:26Z</time>
      </trkpt>
      <trkpt lat="43.82012" lon="7.4589">
        <ele>931.6734078383</ele>
        <time>2021-01-27T09:52:27Z</time>
      </trkpt>
      <trkpt lat="43.82013" lon="7.45892">
        <ele>931.67339514527</ele>
        <time>2021-01-27T09:52:29Z</time>
      </trkpt>
      <trkpt lat="43.82013" lon="7.45894">
        <ele>931.67341079287</ele>
        <time>2021-01-27T09:52:30Z</time>
      </trkpt>
      <trkpt lat="43.82013" lon="7.45894">
        <ele>932.67341779001</ele>
        <time>2021-01-27T09:52:31Z</time>
      </trkpt>
      <trkpt lat="43.82013" lon="7.45895">
        <ele>932.67343241767</ele>
        <time>2021-01-27T09:52:33Z</time>
      </trkpt>
      <trkpt lat="43.82013" lon="7.45897">
        <ele>933.67345654086</ele>
        <time>2021-01-27T09:52:35Z</time>
      </trkpt>
      <trkpt lat="43.82013" lon="7.45897">
        <ele>932.67346068118</ele>
        <time>2021-01-27T09:52:36Z</time>
      </trkpt>
      <trkpt lat="43.82013" lon="7.45899">
        <ele>931.67348187236</ele>
        <time>2021-01-27T09:52:38Z</time>
      </trkpt>
      <trkpt lat="43.82013" lon="7.459">
        <ele>931.67348241361</ele>
        <time>2021-01-27T09:52:39Z</time>
      </trkpt>
      <trkpt lat="43.82013" lon="7.45901">
        <ele>932.67348079314</ele>
        <time>2021-01-27T09:52:40Z</time>
      </trkpt>
      <trkpt lat="43.82014" lon="7.45901">
        <ele>932.67345131532</ele>
        <time>2021-01-27T09:52:41Z</time>
      </trkpt>
      <trkpt lat="43.82014" lon="7.45902">
        <ele>933.67346144597</ele>
        <time>2021-01-27T09:52:42Z</time>
      </trkpt>
      <trkpt lat="43.82013" lon="7.45903">
        <ele>933.67349903441</ele>
        <time>2021-01-27T09:52:43Z</time>
      </trkpt>
      <trkpt lat="43.82014" lon="7.45904">
        <ele>933.67347945304</ele>
        <time>2021-01-27T09:52:44Z</time>
      </trkpt>
      <trkpt lat="43.82014" lon="7.45906">
        <ele>933.67347066358</ele>
        <time>2021-01-27T09:52:45Z</time>
      </trkpt>
      <trkpt lat="43.82015" lon="7.45907">
        <ele>933.67345779302</ele>
        <time>2021-01-27T09:52:46Z</time>
      </trkpt>
      <trkpt lat="43.82014" lon="7.45908">
        <ele>934.67350186341</ele>
        <time>2021-01-27T09:52:47Z</time>
      </trkpt>
      <trkpt lat="43.82015" lon="7.45909">
        <ele>934.67349064833</ele>
        <time>2021-01-27T09:52:48Z</time>
      </trkpt>
      <trkpt lat="43.82015" lon="7.4591">
        <ele>934.67347285903</ele>
        <time>2021-01-27T09:52:49Z</time>
      </trkpt>
      <trkpt lat="43.82017" lon="7.4591">
        <ele>934.67342521327</ele>
        <time>2021-01-27T09:52:50Z</time>
      </trkpt>
      <trkpt lat="43.82017" lon="7.45911">
        <ele>935.67341757798</ele>
        <time>2021-01-27T09:52:51Z</time>
      </trkpt>
      <trkpt lat="43.82017" lon="7.45913">
        <ele>935.67343230617</ele>
        <time>2021-01-27T09:52:52Z</time>
      </trkpt>
      <trkpt lat="43.82017" lon="7.45914">
        <ele>935.67345006077</ele>
        <time>2021-01-27T09:52:53Z</time>
      </trkpt>
      <trkpt lat="43.82017" lon="7.45914">
        <ele>935.67345219484</ele>
        <time>2021-01-27T09:52:54Z</time>
      </trkpt>
      <trkpt lat="43.82017" lon="7.45916">
        <ele>936.67345817398</ele>
        <time>2021-01-27T09:52:55Z</time>
      </trkpt>
      <trkpt lat="43.82017" lon="7.45916">
        <ele>936.67345465996</ele>
        <time>2021-01-27T09:53:10Z</time>
      </trkpt>
      <trkpt lat="43.82018" lon="7.4592">
        <ele>937.67346652248</ele>
        <time>2021-01-27T09:53:12Z</time>
      </trkpt>
      <trkpt lat="43.82018" lon="7.45921">
        <ele>937.67347301632</ele>
        <time>2021-01-27T09:53:16Z</time>
      </trkpt>
      <trkpt lat="43.82017" lon="7.45922">
        <ele>938.67351494452</ele>
        <time>2021-01-27T09:53:17Z</time>
      </trkpt>
      <trkpt lat="43.82017" lon="7.45922">
        <ele>937.67355359844</ele>
        <time>2021-01-27T09:53:35Z</time>
      </trkpt>
      <trkpt lat="43.82015" lon="7.45922">
        <ele>938.6736381318</ele>
        <time>2021-01-27T09:53:38Z</time>
      </trkpt>
      <trkpt lat="43.82016" lon="7.45922">
        <ele>938.67360800911</ele>
        <time>2021-01-27T09:53:42Z</time>
      </trkpt>
      <trkpt lat="43.82015" lon="7.45923">
        <ele>939.67363469552</ele>
        <time>2021-01-27T09:53:43Z</time>
      </trkpt>
      <trkpt lat="43.82015" lon="7.45924">
        <ele>939.67364504566</ele>
        <time>2021-01-27T09:53:44Z</time>
      </trkpt>
      <trkpt lat="43.82015" lon="7.45925">
        <ele>938.67365545344</ele>
        <time>2021-01-27T09:53:45Z</time>
      </trkpt>
      <trkpt lat="43.82015" lon="7.45926">
        <ele>939.67365967054</ele>
        <time>2021-01-27T09:53:46Z</time>
      </trkpt>
      <trkpt lat="43.82015" lon="7.45928">
        <ele>938.67369668577</ele>
        <time>2021-01-27T09:53:47Z</time>
      </trkpt>
      <trkpt lat="43.82014" lon="7.45927">
        <ele>939.67372367115</ele>
        <time>2021-01-27T09:53:48Z</time>
      </trkpt>
      <trkpt lat="43.82014" lon="7.45926">
        <ele>940.67370541233</ele>
        <time>2021-01-27T09:53:51Z</time>
      </trkpt>
      <trkpt lat="43.82014" lon="7.45926">
        <ele>940.67371352832</ele>
        <time>2021-01-27T09:53:52Z</time>
      </trkpt>
      <trkpt lat="43.82014" lon="7.45925">
        <ele>940.67372705892</ele>
        <time>2021-01-27T09:54:22Z</time>
      </trkpt>
      <trkpt lat="43.82014" lon="7.45924">
        <ele>939.67369450807</ele>
        <time>2021-01-27T09:54:23Z</time>
      </trkpt>
      <trkpt lat="43.82014" lon="7.45923">
        <ele>939.6736935042</ele>
        <time>2021-01-27T09:54:26Z</time>
      </trkpt>
      <trkpt lat="43.82015" lon="7.45924">
        <ele>938.67367146601</ele>
        <time>2021-01-27T09:54:27Z</time>
      </trkpt>
      <trkpt lat="43.82015" lon="7.45925">
        <ele>938.67368387007</ele>
        <time>2021-01-27T09:54:28Z</time>
      </trkpt>
      <trkpt lat="43.82014" lon="7.45926">
        <ele>937.6737064471</ele>
        <time>2021-01-27T09:54:29Z</time>
      </trkpt>
      <trkpt lat="43.82013" lon="7.45926">
        <ele>938.67374351933</ele>
        <time>2021-01-27T09:54:30Z</time>
      </trkpt>
      <trkpt lat="43.82013" lon="7.45926">
        <ele>937.67377418072</ele>
        <time>2021-01-27T09:54:36Z</time>
      </trkpt>
      <trkpt lat="43.82013" lon="7.45928">
        <ele>937.67378893922</ele>
        <time>2021-01-27T09:54:37Z</time>
      </trkpt>
      <trkpt lat="43.82013" lon="7.4593">
        <ele>937.67379899669</ele>
        <time>2021-01-27T09:54:38Z</time>
      </trkpt>
      <trkpt lat="43.82013" lon="7.45932">
        <ele>937.67381384125</ele>
        <time>2021-01-27T09:54:39Z</time>
      </trkpt>
      <trkpt lat="43.82013" lon="7.45933">
        <ele>937.67382954087</ele>
        <time>2021-01-27T09:54:40Z</time>
      </trkpt>
      <trkpt lat="43.82014" lon="7.45935">
        <ele>936.67382706361</ele>
        <time>2021-01-27T09:54:41Z</time>
      </trkpt>
      <trkpt lat="43.82014" lon="7.45935">
        <ele>935.67382809611</ele>
        <time>2021-01-27T09:54:42Z</time>
      </trkpt>
      <trkpt lat="43.82014" lon="7.45936">
        <ele>934.67383615802</ele>
        <time>2021-01-27T09:54:43Z</time>
      </trkpt>
      <trkpt lat="43.82014" lon="7.45938">
        <ele>934.67383624298</ele>
        <time>2021-01-27T09:54:44Z</time>
      </trkpt>
      <trkpt lat="43.82015" lon="7.45939">
        <ele>933.67382674743</ele>
        <time>2021-01-27T09:54:45Z</time>
      </trkpt>
      <trkpt lat="43.82015" lon="7.4594">
        <ele>933.67381125931</ele>
        <time>2021-01-27T09:54:46Z</time>
      </trkpt>
      <trkpt lat="43.82016" lon="7.45941">
        <ele>934.67381363259</ele>
        <time>2021-01-27T09:54:47Z</time>
      </trkpt>
      <trkpt lat="43.82015" lon="7.45941">
        <ele>933.67382801274</ele>
        <time>2021-01-27T09:54:48Z</time>
      </trkpt>
      <trkpt lat="43.82015" lon="7.45942">
        <ele>933.67385673089</ele>
        <time>2021-01-27T09:54:49Z</time>
      </trkpt>
      <trkpt lat="43.82014" lon="7.45941">
        <ele>933.67388678504</ele>
        <time>2021-01-27T09:54:50Z</time>
      </trkpt>
      <trkpt lat="43.82014" lon="7.45941">
        <ele>934.67388419174</ele>
        <time>2021-01-27T09:55:22Z</time>
      </trkpt>
      <trkpt lat="43.82014" lon="7.45941">
        <ele>934.67389818793</ele>
        <time>2021-01-27T09:55:25Z</time>
      </trkpt>
      <trkpt lat="43.82013" lon="7.45945">
        <ele>935.67397191011</ele>
        <time>2021-01-27T09:55:28Z</time>
      </trkpt>
      <trkpt lat="43.82012" lon="7.45945">
        <ele>934.67400692535</ele>
        <time>2021-01-27T09:55:30Z</time>
      </trkpt>
      <trkpt lat="43.82012" lon="7.45941">
        <ele>934.6740096302</ele>
        <time>2021-01-27T09:55:32Z</time>
      </trkpt>
      <trkpt lat="43.82011" lon="7.4594">
        <ele>934.67399631179</ele>
        <time>2021-01-27T09:55:33Z</time>
      </trkpt>
      <trkpt lat="43.82011" lon="7.45938">
        <ele>934.67397240892</ele>
        <time>2021-01-27T09:55:35Z</time>
      </trkpt>
      <trkpt lat="43.82011" lon="7.45936">
        <ele>934.67399593113</ele>
        <time>2021-01-27T09:55:36Z</time>
      </trkpt>
      <trkpt lat="43.8201" lon="7.45935">
        <ele>934.67399971738</ele>
        <time>2021-01-27T09:55:37Z</time>
      </trkpt>
      <trkpt lat="43.82009" lon="7.45934">
        <ele>934.67402825062</ele>
        <time>2021-01-27T09:55:38Z</time>
      </trkpt>
      <trkpt lat="43.82009" lon="7.45933">
        <ele>935.67404172659</ele>
        <time>2021-01-27T09:55:39Z</time>
      </trkpt>
      <trkpt lat="43.82008" lon="7.45933">
        <ele>936.67407047554</ele>
        <time>2021-01-27T09:55:40Z</time>
      </trkpt>
      <trkpt lat="43.82008" lon="7.45933">
        <ele>939.67409810458</ele>
        <time>2021-01-27T09:55:49Z</time>
      </trkpt>
      <trkpt lat="43.82008" lon="7.45932">
        <ele>937.67404723409</ele>
        <time>2021-01-27T09:55:50Z</time>
      </trkpt>
      <trkpt lat="43.82009" lon="7.45931">
        <ele>936.67401141254</ele>
        <time>2021-01-27T09:55:51Z</time>
      </trkpt>
      <trkpt lat="43.82009" lon="7.45931">
        <ele>936.67398571018</ele>
        <time>2021-01-27T09:55:52Z</time>
      </trkpt>
      <trkpt lat="43.82012" lon="7.45933">
        <ele>936.67391839952</ele>
        <time>2021-01-27T09:55:55Z</time>
      </trkpt>
      <trkpt lat="43.82012" lon="7.45933">
        <ele>935.67388788938</ele>
        <time>2021-01-27T09:55:57Z</time>
      </trkpt>
      <trkpt lat="43.82012" lon="7.45932">
        <ele>936.67385497046</ele>
        <time>2021-01-27T09:55:58Z</time>
      </trkpt>
      <trkpt lat="43.82013" lon="7.45931">
        <ele>935.67383579409</ele>
        <time>2021-01-27T09:55:59Z</time>
      </trkpt>
      <trkpt lat="43.82013" lon="7.45929">
        <ele>935.67382762923</ele>
        <time>2021-01-27T09:56:00Z</time>
      </trkpt>
      <trkpt lat="43.82012" lon="7.45928">
        <ele>936.6738333724</ele>
        <time>2021-01-27T09:56:01Z</time>
      </trkpt>
      <trkpt lat="43.82012" lon="7.45927">
        <ele>936.6738301058</ele>
        <time>2021-01-27T09:56:02Z</time>
      </trkpt>
      <trkpt lat="43.82012" lon="7.45925">
        <ele>936.67380714056</ele>
        <time>2021-01-27T09:56:04Z</time>
      </trkpt>
      <trkpt lat="43.82012" lon="7.45924">
        <ele>936.67380639339</ele>
        <time>2021-01-27T09:56:05Z</time>
      </trkpt>
      <trkpt lat="43.82012" lon="7.45923">
        <ele>936.67378592905</ele>
        <time>2021-01-27T09:56:06Z</time>
      </trkpt>
      <trkpt lat="43.82012" lon="7.45921">
        <ele>936.67378020131</ele>
        <time>2021-01-27T09:56:08Z</time>
      </trkpt>
      <trkpt lat="43.82011" lon="7.4592">
        <ele>936.67377838225</ele>
        <time>2021-01-27T09:56:09Z</time>
      </trkpt>
      <trkpt lat="43.82011" lon="7.45919">
        <ele>936.67379340686</ele>
        <time>2021-01-27T09:56:10Z</time>
      </trkpt>
      <trkpt lat="43.8201" lon="7.45919">
        <ele>937.67381914401</ele>
        <time>2021-01-27T09:56:11Z</time>
      </trkpt>
      <trkpt lat="43.8201" lon="7.45918">
        <ele>937.67383172702</ele>
        <time>2021-01-27T09:56:12Z</time>
      </trkpt>
      <trkpt lat="43.82009" lon="7.45914">
        <ele>936.67381119368</ele>
        <time>2021-01-27T09:56:14Z</time>
      </trkpt>
      <trkpt lat="43.82009" lon="7.45913">
        <ele>936.67381359465</ele>
        <time>2021-01-27T09:56:15Z</time>
      </trkpt>
      <trkpt lat="43.82009" lon="7.45912">
        <ele>936.67381608362</ele>
        <time>2021-01-27T09:56:16Z</time>
      </trkpt>
      <trkpt lat="43.82008" lon="7.45911">
        <ele>936.67381526674</ele>
        <time>2021-01-27T09:56:17Z</time>
      </trkpt>
      <trkpt lat="43.82008" lon="7.45911">
        <ele>936.67382741831</ele>
        <time>2021-01-27T09:56:18Z</time>
      </trkpt>
      <trkpt lat="43.82006" lon="7.45906">
        <ele>937.67387066461</ele>
        <time>2021-01-27T09:56:20Z</time>
      </trkpt>
      <trkpt lat="43.82005" lon="7.45904">
        <ele>937.67389980281</ele>
        <time>2021-01-27T09:56:21Z</time>
      </trkpt>
      <trkpt lat="43.82004" lon="7.45902">
        <ele>937.67392503074</ele>
        <time>2021-01-27T09:56:22Z</time>
      </trkpt>
      <trkpt lat="43.82003" lon="7.45902">
        <ele>936.6739411767</ele>
        <time>2021-01-27T09:56:23Z</time>
      </trkpt>
      <trkpt lat="43.82003" lon="7.45901">
        <ele>936.67396452081</ele>
        <time>2021-01-27T09:56:24Z</time>
      </trkpt>
      <trkpt lat="43.82002" lon="7.459">
        <ele>936.67398617563</ele>
        <time>2021-01-27T09:56:25Z</time>
      </trkpt>
      <trkpt lat="43.82001" lon="7.459">
        <ele>936.67402159804</ele>
        <time>2021-01-27T09:56:26Z</time>
      </trkpt>
      <trkpt lat="43.82" lon="7.45899">
        <ele>936.67406456959</ele>
        <time>2021-01-27T09:56:27Z</time>
      </trkpt>
      <trkpt lat="43.82" lon="7.45898">
        <ele>936.67407832444</ele>
        <time>2021-01-27T09:56:28Z</time>
      </trkpt>
      <trkpt lat="43.81999" lon="7.45898">
        <ele>936.67408358809</ele>
        <time>2021-01-27T09:56:29Z</time>
      </trkpt>
      <trkpt lat="43.81999" lon="7.45897">
        <ele>936.67409992908</ele>
        <time>2021-01-27T09:56:30Z</time>
      </trkpt>
      <trkpt lat="43.81998" lon="7.45896">
        <ele>937.67412010548</ele>
        <time>2021-01-27T09:56:31Z</time>
      </trkpt>
      <trkpt lat="43.81998" lon="7.45895">
        <ele>937.67414332727</ele>
        <time>2021-01-27T09:56:32Z</time>
      </trkpt>
      <trkpt lat="43.81997" lon="7.45894">
        <ele>937.67416702011</ele>
        <time>2021-01-27T09:56:33Z</time>
      </trkpt>
      <trkpt lat="43.81996" lon="7.45893">
        <ele>937.67418085186</ele>
        <time>2021-01-27T09:56:34Z</time>
      </trkpt>
      <trkpt lat="43.81996" lon="7.45892">
        <ele>938.67418558621</ele>
        <time>2021-01-27T09:56:35Z</time>
      </trkpt>
      <trkpt lat="43.81995" lon="7.45891">
        <ele>937.67420632366</ele>
        <time>2021-01-27T09:56:36Z</time>
      </trkpt>
      <trkpt lat="43.81995" lon="7.4589">
        <ele>938.67421735929</ele>
        <time>2021-01-27T09:56:37Z</time>
      </trkpt>
      <trkpt lat="43.81994" lon="7.45889">
        <ele>938.6742365465</ele>
        <time>2021-01-27T09:56:38Z</time>
      </trkpt>
      <trkpt lat="43.81994" lon="7.45889">
        <ele>937.67425329637</ele>
        <time>2021-01-27T09:56:39Z</time>
      </trkpt>
      <trkpt lat="43.81993" lon="7.45888">
        <ele>938.67427088706</ele>
        <time>2021-01-27T09:56:40Z</time>
      </trkpt>
      <trkpt lat="43.81992" lon="7.45887">
        <ele>938.67430995511</ele>
        <time>2021-01-27T09:56:41Z</time>
      </trkpt>
      <trkpt lat="43.81991" lon="7.45887">
        <ele>938.67433205021</ele>
        <time>2021-01-27T09:56:42Z</time>
      </trkpt>
      <trkpt lat="43.81991" lon="7.45886">
        <ele>938.67435807279</ele>
        <time>2021-01-27T09:56:43Z</time>
      </trkpt>
      <trkpt lat="43.8199" lon="7.45885">
        <ele>939.67439185214</ele>
        <time>2021-01-27T09:56:44Z</time>
      </trkpt>
      <trkpt lat="43.81989" lon="7.45885">
        <ele>939.67442181458</ele>
        <time>2021-01-27T09:56:45Z</time>
      </trkpt>
      <trkpt lat="43.81988" lon="7.45884">
        <ele>939.67445897119</ele>
        <time>2021-01-27T09:56:46Z</time>
      </trkpt>
      <trkpt lat="43.81987" lon="7.45884">
        <ele>940.67451587192</ele>
        <time>2021-01-27T09:56:47Z</time>
      </trkpt>
      <trkpt lat="43.81985" lon="7.45883">
        <ele>940.67457689899</ele>
        <time>2021-01-27T09:56:48Z</time>
      </trkpt>
      <trkpt lat="43.81984" lon="7.45882">
        <ele>940.67462131993</ele>
        <time>2021-01-27T09:56:49Z</time>
      </trkpt>
      <trkpt lat="43.81983" lon="7.45882">
        <ele>941.67466577904</ele>
        <time>2021-01-27T09:56:50Z</time>
      </trkpt>
      <trkpt lat="43.81982" lon="7.45881">
        <ele>941.67470642034</ele>
        <time>2021-01-27T09:56:51Z</time>
      </trkpt>
      <trkpt lat="43.81981" lon="7.45881">
        <ele>941.67475386551</ele>
        <time>2021-01-27T09:56:52Z</time>
      </trkpt>
      <trkpt lat="43.8198" lon="7.45881">
        <ele>941.6747975576</ele>
        <time>2021-01-27T09:56:53Z</time>
      </trkpt>
      <trkpt lat="43.81979" lon="7.45881">
        <ele>941.6748436496</ele>
        <time>2021-01-27T09:56:54Z</time>
      </trkpt>
      <trkpt lat="43.81978" lon="7.45881">
        <ele>941.67487400714</ele>
        <time>2021-01-27T09:56:55Z</time>
      </trkpt>
      <trkpt lat="43.81978" lon="7.45879">
        <ele>941.67489122056</ele>
        <time>2021-01-27T09:56:56Z</time>
      </trkpt>
      <trkpt lat="43.81977" lon="7.45879">
        <ele>941.67492632056</ele>
        <time>2021-01-27T09:56:57Z</time>
      </trkpt>
      <trkpt lat="43.81976" lon="7.45878">
        <ele>941.67496403029</ele>
        <time>2021-01-27T09:56:58Z</time>
      </trkpt>
      <trkpt lat="43.81975" lon="7.45878">
        <ele>941.67500114152</ele>
        <time>2021-01-27T09:56:59Z</time>
      </trkpt>
      <trkpt lat="43.81974" lon="7.45878">
        <ele>942.6750284332</ele>
        <time>2021-01-27T09:57:00Z</time>
      </trkpt>
      <trkpt lat="43.81973" lon="7.45877">
        <ele>942.67506582256</ele>
        <time>2021-01-27T09:57:01Z</time>
      </trkpt>
      <trkpt lat="43.81973" lon="7.45877">
        <ele>943.67510511566</ele>
        <time>2021-01-27T09:57:02Z</time>
      </trkpt>
      <trkpt lat="43.81972" lon="7.45877">
        <ele>944.67514307516</ele>
        <time>2021-01-27T09:57:03Z</time>
      </trkpt>
      <trkpt lat="43.81971" lon="7.45877">
        <ele>945.67518440481</ele>
        <time>2021-01-27T09:57:04Z</time>
      </trkpt>
      <trkpt lat="43.8197" lon="7.45877">
        <ele>945.67522589713</ele>
        <time>2021-01-27T09:57:05Z</time>
      </trkpt>
      <trkpt lat="43.81969" lon="7.45876">
        <ele>945.67526581655</ele>
        <time>2021-01-27T09:57:06Z</time>
      </trkpt>
      <trkpt lat="43.81968" lon="7.45876">
        <ele>945.67530859891</ele>
        <time>2021-01-27T09:57:07Z</time>
      </trkpt>
      <trkpt lat="43.81967" lon="7.45875">
        <ele>945.6753521724</ele>
        <time>2021-01-27T09:57:08Z</time>
      </trkpt>
      <trkpt lat="43.81966" lon="7.45874">
        <ele>946.67538302857</ele>
        <time>2021-01-27T09:57:09Z</time>
      </trkpt>
      <trkpt lat="43.81965" lon="7.45873">
        <ele>946.67540608292</ele>
        <time>2021-01-27T09:57:10Z</time>
      </trkpt>
      <trkpt lat="43.81964" lon="7.45872">
        <ele>946.67543820908</ele>
        <time>2021-01-27T09:57:11Z</time>
      </trkpt>
      <trkpt lat="43.81963" lon="7.45872">
        <ele>946.675479253</ele>
        <time>2021-01-27T09:57:12Z</time>
      </trkpt>
      <trkpt lat="43.81962" lon="7.45871">
        <ele>946.67550692487</ele>
        <time>2021-01-27T09:57:13Z</time>
      </trkpt>
      <trkpt lat="43.81962" lon="7.45869">
        <ele>946.67551361723</ele>
        <time>2021-01-27T09:57:14Z</time>
      </trkpt>
      <trkpt lat="43.81961" lon="7.45868">
        <ele>946.67554919372</ele>
        <time>2021-01-27T09:57:15Z</time>
      </trkpt>
      <trkpt lat="43.8196" lon="7.45868">
        <ele>946.67559210386</ele>
        <time>2021-01-27T09:57:16Z</time>
      </trkpt>
      <trkpt lat="43.81959" lon="7.45867">
        <ele>946.67561485956</ele>
        <time>2021-01-27T09:57:17Z</time>
      </trkpt>
      <trkpt lat="43.81958" lon="7.45866">
        <ele>946.675655019</ele>
        <time>2021-01-27T09:57:18Z</time>
      </trkpt>
      <trkpt lat="43.81957" lon="7.45866">
        <ele>946.67570793471</ele>
        <time>2021-01-27T09:57:19Z</time>
      </trkpt>
      <trkpt lat="43.81956" lon="7.45865">
        <ele>945.67575016372</ele>
        <time>2021-01-27T09:57:20Z</time>
      </trkpt>
      <trkpt lat="43.81955" lon="7.45864">
        <ele>945.6757852916</ele>
        <time>2021-01-27T09:57:21Z</time>
      </trkpt>
      <trkpt lat="43.81954" lon="7.45864">
        <ele>945.67581162485</ele>
        <time>2021-01-27T09:57:22Z</time>
      </trkpt>
      <trkpt lat="43.81953" lon="7.45861">
        <ele>945.67583835669</ele>
        <time>2021-01-27T09:57:24Z</time>
      </trkpt>
      <trkpt lat="43.81952" lon="7.45859">
        <ele>945.67584464332</ele>
        <time>2021-01-27T09:57:25Z</time>
      </trkpt>
      <trkpt lat="43.81951" lon="7.45859">
        <ele>945.67588409484</ele>
        <time>2021-01-27T09:57:26Z</time>
      </trkpt>
      <trkpt lat="43.81951" lon="7.45858">
        <ele>946.6759126577</ele>
        <time>2021-01-27T09:57:27Z</time>
      </trkpt>
      <trkpt lat="43.8195" lon="7.45857">
        <ele>946.67594189134</ele>
        <time>2021-01-27T09:57:28Z</time>
      </trkpt>
      <trkpt lat="43.81949" lon="7.45856">
        <ele>946.67597662248</ele>
        <time>2021-01-27T09:57:29Z</time>
      </trkpt>
      <trkpt lat="43.81948" lon="7.45856">
        <ele>946.67602243969</ele>
        <time>2021-01-27T09:57:30Z</time>
      </trkpt>
      <trkpt lat="43.81947" lon="7.45856">
        <ele>946.67606352231</ele>
        <time>2021-01-27T09:57:31Z</time>
      </trkpt>
      <trkpt lat="43.81946" lon="7.45856">
        <ele>946.67611153887</ele>
        <time>2021-01-27T09:57:32Z</time>
      </trkpt>
      <trkpt lat="43.81945" lon="7.45855">
        <ele>946.67615125352</ele>
        <time>2021-01-27T09:57:33Z</time>
      </trkpt>
      <trkpt lat="43.81944" lon="7.45855">
        <ele>946.67618525469</ele>
        <time>2021-01-27T09:57:34Z</time>
      </trkpt>
      <trkpt lat="43.81943" lon="7.45854">
        <ele>947.67620602979</ele>
        <time>2021-01-27T09:57:35Z</time>
      </trkpt>
      <trkpt lat="43.81942" lon="7.45853">
        <ele>946.67624786212</ele>
        <time>2021-01-27T09:57:36Z</time>
      </trkpt>
      <trkpt lat="43.8194" lon="7.45853">
        <ele>947.67634469997</ele>
        <time>2021-01-27T09:57:38Z</time>
      </trkpt>
      <trkpt lat="43.81938" lon="7.45852">
        <ele>947.67644153196</ele>
        <time>2021-01-27T09:57:40Z</time>
      </trkpt>
      <trkpt lat="43.81937" lon="7.45852">
        <ele>947.67646632924</ele>
        <time>2021-01-27T09:57:41Z</time>
      </trkpt>
      <trkpt lat="43.81937" lon="7.45851">
        <ele>947.67648942527</ele>
        <time>2021-01-27T09:57:42Z</time>
      </trkpt>
      <trkpt lat="43.81936" lon="7.4585">
        <ele>947.67652075555</ele>
        <time>2021-01-27T09:57:43Z</time>
      </trkpt>
      <trkpt lat="43.81934" lon="7.45848">
        <ele>947.67657370848</ele>
        <time>2021-01-27T09:57:45Z</time>
      </trkpt>
      <trkpt lat="43.81933" lon="7.45847">
        <ele>947.67660616718</ele>
        <time>2021-01-27T09:57:46Z</time>
      </trkpt>
      <trkpt lat="43.81932" lon="7.45846">
        <ele>947.67662826233</ele>
        <time>2021-01-27T09:57:47Z</time>
      </trkpt>
      <trkpt lat="43.81932" lon="7.45845">
        <ele>947.67665537192</ele>
        <time>2021-01-27T09:57:48Z</time>
      </trkpt>
      <trkpt lat="43.8193" lon="7.45844">
        <ele>947.67670101995</ele>
        <time>2021-01-27T09:57:49Z</time>
      </trkpt>
      <trkpt lat="43.81929" lon="7.45844">
        <ele>948.67675265968</ele>
        <time>2021-01-27T09:57:50Z</time>
      </trkpt>
      <trkpt lat="43.81929" lon="7.45843">
        <ele>947.67677794583</ele>
        <time>2021-01-27T09:57:51Z</time>
      </trkpt>
      <trkpt lat="43.81928" lon="7.45843">
        <ele>946.67679580737</ele>
        <time>2021-01-27T09:57:53Z</time>
      </trkpt>
      <trkpt lat="43.81926" lon="7.45841">
        <ele>946.67685989329</ele>
        <time>2021-01-27T09:57:55Z</time>
      </trkpt>
      <trkpt lat="43.81925" lon="7.4584">
        <ele>947.67689994267</ele>
        <time>2021-01-27T09:57:56Z</time>
      </trkpt>
      <trkpt lat="43.81925" lon="7.45839">
        <ele>947.67691929695</ele>
        <time>2021-01-27T09:57:57Z</time>
      </trkpt>
      <trkpt lat="43.81924" lon="7.45839">
        <ele>947.67695933447</ele>
        <time>2021-01-27T09:57:58Z</time>
      </trkpt>
      <trkpt lat="43.81923" lon="7.45839">
        <ele>947.67700102991</ele>
        <time>2021-01-27T09:57:59Z</time>
      </trkpt>
      <trkpt lat="43.81922" lon="7.45837">
        <ele>947.67701717922</ele>
        <time>2021-01-27T09:58:00Z</time>
      </trkpt>
      <trkpt lat="43.81921" lon="7.45836">
        <ele>947.67706368913</ele>
        <time>2021-01-27T09:58:01Z</time>
      </trkpt>
      <trkpt lat="43.8192" lon="7.45836">
        <ele>947.6771054124</ele>
        <time>2021-01-27T09:58:02Z</time>
      </trkpt>
      <trkpt lat="43.81918" lon="7.45835">
        <ele>947.67720080857</ele>
        <time>2021-01-27T09:58:04Z</time>
      </trkpt>
      <trkpt lat="43.81917" lon="7.45835">
        <ele>948.67724236387</ele>
        <time>2021-01-27T09:58:05Z</time>
      </trkpt>
      <trkpt lat="43.81916" lon="7.45834">
        <ele>949.67727430138</ele>
        <time>2021-01-27T09:58:06Z</time>
      </trkpt>
      <trkpt lat="43.81915" lon="7.45833">
        <ele>949.67731262314</ele>
        <time>2021-01-27T09:58:07Z</time>
      </trkpt>
      <trkpt lat="43.81914" lon="7.45832">
        <ele>949.67733311788</ele>
        <time>2021-01-27T09:58:08Z</time>
      </trkpt>
      <trkpt lat="43.81913" lon="7.45832">
        <ele>949.67737836722</ele>
        <time>2021-01-27T09:58:09Z</time>
      </trkpt>
      <trkpt lat="43.81912" lon="7.45831">
        <ele>949.67742695087</ele>
        <time>2021-01-27T09:58:10Z</time>
      </trkpt>
      <trkpt lat="43.81911" lon="7.45831">
        <ele>950.6774684991</ele>
        <time>2021-01-27T09:58:11Z</time>
      </trkpt>
      <trkpt lat="43.8191" lon="7.4583">
        <ele>951.67749690059</ele>
        <time>2021-01-27T09:58:12Z</time>
      </trkpt>
      <trkpt lat="43.81909" lon="7.45829">
        <ele>951.67754678911</ele>
        <time>2021-01-27T09:58:14Z</time>
      </trkpt>
      <trkpt lat="43.81908" lon="7.45828">
        <ele>951.6775746182</ele>
        <time>2021-01-27T09:58:15Z</time>
      </trkpt>
      <trkpt lat="43.81907" lon="7.45827">
        <ele>952.67759882549</ele>
        <time>2021-01-27T09:58:16Z</time>
      </trkpt>
      <trkpt lat="43.81906" lon="7.45826">
        <ele>953.67765140434</ele>
        <time>2021-01-27T09:58:18Z</time>
      </trkpt>
      <trkpt lat="43.81904" lon="7.45824">
        <ele>954.67770407706</ele>
        <time>2021-01-27T09:58:20Z</time>
      </trkpt>
      <trkpt lat="43.81903" lon="7.45823">
        <ele>953.67773467947</ele>
        <time>2021-01-27T09:58:21Z</time>
      </trkpt>
      <trkpt lat="43.81902" lon="7.45822">
        <ele>954.67776406635</ele>
        <time>2021-01-27T09:58:22Z</time>
      </trkpt>
      <trkpt lat="43.81902" lon="7.45821">
        <ele>954.67779354402</ele>
        <time>2021-01-27T09:58:24Z</time>
      </trkpt>
      <trkpt lat="43.81901" lon="7.4582">
        <ele>955.67783093619</ele>
        <time>2021-01-27T09:58:25Z</time>
      </trkpt>
      <trkpt lat="43.819" lon="7.4582">
        <ele>955.67786629943</ele>
        <time>2021-01-27T09:58:26Z</time>
      </trkpt>
      <trkpt lat="43.81897" lon="7.45819">
        <ele>955.67795614972</ele>
        <time>2021-01-27T09:58:28Z</time>
      </trkpt>
      <trkpt lat="43.81895" lon="7.45818">
        <ele>955.67807428465</ele>
        <time>2021-01-27T09:58:30Z</time>
      </trkpt>
      <trkpt lat="43.81894" lon="7.45818">
        <ele>955.67811931129</ele>
        <time>2021-01-27T09:58:31Z</time>
      </trkpt>
      <trkpt lat="43.81893" lon="7.45817">
        <ele>955.67815727646</ele>
        <time>2021-01-27T09:58:32Z</time>
      </trkpt>
      <trkpt lat="43.81892" lon="7.45816">
        <ele>956.67819694592</ele>
        <time>2021-01-27T09:58:33Z</time>
      </trkpt>
      <trkpt lat="43.81891" lon="7.45816">
        <ele>956.67825087017</ele>
        <time>2021-01-27T09:58:34Z</time>
      </trkpt>
      <trkpt lat="43.81889" lon="7.45815">
        <ele>956.67830979798</ele>
        <time>2021-01-27T09:58:35Z</time>
      </trkpt>
      <trkpt lat="43.81888" lon="7.45815">
        <ele>956.67836058427</ele>
        <time>2021-01-27T09:58:36Z</time>
      </trkpt>
      <trkpt lat="43.81887" lon="7.45814">
        <ele>956.67840122203</ele>
        <time>2021-01-27T09:58:37Z</time>
      </trkpt>
      <trkpt lat="43.81885" lon="7.45813">
        <ele>956.67846285821</ele>
        <time>2021-01-27T09:58:39Z</time>
      </trkpt>
      <trkpt lat="43.81884" lon="7.45812">
        <ele>955.67849870977</ele>
        <time>2021-01-27T09:58:40Z</time>
      </trkpt>
      <trkpt lat="43.81883" lon="7.45811">
        <ele>955.67855034809</ele>
        <time>2021-01-27T09:58:41Z</time>
      </trkpt>
      <trkpt lat="43.81882" lon="7.4581">
        <ele>955.67858177401</ele>
        <time>2021-01-27T09:58:42Z</time>
      </trkpt>
      <trkpt lat="43.81881" lon="7.4581">
        <ele>956.67861713907</ele>
        <time>2021-01-27T09:58:43Z</time>
      </trkpt>
      <trkpt lat="43.8188" lon="7.45809">
        <ele>956.67864684117</ele>
        <time>2021-01-27T09:58:44Z</time>
      </trkpt>
      <trkpt lat="43.8188" lon="7.45808">
        <ele>956.67868186917</ele>
        <time>2021-01-27T09:58:45Z</time>
      </trkpt>
      <trkpt lat="43.81879" lon="7.45808">
        <ele>956.67872204677</ele>
        <time>2021-01-27T09:58:46Z</time>
      </trkpt>
      <trkpt lat="43.81877" lon="7.45807">
        <ele>956.67876694856</ele>
        <time>2021-01-27T09:58:47Z</time>
      </trkpt>
      <trkpt lat="43.81875" lon="7.45807">
        <ele>957.67885650518</ele>
        <time>2021-01-27T09:58:49Z</time>
      </trkpt>
      <trkpt lat="43.81875" lon="7.45806">
        <ele>957.67888659103</ele>
        <time>2021-01-27T09:58:50Z</time>
      </trkpt>
      <trkpt lat="43.81874" lon="7.45806">
        <ele>957.67892207613</ele>
        <time>2021-01-27T09:58:51Z</time>
      </trkpt>
      <trkpt lat="43.81873" lon="7.45805">
        <ele>958.67895713812</ele>
        <time>2021-01-27T09:58:52Z</time>
      </trkpt>
      <trkpt lat="43.81872" lon="7.45804">
        <ele>958.6789935014</ele>
        <time>2021-01-27T09:58:53Z</time>
      </trkpt>
      <trkpt lat="43.81871" lon="7.45803">
        <ele>959.67902572079</ele>
        <time>2021-01-27T09:58:54Z</time>
      </trkpt>
      <trkpt lat="43.8187" lon="7.45803">
        <ele>959.6790605346</ele>
        <time>2021-01-27T09:58:55Z</time>
      </trkpt>
      <trkpt lat="43.81869" lon="7.45802">
        <ele>958.6790954769</ele>
        <time>2021-01-27T09:58:56Z</time>
      </trkpt>
      <trkpt lat="43.81867" lon="7.458">
        <ele>959.67915839237</ele>
        <time>2021-01-27T09:58:58Z</time>
      </trkpt>
      <trkpt lat="43.81865" lon="7.45798">
        <ele>959.67923048295</ele>
        <time>2021-01-27T09:59:00Z</time>
      </trkpt>
      <trkpt lat="43.81865" lon="7.45798">
        <ele>960.67925371284</ele>
        <time>2021-01-27T09:59:01Z</time>
      </trkpt>
      <trkpt lat="43.81864" lon="7.45797">
        <ele>960.67929917304</ele>
        <time>2021-01-27T09:59:02Z</time>
      </trkpt>
      <trkpt lat="43.81863" lon="7.45796">
        <ele>960.6793327918</ele>
        <time>2021-01-27T09:59:03Z</time>
      </trkpt>
      <trkpt lat="43.81862" lon="7.45796">
        <ele>960.67935092423</ele>
        <time>2021-01-27T09:59:04Z</time>
      </trkpt>
      <trkpt lat="43.81862" lon="7.45795">
        <ele>960.67937374188</ele>
        <time>2021-01-27T09:59:05Z</time>
      </trkpt>
      <trkpt lat="43.81861" lon="7.45794">
        <ele>960.6793945389</ele>
        <time>2021-01-27T09:59:06Z</time>
      </trkpt>
      <trkpt lat="43.8186" lon="7.45793">
        <ele>960.67944718649</ele>
        <time>2021-01-27T09:59:08Z</time>
      </trkpt>
      <trkpt lat="43.81858" lon="7.45791">
        <ele>960.67950933417</ele>
        <time>2021-01-27T09:59:10Z</time>
      </trkpt>
      <trkpt lat="43.81857" lon="7.45791">
        <ele>960.67952900601</ele>
        <time>2021-01-27T09:59:11Z</time>
      </trkpt>
      <trkpt lat="43.81856" lon="7.4579">
        <ele>960.67955597036</ele>
        <time>2021-01-27T09:59:12Z</time>
      </trkpt>
      <trkpt lat="43.81855" lon="7.45789">
        <ele>960.67962377378</ele>
        <time>2021-01-27T09:59:14Z</time>
      </trkpt>
      <trkpt lat="43.81854" lon="7.45789">
        <ele>960.67965641794</ele>
        <time>2021-01-27T09:59:15Z</time>
      </trkpt>
      <trkpt lat="43.81853" lon="7.45788">
        <ele>960.67971022774</ele>
        <time>2021-01-27T09:59:16Z</time>
      </trkpt>
      <trkpt lat="43.81852" lon="7.45787">
        <ele>960.67975539741</ele>
        <time>2021-01-27T09:59:17Z</time>
      </trkpt>
      <trkpt lat="43.8185" lon="7.45786">
        <ele>961.67979886587</ele>
        <time>2021-01-27T09:59:18Z</time>
      </trkpt>
      <trkpt lat="43.8185" lon="7.45786">
        <ele>961.67983004067</ele>
        <time>2021-01-27T09:59:19Z</time>
      </trkpt>
      <trkpt lat="43.81849" lon="7.45784">
        <ele>961.67986695912</ele>
        <time>2021-01-27T09:59:20Z</time>
      </trkpt>
      <trkpt lat="43.81848" lon="7.45784">
        <ele>961.67990137708</ele>
        <time>2021-01-27T09:59:21Z</time>
      </trkpt>
      <trkpt lat="43.81846" lon="7.45783">
        <ele>962.67995017206</ele>
        <time>2021-01-27T09:59:22Z</time>
      </trkpt>
      <trkpt lat="43.81845" lon="7.45783">
        <ele>962.67999882247</ele>
        <time>2021-01-27T09:59:23Z</time>
      </trkpt>
      <trkpt lat="43.81844" lon="7.45782">
        <ele>961.68003499252</ele>
        <time>2021-01-27T09:59:24Z</time>
      </trkpt>
      <trkpt lat="43.81843" lon="7.45781">
        <ele>961.68007210558</ele>
        <time>2021-01-27T09:59:25Z</time>
      </trkpt>
      <trkpt lat="43.81843" lon="7.45781">
        <ele>961.68010534616</ele>
        <time>2021-01-27T09:59:26Z</time>
      </trkpt>
      <trkpt lat="43.81842" lon="7.4578">
        <ele>961.68014111577</ele>
        <time>2021-01-27T09:59:27Z</time>
      </trkpt>
      <trkpt lat="43.81841" lon="7.45779">
        <ele>961.6801728764</ele>
        <time>2021-01-27T09:59:28Z</time>
      </trkpt>
      <trkpt lat="43.8184" lon="7.45779">
        <ele>961.68020387155</ele>
        <time>2021-01-27T09:59:29Z</time>
      </trkpt>
      <trkpt lat="43.81839" lon="7.45779">
        <ele>961.68023660629</ele>
        <time>2021-01-27T09:59:30Z</time>
      </trkpt>
      <trkpt lat="43.81839" lon="7.45778">
        <ele>961.68026280913</ele>
        <time>2021-01-27T09:59:31Z</time>
      </trkpt>
      <trkpt lat="43.81837" lon="7.45777">
        <ele>961.68031834186</ele>
        <time>2021-01-27T09:59:33Z</time>
      </trkpt>
      <trkpt lat="43.81835" lon="7.45775">
        <ele>962.68039388799</ele>
        <time>2021-01-27T09:59:35Z</time>
      </trkpt>
      <trkpt lat="43.81834" lon="7.45775">
        <ele>962.6804286917</ele>
        <time>2021-01-27T09:59:36Z</time>
      </trkpt>
      <trkpt lat="43.81834" lon="7.45774">
        <ele>963.68045702693</ele>
        <time>2021-01-27T09:59:37Z</time>
      </trkpt>
      <trkpt lat="43.81833" lon="7.45773">
        <ele>963.68047912791</ele>
        <time>2021-01-27T09:59:38Z</time>
      </trkpt>
      <trkpt lat="43.81832" lon="7.45773">
        <ele>963.68051875185</ele>
        <time>2021-01-27T09:59:39Z</time>
      </trkpt>
      <trkpt lat="43.81831" lon="7.45773">
        <ele>963.68057013087</ele>
        <time>2021-01-27T09:59:40Z</time>
      </trkpt>
      <trkpt lat="43.8183" lon="7.45772">
        <ele>963.68060879592</ele>
        <time>2021-01-27T09:59:41Z</time>
      </trkpt>
      <trkpt lat="43.81829" lon="7.45771">
        <ele>963.68064398799</ele>
        <time>2021-01-27T09:59:42Z</time>
      </trkpt>
      <trkpt lat="43.81828" lon="7.45771">
        <ele>963.68066772547</ele>
        <time>2021-01-27T09:59:43Z</time>
      </trkpt>
      <trkpt lat="43.81828" lon="7.45771">
        <ele>964.68069649205</ele>
        <time>2021-01-27T09:59:44Z</time>
      </trkpt>
      <trkpt lat="43.81827" lon="7.4577">
        <ele>964.68072647049</ele>
        <time>2021-01-27T09:59:45Z</time>
      </trkpt>
      <trkpt lat="43.81826" lon="7.45769">
        <ele>964.68077856453</ele>
        <time>2021-01-27T09:59:46Z</time>
      </trkpt>
      <trkpt lat="43.81825" lon="7.45769">
        <ele>964.68081646674</ele>
        <time>2021-01-27T09:59:47Z</time>
      </trkpt>
      <trkpt lat="43.81824" lon="7.45768">
        <ele>964.68085954879</ele>
        <time>2021-01-27T09:59:48Z</time>
      </trkpt>
      <trkpt lat="43.81822" lon="7.45768">
        <ele>964.68094684004</ele>
        <time>2021-01-27T09:59:50Z</time>
      </trkpt>
      <trkpt lat="43.81821" lon="7.45768">
        <ele>964.68098354767</ele>
        <time>2021-01-27T09:59:51Z</time>
      </trkpt>
      <trkpt lat="43.81819" lon="7.45767">
        <ele>964.68103763667</ele>
        <time>2021-01-27T09:59:52Z</time>
      </trkpt>
      <trkpt lat="43.81818" lon="7.45766">
        <ele>965.68109758811</ele>
        <time>2021-01-27T09:59:54Z</time>
      </trkpt>
      <trkpt lat="43.81815" lon="7.45764">
        <ele>966.68120952572</ele>
        <time>2021-01-27T09:59:56Z</time>
      </trkpt>
      <trkpt lat="43.81814" lon="7.45763">
        <ele>966.68126450388</ele>
        <time>2021-01-27T09:59:57Z</time>
      </trkpt>
      <trkpt lat="43.81812" lon="7.45763">
        <ele>966.68131911721</ele>
        <time>2021-01-27T09:59:58Z</time>
      </trkpt>
      <trkpt lat="43.81811" lon="7.45762">
        <ele>966.68136030964</ele>
        <time>2021-01-27T09:59:59Z</time>
      </trkpt>
      <trkpt lat="43.8181" lon="7.45761">
        <ele>966.68141689741</ele>
        <time>2021-01-27T10:00:00Z</time>
      </trkpt>
      <trkpt lat="43.81809" lon="7.4576">
        <ele>967.68143874566</ele>
        <time>2021-01-27T10:00:01Z</time>
      </trkpt>
      <trkpt lat="43.81808" lon="7.4576">
        <ele>968.68147661151</ele>
        <time>2021-01-27T10:00:02Z</time>
      </trkpt>
      <trkpt lat="43.81808" lon="7.4576">
        <ele>969.68150685286</ele>
        <time>2021-01-27T10:00:03Z</time>
      </trkpt>
      <trkpt lat="43.81807" lon="7.45759">
        <ele>969.68153347747</ele>
        <time>2021-01-27T10:00:04Z</time>
      </trkpt>
      <trkpt lat="43.81806" lon="7.45758">
        <ele>970.6815712932</ele>
        <time>2021-01-27T10:00:05Z</time>
      </trkpt>
      <trkpt lat="43.81805" lon="7.45758">
        <ele>970.6816127452</ele>
        <time>2021-01-27T10:00:06Z</time>
      </trkpt>
      <trkpt lat="43.81804" lon="7.45757">
        <ele>970.6816714976</ele>
        <time>2021-01-27T10:00:07Z</time>
      </trkpt>
      <trkpt lat="43.81803" lon="7.45756">
        <ele>971.68170907797</ele>
        <time>2021-01-27T10:00:08Z</time>
      </trkpt>
      <trkpt lat="43.81801" lon="7.45756">
        <ele>971.68176116542</ele>
        <time>2021-01-27T10:00:09Z</time>
      </trkpt>
      <trkpt lat="43.818" lon="7.45755">
        <ele>971.6818174196</ele>
        <time>2021-01-27T10:00:11Z</time>
      </trkpt>
      <trkpt lat="43.81799" lon="7.45754">
        <ele>972.68185767715</ele>
        <time>2021-01-27T10:00:12Z</time>
      </trkpt>
      <trkpt lat="43.81798" lon="7.45754">
        <ele>972.68191583713</ele>
        <time>2021-01-27T10:00:13Z</time>
      </trkpt>
      <trkpt lat="43.81797" lon="7.45753">
        <ele>973.68195624139</ele>
        <time>2021-01-27T10:00:14Z</time>
      </trkpt>
      <trkpt lat="43.81796" lon="7.45753">
        <ele>972.68198576117</ele>
        <time>2021-01-27T10:00:15Z</time>
      </trkpt>
      <trkpt lat="43.81795" lon="7.45752">
        <ele>973.68202303509</ele>
        <time>2021-01-27T10:00:16Z</time>
      </trkpt>
      <trkpt lat="43.81794" lon="7.45752">
        <ele>972.68206442337</ele>
        <time>2021-01-27T10:00:17Z</time>
      </trkpt>
      <trkpt lat="43.81793" lon="7.45751">
        <ele>972.68210655025</ele>
        <time>2021-01-27T10:00:18Z</time>
      </trkpt>
      <trkpt lat="43.81792" lon="7.4575">
        <ele>972.68213716516</ele>
        <time>2021-01-27T10:00:19Z</time>
      </trkpt>
      <trkpt lat="43.81791" lon="7.45749">
        <ele>972.68217017146</ele>
        <time>2021-01-27T10:00:20Z</time>
      </trkpt>
      <trkpt lat="43.8179" lon="7.45748">
        <ele>972.68220124597</ele>
        <time>2021-01-27T10:00:21Z</time>
      </trkpt>
      <trkpt lat="43.81789" lon="7.45748">
        <ele>973.68224191925</ele>
        <time>2021-01-27T10:00:22Z</time>
      </trkpt>
      <trkpt lat="43.81788" lon="7.45748">
        <ele>973.68228014864</ele>
        <time>2021-01-27T10:00:23Z</time>
      </trkpt>
      <trkpt lat="43.81787" lon="7.45747">
        <ele>973.68232515333</ele>
        <time>2021-01-27T10:00:24Z</time>
      </trkpt>
      <trkpt lat="43.81787" lon="7.45747">
        <ele>974.68235483855</ele>
        <time>2021-01-27T10:00:25Z</time>
      </trkpt>
      <trkpt lat="43.81786" lon="7.45746">
        <ele>974.68238769969</ele>
        <time>2021-01-27T10:00:26Z</time>
      </trkpt>
      <trkpt lat="43.81785" lon="7.45746">
        <ele>975.68243058689</ele>
        <time>2021-01-27T10:00:27Z</time>
      </trkpt>
      <trkpt lat="43.81784" lon="7.45745">
        <ele>975.68247494841</ele>
        <time>2021-01-27T10:00:28Z</time>
      </trkpt>
      <trkpt lat="43.81783" lon="7.45745">
        <ele>975.68251997397</ele>
        <time>2021-01-27T10:00:29Z</time>
      </trkpt>
      <trkpt lat="43.81782" lon="7.45744">
        <ele>975.68256471733</ele>
        <time>2021-01-27T10:00:30Z</time>
      </trkpt>
      <trkpt lat="43.81781" lon="7.45743">
        <ele>974.6826035193</ele>
        <time>2021-01-27T10:00:31Z</time>
      </trkpt>
      <trkpt lat="43.8178" lon="7.45743">
        <ele>974.68263891292</ele>
        <time>2021-01-27T10:00:32Z</time>
      </trkpt>
      <trkpt lat="43.81779" lon="7.45743">
        <ele>974.68268281952</ele>
        <time>2021-01-27T10:00:33Z</time>
      </trkpt>
      <trkpt lat="43.81778" lon="7.45742">
        <ele>974.68272467024</ele>
        <time>2021-01-27T10:00:34Z</time>
      </trkpt>
      <trkpt lat="43.81777" lon="7.45741">
        <ele>975.68274643641</ele>
        <time>2021-01-27T10:00:35Z</time>
      </trkpt>
      <trkpt lat="43.81776" lon="7.45741">
        <ele>976.68277525171</ele>
        <time>2021-01-27T10:00:36Z</time>
      </trkpt>
      <trkpt lat="43.81775" lon="7.4574">
        <ele>976.68280844461</ele>
        <time>2021-01-27T10:00:37Z</time>
      </trkpt>
      <trkpt lat="43.81775" lon="7.4574">
        <ele>977.68284051224</ele>
        <time>2021-01-27T10:00:38Z</time>
      </trkpt>
      <trkpt lat="43.81774" lon="7.45741">
        <ele>977.68288674691</ele>
        <time>2021-01-27T10:00:39Z</time>
      </trkpt>
      <trkpt lat="43.81773" lon="7.4574">
        <ele>977.68292735311</ele>
        <time>2021-01-27T10:00:40Z</time>
      </trkpt>
      <trkpt lat="43.81772" lon="7.45741">
        <ele>977.68297449199</ele>
        <time>2021-01-27T10:00:41Z</time>
      </trkpt>
      <trkpt lat="43.81771" lon="7.4574">
        <ele>978.68299887582</ele>
        <time>2021-01-27T10:00:42Z</time>
      </trkpt>
      <trkpt lat="43.81769" lon="7.45739">
        <ele>979.68308364038</ele>
        <time>2021-01-27T10:00:44Z</time>
      </trkpt>
      <trkpt lat="43.81768" lon="7.45739">
        <ele>979.68312066024</ele>
        <time>2021-01-27T10:00:45Z</time>
      </trkpt>
      <trkpt lat="43.81768" lon="7.45738">
        <ele>979.68315348126</ele>
        <time>2021-01-27T10:00:46Z</time>
      </trkpt>
      <trkpt lat="43.81767" lon="7.45738">
        <ele>979.68318783101</ele>
        <time>2021-01-27T10:00:47Z</time>
      </trkpt>
      <trkpt lat="43.81766" lon="7.45738">
        <ele>979.68322049113</ele>
        <time>2021-01-27T10:00:48Z</time>
      </trkpt>
      <trkpt lat="43.81765" lon="7.45738">
        <ele>980.68326406363</ele>
        <time>2021-01-27T10:00:49Z</time>
      </trkpt>
      <trkpt lat="43.81764" lon="7.45738">
        <ele>980.683311694</ele>
        <time>2021-01-27T10:00:50Z</time>
      </trkpt>
      <trkpt lat="43.81763" lon="7.45738">
        <ele>980.68334907742</ele>
        <time>2021-01-27T10:00:51Z</time>
      </trkpt>
      <trkpt lat="43.81763" lon="7.45737">
        <ele>980.68337966955</ele>
        <time>2021-01-27T10:00:52Z</time>
      </trkpt>
      <trkpt lat="43.81762" lon="7.45737">
        <ele>980.68341347905</ele>
        <time>2021-01-27T10:00:53Z</time>
      </trkpt>
      <trkpt lat="43.81761" lon="7.45737">
        <ele>981.68346620181</ele>
        <time>2021-01-27T10:00:54Z</time>
      </trkpt>
      <trkpt lat="43.8176" lon="7.45737">
        <ele>981.68350621385</ele>
        <time>2021-01-27T10:00:55Z</time>
      </trkpt>
      <trkpt lat="43.81759" lon="7.45737">
        <ele>981.68353722896</ele>
        <time>2021-01-27T10:00:56Z</time>
      </trkpt>
      <trkpt lat="43.81758" lon="7.45737">
        <ele>982.68359498083</ele>
        <time>2021-01-27T10:00:57Z</time>
      </trkpt>
      <trkpt lat="43.81757" lon="7.45737">
        <ele>982.68364000625</ele>
        <time>2021-01-27T10:00:58Z</time>
      </trkpt>
      <trkpt lat="43.81756" lon="7.45737">
        <ele>982.68369295844</ele>
        <time>2021-01-27T10:00:59Z</time>
      </trkpt>
      <trkpt lat="43.81754" lon="7.45737">
        <ele>982.6837558399</ele>
        <time>2021-01-27T10:01:00Z</time>
      </trkpt>
      <trkpt lat="43.81753" lon="7.45737">
        <ele>982.68379674507</ele>
        <time>2021-01-27T10:01:01Z</time>
      </trkpt>
      <trkpt lat="43.81752" lon="7.45736">
        <ele>982.68385042077</ele>
        <time>2021-01-27T10:01:02Z</time>
      </trkpt>
      <trkpt lat="43.81751" lon="7.45736">
        <ele>983.68389440682</ele>
        <time>2021-01-27T10:01:03Z</time>
      </trkpt>
      <trkpt lat="43.8175" lon="7.45736">
        <ele>983.68394183371</ele>
        <time>2021-01-27T10:01:04Z</time>
      </trkpt>
      <trkpt lat="43.81749" lon="7.45736">
        <ele>983.68400083862</ele>
        <time>2021-01-27T10:01:05Z</time>
      </trkpt>
      <trkpt lat="43.81748" lon="7.45735">
        <ele>983.68404762414</ele>
        <time>2021-01-27T10:01:06Z</time>
      </trkpt>
      <trkpt lat="43.81747" lon="7.45734">
        <ele>984.68407412839</ele>
        <time>2021-01-27T10:01:07Z</time>
      </trkpt>
      <trkpt lat="43.81746" lon="7.45733">
        <ele>984.68409914957</ele>
        <time>2021-01-27T10:01:08Z</time>
      </trkpt>
      <trkpt lat="43.81745" lon="7.45733">
        <ele>984.68413566989</ele>
        <time>2021-01-27T10:01:09Z</time>
      </trkpt>
      <trkpt lat="43.81745" lon="7.45733">
        <ele>985.68417840616</ele>
        <time>2021-01-27T10:01:10Z</time>
      </trkpt>
      <trkpt lat="43.81744" lon="7.45734">
        <ele>984.68422811137</ele>
        <time>2021-01-27T10:01:11Z</time>
      </trkpt>
      <trkpt lat="43.81742" lon="7.45734">
        <ele>984.6842841608</ele>
        <time>2021-01-27T10:01:12Z</time>
      </trkpt>
      <trkpt lat="43.81742" lon="7.45734">
        <ele>984.68432411781</ele>
        <time>2021-01-27T10:01:13Z</time>
      </trkpt>
      <trkpt lat="43.8174" lon="7.45734">
        <ele>985.68437391542</ele>
        <time>2021-01-27T10:01:14Z</time>
      </trkpt>
      <trkpt lat="43.81739" lon="7.45734">
        <ele>984.68442571342</ele>
        <time>2021-01-27T10:01:15Z</time>
      </trkpt>
      <trkpt lat="43.81739" lon="7.45733">
        <ele>984.68444714076</ele>
        <time>2021-01-27T10:01:16Z</time>
      </trkpt>
      <trkpt lat="43.81738" lon="7.45732">
        <ele>984.68449524938</ele>
        <time>2021-01-27T10:01:17Z</time>
      </trkpt>
      <trkpt lat="43.81737" lon="7.45732">
        <ele>985.68453503591</ele>
        <time>2021-01-27T10:01:18Z</time>
      </trkpt>
      <trkpt lat="43.81736" lon="7.45732">
        <ele>985.68457749932</ele>
        <time>2021-01-27T10:01:19Z</time>
      </trkpt>
      <trkpt lat="43.81735" lon="7.45731">
        <ele>985.68461358451</ele>
        <time>2021-01-27T10:01:20Z</time>
      </trkpt>
      <trkpt lat="43.81734" lon="7.45731">
        <ele>985.68464932715</ele>
        <time>2021-01-27T10:01:21Z</time>
      </trkpt>
      <trkpt lat="43.81733" lon="7.45731">
        <ele>985.68471345858</ele>
        <time>2021-01-27T10:01:22Z</time>
      </trkpt>
      <trkpt lat="43.81732" lon="7.4573">
        <ele>985.68475280589</ele>
        <time>2021-01-27T10:01:23Z</time>
      </trkpt>
      <trkpt lat="43.8173" lon="7.4573">
        <ele>985.68480044543</ele>
        <time>2021-01-27T10:01:24Z</time>
      </trkpt>
      <trkpt lat="43.81729" lon="7.4573">
        <ele>984.68484470555</ele>
        <time>2021-01-27T10:01:25Z</time>
      </trkpt>
      <trkpt lat="43.81729" lon="7.45729">
        <ele>985.684880213</ele>
        <time>2021-01-27T10:01:26Z</time>
      </trkpt>
      <trkpt lat="43.81728" lon="7.45729">
        <ele>984.68491454997</ele>
        <time>2021-01-27T10:01:27Z</time>
      </trkpt>
      <trkpt lat="43.81727" lon="7.45729">
        <ele>985.68495513018</ele>
        <time>2021-01-27T10:01:28Z</time>
      </trkpt>
      <trkpt lat="43.81725" lon="7.45729">
        <ele>985.68502642134</ele>
        <time>2021-01-27T10:01:30Z</time>
      </trkpt>
      <trkpt lat="43.81724" lon="7.45729">
        <ele>984.68507110353</ele>
        <time>2021-01-27T10:01:31Z</time>
      </trkpt>
      <trkpt lat="43.81724" lon="7.45728">
        <ele>985.68509749013</ele>
        <time>2021-01-27T10:01:32Z</time>
      </trkpt>
      <trkpt lat="43.81722" lon="7.45728">
        <ele>985.68517609975</ele>
        <time>2021-01-27T10:01:34Z</time>
      </trkpt>
      <trkpt lat="43.81721" lon="7.45728">
        <ele>986.68521606337</ele>
        <time>2021-01-27T10:01:35Z</time>
      </trkpt>
      <trkpt lat="43.8172" lon="7.45728">
        <ele>986.68525628199</ele>
        <time>2021-01-27T10:01:36Z</time>
      </trkpt>
      <trkpt lat="43.81719" lon="7.45727">
        <ele>986.6853131179</ele>
        <time>2021-01-27T10:01:37Z</time>
      </trkpt>
      <trkpt lat="43.81718" lon="7.45727">
        <ele>985.68536022469</ele>
        <time>2021-01-27T10:01:38Z</time>
      </trkpt>
      <trkpt lat="43.81717" lon="7.45726">
        <ele>985.68541059301</ele>
        <time>2021-01-27T10:01:39Z</time>
      </trkpt>
      <trkpt lat="43.81716" lon="7.45726">
        <ele>985.68543763798</ele>
        <time>2021-01-27T10:01:40Z</time>
      </trkpt>
      <trkpt lat="43.81715" lon="7.45725">
        <ele>986.68547127266</ele>
        <time>2021-01-27T10:01:41Z</time>
      </trkpt>
      <trkpt lat="43.81714" lon="7.45725">
        <ele>986.68551632144</ele>
        <time>2021-01-27T10:01:42Z</time>
      </trkpt>
      <trkpt lat="43.81713" lon="7.45724">
        <ele>986.68554619535</ele>
        <time>2021-01-27T10:01:43Z</time>
      </trkpt>
      <trkpt lat="43.81712" lon="7.45723">
        <ele>986.68559934943</ele>
        <time>2021-01-27T10:01:44Z</time>
      </trkpt>
      <trkpt lat="43.81711" lon="7.45723">
        <ele>986.68563852953</ele>
        <time>2021-01-27T10:01:45Z</time>
      </trkpt>
      <trkpt lat="43.8171" lon="7.45722">
        <ele>986.6856872248</ele>
        <time>2021-01-27T10:01:46Z</time>
      </trkpt>
      <trkpt lat="43.81709" lon="7.45722">
        <ele>986.68573475103</ele>
        <time>2021-01-27T10:01:47Z</time>
      </trkpt>
      <trkpt lat="43.81708" lon="7.45722">
        <ele>985.68576647412</ele>
        <time>2021-01-27T10:01:48Z</time>
      </trkpt>
      <trkpt lat="43.81707" lon="7.45722">
        <ele>986.68580701541</ele>
        <time>2021-01-27T10:01:49Z</time>
      </trkpt>
      <trkpt lat="43.81706" lon="7.45722">
        <ele>986.68584903876</ele>
        <time>2021-01-27T10:01:50Z</time>
      </trkpt>
      <trkpt lat="43.81705" lon="7.45722">
        <ele>986.68590009121</ele>
        <time>2021-01-27T10:01:51Z</time>
      </trkpt>
      <trkpt lat="43.81704" lon="7.45721">
        <ele>986.68594196911</ele>
        <time>2021-01-27T10:01:52Z</time>
      </trkpt>
      <trkpt lat="43.81702" lon="7.4572">
        <ele>986.68600939516</ele>
        <time>2021-01-27T10:01:54Z</time>
      </trkpt>
      <trkpt lat="43.817" lon="7.45719">
        <ele>986.68608912158</ele>
        <time>2021-01-27T10:01:56Z</time>
      </trkpt>
      <trkpt lat="43.81699" lon="7.45719">
        <ele>986.68613580882</ele>
        <time>2021-01-27T10:01:57Z</time>
      </trkpt>
      <trkpt lat="43.81699" lon="7.45719">
        <ele>986.68617305837</ele>
        <time>2021-01-27T10:01:58Z</time>
      </trkpt>
      <trkpt lat="43.81697" lon="7.45719">
        <ele>985.68622873969</ele>
        <time>2021-01-27T10:02:00Z</time>
      </trkpt>
      <trkpt lat="43.81697" lon="7.45719">
        <ele>985.6862662267</ele>
        <time>2021-01-27T10:02:01Z</time>
      </trkpt>
      <trkpt lat="43.81696" lon="7.4572">
        <ele>984.68630504324</ele>
        <time>2021-01-27T10:02:02Z</time>
      </trkpt>
      <trkpt lat="43.81695" lon="7.4572">
        <ele>985.68635300054</ele>
        <time>2021-01-27T10:02:03Z</time>
      </trkpt>
      <trkpt lat="43.81693" lon="7.4572">
        <ele>984.68644397912</ele>
        <time>2021-01-27T10:02:05Z</time>
      </trkpt>
      <trkpt lat="43.81692" lon="7.45719">
        <ele>984.68647711682</ele>
        <time>2021-01-27T10:02:06Z</time>
      </trkpt>
      <trkpt lat="43.81691" lon="7.45718">
        <ele>984.68652686645</ele>
        <time>2021-01-27T10:02:07Z</time>
      </trkpt>
      <trkpt lat="43.8169" lon="7.45718">
        <ele>984.68657070447</ele>
        <time>2021-01-27T10:02:08Z</time>
      </trkpt>
      <trkpt lat="43.81687" lon="7.45717">
        <ele>984.68669197884</ele>
        <time>2021-01-27T10:02:10Z</time>
      </trkpt>
      <trkpt lat="43.81686" lon="7.45716">
        <ele>985.68671448967</ele>
        <time>2021-01-27T10:02:11Z</time>
      </trkpt>
      <trkpt lat="43.81685" lon="7.45715">
        <ele>985.68675925564</ele>
        <time>2021-01-27T10:02:12Z</time>
      </trkpt>
      <trkpt lat="43.81684" lon="7.45715">
        <ele>985.68680756745</ele>
        <time>2021-01-27T10:02:13Z</time>
      </trkpt>
      <trkpt lat="43.81683" lon="7.45714">
        <ele>986.68685760542</ele>
        <time>2021-01-27T10:02:14Z</time>
      </trkpt>
      <trkpt lat="43.81682" lon="7.45714">
        <ele>986.68689762972</ele>
        <time>2021-01-27T10:02:15Z</time>
      </trkpt>
      <trkpt lat="43.81681" lon="7.45714">
        <ele>987.68693738418</ele>
        <time>2021-01-27T10:02:16Z</time>
      </trkpt>
      <trkpt lat="43.8168" lon="7.45713">
        <ele>986.68698947951</ele>
        <time>2021-01-27T10:02:17Z</time>
      </trkpt>
      <trkpt lat="43.81679" lon="7.45713">
        <ele>987.68703728057</ele>
        <time>2021-01-27T10:02:18Z</time>
      </trkpt>
      <trkpt lat="43.81678" lon="7.45712">
        <ele>988.68707687056</ele>
        <time>2021-01-27T10:02:19Z</time>
      </trkpt>
      <trkpt lat="43.81676" lon="7.45711">
        <ele>988.68716626708</ele>
        <time>2021-01-27T10:02:21Z</time>
      </trkpt>
      <trkpt lat="43.81675" lon="7.45712">
        <ele>989.68720123104</ele>
        <time>2021-01-27T10:02:22Z</time>
      </trkpt>
      <trkpt lat="43.81674" lon="7.45712">
        <ele>989.6872323362</ele>
        <time>2021-01-27T10:02:23Z</time>
      </trkpt>
      <trkpt lat="43.81674" lon="7.45712">
        <ele>989.68727035007</ele>
        <time>2021-01-27T10:02:24Z</time>
      </trkpt>
      <trkpt lat="43.81673" lon="7.45713">
        <ele>988.68730330113</ele>
        <time>2021-01-27T10:02:25Z</time>
      </trkpt>
      <trkpt lat="43.81672" lon="7.45712">
        <ele>989.68733610324</ele>
        <time>2021-01-27T10:02:26Z</time>
      </trkpt>
      <trkpt lat="43.81671" lon="7.45713">
        <ele>989.68738583797</ele>
        <time>2021-01-27T10:02:27Z</time>
      </trkpt>
      <trkpt lat="43.81671" lon="7.45713">
        <ele>989.68742002874</ele>
        <time>2021-01-27T10:02:28Z</time>
      </trkpt>
      <trkpt lat="43.8167" lon="7.45713">
        <ele>990.68746542483</ele>
        <time>2021-01-27T10:02:29Z</time>
      </trkpt>
      <trkpt lat="43.81669" lon="7.45712">
        <ele>991.68749684117</ele>
        <time>2021-01-27T10:02:30Z</time>
      </trkpt>
      <trkpt lat="43.81668" lon="7.45712">
        <ele>991.6875409585</ele>
        <time>2021-01-27T10:02:31Z</time>
      </trkpt>
      <trkpt lat="43.81665" lon="7.45713">
        <ele>991.6876661337</ele>
        <time>2021-01-27T10:02:33Z</time>
      </trkpt>
      <trkpt lat="43.81665" lon="7.45713">
        <ele>991.68770766676</ele>
        <time>2021-01-27T10:02:34Z</time>
      </trkpt>
      <trkpt lat="43.81664" lon="7.45713">
        <ele>990.68774337209</ele>
        <time>2021-01-27T10:02:35Z</time>
      </trkpt>
      <trkpt lat="43.81663" lon="7.45713">
        <ele>990.6877732567</ele>
        <time>2021-01-27T10:02:36Z</time>
      </trkpt>
      <trkpt lat="43.81662" lon="7.45712">
        <ele>991.68781170648</ele>
        <time>2021-01-27T10:02:37Z</time>
      </trkpt>
      <trkpt lat="43.81661" lon="7.45712">
        <ele>991.68785621224</ele>
        <time>2021-01-27T10:02:38Z</time>
      </trkpt>
      <trkpt lat="43.8166" lon="7.45712">
        <ele>991.6879015065</ele>
        <time>2021-01-27T10:02:39Z</time>
      </trkpt>
      <trkpt lat="43.8166" lon="7.45712">
        <ele>991.6879015065</ele>
        <time>2021-01-27T10:02:41Z</time>
      </trkpt>
      <trkpt lat="43.81658" lon="7.45712">
        <ele>991.68800393454</ele>
        <time>2021-01-27T10:02:42Z</time>
      </trkpt>
      <trkpt lat="43.81656" lon="7.45712">
        <ele>990.68807372446</ele>
        <time>2021-01-27T10:02:43Z</time>
      </trkpt>
      <trkpt lat="43.81655" lon="7.45712">
        <ele>991.6881423004</ele>
        <time>2021-01-27T10:02:44Z</time>
      </trkpt>
      <trkpt lat="43.81654" lon="7.45712">
        <ele>991.68819087978</ele>
        <time>2021-01-27T10:02:45Z</time>
      </trkpt>
      <trkpt lat="43.81653" lon="7.45712">
        <ele>992.68821941005</ele>
        <time>2021-01-27T10:02:46Z</time>
      </trkpt>
      <trkpt lat="43.81652" lon="7.45712">
        <ele>992.6882730598</ele>
        <time>2021-01-27T10:02:47Z</time>
      </trkpt>
      <trkpt lat="43.81652" lon="7.45712">
        <ele>992.6882972551</ele>
        <time>2021-01-27T10:02:48Z</time>
      </trkpt>
      <trkpt lat="43.81649" lon="7.45711">
        <ele>991.68839515617</ele>
        <time>2021-01-27T10:02:50Z</time>
      </trkpt>
      <trkpt lat="43.81648" lon="7.45711">
        <ele>991.68845115007</ele>
        <time>2021-01-27T10:02:51Z</time>
      </trkpt>
      <trkpt lat="43.81647" lon="7.45711">
        <ele>990.6885150385</ele>
        <time>2021-01-27T10:02:52Z</time>
      </trkpt>
      <trkpt lat="43.81645" lon="7.4571">
        <ele>990.68858714798</ele>
        <time>2021-01-27T10:02:53Z</time>
      </trkpt>
      <trkpt lat="43.81644" lon="7.45709">
        <ele>990.68863583361</ele>
        <time>2021-01-27T10:02:54Z</time>
      </trkpt>
      <trkpt lat="43.81643" lon="7.45708">
        <ele>990.68868058572</ele>
        <time>2021-01-27T10:02:55Z</time>
      </trkpt>
      <trkpt lat="43.81642" lon="7.45707">
        <ele>991.68871735461</ele>
        <time>2021-01-27T10:02:56Z</time>
      </trkpt>
      <trkpt lat="43.81641" lon="7.45707">
        <ele>991.68874835649</ele>
        <time>2021-01-27T10:02:57Z</time>
      </trkpt>
      <trkpt lat="43.8164" lon="7.45706">
        <ele>991.68878595794</ele>
        <time>2021-01-27T10:02:58Z</time>
      </trkpt>
      <trkpt lat="43.81638" lon="7.45705">
        <ele>991.68887341075</ele>
        <time>2021-01-27T10:03:00Z</time>
      </trkpt>
      <trkpt lat="43.81636" lon="7.45704">
        <ele>991.68892877998</ele>
        <time>2021-01-27T10:03:01Z</time>
      </trkpt>
      <trkpt lat="43.81635" lon="7.45703">
        <ele>991.68898760662</ele>
        <time>2021-01-27T10:03:02Z</time>
      </trkpt>
      <trkpt lat="43.81634" lon="7.45702">
        <ele>991.68902433441</ele>
        <time>2021-01-27T10:03:03Z</time>
      </trkpt>
      <trkpt lat="43.81633" lon="7.45702">
        <ele>992.68907275602</ele>
        <time>2021-01-27T10:03:04Z</time>
      </trkpt>
      <trkpt lat="43.81632" lon="7.45701">
        <ele>992.68912907495</ele>
        <time>2021-01-27T10:03:05Z</time>
      </trkpt>
      <trkpt lat="43.81631" lon="7.45701">
        <ele>991.68916361319</ele>
        <time>2021-01-27T10:03:06Z</time>
      </trkpt>
      <trkpt lat="43.8163" lon="7.457">
        <ele>990.68921504284</ele>
        <time>2021-01-27T10:03:07Z</time>
      </trkpt>
      <trkpt lat="43.81628" lon="7.457">
        <ele>990.68929907522</ele>
        <time>2021-01-27T10:03:09Z</time>
      </trkpt>
      <trkpt lat="43.81627" lon="7.45699">
        <ele>990.68934240327</ele>
        <time>2021-01-27T10:03:10Z</time>
      </trkpt>
      <trkpt lat="43.81626" lon="7.45698">
        <ele>990.6893711099</ele>
        <time>2021-01-27T10:03:11Z</time>
      </trkpt>
      <trkpt lat="43.81625" lon="7.45698">
        <ele>991.6894124293</ele>
        <time>2021-01-27T10:03:12Z</time>
      </trkpt>
      <trkpt lat="43.81624" lon="7.45698">
        <ele>991.6894531552</ele>
        <time>2021-01-27T10:03:13Z</time>
      </trkpt>
      <trkpt lat="43.81622" lon="7.45696">
        <ele>991.68950768699</ele>
        <time>2021-01-27T10:03:15Z</time>
      </trkpt>
      <trkpt lat="43.81621" lon="7.45695">
        <ele>992.68953799168</ele>
        <time>2021-01-27T10:03:16Z</time>
      </trkpt>
      <trkpt lat="43.81621" lon="7.45695">
        <ele>992.68957076168</ele>
        <time>2021-01-27T10:03:17Z</time>
      </trkpt>
      <trkpt lat="43.8162" lon="7.45694">
        <ele>993.68959200837</ele>
        <time>2021-01-27T10:03:18Z</time>
      </trkpt>
      <trkpt lat="43.81619" lon="7.45693">
        <ele>994.68964887998</ele>
        <time>2021-01-27T10:03:20Z</time>
      </trkpt>
      <trkpt lat="43.81618" lon="7.45694">
        <ele>994.68968458984</ele>
        <time>2021-01-27T10:03:24Z</time>
      </trkpt>
      <trkpt lat="43.81618" lon="7.45694">
        <ele>994.68968664407</ele>
        <time>2021-01-27T10:03:25Z</time>
      </trkpt>
      <trkpt lat="43.81618" lon="7.45695">
        <ele>994.68967638246</ele>
        <time>2021-01-27T10:03:26Z</time>
      </trkpt>
      <trkpt lat="43.81619" lon="7.45696">
        <ele>995.68966999514</ele>
        <time>2021-01-27T10:03:27Z</time>
      </trkpt>
      <trkpt lat="43.8162" lon="7.45698">
        <ele>994.68964819843</ele>
        <time>2021-01-27T10:03:29Z</time>
      </trkpt>
      <trkpt lat="43.81621" lon="7.457">
        <ele>994.68961210088</ele>
        <time>2021-01-27T10:03:31Z</time>
      </trkpt>
      <trkpt lat="43.81621" lon="7.457">
        <ele>995.68959164186</ele>
        <time>2021-01-27T10:03:32Z</time>
      </trkpt>
      <trkpt lat="43.81622" lon="7.45701">
        <ele>995.68957552829</ele>
        <time>2021-01-27T10:03:33Z</time>
      </trkpt>
      <trkpt lat="43.81622" lon="7.45702">
        <ele>995.6895628923</ele>
        <time>2021-01-27T10:03:34Z</time>
      </trkpt>
      <trkpt lat="43.81623" lon="7.45703">
        <ele>995.68954185872</ele>
        <time>2021-01-27T10:03:35Z</time>
      </trkpt>
      <trkpt lat="43.81623" lon="7.45704">
        <ele>995.68953985397</ele>
        <time>2021-01-27T10:03:36Z</time>
      </trkpt>
      <trkpt lat="43.81624" lon="7.45705">
        <ele>995.68951962594</ele>
        <time>2021-01-27T10:03:37Z</time>
      </trkpt>
      <trkpt lat="43.81625" lon="7.45706">
        <ele>995.68948980637</ele>
        <time>2021-01-27T10:03:38Z</time>
      </trkpt>
      <trkpt lat="43.81625" lon="7.45707">
        <ele>995.68947026577</ele>
        <time>2021-01-27T10:03:39Z</time>
      </trkpt>
      <trkpt lat="43.81626" lon="7.45707">
        <ele>995.68945043129</ele>
        <time>2021-01-27T10:03:40Z</time>
      </trkpt>
      <trkpt lat="43.81626" lon="7.45708">
        <ele>995.68944012904</ele>
        <time>2021-01-27T10:03:41Z</time>
      </trkpt>
      <trkpt lat="43.81627" lon="7.45709">
        <ele>995.68943448106</ele>
        <time>2021-01-27T10:03:42Z</time>
      </trkpt>
      <trkpt lat="43.81627" lon="7.4571">
        <ele>995.68942939024</ele>
        <time>2021-01-27T10:03:43Z</time>
      </trkpt>
      <trkpt lat="43.81628" lon="7.4571">
        <ele>996.68941218339</ele>
        <time>2021-01-27T10:03:44Z</time>
      </trkpt>
      <trkpt lat="43.81628" lon="7.45711">
        <ele>996.68939183518</ele>
        <time>2021-01-27T10:03:45Z</time>
      </trkpt>
      <trkpt lat="43.81628" lon="7.45711">
        <ele>996.68939239496</ele>
        <time>2021-01-27T10:03:46Z</time>
      </trkpt>
      <trkpt lat="43.81629" lon="7.45713">
        <ele>996.68938637922</ele>
        <time>2021-01-27T10:03:47Z</time>
      </trkpt>
      <trkpt lat="43.81629" lon="7.45713">
        <ele>996.68938637922</ele>
        <time>2021-01-27T10:03:49Z</time>
      </trkpt>
      <trkpt lat="43.8163" lon="7.45714">
        <ele>997.68934991059</ele>
        <time>2021-01-27T10:03:50Z</time>
      </trkpt>
      <trkpt lat="43.8163" lon="7.45715">
        <ele>997.6893253592</ele>
        <time>2021-01-27T10:03:51Z</time>
      </trkpt>
      <trkpt lat="43.81631" lon="7.45717">
        <ele>997.68933822688</ele>
        <time>2021-01-27T10:03:52Z</time>
      </trkpt>
      <trkpt lat="43.81631" lon="7.45718">
        <ele>997.68935327315</ele>
        <time>2021-01-27T10:03:53Z</time>
      </trkpt>
      <trkpt lat="43.81631" lon="7.45719">
        <ele>996.68935403046</ele>
        <time>2021-01-27T10:03:54Z</time>
      </trkpt>
      <trkpt lat="43.81631" lon="7.4572">
        <ele>997.68935409578</ele>
        <time>2021-01-27T10:03:55Z</time>
      </trkpt>
      <trkpt lat="43.81632" lon="7.45722">
        <ele>997.68934189902</ele>
        <time>2021-01-27T10:03:56Z</time>
      </trkpt>
      <trkpt lat="43.81632" lon="7.45724">
        <ele>997.6893458642</ele>
        <time>2021-01-27T10:03:57Z</time>
      </trkpt>
      <trkpt lat="43.81633" lon="7.45726">
        <ele>997.68933868234</ele>
        <time>2021-01-27T10:03:58Z</time>
      </trkpt>
      <trkpt lat="43.81633" lon="7.45726">
        <ele>997.68933293467</ele>
        <time>2021-01-27T10:03:59Z</time>
      </trkpt>
      <trkpt lat="43.81633" lon="7.45727">
        <ele>997.68931003076</ele>
        <time>2021-01-27T10:04:00Z</time>
      </trkpt>
      <trkpt lat="43.81634" lon="7.45728">
        <ele>997.68928235735</ele>
        <time>2021-01-27T10:04:01Z</time>
      </trkpt>
      <trkpt lat="43.81635" lon="7.45729">
        <ele>998.68927434587</ele>
        <time>2021-01-27T10:04:02Z</time>
      </trkpt>
      <trkpt lat="43.81636" lon="7.45729">
        <ele>997.68923902957</ele>
        <time>2021-01-27T10:04:03Z</time>
      </trkpt>
      <trkpt lat="43.81636" lon="7.45731">
        <ele>997.68921302214</ele>
        <time>2021-01-27T10:04:04Z</time>
      </trkpt>
      <trkpt lat="43.81637" lon="7.45732">
        <ele>997.68920057103</ele>
        <time>2021-01-27T10:04:05Z</time>
      </trkpt>
      <trkpt lat="43.81637" lon="7.45733">
        <ele>997.6891857799</ele>
        <time>2021-01-27T10:04:06Z</time>
      </trkpt>
      <trkpt lat="43.81638" lon="7.45734">
        <ele>997.68919166463</ele>
        <time>2021-01-27T10:04:07Z</time>
      </trkpt>
      <trkpt lat="43.81638" lon="7.45736">
        <ele>998.68920279638</ele>
        <time>2021-01-27T10:04:08Z</time>
      </trkpt>
      <trkpt lat="43.81638" lon="7.45737">
        <ele>997.68920043712</ele>
        <time>2021-01-27T10:04:09Z</time>
      </trkpt>
      <trkpt lat="43.81639" lon="7.45738">
        <ele>998.68918818435</ele>
        <time>2021-01-27T10:04:10Z</time>
      </trkpt>
      <trkpt lat="43.81639" lon="7.45739">
        <ele>998.68918297484</ele>
        <time>2021-01-27T10:04:11Z</time>
      </trkpt>
      <trkpt lat="43.81639" lon="7.4574">
        <ele>998.68918694533</ele>
        <time>2021-01-27T10:04:12Z</time>
      </trkpt>
      <trkpt lat="43.81639" lon="7.45742">
        <ele>998.6891851956</ele>
        <time>2021-01-27T10:04:13Z</time>
      </trkpt>
      <trkpt lat="43.8164" lon="7.45743">
        <ele>998.68918045277</ele>
        <time>2021-01-27T10:04:14Z</time>
      </trkpt>
      <trkpt lat="43.8164" lon="7.45744">
        <ele>998.68916748696</ele>
        <time>2021-01-27T10:04:15Z</time>
      </trkpt>
      <trkpt lat="43.81641" lon="7.45744">
        <ele>998.68915255067</ele>
        <time>2021-01-27T10:04:16Z</time>
      </trkpt>
      <trkpt lat="43.81641" lon="7.45746">
        <ele>998.68914697061</ele>
        <time>2021-01-27T10:04:17Z</time>
      </trkpt>
      <trkpt lat="43.81642" lon="7.45747">
        <ele>998.68914568963</ele>
        <time>2021-01-27T10:04:18Z</time>
      </trkpt>
      <trkpt lat="43.81642" lon="7.45748">
        <ele>998.68913592525</ele>
        <time>2021-01-27T10:04:19Z</time>
      </trkpt>
      <trkpt lat="43.81643" lon="7.45749">
        <ele>999.68912409043</ele>
        <time>2021-01-27T10:04:20Z</time>
      </trkpt>
      <trkpt lat="43.81643" lon="7.45751">
        <ele>999.6891055895</ele>
        <time>2021-01-27T10:04:21Z</time>
      </trkpt>
      <trkpt lat="43.81644" lon="7.45752">
        <ele>1000.6890799793</ele>
        <time>2021-01-27T10:04:22Z</time>
      </trkpt>
      <trkpt lat="43.81645" lon="7.45752">
        <ele>1000.6890510921</ele>
        <time>2021-01-27T10:04:23Z</time>
      </trkpt>
      <trkpt lat="43.81645" lon="7.45754">
        <ele>1000.6890470232</ele>
        <time>2021-01-27T10:04:24Z</time>
      </trkpt>
      <trkpt lat="43.81645" lon="7.45755">
        <ele>1000.6890490879</ele>
        <time>2021-01-27T10:04:25Z</time>
      </trkpt>
      <trkpt lat="43.81646" lon="7.45757">
        <ele>1000.6890344856</ele>
        <time>2021-01-27T10:04:26Z</time>
      </trkpt>
      <trkpt lat="43.81647" lon="7.45757">
        <ele>1000.6890048046</ele>
        <time>2021-01-27T10:04:27Z</time>
      </trkpt>
      <trkpt lat="43.81648" lon="7.45757">
        <ele>1001.6889699904</ele>
        <time>2021-01-27T10:04:28Z</time>
      </trkpt>
      <trkpt lat="43.81648" lon="7.45758">
        <ele>1001.6889403472</ele>
        <time>2021-01-27T10:04:29Z</time>
      </trkpt>
      <trkpt lat="43.81649" lon="7.45759">
        <ele>1001.6889195302</ele>
        <time>2021-01-27T10:04:30Z</time>
      </trkpt>
      <trkpt lat="43.8165" lon="7.45759">
        <ele>1002.6888758999</ele>
        <time>2021-01-27T10:04:31Z</time>
      </trkpt>
      <trkpt lat="43.81651" lon="7.4576">
        <ele>1002.6888403093</ele>
        <time>2021-01-27T10:04:32Z</time>
      </trkpt>
      <trkpt lat="43.81652" lon="7.45761">
        <ele>1002.6888167335</ele>
        <time>2021-01-27T10:04:33Z</time>
      </trkpt>
      <trkpt lat="43.81652" lon="7.45762">
        <ele>1002.6888004559</ele>
        <time>2021-01-27T10:04:34Z</time>
      </trkpt>
      <trkpt lat="43.81653" lon="7.45762">
        <ele>1001.6887890373</ele>
        <time>2021-01-27T10:04:35Z</time>
      </trkpt>
      <trkpt lat="43.81653" lon="7.45763">
        <ele>1002.6887683333</ele>
        <time>2021-01-27T10:04:36Z</time>
      </trkpt>
      <trkpt lat="43.81654" lon="7.45764">
        <ele>1003.6887417788</ele>
        <time>2021-01-27T10:04:37Z</time>
      </trkpt>
      <trkpt lat="43.81655" lon="7.45765">
        <ele>1003.688713784</ele>
        <time>2021-01-27T10:04:38Z</time>
      </trkpt>
      <trkpt lat="43.81656" lon="7.45766">
        <ele>1003.6886933014</ele>
        <time>2021-01-27T10:04:39Z</time>
      </trkpt>
      <trkpt lat="43.81656" lon="7.45767">
        <ele>1004.6886854724</ele>
        <time>2021-01-27T10:04:40Z</time>
      </trkpt>
      <trkpt lat="43.81656" lon="7.45768">
        <ele>1004.68868936</ele>
        <time>2021-01-27T10:04:41Z</time>
      </trkpt>
      <trkpt lat="43.81657" lon="7.45769">
        <ele>1004.6886690651</ele>
        <time>2021-01-27T10:04:42Z</time>
      </trkpt>
      <trkpt lat="43.81657" lon="7.45769">
        <ele>1004.6886690651</ele>
        <time>2021-01-27T10:04:43Z</time>
      </trkpt>
      <trkpt lat="43.81658" lon="7.4577">
        <ele>1005.6886390762</ele>
        <time>2021-01-27T10:04:44Z</time>
      </trkpt>
      <trkpt lat="43.81658" lon="7.45772">
        <ele>1005.6886147471</ele>
        <time>2021-01-27T10:04:45Z</time>
      </trkpt>
      <trkpt lat="43.81659" lon="7.45773">
        <ele>1005.6886127805</ele>
        <time>2021-01-27T10:04:46Z</time>
      </trkpt>
      <trkpt lat="43.8166" lon="7.45774">
        <ele>1005.6885825545</ele>
        <time>2021-01-27T10:04:47Z</time>
      </trkpt>
      <trkpt lat="43.81661" lon="7.45774">
        <ele>1005.6885391714</ele>
        <time>2021-01-27T10:04:48Z</time>
      </trkpt>
      <trkpt lat="43.81661" lon="7.45774">
        <ele>1006.6885044542</ele>
        <time>2021-01-27T10:04:49Z</time>
      </trkpt>
      <trkpt lat="43.81662" lon="7.45774">
        <ele>1005.6884668267</ele>
        <time>2021-01-27T10:04:50Z</time>
      </trkpt>
      <trkpt lat="43.81663" lon="7.45774">
        <ele>1005.6884418806</ele>
        <time>2021-01-27T10:04:51Z</time>
      </trkpt>
      <trkpt lat="43.81663" lon="7.45775">
        <ele>1006.6884422138</ele>
        <time>2021-01-27T10:04:52Z</time>
      </trkpt>
      <trkpt lat="43.81663" lon="7.45776">
        <ele>1006.6884431183</ele>
        <time>2021-01-27T10:04:53Z</time>
      </trkpt>
      <trkpt lat="43.81664" lon="7.45777">
        <ele>1006.6884285428</ele>
        <time>2021-01-27T10:04:54Z</time>
      </trkpt>
      <trkpt lat="43.81664" lon="7.45778">
        <ele>1007.688418534</ele>
        <time>2021-01-27T10:04:55Z</time>
      </trkpt>
      <trkpt lat="43.81665" lon="7.4578">
        <ele>1006.688414034</ele>
        <time>2021-01-27T10:04:56Z</time>
      </trkpt>
      <trkpt lat="43.81665" lon="7.45781">
        <ele>1006.6883916997</ele>
        <time>2021-01-27T10:04:57Z</time>
      </trkpt>
      <trkpt lat="43.81666" lon="7.45783">
        <ele>1005.6883895353</ele>
        <time>2021-01-27T10:04:58Z</time>
      </trkpt>
      <trkpt lat="43.81667" lon="7.45783">
        <ele>1005.6883555639</ele>
        <time>2021-01-27T10:04:59Z</time>
      </trkpt>
      <trkpt lat="43.81668" lon="7.45783">
        <ele>1005.6883033048</ele>
        <time>2021-01-27T10:05:00Z</time>
      </trkpt>
      <trkpt lat="43.81669" lon="7.45784">
        <ele>1005.688236226</ele>
        <time>2021-01-27T10:05:01Z</time>
      </trkpt>
      <trkpt lat="43.8167" lon="7.45785">
        <ele>1006.6882050533</ele>
        <time>2021-01-27T10:05:02Z</time>
      </trkpt>
      <trkpt lat="43.81671" lon="7.45786">
        <ele>1006.6881649446</ele>
        <time>2021-01-27T10:05:03Z</time>
      </trkpt>
      <trkpt lat="43.81672" lon="7.45787">
        <ele>1006.6881471126</ele>
        <time>2021-01-27T10:05:04Z</time>
      </trkpt>
      <trkpt lat="43.81673" lon="7.45788">
        <ele>1007.6881127419</ele>
        <time>2021-01-27T10:05:05Z</time>
      </trkpt>
      <trkpt lat="43.81673" lon="7.4579">
        <ele>1006.6881087939</ele>
        <time>2021-01-27T10:05:06Z</time>
      </trkpt>
      <trkpt lat="43.81674" lon="7.45791">
        <ele>1006.6881169418</ele>
        <time>2021-01-27T10:05:07Z</time>
      </trkpt>
      <trkpt lat="43.81673" lon="7.45792">
        <ele>1006.6881322187</ele>
        <time>2021-01-27T10:05:08Z</time>
      </trkpt>
      <trkpt lat="43.81673" lon="7.45793">
        <ele>1006.688164341</ele>
        <time>2021-01-27T10:05:09Z</time>
      </trkpt>
      <trkpt lat="43.81673" lon="7.45793">
        <ele>1006.688141852</ele>
        <time>2021-01-27T10:05:13Z</time>
      </trkpt>
      <trkpt lat="43.81674" lon="7.45793">
        <ele>1006.6881131789</ele>
        <time>2021-01-27T10:05:14Z</time>
      </trkpt>
      <trkpt lat="43.81675" lon="7.45793">
        <ele>1006.6880728393</ele>
        <time>2021-01-27T10:05:15Z</time>
      </trkpt>
      <trkpt lat="43.81675" lon="7.45794">
        <ele>1007.6880681097</ele>
        <time>2021-01-27T10:05:16Z</time>
      </trkpt>
      <trkpt lat="43.81676" lon="7.45796">
        <ele>1007.6880573894</ele>
        <time>2021-01-27T10:05:17Z</time>
      </trkpt>
      <trkpt lat="43.81677" lon="7.45797">
        <ele>1008.6880411159</ele>
        <time>2021-01-27T10:05:18Z</time>
      </trkpt>
      <trkpt lat="43.81677" lon="7.45798">
        <ele>1008.6880168766</ele>
        <time>2021-01-27T10:05:19Z</time>
      </trkpt>
      <trkpt lat="43.81678" lon="7.45799">
        <ele>1007.6879955767</ele>
        <time>2021-01-27T10:05:20Z</time>
      </trkpt>
      <trkpt lat="43.81679" lon="7.458">
        <ele>1008.6879669613</ele>
        <time>2021-01-27T10:05:21Z</time>
      </trkpt>
      <trkpt lat="43.8168" lon="7.45801">
        <ele>1009.6879361547</ele>
        <time>2021-01-27T10:05:22Z</time>
      </trkpt>
      <trkpt lat="43.8168" lon="7.45802">
        <ele>1009.687913003</ele>
        <time>2021-01-27T10:05:23Z</time>
      </trkpt>
      <trkpt lat="43.81681" lon="7.45803">
        <ele>1009.6878896309</ele>
        <time>2021-01-27T10:05:24Z</time>
      </trkpt>
      <trkpt lat="43.81682" lon="7.45804">
        <ele>1009.6878665434</ele>
        <time>2021-01-27T10:05:25Z</time>
      </trkpt>
      <trkpt lat="43.81682" lon="7.45805">
        <ele>1010.6878547655</ele>
        <time>2021-01-27T10:05:26Z</time>
      </trkpt>
      <trkpt lat="43.81683" lon="7.45806">
        <ele>1010.6878111405</ele>
        <time>2021-01-27T10:05:27Z</time>
      </trkpt>
      <trkpt lat="43.81684" lon="7.45806">
        <ele>1011.6877757052</ele>
        <time>2021-01-27T10:05:28Z</time>
      </trkpt>
      <trkpt lat="43.81685" lon="7.45806">
        <ele>1012.6877377461</ele>
        <time>2021-01-27T10:05:29Z</time>
      </trkpt>
      <trkpt lat="43.81686" lon="7.45808">
        <ele>1012.6877277625</ele>
        <time>2021-01-27T10:05:30Z</time>
      </trkpt>
      <trkpt lat="43.81686" lon="7.45808">
        <ele>1013.6877168775</ele>
        <time>2021-01-27T10:05:31Z</time>
      </trkpt>
      <trkpt lat="43.81687" lon="7.45809">
        <ele>1013.6876994279</ele>
        <time>2021-01-27T10:05:32Z</time>
      </trkpt>
      <trkpt lat="43.81687" lon="7.4581">
        <ele>1013.6876770932</ele>
        <time>2021-01-27T10:05:33Z</time>
      </trkpt>
      <trkpt lat="43.81688" lon="7.45811">
        <ele>1013.6876521104</ele>
        <time>2021-01-27T10:05:34Z</time>
      </trkpt>
      <trkpt lat="43.81688" lon="7.45812">
        <ele>1013.687648545</ele>
        <time>2021-01-27T10:05:35Z</time>
      </trkpt>
      <trkpt lat="43.81689" lon="7.45813">
        <ele>1013.6876335972</ele>
        <time>2021-01-27T10:05:36Z</time>
      </trkpt>
      <trkpt lat="43.8169" lon="7.45815">
        <ele>1013.687620087</ele>
        <time>2021-01-27T10:05:37Z</time>
      </trkpt>
      <trkpt lat="43.8169" lon="7.45816">
        <ele>1013.6876174153</ele>
        <time>2021-01-27T10:05:38Z</time>
      </trkpt>
      <trkpt lat="43.8169" lon="7.45817">
        <ele>1013.6876063789</ele>
        <time>2021-01-27T10:05:39Z</time>
      </trkpt>
      <trkpt lat="43.81691" lon="7.45818">
        <ele>1013.687606353</ele>
        <time>2021-01-27T10:05:40Z</time>
      </trkpt>
      <trkpt lat="43.81691" lon="7.4582">
        <ele>1013.6876043719</ele>
        <time>2021-01-27T10:05:41Z</time>
      </trkpt>
      <trkpt lat="43.81692" lon="7.45821">
        <ele>1014.6875922741</ele>
        <time>2021-01-27T10:05:42Z</time>
      </trkpt>
      <trkpt lat="43.81693" lon="7.45822">
        <ele>1014.6875580894</ele>
        <time>2021-01-27T10:05:43Z</time>
      </trkpt>
      <trkpt lat="43.81693" lon="7.45824">
        <ele>1014.6875431282</ele>
        <time>2021-01-27T10:05:45Z</time>
      </trkpt>
      <trkpt lat="43.81694" lon="7.45825">
        <ele>1014.6875356307</ele>
        <time>2021-01-27T10:05:46Z</time>
      </trkpt>
      <trkpt lat="43.81694" lon="7.45826">
        <ele>1014.6875300551</ele>
        <time>2021-01-27T10:05:47Z</time>
      </trkpt>
      <trkpt lat="43.81694" lon="7.45827">
        <ele>1013.6875292544</ele>
        <time>2021-01-27T10:05:48Z</time>
      </trkpt>
      <trkpt lat="43.81695" lon="7.45828">
        <ele>1014.6875231765</ele>
        <time>2021-01-27T10:05:49Z</time>
      </trkpt>
      <trkpt lat="43.81695" lon="7.45829">
        <ele>1014.6875168876</ele>
        <time>2021-01-27T10:05:50Z</time>
      </trkpt>
      <trkpt lat="43.81695" lon="7.4583">
        <ele>1014.687507858</ele>
        <time>2021-01-27T10:05:51Z</time>
      </trkpt>
      <trkpt lat="43.81696" lon="7.45831">
        <ele>1013.6874956808</ele>
        <time>2021-01-27T10:05:52Z</time>
      </trkpt>
      <trkpt lat="43.81698" lon="7.45832">
        <ele>1013.6874373722</ele>
        <time>2021-01-27T10:05:54Z</time>
      </trkpt>
      <trkpt lat="43.81699" lon="7.45834">
        <ele>1013.6874060724</ele>
        <time>2021-01-27T10:05:56Z</time>
      </trkpt>
      <trkpt lat="43.81699" lon="7.45835">
        <ele>1013.687394933</ele>
        <time>2021-01-27T10:05:57Z</time>
      </trkpt>
      <trkpt lat="43.81699" lon="7.45837">
        <ele>1014.6874204703</ele>
        <time>2021-01-27T10:05:58Z</time>
      </trkpt>
      <trkpt lat="43.81699" lon="7.45838">
        <ele>1014.6874320751</ele>
        <time>2021-01-27T10:05:59Z</time>
      </trkpt>
      <trkpt lat="43.81699" lon="7.4584">
        <ele>1014.6874343162</ele>
        <time>2021-01-27T10:06:00Z</time>
      </trkpt>
      <trkpt lat="43.81699" lon="7.45841">
        <ele>1014.6874443417</ele>
        <time>2021-01-27T10:06:01Z</time>
      </trkpt>
      <trkpt lat="43.817" lon="7.45841">
        <ele>1013.6874185377</ele>
        <time>2021-01-27T10:06:02Z</time>
      </trkpt>
      <trkpt lat="43.81701" lon="7.45843">
        <ele>1013.6874102935</ele>
        <time>2021-01-27T10:06:04Z</time>
      </trkpt>
      <trkpt lat="43.81701" lon="7.45845">
        <ele>1015.6873901173</ele>
        <time>2021-01-27T10:06:06Z</time>
      </trkpt>
      <trkpt lat="43.81702" lon="7.45846">
        <ele>1016.687356992</ele>
        <time>2021-01-27T10:06:07Z</time>
      </trkpt>
      <trkpt lat="43.81703" lon="7.45848">
        <ele>1016.6873395912</ele>
        <time>2021-01-27T10:06:08Z</time>
      </trkpt>
      <trkpt lat="43.81704" lon="7.45848">
        <ele>1017.6873206828</ele>
        <time>2021-01-27T10:06:09Z</time>
      </trkpt>
      <trkpt lat="43.81705" lon="7.45851">
        <ele>1016.6872929948</ele>
        <time>2021-01-27T10:06:11Z</time>
      </trkpt>
      <trkpt lat="43.81705" lon="7.45853">
        <ele>1017.6873085358</ele>
        <time>2021-01-27T10:06:12Z</time>
      </trkpt>
      <trkpt lat="43.81707" lon="7.45854">
        <ele>1018.6872394548</ele>
        <time>2021-01-27T10:06:14Z</time>
      </trkpt>
      <trkpt lat="43.81708" lon="7.45855">
        <ele>1017.6871752674</ele>
        <time>2021-01-27T10:06:16Z</time>
      </trkpt>
      <trkpt lat="43.81709" lon="7.45857">
        <ele>1017.6871895258</ele>
        <time>2021-01-27T10:06:17Z</time>
      </trkpt>
      <trkpt lat="43.81709" lon="7.45859">
        <ele>1018.6871888415</ele>
        <time>2021-01-27T10:06:19Z</time>
      </trkpt>
      <trkpt lat="43.8171" lon="7.4586">
        <ele>1017.6871396507</ele>
        <time>2021-01-27T10:06:21Z</time>
      </trkpt>
      <trkpt lat="43.81711" lon="7.45861">
        <ele>1017.6871324918</ele>
        <time>2021-01-27T10:06:22Z</time>
      </trkpt>
      <trkpt lat="43.81711" lon="7.45862">
        <ele>1018.6871212394</ele>
        <time>2021-01-27T10:06:23Z</time>
      </trkpt>
      <trkpt lat="43.81712" lon="7.45863">
        <ele>1018.6871068539</ele>
        <time>2021-01-27T10:06:24Z</time>
      </trkpt>
      <trkpt lat="43.81712" lon="7.45864">
        <ele>1018.6870923319</ele>
        <time>2021-01-27T10:06:25Z</time>
      </trkpt>
      <trkpt lat="43.81713" lon="7.45866">
        <ele>1018.6870945191</ele>
        <time>2021-01-27T10:06:26Z</time>
      </trkpt>
      <trkpt lat="43.81713" lon="7.45867">
        <ele>1018.6870819998</ele>
        <time>2021-01-27T10:06:27Z</time>
      </trkpt>
      <trkpt lat="43.81713" lon="7.45867">
        <ele>1019.6870742026</ele>
        <time>2021-01-27T10:06:28Z</time>
      </trkpt>
      <trkpt lat="43.81714" lon="7.45868">
        <ele>1018.6870644072</ele>
        <time>2021-01-27T10:06:29Z</time>
      </trkpt>
      <trkpt lat="43.81714" lon="7.4587">
        <ele>1019.6870612624</ele>
        <time>2021-01-27T10:06:30Z</time>
      </trkpt>
      <trkpt lat="43.81715" lon="7.45871">
        <ele>1019.6870379237</ele>
        <time>2021-01-27T10:06:31Z</time>
      </trkpt>
      <trkpt lat="43.81716" lon="7.45873">
        <ele>1019.687022136</ele>
        <time>2021-01-27T10:06:32Z</time>
      </trkpt>
      <trkpt lat="43.81716" lon="7.45874">
        <ele>1019.6870282676</ele>
        <time>2021-01-27T10:06:33Z</time>
      </trkpt>
      <trkpt lat="43.81716" lon="7.45875">
        <ele>1019.687050293</ele>
        <time>2021-01-27T10:06:34Z</time>
      </trkpt>
      <trkpt lat="43.81716" lon="7.45877">
        <ele>1019.6870711006</ele>
        <time>2021-01-27T10:06:35Z</time>
      </trkpt>
      <trkpt lat="43.81716" lon="7.45879">
        <ele>1019.6870908845</ele>
        <time>2021-01-27T10:06:36Z</time>
      </trkpt>
      <trkpt lat="43.81716" lon="7.45881">
        <ele>1020.6871106245</ele>
        <time>2021-01-27T10:06:37Z</time>
      </trkpt>
      <trkpt lat="43.81715" lon="7.45882">
        <ele>1020.6871348903</ele>
        <time>2021-01-27T10:06:38Z</time>
      </trkpt>
      <trkpt lat="43.81715" lon="7.45885">
        <ele>1020.6871709149</ele>
        <time>2021-01-27T10:06:41Z</time>
      </trkpt>
      <trkpt lat="43.81716" lon="7.45885">
        <ele>1020.6871695604</ele>
        <time>2021-01-27T10:06:42Z</time>
      </trkpt>
      <trkpt lat="43.81716" lon="7.45886">
        <ele>1019.6871427053</ele>
        <time>2021-01-27T10:06:44Z</time>
      </trkpt>
      <trkpt lat="43.81717" lon="7.45888">
        <ele>1019.6871413341</ele>
        <time>2021-01-27T10:06:45Z</time>
      </trkpt>
      <trkpt lat="43.81717" lon="7.45889">
        <ele>1019.6871469177</ele>
        <time>2021-01-27T10:06:46Z</time>
      </trkpt>
      <trkpt lat="43.81717" lon="7.4589">
        <ele>1019.6871273964</ele>
        <time>2021-01-27T10:06:47Z</time>
      </trkpt>
      <trkpt lat="43.81718" lon="7.45891">
        <ele>1018.6871228169</ele>
        <time>2021-01-27T10:06:49Z</time>
      </trkpt>
      <trkpt lat="43.81718" lon="7.45894">
        <ele>1018.6871566308</ele>
        <time>2021-01-27T10:06:51Z</time>
      </trkpt>
      <trkpt lat="43.81718" lon="7.45894">
        <ele>1018.6871431648</ele>
        <time>2021-01-27T10:06:52Z</time>
      </trkpt>
      <trkpt lat="43.81719" lon="7.45893">
        <ele>1017.6871113645</ele>
        <time>2021-01-27T10:06:53Z</time>
      </trkpt>
      <trkpt lat="43.81719" lon="7.45893">
        <ele>1018.687078573</ele>
        <time>2021-01-27T10:06:57Z</time>
      </trkpt>
      <trkpt lat="43.81719" lon="7.45892">
        <ele>1019.6870684824</ele>
        <time>2021-01-27T10:07:03Z</time>
      </trkpt>
      <trkpt lat="43.81718" lon="7.45894">
        <ele>1019.6871449365</ele>
        <time>2021-01-27T10:07:04Z</time>
      </trkpt>
      <trkpt lat="43.81717" lon="7.45895">
        <ele>1019.6871928134</ele>
        <time>2021-01-27T10:07:05Z</time>
      </trkpt>
      <trkpt lat="43.81716" lon="7.45896">
        <ele>1019.6872498312</ele>
        <time>2021-01-27T10:07:06Z</time>
      </trkpt>
      <trkpt lat="43.81714" lon="7.45895">
        <ele>1019.6873273124</ele>
        <time>2021-01-27T10:07:08Z</time>
      </trkpt>
      <trkpt lat="43.81713" lon="7.45894">
        <ele>1018.6873802349</ele>
        <time>2021-01-27T10:07:10Z</time>
      </trkpt>
      <trkpt lat="43.81712" lon="7.45894">
        <ele>1018.6874045</ele>
        <time>2021-01-27T10:07:14Z</time>
      </trkpt>
      <trkpt lat="43.81712" lon="7.45891">
        <ele>1018.6873847501</ele>
        <time>2021-01-27T10:07:15Z</time>
      </trkpt>
      <trkpt lat="43.81712" lon="7.4589">
        <ele>1018.6873859584</ele>
        <time>2021-01-27T10:07:17Z</time>
      </trkpt>
      <trkpt lat="43.81711" lon="7.45889">
        <ele>1018.6874102504</ele>
        <time>2021-01-27T10:07:19Z</time>
      </trkpt>
      <trkpt lat="43.8171" lon="7.45889">
        <ele>1018.6874516824</ele>
        <time>2021-01-27T10:07:21Z</time>
      </trkpt>
      <trkpt lat="43.81709" lon="7.45888">
        <ele>1020.6874917414</ele>
        <time>2021-01-27T10:07:22Z</time>
      </trkpt>
      <trkpt lat="43.81709" lon="7.45887">
        <ele>1020.6875184754</ele>
        <time>2021-01-27T10:07:23Z</time>
      </trkpt>
      <trkpt lat="43.81707" lon="7.45886">
        <ele>1022.6875720002</ele>
        <time>2021-01-27T10:07:25Z</time>
      </trkpt>
      <trkpt lat="43.81706" lon="7.45885">
        <ele>1022.6876003215</ele>
        <time>2021-01-27T10:07:26Z</time>
      </trkpt>
      <trkpt lat="43.81705" lon="7.45884">
        <ele>1022.6876332993</ele>
        <time>2021-01-27T10:07:27Z</time>
      </trkpt>
      <trkpt lat="43.81704" lon="7.45882">
        <ele>1023.6876915213</ele>
        <time>2021-01-27T10:07:29Z</time>
      </trkpt>
      <trkpt lat="43.81703" lon="7.45881">
        <ele>1022.6877283923</ele>
        <time>2021-01-27T10:07:30Z</time>
      </trkpt>
      <trkpt lat="43.81701" lon="7.45881">
        <ele>1022.6877819917</ele>
        <time>2021-01-27T10:07:31Z</time>
      </trkpt>
      <trkpt lat="43.817" lon="7.45881">
        <ele>1022.6878220884</ele>
        <time>2021-01-27T10:07:32Z</time>
      </trkpt>
      <trkpt lat="43.81698" lon="7.45881">
        <ele>1023.6879129071</ele>
        <time>2021-01-27T10:07:34Z</time>
      </trkpt>
      <trkpt lat="43.81697" lon="7.4588">
        <ele>1023.6879524866</ele>
        <time>2021-01-27T10:07:35Z</time>
      </trkpt>
      <trkpt lat="43.81697" lon="7.45879">
        <ele>1024.6879854841</ele>
        <time>2021-01-27T10:07:36Z</time>
      </trkpt>
      <trkpt lat="43.81696" lon="7.45878">
        <ele>1024.6880185535</ele>
        <time>2021-01-27T10:07:37Z</time>
      </trkpt>
      <trkpt lat="43.81694" lon="7.45877">
        <ele>1024.6881055342</ele>
        <time>2021-01-27T10:07:39Z</time>
      </trkpt>
      <trkpt lat="43.81693" lon="7.45877">
        <ele>1024.6881471701</ele>
        <time>2021-01-27T10:07:40Z</time>
      </trkpt>
      <trkpt lat="43.81692" lon="7.45876">
        <ele>1024.6881855301</ele>
        <time>2021-01-27T10:07:41Z</time>
      </trkpt>
      <trkpt lat="43.81691" lon="7.45875">
        <ele>1023.6881972257</ele>
        <time>2021-01-27T10:07:42Z</time>
      </trkpt>
      <trkpt lat="43.81692" lon="7.45875">
        <ele>1023.6881802141</ele>
        <time>2021-01-27T10:07:44Z</time>
      </trkpt>
      <trkpt lat="43.8169" lon="7.45876">
        <ele>1024.6882488256</ele>
        <time>2021-01-27T10:07:46Z</time>
      </trkpt>
      <trkpt lat="43.81689" lon="7.45876">
        <ele>1023.6882929934</ele>
        <time>2021-01-27T10:07:47Z</time>
      </trkpt>
      <trkpt lat="43.81688" lon="7.45876">
        <ele>1023.6883497973</ele>
        <time>2021-01-27T10:07:48Z</time>
      </trkpt>
      <trkpt lat="43.81687" lon="7.45876">
        <ele>1023.6883869767</ele>
        <time>2021-01-27T10:07:51Z</time>
      </trkpt>
      <trkpt lat="43.81685" lon="7.45876">
        <ele>1023.6884909523</ele>
        <time>2021-01-27T10:07:52Z</time>
      </trkpt>
      <trkpt lat="43.81683" lon="7.45875">
        <ele>1024.6885955919</ele>
        <time>2021-01-27T10:07:54Z</time>
      </trkpt>
      <trkpt lat="43.8168" lon="7.45876">
        <ele>1024.6887017683</ele>
        <time>2021-01-27T10:07:56Z</time>
      </trkpt>
      <trkpt lat="43.8168" lon="7.45876">
        <ele>1024.6887406281</ele>
        <time>2021-01-27T10:07:57Z</time>
      </trkpt>
      <trkpt lat="43.81679" lon="7.45876">
        <ele>1024.688777133</ele>
        <time>2021-01-27T10:07:58Z</time>
      </trkpt>
      <trkpt lat="43.81678" lon="7.45876">
        <ele>1024.6888308875</ele>
        <time>2021-01-27T10:07:59Z</time>
      </trkpt>
      <trkpt lat="43.81677" lon="7.45877">
        <ele>1024.6888696367</ele>
        <time>2021-01-27T10:08:00Z</time>
      </trkpt>
      <trkpt lat="43.81676" lon="7.45877">
        <ele>1025.6889015589</ele>
        <time>2021-01-27T10:08:01Z</time>
      </trkpt>
      <trkpt lat="43.81675" lon="7.45877">
        <ele>1025.6889505106</ele>
        <time>2021-01-27T10:08:02Z</time>
      </trkpt>
      <trkpt lat="43.81674" lon="7.45876">
        <ele>1024.6889833106</ele>
        <time>2021-01-27T10:08:03Z</time>
      </trkpt>
      <trkpt lat="43.81672" lon="7.45875">
        <ele>1024.6890997669</ele>
        <time>2021-01-27T10:08:06Z</time>
      </trkpt>
      <trkpt lat="43.81671" lon="7.45875">
        <ele>1024.6891123382</ele>
        <time>2021-01-27T10:08:07Z</time>
      </trkpt>
      <trkpt lat="43.8167" lon="7.45876">
        <ele>1025.6891790252</ele>
        <time>2021-01-27T10:08:09Z</time>
      </trkpt>
      <trkpt lat="43.81669" lon="7.45876">
        <ele>1026.6892384612</ele>
        <time>2021-01-27T10:08:11Z</time>
      </trkpt>
      <trkpt lat="43.81668" lon="7.45876">
        <ele>1026.6892719314</ele>
        <time>2021-01-27T10:08:12Z</time>
      </trkpt>
      <trkpt lat="43.81668" lon="7.45875">
        <ele>1026.6892908672</ele>
        <time>2021-01-27T10:08:13Z</time>
      </trkpt>
      <trkpt lat="43.81667" lon="7.45875">
        <ele>1026.6893410593</ele>
        <time>2021-01-27T10:08:15Z</time>
      </trkpt>
      <trkpt lat="43.81666" lon="7.45875">
        <ele>1026.689385952</ele>
        <time>2021-01-27T10:08:16Z</time>
      </trkpt>
      <trkpt lat="43.81665" lon="7.45875">
        <ele>1026.6894092716</ele>
        <time>2021-01-27T10:08:17Z</time>
      </trkpt>
      <trkpt lat="43.81664" lon="7.45874">
        <ele>1026.6894508776</ele>
        <time>2021-01-27T10:08:18Z</time>
      </trkpt>
      <trkpt lat="43.81664" lon="7.45874">
        <ele>1025.6894681379</ele>
        <time>2021-01-27T10:08:20Z</time>
      </trkpt>
      <trkpt lat="43.81663" lon="7.45873">
        <ele>1024.6894895961</ele>
        <time>2021-01-27T10:08:21Z</time>
      </trkpt>
      <trkpt lat="43.81663" lon="7.45873">
        <ele>1025.6894999222</ele>
        <time>2021-01-27T10:08:22Z</time>
      </trkpt>
      <trkpt lat="43.81662" lon="7.45873">
        <ele>1026.6895343722</ele>
        <time>2021-01-27T10:08:24Z</time>
      </trkpt>
      <trkpt lat="43.81661" lon="7.45873">
        <ele>1027.6895854463</ele>
        <time>2021-01-27T10:08:25Z</time>
      </trkpt>
      <trkpt lat="43.81659" lon="7.45873">
        <ele>1028.6896531655</ele>
        <time>2021-01-27T10:08:26Z</time>
      </trkpt>
      <trkpt lat="43.81658" lon="7.45874">
        <ele>1029.6897062452</ele>
        <time>2021-01-27T10:08:27Z</time>
      </trkpt>
      <trkpt lat="43.81657" lon="7.45874">
        <ele>1029.6897597539</ele>
        <time>2021-01-27T10:08:28Z</time>
      </trkpt>
      <trkpt lat="43.81656" lon="7.45874">
        <ele>1030.6898042054</ele>
        <time>2021-01-27T10:08:29Z</time>
      </trkpt>
      <trkpt lat="43.81656" lon="7.45874">
        <ele>1030.6898338858</ele>
        <time>2021-01-27T10:08:30Z</time>
      </trkpt>
      <trkpt lat="43.81655" lon="7.45875">
        <ele>1031.6898760524</ele>
        <time>2021-01-27T10:08:31Z</time>
      </trkpt>
      <trkpt lat="43.81654" lon="7.45875">
        <ele>1031.6899396884</ele>
        <time>2021-01-27T10:08:32Z</time>
      </trkpt>
      <trkpt lat="43.81653" lon="7.45876">
        <ele>1031.689986148</ele>
        <time>2021-01-27T10:08:33Z</time>
      </trkpt>
      <trkpt lat="43.81652" lon="7.45876">
        <ele>1031.6900273207</ele>
        <time>2021-01-27T10:08:34Z</time>
      </trkpt>
      <trkpt lat="43.81651" lon="7.45876">
        <ele>1031.6900614582</ele>
        <time>2021-01-27T10:08:35Z</time>
      </trkpt>
      <trkpt lat="43.81651" lon="7.45876">
        <ele>1031.6900882283</ele>
        <time>2021-01-27T10:08:36Z</time>
      </trkpt>
      <trkpt lat="43.8165" lon="7.45876">
        <ele>1031.690128188</ele>
        <time>2021-01-27T10:08:37Z</time>
      </trkpt>
      <trkpt lat="43.81649" lon="7.45876">
        <ele>1032.6901619272</ele>
        <time>2021-01-27T10:08:38Z</time>
      </trkpt>
      <trkpt lat="43.81648" lon="7.45876">
        <ele>1032.6902355223</ele>
        <time>2021-01-27T10:08:40Z</time>
      </trkpt>
      <trkpt lat="43.81647" lon="7.45876">
        <ele>1031.6902690061</ele>
        <time>2021-01-27T10:08:41Z</time>
      </trkpt>
      <trkpt lat="43.81646" lon="7.45876">
        <ele>1031.6903156033</ele>
        <time>2021-01-27T10:08:42Z</time>
      </trkpt>
      <trkpt lat="43.81644" lon="7.45876">
        <ele>1032.6903987498</ele>
        <time>2021-01-27T10:08:44Z</time>
      </trkpt>
      <trkpt lat="43.81643" lon="7.45876">
        <ele>1033.6904261009</ele>
        <time>2021-01-27T10:08:46Z</time>
      </trkpt>
      <trkpt lat="43.81643" lon="7.45875">
        <ele>1034.6904503447</ele>
        <time>2021-01-27T10:08:48Z</time>
      </trkpt>
      <trkpt lat="43.81642" lon="7.45876">
        <ele>1035.6904824863</ele>
        <time>2021-01-27T10:09:01Z</time>
      </trkpt>
      <trkpt lat="43.81641" lon="7.45876">
        <ele>1036.6905516495</ele>
        <time>2021-01-27T10:09:02Z</time>
      </trkpt>
      <trkpt lat="43.8164" lon="7.45876">
        <ele>1037.6905821367</ele>
        <time>2021-01-27T10:09:09Z</time>
      </trkpt>
      <trkpt lat="43.8164" lon="7.45875">
        <ele>1033.6905671523</ele>
        <time>2021-01-27T10:09:13Z</time>
      </trkpt>
      <trkpt lat="43.81641" lon="7.45876">
        <ele>1033.6905538536</ele>
        <time>2021-01-27T10:09:16Z</time>
      </trkpt>
      <trkpt lat="43.81642" lon="7.45878">
        <ele>1033.6905115974</ele>
        <time>2021-01-27T10:09:17Z</time>
      </trkpt>
      <trkpt lat="43.81642" lon="7.45878">
        <ele>1032.6904966846</ele>
        <time>2021-01-27T10:09:18Z</time>
      </trkpt>
      <trkpt lat="43.81643" lon="7.45879">
        <ele>1031.6904676345</ele>
        <time>2021-01-27T10:09:20Z</time>
      </trkpt>
      <trkpt lat="43.81643" lon="7.45879">
        <ele>1031.6904656415</ele>
        <time>2021-01-27T10:09:21Z</time>
      </trkpt>
      <trkpt lat="43.81643" lon="7.45882">
        <ele>1032.6905232087</ele>
        <time>2021-01-27T10:09:23Z</time>
      </trkpt>
      <trkpt lat="43.81642" lon="7.45882">
        <ele>1032.6905443252</ele>
        <time>2021-01-27T10:09:24Z</time>
      </trkpt>
      <trkpt lat="43.81642" lon="7.45883">
        <ele>1033.6905544865</ele>
        <time>2021-01-27T10:09:27Z</time>
      </trkpt>
      <trkpt lat="43.81641" lon="7.45886">
        <ele>1033.6906425307</ele>
        <time>2021-01-27T10:09:30Z</time>
      </trkpt>
      <trkpt lat="43.81642" lon="7.45887">
        <ele>1034.6906319692</ele>
        <time>2021-01-27T10:09:34Z</time>
      </trkpt>
      <trkpt lat="43.81642" lon="7.45888">
        <ele>1033.6906076614</ele>
        <time>2021-01-27T10:09:36Z</time>
      </trkpt>
      <trkpt lat="43.81643" lon="7.45888">
        <ele>1034.6905807683</ele>
        <time>2021-01-27T10:09:37Z</time>
      </trkpt>
      <trkpt lat="43.81644" lon="7.45889">
        <ele>1034.6905466442</ele>
        <time>2021-01-27T10:09:38Z</time>
      </trkpt>
      <trkpt lat="43.81643" lon="7.4589">
        <ele>1034.6905941958</ele>
        <time>2021-01-27T10:09:40Z</time>
      </trkpt>
      <trkpt lat="43.81643" lon="7.4589">
        <ele>1035.6906011197</ele>
        <time>2021-01-27T10:09:55Z</time>
      </trkpt>
      <trkpt lat="43.81643" lon="7.45891">
        <ele>1036.6905909888</ele>
        <time>2021-01-27T10:09:56Z</time>
      </trkpt>
      <trkpt lat="43.81643" lon="7.45891">
        <ele>1036.6906054402</ele>
        <time>2021-01-27T10:10:02Z</time>
      </trkpt>
      <trkpt lat="43.81646" lon="7.45891">
        <ele>1035.6904471909</ele>
        <time>2021-01-27T10:10:06Z</time>
      </trkpt>
      <trkpt lat="43.81647" lon="7.45891">
        <ele>1036.6904382334</ele>
        <time>2021-01-27T10:10:21Z</time>
      </trkpt>
      <trkpt lat="43.81647" lon="7.45889">
        <ele>1037.6904267766</ele>
        <time>2021-01-27T10:10:22Z</time>
      </trkpt>
      <trkpt lat="43.81647" lon="7.4589">
        <ele>1036.6903926701</ele>
        <time>2021-01-27T10:10:24Z</time>
      </trkpt>
      <trkpt lat="43.81648" lon="7.45891">
        <ele>1036.6903865673</ele>
        <time>2021-01-27T10:10:25Z</time>
      </trkpt>
      <trkpt lat="43.81648" lon="7.45892">
        <ele>1036.6903852074</ele>
        <time>2021-01-27T10:10:26Z</time>
      </trkpt>
      <trkpt lat="43.81648" lon="7.45893">
        <ele>1035.6903767401</ele>
        <time>2021-01-27T10:10:27Z</time>
      </trkpt>
      <trkpt lat="43.81648" lon="7.45894">
        <ele>1036.6904049109</ele>
        <time>2021-01-27T10:10:50Z</time>
      </trkpt>
      <trkpt lat="43.81649" lon="7.45894">
        <ele>1037.6903762563</ele>
        <time>2021-01-27T10:11:01Z</time>
      </trkpt>
      <trkpt lat="43.8165" lon="7.45894">
        <ele>1037.6903054235</ele>
        <time>2021-01-27T10:11:03Z</time>
      </trkpt>
      <trkpt lat="43.81651" lon="7.45894">
        <ele>1037.6902799955</ele>
        <time>2021-01-27T10:11:14Z</time>
      </trkpt>
      <trkpt lat="43.81652" lon="7.45895">
        <ele>1037.6902283511</ele>
        <time>2021-01-27T10:11:16Z</time>
      </trkpt>
      <trkpt lat="43.81652" lon="7.45895">
        <ele>1037.6902269849</ele>
        <time>2021-01-27T10:12:04Z</time>
      </trkpt>
      <trkpt lat="43.81652" lon="7.45896">
        <ele>1038.6902245869</ele>
        <time>2021-01-27T10:12:06Z</time>
      </trkpt>
      <trkpt lat="43.81652" lon="7.45897">
        <ele>1039.6902401101</ele>
        <time>2021-01-27T10:12:51Z</time>
      </trkpt>
      <trkpt lat="43.81653" lon="7.45899">
        <ele>1044.6902369512</ele>
        <time>2021-01-27T10:13:01Z</time>
      </trkpt>
      <trkpt lat="43.81653" lon="7.459">
        <ele>1044.6902412615</ele>
        <time>2021-01-27T10:13:26Z</time>
      </trkpt>
      <trkpt lat="43.81654" lon="7.45899">
        <ele>1042.6901980508</ele>
        <time>2021-01-27T10:13:27Z</time>
      </trkpt>
      <trkpt lat="43.81654" lon="7.45898">
        <ele>1042.690152437</ele>
        <time>2021-01-27T10:13:28Z</time>
      </trkpt>
      <trkpt lat="43.81656" lon="7.45899">
        <ele>1041.6900876625</ele>
        <time>2021-01-27T10:13:30Z</time>
      </trkpt>
      <trkpt lat="43.81657" lon="7.45898">
        <ele>1041.6900395973</ele>
        <time>2021-01-27T10:13:31Z</time>
      </trkpt>
      <trkpt lat="43.81657" lon="7.45898">
        <ele>1041.6900140691</ele>
        <time>2021-01-27T10:13:32Z</time>
      </trkpt>
      <trkpt lat="43.81658" lon="7.45899">
        <ele>1041.6899867586</ele>
        <time>2021-01-27T10:13:33Z</time>
      </trkpt>
      <trkpt lat="43.81659" lon="7.459">
        <ele>1042.6899690767</ele>
        <time>2021-01-27T10:13:34Z</time>
      </trkpt>
      <trkpt lat="43.81659" lon="7.459">
        <ele>1042.6899537874</ele>
        <time>2021-01-27T10:13:35Z</time>
      </trkpt>
      <trkpt lat="43.81659" lon="7.45901">
        <ele>1042.6899489692</ele>
        <time>2021-01-27T10:13:43Z</time>
      </trkpt>
      <trkpt lat="43.8166" lon="7.45902">
        <ele>1042.6899333683</ele>
        <time>2021-01-27T10:13:45Z</time>
      </trkpt>
      <trkpt lat="43.81659" lon="7.45902">
        <ele>1042.689972396</ele>
        <time>2021-01-27T10:13:49Z</time>
      </trkpt>
      <trkpt lat="43.81658" lon="7.45903">
        <ele>1043.690025204</ele>
        <time>2021-01-27T10:13:51Z</time>
      </trkpt>
      <trkpt lat="43.81658" lon="7.45904">
        <ele>1043.6900500296</ele>
        <time>2021-01-27T10:13:52Z</time>
      </trkpt>
      <trkpt lat="43.81657" lon="7.45905">
        <ele>1043.6900885504</ele>
        <time>2021-01-27T10:13:53Z</time>
      </trkpt>
      <trkpt lat="43.81657" lon="7.45906">
        <ele>1043.6901186212</ele>
        <time>2021-01-27T10:13:58Z</time>
      </trkpt>
      <trkpt lat="43.81656" lon="7.45908">
        <ele>1043.690188351</ele>
        <time>2021-01-27T10:14:00Z</time>
      </trkpt>
      <trkpt lat="43.81656" lon="7.45908">
        <ele>1044.6902046669</ele>
        <time>2021-01-27T10:14:01Z</time>
      </trkpt>
      <trkpt lat="43.81655" lon="7.45909">
        <ele>1044.6902442237</ele>
        <time>2021-01-27T10:14:02Z</time>
      </trkpt>
      <trkpt lat="43.81654" lon="7.45909">
        <ele>1044.690304024</ele>
        <time>2021-01-27T10:14:03Z</time>
      </trkpt>
      <trkpt lat="43.81654" lon="7.45909">
        <ele>1044.690304024</ele>
        <time>2021-01-27T10:14:04Z</time>
      </trkpt>
      <trkpt lat="43.81651" lon="7.45909">
        <ele>1044.6904386915</ele>
        <time>2021-01-27T10:14:06Z</time>
      </trkpt>
      <trkpt lat="43.8165" lon="7.4591">
        <ele>1044.6904726615</ele>
        <time>2021-01-27T10:14:07Z</time>
      </trkpt>
      <trkpt lat="43.81649" lon="7.4591">
        <ele>1044.6905143948</ele>
        <time>2021-01-27T10:14:08Z</time>
      </trkpt>
      <trkpt lat="43.81648" lon="7.4591">
        <ele>1045.6905717605</ele>
        <time>2021-01-27T10:14:09Z</time>
      </trkpt>
      <trkpt lat="43.81647" lon="7.4591">
        <ele>1045.6906209263</ele>
        <time>2021-01-27T10:14:10Z</time>
      </trkpt>
      <trkpt lat="43.81646" lon="7.4591">
        <ele>1045.6906599722</ele>
        <time>2021-01-27T10:14:11Z</time>
      </trkpt>
      <trkpt lat="43.81645" lon="7.4591">
        <ele>1045.6907169173</ele>
        <time>2021-01-27T10:14:12Z</time>
      </trkpt>
      <trkpt lat="43.81643" lon="7.45911">
        <ele>1047.6908017962</ele>
        <time>2021-01-27T10:14:14Z</time>
      </trkpt>
      <trkpt lat="43.81643" lon="7.45913">
        <ele>1047.6908252133</ele>
        <time>2021-01-27T10:14:16Z</time>
      </trkpt>
      <trkpt lat="43.81643" lon="7.45913">
        <ele>1047.6908572629</ele>
        <time>2021-01-27T10:14:19Z</time>
      </trkpt>
      <trkpt lat="43.81641" lon="7.45915">
        <ele>1048.6909355751</ele>
        <time>2021-01-27T10:14:20Z</time>
      </trkpt>
      <trkpt lat="43.81641" lon="7.45916">
        <ele>1047.6909770431</ele>
        <time>2021-01-27T10:14:21Z</time>
      </trkpt>
      <trkpt lat="43.8164" lon="7.45917">
        <ele>1047.6910060652</ele>
        <time>2021-01-27T10:14:22Z</time>
      </trkpt>
      <trkpt lat="43.8164" lon="7.45918">
        <ele>1048.6910368164</ele>
        <time>2021-01-27T10:14:23Z</time>
      </trkpt>
      <trkpt lat="43.8164" lon="7.45918">
        <ele>1048.6910511715</ele>
        <time>2021-01-27T10:14:24Z</time>
      </trkpt>
      <trkpt lat="43.81639" lon="7.45919">
        <ele>1048.6911016115</ele>
        <time>2021-01-27T10:14:26Z</time>
      </trkpt>
      <trkpt lat="43.81639" lon="7.45919">
        <ele>1048.6911016115</ele>
        <time>2021-01-27T10:14:28Z</time>
      </trkpt>
      <trkpt lat="43.81638" lon="7.4592">
        <ele>1048.6911548772</ele>
        <time>2021-01-27T10:14:29Z</time>
      </trkpt>
      <trkpt lat="43.81637" lon="7.4592">
        <ele>1048.6911991117</ele>
        <time>2021-01-27T10:14:30Z</time>
      </trkpt>
      <trkpt lat="43.81636" lon="7.4592">
        <ele>1048.6912527686</ele>
        <time>2021-01-27T10:14:31Z</time>
      </trkpt>
      <trkpt lat="43.81635" lon="7.45921">
        <ele>1049.6913044875</ele>
        <time>2021-01-27T10:14:32Z</time>
      </trkpt>
      <trkpt lat="43.81634" lon="7.45921">
        <ele>1050.6913378861</ele>
        <time>2021-01-27T10:14:33Z</time>
      </trkpt>
      <trkpt lat="43.81633" lon="7.45921">
        <ele>1050.6913765809</ele>
        <time>2021-01-27T10:14:34Z</time>
      </trkpt>
      <trkpt lat="43.81631" lon="7.45921">
        <ele>1051.69147189</ele>
        <time>2021-01-27T10:14:36Z</time>
      </trkpt>
      <trkpt lat="43.81631" lon="7.45922">
        <ele>1051.6914959716</ele>
        <time>2021-01-27T10:14:43Z</time>
      </trkpt>
      <trkpt lat="43.8163" lon="7.45924">
        <ele>1051.6915502529</ele>
        <time>2021-01-27T10:14:46Z</time>
      </trkpt>
      <trkpt lat="43.8163" lon="7.45924">
        <ele>1051.691584865</ele>
        <time>2021-01-27T10:15:07Z</time>
      </trkpt>
      <trkpt lat="43.81629" lon="7.45924">
        <ele>1051.6916016512</ele>
        <time>2021-01-27T10:15:13Z</time>
      </trkpt>
      <trkpt lat="43.81628" lon="7.45923">
        <ele>1051.6916422248</ele>
        <time>2021-01-27T10:15:15Z</time>
      </trkpt>
      <trkpt lat="43.81628" lon="7.45923">
        <ele>1050.6916598818</ele>
        <time>2021-01-27T10:15:16Z</time>
      </trkpt>
      <trkpt lat="43.81627" lon="7.45923">
        <ele>1050.6916955166</ele>
        <time>2021-01-27T10:15:17Z</time>
      </trkpt>
      <trkpt lat="43.81626" lon="7.45923">
        <ele>1050.6917178672</ele>
        <time>2021-01-27T10:15:20Z</time>
      </trkpt>
      <trkpt lat="43.81625" lon="7.45922">
        <ele>1049.691750603</ele>
        <time>2021-01-27T10:15:21Z</time>
      </trkpt>
      <trkpt lat="43.81626" lon="7.45921">
        <ele>1049.6917255088</ele>
        <time>2021-01-27T10:15:24Z</time>
      </trkpt>
      <trkpt lat="43.81625" lon="7.4592">
        <ele>1049.691734681</ele>
        <time>2021-01-27T10:15:27Z</time>
      </trkpt>
      <trkpt lat="43.81626" lon="7.4592">
        <ele>1049.6917304872</ele>
        <time>2021-01-27T10:16:23Z</time>
      </trkpt>
      <trkpt lat="43.81624" lon="7.45919">
        <ele>1048.6917765934</ele>
        <time>2021-01-27T10:16:26Z</time>
      </trkpt>
      <trkpt lat="43.81625" lon="7.45919">
        <ele>1049.6917516963</ele>
        <time>2021-01-27T10:16:58Z</time>
      </trkpt>
      <trkpt lat="43.81626" lon="7.4592">
        <ele>1049.6917289843</ele>
        <time>2021-01-27T10:16:59Z</time>
      </trkpt>
      <trkpt lat="43.81626" lon="7.45921">
        <ele>1049.6917265232</ele>
        <time>2021-01-27T10:17:00Z</time>
      </trkpt>
      <trkpt lat="43.81626" lon="7.45922">
        <ele>1049.6917246872</ele>
        <time>2021-01-27T10:17:01Z</time>
      </trkpt>
      <trkpt lat="43.81626" lon="7.45922">
        <ele>1049.6917147092</ele>
        <time>2021-01-27T10:17:02Z</time>
      </trkpt>
      <trkpt lat="43.81626" lon="7.45923">
        <ele>1049.6917162676</ele>
        <time>2021-01-27T10:17:03Z</time>
      </trkpt>
      <trkpt lat="43.81627" lon="7.45924">
        <ele>1049.6917215097</ele>
        <time>2021-01-27T10:17:04Z</time>
      </trkpt>
      <trkpt lat="43.81627" lon="7.45925">
        <ele>1049.6917119549</ele>
        <time>2021-01-27T10:17:05Z</time>
      </trkpt>
      <trkpt lat="43.81627" lon="7.45926">
        <ele>1049.6917012435</ele>
        <time>2021-01-27T10:17:06Z</time>
      </trkpt>
      <trkpt lat="43.81628" lon="7.45926">
        <ele>1049.6916845057</ele>
        <time>2021-01-27T10:17:09Z</time>
      </trkpt>
      <trkpt lat="43.8163" lon="7.45924">
        <ele>1048.6915700626</ele>
        <time>2021-01-27T10:17:11Z</time>
      </trkpt>
      <trkpt lat="43.81629" lon="7.45924">
        <ele>1048.6915928587</ele>
        <time>2021-01-27T10:17:31Z</time>
      </trkpt>
      <trkpt lat="43.81629" lon="7.45925">
        <ele>1050.6916110796</ele>
        <time>2021-01-27T10:17:33Z</time>
      </trkpt>
      <trkpt lat="43.81629" lon="7.45925">
        <ele>1050.6916062602</ele>
        <time>2021-01-27T10:17:35Z</time>
      </trkpt>
      <trkpt lat="43.8163" lon="7.45924">
        <ele>1049.6915714872</ele>
        <time>2021-01-27T10:17:36Z</time>
      </trkpt>
      <trkpt lat="43.8163" lon="7.45924">
        <ele>1050.6915441167</ele>
        <time>2021-01-27T10:17:43Z</time>
      </trkpt>
      <trkpt lat="43.8163" lon="7.45925">
        <ele>1050.6915913929</ele>
        <time>2021-01-27T10:17:44Z</time>
      </trkpt>
      <trkpt lat="43.81629" lon="7.45926">
        <ele>1045.6916124322</ele>
        <time>2021-01-27T10:26:15Z</time>
      </trkpt>
      <trkpt lat="43.81629" lon="7.45926">
        <ele>1046.6916345996</ele>
        <time>2021-01-27T10:26:18Z</time>
      </trkpt>
      <trkpt lat="43.81629" lon="7.45926">
        <ele>1048.6916416726</ele>
        <time>2021-01-27T10:30:24Z</time>
      </trkpt>
      <trkpt lat="43.8163" lon="7.45924">
        <ele>1048.6915460394</ele>
        <time>2021-01-27T10:30:26Z</time>
      </trkpt>
      <trkpt lat="43.8163" lon="7.45923">
        <ele>1048.6915298346</ele>
        <time>2021-01-27T10:30:28Z</time>
      </trkpt>
      <trkpt lat="43.81631" lon="7.45922">
        <ele>1048.6915003251</ele>
        <time>2021-01-27T10:30:30Z</time>
      </trkpt>
      <trkpt lat="43.81631" lon="7.45922">
        <ele>1048.6914722038</ele>
        <time>2021-01-27T10:30:32Z</time>
      </trkpt>
      <trkpt lat="43.81631" lon="7.45921">
        <ele>1049.6914674223</ele>
        <time>2021-01-27T10:30:33Z</time>
      </trkpt>
      <trkpt lat="43.81632" lon="7.4592">
        <ele>1049.6914332819</ele>
        <time>2021-01-27T10:30:34Z</time>
      </trkpt>
      <trkpt lat="43.81633" lon="7.45919">
        <ele>1048.6913776322</ele>
        <time>2021-01-27T10:30:35Z</time>
      </trkpt>
      <trkpt lat="43.81634" lon="7.45918">
        <ele>1048.6913106553</ele>
        <time>2021-01-27T10:30:36Z</time>
      </trkpt>
      <trkpt lat="43.81635" lon="7.45918">
        <ele>1048.6912647926</ele>
        <time>2021-01-27T10:30:37Z</time>
      </trkpt>
      <trkpt lat="43.81636" lon="7.45918">
        <ele>1048.6912279945</ele>
        <time>2021-01-27T10:30:38Z</time>
      </trkpt>
      <trkpt lat="43.81637" lon="7.45918">
        <ele>1048.6911879965</ele>
        <time>2021-01-27T10:30:39Z</time>
      </trkpt>
      <trkpt lat="43.81637" lon="7.45918">
        <ele>1048.6911608649</ele>
        <time>2021-01-27T10:30:40Z</time>
      </trkpt>
      <trkpt lat="43.81638" lon="7.45917">
        <ele>1049.6911093652</ele>
        <time>2021-01-27T10:30:42Z</time>
      </trkpt>
      <trkpt lat="43.81638" lon="7.45916">
        <ele>1049.6910983556</ele>
        <time>2021-01-27T10:30:43Z</time>
      </trkpt>
      <trkpt lat="43.81638" lon="7.45916">
        <ele>1050.6910943371</ele>
        <time>2021-01-27T10:30:44Z</time>
      </trkpt>
      <trkpt lat="43.81638" lon="7.45915">
        <ele>1049.6910818093</ele>
        <time>2021-01-27T10:30:45Z</time>
      </trkpt>
      <trkpt lat="43.81638" lon="7.45915">
        <ele>1049.6910742586</ele>
        <time>2021-01-27T10:30:50Z</time>
      </trkpt>
      <trkpt lat="43.81639" lon="7.45914">
        <ele>1049.6910422693</ele>
        <time>2021-01-27T10:30:51Z</time>
      </trkpt>
      <trkpt lat="43.81639" lon="7.45913">
        <ele>1048.6910142813</ele>
        <time>2021-01-27T10:30:52Z</time>
      </trkpt>
      <trkpt lat="43.8164" lon="7.45913">
        <ele>1048.6909588843</ele>
        <time>2021-01-27T10:30:53Z</time>
      </trkpt>
      <trkpt lat="43.81641" lon="7.45913">
        <ele>1048.6909237851</ele>
        <time>2021-01-27T10:30:54Z</time>
      </trkpt>
      <trkpt lat="43.81642" lon="7.45913">
        <ele>1048.6908910054</ele>
        <time>2021-01-27T10:30:55Z</time>
      </trkpt>
      <trkpt lat="43.81643" lon="7.45913">
        <ele>1048.6908481755</ele>
        <time>2021-01-27T10:30:56Z</time>
      </trkpt>
      <trkpt lat="43.81644" lon="7.45913">
        <ele>1048.6908108112</ele>
        <time>2021-01-27T10:30:57Z</time>
      </trkpt>
      <trkpt lat="43.81645" lon="7.45913">
        <ele>1047.6907678808</ele>
        <time>2021-01-27T10:30:58Z</time>
      </trkpt>
      <trkpt lat="43.81647" lon="7.45914">
        <ele>1048.6906884577</ele>
        <time>2021-01-27T10:31:00Z</time>
      </trkpt>
      <trkpt lat="43.81647" lon="7.45914">
        <ele>1047.6906466476</ele>
        <time>2021-01-27T10:31:01Z</time>
      </trkpt>
      <trkpt lat="43.81648" lon="7.45914">
        <ele>1047.6906264476</ele>
        <time>2021-01-27T10:31:03Z</time>
      </trkpt>
      <trkpt lat="43.81649" lon="7.45914">
        <ele>1047.6905889056</ele>
        <time>2021-01-27T10:31:04Z</time>
      </trkpt>
      <trkpt lat="43.81649" lon="7.45914">
        <ele>1047.6905586689</ele>
        <time>2021-01-27T10:31:05Z</time>
      </trkpt>
      <trkpt lat="43.81648" lon="7.45915">
        <ele>1047.6906093179</ele>
        <time>2021-01-27T10:31:07Z</time>
      </trkpt>
      <trkpt lat="43.81648" lon="7.45914">
        <ele>1046.690636333</ele>
        <time>2021-01-27T10:31:08Z</time>
      </trkpt>
      <trkpt lat="43.81647" lon="7.45914">
        <ele>1046.6906439292</ele>
        <time>2021-01-27T10:31:09Z</time>
      </trkpt>
      <trkpt lat="43.81647" lon="7.45912">
        <ele>1046.6906401587</ele>
        <time>2021-01-27T10:31:11Z</time>
      </trkpt>
      <trkpt lat="43.81647" lon="7.45911">
        <ele>1046.6906148222</ele>
        <time>2021-01-27T10:31:12Z</time>
      </trkpt>
      <trkpt lat="43.81647" lon="7.4591">
        <ele>1046.6905970085</ele>
        <time>2021-01-27T10:31:13Z</time>
      </trkpt>
      <trkpt lat="43.81648" lon="7.45907">
        <ele>1046.6905637474</ele>
        <time>2021-01-27T10:31:15Z</time>
      </trkpt>
      <trkpt lat="43.81647" lon="7.45906">
        <ele>1045.6905843389</ele>
        <time>2021-01-27T10:31:17Z</time>
      </trkpt>
      <trkpt lat="43.81646" lon="7.45905">
        <ele>1045.6906009006</ele>
        <time>2021-01-27T10:31:18Z</time>
      </trkpt>
      <trkpt lat="43.81646" lon="7.45904">
        <ele>1045.6905939364</ele>
        <time>2021-01-27T10:31:19Z</time>
      </trkpt>
      <trkpt lat="43.81645" lon="7.45903">
        <ele>1044.6906264685</ele>
        <time>2021-01-27T10:31:21Z</time>
      </trkpt>
      <trkpt lat="43.81645" lon="7.45902">
        <ele>1044.6906131559</ele>
        <time>2021-01-27T10:31:22Z</time>
      </trkpt>
      <trkpt lat="43.81646" lon="7.459">
        <ele>1044.6905886919</ele>
        <time>2021-01-27T10:31:23Z</time>
      </trkpt>
      <trkpt lat="43.81648" lon="7.45898">
        <ele>1044.6904556296</ele>
        <time>2021-01-27T10:31:25Z</time>
      </trkpt>
      <trkpt lat="43.81649" lon="7.45896">
        <ele>1044.6904070177</ele>
        <time>2021-01-27T10:31:27Z</time>
      </trkpt>
      <trkpt lat="43.81649" lon="7.45896">
        <ele>1044.6903787233</ele>
        <time>2021-01-27T10:31:28Z</time>
      </trkpt>
      <trkpt lat="43.81649" lon="7.45895">
        <ele>1043.6903750726</ele>
        <time>2021-01-27T10:31:29Z</time>
      </trkpt>
      <trkpt lat="43.81649" lon="7.45894">
        <ele>1043.690385028</ele>
        <time>2021-01-27T10:31:30Z</time>
      </trkpt>
      <trkpt lat="43.81648" lon="7.45894">
        <ele>1042.6904207295</ele>
        <time>2021-01-27T10:31:31Z</time>
      </trkpt>
      <trkpt lat="43.81647" lon="7.45893">
        <ele>1042.6904605362</ele>
        <time>2021-01-27T10:31:32Z</time>
      </trkpt>
      <trkpt lat="43.81646" lon="7.45892">
        <ele>1043.6904945162</ele>
        <time>2021-01-27T10:31:33Z</time>
      </trkpt>
      <trkpt lat="43.81645" lon="7.45892">
        <ele>1043.690514839</ele>
        <time>2021-01-27T10:31:34Z</time>
      </trkpt>
      <trkpt lat="43.81645" lon="7.45891">
        <ele>1043.6905381087</ele>
        <time>2021-01-27T10:31:35Z</time>
      </trkpt>
      <trkpt lat="43.81643" lon="7.45891">
        <ele>1043.6905924986</ele>
        <time>2021-01-27T10:31:36Z</time>
      </trkpt>
      <trkpt lat="43.81642" lon="7.45891">
        <ele>1043.6906436999</ele>
        <time>2021-01-27T10:31:37Z</time>
      </trkpt>
      <trkpt lat="43.81641" lon="7.4589">
        <ele>1043.690704311</ele>
        <time>2021-01-27T10:31:38Z</time>
      </trkpt>
      <trkpt lat="43.8164" lon="7.4589">
        <ele>1043.6907471785</ele>
        <time>2021-01-27T10:31:39Z</time>
      </trkpt>
      <trkpt lat="43.81639" lon="7.45889">
        <ele>1042.6907956748</ele>
        <time>2021-01-27T10:31:40Z</time>
      </trkpt>
      <trkpt lat="43.81638" lon="7.45888">
        <ele>1043.6908222175</ele>
        <time>2021-01-27T10:31:41Z</time>
      </trkpt>
      <trkpt lat="43.81637" lon="7.45888">
        <ele>1043.6908618785</ele>
        <time>2021-01-27T10:31:42Z</time>
      </trkpt>
      <trkpt lat="43.81636" lon="7.45887">
        <ele>1043.6909043322</ele>
        <time>2021-01-27T10:31:43Z</time>
      </trkpt>
      <trkpt lat="43.81635" lon="7.45885">
        <ele>1044.6909092182</ele>
        <time>2021-01-27T10:31:44Z</time>
      </trkpt>
      <trkpt lat="43.81635" lon="7.45884">
        <ele>1044.6909090632</ele>
        <time>2021-01-27T10:31:45Z</time>
      </trkpt>
      <trkpt lat="43.81634" lon="7.45882">
        <ele>1043.6909203052</ele>
        <time>2021-01-27T10:31:47Z</time>
      </trkpt>
      <trkpt lat="43.81634" lon="7.45881">
        <ele>1043.6909261001</ele>
        <time>2021-01-27T10:31:48Z</time>
      </trkpt>
      <trkpt lat="43.81634" lon="7.45879">
        <ele>1042.6909090474</ele>
        <time>2021-01-27T10:31:49Z</time>
      </trkpt>
      <trkpt lat="43.81634" lon="7.45878">
        <ele>1042.6908791847</ele>
        <time>2021-01-27T10:31:50Z</time>
      </trkpt>
      <trkpt lat="43.81636" lon="7.45876">
        <ele>1041.690785436</ele>
        <time>2021-01-27T10:31:52Z</time>
      </trkpt>
      <trkpt lat="43.81636" lon="7.45875">
        <ele>1040.6907464858</ele>
        <time>2021-01-27T10:31:53Z</time>
      </trkpt>
      <trkpt lat="43.81637" lon="7.45875">
        <ele>1041.6907185057</ele>
        <time>2021-01-27T10:31:54Z</time>
      </trkpt>
      <trkpt lat="43.81638" lon="7.45874">
        <ele>1040.6906728874</ele>
        <time>2021-01-27T10:31:56Z</time>
      </trkpt>
      <trkpt lat="43.81638" lon="7.45873">
        <ele>1040.6906445128</ele>
        <time>2021-01-27T10:31:57Z</time>
      </trkpt>
      <trkpt lat="43.81639" lon="7.45872">
        <ele>1039.690611112</ele>
        <time>2021-01-27T10:31:58Z</time>
      </trkpt>
      <trkpt lat="43.8164" lon="7.45871">
        <ele>1039.6905319383</ele>
        <time>2021-01-27T10:32:00Z</time>
      </trkpt>
      <trkpt lat="43.81641" lon="7.45871">
        <ele>1040.6904765606</ele>
        <time>2021-01-27T10:32:01Z</time>
      </trkpt>
      <trkpt lat="43.81642" lon="7.45871">
        <ele>1039.6904274181</ele>
        <time>2021-01-27T10:32:02Z</time>
      </trkpt>
      <trkpt lat="43.81643" lon="7.45871">
        <ele>1038.6903736004</ele>
        <time>2021-01-27T10:32:03Z</time>
      </trkpt>
      <trkpt lat="43.81646" lon="7.4587">
        <ele>1038.6902701786</ele>
        <time>2021-01-27T10:32:05Z</time>
      </trkpt>
      <trkpt lat="43.81647" lon="7.45871">
        <ele>1038.6901960661</ele>
        <time>2021-01-27T10:32:07Z</time>
      </trkpt>
      <trkpt lat="43.81648" lon="7.45871">
        <ele>1038.6901429374</ele>
        <time>2021-01-27T10:32:08Z</time>
      </trkpt>
      <trkpt lat="43.8165" lon="7.45871">
        <ele>1038.6900874948</ele>
        <time>2021-01-27T10:32:09Z</time>
      </trkpt>
      <trkpt lat="43.81651" lon="7.45871">
        <ele>1038.6900272717</ele>
        <time>2021-01-27T10:32:10Z</time>
      </trkpt>
      <trkpt lat="43.81652" lon="7.45871">
        <ele>1038.689962398</ele>
        <time>2021-01-27T10:32:11Z</time>
      </trkpt>
      <trkpt lat="43.81653" lon="7.45871">
        <ele>1038.6899276592</ele>
        <time>2021-01-27T10:32:12Z</time>
      </trkpt>
      <trkpt lat="43.81654" lon="7.45871">
        <ele>1038.6899006467</ele>
        <time>2021-01-27T10:32:13Z</time>
      </trkpt>
      <trkpt lat="43.81656" lon="7.4587">
        <ele>1038.6897868612</ele>
        <time>2021-01-27T10:32:15Z</time>
      </trkpt>
      <trkpt lat="43.81656" lon="7.4587">
        <ele>1038.6897612391</ele>
        <time>2021-01-27T10:32:16Z</time>
      </trkpt>
      <trkpt lat="43.81658" lon="7.4587">
        <ele>1038.6897037839</ele>
        <time>2021-01-27T10:32:17Z</time>
      </trkpt>
      <trkpt lat="43.81658" lon="7.45869">
        <ele>1038.6896570211</ele>
        <time>2021-01-27T10:32:18Z</time>
      </trkpt>
      <trkpt lat="43.81659" lon="7.45869">
        <ele>1038.6896089738</ele>
        <time>2021-01-27T10:32:19Z</time>
      </trkpt>
      <trkpt lat="43.81661" lon="7.45869">
        <ele>1038.6895522123</ele>
        <time>2021-01-27T10:32:20Z</time>
      </trkpt>
      <trkpt lat="43.81661" lon="7.45869">
        <ele>1038.6895087011</ele>
        <time>2021-01-27T10:32:21Z</time>
      </trkpt>
      <trkpt lat="43.81663" lon="7.45868">
        <ele>1038.6894507808</ele>
        <time>2021-01-27T10:32:22Z</time>
      </trkpt>
      <trkpt lat="43.81664" lon="7.45868">
        <ele>1038.6893970147</ele>
        <time>2021-01-27T10:32:23Z</time>
      </trkpt>
      <trkpt lat="43.81665" lon="7.45868">
        <ele>1038.6893279114</ele>
        <time>2021-01-27T10:32:24Z</time>
      </trkpt>
      <trkpt lat="43.81667" lon="7.45868">
        <ele>1038.6892555433</ele>
        <time>2021-01-27T10:32:25Z</time>
      </trkpt>
      <trkpt lat="43.81668" lon="7.45868">
        <ele>1038.6892056461</ele>
        <time>2021-01-27T10:32:26Z</time>
      </trkpt>
      <trkpt lat="43.81668" lon="7.45868">
        <ele>1038.6891951027</ele>
        <time>2021-01-27T10:32:28Z</time>
      </trkpt>
      <trkpt lat="43.8167" lon="7.45867">
        <ele>1038.6890834825</ele>
        <time>2021-01-27T10:32:30Z</time>
      </trkpt>
      <trkpt lat="43.81672" lon="7.45867">
        <ele>1037.6890095882</ele>
        <time>2021-01-27T10:32:32Z</time>
      </trkpt>
      <trkpt lat="43.81673" lon="7.45866">
        <ele>1037.6889626834</ele>
        <time>2021-01-27T10:32:33Z</time>
      </trkpt>
      <trkpt lat="43.81673" lon="7.45866">
        <ele>1036.6889296702</ele>
        <time>2021-01-27T10:32:34Z</time>
      </trkpt>
      <trkpt lat="43.81675" lon="7.45867">
        <ele>1036.6888707906</ele>
        <time>2021-01-27T10:32:36Z</time>
      </trkpt>
      <trkpt lat="43.81676" lon="7.45867">
        <ele>1035.6888110539</ele>
        <time>2021-01-27T10:32:37Z</time>
      </trkpt>
      <trkpt lat="43.81677" lon="7.45867">
        <ele>1035.6887659278</ele>
        <time>2021-01-27T10:32:38Z</time>
      </trkpt>
      <trkpt lat="43.81678" lon="7.45868">
        <ele>1034.6887199807</ele>
        <time>2021-01-27T10:32:39Z</time>
      </trkpt>
      <trkpt lat="43.8168" lon="7.45867">
        <ele>1034.6886485954</ele>
        <time>2021-01-27T10:32:41Z</time>
      </trkpt>
      <trkpt lat="43.81681" lon="7.45868">
        <ele>1033.6885895526</ele>
        <time>2021-01-27T10:32:42Z</time>
      </trkpt>
      <trkpt lat="43.81682" lon="7.45868">
        <ele>1033.6885261951</ele>
        <time>2021-01-27T10:32:43Z</time>
      </trkpt>
      <trkpt lat="43.81683" lon="7.45868">
        <ele>1033.6884785737</ele>
        <time>2021-01-27T10:32:44Z</time>
      </trkpt>
      <trkpt lat="43.81684" lon="7.45868">
        <ele>1032.6884328466</ele>
        <time>2021-01-27T10:32:45Z</time>
      </trkpt>
      <trkpt lat="43.81686" lon="7.45869">
        <ele>1032.6883616572</ele>
        <time>2021-01-27T10:32:47Z</time>
      </trkpt>
      <trkpt lat="43.81688" lon="7.45869">
        <ele>1033.6882875494</ele>
        <time>2021-01-27T10:32:48Z</time>
      </trkpt>
      <trkpt lat="43.81689" lon="7.45869">
        <ele>1033.6882251863</ele>
        <time>2021-01-27T10:32:49Z</time>
      </trkpt>
      <trkpt lat="43.81691" lon="7.45869">
        <ele>1033.6881381864</ele>
        <time>2021-01-27T10:32:51Z</time>
      </trkpt>
      <trkpt lat="43.81692" lon="7.45869">
        <ele>1033.6881024927</ele>
        <time>2021-01-27T10:32:52Z</time>
      </trkpt>
      <trkpt lat="43.81693" lon="7.4587">
        <ele>1033.688052962</ele>
        <time>2021-01-27T10:32:53Z</time>
      </trkpt>
      <trkpt lat="43.81694" lon="7.4587">
        <ele>1033.6880123716</ele>
        <time>2021-01-27T10:32:54Z</time>
      </trkpt>
      <trkpt lat="43.81695" lon="7.45871">
        <ele>1032.687958894</ele>
        <time>2021-01-27T10:32:55Z</time>
      </trkpt>
      <trkpt lat="43.81696" lon="7.45871">
        <ele>1032.6879121137</ele>
        <time>2021-01-27T10:32:56Z</time>
      </trkpt>
      <trkpt lat="43.81697" lon="7.45872">
        <ele>1032.6878729171</ele>
        <time>2021-01-27T10:32:57Z</time>
      </trkpt>
      <trkpt lat="43.817" lon="7.45872">
        <ele>1032.6877670298</ele>
        <time>2021-01-27T10:32:59Z</time>
      </trkpt>
      <trkpt lat="43.81701" lon="7.45873">
        <ele>1033.6877107091</ele>
        <time>2021-01-27T10:33:00Z</time>
      </trkpt>
      <trkpt lat="43.81702" lon="7.45873">
        <ele>1032.6876501649</ele>
        <time>2021-01-27T10:33:01Z</time>
      </trkpt>
      <trkpt lat="43.81703" lon="7.45873">
        <ele>1032.6876046436</ele>
        <time>2021-01-27T10:33:02Z</time>
      </trkpt>
      <trkpt lat="43.81705" lon="7.45873">
        <ele>1032.6875517949</ele>
        <time>2021-01-27T10:33:03Z</time>
      </trkpt>
      <trkpt lat="43.81706" lon="7.45873">
        <ele>1032.6874919273</ele>
        <time>2021-01-27T10:33:04Z</time>
      </trkpt>
      <trkpt lat="43.81707" lon="7.45873">
        <ele>1032.6874453174</ele>
        <time>2021-01-27T10:33:05Z</time>
      </trkpt>
      <trkpt lat="43.81708" lon="7.45874">
        <ele>1033.6874041591</ele>
        <time>2021-01-27T10:33:06Z</time>
      </trkpt>
      <trkpt lat="43.81709" lon="7.45874">
        <ele>1032.6873489927</ele>
        <time>2021-01-27T10:33:07Z</time>
      </trkpt>
      <trkpt lat="43.8171" lon="7.45874">
        <ele>1032.6873042921</ele>
        <time>2021-01-27T10:33:08Z</time>
      </trkpt>
      <trkpt lat="43.81711" lon="7.45875">
        <ele>1032.6872719082</ele>
        <time>2021-01-27T10:33:09Z</time>
      </trkpt>
      <trkpt lat="43.81712" lon="7.45875">
        <ele>1032.6872484295</ele>
        <time>2021-01-27T10:33:10Z</time>
      </trkpt>
      <trkpt lat="43.81712" lon="7.45877">
        <ele>1031.6872311042</ele>
        <time>2021-01-27T10:33:11Z</time>
      </trkpt>
      <trkpt lat="43.81713" lon="7.45878">
        <ele>1031.6872022731</ele>
        <time>2021-01-27T10:33:12Z</time>
      </trkpt>
      <trkpt lat="43.81714" lon="7.4588">
        <ele>1031.6871899869</ele>
        <time>2021-01-27T10:33:13Z</time>
      </trkpt>
      <trkpt lat="43.81714" lon="7.45882">
        <ele>1030.6871898459</ele>
        <time>2021-01-27T10:33:14Z</time>
      </trkpt>
      <trkpt lat="43.81714" lon="7.45885">
        <ele>1029.6872335257</ele>
        <time>2021-01-27T10:33:16Z</time>
      </trkpt>
      <trkpt lat="43.81715" lon="7.45887">
        <ele>1029.6872133295</ele>
        <time>2021-01-27T10:33:17Z</time>
      </trkpt>
      <trkpt lat="43.81715" lon="7.45888">
        <ele>1029.687198621</ele>
        <time>2021-01-27T10:33:18Z</time>
      </trkpt>
      <trkpt lat="43.81717" lon="7.4589">
        <ele>1028.6871647986</ele>
        <time>2021-01-27T10:33:20Z</time>
      </trkpt>
      <trkpt lat="43.81717" lon="7.45891">
        <ele>1028.6871559989</ele>
        <time>2021-01-27T10:33:21Z</time>
      </trkpt>
      <trkpt lat="43.81717" lon="7.45892">
        <ele>1028.6871619295</ele>
        <time>2021-01-27T10:33:22Z</time>
      </trkpt>
      <trkpt lat="43.81718" lon="7.45892">
        <ele>1028.6871238541</ele>
        <time>2021-01-27T10:33:23Z</time>
      </trkpt>
      <trkpt lat="43.81718" lon="7.45893">
        <ele>1027.6871190954</ele>
        <time>2021-01-27T10:33:25Z</time>
      </trkpt>
      <trkpt lat="43.81719" lon="7.45893">
        <ele>1027.6870884976</ele>
        <time>2021-01-27T10:33:27Z</time>
      </trkpt>
      <trkpt lat="43.81719" lon="7.45892">
        <ele>1027.6870681504</ele>
        <time>2021-01-27T10:33:28Z</time>
      </trkpt>
      <trkpt lat="43.8172" lon="7.45892">
        <ele>1027.6870301337</ele>
        <time>2021-01-27T10:33:29Z</time>
      </trkpt>
      <trkpt lat="43.81721" lon="7.45891">
        <ele>1026.6869872046</ele>
        <time>2021-01-27T10:33:31Z</time>
      </trkpt>
      <trkpt lat="43.81721" lon="7.4589">
        <ele>1026.6869661782</ele>
        <time>2021-01-27T10:33:32Z</time>
      </trkpt>
      <trkpt lat="43.81721" lon="7.45889">
        <ele>1026.6869444002</ele>
        <time>2021-01-27T10:33:33Z</time>
      </trkpt>
      <trkpt lat="43.81721" lon="7.45887">
        <ele>1024.686948761</ele>
        <time>2021-01-27T10:33:35Z</time>
      </trkpt>
      <trkpt lat="43.8172" lon="7.45885">
        <ele>1024.6869732043</ele>
        <time>2021-01-27T10:33:37Z</time>
      </trkpt>
      <trkpt lat="43.8172" lon="7.45884">
        <ele>1024.6869631861</ele>
        <time>2021-01-27T10:33:38Z</time>
      </trkpt>
      <trkpt lat="43.81719" lon="7.45882">
        <ele>1025.6869569832</ele>
        <time>2021-01-27T10:33:39Z</time>
      </trkpt>
      <trkpt lat="43.81719" lon="7.45881">
        <ele>1024.6869472512</ele>
        <time>2021-01-27T10:33:40Z</time>
      </trkpt>
      <trkpt lat="43.81719" lon="7.4588">
        <ele>1024.6869438275</ele>
        <time>2021-01-27T10:33:41Z</time>
      </trkpt>
      <trkpt lat="43.81719" lon="7.45879">
        <ele>1024.6869176635</ele>
        <time>2021-01-27T10:33:42Z</time>
      </trkpt>
      <trkpt lat="43.81719" lon="7.45878">
        <ele>1024.6869219617</ele>
        <time>2021-01-27T10:33:43Z</time>
      </trkpt>
      <trkpt lat="43.81719" lon="7.45877">
        <ele>1023.6869130711</ele>
        <time>2021-01-27T10:33:44Z</time>
      </trkpt>
      <trkpt lat="43.81719" lon="7.45876">
        <ele>1023.6869189759</ele>
        <time>2021-01-27T10:33:45Z</time>
      </trkpt>
      <trkpt lat="43.81719" lon="7.45875">
        <ele>1023.6869009825</ele>
        <time>2021-01-27T10:33:47Z</time>
      </trkpt>
      <trkpt lat="43.81719" lon="7.45874">
        <ele>1023.6868834391</ele>
        <time>2021-01-27T10:33:48Z</time>
      </trkpt>
      <trkpt lat="43.81719" lon="7.45874">
        <ele>1023.6868841167</ele>
        <time>2021-01-27T10:33:53Z</time>
      </trkpt>
      <trkpt lat="43.81719" lon="7.45873">
        <ele>1023.6868840751</ele>
        <time>2021-01-27T10:33:54Z</time>
      </trkpt>
      <trkpt lat="43.81717" lon="7.45872">
        <ele>1022.6869402868</ele>
        <time>2021-01-27T10:33:56Z</time>
      </trkpt>
      <trkpt lat="43.81717" lon="7.45871">
        <ele>1022.6869434346</ele>
        <time>2021-01-27T10:33:57Z</time>
      </trkpt>
      <trkpt lat="43.81717" lon="7.4587">
        <ele>1022.6869342158</ele>
        <time>2021-01-27T10:33:58Z</time>
      </trkpt>
      <trkpt lat="43.81717" lon="7.4587">
        <ele>1022.6869306001</ele>
        <time>2021-01-27T10:33:59Z</time>
      </trkpt>
      <trkpt lat="43.81716" lon="7.45869">
        <ele>1022.6869576247</ele>
        <time>2021-01-27T10:34:00Z</time>
      </trkpt>
      <trkpt lat="43.81716" lon="7.45868">
        <ele>1022.6869746011</ele>
        <time>2021-01-27T10:34:01Z</time>
      </trkpt>
      <trkpt lat="43.81715" lon="7.45867">
        <ele>1022.6870070772</ele>
        <time>2021-01-27T10:34:02Z</time>
      </trkpt>
      <trkpt lat="43.81714" lon="7.45867">
        <ele>1022.6870278086</ele>
        <time>2021-01-27T10:34:03Z</time>
      </trkpt>
      <trkpt lat="43.81714" lon="7.45865">
        <ele>1022.6870435977</ele>
        <time>2021-01-27T10:34:05Z</time>
      </trkpt>
      <trkpt lat="43.81713" lon="7.45864">
        <ele>1022.6870509514</ele>
        <time>2021-01-27T10:34:06Z</time>
      </trkpt>
      <trkpt lat="43.81712" lon="7.45864">
        <ele>1022.6870793305</ele>
        <time>2021-01-27T10:34:07Z</time>
      </trkpt>
      <trkpt lat="43.81712" lon="7.45863">
        <ele>1022.6871102014</ele>
        <time>2021-01-27T10:34:08Z</time>
      </trkpt>
      <trkpt lat="43.8171" lon="7.45862">
        <ele>1022.6871651153</ele>
        <time>2021-01-27T10:34:10Z</time>
      </trkpt>
      <trkpt lat="43.8171" lon="7.45862">
        <ele>1022.6871569699</ele>
        <time>2021-01-27T10:34:12Z</time>
      </trkpt>
      <trkpt lat="43.8171" lon="7.45861">
        <ele>1021.6871600493</ele>
        <time>2021-01-27T10:34:13Z</time>
      </trkpt>
      <trkpt lat="43.81709" lon="7.4586">
        <ele>1021.687188058</ele>
        <time>2021-01-27T10:34:14Z</time>
      </trkpt>
      <trkpt lat="43.81709" lon="7.45859">
        <ele>1021.6872121145</ele>
        <time>2021-01-27T10:34:15Z</time>
      </trkpt>
      <trkpt lat="43.81708" lon="7.45858">
        <ele>1021.6872192586</ele>
        <time>2021-01-27T10:34:16Z</time>
      </trkpt>
      <trkpt lat="43.81708" lon="7.45857">
        <ele>1020.6872330302</ele>
        <time>2021-01-27T10:34:17Z</time>
      </trkpt>
      <trkpt lat="43.81707" lon="7.45856">
        <ele>1020.6872365608</ele>
        <time>2021-01-27T10:34:18Z</time>
      </trkpt>
      <trkpt lat="43.81706" lon="7.45854">
        <ele>1020.6872631653</ele>
        <time>2021-01-27T10:34:20Z</time>
      </trkpt>
      <trkpt lat="43.81706" lon="7.45853">
        <ele>1020.6872759906</ele>
        <time>2021-01-27T10:34:22Z</time>
      </trkpt>
      <trkpt lat="43.81705" lon="7.45852">
        <ele>1020.6872840955</ele>
        <time>2021-01-27T10:34:23Z</time>
      </trkpt>
      <trkpt lat="43.81705" lon="7.45851">
        <ele>1020.6872756143</ele>
        <time>2021-01-27T10:34:24Z</time>
      </trkpt>
      <trkpt lat="43.81705" lon="7.4585">
        <ele>1019.6872759221</ele>
        <time>2021-01-27T10:34:25Z</time>
      </trkpt>
      <trkpt lat="43.81705" lon="7.45848">
        <ele>1020.6872486097</ele>
        <time>2021-01-27T10:34:26Z</time>
      </trkpt>
      <trkpt lat="43.81705" lon="7.45847">
        <ele>1019.6872617973</ele>
        <time>2021-01-27T10:34:27Z</time>
      </trkpt>
      <trkpt lat="43.81704" lon="7.45846">
        <ele>1019.6872621546</ele>
        <time>2021-01-27T10:34:28Z</time>
      </trkpt>
      <trkpt lat="43.81704" lon="7.45844">
        <ele>1020.6872719681</ele>
        <time>2021-01-27T10:34:29Z</time>
      </trkpt>
      <trkpt lat="43.81703" lon="7.45842">
        <ele>1020.6872894516</ele>
        <time>2021-01-27T10:34:31Z</time>
      </trkpt>
      <trkpt lat="43.81703" lon="7.45842">
        <ele>1020.68730448</ele>
        <time>2021-01-27T10:34:32Z</time>
      </trkpt>
      <trkpt lat="43.81702" lon="7.45841">
        <ele>1020.6873153611</ele>
        <time>2021-01-27T10:34:33Z</time>
      </trkpt>
      <trkpt lat="43.81701" lon="7.4584">
        <ele>1020.6873422724</ele>
        <time>2021-01-27T10:34:34Z</time>
      </trkpt>
      <trkpt lat="43.81701" lon="7.45839">
        <ele>1020.6873575472</ele>
        <time>2021-01-27T10:34:35Z</time>
      </trkpt>
      <trkpt lat="43.817" lon="7.45837">
        <ele>1020.6873598011</ele>
        <time>2021-01-27T10:34:36Z</time>
      </trkpt>
      <trkpt lat="43.817" lon="7.45836">
        <ele>1020.6873601808</ele>
        <time>2021-01-27T10:34:37Z</time>
      </trkpt>
      <trkpt lat="43.817" lon="7.45834">
        <ele>1020.6873583318</ele>
        <time>2021-01-27T10:34:38Z</time>
      </trkpt>
      <trkpt lat="43.81699" lon="7.45833">
        <ele>1019.6873776431</ele>
        <time>2021-01-27T10:34:39Z</time>
      </trkpt>
      <trkpt lat="43.81698" lon="7.4583">
        <ele>1019.6873807828</ele>
        <time>2021-01-27T10:34:41Z</time>
      </trkpt>
      <trkpt lat="43.81697" lon="7.45829">
        <ele>1019.68740939</ele>
        <time>2021-01-27T10:34:42Z</time>
      </trkpt>
      <trkpt lat="43.81697" lon="7.45828">
        <ele>1019.6874287549</ele>
        <time>2021-01-27T10:34:43Z</time>
      </trkpt>
      <trkpt lat="43.81695" lon="7.45827">
        <ele>1017.6874858429</ele>
        <time>2021-01-27T10:34:45Z</time>
      </trkpt>
      <trkpt lat="43.81693" lon="7.45827">
        <ele>1018.687608584</ele>
        <time>2021-01-27T10:34:47Z</time>
      </trkpt>
      <trkpt lat="43.81692" lon="7.45826">
        <ele>1017.6876299912</ele>
        <time>2021-01-27T10:34:48Z</time>
      </trkpt>
      <trkpt lat="43.81691" lon="7.45825">
        <ele>1017.6876632239</ele>
        <time>2021-01-27T10:34:49Z</time>
      </trkpt>
      <trkpt lat="43.8169" lon="7.45823">
        <ele>1016.6876830075</ele>
        <time>2021-01-27T10:34:50Z</time>
      </trkpt>
      <trkpt lat="43.8169" lon="7.45822">
        <ele>1016.6876968336</ele>
        <time>2021-01-27T10:34:51Z</time>
      </trkpt>
      <trkpt lat="43.81689" lon="7.45821">
        <ele>1016.687709791</ele>
        <time>2021-01-27T10:34:52Z</time>
      </trkpt>
      <trkpt lat="43.81689" lon="7.45819">
        <ele>1016.6877222859</ele>
        <time>2021-01-27T10:34:53Z</time>
      </trkpt>
      <trkpt lat="43.81688" lon="7.45818">
        <ele>1016.687721664</ele>
        <time>2021-01-27T10:34:54Z</time>
      </trkpt>
      <trkpt lat="43.81687" lon="7.45816">
        <ele>1016.6877341231</ele>
        <time>2021-01-27T10:34:56Z</time>
      </trkpt>
      <trkpt lat="43.81687" lon="7.45815">
        <ele>1016.6877535224</ele>
        <time>2021-01-27T10:34:57Z</time>
      </trkpt>
      <trkpt lat="43.81686" lon="7.45814">
        <ele>1016.6877652672</ele>
        <time>2021-01-27T10:34:58Z</time>
      </trkpt>
      <trkpt lat="43.81686" lon="7.45813">
        <ele>1016.6877818774</ele>
        <time>2021-01-27T10:35:00Z</time>
      </trkpt>
      <trkpt lat="43.81685" lon="7.45811">
        <ele>1015.687778255</ele>
        <time>2021-01-27T10:35:14Z</time>
      </trkpt>
      <trkpt lat="43.81684" lon="7.45811">
        <ele>1014.6878347036</ele>
        <time>2021-01-27T10:35:15Z</time>
      </trkpt>
      <trkpt lat="43.81684" lon="7.4581">
        <ele>1014.6878411296</ele>
        <time>2021-01-27T10:35:16Z</time>
      </trkpt>
      <trkpt lat="43.81683" lon="7.45809">
        <ele>1014.6878629069</ele>
        <time>2021-01-27T10:35:17Z</time>
      </trkpt>
      <trkpt lat="43.81683" lon="7.45808">
        <ele>1014.6878665217</ele>
        <time>2021-01-27T10:35:18Z</time>
      </trkpt>
      <trkpt lat="43.81682" lon="7.45806">
        <ele>1013.6878955024</ele>
        <time>2021-01-27T10:35:20Z</time>
      </trkpt>
      <trkpt lat="43.8168" lon="7.45804">
        <ele>1012.6879512048</ele>
        <time>2021-01-27T10:35:22Z</time>
      </trkpt>
      <trkpt lat="43.8168" lon="7.45804">
        <ele>1012.6879542383</ele>
        <time>2021-01-27T10:35:23Z</time>
      </trkpt>
      <trkpt lat="43.8168" lon="7.45803">
        <ele>1012.6879612843</ele>
        <time>2021-01-27T10:35:24Z</time>
      </trkpt>
      <trkpt lat="43.81679" lon="7.45801">
        <ele>1012.6879654521</ele>
        <time>2021-01-27T10:35:25Z</time>
      </trkpt>
      <trkpt lat="43.81679" lon="7.458">
        <ele>1012.6879772366</ele>
        <time>2021-01-27T10:35:26Z</time>
      </trkpt>
      <trkpt lat="43.81679" lon="7.45799">
        <ele>1012.6879609062</ele>
        <time>2021-01-27T10:35:27Z</time>
      </trkpt>
      <trkpt lat="43.81678" lon="7.45798">
        <ele>1011.6879695017</ele>
        <time>2021-01-27T10:35:28Z</time>
      </trkpt>
      <trkpt lat="43.81678" lon="7.45797">
        <ele>1012.6879913391</ele>
        <time>2021-01-27T10:35:29Z</time>
      </trkpt>
      <trkpt lat="43.81676" lon="7.45796">
        <ele>1011.688037532</ele>
        <time>2021-01-27T10:35:31Z</time>
      </trkpt>
      <trkpt lat="43.81675" lon="7.45794">
        <ele>1011.6880717244</ele>
        <time>2021-01-27T10:35:32Z</time>
      </trkpt>
      <trkpt lat="43.81674" lon="7.45794">
        <ele>1011.6881232487</ele>
        <time>2021-01-27T10:35:33Z</time>
      </trkpt>
      <trkpt lat="43.81673" lon="7.45793">
        <ele>1011.6881623554</ele>
        <time>2021-01-27T10:35:35Z</time>
      </trkpt>
      <trkpt lat="43.81671" lon="7.45791">
        <ele>1012.6882121774</ele>
        <time>2021-01-27T10:35:37Z</time>
      </trkpt>
      <trkpt lat="43.81671" lon="7.4579">
        <ele>1012.6882249333</ele>
        <time>2021-01-27T10:35:38Z</time>
      </trkpt>
      <trkpt lat="43.8167" lon="7.45789">
        <ele>1012.6882407212</ele>
        <time>2021-01-27T10:35:39Z</time>
      </trkpt>
      <trkpt lat="43.8167" lon="7.45788">
        <ele>1011.6882556135</ele>
        <time>2021-01-27T10:35:40Z</time>
      </trkpt>
      <trkpt lat="43.81669" lon="7.45785">
        <ele>1011.6882665923</ele>
        <time>2021-01-27T10:35:42Z</time>
      </trkpt>
      <trkpt lat="43.81668" lon="7.45784">
        <ele>1012.6883040018</ele>
        <time>2021-01-27T10:35:43Z</time>
      </trkpt>
      <trkpt lat="43.81667" lon="7.45783">
        <ele>1012.6883351203</ele>
        <time>2021-01-27T10:35:44Z</time>
      </trkpt>
      <trkpt lat="43.81666" lon="7.45782">
        <ele>1013.6883746609</ele>
        <time>2021-01-27T10:35:45Z</time>
      </trkpt>
      <trkpt lat="43.81664" lon="7.4578">
        <ele>1012.6884440502</ele>
        <time>2021-01-27T10:35:47Z</time>
      </trkpt>
      <trkpt lat="43.81663" lon="7.45778">
        <ele>1012.688478281</ele>
        <time>2021-01-27T10:35:48Z</time>
      </trkpt>
      <trkpt lat="43.81662" lon="7.45777">
        <ele>1012.6884856256</ele>
        <time>2021-01-27T10:35:49Z</time>
      </trkpt>
      <trkpt lat="43.81661" lon="7.45776">
        <ele>1012.6885228832</ele>
        <time>2021-01-27T10:35:50Z</time>
      </trkpt>
      <trkpt lat="43.8166" lon="7.45775">
        <ele>1012.6885615636</ele>
        <time>2021-01-27T10:35:51Z</time>
      </trkpt>
      <trkpt lat="43.8166" lon="7.45775">
        <ele>1012.6885976258</ele>
        <time>2021-01-27T10:35:52Z</time>
      </trkpt>
      <trkpt lat="43.81659" lon="7.45774">
        <ele>1012.6886305489</ele>
        <time>2021-01-27T10:35:53Z</time>
      </trkpt>
      <trkpt lat="43.81658" lon="7.45774">
        <ele>1012.6886690005</ele>
        <time>2021-01-27T10:35:54Z</time>
      </trkpt>
      <trkpt lat="43.81657" lon="7.45773">
        <ele>1012.6887198877</ele>
        <time>2021-01-27T10:35:55Z</time>
      </trkpt>
      <trkpt lat="43.81656" lon="7.45772">
        <ele>1012.6887488715</ele>
        <time>2021-01-27T10:35:56Z</time>
      </trkpt>
      <trkpt lat="43.81655" lon="7.45771">
        <ele>1012.6887503553</ele>
        <time>2021-01-27T10:35:57Z</time>
      </trkpt>
      <trkpt lat="43.81655" lon="7.4577">
        <ele>1012.6887655349</ele>
        <time>2021-01-27T10:35:58Z</time>
      </trkpt>
      <trkpt lat="43.81654" lon="7.45768">
        <ele>1012.6888020978</ele>
        <time>2021-01-27T10:35:59Z</time>
      </trkpt>
      <trkpt lat="43.81653" lon="7.45767">
        <ele>1012.6888141928</ele>
        <time>2021-01-27T10:36:00Z</time>
      </trkpt>
      <trkpt lat="43.81652" lon="7.45766">
        <ele>1012.6888435334</ele>
        <time>2021-01-27T10:36:01Z</time>
      </trkpt>
      <trkpt lat="43.81652" lon="7.45766">
        <ele>1011.6888534873</ele>
        <time>2021-01-27T10:36:02Z</time>
      </trkpt>
      <trkpt lat="43.81651" lon="7.45765">
        <ele>1012.6888931874</ele>
        <time>2021-01-27T10:36:03Z</time>
      </trkpt>
      <trkpt lat="43.8165" lon="7.45764">
        <ele>1012.6889096072</ele>
        <time>2021-01-27T10:36:04Z</time>
      </trkpt>
      <trkpt lat="43.81649" lon="7.45763">
        <ele>1012.6889467942</ele>
        <time>2021-01-27T10:36:05Z</time>
      </trkpt>
      <trkpt lat="43.81648" lon="7.45762">
        <ele>1012.6889806662</ele>
        <time>2021-01-27T10:36:07Z</time>
      </trkpt>
      <trkpt lat="43.81648" lon="7.4576">
        <ele>1012.6889910879</ele>
        <time>2021-01-27T10:36:08Z</time>
      </trkpt>
      <trkpt lat="43.81647" lon="7.4576">
        <ele>1012.6890112269</ele>
        <time>2021-01-27T10:36:09Z</time>
      </trkpt>
      <trkpt lat="43.81647" lon="7.45759">
        <ele>1011.6890333456</ele>
        <time>2021-01-27T10:36:10Z</time>
      </trkpt>
      <trkpt lat="43.81646" lon="7.45758">
        <ele>1010.6890479978</ele>
        <time>2021-01-27T10:36:11Z</time>
      </trkpt>
      <trkpt lat="43.81646" lon="7.45756">
        <ele>1011.6890481232</ele>
        <time>2021-01-27T10:36:12Z</time>
      </trkpt>
      <trkpt lat="43.81645" lon="7.45755">
        <ele>1010.689065365</ele>
        <time>2021-01-27T10:36:13Z</time>
      </trkpt>
      <trkpt lat="43.81644" lon="7.45753">
        <ele>1010.6890768887</ele>
        <time>2021-01-27T10:36:14Z</time>
      </trkpt>
      <trkpt lat="43.81644" lon="7.4575">
        <ele>1008.689070646</ele>
        <time>2021-01-27T10:36:16Z</time>
      </trkpt>
      <trkpt lat="43.81643" lon="7.45748">
        <ele>1009.6890768308</ele>
        <time>2021-01-27T10:36:17Z</time>
      </trkpt>
      <trkpt lat="43.81642" lon="7.45746">
        <ele>1010.6890942182</ele>
        <time>2021-01-27T10:36:18Z</time>
      </trkpt>
      <trkpt lat="43.81641" lon="7.45743">
        <ele>1009.6891154321</ele>
        <time>2021-01-27T10:36:20Z</time>
      </trkpt>
      <trkpt lat="43.81641" lon="7.45742">
        <ele>1009.6891350758</ele>
        <time>2021-01-27T10:36:22Z</time>
      </trkpt>
      <trkpt lat="43.8164" lon="7.4574">
        <ele>1009.6891307484</ele>
        <time>2021-01-27T10:36:23Z</time>
      </trkpt>
      <trkpt lat="43.8164" lon="7.45738">
        <ele>1008.6891297281</ele>
        <time>2021-01-27T10:36:24Z</time>
      </trkpt>
      <trkpt lat="43.81639" lon="7.45736">
        <ele>1008.6891671533</ele>
        <time>2021-01-27T10:36:25Z</time>
      </trkpt>
      <trkpt lat="43.81637" lon="7.45734">
        <ele>1007.6892038862</ele>
        <time>2021-01-27T10:36:26Z</time>
      </trkpt>
      <trkpt lat="43.81637" lon="7.45733">
        <ele>1007.6892085591</ele>
        <time>2021-01-27T10:36:27Z</time>
      </trkpt>
      <trkpt lat="43.81636" lon="7.45732">
        <ele>1007.689238773</ele>
        <time>2021-01-27T10:36:28Z</time>
      </trkpt>
      <trkpt lat="43.81636" lon="7.45731">
        <ele>1007.6892523097</ele>
        <time>2021-01-27T10:36:29Z</time>
      </trkpt>
      <trkpt lat="43.81634" lon="7.45728">
        <ele>1007.6892924073</ele>
        <time>2021-01-27T10:36:31Z</time>
      </trkpt>
      <trkpt lat="43.81634" lon="7.45726">
        <ele>1007.6892955368</ele>
        <time>2021-01-27T10:36:32Z</time>
      </trkpt>
      <trkpt lat="43.81633" lon="7.45725">
        <ele>1007.6892949891</ele>
        <time>2021-01-27T10:36:33Z</time>
      </trkpt>
      <trkpt lat="43.81633" lon="7.45724">
        <ele>1008.6892881175</ele>
        <time>2021-01-27T10:36:34Z</time>
      </trkpt>
      <trkpt lat="43.81632" lon="7.45722">
        <ele>1007.6893440217</ele>
        <time>2021-01-27T10:36:36Z</time>
      </trkpt>
      <trkpt lat="43.8163" lon="7.45721">
        <ele>1007.6893876444</ele>
        <time>2021-01-27T10:36:37Z</time>
      </trkpt>
      <trkpt lat="43.81629" lon="7.4572">
        <ele>1007.6894270367</ele>
        <time>2021-01-27T10:36:38Z</time>
      </trkpt>
      <trkpt lat="43.81629" lon="7.45719">
        <ele>1007.6894474198</ele>
        <time>2021-01-27T10:36:39Z</time>
      </trkpt>
      <trkpt lat="43.81628" lon="7.45718">
        <ele>1007.6894505016</ele>
        <time>2021-01-27T10:36:40Z</time>
      </trkpt>
      <trkpt lat="43.81628" lon="7.45716">
        <ele>1007.6894503733</ele>
        <time>2021-01-27T10:36:41Z</time>
      </trkpt>
      <trkpt lat="43.81627" lon="7.45714">
        <ele>1007.6894582177</ele>
        <time>2021-01-27T10:36:42Z</time>
      </trkpt>
      <trkpt lat="43.81627" lon="7.45713">
        <ele>1007.689483985</ele>
        <time>2021-01-27T10:36:43Z</time>
      </trkpt>
      <trkpt lat="43.81626" lon="7.45711">
        <ele>1007.6894876983</ele>
        <time>2021-01-27T10:36:44Z</time>
      </trkpt>
      <trkpt lat="43.81625" lon="7.4571">
        <ele>1006.6895293992</ele>
        <time>2021-01-27T10:36:46Z</time>
      </trkpt>
      <trkpt lat="43.81624" lon="7.45709">
        <ele>1006.6895463656</ele>
        <time>2021-01-27T10:36:47Z</time>
      </trkpt>
      <trkpt lat="43.81624" lon="7.45709">
        <ele>1006.6895695247</ele>
        <time>2021-01-27T10:36:48Z</time>
      </trkpt>
      <trkpt lat="43.81623" lon="7.45707">
        <ele>1005.6895862576</ele>
        <time>2021-01-27T10:36:49Z</time>
      </trkpt>
      <trkpt lat="43.81622" lon="7.45706">
        <ele>1005.6896149079</ele>
        <time>2021-01-27T10:36:50Z</time>
      </trkpt>
      <trkpt lat="43.81621" lon="7.45704">
        <ele>1004.689630383</ele>
        <time>2021-01-27T10:36:51Z</time>
      </trkpt>
      <trkpt lat="43.81621" lon="7.45703">
        <ele>1004.689636068</ele>
        <time>2021-01-27T10:36:52Z</time>
      </trkpt>
      <trkpt lat="43.8162" lon="7.45701">
        <ele>1004.6896608117</ele>
        <time>2021-01-27T10:36:53Z</time>
      </trkpt>
      <trkpt lat="43.81619" lon="7.45699">
        <ele>1003.6896843264</ele>
        <time>2021-01-27T10:36:55Z</time>
      </trkpt>
      <trkpt lat="43.81618" lon="7.45699">
        <ele>1003.6897152592</ele>
        <time>2021-01-27T10:36:56Z</time>
      </trkpt>
      <trkpt lat="43.81618" lon="7.45697">
        <ele>1003.6897221898</ele>
        <time>2021-01-27T10:36:57Z</time>
      </trkpt>
      <trkpt lat="43.81617" lon="7.45696">
        <ele>1003.6897464586</ele>
        <time>2021-01-27T10:36:58Z</time>
      </trkpt>
      <trkpt lat="43.81617" lon="7.45694">
        <ele>1003.6897356706</ele>
        <time>2021-01-27T10:36:59Z</time>
      </trkpt>
      <trkpt lat="43.81617" lon="7.45692">
        <ele>1002.6896916268</ele>
        <time>2021-01-27T10:37:00Z</time>
      </trkpt>
      <trkpt lat="43.81619" lon="7.4569">
        <ele>1001.6895988003</ele>
        <time>2021-01-27T10:37:01Z</time>
      </trkpt>
      <trkpt lat="43.81621" lon="7.4569">
        <ele>1001.689519004</ele>
        <time>2021-01-27T10:37:02Z</time>
      </trkpt>
      <trkpt lat="43.81621" lon="7.4569">
        <ele>1001.6894815983</ele>
        <time>2021-01-27T10:37:03Z</time>
      </trkpt>
      <trkpt lat="43.81622" lon="7.4569">
        <ele>1001.6894587632</ele>
        <time>2021-01-27T10:37:04Z</time>
      </trkpt>
      <trkpt lat="43.81623" lon="7.45691">
        <ele>1001.6894305351</ele>
        <time>2021-01-27T10:37:05Z</time>
      </trkpt>
      <trkpt lat="43.81623" lon="7.45692">
        <ele>1000.6894212591</ele>
        <time>2021-01-27T10:37:07Z</time>
      </trkpt>
      <trkpt lat="43.81624" lon="7.45692">
        <ele>1000.6893947496</ele>
        <time>2021-01-27T10:37:08Z</time>
      </trkpt>
      <trkpt lat="43.81625" lon="7.45692">
        <ele>1001.6893340533</ele>
        <time>2021-01-27T10:37:09Z</time>
      </trkpt>
      <trkpt lat="43.81626" lon="7.45692">
        <ele>1001.6892862995</ele>
        <time>2021-01-27T10:37:10Z</time>
      </trkpt>
      <trkpt lat="43.81628" lon="7.45692">
        <ele>1000.6892129606</ele>
        <time>2021-01-27T10:37:12Z</time>
      </trkpt>
      <trkpt lat="43.81628" lon="7.45693">
        <ele>1000.6891845063</ele>
        <time>2021-01-27T10:37:13Z</time>
      </trkpt>
      <trkpt lat="43.8163" lon="7.45693">
        <ele>1000.6891365183</ele>
        <time>2021-01-27T10:37:14Z</time>
      </trkpt>
      <trkpt lat="43.81631" lon="7.45693">
        <ele>1000.6890705595</ele>
        <time>2021-01-27T10:37:16Z</time>
      </trkpt>
      <trkpt lat="43.81632" lon="7.45694">
        <ele>1000.6890397987</ele>
        <time>2021-01-27T10:37:17Z</time>
      </trkpt>
      <trkpt lat="43.81633" lon="7.45695">
        <ele>1000.6890046608</ele>
        <time>2021-01-27T10:37:18Z</time>
      </trkpt>
      <trkpt lat="43.81635" lon="7.45696">
        <ele>999.68891912439</ele>
        <time>2021-01-27T10:37:20Z</time>
      </trkpt>
      <trkpt lat="43.81636" lon="7.45696">
        <ele>999.68884217043</ele>
        <time>2021-01-27T10:37:21Z</time>
      </trkpt>
      <trkpt lat="43.81638" lon="7.45696">
        <ele>999.68877400328</ele>
        <time>2021-01-27T10:37:22Z</time>
      </trkpt>
      <trkpt lat="43.81639" lon="7.45696">
        <ele>999.68873578961</ele>
        <time>2021-01-27T10:37:23Z</time>
      </trkpt>
      <trkpt lat="43.8164" lon="7.45697">
        <ele>999.68870158129</ele>
        <time>2021-01-27T10:37:24Z</time>
      </trkpt>
      <trkpt lat="43.81641" lon="7.45697">
        <ele>999.68864592323</ele>
        <time>2021-01-27T10:37:25Z</time>
      </trkpt>
      <trkpt lat="43.81642" lon="7.45698">
        <ele>999.68861332682</ele>
        <time>2021-01-27T10:37:26Z</time>
      </trkpt>
      <trkpt lat="43.81642" lon="7.45699">
        <ele>1000.6885944255</ele>
        <time>2021-01-27T10:37:27Z</time>
      </trkpt>
      <trkpt lat="43.81643" lon="7.45699">
        <ele>1000.6885666134</ele>
        <time>2021-01-27T10:37:28Z</time>
      </trkpt>
      <trkpt lat="43.81644" lon="7.457">
        <ele>999.68852102713</ele>
        <time>2021-01-27T10:37:30Z</time>
      </trkpt>
      <trkpt lat="43.81647" lon="7.45701">
        <ele>998.68840157747</ele>
        <time>2021-01-27T10:37:32Z</time>
      </trkpt>
      <trkpt lat="43.81648" lon="7.45702">
        <ele>998.68835926873</ele>
        <time>2021-01-27T10:37:33Z</time>
      </trkpt>
      <trkpt lat="43.81649" lon="7.45703">
        <ele>998.68832434053</ele>
        <time>2021-01-27T10:37:34Z</time>
      </trkpt>
      <trkpt lat="43.81651" lon="7.45703">
        <ele>997.68826075353</ele>
        <time>2021-01-27T10:37:35Z</time>
      </trkpt>
      <trkpt lat="43.81652" lon="7.45704">
        <ele>997.68818099127</ele>
        <time>2021-01-27T10:37:36Z</time>
      </trkpt>
      <trkpt lat="43.81654" lon="7.45705">
        <ele>997.68812058665</ele>
        <time>2021-01-27T10:37:37Z</time>
      </trkpt>
      <trkpt lat="43.81655" lon="7.45705">
        <ele>997.68807272197</ele>
        <time>2021-01-27T10:37:38Z</time>
      </trkpt>
      <trkpt lat="43.81657" lon="7.45706">
        <ele>996.68797400314</ele>
        <time>2021-01-27T10:37:40Z</time>
      </trkpt>
      <trkpt lat="43.81658" lon="7.45707">
        <ele>996.68793993182</ele>
        <time>2021-01-27T10:37:41Z</time>
      </trkpt>
      <trkpt lat="43.81659" lon="7.45708">
        <ele>996.68791705875</ele>
        <time>2021-01-27T10:37:42Z</time>
      </trkpt>
      <trkpt lat="43.8166" lon="7.45708">
        <ele>996.68787177808</ele>
        <time>2021-01-27T10:37:43Z</time>
      </trkpt>
      <trkpt lat="43.81661" lon="7.45709">
        <ele>995.6878316062</ele>
        <time>2021-01-27T10:37:44Z</time>
      </trkpt>
      <trkpt lat="43.81662" lon="7.4571">
        <ele>995.68779318489</ele>
        <time>2021-01-27T10:37:45Z</time>
      </trkpt>
      <trkpt lat="43.81664" lon="7.45709">
        <ele>995.68771478001</ele>
        <time>2021-01-27T10:37:47Z</time>
      </trkpt>
      <trkpt lat="43.81665" lon="7.45709">
        <ele>994.68765885521</ele>
        <time>2021-01-27T10:37:48Z</time>
      </trkpt>
      <trkpt lat="43.81666" lon="7.4571">
        <ele>994.68758642057</ele>
        <time>2021-01-27T10:37:49Z</time>
      </trkpt>
      <trkpt lat="43.81667" lon="7.4571">
        <ele>995.68755120539</ele>
        <time>2021-01-27T10:37:50Z</time>
      </trkpt>
      <trkpt lat="43.81669" lon="7.45711">
        <ele>994.68749359104</ele>
        <time>2021-01-27T10:37:52Z</time>
      </trkpt>
      <trkpt lat="43.8167" lon="7.45711">
        <ele>994.68744483286</ele>
        <time>2021-01-27T10:37:53Z</time>
      </trkpt>
      <trkpt lat="43.8167" lon="7.45711">
        <ele>994.68740410397</ele>
        <time>2021-01-27T10:37:54Z</time>
      </trkpt>
      <trkpt lat="43.81672" lon="7.4571">
        <ele>994.68732544947</ele>
        <time>2021-01-27T10:37:56Z</time>
      </trkpt>
      <trkpt lat="43.81673" lon="7.4571">
        <ele>994.68728154241</ele>
        <time>2021-01-27T10:37:57Z</time>
      </trkpt>
      <trkpt lat="43.81675" lon="7.4571">
        <ele>994.68719709064</ele>
        <time>2021-01-27T10:37:58Z</time>
      </trkpt>
      <trkpt lat="43.81676" lon="7.4571">
        <ele>993.68714229261</ele>
        <time>2021-01-27T10:37:59Z</time>
      </trkpt>
      <trkpt lat="43.81678" lon="7.4571">
        <ele>992.6870372374</ele>
        <time>2021-01-27T10:38:01Z</time>
      </trkpt>
      <trkpt lat="43.81679" lon="7.4571">
        <ele>992.68699210262</ele>
        <time>2021-01-27T10:38:02Z</time>
      </trkpt>
      <trkpt lat="43.81681" lon="7.4571">
        <ele>992.68692948126</ele>
        <time>2021-01-27T10:38:03Z</time>
      </trkpt>
      <trkpt lat="43.81683" lon="7.4571">
        <ele>992.68681162786</ele>
        <time>2021-01-27T10:38:05Z</time>
      </trkpt>
      <trkpt lat="43.81684" lon="7.45711">
        <ele>992.68677179369</ele>
        <time>2021-01-27T10:38:06Z</time>
      </trkpt>
      <trkpt lat="43.81685" lon="7.45711">
        <ele>992.68672185279</ele>
        <time>2021-01-27T10:38:07Z</time>
      </trkpt>
      <trkpt lat="43.81686" lon="7.45711">
        <ele>992.6866631639</ele>
        <time>2021-01-27T10:38:08Z</time>
      </trkpt>
      <trkpt lat="43.81689" lon="7.45712">
        <ele>991.68657238103</ele>
        <time>2021-01-27T10:38:10Z</time>
      </trkpt>
      <trkpt lat="43.81689" lon="7.45712">
        <ele>991.68653275596</ele>
        <time>2021-01-27T10:38:11Z</time>
      </trkpt>
      <trkpt lat="43.8169" lon="7.45712">
        <ele>991.6864938782</ele>
        <time>2021-01-27T10:38:12Z</time>
      </trkpt>
      <trkpt lat="43.81692" lon="7.45713">
        <ele>990.68643651297</ele>
        <time>2021-01-27T10:38:13Z</time>
      </trkpt>
      <trkpt lat="43.81692" lon="7.45713">
        <ele>990.68640162224</ele>
        <time>2021-01-27T10:38:14Z</time>
      </trkpt>
      <trkpt lat="43.81694" lon="7.45714">
        <ele>990.68633551999</ele>
        <time>2021-01-27T10:38:16Z</time>
      </trkpt>
      <trkpt lat="43.81695" lon="7.45714">
        <ele>989.68629813497</ele>
        <time>2021-01-27T10:38:17Z</time>
      </trkpt>
      <trkpt lat="43.81695" lon="7.45714">
        <ele>989.68627542795</ele>
        <time>2021-01-27T10:38:18Z</time>
      </trkpt>
      <trkpt lat="43.81696" lon="7.45714">
        <ele>988.6862277376</ele>
        <time>2021-01-27T10:38:19Z</time>
      </trkpt>
      <trkpt lat="43.81697" lon="7.45715">
        <ele>988.68619234123</ele>
        <time>2021-01-27T10:38:20Z</time>
      </trkpt>
      <trkpt lat="43.81698" lon="7.45715">
        <ele>987.68615277393</ele>
        <time>2021-01-27T10:38:21Z</time>
      </trkpt>
      <trkpt lat="43.81699" lon="7.45716">
        <ele>987.68610724202</ele>
        <time>2021-01-27T10:38:22Z</time>
      </trkpt>
      <trkpt lat="43.817" lon="7.45716">
        <ele>988.68606359499</ele>
        <time>2021-01-27T10:38:23Z</time>
      </trkpt>
      <trkpt lat="43.81701" lon="7.45717">
        <ele>988.68601996945</ele>
        <time>2021-01-27T10:38:24Z</time>
      </trkpt>
      <trkpt lat="43.81704" lon="7.45716">
        <ele>988.68591231601</ele>
        <time>2021-01-27T10:38:26Z</time>
      </trkpt>
      <trkpt lat="43.81705" lon="7.45717">
        <ele>988.68586177351</ele>
        <time>2021-01-27T10:38:27Z</time>
      </trkpt>
      <trkpt lat="43.81706" lon="7.45717">
        <ele>988.68581345525</ele>
        <time>2021-01-27T10:38:28Z</time>
      </trkpt>
      <trkpt lat="43.81707" lon="7.45718">
        <ele>988.68576559279</ele>
        <time>2021-01-27T10:38:29Z</time>
      </trkpt>
      <trkpt lat="43.81708" lon="7.45718">
        <ele>988.68573381629</ele>
        <time>2021-01-27T10:38:30Z</time>
      </trkpt>
      <trkpt lat="43.81709" lon="7.45718">
        <ele>987.68568769732</ele>
        <time>2021-01-27T10:38:31Z</time>
      </trkpt>
      <trkpt lat="43.81709" lon="7.45718">
        <ele>987.68566002666</ele>
        <time>2021-01-27T10:38:32Z</time>
      </trkpt>
      <trkpt lat="43.8171" lon="7.45719">
        <ele>987.68562001212</ele>
        <time>2021-01-27T10:38:33Z</time>
      </trkpt>
      <trkpt lat="43.81711" lon="7.4572">
        <ele>987.68558016382</ele>
        <time>2021-01-27T10:38:34Z</time>
      </trkpt>
      <trkpt lat="43.81714" lon="7.45722">
        <ele>986.68550737655</ele>
        <time>2021-01-27T10:38:36Z</time>
      </trkpt>
      <trkpt lat="43.81715" lon="7.45722">
        <ele>986.68546079041</ele>
        <time>2021-01-27T10:38:37Z</time>
      </trkpt>
      <trkpt lat="43.81716" lon="7.45722">
        <ele>986.68541636563</ele>
        <time>2021-01-27T10:38:38Z</time>
      </trkpt>
      <trkpt lat="43.81717" lon="7.45724">
        <ele>986.6853629413</ele>
        <time>2021-01-27T10:38:40Z</time>
      </trkpt>
      <trkpt lat="43.81719" lon="7.45724">
        <ele>985.68527526319</ele>
        <time>2021-01-27T10:38:42Z</time>
      </trkpt>
      <trkpt lat="43.8172" lon="7.45725">
        <ele>985.68523960685</ele>
        <time>2021-01-27T10:38:43Z</time>
      </trkpt>
      <trkpt lat="43.81721" lon="7.45726">
        <ele>985.68520242083</ele>
        <time>2021-01-27T10:38:44Z</time>
      </trkpt>
      <trkpt lat="43.81722" lon="7.45726">
        <ele>985.6851676245</ele>
        <time>2021-01-27T10:38:46Z</time>
      </trkpt>
      <trkpt lat="43.81724" lon="7.45726">
        <ele>985.68507621501</ele>
        <time>2021-01-27T10:38:47Z</time>
      </trkpt>
      <trkpt lat="43.81725" lon="7.45727">
        <ele>984.68502954966</ele>
        <time>2021-01-27T10:38:48Z</time>
      </trkpt>
      <trkpt lat="43.81726" lon="7.45728">
        <ele>984.68497904595</ele>
        <time>2021-01-27T10:38:49Z</time>
      </trkpt>
      <trkpt lat="43.81728" lon="7.45729">
        <ele>983.68490079487</ele>
        <time>2021-01-27T10:38:51Z</time>
      </trkpt>
      <trkpt lat="43.81729" lon="7.4573">
        <ele>983.68487706805</ele>
        <time>2021-01-27T10:38:52Z</time>
      </trkpt>
      <trkpt lat="43.8173" lon="7.4573">
        <ele>983.68481949669</ele>
        <time>2021-01-27T10:38:53Z</time>
      </trkpt>
      <trkpt lat="43.81731" lon="7.45729">
        <ele>983.68476495661</ele>
        <time>2021-01-27T10:38:54Z</time>
      </trkpt>
      <trkpt lat="43.81732" lon="7.45731">
        <ele>982.68474550856</ele>
        <time>2021-01-27T10:38:56Z</time>
      </trkpt>
      <trkpt lat="43.81733" lon="7.45732">
        <ele>982.68470032604</ele>
        <time>2021-01-27T10:38:57Z</time>
      </trkpt>
      <trkpt lat="43.81734" lon="7.45732">
        <ele>982.68466193198</ele>
        <time>2021-01-27T10:38:58Z</time>
      </trkpt>
      <trkpt lat="43.81735" lon="7.45732">
        <ele>982.68461614548</ele>
        <time>2021-01-27T10:38:59Z</time>
      </trkpt>
      <trkpt lat="43.81736" lon="7.45733">
        <ele>982.68457860123</ele>
        <time>2021-01-27T10:39:00Z</time>
      </trkpt>
      <trkpt lat="43.81737" lon="7.45733">
        <ele>982.68453416751</ele>
        <time>2021-01-27T10:39:01Z</time>
      </trkpt>
      <trkpt lat="43.81738" lon="7.45733">
        <ele>982.68449276145</ele>
        <time>2021-01-27T10:39:02Z</time>
      </trkpt>
      <trkpt lat="43.81739" lon="7.45733">
        <ele>982.68444975138</ele>
        <time>2021-01-27T10:39:03Z</time>
      </trkpt>
      <trkpt lat="43.81739" lon="7.45733">
        <ele>982.68441010865</ele>
        <time>2021-01-27T10:39:04Z</time>
      </trkpt>
      <trkpt lat="43.8174" lon="7.45733">
        <ele>981.68436484721</ele>
        <time>2021-01-27T10:39:05Z</time>
      </trkpt>
      <trkpt lat="43.81741" lon="7.45733">
        <ele>981.68432318261</ele>
        <time>2021-01-27T10:39:06Z</time>
      </trkpt>
      <trkpt lat="43.81742" lon="7.45733">
        <ele>981.68427760223</ele>
        <time>2021-01-27T10:39:07Z</time>
      </trkpt>
      <trkpt lat="43.81743" lon="7.45733">
        <ele>981.68422932321</ele>
        <time>2021-01-27T10:39:08Z</time>
      </trkpt>
      <trkpt lat="43.81746" lon="7.45735">
        <ele>980.68413270911</ele>
        <time>2021-01-27T10:39:10Z</time>
      </trkpt>
      <trkpt lat="43.81748" lon="7.45736">
        <ele>979.68404115617</ele>
        <time>2021-01-27T10:39:12Z</time>
      </trkpt>
      <trkpt lat="43.81749" lon="7.45736">
        <ele>979.68399052968</ele>
        <time>2021-01-27T10:39:13Z</time>
      </trkpt>
      <trkpt lat="43.81749" lon="7.45736">
        <ele>979.68398728428</ele>
        <time>2021-01-27T10:39:14Z</time>
      </trkpt>
      <trkpt lat="43.8175" lon="7.45735">
        <ele>979.68393878894</ele>
        <time>2021-01-27T10:39:15Z</time>
      </trkpt>
      <trkpt lat="43.81751" lon="7.45735">
        <ele>979.68389700691</ele>
        <time>2021-01-27T10:39:16Z</time>
      </trkpt>
      <trkpt lat="43.81752" lon="7.45735">
        <ele>979.68383976736</ele>
        <time>2021-01-27T10:39:17Z</time>
      </trkpt>
      <trkpt lat="43.81754" lon="7.45735">
        <ele>979.68377289479</ele>
        <time>2021-01-27T10:39:18Z</time>
      </trkpt>
      <trkpt lat="43.81755" lon="7.45735">
        <ele>979.68371882429</ele>
        <time>2021-01-27T10:39:19Z</time>
      </trkpt>
      <trkpt lat="43.81757" lon="7.45736">
        <ele>979.68362143501</ele>
        <time>2021-01-27T10:39:21Z</time>
      </trkpt>
      <trkpt lat="43.81758" lon="7.45736">
        <ele>979.68355638927</ele>
        <time>2021-01-27T10:39:22Z</time>
      </trkpt>
      <trkpt lat="43.81759" lon="7.45736">
        <ele>979.6835126942</ele>
        <time>2021-01-27T10:39:23Z</time>
      </trkpt>
      <trkpt lat="43.81762" lon="7.45736">
        <ele>978.6834061888</ele>
        <time>2021-01-27T10:39:25Z</time>
      </trkpt>
      <trkpt lat="43.81764" lon="7.45737">
        <ele>978.68331042166</ele>
        <time>2021-01-27T10:39:27Z</time>
      </trkpt>
      <trkpt lat="43.81765" lon="7.45737">
        <ele>977.68327069077</ele>
        <time>2021-01-27T10:39:28Z</time>
      </trkpt>
      <trkpt lat="43.81766" lon="7.45738">
        <ele>977.68320424702</ele>
        <time>2021-01-27T10:39:30Z</time>
      </trkpt>
      <trkpt lat="43.81768" lon="7.45737">
        <ele>977.68310731435</ele>
        <time>2021-01-27T10:39:32Z</time>
      </trkpt>
      <trkpt lat="43.8177" lon="7.45738">
        <ele>978.68304228606</ele>
        <time>2021-01-27T10:39:33Z</time>
      </trkpt>
      <trkpt lat="43.81771" lon="7.45738">
        <ele>978.68298891592</ele>
        <time>2021-01-27T10:39:34Z</time>
      </trkpt>
      <trkpt lat="43.81773" lon="7.4574">
        <ele>977.68291982849</ele>
        <time>2021-01-27T10:39:36Z</time>
      </trkpt>
      <trkpt lat="43.81774" lon="7.45741">
        <ele>977.6828802761</ele>
        <time>2021-01-27T10:39:37Z</time>
      </trkpt>
      <trkpt lat="43.81775" lon="7.45741">
        <ele>977.68283207696</ele>
        <time>2021-01-27T10:39:38Z</time>
      </trkpt>
      <trkpt lat="43.81776" lon="7.45741">
        <ele>977.68278348594</ele>
        <time>2021-01-27T10:39:39Z</time>
      </trkpt>
      <trkpt lat="43.81777" lon="7.45741">
        <ele>977.68273106241</ele>
        <time>2021-01-27T10:39:40Z</time>
      </trkpt>
      <trkpt lat="43.81778" lon="7.45742">
        <ele>976.68269662123</ele>
        <time>2021-01-27T10:39:41Z</time>
      </trkpt>
      <trkpt lat="43.81779" lon="7.45742">
        <ele>976.68266008158</ele>
        <time>2021-01-27T10:39:42Z</time>
      </trkpt>
      <trkpt lat="43.8178" lon="7.45742">
        <ele>976.6826126422</ele>
        <time>2021-01-27T10:39:43Z</time>
      </trkpt>
      <trkpt lat="43.81781" lon="7.45742">
        <ele>976.68255718731</ele>
        <time>2021-01-27T10:39:44Z</time>
      </trkpt>
      <trkpt lat="43.81782" lon="7.45742">
        <ele>976.68252770694</ele>
        <time>2021-01-27T10:39:45Z</time>
      </trkpt>
      <trkpt lat="43.81783" lon="7.45743">
        <ele>976.6824845298</ele>
        <time>2021-01-27T10:39:46Z</time>
      </trkpt>
      <trkpt lat="43.81784" lon="7.45743">
        <ele>976.68243055338</ele>
        <time>2021-01-27T10:39:47Z</time>
      </trkpt>
      <trkpt lat="43.81785" lon="7.45743">
        <ele>976.68239136541</ele>
        <time>2021-01-27T10:39:49Z</time>
      </trkpt>
      <trkpt lat="43.81786" lon="7.45744">
        <ele>976.68234887467</ele>
        <time>2021-01-27T10:39:50Z</time>
      </trkpt>
      <trkpt lat="43.81787" lon="7.45745">
        <ele>976.68231875135</ele>
        <time>2021-01-27T10:39:51Z</time>
      </trkpt>
      <trkpt lat="43.81788" lon="7.45746">
        <ele>975.68229953237</ele>
        <time>2021-01-27T10:39:52Z</time>
      </trkpt>
      <trkpt lat="43.81789" lon="7.45747">
        <ele>975.68225610863</ele>
        <time>2021-01-27T10:39:53Z</time>
      </trkpt>
      <trkpt lat="43.8179" lon="7.45747">
        <ele>975.68220306873</ele>
        <time>2021-01-27T10:39:54Z</time>
      </trkpt>
      <trkpt lat="43.81791" lon="7.45748">
        <ele>975.68214233069</ele>
        <time>2021-01-27T10:39:55Z</time>
      </trkpt>
      <trkpt lat="43.81792" lon="7.45748">
        <ele>975.68213150742</ele>
        <time>2021-01-27T10:39:57Z</time>
      </trkpt>
      <trkpt lat="43.81792" lon="7.45748">
        <ele>975.68208757596</ele>
        <time>2021-01-27T10:39:58Z</time>
      </trkpt>
      <trkpt lat="43.81794" lon="7.45748">
        <ele>975.68204504169</ele>
        <time>2021-01-27T10:39:59Z</time>
      </trkpt>
      <trkpt lat="43.81795" lon="7.45749">
        <ele>974.68200126493</ele>
        <time>2021-01-27T10:40:00Z</time>
      </trkpt>
      <trkpt lat="43.81796" lon="7.4575">
        <ele>974.68196398204</ele>
        <time>2021-01-27T10:40:01Z</time>
      </trkpt>
      <trkpt lat="43.81797" lon="7.4575">
        <ele>974.68192649436</ele>
        <time>2021-01-27T10:40:02Z</time>
      </trkpt>
      <trkpt lat="43.81798" lon="7.4575">
        <ele>974.68188374769</ele>
        <time>2021-01-27T10:40:03Z</time>
      </trkpt>
      <trkpt lat="43.81798" lon="7.45751">
        <ele>973.68186269298</ele>
        <time>2021-01-27T10:40:04Z</time>
      </trkpt>
      <trkpt lat="43.81799" lon="7.45752">
        <ele>974.68182367869</ele>
        <time>2021-01-27T10:40:05Z</time>
      </trkpt>
      <trkpt lat="43.818" lon="7.45752">
        <ele>973.68179822106</ele>
        <time>2021-01-27T10:40:06Z</time>
      </trkpt>
      <trkpt lat="43.81801" lon="7.45753">
        <ele>973.68176285962</ele>
        <time>2021-01-27T10:40:07Z</time>
      </trkpt>
      <trkpt lat="43.81802" lon="7.45753">
        <ele>972.6817149152</ele>
        <time>2021-01-27T10:40:08Z</time>
      </trkpt>
      <trkpt lat="43.81802" lon="7.45754">
        <ele>972.68169325661</ele>
        <time>2021-01-27T10:40:09Z</time>
      </trkpt>
      <trkpt lat="43.81805" lon="7.45755">
        <ele>971.68158005029</ele>
        <time>2021-01-27T10:40:11Z</time>
      </trkpt>
      <trkpt lat="43.81806" lon="7.45756">
        <ele>971.68154943227</ele>
        <time>2021-01-27T10:40:12Z</time>
      </trkpt>
      <trkpt lat="43.81807" lon="7.45756">
        <ele>971.68151378584</ele>
        <time>2021-01-27T10:40:13Z</time>
      </trkpt>
      <trkpt lat="43.81807" lon="7.45757">
        <ele>970.68149242226</ele>
        <time>2021-01-27T10:40:15Z</time>
      </trkpt>
      <trkpt lat="43.81809" lon="7.45757">
        <ele>970.68140190072</ele>
        <time>2021-01-27T10:40:17Z</time>
      </trkpt>
      <trkpt lat="43.8181" lon="7.45758">
        <ele>970.68136061774</ele>
        <time>2021-01-27T10:40:18Z</time>
      </trkpt>
      <trkpt lat="43.81812" lon="7.45759">
        <ele>971.68131144007</ele>
        <time>2021-01-27T10:40:19Z</time>
      </trkpt>
      <trkpt lat="43.81813" lon="7.45759">
        <ele>970.68127100124</ele>
        <time>2021-01-27T10:40:21Z</time>
      </trkpt>
      <trkpt lat="43.81814" lon="7.45759">
        <ele>970.68122150438</ele>
        <time>2021-01-27T10:40:22Z</time>
      </trkpt>
      <trkpt lat="43.81815" lon="7.4576">
        <ele>971.68116794184</ele>
        <time>2021-01-27T10:40:23Z</time>
      </trkpt>
      <trkpt lat="43.81818" lon="7.45761">
        <ele>971.68104451794</ele>
        <time>2021-01-27T10:40:25Z</time>
      </trkpt>
      <trkpt lat="43.81819" lon="7.45761">
        <ele>972.68097827167</ele>
        <time>2021-01-27T10:40:26Z</time>
      </trkpt>
      <trkpt lat="43.81821" lon="7.45762">
        <ele>972.68092367318</ele>
        <time>2021-01-27T10:40:27Z</time>
      </trkpt>
      <trkpt lat="43.81822" lon="7.45763">
        <ele>971.68087255388</ele>
        <time>2021-01-27T10:40:28Z</time>
      </trkpt>
      <trkpt lat="43.81823" lon="7.45764">
        <ele>971.68083584132</ele>
        <time>2021-01-27T10:40:29Z</time>
      </trkpt>
      <trkpt lat="43.81824" lon="7.45765">
        <ele>971.6808007921</ele>
        <time>2021-01-27T10:40:30Z</time>
      </trkpt>
      <trkpt lat="43.81825" lon="7.45766">
        <ele>970.68076203473</ele>
        <time>2021-01-27T10:40:31Z</time>
      </trkpt>
      <trkpt lat="43.81826" lon="7.45767">
        <ele>970.68074261991</ele>
        <time>2021-01-27T10:40:32Z</time>
      </trkpt>
      <trkpt lat="43.81826" lon="7.45767">
        <ele>970.68072384737</ele>
        <time>2021-01-27T10:40:33Z</time>
      </trkpt>
      <trkpt lat="43.81828" lon="7.45768">
        <ele>969.68065325281</ele>
        <time>2021-01-27T10:40:35Z</time>
      </trkpt>
      <trkpt lat="43.81829" lon="7.45769">
        <ele>969.68061270099</ele>
        <time>2021-01-27T10:40:36Z</time>
      </trkpt>
      <trkpt lat="43.8183" lon="7.4577">
        <ele>969.68057212601</ele>
        <time>2021-01-27T10:40:37Z</time>
      </trkpt>
      <trkpt lat="43.81831" lon="7.45771">
        <ele>969.68054010084</ele>
        <time>2021-01-27T10:40:38Z</time>
      </trkpt>
      <trkpt lat="43.81832" lon="7.45771">
        <ele>969.68048915438</ele>
        <time>2021-01-27T10:40:39Z</time>
      </trkpt>
      <trkpt lat="43.81833" lon="7.45771">
        <ele>969.6804503521</ele>
        <time>2021-01-27T10:40:40Z</time>
      </trkpt>
      <trkpt lat="43.81835" lon="7.45772">
        <ele>968.68036228559</ele>
        <time>2021-01-27T10:40:42Z</time>
      </trkpt>
      <trkpt lat="43.81836" lon="7.45773">
        <ele>968.6803139562</ele>
        <time>2021-01-27T10:40:43Z</time>
      </trkpt>
      <trkpt lat="43.81837" lon="7.45773">
        <ele>968.68027271287</ele>
        <time>2021-01-27T10:40:44Z</time>
      </trkpt>
      <trkpt lat="43.81838" lon="7.45774">
        <ele>968.68023306342</ele>
        <time>2021-01-27T10:40:45Z</time>
      </trkpt>
      <trkpt lat="43.81839" lon="7.45776">
        <ele>967.68019765765</ele>
        <time>2021-01-27T10:40:46Z</time>
      </trkpt>
      <trkpt lat="43.81841" lon="7.45776">
        <ele>967.68015495064</ele>
        <time>2021-01-27T10:40:47Z</time>
      </trkpt>
      <trkpt lat="43.81841" lon="7.45776">
        <ele>966.6801310854</ele>
        <time>2021-01-27T10:40:49Z</time>
      </trkpt>
      <trkpt lat="43.81843" lon="7.45778">
        <ele>966.68006822761</ele>
        <time>2021-01-27T10:40:51Z</time>
      </trkpt>
      <trkpt lat="43.81844" lon="7.45779">
        <ele>966.68001388358</ele>
        <time>2021-01-27T10:40:52Z</time>
      </trkpt>
      <trkpt lat="43.81845" lon="7.4578">
        <ele>965.67996637394</ele>
        <time>2021-01-27T10:40:53Z</time>
      </trkpt>
      <trkpt lat="43.81846" lon="7.45781">
        <ele>965.67992981387</ele>
        <time>2021-01-27T10:40:54Z</time>
      </trkpt>
      <trkpt lat="43.81848" lon="7.45782">
        <ele>964.67988053072</ele>
        <time>2021-01-27T10:40:56Z</time>
      </trkpt>
      <trkpt lat="43.81848" lon="7.45782">
        <ele>964.67988011437</ele>
        <time>2021-01-27T10:40:57Z</time>
      </trkpt>
      <trkpt lat="43.81848" lon="7.45783">
        <ele>964.67985905344</ele>
        <time>2021-01-27T10:40:58Z</time>
      </trkpt>
      <trkpt lat="43.8185" lon="7.45784">
        <ele>963.67981871014</ele>
        <time>2021-01-27T10:40:59Z</time>
      </trkpt>
      <trkpt lat="43.81852" lon="7.45786">
        <ele>963.67973579514</ele>
        <time>2021-01-27T10:41:01Z</time>
      </trkpt>
      <trkpt lat="43.81853" lon="7.45788">
        <ele>963.67970099181</ele>
        <time>2021-01-27T10:41:02Z</time>
      </trkpt>
      <trkpt lat="43.81854" lon="7.45788">
        <ele>963.6796579139</ele>
        <time>2021-01-27T10:41:03Z</time>
      </trkpt>
      <trkpt lat="43.81856" lon="7.45789">
        <ele>962.67955275583</ele>
        <time>2021-01-27T10:41:05Z</time>
      </trkpt>
      <trkpt lat="43.81858" lon="7.4579">
        <ele>961.67950063632</ele>
        <time>2021-01-27T10:41:06Z</time>
      </trkpt>
      <trkpt lat="43.81859" lon="7.45792">
        <ele>960.6794609265</ele>
        <time>2021-01-27T10:41:07Z</time>
      </trkpt>
      <trkpt lat="43.8186" lon="7.45793">
        <ele>960.67942069043</ele>
        <time>2021-01-27T10:41:08Z</time>
      </trkpt>
      <trkpt lat="43.81862" lon="7.45796">
        <ele>960.67934612048</ele>
        <time>2021-01-27T10:41:10Z</time>
      </trkpt>
      <trkpt lat="43.81865" lon="7.45798">
        <ele>959.67925344541</ele>
        <time>2021-01-27T10:41:12Z</time>
      </trkpt>
      <trkpt lat="43.81866" lon="7.45798">
        <ele>959.67920728502</ele>
        <time>2021-01-27T10:41:13Z</time>
      </trkpt>
      <trkpt lat="43.81867" lon="7.45799">
        <ele>959.67915974214</ele>
        <time>2021-01-27T10:41:14Z</time>
      </trkpt>
      <trkpt lat="43.81868" lon="7.458">
        <ele>959.67910982025</ele>
        <time>2021-01-27T10:41:15Z</time>
      </trkpt>
      <trkpt lat="43.8187" lon="7.45801">
        <ele>958.67906041994</ele>
        <time>2021-01-27T10:41:16Z</time>
      </trkpt>
      <trkpt lat="43.81871" lon="7.45802">
        <ele>958.67902072083</ele>
        <time>2021-01-27T10:41:17Z</time>
      </trkpt>
      <trkpt lat="43.81872" lon="7.45803">
        <ele>958.67897122312</ele>
        <time>2021-01-27T10:41:18Z</time>
      </trkpt>
      <trkpt lat="43.81874" lon="7.45804">
        <ele>957.67887443164</ele>
        <time>2021-01-27T10:41:20Z</time>
      </trkpt>
      <trkpt lat="43.81875" lon="7.45805">
        <ele>956.67883594196</ele>
        <time>2021-01-27T10:41:21Z</time>
      </trkpt>
      <trkpt lat="43.81876" lon="7.45806">
        <ele>956.67881085018</ele>
        <time>2021-01-27T10:41:22Z</time>
      </trkpt>
      <trkpt lat="43.81877" lon="7.45807">
        <ele>956.67877674187</ele>
        <time>2021-01-27T10:41:23Z</time>
      </trkpt>
      <trkpt lat="43.81878" lon="7.45808">
        <ele>956.67873342279</ele>
        <time>2021-01-27T10:41:24Z</time>
      </trkpt>
      <trkpt lat="43.8188" lon="7.45808">
        <ele>956.67867953143</ele>
        <time>2021-01-27T10:41:25Z</time>
      </trkpt>
      <trkpt lat="43.81881" lon="7.45808">
        <ele>956.67862591352</ele>
        <time>2021-01-27T10:41:26Z</time>
      </trkpt>
      <trkpt lat="43.81882" lon="7.45809">
        <ele>955.67857465784</ele>
        <time>2021-01-27T10:41:27Z</time>
      </trkpt>
      <trkpt lat="43.81883" lon="7.4581">
        <ele>955.67853265297</ele>
        <time>2021-01-27T10:41:28Z</time>
      </trkpt>
      <trkpt lat="43.81885" lon="7.45812">
        <ele>955.6784571274</ele>
        <time>2021-01-27T10:41:30Z</time>
      </trkpt>
      <trkpt lat="43.81886" lon="7.45812">
        <ele>954.67840270107</ele>
        <time>2021-01-27T10:41:31Z</time>
      </trkpt>
      <trkpt lat="43.81887" lon="7.45812">
        <ele>955.67836198606</ele>
        <time>2021-01-27T10:41:32Z</time>
      </trkpt>
      <trkpt lat="43.81888" lon="7.45813">
        <ele>954.67831821201</ele>
        <time>2021-01-27T10:41:33Z</time>
      </trkpt>
      <trkpt lat="43.81889" lon="7.45814">
        <ele>955.67827442339</ele>
        <time>2021-01-27T10:41:34Z</time>
      </trkpt>
      <trkpt lat="43.8189" lon="7.45814">
        <ele>955.67823880363</ele>
        <time>2021-01-27T10:41:35Z</time>
      </trkpt>
      <trkpt lat="43.81893" lon="7.45814">
        <ele>954.67813165941</ele>
        <time>2021-01-27T10:41:37Z</time>
      </trkpt>
      <trkpt lat="43.81894" lon="7.45814">
        <ele>954.67807374247</ele>
        <time>2021-01-27T10:41:38Z</time>
      </trkpt>
      <trkpt lat="43.81894" lon="7.45815">
        <ele>954.67806476779</ele>
        <time>2021-01-27T10:41:39Z</time>
      </trkpt>
      <trkpt lat="43.81895" lon="7.45815">
        <ele>954.67804576657</ele>
        <time>2021-01-27T10:41:40Z</time>
      </trkpt>
      <trkpt lat="43.81896" lon="7.45816">
        <ele>954.67800971535</ele>
        <time>2021-01-27T10:41:41Z</time>
      </trkpt>
      <trkpt lat="43.81897" lon="7.45817">
        <ele>954.67796627718</ele>
        <time>2021-01-27T10:41:42Z</time>
      </trkpt>
      <trkpt lat="43.81898" lon="7.45818">
        <ele>953.67792449203</ele>
        <time>2021-01-27T10:41:43Z</time>
      </trkpt>
      <trkpt lat="43.81899" lon="7.45818">
        <ele>953.67787253809</ele>
        <time>2021-01-27T10:41:44Z</time>
      </trkpt>
      <trkpt lat="43.81902" lon="7.4582">
        <ele>952.67775850861</ele>
        <time>2021-01-27T10:41:46Z</time>
      </trkpt>
      <trkpt lat="43.81903" lon="7.45821">
        <ele>952.67774037079</ele>
        <time>2021-01-27T10:41:47Z</time>
      </trkpt>
      <trkpt lat="43.81903" lon="7.45823">
        <ele>952.67773092202</ele>
        <time>2021-01-27T10:41:48Z</time>
      </trkpt>
      <trkpt lat="43.81905" lon="7.45826">
        <ele>951.67766436902</ele>
        <time>2021-01-27T10:41:50Z</time>
      </trkpt>
      <trkpt lat="43.81908" lon="7.45827">
        <ele>950.67756037127</ele>
        <time>2021-01-27T10:41:52Z</time>
      </trkpt>
      <trkpt lat="43.81909" lon="7.45828">
        <ele>950.67749600215</ele>
        <time>2021-01-27T10:41:53Z</time>
      </trkpt>
      <trkpt lat="43.81911" lon="7.45829">
        <ele>950.67745041583</ele>
        <time>2021-01-27T10:41:54Z</time>
      </trkpt>
      <trkpt lat="43.81913" lon="7.45829">
        <ele>951.67735003188</ele>
        <time>2021-01-27T10:41:56Z</time>
      </trkpt>
      <trkpt lat="43.81914" lon="7.4583">
        <ele>951.67730333869</ele>
        <time>2021-01-27T10:41:57Z</time>
      </trkpt>
      <trkpt lat="43.81916" lon="7.4583">
        <ele>951.67723957299</ele>
        <time>2021-01-27T10:41:58Z</time>
      </trkpt>
      <trkpt lat="43.81917" lon="7.45831">
        <ele>951.67717761641</ele>
        <time>2021-01-27T10:41:59Z</time>
      </trkpt>
      <trkpt lat="43.81919" lon="7.45831">
        <ele>951.67710280873</ele>
        <time>2021-01-27T10:42:00Z</time>
      </trkpt>
      <trkpt lat="43.8192" lon="7.45831">
        <ele>952.67703072842</ele>
        <time>2021-01-27T10:42:01Z</time>
      </trkpt>
      <trkpt lat="43.81922" lon="7.45832">
        <ele>951.67696564361</ele>
        <time>2021-01-27T10:42:02Z</time>
      </trkpt>
      <trkpt lat="43.81923" lon="7.45833">
        <ele>951.67691179751</ele>
        <time>2021-01-27T10:42:03Z</time>
      </trkpt>
      <trkpt lat="43.81925" lon="7.45835">
        <ele>950.67686966216</ele>
        <time>2021-01-27T10:42:04Z</time>
      </trkpt>
      <trkpt lat="43.81926" lon="7.45838">
        <ele>949.67683515584</ele>
        <time>2021-01-27T10:42:06Z</time>
      </trkpt>
      <trkpt lat="43.81927" lon="7.4584">
        <ele>948.67679736971</ele>
        <time>2021-01-27T10:42:07Z</time>
      </trkpt>
      <trkpt lat="43.81928" lon="7.45841">
        <ele>948.6767584932</ele>
        <time>2021-01-27T10:42:08Z</time>
      </trkpt>
      <trkpt lat="43.8193" lon="7.45842">
        <ele>948.67671189716</ele>
        <time>2021-01-27T10:42:09Z</time>
      </trkpt>
      <trkpt lat="43.81931" lon="7.45843">
        <ele>948.67667330244</ele>
        <time>2021-01-27T10:42:10Z</time>
      </trkpt>
      <trkpt lat="43.81932" lon="7.45844">
        <ele>948.67664611525</ele>
        <time>2021-01-27T10:42:11Z</time>
      </trkpt>
      <trkpt lat="43.81932" lon="7.45846">
        <ele>948.67662379017</ele>
        <time>2021-01-27T10:42:12Z</time>
      </trkpt>
      <trkpt lat="43.81934" lon="7.45847">
        <ele>948.6765835691</ele>
        <time>2021-01-27T10:42:13Z</time>
      </trkpt>
      <trkpt lat="43.81935" lon="7.45847">
        <ele>947.67653834896</ele>
        <time>2021-01-27T10:42:14Z</time>
      </trkpt>
      <trkpt lat="43.81937" lon="7.45849">
        <ele>947.676469473</ele>
        <time>2021-01-27T10:42:16Z</time>
      </trkpt>
      <trkpt lat="43.81937" lon="7.45849">
        <ele>947.6764530249</ele>
        <time>2021-01-27T10:42:17Z</time>
      </trkpt>
      <trkpt lat="43.81938" lon="7.45849">
        <ele>947.67642577611</ele>
        <time>2021-01-27T10:42:18Z</time>
      </trkpt>
      <trkpt lat="43.81939" lon="7.4585">
        <ele>947.67637305387</ele>
        <time>2021-01-27T10:42:19Z</time>
      </trkpt>
      <trkpt lat="43.8194" lon="7.4585">
        <ele>947.67633208896</ele>
        <time>2021-01-27T10:42:20Z</time>
      </trkpt>
      <trkpt lat="43.81941" lon="7.45851">
        <ele>946.67629302452</ele>
        <time>2021-01-27T10:42:21Z</time>
      </trkpt>
      <trkpt lat="43.81942" lon="7.45851">
        <ele>946.67624202942</ele>
        <time>2021-01-27T10:42:22Z</time>
      </trkpt>
      <trkpt lat="43.81943" lon="7.45852">
        <ele>946.67619676059</ele>
        <time>2021-01-27T10:42:23Z</time>
      </trkpt>
      <trkpt lat="43.81947" lon="7.45854">
        <ele>947.67605728932</ele>
        <time>2021-01-27T10:42:25Z</time>
      </trkpt>
      <trkpt lat="43.81949" lon="7.45855">
        <ele>946.6759634255</ele>
        <time>2021-01-27T10:42:27Z</time>
      </trkpt>
      <trkpt lat="43.8195" lon="7.45856">
        <ele>946.67592154611</ele>
        <time>2021-01-27T10:42:28Z</time>
      </trkpt>
      <trkpt lat="43.81951" lon="7.45858">
        <ele>945.67588492835</ele>
        <time>2021-01-27T10:42:29Z</time>
      </trkpt>
      <trkpt lat="43.81954" lon="7.45859">
        <ele>944.67577649182</ele>
        <time>2021-01-27T10:42:31Z</time>
      </trkpt>
      <trkpt lat="43.81955" lon="7.4586">
        <ele>944.67573628434</ele>
        <time>2021-01-27T10:42:32Z</time>
      </trkpt>
      <trkpt lat="43.81956" lon="7.45862">
        <ele>944.67569249812</ele>
        <time>2021-01-27T10:42:33Z</time>
      </trkpt>
      <trkpt lat="43.81959" lon="7.45864">
        <ele>943.67560324112</ele>
        <time>2021-01-27T10:42:35Z</time>
      </trkpt>
      <trkpt lat="43.81961" lon="7.45866">
        <ele>942.67551791695</ele>
        <time>2021-01-27T10:42:37Z</time>
      </trkpt>
      <trkpt lat="43.81962" lon="7.45867">
        <ele>942.6754756589</ele>
        <time>2021-01-27T10:42:38Z</time>
      </trkpt>
      <trkpt lat="43.81964" lon="7.45868">
        <ele>942.67542491259</ele>
        <time>2021-01-27T10:42:39Z</time>
      </trkpt>
      <trkpt lat="43.81966" lon="7.4587">
        <ele>941.67531667565</ele>
        <time>2021-01-27T10:42:41Z</time>
      </trkpt>
      <trkpt lat="43.81968" lon="7.45871">
        <ele>941.67526381096</ele>
        <time>2021-01-27T10:42:42Z</time>
      </trkpt>
      <trkpt lat="43.81969" lon="7.45872">
        <ele>941.67522520171</ele>
        <time>2021-01-27T10:42:43Z</time>
      </trkpt>
      <trkpt lat="43.81971" lon="7.45873">
        <ele>942.67512990517</ele>
        <time>2021-01-27T10:42:45Z</time>
      </trkpt>
      <trkpt lat="43.81972" lon="7.45873">
        <ele>942.67507204342</ele>
        <time>2021-01-27T10:42:46Z</time>
      </trkpt>
      <trkpt lat="43.81974" lon="7.45874">
        <ele>942.67501369499</ele>
        <time>2021-01-27T10:42:47Z</time>
      </trkpt>
      <trkpt lat="43.81975" lon="7.45874">
        <ele>941.67496465441</ele>
        <time>2021-01-27T10:42:48Z</time>
      </trkpt>
      <trkpt lat="43.81976" lon="7.45875">
        <ele>942.67491274205</ele>
        <time>2021-01-27T10:42:49Z</time>
      </trkpt>
      <trkpt lat="43.81977" lon="7.45875">
        <ele>941.67485754549</ele>
        <time>2021-01-27T10:42:50Z</time>
      </trkpt>
      <trkpt lat="43.81979" lon="7.45877">
        <ele>940.67478233108</ele>
        <time>2021-01-27T10:42:52Z</time>
      </trkpt>
      <trkpt lat="43.8198" lon="7.45877">
        <ele>940.67473701519</ele>
        <time>2021-01-27T10:42:53Z</time>
      </trkpt>
      <trkpt lat="43.81981" lon="7.45878">
        <ele>940.67469774983</ele>
        <time>2021-01-27T10:42:54Z</time>
      </trkpt>
      <trkpt lat="43.81982" lon="7.45878">
        <ele>940.67465472757</ele>
        <time>2021-01-27T10:42:55Z</time>
      </trkpt>
      <trkpt lat="43.81983" lon="7.45879">
        <ele>939.67462674719</ele>
        <time>2021-01-27T10:42:56Z</time>
      </trkpt>
      <trkpt lat="43.81984" lon="7.4588">
        <ele>939.67459381938</ele>
        <time>2021-01-27T10:42:57Z</time>
      </trkpt>
      <trkpt lat="43.81985" lon="7.45881">
        <ele>939.67456258085</ele>
        <time>2021-01-27T10:42:58Z</time>
      </trkpt>
      <trkpt lat="43.81985" lon="7.45881">
        <ele>939.67454912134</ele>
        <time>2021-01-27T10:43:00Z</time>
      </trkpt>
      <trkpt lat="43.81987" lon="7.45882">
        <ele>939.67448726012</ele>
        <time>2021-01-27T10:43:01Z</time>
      </trkpt>
      <trkpt lat="43.81988" lon="7.45884">
        <ele>939.67444036856</ele>
        <time>2021-01-27T10:43:02Z</time>
      </trkpt>
      <trkpt lat="43.81989" lon="7.45885">
        <ele>938.67440925027</ele>
        <time>2021-01-27T10:43:03Z</time>
      </trkpt>
      <trkpt lat="43.81991" lon="7.45886">
        <ele>938.67436242853</ele>
        <time>2021-01-27T10:43:04Z</time>
      </trkpt>
      <trkpt lat="43.81992" lon="7.45887">
        <ele>938.67432013408</ele>
        <time>2021-01-27T10:43:05Z</time>
      </trkpt>
      <trkpt lat="43.81993" lon="7.45888">
        <ele>938.67428560645</ele>
        <time>2021-01-27T10:43:06Z</time>
      </trkpt>
      <trkpt lat="43.81994" lon="7.45889">
        <ele>937.67423771276</ele>
        <time>2021-01-27T10:43:07Z</time>
      </trkpt>
      <trkpt lat="43.81995" lon="7.4589">
        <ele>937.67419381631</ele>
        <time>2021-01-27T10:43:08Z</time>
      </trkpt>
      <trkpt lat="43.81996" lon="7.45892">
        <ele>937.67416165456</ele>
        <time>2021-01-27T10:43:09Z</time>
      </trkpt>
      <trkpt lat="43.81997" lon="7.45893">
        <ele>936.67415042658</ele>
        <time>2021-01-27T10:43:10Z</time>
      </trkpt>
      <trkpt lat="43.81998" lon="7.45894">
        <ele>936.67412592941</ele>
        <time>2021-01-27T10:43:11Z</time>
      </trkpt>
      <trkpt lat="43.81999" lon="7.45896">
        <ele>935.67408758116</ele>
        <time>2021-01-27T10:43:12Z</time>
      </trkpt>
      <trkpt lat="43.82" lon="7.45897">
        <ele>935.67406428562</ele>
        <time>2021-01-27T10:43:13Z</time>
      </trkpt>
      <trkpt lat="43.82001" lon="7.45899">
        <ele>934.6740365695</ele>
        <time>2021-01-27T10:43:14Z</time>
      </trkpt>
      <trkpt lat="43.82002" lon="7.45899">
        <ele>934.67399045314</ele>
        <time>2021-01-27T10:43:15Z</time>
      </trkpt>
      <trkpt lat="43.82003" lon="7.459">
        <ele>934.67395435824</ele>
        <time>2021-01-27T10:43:16Z</time>
      </trkpt>
      <trkpt lat="43.82004" lon="7.45902">
        <ele>934.67389439837</ele>
        <time>2021-01-27T10:43:18Z</time>
      </trkpt>
      <trkpt lat="43.82005" lon="7.45903">
        <ele>933.67388725071</ele>
        <time>2021-01-27T10:43:19Z</time>
      </trkpt>
      <trkpt lat="43.82006" lon="7.45905">
        <ele>934.67387382642</ele>
        <time>2021-01-27T10:43:20Z</time>
      </trkpt>
      <trkpt lat="43.82006" lon="7.45908">
        <ele>935.67387058351</ele>
        <time>2021-01-27T10:43:22Z</time>
      </trkpt>
      <trkpt lat="43.82007" lon="7.45909">
        <ele>935.67385001494</ele>
        <time>2021-01-27T10:43:23Z</time>
      </trkpt>
      <trkpt lat="43.82009" lon="7.45911">
        <ele>935.6738063538</ele>
        <time>2021-01-27T10:43:24Z</time>
      </trkpt>
      <trkpt lat="43.82009" lon="7.45912">
        <ele>935.67379703462</ele>
        <time>2021-01-27T10:43:25Z</time>
      </trkpt>
      <trkpt lat="43.8201" lon="7.45914">
        <ele>935.67377247995</ele>
        <time>2021-01-27T10:43:26Z</time>
      </trkpt>
      <trkpt lat="43.82011" lon="7.45916">
        <ele>935.67374615836</ele>
        <time>2021-01-27T10:43:27Z</time>
      </trkpt>
      <trkpt lat="43.82012" lon="7.45918">
        <ele>935.67374461588</ele>
        <time>2021-01-27T10:43:28Z</time>
      </trkpt>
      <trkpt lat="43.82012" lon="7.45921">
        <ele>936.67373383751</ele>
        <time>2021-01-27T10:43:30Z</time>
      </trkpt>
      <trkpt lat="43.82013" lon="7.45921">
        <ele>936.67370264315</ele>
        <time>2021-01-27T10:43:31Z</time>
      </trkpt>
      <trkpt lat="43.82014" lon="7.45923">
        <ele>936.67368062744</ele>
        <time>2021-01-27T10:43:32Z</time>
      </trkpt>
      <trkpt lat="43.82014" lon="7.45924">
        <ele>936.67367383066</ele>
        <time>2021-01-27T10:43:33Z</time>
      </trkpt>
      <trkpt lat="43.82015" lon="7.45925">
        <ele>936.67368471125</ele>
        <time>2021-01-27T10:43:34Z</time>
      </trkpt>
      <trkpt lat="43.82014" lon="7.45927">
        <ele>936.67371546416</ele>
        <time>2021-01-27T10:43:35Z</time>
      </trkpt>
      <trkpt lat="43.82014" lon="7.45928">
        <ele>935.67373663893</ele>
        <time>2021-01-27T10:43:36Z</time>
      </trkpt>
      <trkpt lat="43.82014" lon="7.4593">
        <ele>936.67376182624</ele>
        <time>2021-01-27T10:43:37Z</time>
      </trkpt>
      <trkpt lat="43.82014" lon="7.45931">
        <ele>936.6737679442</ele>
        <time>2021-01-27T10:43:38Z</time>
      </trkpt>
      <trkpt lat="43.82014" lon="7.45933">
        <ele>936.6737720392</ele>
        <time>2021-01-27T10:43:39Z</time>
      </trkpt>
      <trkpt lat="43.82015" lon="7.45934">
        <ele>937.67378034947</ele>
        <time>2021-01-27T10:43:40Z</time>
      </trkpt>
      <trkpt lat="43.82014" lon="7.45935">
        <ele>937.67382636376</ele>
        <time>2021-01-27T10:43:41Z</time>
      </trkpt>
      <trkpt lat="43.82014" lon="7.45935">
        <ele>937.67382636376</ele>
        <time>2021-01-27T10:43:42Z</time>
      </trkpt>
      <trkpt lat="43.82013" lon="7.45935">
        <ele>938.67387609103</ele>
        <time>2021-01-27T10:43:43Z</time>
      </trkpt>
      <trkpt lat="43.82013" lon="7.45934">
        <ele>936.67388119376</ele>
        <time>2021-01-27T10:43:47Z</time>
      </trkpt>
      <trkpt lat="43.82011" lon="7.45934">
        <ele>936.67393609808</ele>
        <time>2021-01-27T10:43:50Z</time>
      </trkpt>
      <trkpt lat="43.82011" lon="7.45934">
        <ele>933.67397704424</ele>
        <time>2021-01-27T10:45:39Z</time>
      </trkpt>
      <trkpt lat="43.82011" lon="7.45933">
        <ele>932.67393789916</ele>
        <time>2021-01-27T10:45:42Z</time>
      </trkpt>
      <trkpt lat="43.82011" lon="7.45933">
        <ele>931.67391477527</ele>
        <time>2021-01-27T10:45:49Z</time>
      </trkpt>
      <trkpt lat="43.82012" lon="7.45933">
        <ele>931.67389543621</ele>
        <time>2021-01-27T10:45:50Z</time>
      </trkpt>
      <trkpt lat="43.82013" lon="7.45934">
        <ele>931.67386124255</ele>
        <time>2021-01-27T10:45:51Z</time>
      </trkpt>
      <trkpt lat="43.82014" lon="7.45935">
        <ele>932.67383824573</ele>
        <time>2021-01-27T10:45:52Z</time>
      </trkpt>
      <trkpt lat="43.82014" lon="7.45936">
        <ele>931.67384472758</ele>
        <time>2021-01-27T10:45:53Z</time>
      </trkpt>
      <trkpt lat="43.82014" lon="7.45937">
        <ele>933.67384922</ele>
        <time>2021-01-27T10:45:55Z</time>
      </trkpt>
      <trkpt lat="43.82014" lon="7.45937">
        <ele>933.6738486016</ele>
        <time>2021-01-27T10:46:00Z</time>
      </trkpt>
      <trkpt lat="43.82015" lon="7.45939">
        <ele>935.67380062106</ele>
        <time>2021-01-27T10:46:01Z</time>
      </trkpt>
      <trkpt lat="43.82016" lon="7.45939">
        <ele>935.67376819293</ele>
        <time>2021-01-27T10:46:02Z</time>
      </trkpt>
      <trkpt lat="43.82017" lon="7.4594">
        <ele>935.67375022077</ele>
        <time>2021-01-27T10:46:03Z</time>
      </trkpt>
      <trkpt lat="43.82017" lon="7.45941">
        <ele>934.6737440302</ele>
        <time>2021-01-27T10:46:04Z</time>
      </trkpt>
      <trkpt lat="43.82018" lon="7.45942">
        <ele>934.67371269091</ele>
        <time>2021-01-27T10:46:05Z</time>
      </trkpt>
      <trkpt lat="43.82019" lon="7.45943">
        <ele>934.67369564552</ele>
        <time>2021-01-27T10:46:06Z</time>
      </trkpt>
      <trkpt lat="43.82019" lon="7.45944">
        <ele>934.67369102552</ele>
        <time>2021-01-27T10:46:07Z</time>
      </trkpt>
      <trkpt lat="43.82019" lon="7.45945">
        <ele>934.67370101664</ele>
        <time>2021-01-27T10:46:08Z</time>
      </trkpt>
      <trkpt lat="43.82019" lon="7.45946">
        <ele>934.6736895002</ele>
        <time>2021-01-27T10:46:09Z</time>
      </trkpt>
      <trkpt lat="43.8202" lon="7.45946">
        <ele>934.6736538014</ele>
        <time>2021-01-27T10:46:10Z</time>
      </trkpt>
      <trkpt lat="43.82021" lon="7.45946">
        <ele>933.67362111941</ele>
        <time>2021-01-27T10:46:11Z</time>
      </trkpt>
      <trkpt lat="43.82022" lon="7.45946">
        <ele>933.67358698315</ele>
        <time>2021-01-27T10:46:12Z</time>
      </trkpt>
      <trkpt lat="43.82022" lon="7.45946">
        <ele>933.67355959819</ele>
        <time>2021-01-27T10:46:13Z</time>
      </trkpt>
      <trkpt lat="43.82023" lon="7.45948">
        <ele>933.67352786281</ele>
        <time>2021-01-27T10:46:14Z</time>
      </trkpt>
      <trkpt lat="43.82024" lon="7.45949">
        <ele>933.67351059606</ele>
        <time>2021-01-27T10:46:15Z</time>
      </trkpt>
      <trkpt lat="43.82025" lon="7.4595">
        <ele>933.67347127355</ele>
        <time>2021-01-27T10:46:16Z</time>
      </trkpt>
      <trkpt lat="43.82026" lon="7.4595">
        <ele>933.67344405688</ele>
        <time>2021-01-27T10:46:17Z</time>
      </trkpt>
      <trkpt lat="43.82027" lon="7.45951">
        <ele>933.67339160498</ele>
        <time>2021-01-27T10:46:18Z</time>
      </trkpt>
      <trkpt lat="43.82028" lon="7.45952">
        <ele>933.67337137792</ele>
        <time>2021-01-27T10:46:19Z</time>
      </trkpt>
      <trkpt lat="43.82028" lon="7.45953">
        <ele>933.67334792933</ele>
        <time>2021-01-27T10:46:20Z</time>
      </trkpt>
      <trkpt lat="43.82029" lon="7.45953">
        <ele>933.67332932043</ele>
        <time>2021-01-27T10:46:21Z</time>
      </trkpt>
      <trkpt lat="43.8203" lon="7.45954">
        <ele>933.67330579213</ele>
        <time>2021-01-27T10:46:22Z</time>
      </trkpt>
      <trkpt lat="43.8203" lon="7.45954">
        <ele>933.67327989025</ele>
        <time>2021-01-27T10:46:23Z</time>
      </trkpt>
      <trkpt lat="43.82031" lon="7.45955">
        <ele>934.67325768223</ele>
        <time>2021-01-27T10:46:24Z</time>
      </trkpt>
      <trkpt lat="43.82032" lon="7.45955">
        <ele>934.6732316837</ele>
        <time>2021-01-27T10:46:25Z</time>
      </trkpt>
      <trkpt lat="43.82033" lon="7.45957">
        <ele>934.67319785648</ele>
        <time>2021-01-27T10:46:26Z</time>
      </trkpt>
      <trkpt lat="43.82033" lon="7.45957">
        <ele>934.67316903565</ele>
        <time>2021-01-27T10:46:27Z</time>
      </trkpt>
      <trkpt lat="43.82034" lon="7.45958">
        <ele>934.673143789</ele>
        <time>2021-01-27T10:46:28Z</time>
      </trkpt>
      <trkpt lat="43.82035" lon="7.45959">
        <ele>933.6731207354</ele>
        <time>2021-01-27T10:46:29Z</time>
      </trkpt>
      <trkpt lat="43.82036" lon="7.4596">
        <ele>934.67309415696</ele>
        <time>2021-01-27T10:46:30Z</time>
      </trkpt>
      <trkpt lat="43.82036" lon="7.45961">
        <ele>934.67309255753</ele>
        <time>2021-01-27T10:46:31Z</time>
      </trkpt>
      <trkpt lat="43.82037" lon="7.45961">
        <ele>934.6730596253</ele>
        <time>2021-01-27T10:46:32Z</time>
      </trkpt>
      <trkpt lat="43.82037" lon="7.45961">
        <ele>934.67301971411</ele>
        <time>2021-01-27T10:46:33Z</time>
      </trkpt>
      <trkpt lat="43.82038" lon="7.45961">
        <ele>934.67297501516</ele>
        <time>2021-01-27T10:46:34Z</time>
      </trkpt>
      <trkpt lat="43.8204" lon="7.45961">
        <ele>934.67293234692</ele>
        <time>2021-01-27T10:46:35Z</time>
      </trkpt>
      <trkpt lat="43.8204" lon="7.45962">
        <ele>934.67290548244</ele>
        <time>2021-01-27T10:46:36Z</time>
      </trkpt>
      <trkpt lat="43.82041" lon="7.45963">
        <ele>934.67288798352</ele>
        <time>2021-01-27T10:46:37Z</time>
      </trkpt>
      <trkpt lat="43.82041" lon="7.45963">
        <ele>934.67286823031</ele>
        <time>2021-01-27T10:46:38Z</time>
      </trkpt>
      <trkpt lat="43.82042" lon="7.45964">
        <ele>934.67285351649</ele>
        <time>2021-01-27T10:46:39Z</time>
      </trkpt>
      <trkpt lat="43.82042" lon="7.45965">
        <ele>934.67286965106</ele>
        <time>2021-01-27T10:46:40Z</time>
      </trkpt>
      <trkpt lat="43.82042" lon="7.45966">
        <ele>934.67286414537</ele>
        <time>2021-01-27T10:46:41Z</time>
      </trkpt>
      <trkpt lat="43.82043" lon="7.45966">
        <ele>934.67283809318</ele>
        <time>2021-01-27T10:46:42Z</time>
      </trkpt>
      <trkpt lat="43.82043" lon="7.45966">
        <ele>934.6728056591</ele>
        <time>2021-01-27T10:46:43Z</time>
      </trkpt>
      <trkpt lat="43.82044" lon="7.45967">
        <ele>934.67276701571</ele>
        <time>2021-01-27T10:46:44Z</time>
      </trkpt>
      <trkpt lat="43.82046" lon="7.45967">
        <ele>934.67271885183</ele>
        <time>2021-01-27T10:46:45Z</time>
      </trkpt>
      <trkpt lat="43.82046" lon="7.45968">
        <ele>934.67268836574</ele>
        <time>2021-01-27T10:46:46Z</time>
      </trkpt>
      <trkpt lat="43.82047" lon="7.45968">
        <ele>935.67265329395</ele>
        <time>2021-01-27T10:46:47Z</time>
      </trkpt>
      <trkpt lat="43.82048" lon="7.45969">
        <ele>935.67262857894</ele>
        <time>2021-01-27T10:46:48Z</time>
      </trkpt>
      <trkpt lat="43.82049" lon="7.45969">
        <ele>934.67259292532</ele>
        <time>2021-01-27T10:46:49Z</time>
      </trkpt>
      <trkpt lat="43.82049" lon="7.45969">
        <ele>934.67258494883</ele>
        <time>2021-01-27T10:46:50Z</time>
      </trkpt>
      <trkpt lat="43.82049" lon="7.4597">
        <ele>935.67257388463</ele>
        <time>2021-01-27T10:46:51Z</time>
      </trkpt>
      <trkpt lat="43.8205" lon="7.45971">
        <ele>935.67255821719</ele>
        <time>2021-01-27T10:46:52Z</time>
      </trkpt>
      <trkpt lat="43.82051" lon="7.45972">
        <ele>935.67254176716</ele>
        <time>2021-01-27T10:46:53Z</time>
      </trkpt>
      <trkpt lat="43.82051" lon="7.45973">
        <ele>935.67251730376</ele>
        <time>2021-01-27T10:46:54Z</time>
      </trkpt>
      <trkpt lat="43.82052" lon="7.45973">
        <ele>935.67248457832</ele>
        <time>2021-01-27T10:46:55Z</time>
      </trkpt>
      <trkpt lat="43.82053" lon="7.45974">
        <ele>936.67245732641</ele>
        <time>2021-01-27T10:46:56Z</time>
      </trkpt>
      <trkpt lat="43.82053" lon="7.45975">
        <ele>936.67244069767</ele>
        <time>2021-01-27T10:46:57Z</time>
      </trkpt>
      <trkpt lat="43.82054" lon="7.45976">
        <ele>937.67241496323</ele>
        <time>2021-01-27T10:46:58Z</time>
      </trkpt>
      <trkpt lat="43.82055" lon="7.45977">
        <ele>936.67238332974</ele>
        <time>2021-01-27T10:46:59Z</time>
      </trkpt>
      <trkpt lat="43.82056" lon="7.45978">
        <ele>937.6723581593</ele>
        <time>2021-01-27T10:47:00Z</time>
      </trkpt>
      <trkpt lat="43.82057" lon="7.45978">
        <ele>936.67233261058</ele>
        <time>2021-01-27T10:47:01Z</time>
      </trkpt>
      <trkpt lat="43.82057" lon="7.45978">
        <ele>936.67229820144</ele>
        <time>2021-01-27T10:47:02Z</time>
      </trkpt>
      <trkpt lat="43.82058" lon="7.45979">
        <ele>937.672283026</ele>
        <time>2021-01-27T10:47:03Z</time>
      </trkpt>
      <trkpt lat="43.82059" lon="7.45979">
        <ele>937.67224989634</ele>
        <time>2021-01-27T10:47:04Z</time>
      </trkpt>
      <trkpt lat="43.82059" lon="7.4598">
        <ele>936.67222228427</ele>
        <time>2021-01-27T10:47:05Z</time>
      </trkpt>
      <trkpt lat="43.8206" lon="7.4598">
        <ele>937.67217113157</ele>
        <time>2021-01-27T10:47:06Z</time>
      </trkpt>
      <trkpt lat="43.82061" lon="7.4598">
        <ele>937.67214413565</ele>
        <time>2021-01-27T10:47:07Z</time>
      </trkpt>
      <trkpt lat="43.82062" lon="7.4598">
        <ele>937.67210265942</ele>
        <time>2021-01-27T10:47:08Z</time>
      </trkpt>
      <trkpt lat="43.82062" lon="7.45979">
        <ele>937.67207439462</ele>
        <time>2021-01-27T10:47:09Z</time>
      </trkpt>
      <trkpt lat="43.82063" lon="7.45979">
        <ele>936.67203299149</ele>
        <time>2021-01-27T10:47:10Z</time>
      </trkpt>
      <trkpt lat="43.82065" lon="7.45979">
        <ele>936.67194505511</ele>
        <time>2021-01-27T10:47:12Z</time>
      </trkpt>
      <trkpt lat="43.82066" lon="7.45979">
        <ele>937.67190764577</ele>
        <time>2021-01-27T10:47:13Z</time>
      </trkpt>
      <trkpt lat="43.82067" lon="7.45979">
        <ele>937.67186581033</ele>
        <time>2021-01-27T10:47:14Z</time>
      </trkpt>
      <trkpt lat="43.82067" lon="7.4598">
        <ele>938.67184173366</ele>
        <time>2021-01-27T10:47:15Z</time>
      </trkpt>
      <trkpt lat="43.82068" lon="7.4598">
        <ele>938.67182514781</ele>
        <time>2021-01-27T10:47:16Z</time>
      </trkpt>
      <trkpt lat="43.82068" lon="7.4598">
        <ele>938.67179501597</ele>
        <time>2021-01-27T10:47:17Z</time>
      </trkpt>
      <trkpt lat="43.82069" lon="7.45979">
        <ele>937.67175640577</ele>
        <time>2021-01-27T10:47:18Z</time>
      </trkpt>
      <trkpt lat="43.82069" lon="7.45979">
        <ele>938.6717462466</ele>
        <time>2021-01-27T10:48:05Z</time>
      </trkpt>
      <trkpt lat="43.82068" lon="7.45978">
        <ele>939.67177328294</ele>
        <time>2021-01-27T10:48:06Z</time>
      </trkpt>
      <trkpt lat="43.82069" lon="7.45977">
        <ele>939.67173668215</ele>
        <time>2021-01-27T10:49:30Z</time>
      </trkpt>
      <trkpt lat="43.8207" lon="7.45976">
        <ele>939.67168568761</ele>
        <time>2021-01-27T10:49:31Z</time>
      </trkpt>
      <trkpt lat="43.82071" lon="7.45975">
        <ele>939.67164448201</ele>
        <time>2021-01-27T10:49:32Z</time>
      </trkpt>
      <trkpt lat="43.82071" lon="7.45974">
        <ele>938.67160550048</ele>
        <time>2021-01-27T10:49:33Z</time>
      </trkpt>
      <trkpt lat="43.82072" lon="7.45974">
        <ele>938.67154873522</ele>
        <time>2021-01-27T10:49:34Z</time>
      </trkpt>
      <trkpt lat="43.82073" lon="7.45973">
        <ele>938.67149951515</ele>
        <time>2021-01-27T10:49:35Z</time>
      </trkpt>
      <trkpt lat="43.82074" lon="7.45973">
        <ele>938.67145913291</ele>
        <time>2021-01-27T10:49:36Z</time>
      </trkpt>
      <trkpt lat="43.82076" lon="7.45971">
        <ele>937.67134426512</ele>
        <time>2021-01-27T10:49:38Z</time>
      </trkpt>
      <trkpt lat="43.82077" lon="7.4597">
        <ele>937.67128964854</ele>
        <time>2021-01-27T10:49:39Z</time>
      </trkpt>
      <trkpt lat="43.82078" lon="7.4597">
        <ele>937.67125450675</ele>
        <time>2021-01-27T10:49:40Z</time>
      </trkpt>
      <trkpt lat="43.82079" lon="7.45969">
        <ele>937.67120757621</ele>
        <time>2021-01-27T10:49:41Z</time>
      </trkpt>
      <trkpt lat="43.82079" lon="7.45969">
        <ele>937.67117218051</ele>
        <time>2021-01-27T10:49:42Z</time>
      </trkpt>
      <trkpt lat="43.8208" lon="7.45968">
        <ele>937.67113562222</ele>
        <time>2021-01-27T10:49:43Z</time>
      </trkpt>
      <trkpt lat="43.82081" lon="7.45967">
        <ele>937.67107888722</ele>
        <time>2021-01-27T10:49:44Z</time>
      </trkpt>
      <trkpt lat="43.82082" lon="7.45967">
        <ele>937.6710336219</ele>
        <time>2021-01-27T10:49:45Z</time>
      </trkpt>
      <trkpt lat="43.82083" lon="7.45967">
        <ele>936.67098665153</ele>
        <time>2021-01-27T10:49:46Z</time>
      </trkpt>
      <trkpt lat="43.82084" lon="7.45966">
        <ele>936.67093733245</ele>
        <time>2021-01-27T10:49:47Z</time>
      </trkpt>
      <trkpt lat="43.82085" lon="7.45966">
        <ele>936.67087734218</ele>
        <time>2021-01-27T10:49:48Z</time>
      </trkpt>
      <trkpt lat="43.82086" lon="7.45965">
        <ele>937.67082703577</ele>
        <time>2021-01-27T10:49:49Z</time>
      </trkpt>
      <trkpt lat="43.82086" lon="7.45964">
        <ele>937.67078196068</ele>
        <time>2021-01-27T10:49:50Z</time>
      </trkpt>
      <trkpt lat="43.82087" lon="7.45963">
        <ele>938.67073644044</ele>
        <time>2021-01-27T10:49:51Z</time>
      </trkpt>
      <trkpt lat="43.82088" lon="7.45962">
        <ele>938.67068378724</ele>
        <time>2021-01-27T10:49:52Z</time>
      </trkpt>
      <trkpt lat="43.82089" lon="7.45961">
        <ele>938.67064320712</ele>
        <time>2021-01-27T10:49:53Z</time>
      </trkpt>
      <trkpt lat="43.8209" lon="7.4596">
        <ele>938.67059636197</ele>
        <time>2021-01-27T10:49:54Z</time>
      </trkpt>
      <trkpt lat="43.8209" lon="7.4596">
        <ele>938.67055551926</ele>
        <time>2021-01-27T10:49:55Z</time>
      </trkpt>
      <trkpt lat="43.82091" lon="7.4596">
        <ele>938.67051676379</ele>
        <time>2021-01-27T10:49:56Z</time>
      </trkpt>
      <trkpt lat="43.82092" lon="7.45958">
        <ele>938.67046524938</ele>
        <time>2021-01-27T10:49:57Z</time>
      </trkpt>
      <trkpt lat="43.82093" lon="7.45957">
        <ele>938.67041720131</ele>
        <time>2021-01-27T10:49:58Z</time>
      </trkpt>
      <trkpt lat="43.82093" lon="7.45956">
        <ele>938.67037891999</ele>
        <time>2021-01-27T10:49:59Z</time>
      </trkpt>
      <trkpt lat="43.82094" lon="7.45955">
        <ele>939.67033005694</ele>
        <time>2021-01-27T10:50:00Z</time>
      </trkpt>
      <trkpt lat="43.82095" lon="7.45955">
        <ele>939.67028618722</ele>
        <time>2021-01-27T10:50:01Z</time>
      </trkpt>
      <trkpt lat="43.82096" lon="7.45954">
        <ele>940.67023872494</ele>
        <time>2021-01-27T10:50:02Z</time>
      </trkpt>
      <trkpt lat="43.82097" lon="7.45954">
        <ele>940.67018929779</ele>
        <time>2021-01-27T10:50:03Z</time>
      </trkpt>
      <trkpt lat="43.82098" lon="7.45953">
        <ele>940.67014676633</ele>
        <time>2021-01-27T10:50:04Z</time>
      </trkpt>
      <trkpt lat="43.82098" lon="7.45953">
        <ele>940.67010052545</ele>
        <time>2021-01-27T10:50:05Z</time>
      </trkpt>
      <trkpt lat="43.82099" lon="7.45951">
        <ele>940.67007082726</ele>
        <time>2021-01-27T10:50:06Z</time>
      </trkpt>
      <trkpt lat="43.82099" lon="7.45951">
        <ele>940.67002934385</ele>
        <time>2021-01-27T10:50:07Z</time>
      </trkpt>
      <trkpt lat="43.821" lon="7.45949">
        <ele>940.66998066058</ele>
        <time>2021-01-27T10:50:08Z</time>
      </trkpt>
      <trkpt lat="43.82101" lon="7.45948">
        <ele>940.66993977546</ele>
        <time>2021-01-27T10:50:09Z</time>
      </trkpt>
      <trkpt lat="43.82101" lon="7.45947">
        <ele>941.66989933383</ele>
        <time>2021-01-27T10:50:10Z</time>
      </trkpt>
      <trkpt lat="43.82102" lon="7.45946">
        <ele>941.66985398927</ele>
        <time>2021-01-27T10:50:11Z</time>
      </trkpt>
      <trkpt lat="43.82103" lon="7.45946">
        <ele>941.66979708734</ele>
        <time>2021-01-27T10:50:12Z</time>
      </trkpt>
      <trkpt lat="43.82104" lon="7.45945">
        <ele>941.6697428454</ele>
        <time>2021-01-27T10:50:13Z</time>
      </trkpt>
      <trkpt lat="43.82105" lon="7.45944">
        <ele>941.66969424689</ele>
        <time>2021-01-27T10:50:14Z</time>
      </trkpt>
      <trkpt lat="43.82106" lon="7.45943">
        <ele>941.66964721343</ele>
        <time>2021-01-27T10:50:15Z</time>
      </trkpt>
      <trkpt lat="43.82106" lon="7.45942">
        <ele>941.66960900113</ele>
        <time>2021-01-27T10:50:16Z</time>
      </trkpt>
      <trkpt lat="43.82108" lon="7.4594">
        <ele>941.66951649239</ele>
        <time>2021-01-27T10:50:18Z</time>
      </trkpt>
      <trkpt lat="43.82109" lon="7.45939">
        <ele>942.66946985093</ele>
        <time>2021-01-27T10:50:19Z</time>
      </trkpt>
      <trkpt lat="43.8211" lon="7.45939">
        <ele>942.66942058357</ele>
        <time>2021-01-27T10:50:20Z</time>
      </trkpt>
      <trkpt lat="43.82111" lon="7.45937">
        <ele>942.66933041553</ele>
        <time>2021-01-27T10:50:22Z</time>
      </trkpt>
      <trkpt lat="43.82112" lon="7.45936">
        <ele>942.66927459904</ele>
        <time>2021-01-27T10:50:23Z</time>
      </trkpt>
      <trkpt lat="43.82113" lon="7.45935">
        <ele>943.6692282466</ele>
        <time>2021-01-27T10:50:24Z</time>
      </trkpt>
      <trkpt lat="43.82115" lon="7.45934">
        <ele>943.66912060972</ele>
        <time>2021-01-27T10:50:26Z</time>
      </trkpt>
      <trkpt lat="43.82116" lon="7.45933">
        <ele>943.66904567352</ele>
        <time>2021-01-27T10:50:28Z</time>
      </trkpt>
      <trkpt lat="43.82117" lon="7.45931">
        <ele>943.66900706854</ele>
        <time>2021-01-27T10:50:29Z</time>
      </trkpt>
      <trkpt lat="43.82117" lon="7.4593">
        <ele>943.66896480626</ele>
        <time>2021-01-27T10:50:30Z</time>
      </trkpt>
      <trkpt lat="43.82118" lon="7.45929">
        <ele>943.66893077197</ele>
        <time>2021-01-27T10:50:31Z</time>
      </trkpt>
      <trkpt lat="43.82118" lon="7.45927">
        <ele>944.66888352095</ele>
        <time>2021-01-27T10:50:32Z</time>
      </trkpt>
      <trkpt lat="43.82119" lon="7.45926">
        <ele>945.66883081028</ele>
        <time>2021-01-27T10:50:33Z</time>
      </trkpt>
      <trkpt lat="43.8212" lon="7.45925">
        <ele>945.66877350587</ele>
        <time>2021-01-27T10:50:34Z</time>
      </trkpt>
      <trkpt lat="43.82121" lon="7.45923">
        <ele>946.66871688935</ele>
        <time>2021-01-27T10:50:35Z</time>
      </trkpt>
      <trkpt lat="43.82122" lon="7.45922">
        <ele>946.66863721753</ele>
        <time>2021-01-27T10:50:36Z</time>
      </trkpt>
      <trkpt lat="43.82125" lon="7.45921">
        <ele>947.66848978864</ele>
        <time>2021-01-27T10:50:38Z</time>
      </trkpt>
      <trkpt lat="43.82126" lon="7.4592">
        <ele>947.66843721465</ele>
        <time>2021-01-27T10:50:39Z</time>
      </trkpt>
      <trkpt lat="43.82127" lon="7.45919">
        <ele>947.66837541604</ele>
        <time>2021-01-27T10:50:40Z</time>
      </trkpt>
      <trkpt lat="43.82128" lon="7.45918">
        <ele>947.66833294697</ele>
        <time>2021-01-27T10:50:41Z</time>
      </trkpt>
      <trkpt lat="43.82129" lon="7.45918">
        <ele>947.66829576462</ele>
        <time>2021-01-27T10:50:42Z</time>
      </trkpt>
      <trkpt lat="43.82129" lon="7.45917">
        <ele>947.66825384277</ele>
        <time>2021-01-27T10:50:43Z</time>
      </trkpt>
      <trkpt lat="43.8213" lon="7.45916">
        <ele>947.66820661447</ele>
        <time>2021-01-27T10:50:44Z</time>
      </trkpt>
      <trkpt lat="43.82131" lon="7.45914">
        <ele>948.66813202659</ele>
        <time>2021-01-27T10:50:46Z</time>
      </trkpt>
      <trkpt lat="43.82131" lon="7.45913">
        <ele>948.66811425096</ele>
        <time>2021-01-27T10:50:47Z</time>
      </trkpt>
      <trkpt lat="43.82132" lon="7.45911">
        <ele>948.66807206676</ele>
        <time>2021-01-27T10:50:48Z</time>
      </trkpt>
      <trkpt lat="43.82132" lon="7.4591">
        <ele>948.6680404024</ele>
        <time>2021-01-27T10:50:49Z</time>
      </trkpt>
      <trkpt lat="43.82133" lon="7.45909">
        <ele>948.66799676434</ele>
        <time>2021-01-27T10:50:50Z</time>
      </trkpt>
      <trkpt lat="43.82134" lon="7.45908">
        <ele>947.66792421545</ele>
        <time>2021-01-27T10:50:51Z</time>
      </trkpt>
      <trkpt lat="43.82135" lon="7.45907">
        <ele>948.66786291482</ele>
        <time>2021-01-27T10:50:52Z</time>
      </trkpt>
      <trkpt lat="43.82136" lon="7.45906">
        <ele>947.66781943351</ele>
        <time>2021-01-27T10:50:53Z</time>
      </trkpt>
      <trkpt lat="43.82137" lon="7.45905">
        <ele>947.66777514025</ele>
        <time>2021-01-27T10:50:54Z</time>
      </trkpt>
      <trkpt lat="43.82138" lon="7.45905">
        <ele>947.66770909674</ele>
        <time>2021-01-27T10:50:55Z</time>
      </trkpt>
      <trkpt lat="43.82139" lon="7.45904">
        <ele>947.66763706836</ele>
        <time>2021-01-27T10:50:56Z</time>
      </trkpt>
      <trkpt lat="43.8214" lon="7.45904">
        <ele>947.66758628103</ele>
        <time>2021-01-27T10:50:57Z</time>
      </trkpt>
      <trkpt lat="43.82141" lon="7.45903">
        <ele>947.6675578705</ele>
        <time>2021-01-27T10:50:58Z</time>
      </trkpt>
      <trkpt lat="43.82141" lon="7.45903">
        <ele>947.66752767535</ele>
        <time>2021-01-27T10:50:59Z</time>
      </trkpt>
      <trkpt lat="43.82142" lon="7.45902">
        <ele>947.66749717796</ele>
        <time>2021-01-27T10:51:00Z</time>
      </trkpt>
      <trkpt lat="43.82143" lon="7.459">
        <ele>948.66740086343</ele>
        <time>2021-01-27T10:51:02Z</time>
      </trkpt>
      <trkpt lat="43.82144" lon="7.45899">
        <ele>948.6673695343</ele>
        <time>2021-01-27T10:51:03Z</time>
      </trkpt>
      <trkpt lat="43.82144" lon="7.45897">
        <ele>948.66734037098</ele>
        <time>2021-01-27T10:51:04Z</time>
      </trkpt>
      <trkpt lat="43.82146" lon="7.45895">
        <ele>947.66723173762</ele>
        <time>2021-01-27T10:51:06Z</time>
      </trkpt>
      <trkpt lat="43.82147" lon="7.45893">
        <ele>948.66713679506</ele>
        <time>2021-01-27T10:51:08Z</time>
      </trkpt>
      <trkpt lat="43.82148" lon="7.45892">
        <ele>948.6670836084</ele>
        <time>2021-01-27T10:51:09Z</time>
      </trkpt>
      <trkpt lat="43.82149" lon="7.45891">
        <ele>948.66703722662</ele>
        <time>2021-01-27T10:51:10Z</time>
      </trkpt>
      <trkpt lat="43.82151" lon="7.45889">
        <ele>948.66694111397</ele>
        <time>2021-01-27T10:51:12Z</time>
      </trkpt>
      <trkpt lat="43.82152" lon="7.45888">
        <ele>949.66688263598</ele>
        <time>2021-01-27T10:51:13Z</time>
      </trkpt>
      <trkpt lat="43.82153" lon="7.45888">
        <ele>949.666831622</ele>
        <time>2021-01-27T10:51:14Z</time>
      </trkpt>
      <trkpt lat="43.82154" lon="7.45887">
        <ele>949.66677343646</ele>
        <time>2021-01-27T10:51:15Z</time>
      </trkpt>
      <trkpt lat="43.82155" lon="7.45886">
        <ele>950.66671585022</ele>
        <time>2021-01-27T10:51:16Z</time>
      </trkpt>
      <trkpt lat="43.82156" lon="7.45884">
        <ele>950.66665803908</ele>
        <time>2021-01-27T10:51:17Z</time>
      </trkpt>
      <trkpt lat="43.82156" lon="7.45883">
        <ele>950.6666078815</ele>
        <time>2021-01-27T10:51:18Z</time>
      </trkpt>
      <trkpt lat="43.82157" lon="7.45881">
        <ele>950.66654803706</ele>
        <time>2021-01-27T10:51:19Z</time>
      </trkpt>
      <trkpt lat="43.82158" lon="7.4588">
        <ele>951.66648534869</ele>
        <time>2021-01-27T10:51:20Z</time>
      </trkpt>
      <trkpt lat="43.82159" lon="7.45878">
        <ele>951.66643267826</ele>
        <time>2021-01-27T10:51:21Z</time>
      </trkpt>
      <trkpt lat="43.8216" lon="7.45877">
        <ele>951.66638312256</ele>
        <time>2021-01-27T10:51:22Z</time>
      </trkpt>
      <trkpt lat="43.8216" lon="7.45876">
        <ele>952.6663422819</ele>
        <time>2021-01-27T10:51:23Z</time>
      </trkpt>
      <trkpt lat="43.82161" lon="7.45874">
        <ele>952.66629238153</ele>
        <time>2021-01-27T10:51:24Z</time>
      </trkpt>
      <trkpt lat="43.82161" lon="7.45873">
        <ele>952.6662606346</ele>
        <time>2021-01-27T10:51:25Z</time>
      </trkpt>
      <trkpt lat="43.82162" lon="7.45872">
        <ele>952.66622265227</ele>
        <time>2021-01-27T10:51:26Z</time>
      </trkpt>
      <trkpt lat="43.82163" lon="7.45871">
        <ele>952.6661746649</ele>
        <time>2021-01-27T10:51:27Z</time>
      </trkpt>
      <trkpt lat="43.82164" lon="7.4587">
        <ele>953.66610356155</ele>
        <time>2021-01-27T10:51:28Z</time>
      </trkpt>
      <trkpt lat="43.82165" lon="7.45869">
        <ele>953.66605549136</ele>
        <time>2021-01-27T10:51:29Z</time>
      </trkpt>
      <trkpt lat="43.82165" lon="7.45867">
        <ele>953.66600267074</ele>
        <time>2021-01-27T10:51:30Z</time>
      </trkpt>
      <trkpt lat="43.82166" lon="7.45866">
        <ele>953.66594101414</ele>
        <time>2021-01-27T10:51:31Z</time>
      </trkpt>
      <trkpt lat="43.82167" lon="7.45864">
        <ele>953.66587731888</ele>
        <time>2021-01-27T10:51:32Z</time>
      </trkpt>
      <trkpt lat="43.82168" lon="7.45863">
        <ele>953.66582268372</ele>
        <time>2021-01-27T10:51:33Z</time>
      </trkpt>
      <trkpt lat="43.82169" lon="7.45861">
        <ele>953.66575936392</ele>
        <time>2021-01-27T10:51:34Z</time>
      </trkpt>
      <trkpt lat="43.8217" lon="7.4586">
        <ele>953.66569535394</ele>
        <time>2021-01-27T10:51:35Z</time>
      </trkpt>
      <trkpt lat="43.82171" lon="7.45859">
        <ele>953.66565271039</ele>
        <time>2021-01-27T10:51:36Z</time>
      </trkpt>
      <trkpt lat="43.82172" lon="7.45857">
        <ele>954.66560129502</ele>
        <time>2021-01-27T10:51:37Z</time>
      </trkpt>
      <trkpt lat="43.82172" lon="7.45856">
        <ele>954.66556756834</ele>
        <time>2021-01-27T10:51:38Z</time>
      </trkpt>
      <trkpt lat="43.82173" lon="7.45855">
        <ele>954.66552806566</ele>
        <time>2021-01-27T10:51:39Z</time>
      </trkpt>
      <trkpt lat="43.82173" lon="7.45854">
        <ele>954.66549082067</ele>
        <time>2021-01-27T10:51:40Z</time>
      </trkpt>
      <trkpt lat="43.82174" lon="7.45853">
        <ele>955.66546652304</ele>
        <time>2021-01-27T10:51:41Z</time>
      </trkpt>
      <trkpt lat="43.82174" lon="7.45853">
        <ele>955.66542907638</ele>
        <time>2021-01-27T10:51:42Z</time>
      </trkpt>
      <trkpt lat="43.82175" lon="7.45852">
        <ele>955.66537200557</ele>
        <time>2021-01-27T10:51:43Z</time>
      </trkpt>
      <trkpt lat="43.82176" lon="7.45853">
        <ele>955.66532213331</ele>
        <time>2021-01-27T10:51:44Z</time>
      </trkpt>
      <trkpt lat="43.82177" lon="7.45852">
        <ele>955.66529485311</ele>
        <time>2021-01-27T10:51:45Z</time>
      </trkpt>
      <trkpt lat="43.82178" lon="7.45851">
        <ele>955.66525603232</ele>
        <time>2021-01-27T10:51:46Z</time>
      </trkpt>
      <trkpt lat="43.82178" lon="7.4585">
        <ele>955.66521340544</ele>
        <time>2021-01-27T10:51:47Z</time>
      </trkpt>
      <trkpt lat="43.82179" lon="7.45849">
        <ele>955.66515932234</ele>
        <time>2021-01-27T10:51:48Z</time>
      </trkpt>
      <trkpt lat="43.8218" lon="7.45848">
        <ele>955.66512039584</ele>
        <time>2021-01-27T10:51:49Z</time>
      </trkpt>
      <trkpt lat="43.8218" lon="7.45846">
        <ele>955.66508083701</ele>
        <time>2021-01-27T10:51:50Z</time>
      </trkpt>
      <trkpt lat="43.82182" lon="7.45845">
        <ele>956.66498727373</ele>
        <time>2021-01-27T10:51:52Z</time>
      </trkpt>
      <trkpt lat="43.82183" lon="7.45844">
        <ele>956.66492468579</ele>
        <time>2021-01-27T10:51:53Z</time>
      </trkpt>
      <trkpt lat="43.82184" lon="7.45843">
        <ele>955.66488346483</ele>
        <time>2021-01-27T10:51:54Z</time>
      </trkpt>
      <trkpt lat="43.82184" lon="7.45842">
        <ele>956.66483014544</ele>
        <time>2021-01-27T10:51:55Z</time>
      </trkpt>
      <trkpt lat="43.82185" lon="7.45842">
        <ele>956.66478742759</ele>
        <time>2021-01-27T10:51:56Z</time>
      </trkpt>
      <trkpt lat="43.82186" lon="7.4584">
        <ele>956.66474313689</ele>
        <time>2021-01-27T10:51:57Z</time>
      </trkpt>
      <trkpt lat="43.82187" lon="7.4584">
        <ele>956.66468674471</ele>
        <time>2021-01-27T10:51:58Z</time>
      </trkpt>
      <trkpt lat="43.82188" lon="7.45839">
        <ele>956.66463205488</ele>
        <time>2021-01-27T10:51:59Z</time>
      </trkpt>
      <trkpt lat="43.82188" lon="7.45838">
        <ele>957.66459694488</ele>
        <time>2021-01-27T10:52:00Z</time>
      </trkpt>
      <trkpt lat="43.8219" lon="7.45836">
        <ele>957.66451736615</ele>
        <time>2021-01-27T10:52:02Z</time>
      </trkpt>
      <trkpt lat="43.8219" lon="7.45835">
        <ele>957.66447715766</ele>
        <time>2021-01-27T10:52:03Z</time>
      </trkpt>
      <trkpt lat="43.82191" lon="7.45835">
        <ele>957.66443033486</ele>
        <time>2021-01-27T10:52:04Z</time>
      </trkpt>
      <trkpt lat="43.82192" lon="7.45834">
        <ele>956.66437896929</ele>
        <time>2021-01-27T10:52:05Z</time>
      </trkpt>
      <trkpt lat="43.82193" lon="7.45833">
        <ele>956.66433914034</ele>
        <time>2021-01-27T10:52:06Z</time>
      </trkpt>
      <trkpt lat="43.82194" lon="7.45832">
        <ele>956.66428631478</ele>
        <time>2021-01-27T10:52:07Z</time>
      </trkpt>
      <trkpt lat="43.82195" lon="7.45831">
        <ele>956.6642274332</ele>
        <time>2021-01-27T10:52:08Z</time>
      </trkpt>
      <trkpt lat="43.82196" lon="7.45829">
        <ele>956.66415890591</ele>
        <time>2021-01-27T10:52:09Z</time>
      </trkpt>
      <trkpt lat="43.82196" lon="7.45829">
        <ele>956.66411460176</ele>
        <time>2021-01-27T10:52:10Z</time>
      </trkpt>
      <trkpt lat="43.82197" lon="7.45828">
        <ele>956.66406365284</ele>
        <time>2021-01-27T10:52:11Z</time>
      </trkpt>
      <trkpt lat="43.82198" lon="7.45827">
        <ele>956.66403394823</ele>
        <time>2021-01-27T10:52:12Z</time>
      </trkpt>
      <trkpt lat="43.82198" lon="7.45827">
        <ele>956.66400651576</ele>
        <time>2021-01-27T10:52:13Z</time>
      </trkpt>
      <trkpt lat="43.82199" lon="7.45827">
        <ele>956.66396090837</ele>
        <time>2021-01-27T10:52:14Z</time>
      </trkpt>
      <trkpt lat="43.822" lon="7.45827">
        <ele>956.66392571422</ele>
        <time>2021-01-27T10:52:15Z</time>
      </trkpt>
      <trkpt lat="43.82201" lon="7.45827">
        <ele>956.66389256265</ele>
        <time>2021-01-27T10:52:16Z</time>
      </trkpt>
      <trkpt lat="43.82201" lon="7.45828">
        <ele>957.66387006166</ele>
        <time>2021-01-27T10:52:18Z</time>
      </trkpt>
      <trkpt lat="43.82201" lon="7.45828">
        <ele>958.6639028981</ele>
        <time>2021-01-27T10:52:19Z</time>
      </trkpt>
      <trkpt lat="43.822" lon="7.4583">
        <ele>958.66393863014</ele>
        <time>2021-01-27T10:52:20Z</time>
      </trkpt>
      <trkpt lat="43.822" lon="7.45831">
        <ele>959.66399322676</ele>
        <time>2021-01-27T10:52:21Z</time>
      </trkpt>
      <trkpt lat="43.82199" lon="7.45832">
        <ele>959.66402957383</ele>
        <time>2021-01-27T10:52:22Z</time>
      </trkpt>
      <trkpt lat="43.82198" lon="7.45833">
        <ele>959.66406783503</ele>
        <time>2021-01-27T10:52:23Z</time>
      </trkpt>
      <trkpt lat="43.82198" lon="7.45834">
        <ele>959.66411776751</ele>
        <time>2021-01-27T10:52:24Z</time>
      </trkpt>
      <trkpt lat="43.82197" lon="7.45835">
        <ele>959.66416550061</ele>
        <time>2021-01-27T10:52:25Z</time>
      </trkpt>
      <trkpt lat="43.82196" lon="7.45836">
        <ele>958.66420120777</ele>
        <time>2021-01-27T10:52:26Z</time>
      </trkpt>
      <trkpt lat="43.82195" lon="7.45837">
        <ele>959.6642610096</ele>
        <time>2021-01-27T10:52:27Z</time>
      </trkpt>
      <trkpt lat="43.82194" lon="7.45838">
        <ele>959.66431251951</ele>
        <time>2021-01-27T10:52:28Z</time>
      </trkpt>
      <trkpt lat="43.82194" lon="7.45839">
        <ele>959.66436370141</ele>
        <time>2021-01-27T10:52:29Z</time>
      </trkpt>
      <trkpt lat="43.82193" lon="7.4584">
        <ele>959.66441175207</ele>
        <time>2021-01-27T10:52:30Z</time>
      </trkpt>
      <trkpt lat="43.82192" lon="7.45841">
        <ele>960.66446447197</ele>
        <time>2021-01-27T10:52:31Z</time>
      </trkpt>
      <trkpt lat="43.82192" lon="7.45842">
        <ele>960.66448425791</ele>
        <time>2021-01-27T10:52:32Z</time>
      </trkpt>
      <trkpt lat="43.82191" lon="7.45842">
        <ele>962.66452128028</ele>
        <time>2021-01-27T10:52:34Z</time>
      </trkpt>
      <trkpt lat="43.8219" lon="7.45845">
        <ele>962.66457770764</ele>
        <time>2021-01-27T10:52:36Z</time>
      </trkpt>
      <trkpt lat="43.8219" lon="7.45846">
        <ele>963.66462019776</ele>
        <time>2021-01-27T10:52:37Z</time>
      </trkpt>
      <trkpt lat="43.8219" lon="7.45848">
        <ele>962.66465477362</ele>
        <time>2021-01-27T10:52:38Z</time>
      </trkpt>
      <trkpt lat="43.82189" lon="7.45849">
        <ele>962.66469592754</ele>
        <time>2021-01-27T10:52:39Z</time>
      </trkpt>
      <trkpt lat="43.82189" lon="7.45851">
        <ele>962.66473431361</ele>
        <time>2021-01-27T10:52:40Z</time>
      </trkpt>
      <trkpt lat="43.82189" lon="7.45853">
        <ele>963.66475510574</ele>
        <time>2021-01-27T10:52:41Z</time>
      </trkpt>
      <trkpt lat="43.82188" lon="7.45854">
        <ele>963.66479162499</ele>
        <time>2021-01-27T10:52:42Z</time>
      </trkpt>
      <trkpt lat="43.82188" lon="7.45855">
        <ele>964.6648345505</ele>
        <time>2021-01-27T10:52:43Z</time>
      </trkpt>
      <trkpt lat="43.82187" lon="7.45857">
        <ele>964.66486572455</ele>
        <time>2021-01-27T10:52:44Z</time>
      </trkpt>
      <trkpt lat="43.82187" lon="7.45858">
        <ele>964.66490482337</ele>
        <time>2021-01-27T10:52:45Z</time>
      </trkpt>
      <trkpt lat="43.82186" lon="7.45859">
        <ele>964.66494240807</ele>
        <time>2021-01-27T10:52:46Z</time>
      </trkpt>
      <trkpt lat="43.82186" lon="7.45861">
        <ele>964.66497265142</ele>
        <time>2021-01-27T10:52:47Z</time>
      </trkpt>
      <trkpt lat="43.82186" lon="7.45862">
        <ele>964.66500528585</ele>
        <time>2021-01-27T10:52:48Z</time>
      </trkpt>
      <trkpt lat="43.82185" lon="7.45863">
        <ele>964.66503780906</ele>
        <time>2021-01-27T10:52:49Z</time>
      </trkpt>
      <trkpt lat="43.82185" lon="7.45864">
        <ele>965.66505778913</ele>
        <time>2021-01-27T10:52:50Z</time>
      </trkpt>
      <trkpt lat="43.82185" lon="7.45865">
        <ele>965.66508761995</ele>
        <time>2021-01-27T10:52:51Z</time>
      </trkpt>
      <trkpt lat="43.82185" lon="7.45867">
        <ele>966.6650959663</ele>
        <time>2021-01-27T10:52:52Z</time>
      </trkpt>
      <trkpt lat="43.82185" lon="7.45868">
        <ele>967.66512702774</ele>
        <time>2021-01-27T10:52:53Z</time>
      </trkpt>
      <trkpt lat="43.82184" lon="7.4587">
        <ele>968.6651460774</ele>
        <time>2021-01-27T10:52:54Z</time>
      </trkpt>
      <trkpt lat="43.82184" lon="7.45872">
        <ele>968.6651869178</ele>
        <time>2021-01-27T10:52:56Z</time>
      </trkpt>
      <trkpt lat="43.82184" lon="7.45873">
        <ele>967.66520816433</ele>
        <time>2021-01-27T10:52:57Z</time>
      </trkpt>
      <trkpt lat="43.82184" lon="7.45874">
        <ele>967.66522429552</ele>
        <time>2021-01-27T10:52:58Z</time>
      </trkpt>
      <trkpt lat="43.82184" lon="7.45876">
        <ele>968.66525580776</ele>
        <time>2021-01-27T10:52:59Z</time>
      </trkpt>
      <trkpt lat="43.82183" lon="7.45878">
        <ele>969.66531706832</ele>
        <time>2021-01-27T10:53:01Z</time>
      </trkpt>
      <trkpt lat="43.82183" lon="7.45879">
        <ele>969.66533999213</ele>
        <time>2021-01-27T10:53:02Z</time>
      </trkpt>
      <trkpt lat="43.82182" lon="7.4588">
        <ele>969.66536489929</ele>
        <time>2021-01-27T10:53:07Z</time>
      </trkpt>
      <trkpt lat="43.82182" lon="7.45883">
        <ele>968.66540631772</ele>
        <time>2021-01-27T10:53:08Z</time>
      </trkpt>
      <trkpt lat="43.82182" lon="7.45884">
        <ele>968.66542443867</ele>
        <time>2021-01-27T10:53:09Z</time>
      </trkpt>
      <trkpt lat="43.82182" lon="7.45885">
        <ele>969.66544991028</ele>
        <time>2021-01-27T10:53:10Z</time>
      </trkpt>
      <trkpt lat="43.82182" lon="7.45886">
        <ele>969.66546239457</ele>
        <time>2021-01-27T10:53:11Z</time>
      </trkpt>
      <trkpt lat="43.82181" lon="7.45887">
        <ele>970.66550660542</ele>
        <time>2021-01-27T10:53:12Z</time>
      </trkpt>
      <trkpt lat="43.8218" lon="7.45888">
        <ele>970.66554933047</ele>
        <time>2021-01-27T10:53:13Z</time>
      </trkpt>
      <trkpt lat="43.8218" lon="7.45889">
        <ele>970.66559395573</ele>
        <time>2021-01-27T10:53:14Z</time>
      </trkpt>
      <trkpt lat="43.82179" lon="7.4589">
        <ele>971.66563713967</ele>
        <time>2021-01-27T10:53:15Z</time>
      </trkpt>
      <trkpt lat="43.82179" lon="7.45892">
        <ele>970.66565549289</ele>
        <time>2021-01-27T10:53:17Z</time>
      </trkpt>
      <trkpt lat="43.82179" lon="7.45893">
        <ele>970.66568724987</ele>
        <time>2021-01-27T10:53:18Z</time>
      </trkpt>
      <trkpt lat="43.82178" lon="7.45894">
        <ele>969.66571849887</ele>
        <time>2021-01-27T10:53:19Z</time>
      </trkpt>
      <trkpt lat="43.82178" lon="7.45896">
        <ele>970.66574826296</ele>
        <time>2021-01-27T10:53:20Z</time>
      </trkpt>
      <trkpt lat="43.82177" lon="7.45897">
        <ele>970.66578377085</ele>
        <time>2021-01-27T10:53:21Z</time>
      </trkpt>
      <trkpt lat="43.82177" lon="7.45898">
        <ele>970.66582924248</ele>
        <time>2021-01-27T10:53:22Z</time>
      </trkpt>
      <trkpt lat="43.82177" lon="7.45899">
        <ele>971.66585548395</ele>
        <time>2021-01-27T10:53:23Z</time>
      </trkpt>
      <trkpt lat="43.82176" lon="7.45901">
        <ele>971.66588773891</ele>
        <time>2021-01-27T10:53:24Z</time>
      </trkpt>
      <trkpt lat="43.82176" lon="7.45902">
        <ele>972.66591649611</ele>
        <time>2021-01-27T10:53:25Z</time>
      </trkpt>
      <trkpt lat="43.82175" lon="7.45905">
        <ele>972.66600090644</ele>
        <time>2021-01-27T10:53:27Z</time>
      </trkpt>
      <trkpt lat="43.82174" lon="7.45906">
        <ele>972.66604178341</ele>
        <time>2021-01-27T10:53:28Z</time>
      </trkpt>
      <trkpt lat="43.82174" lon="7.45908">
        <ele>972.66607950218</ele>
        <time>2021-01-27T10:53:29Z</time>
      </trkpt>
      <trkpt lat="43.82174" lon="7.45909">
        <ele>972.66610869739</ele>
        <time>2021-01-27T10:53:30Z</time>
      </trkpt>
      <trkpt lat="43.82174" lon="7.45911">
        <ele>972.66612569902</ele>
        <time>2021-01-27T10:53:31Z</time>
      </trkpt>
      <trkpt lat="43.82173" lon="7.45913">
        <ele>973.6661639857</ele>
        <time>2021-01-27T10:53:32Z</time>
      </trkpt>
      <trkpt lat="43.82173" lon="7.45915">
        <ele>973.66619311582</ele>
        <time>2021-01-27T10:53:33Z</time>
      </trkpt>
      <trkpt lat="43.82173" lon="7.45916">
        <ele>973.66621741919</ele>
        <time>2021-01-27T10:53:34Z</time>
      </trkpt>
      <trkpt lat="43.82173" lon="7.45916">
        <ele>974.666210774</ele>
        <time>2021-01-27T10:53:35Z</time>
      </trkpt>
      <trkpt lat="43.82172" lon="7.45918">
        <ele>974.6662630494</ele>
        <time>2021-01-27T10:53:36Z</time>
      </trkpt>
      <trkpt lat="43.82172" lon="7.45918">
        <ele>974.66629400953</ele>
        <time>2021-01-27T10:53:37Z</time>
      </trkpt>
      <trkpt lat="43.82171" lon="7.4592">
        <ele>974.66632656096</ele>
        <time>2021-01-27T10:53:38Z</time>
      </trkpt>
      <trkpt lat="43.82171" lon="7.45921">
        <ele>975.66634141162</ele>
        <time>2021-01-27T10:53:39Z</time>
      </trkpt>
      <trkpt lat="43.82171" lon="7.45923">
        <ele>975.66637388416</ele>
        <time>2021-01-27T10:53:40Z</time>
      </trkpt>
      <trkpt lat="43.8217" lon="7.45925">
        <ele>975.66643540637</ele>
        <time>2021-01-27T10:53:42Z</time>
      </trkpt>
      <trkpt lat="43.8217" lon="7.45926">
        <ele>975.66645262325</ele>
        <time>2021-01-27T10:53:43Z</time>
      </trkpt>
      <trkpt lat="43.8217" lon="7.45927">
        <ele>975.66648817937</ele>
        <time>2021-01-27T10:53:44Z</time>
      </trkpt>
      <trkpt lat="43.8217" lon="7.4593">
        <ele>975.66652466364</ele>
        <time>2021-01-27T10:53:46Z</time>
      </trkpt>
      <trkpt lat="43.82169" lon="7.45933">
        <ele>977.66657068219</ele>
        <time>2021-01-27T10:53:48Z</time>
      </trkpt>
      <trkpt lat="43.82169" lon="7.45934">
        <ele>977.66658415356</ele>
        <time>2021-01-27T10:53:49Z</time>
      </trkpt>
      <trkpt lat="43.82169" lon="7.45936">
        <ele>977.66661776381</ele>
        <time>2021-01-27T10:53:50Z</time>
      </trkpt>
      <trkpt lat="43.82169" lon="7.45939">
        <ele>977.66667320367</ele>
        <time>2021-01-27T10:53:52Z</time>
      </trkpt>
      <trkpt lat="43.82169" lon="7.4594">
        <ele>977.666673524</ele>
        <time>2021-01-27T10:53:53Z</time>
      </trkpt>
      <trkpt lat="43.82169" lon="7.45942">
        <ele>977.66669343312</ele>
        <time>2021-01-27T10:53:54Z</time>
      </trkpt>
      <trkpt lat="43.82168" lon="7.45945">
        <ele>977.66676573016</ele>
        <time>2021-01-27T10:53:56Z</time>
      </trkpt>
      <trkpt lat="43.82168" lon="7.45946">
        <ele>976.66678635346</ele>
        <time>2021-01-27T10:53:57Z</time>
      </trkpt>
      <trkpt lat="43.82168" lon="7.45948">
        <ele>977.6668339629</ele>
        <time>2021-01-27T10:53:58Z</time>
      </trkpt>
      <trkpt lat="43.82167" lon="7.4595">
        <ele>978.66687731932</ele>
        <time>2021-01-27T10:53:59Z</time>
      </trkpt>
      <trkpt lat="43.82167" lon="7.45952">
        <ele>978.66690351155</ele>
        <time>2021-01-27T10:54:00Z</time>
      </trkpt>
      <trkpt lat="43.82167" lon="7.45953">
        <ele>978.66693703213</ele>
        <time>2021-01-27T10:54:01Z</time>
      </trkpt>
      <trkpt lat="43.82165" lon="7.45955">
        <ele>978.66705426439</ele>
        <time>2021-01-27T10:54:03Z</time>
      </trkpt>
      <trkpt lat="43.82164" lon="7.45957">
        <ele>977.66709490607</ele>
        <time>2021-01-27T10:54:04Z</time>
      </trkpt>
      <trkpt lat="43.82164" lon="7.45958">
        <ele>978.66712398299</ele>
        <time>2021-01-27T10:54:05Z</time>
      </trkpt>
      <trkpt lat="43.82163" lon="7.45958">
        <ele>977.66713896492</ele>
        <time>2021-01-27T10:54:06Z</time>
      </trkpt>
      <trkpt lat="43.82164" lon="7.45959">
        <ele>977.66710746156</ele>
        <time>2021-01-27T10:54:07Z</time>
      </trkpt>
      <trkpt lat="43.82165" lon="7.45959">
        <ele>977.66708145913</ele>
        <time>2021-01-27T10:54:08Z</time>
      </trkpt>
      <trkpt lat="43.82166" lon="7.45959">
        <ele>977.6670270376</ele>
        <time>2021-01-27T10:54:09Z</time>
      </trkpt>
      <trkpt lat="43.82168" lon="7.45959">
        <ele>977.66693222026</ele>
        <time>2021-01-27T10:54:11Z</time>
      </trkpt>
      <trkpt lat="43.82169" lon="7.45956">
        <ele>977.66683420866</ele>
        <time>2021-01-27T10:54:13Z</time>
      </trkpt>
      <trkpt lat="43.82169" lon="7.45955">
        <ele>978.66682898469</ele>
        <time>2021-01-27T10:54:14Z</time>
      </trkpt>
      <trkpt lat="43.8217" lon="7.45954">
        <ele>978.66680495708</ele>
        <time>2021-01-27T10:54:15Z</time>
      </trkpt>
      <trkpt lat="43.82171" lon="7.45953">
        <ele>977.66674091819</ele>
        <time>2021-01-27T10:54:16Z</time>
      </trkpt>
      <trkpt lat="43.82172" lon="7.45952">
        <ele>977.66668984949</ele>
        <time>2021-01-27T10:54:17Z</time>
      </trkpt>
      <trkpt lat="43.82172" lon="7.45951">
        <ele>977.66664551875</ele>
        <time>2021-01-27T10:54:18Z</time>
      </trkpt>
      <trkpt lat="43.82173" lon="7.4595">
        <ele>977.66660742846</ele>
        <time>2021-01-27T10:54:19Z</time>
      </trkpt>
      <trkpt lat="43.82174" lon="7.45949">
        <ele>977.6665657845</ele>
        <time>2021-01-27T10:54:20Z</time>
      </trkpt>
      <trkpt lat="43.82174" lon="7.45948">
        <ele>976.66651463094</ele>
        <time>2021-01-27T10:54:22Z</time>
      </trkpt>
      <trkpt lat="43.82175" lon="7.45947">
        <ele>976.66645889714</ele>
        <time>2021-01-27T10:54:23Z</time>
      </trkpt>
      <trkpt lat="43.82176" lon="7.45946">
        <ele>976.66641314747</ele>
        <time>2021-01-27T10:54:24Z</time>
      </trkpt>
      <trkpt lat="43.82177" lon="7.45944">
        <ele>976.66635714191</ele>
        <time>2021-01-27T10:54:25Z</time>
      </trkpt>
      <trkpt lat="43.82177" lon="7.45943">
        <ele>976.66632122064</ele>
        <time>2021-01-27T10:54:26Z</time>
      </trkpt>
      <trkpt lat="43.82178" lon="7.45942">
        <ele>976.66629834789</ele>
        <time>2021-01-27T10:54:27Z</time>
      </trkpt>
      <trkpt lat="43.82178" lon="7.45941">
        <ele>977.66626489092</ele>
        <time>2021-01-27T10:54:28Z</time>
      </trkpt>
      <trkpt lat="43.82179" lon="7.4594">
        <ele>977.66620741195</ele>
        <time>2021-01-27T10:54:29Z</time>
      </trkpt>
      <trkpt lat="43.8218" lon="7.45938">
        <ele>976.66612639264</ele>
        <time>2021-01-27T10:54:31Z</time>
      </trkpt>
      <trkpt lat="43.82182" lon="7.45936">
        <ele>975.66601651361</ele>
        <time>2021-01-27T10:54:33Z</time>
      </trkpt>
      <trkpt lat="43.82183" lon="7.45935">
        <ele>975.66596693527</ele>
        <time>2021-01-27T10:54:34Z</time>
      </trkpt>
      <trkpt lat="43.82184" lon="7.45935">
        <ele>976.66593370711</ele>
        <time>2021-01-27T10:54:35Z</time>
      </trkpt>
      <trkpt lat="43.82184" lon="7.45935">
        <ele>975.66590203843</ele>
        <time>2021-01-27T10:54:36Z</time>
      </trkpt>
      <trkpt lat="43.82186" lon="7.45933">
        <ele>976.66579118957</ele>
        <time>2021-01-27T10:54:38Z</time>
      </trkpt>
      <trkpt lat="43.82187" lon="7.45932">
        <ele>976.66574505594</ele>
        <time>2021-01-27T10:54:39Z</time>
      </trkpt>
      <trkpt lat="43.82188" lon="7.45931">
        <ele>976.66569713528</ele>
        <time>2021-01-27T10:54:40Z</time>
      </trkpt>
      <trkpt lat="43.82189" lon="7.45929">
        <ele>976.6655977291</ele>
        <time>2021-01-27T10:54:42Z</time>
      </trkpt>
      <trkpt lat="43.8219" lon="7.45928">
        <ele>977.6655662833</ele>
        <time>2021-01-27T10:54:43Z</time>
      </trkpt>
      <trkpt lat="43.82191" lon="7.45927">
        <ele>976.66552015848</ele>
        <time>2021-01-27T10:54:44Z</time>
      </trkpt>
      <trkpt lat="43.82192" lon="7.45925">
        <ele>976.66540581753</ele>
        <time>2021-01-27T10:54:46Z</time>
      </trkpt>
      <trkpt lat="43.82194" lon="7.45923">
        <ele>976.66533229441</ele>
        <time>2021-01-27T10:54:48Z</time>
      </trkpt>
      <trkpt lat="43.82194" lon="7.45922">
        <ele>977.66529452185</ele>
        <time>2021-01-27T10:54:49Z</time>
      </trkpt>
      <trkpt lat="43.82195" lon="7.45921">
        <ele>977.6652385247</ele>
        <time>2021-01-27T10:54:50Z</time>
      </trkpt>
      <trkpt lat="43.82196" lon="7.4592">
        <ele>977.66520148137</ele>
        <time>2021-01-27T10:54:51Z</time>
      </trkpt>
      <trkpt lat="43.82196" lon="7.45919">
        <ele>977.66515849381</ele>
        <time>2021-01-27T10:54:52Z</time>
      </trkpt>
      <trkpt lat="43.82197" lon="7.45918">
        <ele>976.66509719887</ele>
        <time>2021-01-27T10:54:53Z</time>
      </trkpt>
      <trkpt lat="43.82198" lon="7.45917">
        <ele>976.66504068884</ele>
        <time>2021-01-27T10:54:54Z</time>
      </trkpt>
      <trkpt lat="43.82199" lon="7.45916">
        <ele>976.66500778668</ele>
        <time>2021-01-27T10:54:55Z</time>
      </trkpt>
      <trkpt lat="43.822" lon="7.45915">
        <ele>976.66494397771</ele>
        <time>2021-01-27T10:54:56Z</time>
      </trkpt>
      <trkpt lat="43.82202" lon="7.45914">
        <ele>975.66485663453</ele>
        <time>2021-01-27T10:54:58Z</time>
      </trkpt>
      <trkpt lat="43.82202" lon="7.45913">
        <ele>975.66480974549</ele>
        <time>2021-01-27T10:54:59Z</time>
      </trkpt>
      <trkpt lat="43.82203" lon="7.45912">
        <ele>976.66476927585</ele>
        <time>2021-01-27T10:55:00Z</time>
      </trkpt>
      <trkpt lat="43.82204" lon="7.45911">
        <ele>976.66470891393</ele>
        <time>2021-01-27T10:55:01Z</time>
      </trkpt>
      <trkpt lat="43.82205" lon="7.4591">
        <ele>976.66463954694</ele>
        <time>2021-01-27T10:55:02Z</time>
      </trkpt>
      <trkpt lat="43.82206" lon="7.45909">
        <ele>977.6645771024</ele>
        <time>2021-01-27T10:55:03Z</time>
      </trkpt>
      <trkpt lat="43.82207" lon="7.45907">
        <ele>977.66454526513</ele>
        <time>2021-01-27T10:55:04Z</time>
      </trkpt>
      <trkpt lat="43.82207" lon="7.45906">
        <ele>977.6645159107</ele>
        <time>2021-01-27T10:55:05Z</time>
      </trkpt>
      <trkpt lat="43.82209" lon="7.45906">
        <ele>977.6644379358</ele>
        <time>2021-01-27T10:55:07Z</time>
      </trkpt>
      <trkpt lat="43.82209" lon="7.45904">
        <ele>978.66440577376</ele>
        <time>2021-01-27T10:55:08Z</time>
      </trkpt>
      <trkpt lat="43.8221" lon="7.45903">
        <ele>978.66436236273</ele>
        <time>2021-01-27T10:55:09Z</time>
      </trkpt>
      <trkpt lat="43.82211" lon="7.45902">
        <ele>978.66429927213</ele>
        <time>2021-01-27T10:55:10Z</time>
      </trkpt>
      <trkpt lat="43.82211" lon="7.459">
        <ele>979.66424686193</ele>
        <time>2021-01-27T10:55:11Z</time>
      </trkpt>
      <trkpt lat="43.82212" lon="7.45899">
        <ele>979.66419477545</ele>
        <time>2021-01-27T10:55:12Z</time>
      </trkpt>
      <trkpt lat="43.82214" lon="7.45899">
        <ele>980.66411651632</ele>
        <time>2021-01-27T10:55:14Z</time>
      </trkpt>
      <trkpt lat="43.82214" lon="7.45899">
        <ele>980.66408758856</ele>
        <time>2021-01-27T10:55:15Z</time>
      </trkpt>
      <trkpt lat="43.82215" lon="7.45898">
        <ele>980.66404939807</ele>
        <time>2021-01-27T10:55:16Z</time>
      </trkpt>
      <trkpt lat="43.82216" lon="7.45898">
        <ele>980.66400391159</ele>
        <time>2021-01-27T10:55:17Z</time>
      </trkpt>
      <trkpt lat="43.82217" lon="7.45896">
        <ele>980.66395122302</ele>
        <time>2021-01-27T10:55:18Z</time>
      </trkpt>
      <trkpt lat="43.82217" lon="7.45895">
        <ele>980.66392351699</ele>
        <time>2021-01-27T10:55:19Z</time>
      </trkpt>
      <trkpt lat="43.82218" lon="7.45895">
        <ele>980.66387732778</ele>
        <time>2021-01-27T10:55:20Z</time>
      </trkpt>
      <trkpt lat="43.82219" lon="7.45893">
        <ele>981.66380735602</ele>
        <time>2021-01-27T10:55:22Z</time>
      </trkpt>
      <trkpt lat="43.8222" lon="7.45892">
        <ele>981.66376304555</ele>
        <time>2021-01-27T10:55:23Z</time>
      </trkpt>
      <trkpt lat="43.82221" lon="7.4589">
        <ele>981.66366880232</ele>
        <time>2021-01-27T10:55:24Z</time>
      </trkpt>
      <trkpt lat="43.82223" lon="7.45889">
        <ele>981.6635616516</ele>
        <time>2021-01-27T10:55:26Z</time>
      </trkpt>
      <trkpt lat="43.82225" lon="7.45888">
        <ele>982.66347106887</ele>
        <time>2021-01-27T10:55:28Z</time>
      </trkpt>
      <trkpt lat="43.82226" lon="7.45887">
        <ele>982.66341833612</ele>
        <time>2021-01-27T10:55:29Z</time>
      </trkpt>
      <trkpt lat="43.82227" lon="7.45886">
        <ele>983.66335838031</ele>
        <time>2021-01-27T10:55:30Z</time>
      </trkpt>
      <trkpt lat="43.82228" lon="7.45884">
        <ele>984.66326015382</ele>
        <time>2021-01-27T10:55:32Z</time>
      </trkpt>
      <trkpt lat="43.8223" lon="7.45883">
        <ele>984.66319659513</ele>
        <time>2021-01-27T10:55:33Z</time>
      </trkpt>
      <trkpt lat="43.8223" lon="7.45882">
        <ele>984.66314539487</ele>
        <time>2021-01-27T10:55:34Z</time>
      </trkpt>
      <trkpt lat="43.82232" lon="7.45881">
        <ele>983.66306650492</ele>
        <time>2021-01-27T10:55:35Z</time>
      </trkpt>
      <trkpt lat="43.82233" lon="7.4588">
        <ele>984.66301327768</ele>
        <time>2021-01-27T10:55:36Z</time>
      </trkpt>
      <trkpt lat="43.82233" lon="7.45879">
        <ele>984.66297020794</ele>
        <time>2021-01-27T10:55:37Z</time>
      </trkpt>
      <trkpt lat="43.82234" lon="7.45878">
        <ele>985.66292468428</ele>
        <time>2021-01-27T10:55:38Z</time>
      </trkpt>
      <trkpt lat="43.82235" lon="7.45877">
        <ele>985.66287064194</ele>
        <time>2021-01-27T10:55:39Z</time>
      </trkpt>
      <trkpt lat="43.82236" lon="7.45876">
        <ele>985.66281341791</ele>
        <time>2021-01-27T10:55:40Z</time>
      </trkpt>
      <trkpt lat="43.82237" lon="7.45875">
        <ele>985.66273753358</ele>
        <time>2021-01-27T10:55:41Z</time>
      </trkpt>
      <trkpt lat="43.82239" lon="7.45873">
        <ele>986.66264802082</ele>
        <time>2021-01-27T10:55:43Z</time>
      </trkpt>
      <trkpt lat="43.8224" lon="7.45872">
        <ele>986.66257796497</ele>
        <time>2021-01-27T10:55:44Z</time>
      </trkpt>
      <trkpt lat="43.82241" lon="7.45871">
        <ele>986.66252274789</ele>
        <time>2021-01-27T10:55:45Z</time>
      </trkpt>
      <trkpt lat="43.82242" lon="7.4587">
        <ele>988.66246841088</ele>
        <time>2021-01-27T10:55:46Z</time>
      </trkpt>
      <trkpt lat="43.82243" lon="7.45869">
        <ele>987.66242098572</ele>
        <time>2021-01-27T10:55:47Z</time>
      </trkpt>
      <trkpt lat="43.82244" lon="7.45869">
        <ele>987.66237236686</ele>
        <time>2021-01-27T10:55:48Z</time>
      </trkpt>
      <trkpt lat="43.82244" lon="7.45868">
        <ele>987.66233588185</ele>
        <time>2021-01-27T10:55:49Z</time>
      </trkpt>
      <trkpt lat="43.82247" lon="7.45863">
        <ele>988.66214366693</ele>
        <time>2021-01-27T10:55:53Z</time>
      </trkpt>
      <trkpt lat="43.82247" lon="7.45862">
        <ele>989.66213707883</ele>
        <time>2021-01-27T10:55:55Z</time>
      </trkpt>
      <trkpt lat="43.82248" lon="7.45861">
        <ele>989.66207367669</ele>
        <time>2021-01-27T10:55:57Z</time>
      </trkpt>
      <trkpt lat="43.82249" lon="7.4586">
        <ele>989.6620469427</ele>
        <time>2021-01-27T10:55:58Z</time>
      </trkpt>
      <trkpt lat="43.82249" lon="7.45859">
        <ele>989.66201738865</ele>
        <time>2021-01-27T10:55:59Z</time>
      </trkpt>
      <trkpt lat="43.8225" lon="7.45859">
        <ele>989.66197217002</ele>
        <time>2021-01-27T10:56:00Z</time>
      </trkpt>
      <trkpt lat="43.82251" lon="7.45858">
        <ele>989.66193076985</ele>
        <time>2021-01-27T10:56:01Z</time>
      </trkpt>
      <trkpt lat="43.82253" lon="7.45856">
        <ele>988.66178121563</ele>
        <time>2021-01-27T10:56:04Z</time>
      </trkpt>
      <trkpt lat="43.82253" lon="7.45855">
        <ele>989.66176669103</ele>
        <time>2021-01-27T10:56:05Z</time>
      </trkpt>
      <trkpt lat="43.82254" lon="7.45854">
        <ele>990.66170138028</ele>
        <time>2021-01-27T10:56:07Z</time>
      </trkpt>
      <trkpt lat="43.82255" lon="7.45853">
        <ele>990.66167201817</ele>
        <time>2021-01-27T10:56:08Z</time>
      </trkpt>
      <trkpt lat="43.82256" lon="7.45853">
        <ele>990.66161848918</ele>
        <time>2021-01-27T10:56:09Z</time>
      </trkpt>
      <trkpt lat="43.82257" lon="7.45851">
        <ele>990.66156188024</ele>
        <time>2021-01-27T10:56:11Z</time>
      </trkpt>
      <trkpt lat="43.82258" lon="7.4585">
        <ele>991.6614873474</ele>
        <time>2021-01-27T10:56:13Z</time>
      </trkpt>
      <trkpt lat="43.82259" lon="7.4585">
        <ele>991.66145343783</ele>
        <time>2021-01-27T10:56:14Z</time>
      </trkpt>
      <trkpt lat="43.82259" lon="7.45849">
        <ele>991.661438634</ele>
        <time>2021-01-27T10:56:15Z</time>
      </trkpt>
      <trkpt lat="43.8226" lon="7.45848">
        <ele>991.6613941194</ele>
        <time>2021-01-27T10:56:16Z</time>
      </trkpt>
      <trkpt lat="43.8226" lon="7.45847">
        <ele>991.6613527271</ele>
        <time>2021-01-27T10:56:17Z</time>
      </trkpt>
      <trkpt lat="43.82261" lon="7.45846">
        <ele>992.66131442851</ele>
        <time>2021-01-27T10:56:18Z</time>
      </trkpt>
      <trkpt lat="43.82262" lon="7.45846">
        <ele>993.66126791475</ele>
        <time>2021-01-27T10:56:19Z</time>
      </trkpt>
      <trkpt lat="43.82263" lon="7.45846">
        <ele>993.66121748744</ele>
        <time>2021-01-27T10:56:20Z</time>
      </trkpt>
      <trkpt lat="43.82264" lon="7.45846">
        <ele>994.66114409096</ele>
        <time>2021-01-27T10:56:22Z</time>
      </trkpt>
      <trkpt lat="43.82265" lon="7.45845">
        <ele>995.66110218409</ele>
        <time>2021-01-27T10:56:23Z</time>
      </trkpt>
      <trkpt lat="43.82265" lon="7.45844">
        <ele>996.66107328205</ele>
        <time>2021-01-27T10:56:24Z</time>
      </trkpt>
      <trkpt lat="43.82266" lon="7.45844">
        <ele>996.66102051297</ele>
        <time>2021-01-27T10:56:25Z</time>
      </trkpt>
      <trkpt lat="43.82268" lon="7.45843">
        <ele>996.66095834961</ele>
        <time>2021-01-27T10:56:26Z</time>
      </trkpt>
      <trkpt lat="43.82269" lon="7.45843">
        <ele>996.6609038042</ele>
        <time>2021-01-27T10:56:27Z</time>
      </trkpt>
      <trkpt lat="43.8227" lon="7.45843">
        <ele>996.66085855505</ele>
        <time>2021-01-27T10:56:28Z</time>
      </trkpt>
      <trkpt lat="43.82271" lon="7.45842">
        <ele>996.66081156143</ele>
        <time>2021-01-27T10:56:29Z</time>
      </trkpt>
      <trkpt lat="43.82271" lon="7.45841">
        <ele>996.66076887263</ele>
        <time>2021-01-27T10:56:30Z</time>
      </trkpt>
      <trkpt lat="43.82272" lon="7.4584">
        <ele>996.66071464355</ele>
        <time>2021-01-27T10:56:31Z</time>
      </trkpt>
      <trkpt lat="43.82272" lon="7.45839">
        <ele>996.66068552968</ele>
        <time>2021-01-27T10:56:32Z</time>
      </trkpt>
      <trkpt lat="43.82273" lon="7.45838">
        <ele>997.66066444645</ele>
        <time>2021-01-27T10:56:33Z</time>
      </trkpt>
      <trkpt lat="43.82273" lon="7.45838">
        <ele>996.66062387141</ele>
        <time>2021-01-27T10:56:35Z</time>
      </trkpt>
      <trkpt lat="43.82274" lon="7.45838">
        <ele>997.66059630625</ele>
        <time>2021-01-27T10:56:36Z</time>
      </trkpt>
      <trkpt lat="43.82275" lon="7.45837">
        <ele>997.66056150135</ele>
        <time>2021-01-27T10:56:37Z</time>
      </trkpt>
      <trkpt lat="43.82276" lon="7.45837">
        <ele>997.66051496592</ele>
        <time>2021-01-27T10:56:38Z</time>
      </trkpt>
      <trkpt lat="43.82276" lon="7.45836">
        <ele>997.66047978562</ele>
        <time>2021-01-27T10:56:39Z</time>
      </trkpt>
      <trkpt lat="43.82277" lon="7.45836">
        <ele>998.66041760876</ele>
        <time>2021-01-27T10:56:40Z</time>
      </trkpt>
      <trkpt lat="43.82278" lon="7.45836">
        <ele>998.66040725018</ele>
        <time>2021-01-27T10:56:45Z</time>
      </trkpt>
      <trkpt lat="43.82278" lon="7.45835">
        <ele>998.6603972019</ele>
        <time>2021-01-27T10:56:46Z</time>
      </trkpt>
      <trkpt lat="43.82278" lon="7.45834">
        <ele>998.66036649917</ele>
        <time>2021-01-27T10:56:47Z</time>
      </trkpt>
      <trkpt lat="43.82279" lon="7.45834">
        <ele>998.66030881958</ele>
        <time>2021-01-27T10:56:48Z</time>
      </trkpt>
      <trkpt lat="43.8228" lon="7.45833">
        <ele>998.66024928315</ele>
        <time>2021-01-27T10:56:49Z</time>
      </trkpt>
      <trkpt lat="43.82281" lon="7.45832">
        <ele>998.66020568274</ele>
        <time>2021-01-27T10:56:50Z</time>
      </trkpt>
      <trkpt lat="43.82282" lon="7.45831">
        <ele>998.66017391216</ele>
        <time>2021-01-27T10:56:51Z</time>
      </trkpt>
      <trkpt lat="43.82282" lon="7.4583">
        <ele>999.66012091912</ele>
        <time>2021-01-27T10:56:52Z</time>
      </trkpt>
      <trkpt lat="43.82283" lon="7.4583">
        <ele>999.66007966113</ele>
        <time>2021-01-27T10:56:53Z</time>
      </trkpt>
      <trkpt lat="43.82284" lon="7.45829">
        <ele>999.66003419103</ele>
        <time>2021-01-27T10:56:54Z</time>
      </trkpt>
      <trkpt lat="43.82284" lon="7.45828">
        <ele>999.66000759943</ele>
        <time>2021-01-27T10:56:55Z</time>
      </trkpt>
      <trkpt lat="43.82285" lon="7.45827">
        <ele>1000.6599738724</ele>
        <time>2021-01-27T10:56:56Z</time>
      </trkpt>
      <trkpt lat="43.82286" lon="7.45826">
        <ele>1000.6599121704</ele>
        <time>2021-01-27T10:56:57Z</time>
      </trkpt>
      <trkpt lat="43.82287" lon="7.45825">
        <ele>1000.6598601395</ele>
        <time>2021-01-27T10:56:58Z</time>
      </trkpt>
      <trkpt lat="43.82287" lon="7.45825">
        <ele>1001.6598222877</ele>
        <time>2021-01-27T10:56:59Z</time>
      </trkpt>
      <trkpt lat="43.82288" lon="7.45825">
        <ele>1000.6597823806</ele>
        <time>2021-01-27T10:57:00Z</time>
      </trkpt>
      <trkpt lat="43.82289" lon="7.45824">
        <ele>1000.659733183</ele>
        <time>2021-01-27T10:57:01Z</time>
      </trkpt>
      <trkpt lat="43.8229" lon="7.45823">
        <ele>1000.6596835942</ele>
        <time>2021-01-27T10:57:02Z</time>
      </trkpt>
      <trkpt lat="43.82291" lon="7.45822">
        <ele>1000.6596424145</ele>
        <time>2021-01-27T10:57:03Z</time>
      </trkpt>
      <trkpt lat="43.82291" lon="7.45822">
        <ele>1000.6596096466</ele>
        <time>2021-01-27T10:57:04Z</time>
      </trkpt>
      <trkpt lat="43.82292" lon="7.45821">
        <ele>1001.6595696386</ele>
        <time>2021-01-27T10:57:05Z</time>
      </trkpt>
      <trkpt lat="43.82292" lon="7.4582">
        <ele>1001.6595341277</ele>
        <time>2021-01-27T10:57:06Z</time>
      </trkpt>
      <trkpt lat="43.82293" lon="7.4582">
        <ele>1001.6594902022</ele>
        <time>2021-01-27T10:57:07Z</time>
      </trkpt>
      <trkpt lat="43.82294" lon="7.45819">
        <ele>1001.6594403069</ele>
        <time>2021-01-27T10:57:08Z</time>
      </trkpt>
      <trkpt lat="43.82295" lon="7.45819">
        <ele>1000.6594179032</ele>
        <time>2021-01-27T10:57:09Z</time>
      </trkpt>
      <trkpt lat="43.82295" lon="7.45818">
        <ele>1000.6594021516</ele>
        <time>2021-01-27T10:57:10Z</time>
      </trkpt>
      <trkpt lat="43.82296" lon="7.45817">
        <ele>1000.6593579279</ele>
        <time>2021-01-27T10:57:11Z</time>
      </trkpt>
      <trkpt lat="43.82296" lon="7.45816">
        <ele>1000.6593067551</ele>
        <time>2021-01-27T10:57:12Z</time>
      </trkpt>
      <trkpt lat="43.82297" lon="7.45815">
        <ele>1001.6592737793</ele>
        <time>2021-01-27T10:57:13Z</time>
      </trkpt>
      <trkpt lat="43.82297" lon="7.45813">
        <ele>1001.6592340499</ele>
        <time>2021-01-27T10:57:14Z</time>
      </trkpt>
      <trkpt lat="43.82298" lon="7.45812">
        <ele>1001.6591827712</ele>
        <time>2021-01-27T10:57:15Z</time>
      </trkpt>
      <trkpt lat="43.82299" lon="7.45811">
        <ele>1002.6591347191</ele>
        <time>2021-01-27T10:57:16Z</time>
      </trkpt>
      <trkpt lat="43.82299" lon="7.4581">
        <ele>1002.6590953751</ele>
        <time>2021-01-27T10:57:17Z</time>
      </trkpt>
      <trkpt lat="43.823" lon="7.45809">
        <ele>1002.6590516255</ele>
        <time>2021-01-27T10:57:18Z</time>
      </trkpt>
      <trkpt lat="43.82301" lon="7.45808">
        <ele>1002.659001609</ele>
        <time>2021-01-27T10:57:19Z</time>
      </trkpt>
      <trkpt lat="43.82302" lon="7.45807">
        <ele>1002.6589616709</ele>
        <time>2021-01-27T10:57:20Z</time>
      </trkpt>
      <trkpt lat="43.82302" lon="7.45806">
        <ele>1002.6589230038</ele>
        <time>2021-01-27T10:57:21Z</time>
      </trkpt>
      <trkpt lat="43.82303" lon="7.45805">
        <ele>1002.6588860955</ele>
        <time>2021-01-27T10:57:22Z</time>
      </trkpt>
      <trkpt lat="43.82303" lon="7.45804">
        <ele>1003.6588414511</ele>
        <time>2021-01-27T10:57:23Z</time>
      </trkpt>
      <trkpt lat="43.82304" lon="7.45803">
        <ele>1003.6588167771</ele>
        <time>2021-01-27T10:57:24Z</time>
      </trkpt>
      <trkpt lat="43.82304" lon="7.45802">
        <ele>1003.6588062972</ele>
        <time>2021-01-27T10:57:25Z</time>
      </trkpt>
      <trkpt lat="43.82305" lon="7.458">
        <ele>1004.6587249306</ele>
        <time>2021-01-27T10:57:27Z</time>
      </trkpt>
      <trkpt lat="43.82305" lon="7.45799">
        <ele>1004.6586992712</ele>
        <time>2021-01-27T10:57:28Z</time>
      </trkpt>
      <trkpt lat="43.82305" lon="7.45798">
        <ele>1005.6586716516</ele>
        <time>2021-01-27T10:57:29Z</time>
      </trkpt>
      <trkpt lat="43.82307" lon="7.45795">
        <ele>1005.6585396443</ele>
        <time>2021-01-27T10:57:31Z</time>
      </trkpt>
      <trkpt lat="43.82308" lon="7.45794">
        <ele>1006.6584873466</ele>
        <time>2021-01-27T10:57:32Z</time>
      </trkpt>
      <trkpt lat="43.82309" lon="7.45794">
        <ele>1006.658455129</ele>
        <time>2021-01-27T10:57:33Z</time>
      </trkpt>
      <trkpt lat="43.8231" lon="7.45794">
        <ele>1006.6584090992</ele>
        <time>2021-01-27T10:57:34Z</time>
      </trkpt>
      <trkpt lat="43.8231" lon="7.45793">
        <ele>1006.6583789285</ele>
        <time>2021-01-27T10:57:35Z</time>
      </trkpt>
      <trkpt lat="43.82312" lon="7.45791">
        <ele>1006.6582897891</ele>
        <time>2021-01-27T10:57:37Z</time>
      </trkpt>
      <trkpt lat="43.82312" lon="7.45789">
        <ele>1006.658239035</ele>
        <time>2021-01-27T10:57:38Z</time>
      </trkpt>
      <trkpt lat="43.82313" lon="7.45788">
        <ele>1006.6582237401</ele>
        <time>2021-01-27T10:57:39Z</time>
      </trkpt>
      <trkpt lat="43.82313" lon="7.45788">
        <ele>1006.6581819092</ele>
        <time>2021-01-27T10:57:40Z</time>
      </trkpt>
      <trkpt lat="43.82314" lon="7.45787">
        <ele>1007.6581398758</ele>
        <time>2021-01-27T10:57:41Z</time>
      </trkpt>
      <trkpt lat="43.82315" lon="7.45785">
        <ele>1008.658050127</ele>
        <time>2021-01-27T10:57:43Z</time>
      </trkpt>
      <trkpt lat="43.82316" lon="7.45784">
        <ele>1008.6580074927</ele>
        <time>2021-01-27T10:57:44Z</time>
      </trkpt>
      <trkpt lat="43.82316" lon="7.45783">
        <ele>1008.6579735761</ele>
        <time>2021-01-27T10:57:45Z</time>
      </trkpt>
      <trkpt lat="43.82317" lon="7.45782">
        <ele>1008.6579477994</ele>
        <time>2021-01-27T10:57:46Z</time>
      </trkpt>
      <trkpt lat="43.82317" lon="7.45781">
        <ele>1009.6579059487</ele>
        <time>2021-01-27T10:57:47Z</time>
      </trkpt>
      <trkpt lat="43.82318" lon="7.4578">
        <ele>1009.6578552703</ele>
        <time>2021-01-27T10:57:48Z</time>
      </trkpt>
      <trkpt lat="43.82319" lon="7.45779">
        <ele>1008.6578315484</ele>
        <time>2021-01-27T10:57:49Z</time>
      </trkpt>
      <trkpt lat="43.82319" lon="7.45778">
        <ele>1009.6577951725</ele>
        <time>2021-01-27T10:57:50Z</time>
      </trkpt>
      <trkpt lat="43.8232" lon="7.45776">
        <ele>1009.6577437069</ele>
        <time>2021-01-27T10:57:51Z</time>
      </trkpt>
      <trkpt lat="43.8232" lon="7.45775">
        <ele>1009.6577150751</ele>
        <time>2021-01-27T10:57:52Z</time>
      </trkpt>
      <trkpt lat="43.8232" lon="7.45775">
        <ele>1009.6576929121</ele>
        <time>2021-01-27T10:57:53Z</time>
      </trkpt>
      <trkpt lat="43.82321" lon="7.45773">
        <ele>1009.6576717201</ele>
        <time>2021-01-27T10:57:54Z</time>
      </trkpt>
      <trkpt lat="43.82321" lon="7.45772">
        <ele>1009.6576523911</ele>
        <time>2021-01-27T10:57:55Z</time>
      </trkpt>
      <trkpt lat="43.82321" lon="7.45771">
        <ele>1009.6576313922</ele>
        <time>2021-01-27T10:57:56Z</time>
      </trkpt>
      <trkpt lat="43.82322" lon="7.4577">
        <ele>1009.6575820699</ele>
        <time>2021-01-27T10:57:57Z</time>
      </trkpt>
      <trkpt lat="43.82322" lon="7.45768">
        <ele>1010.6575419557</ele>
        <time>2021-01-27T10:57:58Z</time>
      </trkpt>
      <trkpt lat="43.82323" lon="7.45766">
        <ele>1010.6574890849</ele>
        <time>2021-01-27T10:57:59Z</time>
      </trkpt>
      <trkpt lat="43.82323" lon="7.45765">
        <ele>1010.6574674952</ele>
        <time>2021-01-27T10:58:00Z</time>
      </trkpt>
      <trkpt lat="43.82323" lon="7.45764">
        <ele>1010.6574576744</ele>
        <time>2021-01-27T10:58:01Z</time>
      </trkpt>
      <trkpt lat="43.82323" lon="7.45763">
        <ele>1009.6574135276</ele>
        <time>2021-01-27T10:58:02Z</time>
      </trkpt>
      <trkpt lat="43.82324" lon="7.45761">
        <ele>1010.6573686921</ele>
        <time>2021-01-27T10:58:03Z</time>
      </trkpt>
      <trkpt lat="43.82325" lon="7.4576">
        <ele>1010.6573041501</ele>
        <time>2021-01-27T10:58:04Z</time>
      </trkpt>
      <trkpt lat="43.82325" lon="7.45759">
        <ele>1010.6572776604</ele>
        <time>2021-01-27T10:58:05Z</time>
      </trkpt>
      <trkpt lat="43.82326" lon="7.45758">
        <ele>1010.6572461673</ele>
        <time>2021-01-27T10:58:06Z</time>
      </trkpt>
      <trkpt lat="43.82326" lon="7.45757">
        <ele>1011.6572249634</ele>
        <time>2021-01-27T10:58:07Z</time>
      </trkpt>
      <trkpt lat="43.82326" lon="7.45756">
        <ele>1011.6571940453</ele>
        <time>2021-01-27T10:58:08Z</time>
      </trkpt>
      <trkpt lat="43.82327" lon="7.45754">
        <ele>1011.6571687174</ele>
        <time>2021-01-27T10:58:09Z</time>
      </trkpt>
      <trkpt lat="43.82327" lon="7.45753">
        <ele>1010.6571577084</ele>
        <time>2021-01-27T10:58:10Z</time>
      </trkpt>
      <trkpt lat="43.82327" lon="7.45752">
        <ele>1010.6571470976</ele>
        <time>2021-01-27T10:58:11Z</time>
      </trkpt>
      <trkpt lat="43.82327" lon="7.4575">
        <ele>1010.6571003592</ele>
        <time>2021-01-27T10:58:13Z</time>
      </trkpt>
      <trkpt lat="43.82327" lon="7.45749">
        <ele>1009.6570815048</ele>
        <time>2021-01-27T10:58:14Z</time>
      </trkpt>
      <trkpt lat="43.82327" lon="7.45748">
        <ele>1010.6570526488</ele>
        <time>2021-01-27T10:58:15Z</time>
      </trkpt>
      <trkpt lat="43.82327" lon="7.45745">
        <ele>1010.6570239537</ele>
        <time>2021-01-27T10:58:17Z</time>
      </trkpt>
      <trkpt lat="43.82328" lon="7.45744">
        <ele>1010.6569770397</ele>
        <time>2021-01-27T10:58:18Z</time>
      </trkpt>
      <trkpt lat="43.82329" lon="7.45743">
        <ele>1011.6569438708</ele>
        <time>2021-01-27T10:58:19Z</time>
      </trkpt>
      <trkpt lat="43.82329" lon="7.45744">
        <ele>1011.6569233839</ele>
        <time>2021-01-27T10:58:20Z</time>
      </trkpt>
      <trkpt lat="43.8233" lon="7.45745">
        <ele>1011.6569116353</ele>
        <time>2021-01-27T10:58:21Z</time>
      </trkpt>
      <trkpt lat="43.82331" lon="7.45747">
        <ele>1012.6568814838</ele>
        <time>2021-01-27T10:58:23Z</time>
      </trkpt>
      <trkpt lat="43.82331" lon="7.45747">
        <ele>1012.6568772848</ele>
        <time>2021-01-27T10:58:24Z</time>
      </trkpt>
      <trkpt lat="43.82332" lon="7.45751">
        <ele>1012.6568944575</ele>
        <time>2021-01-27T10:58:27Z</time>
      </trkpt>
      <trkpt lat="43.82332" lon="7.45752">
        <ele>1012.65690419</ele>
        <time>2021-01-27T10:58:28Z</time>
      </trkpt>
      <trkpt lat="43.82332" lon="7.45753">
        <ele>1012.6569206011</ele>
        <time>2021-01-27T10:58:29Z</time>
      </trkpt>
      <trkpt lat="43.82331" lon="7.45755">
        <ele>1012.6569527187</ele>
        <time>2021-01-27T10:58:30Z</time>
      </trkpt>
      <trkpt lat="43.82331" lon="7.45756">
        <ele>1013.6569634366</ele>
        <time>2021-01-27T10:58:31Z</time>
      </trkpt>
      <trkpt lat="43.82331" lon="7.45757">
        <ele>1013.6569756266</ele>
        <time>2021-01-27T10:58:32Z</time>
      </trkpt>
      <trkpt lat="43.82331" lon="7.45758">
        <ele>1012.6569862512</ele>
        <time>2021-01-27T10:58:33Z</time>
      </trkpt>
      <trkpt lat="43.82332" lon="7.4576">
        <ele>1013.6569838624</ele>
        <time>2021-01-27T10:58:34Z</time>
      </trkpt>
      <trkpt lat="43.82332" lon="7.45761">
        <ele>1013.656986542</ele>
        <time>2021-01-27T10:58:35Z</time>
      </trkpt>
      <trkpt lat="43.82332" lon="7.45761">
        <ele>1013.6570028437</ele>
        <time>2021-01-27T10:58:36Z</time>
      </trkpt>
      <trkpt lat="43.82332" lon="7.45762">
        <ele>1014.6570109114</ele>
        <time>2021-01-27T10:58:38Z</time>
      </trkpt>
      <trkpt lat="43.82333" lon="7.45762">
        <ele>1014.6569724832</ele>
        <time>2021-01-27T10:58:39Z</time>
      </trkpt>
      <trkpt lat="43.82333" lon="7.45763">
        <ele>1014.6569800805</ele>
        <time>2021-01-27T10:58:40Z</time>
      </trkpt>
      <trkpt lat="43.82333" lon="7.45765">
        <ele>1015.656988266</ele>
        <time>2021-01-27T10:58:41Z</time>
      </trkpt>
      <trkpt lat="43.82333" lon="7.45766">
        <ele>1015.6569876195</ele>
        <time>2021-01-27T10:58:42Z</time>
      </trkpt>
      <trkpt lat="43.82333" lon="7.45767">
        <ele>1016.6570231473</ele>
        <time>2021-01-27T10:58:43Z</time>
      </trkpt>
      <trkpt lat="43.82333" lon="7.45768">
        <ele>1016.6570421018</ele>
        <time>2021-01-27T10:58:44Z</time>
      </trkpt>
      <trkpt lat="43.82333" lon="7.45768">
        <ele>1017.6570526991</ele>
        <time>2021-01-27T10:58:45Z</time>
      </trkpt>
      <trkpt lat="43.82332" lon="7.45771">
        <ele>1018.6571028808</ele>
        <time>2021-01-27T10:58:47Z</time>
      </trkpt>
      <trkpt lat="43.82332" lon="7.45772">
        <ele>1018.6571256666</ele>
        <time>2021-01-27T10:58:48Z</time>
      </trkpt>
      <trkpt lat="43.82332" lon="7.45773">
        <ele>1018.6571510878</ele>
        <time>2021-01-27T10:58:49Z</time>
      </trkpt>
      <trkpt lat="43.82332" lon="7.45774">
        <ele>1018.6571608435</ele>
        <time>2021-01-27T10:58:50Z</time>
      </trkpt>
      <trkpt lat="43.82331" lon="7.45776">
        <ele>1018.657192636</ele>
        <time>2021-01-27T10:58:51Z</time>
      </trkpt>
      <trkpt lat="43.82331" lon="7.45777">
        <ele>1018.657208267</ele>
        <time>2021-01-27T10:58:52Z</time>
      </trkpt>
      <trkpt lat="43.82331" lon="7.45778">
        <ele>1018.6572259481</ele>
        <time>2021-01-27T10:58:53Z</time>
      </trkpt>
      <trkpt lat="43.82332" lon="7.45779">
        <ele>1018.6572249267</ele>
        <time>2021-01-27T10:58:54Z</time>
      </trkpt>
      <trkpt lat="43.82332" lon="7.45781">
        <ele>1019.6572314441</ele>
        <time>2021-01-27T10:58:55Z</time>
      </trkpt>
      <trkpt lat="43.82331" lon="7.45782">
        <ele>1019.6572599019</ele>
        <time>2021-01-27T10:58:57Z</time>
      </trkpt>
      <trkpt lat="43.82331" lon="7.45782">
        <ele>1020.6572712928</ele>
        <time>2021-01-27T10:58:58Z</time>
      </trkpt>
      <trkpt lat="43.82331" lon="7.45783">
        <ele>1020.6572807462</ele>
        <time>2021-01-27T10:58:59Z</time>
      </trkpt>
      <trkpt lat="43.82332" lon="7.45785">
        <ele>1020.6572931415</ele>
        <time>2021-01-27T10:59:00Z</time>
      </trkpt>
      <trkpt lat="43.82331" lon="7.45788">
        <ele>1020.6573786181</ele>
        <time>2021-01-27T10:59:02Z</time>
      </trkpt>
      <trkpt lat="43.82331" lon="7.4579">
        <ele>1021.6573906316</ele>
        <time>2021-01-27T10:59:03Z</time>
      </trkpt>
      <trkpt lat="43.82331" lon="7.45791">
        <ele>1021.6574052778</ele>
        <time>2021-01-27T10:59:04Z</time>
      </trkpt>
      <trkpt lat="43.82331" lon="7.45794">
        <ele>1021.6574270422</ele>
        <time>2021-01-27T10:59:06Z</time>
      </trkpt>
      <trkpt lat="43.82331" lon="7.45797">
        <ele>1021.6574514589</ele>
        <time>2021-01-27T10:59:08Z</time>
      </trkpt>
      <trkpt lat="43.82331" lon="7.45798">
        <ele>1021.6574650348</ele>
        <time>2021-01-27T10:59:09Z</time>
      </trkpt>
      <trkpt lat="43.82331" lon="7.45799">
        <ele>1021.6574674374</ele>
        <time>2021-01-27T10:59:10Z</time>
      </trkpt>
      <trkpt lat="43.82332" lon="7.458">
        <ele>1021.6574652171</ele>
        <time>2021-01-27T10:59:11Z</time>
      </trkpt>
      <trkpt lat="43.82332" lon="7.45801">
        <ele>1022.6574790986</ele>
        <time>2021-01-27T10:59:13Z</time>
      </trkpt>
      <trkpt lat="43.82331" lon="7.45802">
        <ele>1022.6575267469</ele>
        <time>2021-01-27T10:59:14Z</time>
      </trkpt>
      <trkpt lat="43.82331" lon="7.45804">
        <ele>1022.6575680426</ele>
        <time>2021-01-27T10:59:15Z</time>
      </trkpt>
      <trkpt lat="43.8233" lon="7.45805">
        <ele>1021.6576005994</ele>
        <time>2021-01-27T10:59:16Z</time>
      </trkpt>
      <trkpt lat="43.82329" lon="7.45808">
        <ele>1022.6577012426</ele>
        <time>2021-01-27T10:59:18Z</time>
      </trkpt>
      <trkpt lat="43.82328" lon="7.45809">
        <ele>1022.6577407338</ele>
        <time>2021-01-27T10:59:19Z</time>
      </trkpt>
      <trkpt lat="43.82328" lon="7.4581">
        <ele>1022.6577598771</ele>
        <time>2021-01-27T10:59:20Z</time>
      </trkpt>
      <trkpt lat="43.82328" lon="7.45811">
        <ele>1023.6577573942</ele>
        <time>2021-01-27T10:59:21Z</time>
      </trkpt>
      <trkpt lat="43.82329" lon="7.45812">
        <ele>1022.6577314899</ele>
        <time>2021-01-27T10:59:22Z</time>
      </trkpt>
      <trkpt lat="43.8233" lon="7.45812">
        <ele>1023.6576734693</ele>
        <time>2021-01-27T10:59:23Z</time>
      </trkpt>
      <trkpt lat="43.82331" lon="7.45812">
        <ele>1023.657640804</ele>
        <time>2021-01-27T10:59:24Z</time>
      </trkpt>
      <trkpt lat="43.82332" lon="7.45811">
        <ele>1022.6575707511</ele>
        <time>2021-01-27T10:59:26Z</time>
      </trkpt>
      <trkpt lat="43.82333" lon="7.4581">
        <ele>1022.6575294937</ele>
        <time>2021-01-27T10:59:27Z</time>
      </trkpt>
      <trkpt lat="43.82334" lon="7.45809">
        <ele>1023.6574805241</ele>
        <time>2021-01-27T10:59:28Z</time>
      </trkpt>
      <trkpt lat="43.82334" lon="7.45808">
        <ele>1023.6574589422</ele>
        <time>2021-01-27T10:59:29Z</time>
      </trkpt>
      <trkpt lat="43.82334" lon="7.45808">
        <ele>1023.6574467539</ele>
        <time>2021-01-27T10:59:30Z</time>
      </trkpt>
      <trkpt lat="43.82334" lon="7.45807">
        <ele>1023.6574461189</ele>
        <time>2021-01-27T10:59:31Z</time>
      </trkpt>
      <trkpt lat="43.82333" lon="7.45805">
        <ele>1024.6574432974</ele>
        <time>2021-01-27T10:59:33Z</time>
      </trkpt>
      <trkpt lat="43.82334" lon="7.45804">
        <ele>1024.6574174064</ele>
        <time>2021-01-27T10:59:34Z</time>
      </trkpt>
      <trkpt lat="43.82335" lon="7.45803">
        <ele>1024.6573659411</ele>
        <time>2021-01-27T10:59:35Z</time>
      </trkpt>
      <trkpt lat="43.82335" lon="7.45802">
        <ele>1025.65732907</ele>
        <time>2021-01-27T10:59:36Z</time>
      </trkpt>
      <trkpt lat="43.82336" lon="7.45801">
        <ele>1025.657303196</ele>
        <time>2021-01-27T10:59:37Z</time>
      </trkpt>
      <trkpt lat="43.82336" lon="7.458">
        <ele>1025.6572623103</ele>
        <time>2021-01-27T10:59:38Z</time>
      </trkpt>
      <trkpt lat="43.82337" lon="7.45799">
        <ele>1026.6572303313</ele>
        <time>2021-01-27T10:59:39Z</time>
      </trkpt>
      <trkpt lat="43.82337" lon="7.45798">
        <ele>1027.6571799513</ele>
        <time>2021-01-27T10:59:41Z</time>
      </trkpt>
      <trkpt lat="43.82338" lon="7.45797">
        <ele>1027.6571424718</ele>
        <time>2021-01-27T10:59:42Z</time>
      </trkpt>
      <trkpt lat="43.82338" lon="7.45796">
        <ele>1027.6571130135</ele>
        <time>2021-01-27T10:59:43Z</time>
      </trkpt>
      <trkpt lat="43.82338" lon="7.45794">
        <ele>1027.6570740314</ele>
        <time>2021-01-27T10:59:44Z</time>
      </trkpt>
      <trkpt lat="43.82339" lon="7.45792">
        <ele>1027.6570431953</ele>
        <time>2021-01-27T10:59:45Z</time>
      </trkpt>
      <trkpt lat="43.82339" lon="7.45791">
        <ele>1027.6570167663</ele>
        <time>2021-01-27T10:59:46Z</time>
      </trkpt>
      <trkpt lat="43.82339" lon="7.4579">
        <ele>1027.6569830122</ele>
        <time>2021-01-27T10:59:47Z</time>
      </trkpt>
      <trkpt lat="43.8234" lon="7.45788">
        <ele>1027.65695098</ele>
        <time>2021-01-27T10:59:48Z</time>
      </trkpt>
      <trkpt lat="43.8234" lon="7.45786">
        <ele>1027.6569017068</ele>
        <time>2021-01-27T10:59:49Z</time>
      </trkpt>
      <trkpt lat="43.82341" lon="7.45783">
        <ele>1027.6568434693</ele>
        <time>2021-01-27T10:59:51Z</time>
      </trkpt>
      <trkpt lat="43.82342" lon="7.45781">
        <ele>1027.6567721264</ele>
        <time>2021-01-27T10:59:53Z</time>
      </trkpt>
      <trkpt lat="43.82341" lon="7.4578">
        <ele>1028.6567824536</ele>
        <time>2021-01-27T10:59:54Z</time>
      </trkpt>
      <trkpt lat="43.82341" lon="7.45779">
        <ele>1028.656765419</ele>
        <time>2021-01-27T10:59:55Z</time>
      </trkpt>
      <trkpt lat="43.82342" lon="7.45777">
        <ele>1028.6567155385</ele>
        <time>2021-01-27T10:59:57Z</time>
      </trkpt>
      <trkpt lat="43.82342" lon="7.45775">
        <ele>1028.6567138759</ele>
        <time>2021-01-27T10:59:58Z</time>
      </trkpt>
      <trkpt lat="43.82342" lon="7.45774">
        <ele>1028.6566665591</ele>
        <time>2021-01-27T10:59:59Z</time>
      </trkpt>
      <trkpt lat="43.82342" lon="7.45772">
        <ele>1028.6566376535</ele>
        <time>2021-01-27T11:00:00Z</time>
      </trkpt>
      <trkpt lat="43.82343" lon="7.45772">
        <ele>1027.656592939</ele>
        <time>2021-01-27T11:00:01Z</time>
      </trkpt>
      <trkpt lat="43.82345" lon="7.45773">
        <ele>1027.6565370572</ele>
        <time>2021-01-27T11:00:03Z</time>
      </trkpt>
      <trkpt lat="43.82345" lon="7.45774">
        <ele>1028.6565357405</ele>
        <time>2021-01-27T11:00:04Z</time>
      </trkpt>
      <trkpt lat="43.82346" lon="7.45775">
        <ele>1028.6565221883</ele>
        <time>2021-01-27T11:00:05Z</time>
      </trkpt>
      <trkpt lat="43.82346" lon="7.45776">
        <ele>1029.656506368</ele>
        <time>2021-01-27T11:00:07Z</time>
      </trkpt>
      <trkpt lat="43.82346" lon="7.45777">
        <ele>1028.65650535</ele>
        <time>2021-01-27T11:00:08Z</time>
      </trkpt>
      <trkpt lat="43.82346" lon="7.45778">
        <ele>1028.656511594</ele>
        <time>2021-01-27T11:00:09Z</time>
      </trkpt>
      <trkpt lat="43.82347" lon="7.45779">
        <ele>1028.6565167813</ele>
        <time>2021-01-27T11:00:10Z</time>
      </trkpt>
      <trkpt lat="43.82347" lon="7.4578">
        <ele>1028.6565313576</ele>
        <time>2021-01-27T11:00:11Z</time>
      </trkpt>
      <trkpt lat="43.82347" lon="7.45781">
        <ele>1028.6565269131</ele>
        <time>2021-01-27T11:00:12Z</time>
      </trkpt>
      <trkpt lat="43.82347" lon="7.45782">
        <ele>1028.6565319964</ele>
        <time>2021-01-27T11:00:13Z</time>
      </trkpt>
      <trkpt lat="43.82347" lon="7.45784">
        <ele>1028.6565484319</ele>
        <time>2021-01-27T11:00:14Z</time>
      </trkpt>
      <trkpt lat="43.82347" lon="7.45785">
        <ele>1028.6565723115</ele>
        <time>2021-01-27T11:00:15Z</time>
      </trkpt>
      <trkpt lat="43.82347" lon="7.45786">
        <ele>1028.6565968057</ele>
        <time>2021-01-27T11:00:16Z</time>
      </trkpt>
      <trkpt lat="43.82347" lon="7.45788">
        <ele>1029.6566237671</ele>
        <time>2021-01-27T11:00:17Z</time>
      </trkpt>
      <trkpt lat="43.82347" lon="7.45789">
        <ele>1029.6566444363</ele>
        <time>2021-01-27T11:00:18Z</time>
      </trkpt>
      <trkpt lat="43.82346" lon="7.45791">
        <ele>1029.6566703162</ele>
        <time>2021-01-27T11:00:19Z</time>
      </trkpt>
      <trkpt lat="43.82346" lon="7.45793">
        <ele>1029.6566950049</ele>
        <time>2021-01-27T11:00:20Z</time>
      </trkpt>
      <trkpt lat="43.82346" lon="7.45794">
        <ele>1029.6567205449</ele>
        <time>2021-01-27T11:00:21Z</time>
      </trkpt>
      <trkpt lat="43.82346" lon="7.45795">
        <ele>1029.6567553048</ele>
        <time>2021-01-27T11:00:22Z</time>
      </trkpt>
      <trkpt lat="43.82345" lon="7.45796">
        <ele>1029.6567855543</ele>
        <time>2021-01-27T11:00:23Z</time>
      </trkpt>
      <trkpt lat="43.82345" lon="7.45798">
        <ele>1029.6568143368</ele>
        <time>2021-01-27T11:00:24Z</time>
      </trkpt>
      <trkpt lat="43.82345" lon="7.45799">
        <ele>1029.6568202855</ele>
        <time>2021-01-27T11:00:25Z</time>
      </trkpt>
      <trkpt lat="43.82345" lon="7.458">
        <ele>1029.6568272939</ele>
        <time>2021-01-27T11:00:26Z</time>
      </trkpt>
      <trkpt lat="43.82345" lon="7.45801">
        <ele>1030.6568608554</ele>
        <time>2021-01-27T11:00:27Z</time>
      </trkpt>
      <trkpt lat="43.82345" lon="7.45801">
        <ele>1030.6568608554</ele>
        <time>2021-01-27T11:00:30Z</time>
      </trkpt>
      <trkpt lat="43.82346" lon="7.45803">
        <ele>1031.6568532788</ele>
        <time>2021-01-27T11:00:31Z</time>
      </trkpt>
      <trkpt lat="43.82346" lon="7.45805">
        <ele>1031.6568575833</ele>
        <time>2021-01-27T11:00:33Z</time>
      </trkpt>
      <trkpt lat="43.82346" lon="7.45806">
        <ele>1030.6568801366</ele>
        <time>2021-01-27T11:00:34Z</time>
      </trkpt>
      <trkpt lat="43.82345" lon="7.45807">
        <ele>1030.656924547</ele>
        <time>2021-01-27T11:00:35Z</time>
      </trkpt>
      <trkpt lat="43.82345" lon="7.45808">
        <ele>1030.656957795</ele>
        <time>2021-01-27T11:00:38Z</time>
      </trkpt>
      <trkpt lat="43.82344" lon="7.45811">
        <ele>1030.6570186152</ele>
        <time>2021-01-27T11:00:39Z</time>
      </trkpt>
      <trkpt lat="43.82343" lon="7.45815">
        <ele>1029.6570993214</ele>
        <time>2021-01-27T11:00:41Z</time>
      </trkpt>
      <trkpt lat="43.82343" lon="7.45816">
        <ele>1029.6571443663</ele>
        <time>2021-01-27T11:00:42Z</time>
      </trkpt>
      <trkpt lat="43.82343" lon="7.45818">
        <ele>1029.6571699363</ele>
        <time>2021-01-27T11:00:43Z</time>
      </trkpt>
      <trkpt lat="43.82342" lon="7.4582">
        <ele>1029.6572095836</ele>
        <time>2021-01-27T11:00:44Z</time>
      </trkpt>
      <trkpt lat="43.82341" lon="7.45821">
        <ele>1029.6572530942</ele>
        <time>2021-01-27T11:00:45Z</time>
      </trkpt>
      <trkpt lat="43.82339" lon="7.45822">
        <ele>1030.6573729599</ele>
        <time>2021-01-27T11:00:47Z</time>
      </trkpt>
      <trkpt lat="43.82339" lon="7.45824">
        <ele>1031.6574186355</ele>
        <time>2021-01-27T11:00:48Z</time>
      </trkpt>
      <trkpt lat="43.82338" lon="7.45825">
        <ele>1031.6574567723</ele>
        <time>2021-01-27T11:00:49Z</time>
      </trkpt>
      <trkpt lat="43.82337" lon="7.45828">
        <ele>1032.6575643611</ele>
        <time>2021-01-27T11:00:51Z</time>
      </trkpt>
      <trkpt lat="43.82336" lon="7.45829">
        <ele>1032.6576106309</ele>
        <time>2021-01-27T11:00:52Z</time>
      </trkpt>
      <trkpt lat="43.82335" lon="7.45831">
        <ele>1033.6576649183</ele>
        <time>2021-01-27T11:00:53Z</time>
      </trkpt>
      <trkpt lat="43.82335" lon="7.45832">
        <ele>1033.6577038148</ele>
        <time>2021-01-27T11:00:54Z</time>
      </trkpt>
      <trkpt lat="43.82334" lon="7.45832">
        <ele>1034.6577439597</ele>
        <time>2021-01-27T11:00:55Z</time>
      </trkpt>
      <trkpt lat="43.82333" lon="7.45834">
        <ele>1034.6577963528</ele>
        <time>2021-01-27T11:00:56Z</time>
      </trkpt>
      <trkpt lat="43.82332" lon="7.45834">
        <ele>1034.657838253</ele>
        <time>2021-01-27T11:00:59Z</time>
      </trkpt>
      <trkpt lat="43.8233" lon="7.45837">
        <ele>1034.657970324</ele>
        <time>2021-01-27T11:01:00Z</time>
      </trkpt>
      <trkpt lat="43.8233" lon="7.45839">
        <ele>1034.6580180437</ele>
        <time>2021-01-27T11:01:01Z</time>
      </trkpt>
      <trkpt lat="43.82329" lon="7.4584">
        <ele>1035.6580693365</ele>
        <time>2021-01-27T11:01:02Z</time>
      </trkpt>
      <trkpt lat="43.82328" lon="7.45841">
        <ele>1034.6581074576</ele>
        <time>2021-01-27T11:01:03Z</time>
      </trkpt>
      <trkpt lat="43.82328" lon="7.45842">
        <ele>1034.6581332323</ele>
        <time>2021-01-27T11:01:04Z</time>
      </trkpt>
      <trkpt lat="43.82328" lon="7.45844">
        <ele>1034.6581672835</ele>
        <time>2021-01-27T11:01:05Z</time>
      </trkpt>
      <trkpt lat="43.82327" lon="7.45847">
        <ele>1034.6582386224</ele>
        <time>2021-01-27T11:01:07Z</time>
      </trkpt>
      <trkpt lat="43.82327" lon="7.45848">
        <ele>1035.6582692067</ele>
        <time>2021-01-27T11:01:08Z</time>
      </trkpt>
      <trkpt lat="43.82327" lon="7.45849">
        <ele>1035.6582680808</ele>
        <time>2021-01-27T11:01:09Z</time>
      </trkpt>
      <trkpt lat="43.82327" lon="7.45851">
        <ele>1037.6582927134</ele>
        <time>2021-01-27T11:01:11Z</time>
      </trkpt>
      <trkpt lat="43.82326" lon="7.45853">
        <ele>1037.6583589428</ele>
        <time>2021-01-27T11:01:13Z</time>
      </trkpt>
      <trkpt lat="43.82326" lon="7.45855">
        <ele>1037.6583897997</ele>
        <time>2021-01-27T11:01:14Z</time>
      </trkpt>
      <trkpt lat="43.82324" lon="7.45856">
        <ele>1038.6584659259</ele>
        <time>2021-01-27T11:01:15Z</time>
      </trkpt>
      <trkpt lat="43.82324" lon="7.45857">
        <ele>1038.6585011611</ele>
        <time>2021-01-27T11:01:16Z</time>
      </trkpt>
      <trkpt lat="43.82324" lon="7.45859">
        <ele>1038.6585284034</ele>
        <time>2021-01-27T11:01:18Z</time>
      </trkpt>
      <trkpt lat="43.82324" lon="7.4586">
        <ele>1038.6585448832</ele>
        <time>2021-01-27T11:01:20Z</time>
      </trkpt>
      <trkpt lat="43.82324" lon="7.45864">
        <ele>1038.6585698438</ele>
        <time>2021-01-27T11:01:22Z</time>
      </trkpt>
      <trkpt lat="43.82324" lon="7.45865">
        <ele>1038.6585823277</ele>
        <time>2021-01-27T11:01:23Z</time>
      </trkpt>
      <trkpt lat="43.82324" lon="7.45865">
        <ele>1038.6586062031</ele>
        <time>2021-01-27T11:01:24Z</time>
      </trkpt>
      <trkpt lat="43.82324" lon="7.45866">
        <ele>1038.6586094733</ele>
        <time>2021-01-27T11:01:26Z</time>
      </trkpt>
      <trkpt lat="43.82323" lon="7.45868">
        <ele>1038.6586580586</ele>
        <time>2021-01-27T11:01:28Z</time>
      </trkpt>
      <trkpt lat="43.82323" lon="7.45869">
        <ele>1038.6586813625</ele>
        <time>2021-01-27T11:01:29Z</time>
      </trkpt>
      <trkpt lat="43.82322" lon="7.45871">
        <ele>1039.6587273625</ele>
        <time>2021-01-27T11:01:30Z</time>
      </trkpt>
      <trkpt lat="43.82322" lon="7.45872">
        <ele>1039.6587481637</ele>
        <time>2021-01-27T11:01:31Z</time>
      </trkpt>
      <trkpt lat="43.82323" lon="7.45874">
        <ele>1040.6587513726</ele>
        <time>2021-01-27T11:01:32Z</time>
      </trkpt>
      <trkpt lat="43.82322" lon="7.45875">
        <ele>1041.6587732145</ele>
        <time>2021-01-27T11:01:33Z</time>
      </trkpt>
      <trkpt lat="43.82323" lon="7.45874">
        <ele>1039.6587553383</ele>
        <time>2021-01-27T11:01:36Z</time>
      </trkpt>
      <trkpt lat="43.82323" lon="7.45874">
        <ele>1038.6587242337</ele>
        <time>2021-01-27T11:01:37Z</time>
      </trkpt>
      <trkpt lat="43.82323" lon="7.45873">
        <ele>1038.6587125543</ele>
        <time>2021-01-27T11:01:39Z</time>
      </trkpt>
      <trkpt lat="43.82324" lon="7.45872">
        <ele>1038.6586802826</ele>
        <time>2021-01-27T11:01:40Z</time>
      </trkpt>
      <trkpt lat="43.82324" lon="7.45872">
        <ele>1038.6586493049</ele>
        <time>2021-01-27T11:01:41Z</time>
      </trkpt>
      <trkpt lat="43.82325" lon="7.45871">
        <ele>1038.65860961</ele>
        <time>2021-01-27T11:01:42Z</time>
      </trkpt>
      <trkpt lat="43.82326" lon="7.45871">
        <ele>1038.6585676703</ele>
        <time>2021-01-27T11:01:44Z</time>
      </trkpt>
      <trkpt lat="43.82327" lon="7.45869">
        <ele>1038.6585082996</ele>
        <time>2021-01-27T11:01:45Z</time>
      </trkpt>
      <trkpt lat="43.82327" lon="7.45868">
        <ele>1038.658476574</ele>
        <time>2021-01-27T11:01:46Z</time>
      </trkpt>
      <trkpt lat="43.82328" lon="7.45867">
        <ele>1038.6584459446</ele>
        <time>2021-01-27T11:01:47Z</time>
      </trkpt>
      <trkpt lat="43.82328" lon="7.45867">
        <ele>1039.6584101521</ele>
        <time>2021-01-27T11:01:48Z</time>
      </trkpt>
      <trkpt lat="43.82329" lon="7.45867">
        <ele>1039.6583902455</ele>
        <time>2021-01-27T11:01:49Z</time>
      </trkpt>
      <trkpt lat="43.82329" lon="7.45867">
        <ele>1039.6583700174</ele>
        <time>2021-01-27T11:01:50Z</time>
      </trkpt>
      <trkpt lat="43.8233" lon="7.45866">
        <ele>1038.6583222788</ele>
        <time>2021-01-27T11:01:52Z</time>
      </trkpt>
      <trkpt lat="43.8233" lon="7.45865">
        <ele>1038.6582922391</ele>
        <time>2021-01-27T11:01:53Z</time>
      </trkpt>
      <trkpt lat="43.82331" lon="7.45864">
        <ele>1038.6582678239</ele>
        <time>2021-01-27T11:01:54Z</time>
      </trkpt>
      <trkpt lat="43.82332" lon="7.45862">
        <ele>1039.6581698743</ele>
        <time>2021-01-27T11:01:56Z</time>
      </trkpt>
      <trkpt lat="43.82333" lon="7.45861">
        <ele>1040.6581190386</ele>
        <time>2021-01-27T11:01:57Z</time>
      </trkpt>
      <trkpt lat="43.82334" lon="7.4586">
        <ele>1040.6580783069</ele>
        <time>2021-01-27T11:01:58Z</time>
      </trkpt>
      <trkpt lat="43.82334" lon="7.45859">
        <ele>1040.6580475478</ele>
        <time>2021-01-27T11:02:00Z</time>
      </trkpt>
      <trkpt lat="43.82335" lon="7.45858">
        <ele>1040.6580044738</ele>
        <time>2021-01-27T11:02:01Z</time>
      </trkpt>
      <trkpt lat="43.82336" lon="7.45856">
        <ele>1040.6579217653</ele>
        <time>2021-01-27T11:02:03Z</time>
      </trkpt>
      <trkpt lat="43.82337" lon="7.45855">
        <ele>1040.6578613886</ele>
        <time>2021-01-27T11:02:04Z</time>
      </trkpt>
      <trkpt lat="43.82338" lon="7.45854">
        <ele>1040.6578141165</ele>
        <time>2021-01-27T11:02:05Z</time>
      </trkpt>
      <trkpt lat="43.82339" lon="7.45853">
        <ele>1040.6577599765</ele>
        <time>2021-01-27T11:02:06Z</time>
      </trkpt>
      <trkpt lat="43.82339" lon="7.45852">
        <ele>1041.6577138678</ele>
        <time>2021-01-27T11:02:07Z</time>
      </trkpt>
      <trkpt lat="43.8234" lon="7.45852">
        <ele>1041.6577055224</ele>
        <time>2021-01-27T11:02:08Z</time>
      </trkpt>
      <trkpt lat="43.82341" lon="7.45851">
        <ele>1041.6576511186</ele>
        <time>2021-01-27T11:02:09Z</time>
      </trkpt>
      <trkpt lat="43.82342" lon="7.4585">
        <ele>1042.6575892833</ele>
        <time>2021-01-27T11:02:10Z</time>
      </trkpt>
      <trkpt lat="43.82342" lon="7.45849">
        <ele>1042.6575518424</ele>
        <time>2021-01-27T11:02:11Z</time>
      </trkpt>
      <trkpt lat="43.82343" lon="7.45848">
        <ele>1042.6575011142</ele>
        <time>2021-01-27T11:02:12Z</time>
      </trkpt>
      <trkpt lat="43.82344" lon="7.45847">
        <ele>1042.6574649041</ele>
        <time>2021-01-27T11:02:13Z</time>
      </trkpt>
      <trkpt lat="43.82344" lon="7.45847">
        <ele>1042.6574328235</ele>
        <time>2021-01-27T11:02:14Z</time>
      </trkpt>
      <trkpt lat="43.82345" lon="7.45847">
        <ele>1042.6573855883</ele>
        <time>2021-01-27T11:02:15Z</time>
      </trkpt>
      <trkpt lat="43.82346" lon="7.45846">
        <ele>1042.6573434874</ele>
        <time>2021-01-27T11:02:16Z</time>
      </trkpt>
      <trkpt lat="43.82347" lon="7.45845">
        <ele>1043.6573027812</ele>
        <time>2021-01-27T11:02:17Z</time>
      </trkpt>
      <trkpt lat="43.82348" lon="7.45845">
        <ele>1043.6572342748</ele>
        <time>2021-01-27T11:02:18Z</time>
      </trkpt>
      <trkpt lat="43.82349" lon="7.45844">
        <ele>1043.6571787559</ele>
        <time>2021-01-27T11:02:19Z</time>
      </trkpt>
      <trkpt lat="43.82349" lon="7.45843">
        <ele>1043.6571418305</ele>
        <time>2021-01-27T11:02:20Z</time>
      </trkpt>
      <trkpt lat="43.8235" lon="7.45842">
        <ele>1043.6571141884</ele>
        <time>2021-01-27T11:02:21Z</time>
      </trkpt>
      <trkpt lat="43.8235" lon="7.45841">
        <ele>1042.6570809802</ele>
        <time>2021-01-27T11:02:22Z</time>
      </trkpt>
      <trkpt lat="43.82351" lon="7.45841">
        <ele>1043.6570454343</ele>
        <time>2021-01-27T11:02:23Z</time>
      </trkpt>
      <trkpt lat="43.82351" lon="7.4584">
        <ele>1043.6570117225</ele>
        <time>2021-01-27T11:02:24Z</time>
      </trkpt>
      <trkpt lat="43.82352" lon="7.45839">
        <ele>1044.6569723745</ele>
        <time>2021-01-27T11:02:25Z</time>
      </trkpt>
      <trkpt lat="43.82353" lon="7.45838">
        <ele>1045.6569247706</ele>
        <time>2021-01-27T11:02:26Z</time>
      </trkpt>
      <trkpt lat="43.82353" lon="7.45837">
        <ele>1045.6568879384</ele>
        <time>2021-01-27T11:02:27Z</time>
      </trkpt>
      <trkpt lat="43.82354" lon="7.45836">
        <ele>1045.6568626944</ele>
        <time>2021-01-27T11:02:28Z</time>
      </trkpt>
      <trkpt lat="43.82354" lon="7.45835">
        <ele>1046.6568312999</ele>
        <time>2021-01-27T11:02:29Z</time>
      </trkpt>
      <trkpt lat="43.82355" lon="7.45834">
        <ele>1046.6567832768</ele>
        <time>2021-01-27T11:02:30Z</time>
      </trkpt>
      <trkpt lat="43.82355" lon="7.45833">
        <ele>1046.656740923</ele>
        <time>2021-01-27T11:02:31Z</time>
      </trkpt>
      <trkpt lat="43.82356" lon="7.45832">
        <ele>1046.6566991744</ele>
        <time>2021-01-27T11:02:32Z</time>
      </trkpt>
      <trkpt lat="43.82357" lon="7.45831">
        <ele>1046.656661521</ele>
        <time>2021-01-27T11:02:33Z</time>
      </trkpt>
      <trkpt lat="43.82357" lon="7.4583">
        <ele>1046.6566131182</ele>
        <time>2021-01-27T11:02:34Z</time>
      </trkpt>
      <trkpt lat="43.82358" lon="7.45829">
        <ele>1047.6565833237</ele>
        <time>2021-01-27T11:02:35Z</time>
      </trkpt>
      <trkpt lat="43.82359" lon="7.45828">
        <ele>1047.6565444915</ele>
        <time>2021-01-27T11:02:36Z</time>
      </trkpt>
      <trkpt lat="43.82359" lon="7.45828">
        <ele>1048.6565079434</ele>
        <time>2021-01-27T11:02:37Z</time>
      </trkpt>
      <trkpt lat="43.8236" lon="7.45827">
        <ele>1048.6564664964</ele>
        <time>2021-01-27T11:02:38Z</time>
      </trkpt>
      <trkpt lat="43.82361" lon="7.45826">
        <ele>1048.6564289639</ele>
        <time>2021-01-27T11:02:39Z</time>
      </trkpt>
      <trkpt lat="43.82361" lon="7.45826">
        <ele>1048.6564131448</ele>
        <time>2021-01-27T11:02:40Z</time>
      </trkpt>
      <trkpt lat="43.82362" lon="7.45825">
        <ele>1049.6563615318</ele>
        <time>2021-01-27T11:02:41Z</time>
      </trkpt>
      <trkpt lat="43.82362" lon="7.45824">
        <ele>1049.6563507851</ele>
        <time>2021-01-27T11:02:42Z</time>
      </trkpt>
      <trkpt lat="43.82362" lon="7.45823">
        <ele>1049.6563398155</ele>
        <time>2021-01-27T11:02:43Z</time>
      </trkpt>
      <trkpt lat="43.82362" lon="7.45823">
        <ele>1049.656314221</ele>
        <time>2021-01-27T11:02:44Z</time>
      </trkpt>
      <trkpt lat="43.82363" lon="7.45822">
        <ele>1049.6562798928</ele>
        <time>2021-01-27T11:02:45Z</time>
      </trkpt>
      <trkpt lat="43.82363" lon="7.45821">
        <ele>1049.6562413629</ele>
        <time>2021-01-27T11:02:46Z</time>
      </trkpt>
      <trkpt lat="43.82364" lon="7.4582">
        <ele>1050.6561743967</ele>
        <time>2021-01-27T11:02:47Z</time>
      </trkpt>
      <trkpt lat="43.82365" lon="7.45819">
        <ele>1050.6561406445</ele>
        <time>2021-01-27T11:02:48Z</time>
      </trkpt>
      <trkpt lat="43.82365" lon="7.45818">
        <ele>1051.6561095522</ele>
        <time>2021-01-27T11:02:49Z</time>
      </trkpt>
      <trkpt lat="43.82366" lon="7.45818">
        <ele>1051.6560737887</ele>
        <time>2021-01-27T11:02:50Z</time>
      </trkpt>
      <trkpt lat="43.82367" lon="7.45817">
        <ele>1051.6560391129</ele>
        <time>2021-01-27T11:02:51Z</time>
      </trkpt>
      <trkpt lat="43.82367" lon="7.45817">
        <ele>1050.6560031137</ele>
        <time>2021-01-27T11:02:52Z</time>
      </trkpt>
      <trkpt lat="43.82368" lon="7.45816">
        <ele>1050.6559790696</ele>
        <time>2021-01-27T11:02:53Z</time>
      </trkpt>
      <trkpt lat="43.82368" lon="7.45815">
        <ele>1050.6559393651</ele>
        <time>2021-01-27T11:02:54Z</time>
      </trkpt>
      <trkpt lat="43.82369" lon="7.45815">
        <ele>1050.6558936833</ele>
        <time>2021-01-27T11:02:55Z</time>
      </trkpt>
      <trkpt lat="43.8237" lon="7.45813">
        <ele>1050.6558531243</ele>
        <time>2021-01-27T11:02:56Z</time>
      </trkpt>
      <trkpt lat="43.8237" lon="7.45812">
        <ele>1051.6558218491</ele>
        <time>2021-01-27T11:02:57Z</time>
      </trkpt>
      <trkpt lat="43.8237" lon="7.45811">
        <ele>1052.6557886406</ele>
        <time>2021-01-27T11:02:58Z</time>
      </trkpt>
      <trkpt lat="43.82371" lon="7.4581">
        <ele>1051.6557641829</ele>
        <time>2021-01-27T11:02:59Z</time>
      </trkpt>
      <trkpt lat="43.82371" lon="7.45809">
        <ele>1051.6557171867</ele>
        <time>2021-01-27T11:03:00Z</time>
      </trkpt>
      <trkpt lat="43.82372" lon="7.45809">
        <ele>1052.6556767354</ele>
        <time>2021-01-27T11:03:01Z</time>
      </trkpt>
      <trkpt lat="43.82373" lon="7.45808">
        <ele>1051.6556414074</ele>
        <time>2021-01-27T11:03:02Z</time>
      </trkpt>
      <trkpt lat="43.82373" lon="7.45807">
        <ele>1052.6556115791</ele>
        <time>2021-01-27T11:03:03Z</time>
      </trkpt>
      <trkpt lat="43.82373" lon="7.45807">
        <ele>1052.6555916992</ele>
        <time>2021-01-27T11:03:04Z</time>
      </trkpt>
      <trkpt lat="43.82374" lon="7.45806">
        <ele>1052.6555698712</ele>
        <time>2021-01-27T11:03:05Z</time>
      </trkpt>
      <trkpt lat="43.82374" lon="7.45805">
        <ele>1052.6555313981</ele>
        <time>2021-01-27T11:03:06Z</time>
      </trkpt>
      <trkpt lat="43.82375" lon="7.45804">
        <ele>1052.6554862212</ele>
        <time>2021-01-27T11:03:07Z</time>
      </trkpt>
      <trkpt lat="43.82376" lon="7.45804">
        <ele>1053.6554491481</ele>
        <time>2021-01-27T11:03:08Z</time>
      </trkpt>
      <trkpt lat="43.82377" lon="7.45803">
        <ele>1052.6554069712</ele>
        <time>2021-01-27T11:03:10Z</time>
      </trkpt>
      <trkpt lat="43.82377" lon="7.45803">
        <ele>1052.65537959</ele>
        <time>2021-01-27T11:03:11Z</time>
      </trkpt>
      <trkpt lat="43.82377" lon="7.45802">
        <ele>1052.6553524059</ele>
        <time>2021-01-27T11:03:12Z</time>
      </trkpt>
      <trkpt lat="43.82378" lon="7.45802">
        <ele>1052.6553332527</ele>
        <time>2021-01-27T11:03:13Z</time>
      </trkpt>
      <trkpt lat="43.82378" lon="7.45801">
        <ele>1052.6552991786</ele>
        <time>2021-01-27T11:03:14Z</time>
      </trkpt>
      <trkpt lat="43.8238" lon="7.45798">
        <ele>1052.6552124428</ele>
        <time>2021-01-27T11:03:16Z</time>
      </trkpt>
      <trkpt lat="43.82381" lon="7.45797">
        <ele>1053.6551432202</ele>
        <time>2021-01-27T11:03:18Z</time>
      </trkpt>
      <trkpt lat="43.82381" lon="7.45796">
        <ele>1054.6551128355</ele>
        <time>2021-01-27T11:03:19Z</time>
      </trkpt>
      <trkpt lat="43.82381" lon="7.45794">
        <ele>1054.6550874216</ele>
        <time>2021-01-27T11:03:21Z</time>
      </trkpt>
      <trkpt lat="43.82381" lon="7.45793">
        <ele>1054.6550532663</ele>
        <time>2021-01-27T11:03:22Z</time>
      </trkpt>
      <trkpt lat="43.82382" lon="7.45791">
        <ele>1054.6550277506</ele>
        <time>2021-01-27T11:03:23Z</time>
      </trkpt>
      <trkpt lat="43.82382" lon="7.4579">
        <ele>1054.655004445</ele>
        <time>2021-01-27T11:03:24Z</time>
      </trkpt>
      <trkpt lat="43.82382" lon="7.45789">
        <ele>1054.6549832368</ele>
        <time>2021-01-27T11:03:25Z</time>
      </trkpt>
      <trkpt lat="43.82382" lon="7.45787">
        <ele>1054.6549518378</ele>
        <time>2021-01-27T11:03:26Z</time>
      </trkpt>
      <trkpt lat="43.82383" lon="7.45787">
        <ele>1054.6549001499</ele>
        <time>2021-01-27T11:03:27Z</time>
      </trkpt>
      <trkpt lat="43.82384" lon="7.45787">
        <ele>1054.654847042</ele>
        <time>2021-01-27T11:03:28Z</time>
      </trkpt>
      <trkpt lat="43.82385" lon="7.45786">
        <ele>1054.6548077384</ele>
        <time>2021-01-27T11:03:29Z</time>
      </trkpt>
      <trkpt lat="43.82386" lon="7.45786">
        <ele>1054.6547767938</ele>
        <time>2021-01-27T11:03:30Z</time>
      </trkpt>
      <trkpt lat="43.82386" lon="7.45785">
        <ele>1054.6547353664</ele>
        <time>2021-01-27T11:03:31Z</time>
      </trkpt>
      <trkpt lat="43.82387" lon="7.45784">
        <ele>1054.6546927307</ele>
        <time>2021-01-27T11:03:32Z</time>
      </trkpt>
      <trkpt lat="43.82388" lon="7.45783">
        <ele>1054.6546209648</ele>
        <time>2021-01-27T11:03:33Z</time>
      </trkpt>
      <trkpt lat="43.82389" lon="7.45782">
        <ele>1055.6545904824</ele>
        <time>2021-01-27T11:03:34Z</time>
      </trkpt>
      <trkpt lat="43.8239" lon="7.45781">
        <ele>1055.6545362107</ele>
        <time>2021-01-27T11:03:35Z</time>
      </trkpt>
      <trkpt lat="43.82391" lon="7.4578">
        <ele>1055.654471202</ele>
        <time>2021-01-27T11:03:37Z</time>
      </trkpt>
      <trkpt lat="43.82392" lon="7.45779">
        <ele>1056.6544253249</ele>
        <time>2021-01-27T11:03:38Z</time>
      </trkpt>
      <trkpt lat="43.82392" lon="7.45778">
        <ele>1055.6544094046</ele>
        <time>2021-01-27T11:03:39Z</time>
      </trkpt>
      <trkpt lat="43.82392" lon="7.45778">
        <ele>1055.6543809829</ele>
        <time>2021-01-27T11:03:40Z</time>
      </trkpt>
      <trkpt lat="43.82393" lon="7.45778">
        <ele>1056.6543636356</ele>
        <time>2021-01-27T11:03:41Z</time>
      </trkpt>
      <trkpt lat="43.82394" lon="7.45776">
        <ele>1056.6542530212</ele>
        <time>2021-01-27T11:03:43Z</time>
      </trkpt>
      <trkpt lat="43.82395" lon="7.45775">
        <ele>1055.6542078066</ele>
        <time>2021-01-27T11:03:44Z</time>
      </trkpt>
      <trkpt lat="43.82396" lon="7.45774">
        <ele>1055.6541634143</ele>
        <time>2021-01-27T11:03:45Z</time>
      </trkpt>
      <trkpt lat="43.82398" lon="7.45772">
        <ele>1056.6540469218</ele>
        <time>2021-01-27T11:03:47Z</time>
      </trkpt>
      <trkpt lat="43.82398" lon="7.45771">
        <ele>1057.6539995654</ele>
        <time>2021-01-27T11:03:48Z</time>
      </trkpt>
      <trkpt lat="43.82399" lon="7.4577">
        <ele>1057.6539481727</ele>
        <time>2021-01-27T11:03:49Z</time>
      </trkpt>
      <trkpt lat="43.824" lon="7.45769">
        <ele>1057.6539101111</ele>
        <time>2021-01-27T11:03:50Z</time>
      </trkpt>
      <trkpt lat="43.82401" lon="7.45767">
        <ele>1057.6538479177</ele>
        <time>2021-01-27T11:03:52Z</time>
      </trkpt>
      <trkpt lat="43.82401" lon="7.45766">
        <ele>1057.6538200423</ele>
        <time>2021-01-27T11:03:53Z</time>
      </trkpt>
      <trkpt lat="43.82401" lon="7.45765">
        <ele>1057.6537885304</ele>
        <time>2021-01-27T11:03:54Z</time>
      </trkpt>
      <trkpt lat="43.82402" lon="7.45763">
        <ele>1057.6537170374</ele>
        <time>2021-01-27T11:03:56Z</time>
      </trkpt>
      <trkpt lat="43.82404" lon="7.45761">
        <ele>1058.6536262714</ele>
        <time>2021-01-27T11:03:58Z</time>
      </trkpt>
      <trkpt lat="43.82405" lon="7.4576">
        <ele>1057.6535824265</ele>
        <time>2021-01-27T11:03:59Z</time>
      </trkpt>
      <trkpt lat="43.82406" lon="7.45761">
        <ele>1057.6535465446</ele>
        <time>2021-01-27T11:04:00Z</time>
      </trkpt>
      <trkpt lat="43.82406" lon="7.45761">
        <ele>1057.6535193912</ele>
        <time>2021-01-27T11:04:01Z</time>
      </trkpt>
      <trkpt lat="43.82407" lon="7.45761">
        <ele>1058.6534934563</ele>
        <time>2021-01-27T11:04:03Z</time>
      </trkpt>
      <trkpt lat="43.82407" lon="7.45762">
        <ele>1061.6534772299</ele>
        <time>2021-01-27T11:04:09Z</time>
      </trkpt>
      <trkpt lat="43.82407" lon="7.45763">
        <ele>1061.6534953617</ele>
        <time>2021-01-27T11:04:10Z</time>
      </trkpt>
      <trkpt lat="43.82406" lon="7.45766">
        <ele>1061.6535619418</ele>
        <time>2021-01-27T11:04:12Z</time>
      </trkpt>
      <trkpt lat="43.82406" lon="7.45767">
        <ele>1062.6536011297</ele>
        <time>2021-01-27T11:04:13Z</time>
      </trkpt>
      <trkpt lat="43.82405" lon="7.45768">
        <ele>1062.6536481563</ele>
        <time>2021-01-27T11:04:14Z</time>
      </trkpt>
      <trkpt lat="43.82405" lon="7.45769">
        <ele>1062.6536886601</ele>
        <time>2021-01-27T11:04:15Z</time>
      </trkpt>
      <trkpt lat="43.82404" lon="7.45769">
        <ele>1063.6537190484</ele>
        <time>2021-01-27T11:04:16Z</time>
      </trkpt>
      <trkpt lat="43.82404" lon="7.4577">
        <ele>1063.6537371739</ele>
        <time>2021-01-27T11:04:17Z</time>
      </trkpt>
      <trkpt lat="43.82404" lon="7.45771">
        <ele>1063.6537676533</ele>
        <time>2021-01-27T11:04:18Z</time>
      </trkpt>
      <trkpt lat="43.82403" lon="7.45772">
        <ele>1064.653787802</ele>
        <time>2021-01-27T11:04:19Z</time>
      </trkpt>
      <trkpt lat="43.82403" lon="7.45774">
        <ele>1063.6538358244</ele>
        <time>2021-01-27T11:04:21Z</time>
      </trkpt>
      <trkpt lat="43.82402" lon="7.45777">
        <ele>1064.6539099023</ele>
        <time>2021-01-27T11:04:23Z</time>
      </trkpt>
      <trkpt lat="43.82401" lon="7.45778">
        <ele>1064.6539439465</ele>
        <time>2021-01-27T11:04:25Z</time>
      </trkpt>
      <trkpt lat="43.82401" lon="7.45779">
        <ele>1064.6539514347</ele>
        <time>2021-01-27T11:04:28Z</time>
      </trkpt>
      <trkpt lat="43.82401" lon="7.45781">
        <ele>1063.6540156783</ele>
        <time>2021-01-27T11:04:29Z</time>
      </trkpt>
      <trkpt lat="43.824" lon="7.45783">
        <ele>1062.6540593697</ele>
        <time>2021-01-27T11:04:31Z</time>
      </trkpt>
      <trkpt lat="43.824" lon="7.45785">
        <ele>1063.6540985114</ele>
        <time>2021-01-27T11:04:33Z</time>
      </trkpt>
      <trkpt lat="43.824" lon="7.45785">
        <ele>1062.6541182909</ele>
        <time>2021-01-27T11:04:36Z</time>
      </trkpt>
      <trkpt lat="43.82399" lon="7.45789">
        <ele>1063.6541857083</ele>
        <time>2021-01-27T11:04:38Z</time>
      </trkpt>
      <trkpt lat="43.82398" lon="7.4579">
        <ele>1064.6542229062</ele>
        <time>2021-01-27T11:04:39Z</time>
      </trkpt>
      <trkpt lat="43.82398" lon="7.4579">
        <ele>1065.6542640623</ele>
        <time>2021-01-27T11:04:40Z</time>
      </trkpt>
      <trkpt lat="43.82397" lon="7.45791">
        <ele>1065.6542884235</ele>
        <time>2021-01-27T11:04:42Z</time>
      </trkpt>
      <trkpt lat="43.82396" lon="7.45793">
        <ele>1064.6543663864</ele>
        <time>2021-01-27T11:04:44Z</time>
      </trkpt>
      <trkpt lat="43.82395" lon="7.45795">
        <ele>1066.6544484231</ele>
        <time>2021-01-27T11:04:46Z</time>
      </trkpt>
      <trkpt lat="43.82394" lon="7.45799">
        <ele>1066.6545329714</ele>
        <time>2021-01-27T11:04:48Z</time>
      </trkpt>
      <trkpt lat="43.82394" lon="7.458">
        <ele>1066.6545391189</ele>
        <time>2021-01-27T11:04:49Z</time>
      </trkpt>
      <trkpt lat="43.82394" lon="7.45801">
        <ele>1067.654546475</ele>
        <time>2021-01-27T11:04:50Z</time>
      </trkpt>
      <trkpt lat="43.82394" lon="7.45802">
        <ele>1067.6545544337</ele>
        <time>2021-01-27T11:04:51Z</time>
      </trkpt>
      <trkpt lat="43.82395" lon="7.45803">
        <ele>1067.6545634199</ele>
        <time>2021-01-27T11:04:52Z</time>
      </trkpt>
      <trkpt lat="43.82394" lon="7.45804">
        <ele>1067.6545761639</ele>
        <time>2021-01-27T11:04:53Z</time>
      </trkpt>
      <trkpt lat="43.82394" lon="7.45804">
        <ele>1067.6546143454</ele>
        <time>2021-01-27T11:04:55Z</time>
      </trkpt>
      <trkpt lat="43.82393" lon="7.45806">
        <ele>1067.654658609</ele>
        <time>2021-01-27T11:04:56Z</time>
      </trkpt>
      <trkpt lat="43.82392" lon="7.45808">
        <ele>1067.6547193304</ele>
        <time>2021-01-27T11:04:58Z</time>
      </trkpt>
      <trkpt lat="43.82393" lon="7.4581">
        <ele>1067.6547382789</ele>
        <time>2021-01-27T11:04:59Z</time>
      </trkpt>
      <trkpt lat="43.82392" lon="7.45811">
        <ele>1067.654761734</ele>
        <time>2021-01-27T11:05:00Z</time>
      </trkpt>
      <trkpt lat="43.82392" lon="7.45812">
        <ele>1068.6547860704</ele>
        <time>2021-01-27T11:05:01Z</time>
      </trkpt>
      <trkpt lat="43.82392" lon="7.45813">
        <ele>1068.6547951555</ele>
        <time>2021-01-27T11:05:04Z</time>
      </trkpt>
      <trkpt lat="43.82392" lon="7.45816">
        <ele>1069.6548323391</ele>
        <time>2021-01-27T11:05:05Z</time>
      </trkpt>
      <trkpt lat="43.82391" lon="7.45819">
        <ele>1070.6549005881</ele>
        <time>2021-01-27T11:05:07Z</time>
      </trkpt>
      <trkpt lat="43.82391" lon="7.45822">
        <ele>1070.6549479971</ele>
        <time>2021-01-27T11:05:09Z</time>
      </trkpt>
      <trkpt lat="43.82391" lon="7.45825">
        <ele>1070.6549730856</ele>
        <time>2021-01-27T11:05:11Z</time>
      </trkpt>
      <trkpt lat="43.82391" lon="7.45826">
        <ele>1070.6550055424</ele>
        <time>2021-01-27T11:05:12Z</time>
      </trkpt>
      <trkpt lat="43.8239" lon="7.45828">
        <ele>1071.6550489654</ele>
        <time>2021-01-27T11:05:13Z</time>
      </trkpt>
      <trkpt lat="43.8239" lon="7.45829">
        <ele>1070.6550913215</ele>
        <time>2021-01-27T11:05:14Z</time>
      </trkpt>
      <trkpt lat="43.82389" lon="7.4583">
        <ele>1070.6551340587</ele>
        <time>2021-01-27T11:05:15Z</time>
      </trkpt>
      <trkpt lat="43.82388" lon="7.45833">
        <ele>1071.6552084639</ele>
        <time>2021-01-27T11:05:17Z</time>
      </trkpt>
      <trkpt lat="43.82387" lon="7.45834">
        <ele>1072.6552773021</ele>
        <time>2021-01-27T11:05:18Z</time>
      </trkpt>
      <trkpt lat="43.82386" lon="7.45835">
        <ele>1072.655329091</ele>
        <time>2021-01-27T11:05:19Z</time>
      </trkpt>
      <trkpt lat="43.82385" lon="7.45836">
        <ele>1072.6553809989</ele>
        <time>2021-01-27T11:05:20Z</time>
      </trkpt>
      <trkpt lat="43.82385" lon="7.45837">
        <ele>1072.6554128943</ele>
        <time>2021-01-27T11:05:21Z</time>
      </trkpt>
      <trkpt lat="43.82384" lon="7.45839">
        <ele>1072.6554962909</ele>
        <time>2021-01-27T11:05:23Z</time>
      </trkpt>
      <trkpt lat="43.82383" lon="7.4584">
        <ele>1072.6555397659</ele>
        <time>2021-01-27T11:05:24Z</time>
      </trkpt>
      <trkpt lat="43.82382" lon="7.45841">
        <ele>1073.6555831446</ele>
        <time>2021-01-27T11:05:25Z</time>
      </trkpt>
      <trkpt lat="43.82382" lon="7.45842">
        <ele>1073.655599448</ele>
        <time>2021-01-27T11:05:26Z</time>
      </trkpt>
      <trkpt lat="43.82382" lon="7.45844">
        <ele>1073.6556219485</ele>
        <time>2021-01-27T11:05:27Z</time>
      </trkpt>
      <trkpt lat="43.82382" lon="7.45846">
        <ele>1073.6556686934</ele>
        <time>2021-01-27T11:05:29Z</time>
      </trkpt>
      <trkpt lat="43.82381" lon="7.45847">
        <ele>1074.6556986942</ele>
        <time>2021-01-27T11:05:30Z</time>
      </trkpt>
      <trkpt lat="43.82381" lon="7.45848">
        <ele>1073.6557359189</ele>
        <time>2021-01-27T11:05:31Z</time>
      </trkpt>
      <trkpt lat="43.8238" lon="7.45849">
        <ele>1073.6557771028</ele>
        <time>2021-01-27T11:05:32Z</time>
      </trkpt>
      <trkpt lat="43.8238" lon="7.4585">
        <ele>1073.6558086897</ele>
        <time>2021-01-27T11:05:35Z</time>
      </trkpt>
      <trkpt lat="43.82379" lon="7.45852">
        <ele>1073.6558708924</ele>
        <time>2021-01-27T11:05:36Z</time>
      </trkpt>
      <trkpt lat="43.82378" lon="7.45854">
        <ele>1074.6559401498</ele>
        <time>2021-01-27T11:05:38Z</time>
      </trkpt>
      <trkpt lat="43.82377" lon="7.45856">
        <ele>1074.6559988865</ele>
        <time>2021-01-27T11:05:39Z</time>
      </trkpt>
      <trkpt lat="43.82376" lon="7.45857">
        <ele>1074.6560439202</ele>
        <time>2021-01-27T11:05:40Z</time>
      </trkpt>
      <trkpt lat="43.82376" lon="7.45858">
        <ele>1074.6560773256</ele>
        <time>2021-01-27T11:05:41Z</time>
      </trkpt>
      <trkpt lat="43.82376" lon="7.4586">
        <ele>1074.656113885</ele>
        <time>2021-01-27T11:05:42Z</time>
      </trkpt>
      <trkpt lat="43.82375" lon="7.45861">
        <ele>1074.6561439362</ele>
        <time>2021-01-27T11:05:43Z</time>
      </trkpt>
      <trkpt lat="43.82375" lon="7.45862">
        <ele>1075.6561873617</ele>
        <time>2021-01-27T11:05:44Z</time>
      </trkpt>
      <trkpt lat="43.82374" lon="7.45863">
        <ele>1074.6562311998</ele>
        <time>2021-01-27T11:05:45Z</time>
      </trkpt>
      <trkpt lat="43.82373" lon="7.45865">
        <ele>1074.6562960119</ele>
        <time>2021-01-27T11:05:47Z</time>
      </trkpt>
      <trkpt lat="43.82373" lon="7.45865">
        <ele>1075.6563254052</ele>
        <time>2021-01-27T11:05:48Z</time>
      </trkpt>
      <trkpt lat="43.82372" lon="7.45866">
        <ele>1075.6563709982</ele>
        <time>2021-01-27T11:05:49Z</time>
      </trkpt>
      <trkpt lat="43.82371" lon="7.45866">
        <ele>1076.6564255078</ele>
        <time>2021-01-27T11:05:50Z</time>
      </trkpt>
      <trkpt lat="43.8237" lon="7.45867">
        <ele>1076.6564632569</ele>
        <time>2021-01-27T11:05:51Z</time>
      </trkpt>
      <trkpt lat="43.82369" lon="7.45869">
        <ele>1077.6565101922</ele>
        <time>2021-01-27T11:05:52Z</time>
      </trkpt>
      <trkpt lat="43.82369" lon="7.4587">
        <ele>1077.6565376903</ele>
        <time>2021-01-27T11:05:53Z</time>
      </trkpt>
      <trkpt lat="43.82369" lon="7.45871">
        <ele>1078.6565557105</ele>
        <time>2021-01-27T11:05:54Z</time>
      </trkpt>
      <trkpt lat="43.82369" lon="7.45872">
        <ele>1078.6565820488</ele>
        <time>2021-01-27T11:05:55Z</time>
      </trkpt>
      <trkpt lat="43.82368" lon="7.45873">
        <ele>1078.656607255</ele>
        <time>2021-01-27T11:05:56Z</time>
      </trkpt>
      <trkpt lat="43.82368" lon="7.45875">
        <ele>1079.6566348702</ele>
        <time>2021-01-27T11:05:58Z</time>
      </trkpt>
      <trkpt lat="43.82368" lon="7.45876">
        <ele>1080.6566547445</ele>
        <time>2021-01-27T11:05:59Z</time>
      </trkpt>
      <trkpt lat="43.82368" lon="7.45876">
        <ele>1080.6566519181</ele>
        <time>2021-01-27T11:06:00Z</time>
      </trkpt>
      <trkpt lat="43.82368" lon="7.45877">
        <ele>1080.6566809586</ele>
        <time>2021-01-27T11:06:01Z</time>
      </trkpt>
      <trkpt lat="43.82368" lon="7.45879">
        <ele>1080.6567155925</ele>
        <time>2021-01-27T11:06:02Z</time>
      </trkpt>
      <trkpt lat="43.82367" lon="7.45879">
        <ele>1080.6567423627</ele>
        <time>2021-01-27T11:06:03Z</time>
      </trkpt>
      <trkpt lat="43.82367" lon="7.4588">
        <ele>1080.6567633356</ele>
        <time>2021-01-27T11:06:04Z</time>
      </trkpt>
      <trkpt lat="43.82367" lon="7.45881">
        <ele>1080.6567857562</ele>
        <time>2021-01-27T11:06:05Z</time>
      </trkpt>
      <trkpt lat="43.82366" lon="7.45882">
        <ele>1080.6568146715</ele>
        <time>2021-01-27T11:06:06Z</time>
      </trkpt>
      <trkpt lat="43.82365" lon="7.45884">
        <ele>1081.6568784641</ele>
        <time>2021-01-27T11:06:08Z</time>
      </trkpt>
      <trkpt lat="43.82365" lon="7.45885">
        <ele>1081.6569162469</ele>
        <time>2021-01-27T11:06:09Z</time>
      </trkpt>
      <trkpt lat="43.82365" lon="7.45886">
        <ele>1081.6569428053</ele>
        <time>2021-01-27T11:06:10Z</time>
      </trkpt>
      <trkpt lat="43.82365" lon="7.45887">
        <ele>1081.6569486054</ele>
        <time>2021-01-27T11:06:11Z</time>
      </trkpt>
      <trkpt lat="43.82364" lon="7.45888">
        <ele>1082.6570047475</ele>
        <time>2021-01-27T11:06:12Z</time>
      </trkpt>
      <trkpt lat="43.82364" lon="7.45888">
        <ele>1082.6570047475</ele>
        <time>2021-01-27T11:06:14Z</time>
      </trkpt>
      <trkpt lat="43.82363" lon="7.4589">
        <ele>1082.657066634</ele>
        <time>2021-01-27T11:06:15Z</time>
      </trkpt>
      <trkpt lat="43.82362" lon="7.45891">
        <ele>1083.6571034518</ele>
        <time>2021-01-27T11:06:17Z</time>
      </trkpt>
      <trkpt lat="43.82362" lon="7.45892">
        <ele>1083.6571336316</ele>
        <time>2021-01-27T11:06:18Z</time>
      </trkpt>
      <trkpt lat="43.82362" lon="7.45893">
        <ele>1083.657139516</ele>
        <time>2021-01-27T11:06:19Z</time>
      </trkpt>
      <trkpt lat="43.82362" lon="7.45894">
        <ele>1084.6571611961</ele>
        <time>2021-01-27T11:06:20Z</time>
      </trkpt>
      <trkpt lat="43.82361" lon="7.45894">
        <ele>1084.657193401</ele>
        <time>2021-01-27T11:06:21Z</time>
      </trkpt>
      <trkpt lat="43.8236" lon="7.45895">
        <ele>1084.6572409979</ele>
        <time>2021-01-27T11:06:22Z</time>
      </trkpt>
      <trkpt lat="43.8236" lon="7.45896">
        <ele>1084.6572748915</ele>
        <time>2021-01-27T11:06:24Z</time>
      </trkpt>
      <trkpt lat="43.82359" lon="7.45897">
        <ele>1084.6573191536</ele>
        <time>2021-01-27T11:06:25Z</time>
      </trkpt>
      <trkpt lat="43.82358" lon="7.45898">
        <ele>1085.6573712034</ele>
        <time>2021-01-27T11:06:26Z</time>
      </trkpt>
      <trkpt lat="43.82358" lon="7.45899">
        <ele>1085.6574049052</ele>
        <time>2021-01-27T11:06:27Z</time>
      </trkpt>
      <trkpt lat="43.82357" lon="7.459">
        <ele>1085.6574382521</ele>
        <time>2021-01-27T11:06:28Z</time>
      </trkpt>
      <trkpt lat="43.82357" lon="7.45901">
        <ele>1085.6574799556</ele>
        <time>2021-01-27T11:06:29Z</time>
      </trkpt>
      <trkpt lat="43.82356" lon="7.45902">
        <ele>1085.6575075141</ele>
        <time>2021-01-27T11:06:31Z</time>
      </trkpt>
      <trkpt lat="43.82356" lon="7.45905">
        <ele>1085.6575599253</ele>
        <time>2021-01-27T11:06:32Z</time>
      </trkpt>
      <trkpt lat="43.82356" lon="7.45906">
        <ele>1086.6575915885</ele>
        <time>2021-01-27T11:06:33Z</time>
      </trkpt>
      <trkpt lat="43.82355" lon="7.45907">
        <ele>1086.6576350932</ele>
        <time>2021-01-27T11:06:34Z</time>
      </trkpt>
      <trkpt lat="43.82354" lon="7.45908">
        <ele>1086.6576797709</ele>
        <time>2021-01-27T11:06:35Z</time>
      </trkpt>
      <trkpt lat="43.82353" lon="7.45908">
        <ele>1087.65773858</ele>
        <time>2021-01-27T11:06:36Z</time>
      </trkpt>
      <trkpt lat="43.82352" lon="7.45908">
        <ele>1085.6577982856</ele>
        <time>2021-01-27T11:06:38Z</time>
      </trkpt>
      <trkpt lat="43.82352" lon="7.4591">
        <ele>1086.6578267062</ele>
        <time>2021-01-27T11:06:39Z</time>
      </trkpt>
      <trkpt lat="43.82351" lon="7.45911">
        <ele>1086.6578426292</ele>
        <time>2021-01-27T11:06:40Z</time>
      </trkpt>
      <trkpt lat="43.82351" lon="7.45911">
        <ele>1087.6578708043</ele>
        <time>2021-01-27T11:06:41Z</time>
      </trkpt>
      <trkpt lat="43.8235" lon="7.45913">
        <ele>1086.6579553407</ele>
        <time>2021-01-27T11:06:43Z</time>
      </trkpt>
      <trkpt lat="43.82349" lon="7.45914">
        <ele>1086.6579982569</ele>
        <time>2021-01-27T11:06:44Z</time>
      </trkpt>
      <trkpt lat="43.82348" lon="7.45915">
        <ele>1085.6580383196</ele>
        <time>2021-01-27T11:06:45Z</time>
      </trkpt>
      <trkpt lat="43.82347" lon="7.45916">
        <ele>1084.6581020811</ele>
        <time>2021-01-27T11:06:47Z</time>
      </trkpt>
      <trkpt lat="43.82347" lon="7.45918">
        <ele>1085.658145709</ele>
        <time>2021-01-27T11:06:48Z</time>
      </trkpt>
      <trkpt lat="43.82346" lon="7.4592">
        <ele>1084.6582008406</ele>
        <time>2021-01-27T11:06:49Z</time>
      </trkpt>
      <trkpt lat="43.82345" lon="7.45921">
        <ele>1083.6582503632</ele>
        <time>2021-01-27T11:06:50Z</time>
      </trkpt>
      <trkpt lat="43.82345" lon="7.45922">
        <ele>1083.6582975244</ele>
        <time>2021-01-27T11:06:51Z</time>
      </trkpt>
      <trkpt lat="43.82343" lon="7.45925">
        <ele>1083.6583861661</ele>
        <time>2021-01-27T11:06:53Z</time>
      </trkpt>
      <trkpt lat="43.82342" lon="7.45927">
        <ele>1082.6584516643</ele>
        <time>2021-01-27T11:06:54Z</time>
      </trkpt>
      <trkpt lat="43.82341" lon="7.45928">
        <ele>1082.6585155545</ele>
        <time>2021-01-27T11:06:55Z</time>
      </trkpt>
      <trkpt lat="43.82341" lon="7.45929">
        <ele>1082.6585616721</ele>
        <time>2021-01-27T11:06:56Z</time>
      </trkpt>
      <trkpt lat="43.8234" lon="7.4593">
        <ele>1082.6586066218</ele>
        <time>2021-01-27T11:06:57Z</time>
      </trkpt>
      <trkpt lat="43.82339" lon="7.45931">
        <ele>1082.6586444399</ele>
        <time>2021-01-27T11:06:58Z</time>
      </trkpt>
      <trkpt lat="43.82339" lon="7.45932">
        <ele>1083.658688453</ele>
        <time>2021-01-27T11:06:59Z</time>
      </trkpt>
      <trkpt lat="43.82339" lon="7.45934">
        <ele>1084.6587211337</ele>
        <time>2021-01-27T11:07:01Z</time>
      </trkpt>
      <trkpt lat="43.82338" lon="7.45936">
        <ele>1084.6587484448</ele>
        <time>2021-01-27T11:07:03Z</time>
      </trkpt>
      <trkpt lat="43.82338" lon="7.45937">
        <ele>1084.6587877447</ele>
        <time>2021-01-27T11:07:04Z</time>
      </trkpt>
      <trkpt lat="43.82338" lon="7.45938">
        <ele>1084.6588078136</ele>
        <time>2021-01-27T11:07:05Z</time>
      </trkpt>
      <trkpt lat="43.82337" lon="7.45939">
        <ele>1084.6588352465</ele>
        <time>2021-01-27T11:07:06Z</time>
      </trkpt>
      <trkpt lat="43.82337" lon="7.4594">
        <ele>1084.6588803931</ele>
        <time>2021-01-27T11:07:07Z</time>
      </trkpt>
      <trkpt lat="43.82336" lon="7.45941">
        <ele>1085.6589154631</ele>
        <time>2021-01-27T11:07:08Z</time>
      </trkpt>
      <trkpt lat="43.82336" lon="7.45942">
        <ele>1085.6589490732</ele>
        <time>2021-01-27T11:07:09Z</time>
      </trkpt>
      <trkpt lat="43.82335" lon="7.45943">
        <ele>1085.6589835729</ele>
        <time>2021-01-27T11:07:10Z</time>
      </trkpt>
      <trkpt lat="43.82334" lon="7.45944">
        <ele>1086.659027026</ele>
        <time>2021-01-27T11:07:11Z</time>
      </trkpt>
      <trkpt lat="43.82334" lon="7.45945">
        <ele>1086.659051274</ele>
        <time>2021-01-27T11:07:12Z</time>
      </trkpt>
      <trkpt lat="43.82334" lon="7.45946">
        <ele>1087.6590808454</ele>
        <time>2021-01-27T11:07:13Z</time>
      </trkpt>
      <trkpt lat="43.82333" lon="7.45947">
        <ele>1086.6591118606</ele>
        <time>2021-01-27T11:07:14Z</time>
      </trkpt>
      <trkpt lat="43.82333" lon="7.45948">
        <ele>1086.6591244909</ele>
        <time>2021-01-27T11:07:16Z</time>
      </trkpt>
      <trkpt lat="43.82333" lon="7.45949">
        <ele>1087.6591626893</ele>
        <time>2021-01-27T11:07:17Z</time>
      </trkpt>
      <trkpt lat="43.82332" lon="7.4595">
        <ele>1087.6592026633</ele>
        <time>2021-01-27T11:07:18Z</time>
      </trkpt>
      <trkpt lat="43.82332" lon="7.45951">
        <ele>1087.6592353852</ele>
        <time>2021-01-27T11:07:19Z</time>
      </trkpt>
      <trkpt lat="43.82332" lon="7.45952">
        <ele>1087.6592504899</ele>
        <time>2021-01-27T11:07:20Z</time>
      </trkpt>
      <trkpt lat="43.82332" lon="7.45953">
        <ele>1088.6592601163</ele>
        <time>2021-01-27T11:07:21Z</time>
      </trkpt>
      <trkpt lat="43.82332" lon="7.45953">
        <ele>1087.659256986</ele>
        <time>2021-01-27T11:07:22Z</time>
      </trkpt>
      <trkpt lat="43.82332" lon="7.45954">
        <ele>1088.6592472832</ele>
        <time>2021-01-27T11:07:23Z</time>
      </trkpt>
      <trkpt lat="43.82333" lon="7.45955">
        <ele>1088.6592403798</ele>
        <time>2021-01-27T11:07:24Z</time>
      </trkpt>
      <trkpt lat="43.82333" lon="7.45957">
        <ele>1087.6592373519</ele>
        <time>2021-01-27T11:07:26Z</time>
      </trkpt>
      <trkpt lat="43.82334" lon="7.45957">
        <ele>1088.6591843077</ele>
        <time>2021-01-27T11:07:28Z</time>
      </trkpt>
      <trkpt lat="43.82335" lon="7.45957">
        <ele>1089.6591380183</ele>
        <time>2021-01-27T11:07:29Z</time>
      </trkpt>
      <trkpt lat="43.82336" lon="7.45957">
        <ele>1089.6590958885</ele>
        <time>2021-01-27T11:07:30Z</time>
      </trkpt>
      <trkpt lat="43.82338" lon="7.45958">
        <ele>1090.6590280378</ele>
        <time>2021-01-27T11:07:32Z</time>
      </trkpt>
      <trkpt lat="43.8234" lon="7.4596">
        <ele>1089.6589739428</ele>
        <time>2021-01-27T11:07:34Z</time>
      </trkpt>
      <trkpt lat="43.82341" lon="7.45961">
        <ele>1090.6589337931</ele>
        <time>2021-01-27T11:07:35Z</time>
      </trkpt>
      <trkpt lat="43.82341" lon="7.45961">
        <ele>1090.658905164</ele>
        <time>2021-01-27T11:07:36Z</time>
      </trkpt>
      <trkpt lat="43.82342" lon="7.45963">
        <ele>1090.6588777645</ele>
        <time>2021-01-27T11:07:38Z</time>
      </trkpt>
      <trkpt lat="43.82344" lon="7.45964">
        <ele>1090.6588381368</ele>
        <time>2021-01-27T11:07:39Z</time>
      </trkpt>
      <trkpt lat="43.82344" lon="7.45965">
        <ele>1091.6588146003</ele>
        <time>2021-01-27T11:07:40Z</time>
      </trkpt>
      <trkpt lat="43.82345" lon="7.45966">
        <ele>1091.6587968012</ele>
        <time>2021-01-27T11:07:41Z</time>
      </trkpt>
      <trkpt lat="43.82345" lon="7.45967">
        <ele>1092.6588045445</ele>
        <time>2021-01-27T11:07:42Z</time>
      </trkpt>
      <trkpt lat="43.82345" lon="7.45967">
        <ele>1092.6587992005</ele>
        <time>2021-01-27T11:07:43Z</time>
      </trkpt>
      <trkpt lat="43.82345" lon="7.45968">
        <ele>1092.6588030163</ele>
        <time>2021-01-27T11:07:44Z</time>
      </trkpt>
      <trkpt lat="43.82346" lon="7.45969">
        <ele>1090.6587983633</ele>
        <time>2021-01-27T11:09:22Z</time>
      </trkpt>
      <trkpt lat="43.82345" lon="7.45971">
        <ele>1089.6588542508</ele>
        <time>2021-01-27T11:09:23Z</time>
      </trkpt>
      <trkpt lat="43.82345" lon="7.45971">
        <ele>1089.6588558104</ele>
        <time>2021-01-27T11:14:38Z</time>
      </trkpt>
      <trkpt lat="43.82346" lon="7.45972">
        <ele>1089.6588312261</ele>
        <time>2021-01-27T11:14:40Z</time>
      </trkpt>
      <trkpt lat="43.82346" lon="7.45972">
        <ele>1088.6588071951</ele>
        <time>2021-01-27T11:14:41Z</time>
      </trkpt>
      <trkpt lat="43.82346" lon="7.45973">
        <ele>1088.6588068629</ele>
        <time>2021-01-27T11:14:43Z</time>
      </trkpt>
      <trkpt lat="43.82347" lon="7.45972">
        <ele>1088.6587747008</ele>
        <time>2021-01-27T11:14:45Z</time>
      </trkpt>
      <trkpt lat="43.82347" lon="7.45972">
        <ele>1088.6587594628</ele>
        <time>2021-01-27T11:14:57Z</time>
      </trkpt>
      <trkpt lat="43.82348" lon="7.45973">
        <ele>1088.658754184</ele>
        <time>2021-01-27T11:15:00Z</time>
      </trkpt>
      <trkpt lat="43.82348" lon="7.45973">
        <ele>1086.6587610098</ele>
        <time>2021-01-27T11:16:42Z</time>
      </trkpt>
      <trkpt lat="43.82349" lon="7.45974">
        <ele>1086.6587199631</ele>
        <time>2021-01-27T11:16:44Z</time>
      </trkpt>
      <trkpt lat="43.82348" lon="7.45974">
        <ele>1088.6587244742</ele>
        <time>2021-01-27T11:22:06Z</time>
      </trkpt>
      <trkpt lat="43.82348" lon="7.45976">
        <ele>1088.6587495771</ele>
        <time>2021-01-27T11:28:56Z</time>
      </trkpt>
      <trkpt lat="43.82348" lon="7.45975">
        <ele>1089.6587595743</ele>
        <time>2021-01-27T11:36:49Z</time>
      </trkpt>
      <trkpt lat="43.8235" lon="7.45975">
        <ele>1086.6586837566</ele>
        <time>2021-01-27T11:36:51Z</time>
      </trkpt>
      <trkpt lat="43.82349" lon="7.45976">
        <ele>1087.6587122643</ele>
        <time>2021-01-27T11:39:52Z</time>
      </trkpt>
      <trkpt lat="43.82349" lon="7.45975">
        <ele>1088.658723726</ele>
        <time>2021-01-27T11:39:54Z</time>
      </trkpt>
      <trkpt lat="43.82348" lon="7.45975">
        <ele>1088.6587394043</ele>
        <time>2021-01-27T11:42:33Z</time>
      </trkpt>
      <trkpt lat="43.82348" lon="7.45974">
        <ele>1088.6587443022</ele>
        <time>2021-01-27T11:43:47Z</time>
      </trkpt>
      <trkpt lat="43.82347" lon="7.45971">
        <ele>1093.6587776614</ele>
        <time>2021-01-27T11:48:18Z</time>
      </trkpt>
      <trkpt lat="43.82345" lon="7.45974">
        <ele>1086.6589018822</ele>
        <time>2021-01-27T11:48:20Z</time>
      </trkpt>
      <trkpt lat="43.82345" lon="7.45973">
        <ele>1084.658852489</ele>
        <time>2021-01-27T11:48:21Z</time>
      </trkpt>
      <trkpt lat="43.82345" lon="7.45974">
        <ele>1082.6589033526</ele>
        <time>2021-01-27T11:48:23Z</time>
      </trkpt>
      <trkpt lat="43.82346" lon="7.45977">
        <ele>1079.6588778323</ele>
        <time>2021-01-27T11:48:25Z</time>
      </trkpt>
      <trkpt lat="43.82346" lon="7.45976">
        <ele>1080.6588683169</ele>
        <time>2021-01-27T11:48:39Z</time>
      </trkpt>
      <trkpt lat="43.82347" lon="7.45976">
        <ele>1082.6588364778</ele>
        <time>2021-01-27T11:49:43Z</time>
      </trkpt>
      <trkpt lat="43.82347" lon="7.45975">
        <ele>1085.6588211347</ele>
        <time>2021-01-27T11:49:49Z</time>
      </trkpt>
      <trkpt lat="43.82347" lon="7.45974">
        <ele>1085.6587987923</ele>
        <time>2021-01-27T11:54:35Z</time>
      </trkpt>
      <trkpt lat="43.82348" lon="7.45976">
        <ele>1087.658773708</ele>
        <time>2021-01-27T11:57:05Z</time>
      </trkpt>
      <trkpt lat="43.82348" lon="7.45976">
        <ele>1087.6587752329</ele>
        <time>2021-01-27T12:00:01Z</time>
      </trkpt>
      <trkpt lat="43.82347" lon="7.45974">
        <ele>1087.6587987487</ele>
        <time>2021-01-27T12:02:07Z</time>
      </trkpt>
      <trkpt lat="43.82346" lon="7.45973">
        <ele>1090.658816571</ele>
        <time>2021-01-27T12:07:23Z</time>
      </trkpt>
      <trkpt lat="43.82347" lon="7.45974">
        <ele>1091.6588112078</ele>
        <time>2021-01-27T12:07:27Z</time>
      </trkpt>
      <trkpt lat="43.82346" lon="7.45973">
        <ele>1090.6588380053</ele>
        <time>2021-01-27T12:07:42Z</time>
      </trkpt>
      <trkpt lat="43.82345" lon="7.45972">
        <ele>1091.6588494816</ele>
        <time>2021-01-27T12:07:43Z</time>
      </trkpt>
      <trkpt lat="43.82345" lon="7.45972">
        <ele>1091.6588718988</ele>
        <time>2021-01-27T12:07:44Z</time>
      </trkpt>
      <trkpt lat="43.82344" lon="7.45971">
        <ele>1090.658896517</ele>
        <time>2021-01-27T12:07:46Z</time>
      </trkpt>
      <trkpt lat="43.82344" lon="7.4597">
        <ele>1090.6589002944</ele>
        <time>2021-01-27T12:07:47Z</time>
      </trkpt>
      <trkpt lat="43.82343" lon="7.45967">
        <ele>1089.6588804756</ele>
        <time>2021-01-27T12:07:49Z</time>
      </trkpt>
      <trkpt lat="43.82343" lon="7.45966">
        <ele>1089.6589077045</ele>
        <time>2021-01-27T12:07:50Z</time>
      </trkpt>
      <trkpt lat="43.82342" lon="7.45966">
        <ele>1089.658932331</ele>
        <time>2021-01-27T12:07:51Z</time>
      </trkpt>
      <trkpt lat="43.82341" lon="7.45965">
        <ele>1089.6589611119</ele>
        <time>2021-01-27T12:07:52Z</time>
      </trkpt>
      <trkpt lat="43.82341" lon="7.45965">
        <ele>1089.6589882941</ele>
        <time>2021-01-27T12:07:53Z</time>
      </trkpt>
      <trkpt lat="43.8234" lon="7.45965">
        <ele>1089.6590199774</ele>
        <time>2021-01-27T12:07:54Z</time>
      </trkpt>
      <trkpt lat="43.82339" lon="7.45964">
        <ele>1089.659074369</ele>
        <time>2021-01-27T12:07:55Z</time>
      </trkpt>
      <trkpt lat="43.82337" lon="7.45963">
        <ele>1088.6591531162</ele>
        <time>2021-01-27T12:07:57Z</time>
      </trkpt>
      <trkpt lat="43.82336" lon="7.45963">
        <ele>1088.6591882</ele>
        <time>2021-01-27T12:07:58Z</time>
      </trkpt>
      <trkpt lat="43.82335" lon="7.45962">
        <ele>1088.659206909</ele>
        <time>2021-01-27T12:07:59Z</time>
      </trkpt>
      <trkpt lat="43.82334" lon="7.45962">
        <ele>1088.6592337071</ele>
        <time>2021-01-27T12:08:00Z</time>
      </trkpt>
      <trkpt lat="43.82335" lon="7.45961">
        <ele>1088.6592151184</ele>
        <time>2021-01-27T12:08:01Z</time>
      </trkpt>
      <trkpt lat="43.82335" lon="7.4596">
        <ele>1089.6592073656</ele>
        <time>2021-01-27T12:08:49Z</time>
      </trkpt>
      <trkpt lat="43.82335" lon="7.45959">
        <ele>1090.6591967906</ele>
        <time>2021-01-27T12:08:50Z</time>
      </trkpt>
      <trkpt lat="43.82334" lon="7.45959">
        <ele>1089.6592045284</ele>
        <time>2021-01-27T12:08:51Z</time>
      </trkpt>
      <trkpt lat="43.82335" lon="7.45957">
        <ele>1088.6591515643</ele>
        <time>2021-01-27T12:08:53Z</time>
      </trkpt>
      <trkpt lat="43.82335" lon="7.45957">
        <ele>1089.6591364323</ele>
        <time>2021-01-27T12:09:09Z</time>
      </trkpt>
      <trkpt lat="43.82334" lon="7.45955">
        <ele>1089.6591607049</ele>
        <time>2021-01-27T12:09:10Z</time>
      </trkpt>
      <trkpt lat="43.82334" lon="7.45953">
        <ele>1088.6591633771</ele>
        <time>2021-01-27T12:09:12Z</time>
      </trkpt>
      <trkpt lat="43.82334" lon="7.45951">
        <ele>1088.659123171</ele>
        <time>2021-01-27T12:09:14Z</time>
      </trkpt>
      <trkpt lat="43.82334" lon="7.4595">
        <ele>1088.6590966388</ele>
        <time>2021-01-27T12:09:15Z</time>
      </trkpt>
      <trkpt lat="43.82335" lon="7.45949">
        <ele>1088.6590652856</ele>
        <time>2021-01-27T12:09:16Z</time>
      </trkpt>
      <trkpt lat="43.82335" lon="7.45948">
        <ele>1088.6590465976</ele>
        <time>2021-01-27T12:09:17Z</time>
      </trkpt>
      <trkpt lat="43.82335" lon="7.45947">
        <ele>1087.6590235152</ele>
        <time>2021-01-27T12:09:18Z</time>
      </trkpt>
      <trkpt lat="43.82336" lon="7.45947">
        <ele>1087.6589938217</ele>
        <time>2021-01-27T12:09:19Z</time>
      </trkpt>
      <trkpt lat="43.82336" lon="7.45946">
        <ele>1086.6589641214</ele>
        <time>2021-01-27T12:09:20Z</time>
      </trkpt>
      <trkpt lat="43.82337" lon="7.45945">
        <ele>1086.6589298978</ele>
        <time>2021-01-27T12:09:21Z</time>
      </trkpt>
      <trkpt lat="43.82337" lon="7.45943">
        <ele>1086.6588781037</ele>
        <time>2021-01-27T12:09:23Z</time>
      </trkpt>
      <trkpt lat="43.82338" lon="7.45942">
        <ele>1086.6588579723</ele>
        <time>2021-01-27T12:09:24Z</time>
      </trkpt>
      <trkpt lat="43.82338" lon="7.4594">
        <ele>1086.658808592</ele>
        <time>2021-01-27T12:09:25Z</time>
      </trkpt>
      <trkpt lat="43.82339" lon="7.45939">
        <ele>1085.6587557027</ele>
        <time>2021-01-27T12:09:26Z</time>
      </trkpt>
      <trkpt lat="43.8234" lon="7.45938">
        <ele>1085.6587144239</ele>
        <time>2021-01-27T12:09:27Z</time>
      </trkpt>
      <trkpt lat="43.82339" lon="7.45936">
        <ele>1085.6587054116</ele>
        <time>2021-01-27T12:09:28Z</time>
      </trkpt>
      <trkpt lat="43.8234" lon="7.45935">
        <ele>1085.6586842197</ele>
        <time>2021-01-27T12:09:29Z</time>
      </trkpt>
      <trkpt lat="43.8234" lon="7.45934">
        <ele>1085.6586442888</ele>
        <time>2021-01-27T12:09:30Z</time>
      </trkpt>
      <trkpt lat="43.82341" lon="7.45933">
        <ele>1085.658602594</ele>
        <time>2021-01-27T12:09:31Z</time>
      </trkpt>
      <trkpt lat="43.82341" lon="7.45932">
        <ele>1086.6585737739</ele>
        <time>2021-01-27T12:09:32Z</time>
      </trkpt>
      <trkpt lat="43.82342" lon="7.45931">
        <ele>1086.6585417782</ele>
        <time>2021-01-27T12:09:33Z</time>
      </trkpt>
      <trkpt lat="43.82342" lon="7.4593">
        <ele>1086.6585010374</ele>
        <time>2021-01-27T12:09:34Z</time>
      </trkpt>
      <trkpt lat="43.82343" lon="7.4593">
        <ele>1085.6584683154</ele>
        <time>2021-01-27T12:09:35Z</time>
      </trkpt>
      <trkpt lat="43.82344" lon="7.45929">
        <ele>1086.6584010294</ele>
        <time>2021-01-27T12:09:36Z</time>
      </trkpt>
      <trkpt lat="43.82346" lon="7.45928">
        <ele>1086.6583215201</ele>
        <time>2021-01-27T12:09:37Z</time>
      </trkpt>
      <trkpt lat="43.82347" lon="7.45926">
        <ele>1085.6582291439</ele>
        <time>2021-01-27T12:09:39Z</time>
      </trkpt>
      <trkpt lat="43.82347" lon="7.45925">
        <ele>1085.658200526</ele>
        <time>2021-01-27T12:09:40Z</time>
      </trkpt>
      <trkpt lat="43.82348" lon="7.45924">
        <ele>1084.6581591309</ele>
        <time>2021-01-27T12:09:41Z</time>
      </trkpt>
      <trkpt lat="43.8235" lon="7.45922">
        <ele>1083.6580488619</ele>
        <time>2021-01-27T12:09:43Z</time>
      </trkpt>
      <trkpt lat="43.8235" lon="7.4592">
        <ele>1083.6580158841</ele>
        <time>2021-01-27T12:09:44Z</time>
      </trkpt>
      <trkpt lat="43.82351" lon="7.45919">
        <ele>1082.6579749741</ele>
        <time>2021-01-27T12:09:45Z</time>
      </trkpt>
      <trkpt lat="43.82353" lon="7.45918">
        <ele>1082.6578790054</ele>
        <time>2021-01-27T12:09:47Z</time>
      </trkpt>
      <trkpt lat="43.82354" lon="7.45916">
        <ele>1081.6577738116</ele>
        <time>2021-01-27T12:09:49Z</time>
      </trkpt>
      <trkpt lat="43.82355" lon="7.45914">
        <ele>1081.6577349681</ele>
        <time>2021-01-27T12:09:50Z</time>
      </trkpt>
      <trkpt lat="43.82355" lon="7.45913">
        <ele>1081.6576878698</ele>
        <time>2021-01-27T12:09:51Z</time>
      </trkpt>
      <trkpt lat="43.82355" lon="7.45912">
        <ele>1081.6576681096</ele>
        <time>2021-01-27T12:09:52Z</time>
      </trkpt>
      <trkpt lat="43.82356" lon="7.45911">
        <ele>1081.6576336455</ele>
        <time>2021-01-27T12:09:53Z</time>
      </trkpt>
      <trkpt lat="43.82357" lon="7.4591">
        <ele>1081.6575922403</ele>
        <time>2021-01-27T12:09:54Z</time>
      </trkpt>
      <trkpt lat="43.82357" lon="7.45909">
        <ele>1081.6575523129</ele>
        <time>2021-01-27T12:09:55Z</time>
      </trkpt>
      <trkpt lat="43.82358" lon="7.45908">
        <ele>1081.6575115251</ele>
        <time>2021-01-27T12:09:56Z</time>
      </trkpt>
      <trkpt lat="43.82359" lon="7.45906">
        <ele>1081.6574217914</ele>
        <time>2021-01-27T12:09:58Z</time>
      </trkpt>
      <trkpt lat="43.8236" lon="7.45904">
        <ele>1080.6573897035</ele>
        <time>2021-01-27T12:09:59Z</time>
      </trkpt>
      <trkpt lat="43.8236" lon="7.45903">
        <ele>1080.6573636006</ele>
        <time>2021-01-27T12:10:00Z</time>
      </trkpt>
      <trkpt lat="43.8236" lon="7.45903">
        <ele>1079.6573391243</ele>
        <time>2021-01-27T12:10:01Z</time>
      </trkpt>
      <trkpt lat="43.82361" lon="7.45902">
        <ele>1079.6573035578</ele>
        <time>2021-01-27T12:10:02Z</time>
      </trkpt>
      <trkpt lat="43.82362" lon="7.45902">
        <ele>1079.657261058</ele>
        <time>2021-01-27T12:10:03Z</time>
      </trkpt>
      <trkpt lat="43.82362" lon="7.45901">
        <ele>1078.6572293148</ele>
        <time>2021-01-27T12:10:04Z</time>
      </trkpt>
      <trkpt lat="43.82362" lon="7.45899">
        <ele>1078.6572001495</ele>
        <time>2021-01-27T12:10:05Z</time>
      </trkpt>
      <trkpt lat="43.82363" lon="7.45896">
        <ele>1077.6571394431</ele>
        <time>2021-01-27T12:10:07Z</time>
      </trkpt>
      <trkpt lat="43.82363" lon="7.45894">
        <ele>1076.6570962346</ele>
        <time>2021-01-27T12:10:09Z</time>
      </trkpt>
      <trkpt lat="43.82364" lon="7.45893">
        <ele>1076.6570466759</ele>
        <time>2021-01-27T12:10:10Z</time>
      </trkpt>
      <trkpt lat="43.82365" lon="7.45892">
        <ele>1076.6570088512</ele>
        <time>2021-01-27T12:10:11Z</time>
      </trkpt>
      <trkpt lat="43.82365" lon="7.45891">
        <ele>1077.6569739454</ele>
        <time>2021-01-27T12:10:12Z</time>
      </trkpt>
      <trkpt lat="43.82365" lon="7.45889">
        <ele>1076.6569492447</ele>
        <time>2021-01-27T12:10:13Z</time>
      </trkpt>
      <trkpt lat="43.82366" lon="7.45888">
        <ele>1075.6569062828</ele>
        <time>2021-01-27T12:10:14Z</time>
      </trkpt>
      <trkpt lat="43.82366" lon="7.45886">
        <ele>1075.6568592937</ele>
        <time>2021-01-27T12:10:15Z</time>
      </trkpt>
      <trkpt lat="43.82367" lon="7.45885">
        <ele>1075.6568156891</ele>
        <time>2021-01-27T12:10:16Z</time>
      </trkpt>
      <trkpt lat="43.82368" lon="7.45883">
        <ele>1074.6567546476</ele>
        <time>2021-01-27T12:10:18Z</time>
      </trkpt>
      <trkpt lat="43.82368" lon="7.45882">
        <ele>1073.6567280074</ele>
        <time>2021-01-27T12:10:19Z</time>
      </trkpt>
      <trkpt lat="43.82369" lon="7.4588">
        <ele>1073.6566806778</ele>
        <time>2021-01-27T12:10:20Z</time>
      </trkpt>
      <trkpt lat="43.82369" lon="7.45878">
        <ele>1073.6566282633</ele>
        <time>2021-01-27T12:10:22Z</time>
      </trkpt>
      <trkpt lat="43.8237" lon="7.45875">
        <ele>1074.6565339067</ele>
        <time>2021-01-27T12:10:24Z</time>
      </trkpt>
      <trkpt lat="43.82371" lon="7.45873">
        <ele>1074.6565000337</ele>
        <time>2021-01-27T12:10:25Z</time>
      </trkpt>
      <trkpt lat="43.82371" lon="7.45872">
        <ele>1074.6564697107</ele>
        <time>2021-01-27T12:10:26Z</time>
      </trkpt>
      <trkpt lat="43.82373" lon="7.45871">
        <ele>1074.6563923204</ele>
        <time>2021-01-27T12:10:28Z</time>
      </trkpt>
      <trkpt lat="43.82373" lon="7.45869">
        <ele>1074.656357763</ele>
        <time>2021-01-27T12:10:29Z</time>
      </trkpt>
      <trkpt lat="43.82373" lon="7.45868">
        <ele>1074.6563276222</ele>
        <time>2021-01-27T12:10:30Z</time>
      </trkpt>
      <trkpt lat="43.82375" lon="7.45866">
        <ele>1074.65624153</ele>
        <time>2021-01-27T12:10:32Z</time>
      </trkpt>
      <trkpt lat="43.82376" lon="7.45864">
        <ele>1074.6561697891</ele>
        <time>2021-01-27T12:10:34Z</time>
      </trkpt>
      <trkpt lat="43.82376" lon="7.45863">
        <ele>1074.6561342689</ele>
        <time>2021-01-27T12:10:35Z</time>
      </trkpt>
      <trkpt lat="43.82377" lon="7.45863">
        <ele>1074.6560854092</ele>
        <time>2021-01-27T12:10:36Z</time>
      </trkpt>
      <trkpt lat="43.82378" lon="7.45862">
        <ele>1074.6560481417</ele>
        <time>2021-01-27T12:10:37Z</time>
      </trkpt>
      <trkpt lat="43.82378" lon="7.4586">
        <ele>1074.6560048792</ele>
        <time>2021-01-27T12:10:38Z</time>
      </trkpt>
      <trkpt lat="43.82378" lon="7.45859">
        <ele>1073.6559808778</ele>
        <time>2021-01-27T12:10:39Z</time>
      </trkpt>
      <trkpt lat="43.82379" lon="7.45858">
        <ele>1073.6559287264</ele>
        <time>2021-01-27T12:10:40Z</time>
      </trkpt>
      <trkpt lat="43.8238" lon="7.45857">
        <ele>1072.6559068082</ele>
        <time>2021-01-27T12:10:41Z</time>
      </trkpt>
      <trkpt lat="43.8238" lon="7.45856">
        <ele>1072.6558816056</ele>
        <time>2021-01-27T12:10:42Z</time>
      </trkpt>
      <trkpt lat="43.8238" lon="7.45854">
        <ele>1072.6558302222</ele>
        <time>2021-01-27T12:10:44Z</time>
      </trkpt>
      <trkpt lat="43.82381" lon="7.45854">
        <ele>1072.6557926906</ele>
        <time>2021-01-27T12:10:45Z</time>
      </trkpt>
      <trkpt lat="43.82382" lon="7.45853">
        <ele>1071.6557560308</ele>
        <time>2021-01-27T12:10:46Z</time>
      </trkpt>
      <trkpt lat="43.82382" lon="7.45852">
        <ele>1071.6557252128</ele>
        <time>2021-01-27T12:10:47Z</time>
      </trkpt>
      <trkpt lat="43.82382" lon="7.45851">
        <ele>1071.6557034076</ele>
        <time>2021-01-27T12:10:50Z</time>
      </trkpt>
      <trkpt lat="43.82384" lon="7.45849">
        <ele>1071.6555910592</ele>
        <time>2021-01-27T12:10:51Z</time>
      </trkpt>
      <trkpt lat="43.82385" lon="7.45848">
        <ele>1071.6555256507</ele>
        <time>2021-01-27T12:10:53Z</time>
      </trkpt>
      <trkpt lat="43.82386" lon="7.45847">
        <ele>1070.6554850264</ele>
        <time>2021-01-27T12:10:54Z</time>
      </trkpt>
      <trkpt lat="43.82387" lon="7.45846">
        <ele>1070.6554468792</ele>
        <time>2021-01-27T12:10:55Z</time>
      </trkpt>
      <trkpt lat="43.82387" lon="7.45846">
        <ele>1070.6554181855</ele>
        <time>2021-01-27T12:10:58Z</time>
      </trkpt>
      <trkpt lat="43.82387" lon="7.45844">
        <ele>1069.6553907339</ele>
        <time>2021-01-27T12:10:59Z</time>
      </trkpt>
      <trkpt lat="43.82388" lon="7.45843">
        <ele>1069.6553614159</ele>
        <time>2021-01-27T12:11:00Z</time>
      </trkpt>
      <trkpt lat="43.82388" lon="7.45842">
        <ele>1069.6553264503</ele>
        <time>2021-01-27T12:11:01Z</time>
      </trkpt>
      <trkpt lat="43.82389" lon="7.45841">
        <ele>1069.6552628989</ele>
        <time>2021-01-27T12:11:03Z</time>
      </trkpt>
      <trkpt lat="43.8239" lon="7.4584">
        <ele>1069.6552309265</ele>
        <time>2021-01-27T12:11:04Z</time>
      </trkpt>
      <trkpt lat="43.8239" lon="7.45838">
        <ele>1069.6551992526</ele>
        <time>2021-01-27T12:11:05Z</time>
      </trkpt>
      <trkpt lat="43.8239" lon="7.45837">
        <ele>1069.6551711478</ele>
        <time>2021-01-27T12:11:07Z</time>
      </trkpt>
      <trkpt lat="43.8239" lon="7.45834">
        <ele>1068.6551288091</ele>
        <time>2021-01-27T12:11:09Z</time>
      </trkpt>
      <trkpt lat="43.8239" lon="7.45833">
        <ele>1068.6551041793</ele>
        <time>2021-01-27T12:11:10Z</time>
      </trkpt>
      <trkpt lat="43.82391" lon="7.45832">
        <ele>1068.6550811661</ele>
        <time>2021-01-27T12:11:11Z</time>
      </trkpt>
      <trkpt lat="43.82391" lon="7.4583">
        <ele>1069.6550219422</ele>
        <time>2021-01-27T12:11:13Z</time>
      </trkpt>
      <trkpt lat="43.82392" lon="7.45828">
        <ele>1069.6549968288</ele>
        <time>2021-01-27T12:11:14Z</time>
      </trkpt>
      <trkpt lat="43.82392" lon="7.45827">
        <ele>1069.654980241</ele>
        <time>2021-01-27T12:11:15Z</time>
      </trkpt>
      <trkpt lat="43.82393" lon="7.45826">
        <ele>1067.6549272384</ele>
        <time>2021-01-27T12:11:17Z</time>
      </trkpt>
      <trkpt lat="43.82393" lon="7.45824">
        <ele>1067.6549002457</ele>
        <time>2021-01-27T12:11:18Z</time>
      </trkpt>
      <trkpt lat="43.82393" lon="7.45823">
        <ele>1067.6548662072</ele>
        <time>2021-01-27T12:11:19Z</time>
      </trkpt>
      <trkpt lat="43.82393" lon="7.45821">
        <ele>1066.6548332234</ele>
        <time>2021-01-27T12:11:20Z</time>
      </trkpt>
      <trkpt lat="43.82393" lon="7.45818">
        <ele>1065.6547883295</ele>
        <time>2021-01-27T12:11:22Z</time>
      </trkpt>
      <trkpt lat="43.82394" lon="7.45815">
        <ele>1064.6547210242</ele>
        <time>2021-01-27T12:11:24Z</time>
      </trkpt>
      <trkpt lat="43.82394" lon="7.45814">
        <ele>1064.6546920875</ele>
        <time>2021-01-27T12:11:25Z</time>
      </trkpt>
      <trkpt lat="43.82395" lon="7.45812">
        <ele>1064.6546549838</ele>
        <time>2021-01-27T12:11:26Z</time>
      </trkpt>
      <trkpt lat="43.82395" lon="7.45811">
        <ele>1064.6546242093</ele>
        <time>2021-01-27T12:11:27Z</time>
      </trkpt>
      <trkpt lat="43.82396" lon="7.45809">
        <ele>1064.6545886522</ele>
        <time>2021-01-27T12:11:28Z</time>
      </trkpt>
      <trkpt lat="43.82396" lon="7.45808">
        <ele>1064.654571473</ele>
        <time>2021-01-27T12:11:29Z</time>
      </trkpt>
      <trkpt lat="43.82396" lon="7.45807">
        <ele>1064.6545481312</ele>
        <time>2021-01-27T12:11:30Z</time>
      </trkpt>
      <trkpt lat="43.82396" lon="7.45805">
        <ele>1065.6544953657</ele>
        <time>2021-01-27T12:11:32Z</time>
      </trkpt>
      <trkpt lat="43.82397" lon="7.45803">
        <ele>1065.6544752006</ele>
        <time>2021-01-27T12:11:33Z</time>
      </trkpt>
      <trkpt lat="43.82397" lon="7.45802">
        <ele>1065.6544641561</ele>
        <time>2021-01-27T12:11:34Z</time>
      </trkpt>
      <trkpt lat="43.82396" lon="7.45801">
        <ele>1064.6544559288</ele>
        <time>2021-01-27T12:11:35Z</time>
      </trkpt>
      <trkpt lat="43.82396" lon="7.458">
        <ele>1064.6544390134</ele>
        <time>2021-01-27T12:11:36Z</time>
      </trkpt>
      <trkpt lat="43.82397" lon="7.45799">
        <ele>1063.6544100041</ele>
        <time>2021-01-27T12:11:37Z</time>
      </trkpt>
      <trkpt lat="43.82398" lon="7.45797">
        <ele>1063.6543563687</ele>
        <time>2021-01-27T12:11:39Z</time>
      </trkpt>
      <trkpt lat="43.82398" lon="7.45796">
        <ele>1063.6543191085</ele>
        <time>2021-01-27T12:11:40Z</time>
      </trkpt>
      <trkpt lat="43.82399" lon="7.45794">
        <ele>1062.654274942</ele>
        <time>2021-01-27T12:11:41Z</time>
      </trkpt>
      <trkpt lat="43.82399" lon="7.45793">
        <ele>1062.6542437381</ele>
        <time>2021-01-27T12:11:42Z</time>
      </trkpt>
      <trkpt lat="43.82399" lon="7.45792">
        <ele>1062.6542187269</ele>
        <time>2021-01-27T12:11:43Z</time>
      </trkpt>
      <trkpt lat="43.824" lon="7.45791">
        <ele>1061.6541787616</ele>
        <time>2021-01-27T12:11:44Z</time>
      </trkpt>
      <trkpt lat="43.824" lon="7.4579">
        <ele>1062.6541363418</ele>
        <time>2021-01-27T12:11:45Z</time>
      </trkpt>
      <trkpt lat="43.82402" lon="7.45787">
        <ele>1062.6540391635</ele>
        <time>2021-01-27T12:11:47Z</time>
      </trkpt>
      <trkpt lat="43.82402" lon="7.45785">
        <ele>1062.6539857545</ele>
        <time>2021-01-27T12:11:48Z</time>
      </trkpt>
      <trkpt lat="43.82403" lon="7.45783">
        <ele>1062.6539429596</ele>
        <time>2021-01-27T12:11:49Z</time>
      </trkpt>
      <trkpt lat="43.82403" lon="7.45782">
        <ele>1062.6539017744</ele>
        <time>2021-01-27T12:11:50Z</time>
      </trkpt>
      <trkpt lat="43.82403" lon="7.4578">
        <ele>1061.6538769513</ele>
        <time>2021-01-27T12:11:51Z</time>
      </trkpt>
      <trkpt lat="43.82405" lon="7.45778">
        <ele>1061.6537970584</ele>
        <time>2021-01-27T12:11:53Z</time>
      </trkpt>
      <trkpt lat="43.82405" lon="7.45776">
        <ele>1061.6537583553</ele>
        <time>2021-01-27T12:11:54Z</time>
      </trkpt>
      <trkpt lat="43.82406" lon="7.45775">
        <ele>1061.6537068555</ele>
        <time>2021-01-27T12:11:55Z</time>
      </trkpt>
      <trkpt lat="43.82407" lon="7.45773">
        <ele>1061.653629253</ele>
        <time>2021-01-27T12:11:57Z</time>
      </trkpt>
      <trkpt lat="43.82408" lon="7.45772">
        <ele>1061.6535613573</ele>
        <time>2021-01-27T12:11:59Z</time>
      </trkpt>
      <trkpt lat="43.82408" lon="7.4577">
        <ele>1061.6535433913</ele>
        <time>2021-01-27T12:12:00Z</time>
      </trkpt>
      <trkpt lat="43.82408" lon="7.45769">
        <ele>1061.6535126413</ele>
        <time>2021-01-27T12:12:01Z</time>
      </trkpt>
      <trkpt lat="43.82408" lon="7.45765">
        <ele>1061.6534830053</ele>
        <time>2021-01-27T12:12:03Z</time>
      </trkpt>
      <trkpt lat="43.82408" lon="7.45764">
        <ele>1061.6534896172</ele>
        <time>2021-01-27T12:12:04Z</time>
      </trkpt>
      <trkpt lat="43.82407" lon="7.45762">
        <ele>1060.653503737</ele>
        <time>2021-01-27T12:12:05Z</time>
      </trkpt>
      <trkpt lat="43.82406" lon="7.45759">
        <ele>1060.6535220869</ele>
        <time>2021-01-27T12:12:07Z</time>
      </trkpt>
      <trkpt lat="43.82405" lon="7.45757">
        <ele>1059.6535274298</ele>
        <time>2021-01-27T12:12:08Z</time>
      </trkpt>
      <trkpt lat="43.82405" lon="7.45756">
        <ele>1059.6535277636</ele>
        <time>2021-01-27T12:12:09Z</time>
      </trkpt>
      <trkpt lat="43.82404" lon="7.45753">
        <ele>1059.6535534357</ele>
        <time>2021-01-27T12:12:10Z</time>
      </trkpt>
      <trkpt lat="43.82403" lon="7.45752">
        <ele>1058.6535524694</ele>
        <time>2021-01-27T12:12:11Z</time>
      </trkpt>
      <trkpt lat="43.82402" lon="7.45751">
        <ele>1058.653580982</ele>
        <time>2021-01-27T12:12:12Z</time>
      </trkpt>
      <trkpt lat="43.82401" lon="7.4575">
        <ele>1057.6536140187</ele>
        <time>2021-01-27T12:12:13Z</time>
      </trkpt>
      <trkpt lat="43.824" lon="7.4575">
        <ele>1057.6536571313</ele>
        <time>2021-01-27T12:12:14Z</time>
      </trkpt>
      <trkpt lat="43.82399" lon="7.4575">
        <ele>1057.653713938</ele>
        <time>2021-01-27T12:12:15Z</time>
      </trkpt>
      <trkpt lat="43.82398" lon="7.4575">
        <ele>1057.6537834793</ele>
        <time>2021-01-27T12:12:16Z</time>
      </trkpt>
      <trkpt lat="43.82395" lon="7.45749">
        <ele>1057.6539181443</ele>
        <time>2021-01-27T12:12:18Z</time>
      </trkpt>
      <trkpt lat="43.82393" lon="7.45749">
        <ele>1058.653984242</ele>
        <time>2021-01-27T12:12:19Z</time>
      </trkpt>
      <trkpt lat="43.82392" lon="7.45749">
        <ele>1058.6540406841</ele>
        <time>2021-01-27T12:12:20Z</time>
      </trkpt>
      <trkpt lat="43.82391" lon="7.45749">
        <ele>1058.6541086137</ele>
        <time>2021-01-27T12:12:21Z</time>
      </trkpt>
      <trkpt lat="43.82389" lon="7.45748">
        <ele>1058.6541848374</ele>
        <time>2021-01-27T12:12:22Z</time>
      </trkpt>
      <trkpt lat="43.82387" lon="7.45748">
        <ele>1058.6542670225</ele>
        <time>2021-01-27T12:12:23Z</time>
      </trkpt>
      <trkpt lat="43.82385" lon="7.45747">
        <ele>1058.6543351218</ele>
        <time>2021-01-27T12:12:24Z</time>
      </trkpt>
      <trkpt lat="43.82384" lon="7.45747">
        <ele>1058.6543818199</ele>
        <time>2021-01-27T12:12:25Z</time>
      </trkpt>
      <trkpt lat="43.82381" lon="7.45746">
        <ele>1057.6545017582</ele>
        <time>2021-01-27T12:12:27Z</time>
      </trkpt>
      <trkpt lat="43.8238" lon="7.45745">
        <ele>1057.6545538405</ele>
        <time>2021-01-27T12:12:28Z</time>
      </trkpt>
      <trkpt lat="43.82379" lon="7.45743">
        <ele>1057.6545821525</ele>
        <time>2021-01-27T12:12:29Z</time>
      </trkpt>
      <trkpt lat="43.82378" lon="7.45742">
        <ele>1057.6545993793</ele>
        <time>2021-01-27T12:12:30Z</time>
      </trkpt>
      <trkpt lat="43.82378" lon="7.4574">
        <ele>1057.654609876</ele>
        <time>2021-01-27T12:12:31Z</time>
      </trkpt>
      <trkpt lat="43.82378" lon="7.45739">
        <ele>1057.6545915651</ele>
        <time>2021-01-27T12:12:32Z</time>
      </trkpt>
      <trkpt lat="43.82377" lon="7.45737">
        <ele>1058.6545851926</ele>
        <time>2021-01-27T12:12:34Z</time>
      </trkpt>
      <trkpt lat="43.82377" lon="7.45735">
        <ele>1057.6545879888</ele>
        <time>2021-01-27T12:12:35Z</time>
      </trkpt>
      <trkpt lat="43.82377" lon="7.45734">
        <ele>1058.654574625</ele>
        <time>2021-01-27T12:12:36Z</time>
      </trkpt>
      <trkpt lat="43.82377" lon="7.45732">
        <ele>1058.6545511688</ele>
        <time>2021-01-27T12:12:38Z</time>
      </trkpt>
      <trkpt lat="43.82378" lon="7.45731">
        <ele>1058.6545059563</ele>
        <time>2021-01-27T12:12:39Z</time>
      </trkpt>
      <trkpt lat="43.82378" lon="7.4573">
        <ele>1058.6544540344</ele>
        <time>2021-01-27T12:12:40Z</time>
      </trkpt>
      <trkpt lat="43.82379" lon="7.45727">
        <ele>1058.6543918231</ele>
        <time>2021-01-27T12:12:42Z</time>
      </trkpt>
      <trkpt lat="43.8238" lon="7.45724">
        <ele>1058.6542942754</ele>
        <time>2021-01-27T12:12:44Z</time>
      </trkpt>
      <trkpt lat="43.82381" lon="7.45723">
        <ele>1058.654231992</ele>
        <time>2021-01-27T12:12:45Z</time>
      </trkpt>
      <trkpt lat="43.82382" lon="7.45722">
        <ele>1057.6541934243</ele>
        <time>2021-01-27T12:12:46Z</time>
      </trkpt>
      <trkpt lat="43.82383" lon="7.4572">
        <ele>1056.6541131525</ele>
        <time>2021-01-27T12:12:48Z</time>
      </trkpt>
      <trkpt lat="43.82384" lon="7.45719">
        <ele>1056.6540757888</ele>
        <time>2021-01-27T12:12:49Z</time>
      </trkpt>
      <trkpt lat="43.82384" lon="7.45717">
        <ele>1056.6540243945</ele>
        <time>2021-01-27T12:12:50Z</time>
      </trkpt>
      <trkpt lat="43.82386" lon="7.45714">
        <ele>1056.6539309005</ele>
        <time>2021-01-27T12:12:52Z</time>
      </trkpt>
      <trkpt lat="43.82386" lon="7.45713">
        <ele>1056.653884717</ele>
        <time>2021-01-27T12:12:53Z</time>
      </trkpt>
      <trkpt lat="43.82386" lon="7.45711">
        <ele>1055.6538631673</ele>
        <time>2021-01-27T12:12:54Z</time>
      </trkpt>
      <trkpt lat="43.82386" lon="7.4571">
        <ele>1055.6538365805</ele>
        <time>2021-01-27T12:12:55Z</time>
      </trkpt>
      <trkpt lat="43.82387" lon="7.45708">
        <ele>1055.6538060765</ele>
        <time>2021-01-27T12:12:56Z</time>
      </trkpt>
      <trkpt lat="43.82387" lon="7.45705">
        <ele>1055.6537570457</ele>
        <time>2021-01-27T12:12:58Z</time>
      </trkpt>
      <trkpt lat="43.82387" lon="7.45703">
        <ele>1055.653717003</ele>
        <time>2021-01-27T12:12:59Z</time>
      </trkpt>
      <trkpt lat="43.82388" lon="7.45702">
        <ele>1055.6536822177</ele>
        <time>2021-01-27T12:13:00Z</time>
      </trkpt>
      <trkpt lat="43.82388" lon="7.45701">
        <ele>1055.6536654903</ele>
        <time>2021-01-27T12:13:01Z</time>
      </trkpt>
      <trkpt lat="43.82388" lon="7.457">
        <ele>1055.6536485797</ele>
        <time>2021-01-27T12:13:02Z</time>
      </trkpt>
      <trkpt lat="43.82388" lon="7.45699">
        <ele>1055.6536200866</ele>
        <time>2021-01-27T12:13:03Z</time>
      </trkpt>
      <trkpt lat="43.82389" lon="7.45698">
        <ele>1055.6535916746</ele>
        <time>2021-01-27T12:13:04Z</time>
      </trkpt>
      <trkpt lat="43.82389" lon="7.45696">
        <ele>1055.653572075</ele>
        <time>2021-01-27T12:13:05Z</time>
      </trkpt>
      <trkpt lat="43.82389" lon="7.45695">
        <ele>1055.653550794</ele>
        <time>2021-01-27T12:13:06Z</time>
      </trkpt>
      <trkpt lat="43.82389" lon="7.45691">
        <ele>1054.6534894518</ele>
        <time>2021-01-27T12:13:08Z</time>
      </trkpt>
      <trkpt lat="43.82389" lon="7.45689">
        <ele>1054.6534637062</ele>
        <time>2021-01-27T12:13:09Z</time>
      </trkpt>
      <trkpt lat="43.82389" lon="7.45688">
        <ele>1054.6534558379</ele>
        <time>2021-01-27T12:13:10Z</time>
      </trkpt>
      <trkpt lat="43.82389" lon="7.45687">
        <ele>1054.6534408547</ele>
        <time>2021-01-27T12:13:11Z</time>
      </trkpt>
      <trkpt lat="43.82389" lon="7.45686">
        <ele>1054.6534211686</ele>
        <time>2021-01-27T12:13:12Z</time>
      </trkpt>
      <trkpt lat="43.82389" lon="7.45683">
        <ele>1054.6534022419</ele>
        <time>2021-01-27T12:13:14Z</time>
      </trkpt>
      <trkpt lat="43.82389" lon="7.45681">
        <ele>1054.653388126</ele>
        <time>2021-01-27T12:13:15Z</time>
      </trkpt>
      <trkpt lat="43.82389" lon="7.4568">
        <ele>1054.653352812</ele>
        <time>2021-01-27T12:13:16Z</time>
      </trkpt>
      <trkpt lat="43.8239" lon="7.45679">
        <ele>1054.653328249</ele>
        <time>2021-01-27T12:13:17Z</time>
      </trkpt>
      <trkpt lat="43.8239" lon="7.45678">
        <ele>1055.6533096463</ele>
        <time>2021-01-27T12:13:18Z</time>
      </trkpt>
      <trkpt lat="43.8239" lon="7.45677">
        <ele>1055.6532962658</ele>
        <time>2021-01-27T12:13:19Z</time>
      </trkpt>
      <trkpt lat="43.8239" lon="7.45675">
        <ele>1055.6532609548</ele>
        <time>2021-01-27T12:13:20Z</time>
      </trkpt>
      <trkpt lat="43.8239" lon="7.45674">
        <ele>1055.6532307327</ele>
        <time>2021-01-27T12:13:21Z</time>
      </trkpt>
      <trkpt lat="43.82391" lon="7.45671">
        <ele>1055.6531781246</ele>
        <time>2021-01-27T12:13:23Z</time>
      </trkpt>
      <trkpt lat="43.82391" lon="7.4567">
        <ele>1054.6531517492</ele>
        <time>2021-01-27T12:13:24Z</time>
      </trkpt>
      <trkpt lat="43.82391" lon="7.45669">
        <ele>1055.6531198828</ele>
        <time>2021-01-27T12:13:25Z</time>
      </trkpt>
      <trkpt lat="43.82392" lon="7.45666">
        <ele>1054.6530391681</ele>
        <time>2021-01-27T12:13:27Z</time>
      </trkpt>
      <trkpt lat="43.82393" lon="7.45662">
        <ele>1053.6529510928</ele>
        <time>2021-01-27T12:13:29Z</time>
      </trkpt>
      <trkpt lat="43.82394" lon="7.45661">
        <ele>1053.6529189389</ele>
        <time>2021-01-27T12:13:30Z</time>
      </trkpt>
      <trkpt lat="43.82394" lon="7.4566">
        <ele>1053.6528781865</ele>
        <time>2021-01-27T12:13:31Z</time>
      </trkpt>
      <trkpt lat="43.82395" lon="7.45659">
        <ele>1053.6528393209</ele>
        <time>2021-01-27T12:13:32Z</time>
      </trkpt>
      <trkpt lat="43.82396" lon="7.45656">
        <ele>1054.6527386486</ele>
        <time>2021-01-27T12:13:34Z</time>
      </trkpt>
      <trkpt lat="43.82397" lon="7.45655">
        <ele>1054.6526885177</ele>
        <time>2021-01-27T12:13:35Z</time>
      </trkpt>
      <trkpt lat="43.82398" lon="7.45654">
        <ele>1054.6526552699</ele>
        <time>2021-01-27T12:13:36Z</time>
      </trkpt>
      <trkpt lat="43.82399" lon="7.45651">
        <ele>1053.6525725025</ele>
        <time>2021-01-27T12:13:38Z</time>
      </trkpt>
      <trkpt lat="43.82399" lon="7.45649">
        <ele>1053.6525172745</ele>
        <time>2021-01-27T12:13:39Z</time>
      </trkpt>
      <trkpt lat="43.824" lon="7.45649">
        <ele>1053.6524625777</ele>
        <time>2021-01-27T12:13:40Z</time>
      </trkpt>
      <trkpt lat="43.82401" lon="7.45646">
        <ele>1053.6523818003</ele>
        <time>2021-01-27T12:13:42Z</time>
      </trkpt>
      <trkpt lat="43.82403" lon="7.45644">
        <ele>1053.6522957599</ele>
        <time>2021-01-27T12:13:44Z</time>
      </trkpt>
      <trkpt lat="43.82404" lon="7.45642">
        <ele>1053.6522241645</ele>
        <time>2021-01-27T12:13:45Z</time>
      </trkpt>
      <trkpt lat="43.82405" lon="7.45641">
        <ele>1053.6521496337</ele>
        <time>2021-01-27T12:13:46Z</time>
      </trkpt>
      <trkpt lat="43.82406" lon="7.4564">
        <ele>1053.6521012578</ele>
        <time>2021-01-27T12:13:47Z</time>
      </trkpt>
      <trkpt lat="43.82407" lon="7.45639">
        <ele>1052.6520527336</ele>
        <time>2021-01-27T12:13:48Z</time>
      </trkpt>
      <trkpt lat="43.82407" lon="7.45638">
        <ele>1052.6520128468</ele>
        <time>2021-01-27T12:13:49Z</time>
      </trkpt>
      <trkpt lat="43.82408" lon="7.45637">
        <ele>1052.6519675912</ele>
        <time>2021-01-27T12:13:50Z</time>
      </trkpt>
      <trkpt lat="43.8241" lon="7.45635">
        <ele>1052.6518527728</ele>
        <time>2021-01-27T12:13:52Z</time>
      </trkpt>
      <trkpt lat="43.82411" lon="7.45633">
        <ele>1052.6517625962</ele>
        <time>2021-01-27T12:13:54Z</time>
      </trkpt>
      <trkpt lat="43.82412" lon="7.45633">
        <ele>1052.651721132</ele>
        <time>2021-01-27T12:13:55Z</time>
      </trkpt>
      <trkpt lat="43.82413" lon="7.45631">
        <ele>1053.6516792586</ele>
        <time>2021-01-27T12:13:56Z</time>
      </trkpt>
      <trkpt lat="43.82413" lon="7.4563">
        <ele>1052.651640555</ele>
        <time>2021-01-27T12:13:57Z</time>
      </trkpt>
      <trkpt lat="43.82414" lon="7.4563">
        <ele>1052.6515782471</ele>
        <time>2021-01-27T12:13:58Z</time>
      </trkpt>
      <trkpt lat="43.82416" lon="7.45629">
        <ele>1053.6515208664</ele>
        <time>2021-01-27T12:13:59Z</time>
      </trkpt>
      <trkpt lat="43.82416" lon="7.45628">
        <ele>1052.6514699612</ele>
        <time>2021-01-27T12:14:00Z</time>
      </trkpt>
      <trkpt lat="43.82418" lon="7.45626">
        <ele>1052.6513790903</ele>
        <time>2021-01-27T12:14:02Z</time>
      </trkpt>
      <trkpt lat="43.82419" lon="7.45625">
        <ele>1052.6513215824</ele>
        <time>2021-01-27T12:14:03Z</time>
      </trkpt>
      <trkpt lat="43.8242" lon="7.45625">
        <ele>1052.6512663281</ele>
        <time>2021-01-27T12:14:04Z</time>
      </trkpt>
      <trkpt lat="43.82421" lon="7.45624">
        <ele>1052.6512159024</ele>
        <time>2021-01-27T12:14:05Z</time>
      </trkpt>
      <trkpt lat="43.82421" lon="7.45623">
        <ele>1052.6511783907</ele>
        <time>2021-01-27T12:14:06Z</time>
      </trkpt>
      <trkpt lat="43.82423" lon="7.45622">
        <ele>1052.6511069426</ele>
        <time>2021-01-27T12:14:07Z</time>
      </trkpt>
      <trkpt lat="43.82425" lon="7.4562">
        <ele>1052.650972102</ele>
        <time>2021-01-27T12:14:09Z</time>
      </trkpt>
      <trkpt lat="43.82426" lon="7.45618">
        <ele>1052.6509058154</ele>
        <time>2021-01-27T12:14:10Z</time>
      </trkpt>
      <trkpt lat="43.82426" lon="7.45617">
        <ele>1052.6508656381</ele>
        <time>2021-01-27T12:14:11Z</time>
      </trkpt>
      <trkpt lat="43.82428" lon="7.45615">
        <ele>1052.6507575575</ele>
        <time>2021-01-27T12:14:13Z</time>
      </trkpt>
      <trkpt lat="43.82429" lon="7.45613">
        <ele>1052.6506848834</ele>
        <time>2021-01-27T12:14:14Z</time>
      </trkpt>
      <trkpt lat="43.8243" lon="7.45612">
        <ele>1052.6506260135</ele>
        <time>2021-01-27T12:14:15Z</time>
      </trkpt>
      <trkpt lat="43.82432" lon="7.4561">
        <ele>1051.6505241654</ele>
        <time>2021-01-27T12:14:17Z</time>
      </trkpt>
      <trkpt lat="43.82433" lon="7.45608">
        <ele>1051.6504359278</ele>
        <time>2021-01-27T12:14:19Z</time>
      </trkpt>
      <trkpt lat="43.82434" lon="7.45607">
        <ele>1051.6503868973</ele>
        <time>2021-01-27T12:14:20Z</time>
      </trkpt>
      <trkpt lat="43.82435" lon="7.45606">
        <ele>1051.6503466665</ele>
        <time>2021-01-27T12:14:21Z</time>
      </trkpt>
      <trkpt lat="43.82435" lon="7.45605">
        <ele>1052.6502897304</ele>
        <time>2021-01-27T12:14:22Z</time>
      </trkpt>
      <trkpt lat="43.82437" lon="7.45604">
        <ele>1051.6502260945</ele>
        <time>2021-01-27T12:14:23Z</time>
      </trkpt>
      <trkpt lat="43.82438" lon="7.45603">
        <ele>1051.6501714934</ele>
        <time>2021-01-27T12:14:24Z</time>
      </trkpt>
      <trkpt lat="43.82438" lon="7.45602">
        <ele>1051.6501193451</ele>
        <time>2021-01-27T12:14:25Z</time>
      </trkpt>
      <trkpt lat="43.82439" lon="7.45601">
        <ele>1051.6500857389</ele>
        <time>2021-01-27T12:14:26Z</time>
      </trkpt>
      <trkpt lat="43.82439" lon="7.456">
        <ele>1051.6500498251</ele>
        <time>2021-01-27T12:14:27Z</time>
      </trkpt>
      <trkpt lat="43.8244" lon="7.45599">
        <ele>1051.6500113395</ele>
        <time>2021-01-27T12:14:28Z</time>
      </trkpt>
      <trkpt lat="43.82441" lon="7.45598">
        <ele>1051.6499613243</ele>
        <time>2021-01-27T12:14:29Z</time>
      </trkpt>
      <trkpt lat="43.82441" lon="7.45596">
        <ele>1051.6499358943</ele>
        <time>2021-01-27T12:14:30Z</time>
      </trkpt>
      <trkpt lat="43.82442" lon="7.45595">
        <ele>1052.6498953002</ele>
        <time>2021-01-27T12:14:31Z</time>
      </trkpt>
      <trkpt lat="43.82443" lon="7.45594">
        <ele>1051.6498353094</ele>
        <time>2021-01-27T12:14:32Z</time>
      </trkpt>
      <trkpt lat="43.82444" lon="7.45594">
        <ele>1052.6497820763</ele>
        <time>2021-01-27T12:14:33Z</time>
      </trkpt>
      <trkpt lat="43.82444" lon="7.45593">
        <ele>1052.6497397544</ele>
        <time>2021-01-27T12:14:34Z</time>
      </trkpt>
      <trkpt lat="43.82445" lon="7.45591">
        <ele>1052.6496867748</ele>
        <time>2021-01-27T12:14:35Z</time>
      </trkpt>
      <trkpt lat="43.82446" lon="7.45589">
        <ele>1052.6496360458</ele>
        <time>2021-01-27T12:14:36Z</time>
      </trkpt>
      <trkpt lat="43.82447" lon="7.45587">
        <ele>1052.6495494428</ele>
        <time>2021-01-27T12:14:38Z</time>
      </trkpt>
      <trkpt lat="43.82448" lon="7.45586">
        <ele>1052.6495000788</ele>
        <time>2021-01-27T12:14:39Z</time>
      </trkpt>
      <trkpt lat="43.82449" lon="7.45585">
        <ele>1052.6494454788</ele>
        <time>2021-01-27T12:14:40Z</time>
      </trkpt>
      <trkpt lat="43.82449" lon="7.45584">
        <ele>1052.6494084259</ele>
        <time>2021-01-27T12:14:41Z</time>
      </trkpt>
      <trkpt lat="43.82449" lon="7.45583">
        <ele>1052.6493854661</ele>
        <time>2021-01-27T12:14:42Z</time>
      </trkpt>
      <trkpt lat="43.82449" lon="7.45582">
        <ele>1052.6493707958</ele>
        <time>2021-01-27T12:14:43Z</time>
      </trkpt>
      <trkpt lat="43.8245" lon="7.45581">
        <ele>1052.6493455675</ele>
        <time>2021-01-27T12:14:44Z</time>
      </trkpt>
      <trkpt lat="43.8245" lon="7.45579">
        <ele>1053.6493094549</ele>
        <time>2021-01-27T12:14:45Z</time>
      </trkpt>
      <trkpt lat="43.8245" lon="7.45578">
        <ele>1054.6492687181</ele>
        <time>2021-01-27T12:14:46Z</time>
      </trkpt>
      <trkpt lat="43.82451" lon="7.45575">
        <ele>1054.649197093</ele>
        <time>2021-01-27T12:14:48Z</time>
      </trkpt>
      <trkpt lat="43.82452" lon="7.45574">
        <ele>1055.6491727451</ele>
        <time>2021-01-27T12:14:49Z</time>
      </trkpt>
      <trkpt lat="43.82452" lon="7.45573">
        <ele>1056.6491324284</ele>
        <time>2021-01-27T12:14:50Z</time>
      </trkpt>
      <trkpt lat="43.82453" lon="7.45572">
        <ele>1056.6490947571</ele>
        <time>2021-01-27T12:14:51Z</time>
      </trkpt>
      <trkpt lat="43.82453" lon="7.45571">
        <ele>1056.6490571019</ele>
        <time>2021-01-27T12:14:52Z</time>
      </trkpt>
      <trkpt lat="43.82453" lon="7.45569">
        <ele>1056.649025101</ele>
        <time>2021-01-27T12:14:53Z</time>
      </trkpt>
      <trkpt lat="43.82454" lon="7.45569">
        <ele>1057.6489992246</ele>
        <time>2021-01-27T12:14:54Z</time>
      </trkpt>
      <trkpt lat="43.82454" lon="7.45568">
        <ele>1057.6489773765</ele>
        <time>2021-01-27T12:14:55Z</time>
      </trkpt>
      <trkpt lat="43.82454" lon="7.45567">
        <ele>1059.6489573988</ele>
        <time>2021-01-27T12:14:57Z</time>
      </trkpt>
      <trkpt lat="43.82455" lon="7.45565">
        <ele>1058.6489024488</ele>
        <time>2021-01-27T12:14:59Z</time>
      </trkpt>
      <trkpt lat="43.82456" lon="7.45564">
        <ele>1058.6488623866</ele>
        <time>2021-01-27T12:15:00Z</time>
      </trkpt>
      <trkpt lat="43.82456" lon="7.45563">
        <ele>1058.6488337255</ele>
        <time>2021-01-27T12:15:01Z</time>
      </trkpt>
      <trkpt lat="43.82456" lon="7.45561">
        <ele>1058.6487943</ele>
        <time>2021-01-27T12:15:03Z</time>
      </trkpt>
      <trkpt lat="43.82457" lon="7.4556">
        <ele>1059.648758987</ele>
        <time>2021-01-27T12:15:04Z</time>
      </trkpt>
      <trkpt lat="43.82457" lon="7.45558">
        <ele>1059.6487064974</ele>
        <time>2021-01-27T12:15:05Z</time>
      </trkpt>
      <trkpt lat="43.82458" lon="7.45557">
        <ele>1059.648669994</ele>
        <time>2021-01-27T12:15:06Z</time>
      </trkpt>
      <trkpt lat="43.82458" lon="7.45556">
        <ele>1059.6486398225</ele>
        <time>2021-01-27T12:15:07Z</time>
      </trkpt>
      <trkpt lat="43.8246" lon="7.45554">
        <ele>1060.6485371292</ele>
        <time>2021-01-27T12:15:09Z</time>
      </trkpt>
      <trkpt lat="43.82461" lon="7.45553">
        <ele>1061.6484897817</ele>
        <time>2021-01-27T12:15:10Z</time>
      </trkpt>
      <trkpt lat="43.82461" lon="7.45552">
        <ele>1060.6484594711</ele>
        <time>2021-01-27T12:15:11Z</time>
      </trkpt>
      <trkpt lat="43.82462" lon="7.45549">
        <ele>1060.6483797478</ele>
        <time>2021-01-27T12:15:13Z</time>
      </trkpt>
      <trkpt lat="43.82463" lon="7.45548">
        <ele>1059.6483392096</ele>
        <time>2021-01-27T12:15:14Z</time>
      </trkpt>
      <trkpt lat="43.82463" lon="7.45546">
        <ele>1059.648317619</ele>
        <time>2021-01-27T12:15:15Z</time>
      </trkpt>
      <trkpt lat="43.82464" lon="7.45543">
        <ele>1060.6482383146</ele>
        <time>2021-01-27T12:15:17Z</time>
      </trkpt>
      <trkpt lat="43.82464" lon="7.45542">
        <ele>1060.6481916437</ele>
        <time>2021-01-27T12:15:18Z</time>
      </trkpt>
      <trkpt lat="43.82465" lon="7.45541">
        <ele>1060.6481697438</ele>
        <time>2021-01-27T12:15:19Z</time>
      </trkpt>
      <trkpt lat="43.82465" lon="7.4554">
        <ele>1060.6481144827</ele>
        <time>2021-01-27T12:15:20Z</time>
      </trkpt>
      <trkpt lat="43.82466" lon="7.4554">
        <ele>1060.6480707713</ele>
        <time>2021-01-27T12:15:21Z</time>
      </trkpt>
      <trkpt lat="43.82467" lon="7.45538">
        <ele>1060.6480198561</ele>
        <time>2021-01-27T12:15:22Z</time>
      </trkpt>
      <trkpt lat="43.82467" lon="7.45535">
        <ele>1061.6479651773</ele>
        <time>2021-01-27T12:15:24Z</time>
      </trkpt>
      <trkpt lat="43.82468" lon="7.45534">
        <ele>1061.6479227345</ele>
        <time>2021-01-27T12:15:25Z</time>
      </trkpt>
      <trkpt lat="43.82468" lon="7.45532">
        <ele>1061.6478914331</ele>
        <time>2021-01-27T12:15:26Z</time>
      </trkpt>
      <trkpt lat="43.82468" lon="7.4553">
        <ele>1061.6478499522</ele>
        <time>2021-01-27T12:15:27Z</time>
      </trkpt>
      <trkpt lat="43.82469" lon="7.45529">
        <ele>1060.6478038423</ele>
        <time>2021-01-27T12:15:28Z</time>
      </trkpt>
      <trkpt lat="43.8247" lon="7.45528">
        <ele>1060.6477679985</ele>
        <time>2021-01-27T12:15:29Z</time>
      </trkpt>
      <trkpt lat="43.8247" lon="7.45526">
        <ele>1060.6477384638</ele>
        <time>2021-01-27T12:15:30Z</time>
      </trkpt>
      <trkpt lat="43.82472" lon="7.45524">
        <ele>1060.6476130633</ele>
        <time>2021-01-27T12:15:32Z</time>
      </trkpt>
      <trkpt lat="43.82472" lon="7.45523">
        <ele>1060.6475843635</ele>
        <time>2021-01-27T12:15:33Z</time>
      </trkpt>
      <trkpt lat="43.82472" lon="7.45522">
        <ele>1059.6475647351</ele>
        <time>2021-01-27T12:15:34Z</time>
      </trkpt>
      <trkpt lat="43.82472" lon="7.4552">
        <ele>1059.6475495867</ele>
        <time>2021-01-27T12:15:35Z</time>
      </trkpt>
      <trkpt lat="43.82472" lon="7.45519">
        <ele>1059.6475453931</ele>
        <time>2021-01-27T12:15:36Z</time>
      </trkpt>
      <trkpt lat="43.82472" lon="7.45518">
        <ele>1058.6475371753</ele>
        <time>2021-01-27T12:15:37Z</time>
      </trkpt>
      <trkpt lat="43.82472" lon="7.45517">
        <ele>1058.6475231868</ele>
        <time>2021-01-27T12:15:38Z</time>
      </trkpt>
      <trkpt lat="43.82472" lon="7.45515">
        <ele>1058.6475069372</ele>
        <time>2021-01-27T12:15:39Z</time>
      </trkpt>
      <trkpt lat="43.82472" lon="7.45513">
        <ele>1058.6474810592</ele>
        <time>2021-01-27T12:15:40Z</time>
      </trkpt>
      <trkpt lat="43.82472" lon="7.45512">
        <ele>1057.6474494213</ele>
        <time>2021-01-27T12:15:41Z</time>
      </trkpt>
      <trkpt lat="43.82472" lon="7.45509">
        <ele>1058.6474155991</ele>
        <time>2021-01-27T12:15:43Z</time>
      </trkpt>
      <trkpt lat="43.82471" lon="7.45508">
        <ele>1058.6474381131</ele>
        <time>2021-01-27T12:15:44Z</time>
      </trkpt>
      <trkpt lat="43.82471" lon="7.45506">
        <ele>1058.6474326344</ele>
        <time>2021-01-27T12:15:45Z</time>
      </trkpt>
      <trkpt lat="43.82471" lon="7.45503">
        <ele>1057.6474024457</ele>
        <time>2021-01-27T12:15:47Z</time>
      </trkpt>
      <trkpt lat="43.82472" lon="7.455">
        <ele>1059.6473226511</ele>
        <time>2021-01-27T12:15:49Z</time>
      </trkpt>
      <trkpt lat="43.82472" lon="7.45497">
        <ele>1059.6473046008</ele>
        <time>2021-01-27T12:15:50Z</time>
      </trkpt>
      <trkpt lat="43.82472" lon="7.45495">
        <ele>1059.6472824073</ele>
        <time>2021-01-27T12:15:51Z</time>
      </trkpt>
      <trkpt lat="43.82471" lon="7.45492">
        <ele>1059.6472478364</ele>
        <time>2021-01-27T12:15:53Z</time>
      </trkpt>
      <trkpt lat="43.82471" lon="7.4549">
        <ele>1060.6472345793</ele>
        <time>2021-01-27T12:15:54Z</time>
      </trkpt>
      <trkpt lat="43.82471" lon="7.45488">
        <ele>1060.6472139888</ele>
        <time>2021-01-27T12:15:55Z</time>
      </trkpt>
      <trkpt lat="43.82471" lon="7.45486">
        <ele>1060.6472134241</ele>
        <time>2021-01-27T12:15:56Z</time>
      </trkpt>
      <trkpt lat="43.82471" lon="7.45485">
        <ele>1059.6471865317</ele>
        <time>2021-01-27T12:15:57Z</time>
      </trkpt>
      <trkpt lat="43.82471" lon="7.45481">
        <ele>1059.6471650046</ele>
        <time>2021-01-27T12:15:59Z</time>
      </trkpt>
      <trkpt lat="43.8247" lon="7.45479">
        <ele>1058.6471415198</ele>
        <time>2021-01-27T12:16:00Z</time>
      </trkpt>
      <trkpt lat="43.8247" lon="7.45477">
        <ele>1058.647132032</ele>
        <time>2021-01-27T12:16:01Z</time>
      </trkpt>
      <trkpt lat="43.8247" lon="7.45475">
        <ele>1058.6471107886</ele>
        <time>2021-01-27T12:16:02Z</time>
      </trkpt>
      <trkpt lat="43.8247" lon="7.45473">
        <ele>1058.6470843762</ele>
        <time>2021-01-27T12:16:03Z</time>
      </trkpt>
      <trkpt lat="43.8247" lon="7.45471">
        <ele>1058.6470618953</ele>
        <time>2021-01-27T12:16:04Z</time>
      </trkpt>
      <trkpt lat="43.8247" lon="7.45469">
        <ele>1058.6470294674</ele>
        <time>2021-01-27T12:16:05Z</time>
      </trkpt>
      <trkpt lat="43.8247" lon="7.45467">
        <ele>1058.6470141156</ele>
        <time>2021-01-27T12:16:06Z</time>
      </trkpt>
      <trkpt lat="43.8247" lon="7.45465">
        <ele>1059.6470008784</ele>
        <time>2021-01-27T12:16:07Z</time>
      </trkpt>
      <trkpt lat="43.8247" lon="7.45463">
        <ele>1059.6469786387</ele>
        <time>2021-01-27T12:16:08Z</time>
      </trkpt>
      <trkpt lat="43.8247" lon="7.45461">
        <ele>1060.6469606609</ele>
        <time>2021-01-27T12:16:09Z</time>
      </trkpt>
      <trkpt lat="43.8247" lon="7.4546">
        <ele>1060.6469540063</ele>
        <time>2021-01-27T12:16:10Z</time>
      </trkpt>
      <trkpt lat="43.82469" lon="7.45458">
        <ele>1059.6469423071</ele>
        <time>2021-01-27T12:16:11Z</time>
      </trkpt>
      <trkpt lat="43.82469" lon="7.45456">
        <ele>1059.6469380411</ele>
        <time>2021-01-27T12:16:12Z</time>
      </trkpt>
      <trkpt lat="43.82469" lon="7.45455">
        <ele>1059.646948328</ele>
        <time>2021-01-27T12:16:13Z</time>
      </trkpt>
      <trkpt lat="43.82468" lon="7.45453">
        <ele>1058.6469505472</ele>
        <time>2021-01-27T12:16:14Z</time>
      </trkpt>
      <trkpt lat="43.82468" lon="7.45451">
        <ele>1058.6469341595</ele>
        <time>2021-01-27T12:16:15Z</time>
      </trkpt>
      <trkpt lat="43.82467" lon="7.45449">
        <ele>1058.6469345262</ele>
        <time>2021-01-27T12:16:16Z</time>
      </trkpt>
      <trkpt lat="43.82467" lon="7.45445">
        <ele>1059.6469149528</ele>
        <time>2021-01-27T12:16:18Z</time>
      </trkpt>
      <trkpt lat="43.82466" lon="7.45443">
        <ele>1059.6469116782</ele>
        <time>2021-01-27T12:16:19Z</time>
      </trkpt>
      <trkpt lat="43.82466" lon="7.45441">
        <ele>1060.6469019238</ele>
        <time>2021-01-27T12:16:20Z</time>
      </trkpt>
      <trkpt lat="43.82466" lon="7.45439">
        <ele>1061.646893048</ele>
        <time>2021-01-27T12:16:21Z</time>
      </trkpt>
      <trkpt lat="43.82465" lon="7.45437">
        <ele>1061.6468839121</ele>
        <time>2021-01-27T12:16:22Z</time>
      </trkpt>
      <trkpt lat="43.82465" lon="7.45435">
        <ele>1062.646875886</ele>
        <time>2021-01-27T12:16:23Z</time>
      </trkpt>
      <trkpt lat="43.82465" lon="7.45433">
        <ele>1062.6468358918</ele>
        <time>2021-01-27T12:16:24Z</time>
      </trkpt>
      <trkpt lat="43.82465" lon="7.45431">
        <ele>1062.6468054206</ele>
        <time>2021-01-27T12:16:25Z</time>
      </trkpt>
      <trkpt lat="43.82466" lon="7.45428">
        <ele>1064.6467570463</ele>
        <time>2021-01-27T12:16:27Z</time>
      </trkpt>
      <trkpt lat="43.82465" lon="7.45426">
        <ele>1064.6467450256</ele>
        <time>2021-01-27T12:16:28Z</time>
      </trkpt>
      <trkpt lat="43.82465" lon="7.45424">
        <ele>1064.6467270852</ele>
        <time>2021-01-27T12:16:29Z</time>
      </trkpt>
      <trkpt lat="43.82466" lon="7.45423">
        <ele>1064.6466988368</ele>
        <time>2021-01-27T12:16:30Z</time>
      </trkpt>
      <trkpt lat="43.82466" lon="7.45421">
        <ele>1064.6466604571</ele>
        <time>2021-01-27T12:16:31Z</time>
      </trkpt>
      <trkpt lat="43.82466" lon="7.45418">
        <ele>1065.6466169692</ele>
        <time>2021-01-27T12:16:33Z</time>
      </trkpt>
      <trkpt lat="43.82466" lon="7.45416">
        <ele>1065.6465934655</ele>
        <time>2021-01-27T12:16:34Z</time>
      </trkpt>
      <trkpt lat="43.82467" lon="7.45414">
        <ele>1065.6465508879</ele>
        <time>2021-01-27T12:16:35Z</time>
      </trkpt>
      <trkpt lat="43.82467" lon="7.4541">
        <ele>1066.6464768796</ele>
        <time>2021-01-27T12:16:37Z</time>
      </trkpt>
      <trkpt lat="43.82468" lon="7.45407">
        <ele>1066.6463837546</ele>
        <time>2021-01-27T12:16:39Z</time>
      </trkpt>
      <trkpt lat="43.82469" lon="7.45405">
        <ele>1067.6463380024</ele>
        <time>2021-01-27T12:16:40Z</time>
      </trkpt>
      <trkpt lat="43.82469" lon="7.45403">
        <ele>1067.6462960255</ele>
        <time>2021-01-27T12:16:41Z</time>
      </trkpt>
      <trkpt lat="43.8247" lon="7.454">
        <ele>1067.6462177389</ele>
        <time>2021-01-27T12:16:43Z</time>
      </trkpt>
      <trkpt lat="43.82471" lon="7.45398">
        <ele>1067.6461679246</ele>
        <time>2021-01-27T12:16:44Z</time>
      </trkpt>
      <trkpt lat="43.82471" lon="7.45396">
        <ele>1067.6461091721</ele>
        <time>2021-01-27T12:16:45Z</time>
      </trkpt>
      <trkpt lat="43.82472" lon="7.45392">
        <ele>1067.6460189736</ele>
        <time>2021-01-27T12:16:47Z</time>
      </trkpt>
      <trkpt lat="43.82473" lon="7.45391">
        <ele>1068.6459841537</ele>
        <time>2021-01-27T12:16:48Z</time>
      </trkpt>
      <trkpt lat="43.82473" lon="7.45389">
        <ele>1068.645940764</ele>
        <time>2021-01-27T12:16:49Z</time>
      </trkpt>
      <trkpt lat="43.82474" lon="7.45387">
        <ele>1068.645885639</ele>
        <time>2021-01-27T12:16:50Z</time>
      </trkpt>
      <trkpt lat="43.82474" lon="7.45385">
        <ele>1068.6458531691</ele>
        <time>2021-01-27T12:16:51Z</time>
      </trkpt>
      <trkpt lat="43.82474" lon="7.45383">
        <ele>1068.6458326746</ele>
        <time>2021-01-27T12:16:52Z</time>
      </trkpt>
      <trkpt lat="43.82474" lon="7.45381">
        <ele>1068.6458011624</ele>
        <time>2021-01-27T12:16:53Z</time>
      </trkpt>
      <trkpt lat="43.82474" lon="7.45379">
        <ele>1068.6457656229</ele>
        <time>2021-01-27T12:16:54Z</time>
      </trkpt>
      <trkpt lat="43.82475" lon="7.45377">
        <ele>1068.6457224092</ele>
        <time>2021-01-27T12:16:55Z</time>
      </trkpt>
      <trkpt lat="43.82476" lon="7.45376">
        <ele>1068.6456536731</ele>
        <time>2021-01-27T12:16:57Z</time>
      </trkpt>
      <trkpt lat="43.82476" lon="7.45374">
        <ele>1069.645617053</ele>
        <time>2021-01-27T12:16:58Z</time>
      </trkpt>
      <trkpt lat="43.82477" lon="7.45373">
        <ele>1068.6455816194</ele>
        <time>2021-01-27T12:16:59Z</time>
      </trkpt>
      <trkpt lat="43.82477" lon="7.45371">
        <ele>1068.6455327647</ele>
        <time>2021-01-27T12:17:00Z</time>
      </trkpt>
      <trkpt lat="43.82478" lon="7.45369">
        <ele>1068.6454953953</ele>
        <time>2021-01-27T12:17:01Z</time>
      </trkpt>
      <trkpt lat="43.82478" lon="7.45367">
        <ele>1068.6454644012</ele>
        <time>2021-01-27T12:17:02Z</time>
      </trkpt>
      <trkpt lat="43.82478" lon="7.45366">
        <ele>1068.6454245402</ele>
        <time>2021-01-27T12:17:03Z</time>
      </trkpt>
      <trkpt lat="43.82479" lon="7.45365">
        <ele>1068.6453846566</ele>
        <time>2021-01-27T12:17:04Z</time>
      </trkpt>
      <trkpt lat="43.82479" lon="7.45363">
        <ele>1068.6453489882</ele>
        <time>2021-01-27T12:17:05Z</time>
      </trkpt>
      <trkpt lat="43.8248" lon="7.45362">
        <ele>1069.6453125493</ele>
        <time>2021-01-27T12:17:06Z</time>
      </trkpt>
      <trkpt lat="43.8248" lon="7.4536">
        <ele>1069.6452717914</ele>
        <time>2021-01-27T12:17:07Z</time>
      </trkpt>
      <trkpt lat="43.8248" lon="7.45358">
        <ele>1069.6452390821</ele>
        <time>2021-01-27T12:17:08Z</time>
      </trkpt>
      <trkpt lat="43.8248" lon="7.45356">
        <ele>1069.6452098548</ele>
        <time>2021-01-27T12:17:09Z</time>
      </trkpt>
      <trkpt lat="43.8248" lon="7.45354">
        <ele>1068.6451885075</ele>
        <time>2021-01-27T12:17:10Z</time>
      </trkpt>
      <trkpt lat="43.8248" lon="7.45353">
        <ele>1068.6451647983</ele>
        <time>2021-01-27T12:17:11Z</time>
      </trkpt>
      <trkpt lat="43.82482" lon="7.45351">
        <ele>1069.6450825586</ele>
        <time>2021-01-27T12:17:13Z</time>
      </trkpt>
      <trkpt lat="43.82482" lon="7.4535">
        <ele>1069.6450510208</ele>
        <time>2021-01-27T12:17:14Z</time>
      </trkpt>
      <trkpt lat="43.82483" lon="7.45349">
        <ele>1069.6449994338</ele>
        <time>2021-01-27T12:17:15Z</time>
      </trkpt>
      <trkpt lat="43.82484" lon="7.45347">
        <ele>1069.6449281957</ele>
        <time>2021-01-27T12:17:17Z</time>
      </trkpt>
      <trkpt lat="43.82485" lon="7.45344">
        <ele>1069.6448520228</ele>
        <time>2021-01-27T12:17:19Z</time>
      </trkpt>
      <trkpt lat="43.82485" lon="7.45343">
        <ele>1069.6448392428</ele>
        <time>2021-01-27T12:17:20Z</time>
      </trkpt>
      <trkpt lat="43.82485" lon="7.45341">
        <ele>1068.6448146327</ele>
        <time>2021-01-27T12:17:21Z</time>
      </trkpt>
      <trkpt lat="43.82486" lon="7.45339">
        <ele>1068.6447411504</ele>
        <time>2021-01-27T12:17:23Z</time>
      </trkpt>
      <trkpt lat="43.82486" lon="7.45338">
        <ele>1068.6447174686</ele>
        <time>2021-01-27T12:17:24Z</time>
      </trkpt>
      <trkpt lat="43.82486" lon="7.45337">
        <ele>1069.6447006682</ele>
        <time>2021-01-27T12:17:25Z</time>
      </trkpt>
      <trkpt lat="43.82487" lon="7.45334">
        <ele>1069.6446167714</ele>
        <time>2021-01-27T12:17:27Z</time>
      </trkpt>
      <trkpt lat="43.82487" lon="7.4533">
        <ele>1069.6445616994</ele>
        <time>2021-01-27T12:17:29Z</time>
      </trkpt>
      <trkpt lat="43.82488" lon="7.45329">
        <ele>1069.6445224234</ele>
        <time>2021-01-27T12:17:30Z</time>
      </trkpt>
      <trkpt lat="43.82488" lon="7.45328">
        <ele>1069.6444943401</ele>
        <time>2021-01-27T12:17:31Z</time>
      </trkpt>
      <trkpt lat="43.82489" lon="7.45326">
        <ele>1069.6444585698</ele>
        <time>2021-01-27T12:17:32Z</time>
      </trkpt>
      <trkpt lat="43.82489" lon="7.45323">
        <ele>1070.6444022403</ele>
        <time>2021-01-27T12:17:34Z</time>
      </trkpt>
      <trkpt lat="43.8249" lon="7.45322">
        <ele>1070.6443538677</ele>
        <time>2021-01-27T12:17:35Z</time>
      </trkpt>
      <trkpt lat="43.8249" lon="7.4532">
        <ele>1070.6443244645</ele>
        <time>2021-01-27T12:17:36Z</time>
      </trkpt>
      <trkpt lat="43.8249" lon="7.45319">
        <ele>1071.6442836301</ele>
        <time>2021-01-27T12:17:37Z</time>
      </trkpt>
      <trkpt lat="43.82491" lon="7.45318">
        <ele>1071.6442448692</ele>
        <time>2021-01-27T12:17:38Z</time>
      </trkpt>
      <trkpt lat="43.82491" lon="7.45316">
        <ele>1071.6442154388</ele>
        <time>2021-01-27T12:17:39Z</time>
      </trkpt>
      <trkpt lat="43.82492" lon="7.45315">
        <ele>1072.6441739767</ele>
        <time>2021-01-27T12:17:40Z</time>
      </trkpt>
      <trkpt lat="43.82493" lon="7.45313">
        <ele>1072.6440899898</ele>
        <time>2021-01-27T12:17:42Z</time>
      </trkpt>
      <trkpt lat="43.82494" lon="7.4531">
        <ele>1072.6440291271</ele>
        <time>2021-01-27T12:17:44Z</time>
      </trkpt>
      <trkpt lat="43.82494" lon="7.45309">
        <ele>1072.6439884796</ele>
        <time>2021-01-27T12:17:45Z</time>
      </trkpt>
      <trkpt lat="43.82495" lon="7.45308">
        <ele>1073.6439416809</ele>
        <time>2021-01-27T12:17:46Z</time>
      </trkpt>
      <trkpt lat="43.82495" lon="7.45307">
        <ele>1073.643903196</ele>
        <time>2021-01-27T12:17:47Z</time>
      </trkpt>
      <trkpt lat="43.82496" lon="7.45305">
        <ele>1073.6438668163</ele>
        <time>2021-01-27T12:17:48Z</time>
      </trkpt>
      <trkpt lat="43.82497" lon="7.45304">
        <ele>1073.6438128248</ele>
        <time>2021-01-27T12:17:49Z</time>
      </trkpt>
      <trkpt lat="43.82497" lon="7.45303">
        <ele>1073.6437677717</ele>
        <time>2021-01-27T12:17:50Z</time>
      </trkpt>
      <trkpt lat="43.82498" lon="7.45302">
        <ele>1073.6437343668</ele>
        <time>2021-01-27T12:17:51Z</time>
      </trkpt>
      <trkpt lat="43.82498" lon="7.45299">
        <ele>1073.6436777075</ele>
        <time>2021-01-27T12:17:53Z</time>
      </trkpt>
      <trkpt lat="43.82498" lon="7.45298">
        <ele>1074.6436578457</ele>
        <time>2021-01-27T12:17:54Z</time>
      </trkpt>
      <trkpt lat="43.82498" lon="7.45297">
        <ele>1074.6436401531</ele>
        <time>2021-01-27T12:17:55Z</time>
      </trkpt>
      <trkpt lat="43.82499" lon="7.45295">
        <ele>1073.6436155082</ele>
        <time>2021-01-27T12:17:56Z</time>
      </trkpt>
      <trkpt lat="43.82499" lon="7.45294">
        <ele>1073.6435640406</ele>
        <time>2021-01-27T12:17:57Z</time>
      </trkpt>
      <trkpt lat="43.825" lon="7.45291">
        <ele>1073.6434805806</ele>
        <time>2021-01-27T12:17:59Z</time>
      </trkpt>
      <trkpt lat="43.82501" lon="7.45289">
        <ele>1073.6434320414</ele>
        <time>2021-01-27T12:18:00Z</time>
      </trkpt>
      <trkpt lat="43.82501" lon="7.45288">
        <ele>1074.6433976384</ele>
        <time>2021-01-27T12:18:01Z</time>
      </trkpt>
      <trkpt lat="43.82502" lon="7.45286">
        <ele>1075.6433267562</ele>
        <time>2021-01-27T12:18:03Z</time>
      </trkpt>
      <trkpt lat="43.82503" lon="7.45285">
        <ele>1074.6432913639</ele>
        <time>2021-01-27T12:18:04Z</time>
      </trkpt>
      <trkpt lat="43.82504" lon="7.45284">
        <ele>1075.6432450545</ele>
        <time>2021-01-27T12:18:05Z</time>
      </trkpt>
      <trkpt lat="43.82505" lon="7.45283">
        <ele>1075.6431798714</ele>
        <time>2021-01-27T12:18:06Z</time>
      </trkpt>
      <trkpt lat="43.82506" lon="7.45282">
        <ele>1075.6431091152</ele>
        <time>2021-01-27T12:18:08Z</time>
      </trkpt>
      <trkpt lat="43.82506" lon="7.45281">
        <ele>1075.6430734058</ele>
        <time>2021-01-27T12:18:09Z</time>
      </trkpt>
      <trkpt lat="43.82507" lon="7.4528">
        <ele>1076.6430303169</ele>
        <time>2021-01-27T12:18:10Z</time>
      </trkpt>
      <trkpt lat="43.82509" lon="7.45279">
        <ele>1076.6429439868</ele>
        <time>2021-01-27T12:18:12Z</time>
      </trkpt>
      <trkpt lat="43.82509" lon="7.45275">
        <ele>1077.6428675226</ele>
        <time>2021-01-27T12:18:14Z</time>
      </trkpt>
      <trkpt lat="43.8251" lon="7.45274">
        <ele>1077.6428120413</ele>
        <time>2021-01-27T12:18:15Z</time>
      </trkpt>
      <trkpt lat="43.82511" lon="7.45273">
        <ele>1077.6427552078</ele>
        <time>2021-01-27T12:18:17Z</time>
      </trkpt>
      <trkpt lat="43.82511" lon="7.4527">
        <ele>1078.6427119044</ele>
        <time>2021-01-27T12:18:19Z</time>
      </trkpt>
      <trkpt lat="43.82512" lon="7.45269">
        <ele>1078.6426681136</ele>
        <time>2021-01-27T12:18:20Z</time>
      </trkpt>
      <trkpt lat="43.82512" lon="7.45267">
        <ele>1078.642644629</ele>
        <time>2021-01-27T12:18:21Z</time>
      </trkpt>
      <trkpt lat="43.82512" lon="7.45266">
        <ele>1078.6426070884</ele>
        <time>2021-01-27T12:18:22Z</time>
      </trkpt>
      <trkpt lat="43.82513" lon="7.45265">
        <ele>1078.6425572071</ele>
        <time>2021-01-27T12:18:23Z</time>
      </trkpt>
      <trkpt lat="43.82514" lon="7.45264">
        <ele>1078.6425181332</ele>
        <time>2021-01-27T12:18:24Z</time>
      </trkpt>
      <trkpt lat="43.82514" lon="7.45263">
        <ele>1078.6424789913</ele>
        <time>2021-01-27T12:18:25Z</time>
      </trkpt>
      <trkpt lat="43.82515" lon="7.45262">
        <ele>1079.6424434776</ele>
        <time>2021-01-27T12:18:26Z</time>
      </trkpt>
      <trkpt lat="43.82516" lon="7.4526">
        <ele>1079.6423560019</ele>
        <time>2021-01-27T12:18:28Z</time>
      </trkpt>
      <trkpt lat="43.82517" lon="7.45258">
        <ele>1079.642312475</ele>
        <time>2021-01-27T12:18:29Z</time>
      </trkpt>
      <trkpt lat="43.82517" lon="7.45257">
        <ele>1080.6422757776</ele>
        <time>2021-01-27T12:18:30Z</time>
      </trkpt>
      <trkpt lat="43.82517" lon="7.45255">
        <ele>1080.6422494563</ele>
        <time>2021-01-27T12:18:31Z</time>
      </trkpt>
      <trkpt lat="43.82517" lon="7.45254">
        <ele>1080.6422178496</ele>
        <time>2021-01-27T12:18:32Z</time>
      </trkpt>
      <trkpt lat="43.82518" lon="7.45252">
        <ele>1080.6421701805</ele>
        <time>2021-01-27T12:18:33Z</time>
      </trkpt>
      <trkpt lat="43.82519" lon="7.45251">
        <ele>1080.6421328549</ele>
        <time>2021-01-27T12:18:34Z</time>
      </trkpt>
      <trkpt lat="43.82519" lon="7.4525">
        <ele>1081.6420808577</ele>
        <time>2021-01-27T12:18:35Z</time>
      </trkpt>
      <trkpt lat="43.82521" lon="7.45249">
        <ele>1080.6420084117</ele>
        <time>2021-01-27T12:18:37Z</time>
      </trkpt>
      <trkpt lat="43.82522" lon="7.45246">
        <ele>1080.641904874</ele>
        <time>2021-01-27T12:18:39Z</time>
      </trkpt>
      <trkpt lat="43.82523" lon="7.45245">
        <ele>1080.6418412005</ele>
        <time>2021-01-27T12:18:40Z</time>
      </trkpt>
      <trkpt lat="43.82524" lon="7.45245">
        <ele>1080.6417987053</ele>
        <time>2021-01-27T12:18:41Z</time>
      </trkpt>
      <trkpt lat="43.82525" lon="7.45244">
        <ele>1079.6417601899</ele>
        <time>2021-01-27T12:18:42Z</time>
      </trkpt>
      <trkpt lat="43.82525" lon="7.45242">
        <ele>1080.6417300351</ele>
        <time>2021-01-27T12:18:43Z</time>
      </trkpt>
      <trkpt lat="43.82525" lon="7.45241">
        <ele>1080.6416981773</ele>
        <time>2021-01-27T12:18:44Z</time>
      </trkpt>
      <trkpt lat="43.82525" lon="7.45239">
        <ele>1080.6416629233</ele>
        <time>2021-01-27T12:18:45Z</time>
      </trkpt>
      <trkpt lat="43.82526" lon="7.45236">
        <ele>1080.6415846213</ele>
        <time>2021-01-27T12:18:47Z</time>
      </trkpt>
      <trkpt lat="43.82528" lon="7.45233">
        <ele>1080.6414504113</ele>
        <time>2021-01-27T12:18:49Z</time>
      </trkpt>
      <trkpt lat="43.8253" lon="7.45233">
        <ele>1080.6413833287</ele>
        <time>2021-01-27T12:18:50Z</time>
      </trkpt>
      <trkpt lat="43.82531" lon="7.45233">
        <ele>1080.6413277396</ele>
        <time>2021-01-27T12:18:51Z</time>
      </trkpt>
      <trkpt lat="43.82531" lon="7.45233">
        <ele>1081.6413019374</ele>
        <time>2021-01-27T12:18:52Z</time>
      </trkpt>
      <trkpt lat="43.82532" lon="7.45234">
        <ele>1081.6412973588</ele>
        <time>2021-01-27T12:18:53Z</time>
      </trkpt>
      <trkpt lat="43.82532" lon="7.45235">
        <ele>1082.6413138562</ele>
        <time>2021-01-27T12:18:54Z</time>
      </trkpt>
      <trkpt lat="43.82531" lon="7.45236">
        <ele>1082.6413312647</ele>
        <time>2021-01-27T12:18:55Z</time>
      </trkpt>
      <trkpt lat="43.82531" lon="7.45237">
        <ele>1082.6413499116</ele>
        <time>2021-01-27T12:18:57Z</time>
      </trkpt>
      <trkpt lat="43.82531" lon="7.45239">
        <ele>1082.6413963733</ele>
        <time>2021-01-27T12:18:59Z</time>
      </trkpt>
      <trkpt lat="43.8253" lon="7.4524">
        <ele>1081.6414393193</ele>
        <time>2021-01-27T12:19:00Z</time>
      </trkpt>
      <trkpt lat="43.8253" lon="7.45242">
        <ele>1081.6414820891</ele>
        <time>2021-01-27T12:19:01Z</time>
      </trkpt>
      <trkpt lat="43.8253" lon="7.45244">
        <ele>1081.6415243991</ele>
        <time>2021-01-27T12:19:03Z</time>
      </trkpt>
      <trkpt lat="43.8253" lon="7.45245">
        <ele>1081.6415412188</ele>
        <time>2021-01-27T12:19:04Z</time>
      </trkpt>
      <trkpt lat="43.82529" lon="7.45247">
        <ele>1081.6415843908</ele>
        <time>2021-01-27T12:19:05Z</time>
      </trkpt>
      <trkpt lat="43.82528" lon="7.45249">
        <ele>1082.6416766046</ele>
        <time>2021-01-27T12:19:07Z</time>
      </trkpt>
      <trkpt lat="43.82527" lon="7.45251">
        <ele>1082.6417377856</ele>
        <time>2021-01-27T12:19:08Z</time>
      </trkpt>
      <trkpt lat="43.82526" lon="7.45252">
        <ele>1083.6417787888</ele>
        <time>2021-01-27T12:19:09Z</time>
      </trkpt>
      <trkpt lat="43.82526" lon="7.45254">
        <ele>1083.6418223756</ele>
        <time>2021-01-27T12:19:10Z</time>
      </trkpt>
      <trkpt lat="43.82525" lon="7.45255">
        <ele>1083.6418563621</ele>
        <time>2021-01-27T12:19:11Z</time>
      </trkpt>
      <trkpt lat="43.82525" lon="7.45256">
        <ele>1083.6419073868</ele>
        <time>2021-01-27T12:19:12Z</time>
      </trkpt>
      <trkpt lat="43.82524" lon="7.45258">
        <ele>1084.6419730439</ele>
        <time>2021-01-27T12:19:14Z</time>
      </trkpt>
      <trkpt lat="43.82524" lon="7.4526">
        <ele>1084.6419962806</ele>
        <time>2021-01-27T12:19:15Z</time>
      </trkpt>
      <trkpt lat="43.82523" lon="7.45261">
        <ele>1084.6420219359</ele>
        <time>2021-01-27T12:19:16Z</time>
      </trkpt>
      <trkpt lat="43.82523" lon="7.45263">
        <ele>1084.6420413612</ele>
        <time>2021-01-27T12:19:17Z</time>
      </trkpt>
      <trkpt lat="43.82523" lon="7.45264">
        <ele>1085.6420643395</ele>
        <time>2021-01-27T12:19:18Z</time>
      </trkpt>
      <trkpt lat="43.82523" lon="7.45265">
        <ele>1085.6420911461</ele>
        <time>2021-01-27T12:19:19Z</time>
      </trkpt>
      <trkpt lat="43.82522" lon="7.45266">
        <ele>1085.6421305682</ele>
        <time>2021-01-27T12:19:20Z</time>
      </trkpt>
      <trkpt lat="43.82523" lon="7.45267">
        <ele>1085.6421354507</ele>
        <time>2021-01-27T12:19:21Z</time>
      </trkpt>
      <trkpt lat="43.82523" lon="7.45269">
        <ele>1085.6421512777</ele>
        <time>2021-01-27T12:19:22Z</time>
      </trkpt>
      <trkpt lat="43.82522" lon="7.4527">
        <ele>1085.6421759965</ele>
        <time>2021-01-27T12:19:23Z</time>
      </trkpt>
      <trkpt lat="43.82522" lon="7.45271">
        <ele>1085.6422072953</ele>
        <time>2021-01-27T12:19:24Z</time>
      </trkpt>
      <trkpt lat="43.82522" lon="7.45273">
        <ele>1085.6422454855</ele>
        <time>2021-01-27T12:19:25Z</time>
      </trkpt>
      <trkpt lat="43.82521" lon="7.45274">
        <ele>1086.6422767668</ele>
        <time>2021-01-27T12:19:26Z</time>
      </trkpt>
      <trkpt lat="43.82521" lon="7.45276">
        <ele>1086.6423008453</ele>
        <time>2021-01-27T12:19:27Z</time>
      </trkpt>
      <trkpt lat="43.82521" lon="7.45278">
        <ele>1086.6423480693</ele>
        <time>2021-01-27T12:19:28Z</time>
      </trkpt>
      <trkpt lat="43.82521" lon="7.4528">
        <ele>1087.6423715117</ele>
        <time>2021-01-27T12:19:29Z</time>
      </trkpt>
      <trkpt lat="43.8252" lon="7.45281">
        <ele>1087.6424026963</ele>
        <time>2021-01-27T12:19:30Z</time>
      </trkpt>
      <trkpt lat="43.8252" lon="7.45283">
        <ele>1087.6424378031</ele>
        <time>2021-01-27T12:19:31Z</time>
      </trkpt>
      <trkpt lat="43.8252" lon="7.45284">
        <ele>1088.6424670385</ele>
        <time>2021-01-27T12:19:32Z</time>
      </trkpt>
      <trkpt lat="43.8252" lon="7.45286">
        <ele>1088.6425015176</ele>
        <time>2021-01-27T12:19:33Z</time>
      </trkpt>
      <trkpt lat="43.82519" lon="7.45287">
        <ele>1088.6425213422</ele>
        <time>2021-01-27T12:19:34Z</time>
      </trkpt>
      <trkpt lat="43.82519" lon="7.45289">
        <ele>1088.6425564506</ele>
        <time>2021-01-27T12:19:35Z</time>
      </trkpt>
      <trkpt lat="43.82519" lon="7.4529">
        <ele>1089.6425900351</ele>
        <time>2021-01-27T12:19:36Z</time>
      </trkpt>
      <trkpt lat="43.82519" lon="7.45291">
        <ele>1089.6426160209</ele>
        <time>2021-01-27T12:19:37Z</time>
      </trkpt>
      <trkpt lat="43.82518" lon="7.45293">
        <ele>1089.642643324</ele>
        <time>2021-01-27T12:19:38Z</time>
      </trkpt>
      <trkpt lat="43.82518" lon="7.45294">
        <ele>1089.6426716098</ele>
        <time>2021-01-27T12:19:39Z</time>
      </trkpt>
      <trkpt lat="43.82518" lon="7.45296">
        <ele>1090.6426952371</ele>
        <time>2021-01-27T12:19:40Z</time>
      </trkpt>
      <trkpt lat="43.82518" lon="7.45297">
        <ele>1090.6427363861</ele>
        <time>2021-01-27T12:19:41Z</time>
      </trkpt>
      <trkpt lat="43.82517" lon="7.45301">
        <ele>1091.6427972204</ele>
        <time>2021-01-27T12:19:43Z</time>
      </trkpt>
      <trkpt lat="43.82517" lon="7.45302">
        <ele>1091.6428129182</ele>
        <time>2021-01-27T12:19:44Z</time>
      </trkpt>
      <trkpt lat="43.82517" lon="7.45303">
        <ele>1091.6428281968</ele>
        <time>2021-01-27T12:19:45Z</time>
      </trkpt>
      <trkpt lat="43.82517" lon="7.45305">
        <ele>1091.642850497</ele>
        <time>2021-01-27T12:19:46Z</time>
      </trkpt>
      <trkpt lat="43.82517" lon="7.45306">
        <ele>1091.6428804089</ele>
        <time>2021-01-27T12:19:47Z</time>
      </trkpt>
      <trkpt lat="43.82516" lon="7.45307">
        <ele>1091.6429236114</ele>
        <time>2021-01-27T12:19:48Z</time>
      </trkpt>
      <trkpt lat="43.82516" lon="7.45308">
        <ele>1092.6429301322</ele>
        <time>2021-01-27T12:19:49Z</time>
      </trkpt>
      <trkpt lat="43.82516" lon="7.45309">
        <ele>1091.6429387376</ele>
        <time>2021-01-27T12:19:50Z</time>
      </trkpt>
      <trkpt lat="43.82516" lon="7.45311">
        <ele>1092.6429583405</ele>
        <time>2021-01-27T12:19:52Z</time>
      </trkpt>
      <trkpt lat="43.82516" lon="7.45312">
        <ele>1091.6429754462</ele>
        <time>2021-01-27T12:19:53Z</time>
      </trkpt>
      <trkpt lat="43.82516" lon="7.45313">
        <ele>1091.64298659</ele>
        <time>2021-01-27T12:19:54Z</time>
      </trkpt>
      <trkpt lat="43.82516" lon="7.45314">
        <ele>1092.6430034864</ele>
        <time>2021-01-27T12:19:55Z</time>
      </trkpt>
      <trkpt lat="43.82516" lon="7.45316">
        <ele>1092.6430085199</ele>
        <time>2021-01-27T12:19:56Z</time>
      </trkpt>
      <trkpt lat="43.82516" lon="7.45317">
        <ele>1091.6430301856</ele>
        <time>2021-01-27T12:19:57Z</time>
      </trkpt>
      <trkpt lat="43.82516" lon="7.45318">
        <ele>1091.6430396082</ele>
        <time>2021-01-27T12:19:58Z</time>
      </trkpt>
      <trkpt lat="43.82516" lon="7.4532">
        <ele>1091.6430638036</ele>
        <time>2021-01-27T12:19:59Z</time>
      </trkpt>
      <trkpt lat="43.82516" lon="7.45321">
        <ele>1090.6430738891</ele>
        <time>2021-01-27T12:20:00Z</time>
      </trkpt>
      <trkpt lat="43.82517" lon="7.45322">
        <ele>1091.6430799841</ele>
        <time>2021-01-27T12:20:01Z</time>
      </trkpt>
      <trkpt lat="43.82516" lon="7.45324">
        <ele>1090.6431218354</ele>
        <time>2021-01-27T12:20:02Z</time>
      </trkpt>
      <trkpt lat="43.82516" lon="7.45325">
        <ele>1090.6431429874</ele>
        <time>2021-01-27T12:20:03Z</time>
      </trkpt>
      <trkpt lat="43.82516" lon="7.45327">
        <ele>1090.6431740486</ele>
        <time>2021-01-27T12:20:04Z</time>
      </trkpt>
      <trkpt lat="43.82516" lon="7.45328">
        <ele>1090.6432015402</ele>
        <time>2021-01-27T12:20:05Z</time>
      </trkpt>
      <trkpt lat="43.82515" lon="7.4533">
        <ele>1090.643228845</ele>
        <time>2021-01-27T12:20:06Z</time>
      </trkpt>
      <trkpt lat="43.82516" lon="7.45332">
        <ele>1090.6432440477</ele>
        <time>2021-01-27T12:20:07Z</time>
      </trkpt>
      <trkpt lat="43.82516" lon="7.45333">
        <ele>1090.6432392437</ele>
        <time>2021-01-27T12:20:08Z</time>
      </trkpt>
      <trkpt lat="43.82516" lon="7.45334">
        <ele>1090.6432483953</ele>
        <time>2021-01-27T12:20:09Z</time>
      </trkpt>
      <trkpt lat="43.82516" lon="7.45335">
        <ele>1089.6432587274</ele>
        <time>2021-01-27T12:20:10Z</time>
      </trkpt>
      <trkpt lat="43.82516" lon="7.45336">
        <ele>1089.6432713138</ele>
        <time>2021-01-27T12:20:11Z</time>
      </trkpt>
      <trkpt lat="43.82516" lon="7.45337">
        <ele>1089.6432938212</ele>
        <time>2021-01-27T12:20:12Z</time>
      </trkpt>
      <trkpt lat="43.82516" lon="7.45338">
        <ele>1089.6433256827</ele>
        <time>2021-01-27T12:20:13Z</time>
      </trkpt>
      <trkpt lat="43.82516" lon="7.4534">
        <ele>1089.6433320287</ele>
        <time>2021-01-27T12:20:14Z</time>
      </trkpt>
      <trkpt lat="43.82516" lon="7.45341">
        <ele>1089.6433485776</ele>
        <time>2021-01-27T12:20:15Z</time>
      </trkpt>
      <trkpt lat="43.82516" lon="7.45343">
        <ele>1089.6433682159</ele>
        <time>2021-01-27T12:20:16Z</time>
      </trkpt>
      <trkpt lat="43.82516" lon="7.45344">
        <ele>1089.6433739993</ele>
        <time>2021-01-27T12:20:17Z</time>
      </trkpt>
      <trkpt lat="43.82516" lon="7.45344">
        <ele>1089.6433739993</ele>
        <time>2021-01-27T12:20:18Z</time>
      </trkpt>
      <trkpt lat="43.82516" lon="7.45346">
        <ele>1090.6433994629</ele>
        <time>2021-01-27T12:20:19Z</time>
      </trkpt>
      <trkpt lat="43.82516" lon="7.45348">
        <ele>1090.643430297</ele>
        <time>2021-01-27T12:20:20Z</time>
      </trkpt>
      <trkpt lat="43.82516" lon="7.4535">
        <ele>1090.6434356196</ele>
        <time>2021-01-27T12:20:21Z</time>
      </trkpt>
      <trkpt lat="43.82516" lon="7.45352">
        <ele>1090.6434537888</ele>
        <time>2021-01-27T12:20:22Z</time>
      </trkpt>
      <trkpt lat="43.82516" lon="7.45354">
        <ele>1091.6434789803</ele>
        <time>2021-01-27T12:20:23Z</time>
      </trkpt>
      <trkpt lat="43.82516" lon="7.45356">
        <ele>1091.6434977012</ele>
        <time>2021-01-27T12:20:24Z</time>
      </trkpt>
      <trkpt lat="43.82516" lon="7.45357">
        <ele>1091.6435401179</ele>
        <time>2021-01-27T12:20:25Z</time>
      </trkpt>
      <trkpt lat="43.82516" lon="7.45359">
        <ele>1092.6435678069</ele>
        <time>2021-01-27T12:20:26Z</time>
      </trkpt>
      <trkpt lat="43.82515" lon="7.45361">
        <ele>1091.6436068643</ele>
        <time>2021-01-27T12:20:28Z</time>
      </trkpt>
      <trkpt lat="43.82515" lon="7.45363">
        <ele>1091.6436392709</ele>
        <time>2021-01-27T12:20:29Z</time>
      </trkpt>
      <trkpt lat="43.82515" lon="7.45366">
        <ele>1092.6436727981</ele>
        <time>2021-01-27T12:20:30Z</time>
      </trkpt>
      <trkpt lat="43.82515" lon="7.45367">
        <ele>1092.6436923417</ele>
        <time>2021-01-27T12:20:31Z</time>
      </trkpt>
      <trkpt lat="43.82515" lon="7.45369">
        <ele>1092.6437231186</ele>
        <time>2021-01-27T12:20:32Z</time>
      </trkpt>
      <trkpt lat="43.82514" lon="7.4537">
        <ele>1091.6437592014</ele>
        <time>2021-01-27T12:20:33Z</time>
      </trkpt>
      <trkpt lat="43.82514" lon="7.45371">
        <ele>1091.6437855472</ele>
        <time>2021-01-27T12:20:34Z</time>
      </trkpt>
      <trkpt lat="43.82514" lon="7.45373">
        <ele>1092.6438263284</ele>
        <time>2021-01-27T12:20:35Z</time>
      </trkpt>
      <trkpt lat="43.82514" lon="7.45374">
        <ele>1092.6438481919</ele>
        <time>2021-01-27T12:20:36Z</time>
      </trkpt>
      <trkpt lat="43.82514" lon="7.45376">
        <ele>1093.6438626304</ele>
        <time>2021-01-27T12:20:38Z</time>
      </trkpt>
      <trkpt lat="43.82513" lon="7.4538">
        <ele>1094.6439521894</ele>
        <time>2021-01-27T12:20:40Z</time>
      </trkpt>
      <trkpt lat="43.82513" lon="7.45382">
        <ele>1095.6439916977</ele>
        <time>2021-01-27T12:20:41Z</time>
      </trkpt>
      <trkpt lat="43.82512" lon="7.45384">
        <ele>1095.6440162314</ele>
        <time>2021-01-27T12:20:42Z</time>
      </trkpt>
      <trkpt lat="43.82512" lon="7.45385">
        <ele>1095.6440387438</ele>
        <time>2021-01-27T12:20:43Z</time>
      </trkpt>
      <trkpt lat="43.82512" lon="7.45387">
        <ele>1095.6440560696</ele>
        <time>2021-01-27T12:20:44Z</time>
      </trkpt>
      <trkpt lat="43.82512" lon="7.45389">
        <ele>1095.6440939088</ele>
        <time>2021-01-27T12:20:45Z</time>
      </trkpt>
      <trkpt lat="43.82512" lon="7.4539">
        <ele>1096.6441299268</ele>
        <time>2021-01-27T12:20:46Z</time>
      </trkpt>
      <trkpt lat="43.82512" lon="7.45391">
        <ele>1096.6441494026</ele>
        <time>2021-01-27T12:20:47Z</time>
      </trkpt>
      <trkpt lat="43.82511" lon="7.45394">
        <ele>1096.6442048101</ele>
        <time>2021-01-27T12:20:49Z</time>
      </trkpt>
      <trkpt lat="43.8251" lon="7.45395">
        <ele>1096.6442636051</ele>
        <time>2021-01-27T12:20:50Z</time>
      </trkpt>
      <trkpt lat="43.8251" lon="7.45397">
        <ele>1096.644296634</ele>
        <time>2021-01-27T12:20:51Z</time>
      </trkpt>
      <trkpt lat="43.8251" lon="7.45398">
        <ele>1095.6443212092</ele>
        <time>2021-01-27T12:20:52Z</time>
      </trkpt>
      <trkpt lat="43.82509" lon="7.45399">
        <ele>1095.6443490338</ele>
        <time>2021-01-27T12:20:53Z</time>
      </trkpt>
      <trkpt lat="43.8251" lon="7.45402">
        <ele>1095.6443518516</ele>
        <time>2021-01-27T12:20:55Z</time>
      </trkpt>
      <trkpt lat="43.8251" lon="7.45403">
        <ele>1095.6443741303</ele>
        <time>2021-01-27T12:20:56Z</time>
      </trkpt>
      <trkpt lat="43.8251" lon="7.45405">
        <ele>1096.6443942936</ele>
        <time>2021-01-27T12:20:57Z</time>
      </trkpt>
      <trkpt lat="43.8251" lon="7.45406">
        <ele>1096.6444053012</ele>
        <time>2021-01-27T12:20:58Z</time>
      </trkpt>
      <trkpt lat="43.8251" lon="7.45406">
        <ele>1096.6443892012</ele>
        <time>2021-01-27T12:20:59Z</time>
      </trkpt>
      <trkpt lat="43.82511" lon="7.45406">
        <ele>1097.6443712526</ele>
        <time>2021-01-27T12:21:05Z</time>
      </trkpt>
      <trkpt lat="43.82511" lon="7.45405">
        <ele>1098.6443294869</ele>
        <time>2021-01-27T12:21:07Z</time>
      </trkpt>
      <trkpt lat="43.82512" lon="7.45404">
        <ele>1099.6442707247</ele>
        <time>2021-01-27T12:21:09Z</time>
      </trkpt>
      <trkpt lat="43.82513" lon="7.45404">
        <ele>1101.6442435731</ele>
        <time>2021-01-27T12:21:10Z</time>
      </trkpt>
      <trkpt lat="43.82514" lon="7.45403">
        <ele>1101.6441971699</ele>
        <time>2021-01-27T12:21:11Z</time>
      </trkpt>
      <trkpt lat="43.82514" lon="7.45403">
        <ele>1101.6441971699</ele>
        <time>2021-01-27T12:21:13Z</time>
      </trkpt>
      <trkpt lat="43.82515" lon="7.45403">
        <ele>1101.6441288911</ele>
        <time>2021-01-27T12:21:15Z</time>
      </trkpt>
      <trkpt lat="43.82515" lon="7.45402">
        <ele>1100.644096271</ele>
        <time>2021-01-27T12:21:16Z</time>
      </trkpt>
      <trkpt lat="43.82516" lon="7.45401">
        <ele>1099.6440819264</ele>
        <time>2021-01-27T12:21:17Z</time>
      </trkpt>
      <trkpt lat="43.82516" lon="7.45401">
        <ele>1099.6440646323</ele>
        <time>2021-01-27T12:21:20Z</time>
      </trkpt>
      <trkpt lat="43.82517" lon="7.45398">
        <ele>1099.6439898429</ele>
        <time>2021-01-27T12:21:21Z</time>
      </trkpt>
      <trkpt lat="43.82517" lon="7.45397">
        <ele>1099.6439632399</ele>
        <time>2021-01-27T12:21:22Z</time>
      </trkpt>
      <trkpt lat="43.82517" lon="7.45394">
        <ele>1099.6439067719</ele>
        <time>2021-01-27T12:21:24Z</time>
      </trkpt>
      <trkpt lat="43.82517" lon="7.45392">
        <ele>1099.64390638</ele>
        <time>2021-01-27T12:21:25Z</time>
      </trkpt>
      <trkpt lat="43.82517" lon="7.45392">
        <ele>1099.6438741572</ele>
        <time>2021-01-27T12:21:26Z</time>
      </trkpt>
      <trkpt lat="43.82518" lon="7.45391">
        <ele>1099.6438550433</ele>
        <time>2021-01-27T12:21:27Z</time>
      </trkpt>
      <trkpt lat="43.82518" lon="7.4539">
        <ele>1098.6438252491</ele>
        <time>2021-01-27T12:21:28Z</time>
      </trkpt>
      <trkpt lat="43.82519" lon="7.45388">
        <ele>1099.6437631144</ele>
        <time>2021-01-27T12:21:29Z</time>
      </trkpt>
      <trkpt lat="43.82519" lon="7.45387">
        <ele>1099.6437301051</ele>
        <time>2021-01-27T12:21:30Z</time>
      </trkpt>
      <trkpt lat="43.82521" lon="7.45385">
        <ele>1099.6436544907</ele>
        <time>2021-01-27T12:21:32Z</time>
      </trkpt>
      <trkpt lat="43.82521" lon="7.45384">
        <ele>1098.6436335499</ele>
        <time>2021-01-27T12:21:34Z</time>
      </trkpt>
      <trkpt lat="43.82521" lon="7.45382">
        <ele>1097.6436009193</ele>
        <time>2021-01-27T12:21:35Z</time>
      </trkpt>
      <trkpt lat="43.82522" lon="7.45381">
        <ele>1096.6435324836</ele>
        <time>2021-01-27T12:21:36Z</time>
      </trkpt>
      <trkpt lat="43.82523" lon="7.4538">
        <ele>1096.6434948073</ele>
        <time>2021-01-27T12:21:37Z</time>
      </trkpt>
      <trkpt lat="43.82523" lon="7.4538">
        <ele>1096.6434948073</ele>
        <time>2021-01-27T12:21:38Z</time>
      </trkpt>
      <trkpt lat="43.82524" lon="7.45378">
        <ele>1095.6433811887</ele>
        <time>2021-01-27T12:21:39Z</time>
      </trkpt>
      <trkpt lat="43.82525" lon="7.45377">
        <ele>1096.6433244708</ele>
        <time>2021-01-27T12:21:40Z</time>
      </trkpt>
      <trkpt lat="43.82526" lon="7.45375">
        <ele>1096.6432659726</ele>
        <time>2021-01-27T12:21:41Z</time>
      </trkpt>
      <trkpt lat="43.82527" lon="7.45373">
        <ele>1096.6431780698</ele>
        <time>2021-01-27T12:21:43Z</time>
      </trkpt>
      <trkpt lat="43.82528" lon="7.45371">
        <ele>1096.643109116</ele>
        <time>2021-01-27T12:21:45Z</time>
      </trkpt>
      <trkpt lat="43.82529" lon="7.4537">
        <ele>1096.6430494985</ele>
        <time>2021-01-27T12:21:46Z</time>
      </trkpt>
      <trkpt lat="43.8253" lon="7.45369">
        <ele>1097.6430098773</ele>
        <time>2021-01-27T12:21:47Z</time>
      </trkpt>
      <trkpt lat="43.82531" lon="7.45368">
        <ele>1097.6429574532</ele>
        <time>2021-01-27T12:21:48Z</time>
      </trkpt>
      <trkpt lat="43.82532" lon="7.45367">
        <ele>1097.642889064</ele>
        <time>2021-01-27T12:21:50Z</time>
      </trkpt>
      <trkpt lat="43.82532" lon="7.45366">
        <ele>1098.6428530408</ele>
        <time>2021-01-27T12:21:51Z</time>
      </trkpt>
      <trkpt lat="43.82533" lon="7.45365">
        <ele>1098.642803647</ele>
        <time>2021-01-27T12:21:52Z</time>
      </trkpt>
      <trkpt lat="43.82534" lon="7.45362">
        <ele>1097.6427349691</ele>
        <time>2021-01-27T12:21:54Z</time>
      </trkpt>
      <trkpt lat="43.82534" lon="7.4536">
        <ele>1098.6427141386</ele>
        <time>2021-01-27T12:21:55Z</time>
      </trkpt>
      <trkpt lat="43.82534" lon="7.45359">
        <ele>1097.642687092</ele>
        <time>2021-01-27T12:21:56Z</time>
      </trkpt>
      <trkpt lat="43.82535" lon="7.45356">
        <ele>1098.6426012734</ele>
        <time>2021-01-27T12:21:58Z</time>
      </trkpt>
      <trkpt lat="43.82537" lon="7.45354">
        <ele>1099.6425088857</ele>
        <time>2021-01-27T12:22:00Z</time>
      </trkpt>
      <trkpt lat="43.82537" lon="7.45353">
        <ele>1099.6424716342</ele>
        <time>2021-01-27T12:22:01Z</time>
      </trkpt>
      <trkpt lat="43.82538" lon="7.45351">
        <ele>1099.6424216603</ele>
        <time>2021-01-27T12:22:02Z</time>
      </trkpt>
      <trkpt lat="43.82539" lon="7.4535">
        <ele>1099.6423709858</ele>
        <time>2021-01-27T12:22:03Z</time>
      </trkpt>
      <trkpt lat="43.82539" lon="7.45348">
        <ele>1099.642322515</ele>
        <time>2021-01-27T12:22:04Z</time>
      </trkpt>
      <trkpt lat="43.8254" lon="7.45347">
        <ele>1100.6422713285</ele>
        <time>2021-01-27T12:22:05Z</time>
      </trkpt>
      <trkpt lat="43.8254" lon="7.45345">
        <ele>1101.6422366126</ele>
        <time>2021-01-27T12:22:06Z</time>
      </trkpt>
      <trkpt lat="43.82541" lon="7.45344">
        <ele>1101.6422044504</ele>
        <time>2021-01-27T12:22:07Z</time>
      </trkpt>
      <trkpt lat="43.82541" lon="7.45343">
        <ele>1101.6421543217</ele>
        <time>2021-01-27T12:22:08Z</time>
      </trkpt>
      <trkpt lat="43.82542" lon="7.4534">
        <ele>1101.6420693125</ele>
        <time>2021-01-27T12:22:10Z</time>
      </trkpt>
      <trkpt lat="43.82543" lon="7.45339">
        <ele>1101.6420386397</ele>
        <time>2021-01-27T12:22:11Z</time>
      </trkpt>
      <trkpt lat="43.82543" lon="7.45338">
        <ele>1101.64200855</ele>
        <time>2021-01-27T12:22:12Z</time>
      </trkpt>
      <trkpt lat="43.82543" lon="7.45336">
        <ele>1101.6419901048</ele>
        <time>2021-01-27T12:22:13Z</time>
      </trkpt>
      <trkpt lat="43.82543" lon="7.45335">
        <ele>1101.6419716971</ele>
        <time>2021-01-27T12:22:14Z</time>
      </trkpt>
      <trkpt lat="43.82543" lon="7.45333">
        <ele>1101.641948094</ele>
        <time>2021-01-27T12:22:15Z</time>
      </trkpt>
      <trkpt lat="43.82543" lon="7.45332">
        <ele>1101.6419248541</ele>
        <time>2021-01-27T12:22:16Z</time>
      </trkpt>
      <trkpt lat="43.82545" lon="7.4533">
        <ele>1102.6418462809</ele>
        <time>2021-01-27T12:22:18Z</time>
      </trkpt>
      <trkpt lat="43.82546" lon="7.45329">
        <ele>1102.6417817892</ele>
        <time>2021-01-27T12:22:20Z</time>
      </trkpt>
      <trkpt lat="43.82546" lon="7.45328">
        <ele>1102.6417765925</ele>
        <time>2021-01-27T12:22:21Z</time>
      </trkpt>
      <trkpt lat="43.82546" lon="7.45327">
        <ele>1103.6417400495</ele>
        <time>2021-01-27T12:22:22Z</time>
      </trkpt>
      <trkpt lat="43.82546" lon="7.45326">
        <ele>1102.6417026779</ele>
        <time>2021-01-27T12:22:23Z</time>
      </trkpt>
      <trkpt lat="43.82547" lon="7.45324">
        <ele>1102.6416664366</ele>
        <time>2021-01-27T12:22:24Z</time>
      </trkpt>
      <trkpt lat="43.82547" lon="7.45323">
        <ele>1102.641630842</ele>
        <time>2021-01-27T12:22:25Z</time>
      </trkpt>
      <trkpt lat="43.82548" lon="7.45321">
        <ele>1102.6415874945</ele>
        <time>2021-01-27T12:22:26Z</time>
      </trkpt>
      <trkpt lat="43.82548" lon="7.4532">
        <ele>1103.6415612877</ele>
        <time>2021-01-27T12:22:27Z</time>
      </trkpt>
      <trkpt lat="43.82549" lon="7.45318">
        <ele>1103.6414905244</ele>
        <time>2021-01-27T12:22:29Z</time>
      </trkpt>
      <trkpt lat="43.8255" lon="7.45317">
        <ele>1103.6414443815</ele>
        <time>2021-01-27T12:22:30Z</time>
      </trkpt>
      <trkpt lat="43.8255" lon="7.45317">
        <ele>1102.6414122778</ele>
        <time>2021-01-27T12:22:31Z</time>
      </trkpt>
      <trkpt lat="43.82552" lon="7.45316">
        <ele>1102.641336222</ele>
        <time>2021-01-27T12:22:33Z</time>
      </trkpt>
      <trkpt lat="43.82553" lon="7.45314">
        <ele>1103.6412543178</ele>
        <time>2021-01-27T12:22:35Z</time>
      </trkpt>
      <trkpt lat="43.82554" lon="7.45313">
        <ele>1103.641204445</ele>
        <time>2021-01-27T12:22:36Z</time>
      </trkpt>
      <trkpt lat="43.82554" lon="7.45313">
        <ele>1103.641172934</ele>
        <time>2021-01-27T12:22:37Z</time>
      </trkpt>
      <trkpt lat="43.82555" lon="7.4531">
        <ele>1103.6410961591</ele>
        <time>2021-01-27T12:22:39Z</time>
      </trkpt>
      <trkpt lat="43.82556" lon="7.4531">
        <ele>1104.6410593807</ele>
        <time>2021-01-27T12:22:40Z</time>
      </trkpt>
      <trkpt lat="43.82557" lon="7.45309">
        <ele>1103.6410197564</ele>
        <time>2021-01-27T12:22:41Z</time>
      </trkpt>
      <trkpt lat="43.82558" lon="7.45308">
        <ele>1104.6409366863</ele>
        <time>2021-01-27T12:22:43Z</time>
      </trkpt>
      <trkpt lat="43.82559" lon="7.45306">
        <ele>1104.6408653792</ele>
        <time>2021-01-27T12:22:45Z</time>
      </trkpt>
      <trkpt lat="43.8256" lon="7.45305">
        <ele>1104.6408312204</ele>
        <time>2021-01-27T12:22:46Z</time>
      </trkpt>
      <trkpt lat="43.8256" lon="7.45304">
        <ele>1104.6407855617</ele>
        <time>2021-01-27T12:22:47Z</time>
      </trkpt>
      <trkpt lat="43.82562" lon="7.45303">
        <ele>1104.6407092978</ele>
        <time>2021-01-27T12:22:49Z</time>
      </trkpt>
      <trkpt lat="43.82562" lon="7.45302">
        <ele>1105.6406815754</ele>
        <time>2021-01-27T12:22:50Z</time>
      </trkpt>
      <trkpt lat="43.82563" lon="7.45301">
        <ele>1105.6406408337</ele>
        <time>2021-01-27T12:22:51Z</time>
      </trkpt>
      <trkpt lat="43.82563" lon="7.45301">
        <ele>1105.6406408337</ele>
        <time>2021-01-27T12:22:52Z</time>
      </trkpt>
      <trkpt lat="43.82563" lon="7.45299">
        <ele>1105.6405726327</ele>
        <time>2021-01-27T12:22:53Z</time>
      </trkpt>
      <trkpt lat="43.82564" lon="7.45298">
        <ele>1105.6405393785</ele>
        <time>2021-01-27T12:22:54Z</time>
      </trkpt>
      <trkpt lat="43.82565" lon="7.45297">
        <ele>1105.6404923204</ele>
        <time>2021-01-27T12:22:55Z</time>
      </trkpt>
      <trkpt lat="43.82565" lon="7.45295">
        <ele>1105.6404356093</ele>
        <time>2021-01-27T12:22:56Z</time>
      </trkpt>
      <trkpt lat="43.82567" lon="7.45293">
        <ele>1106.6403291963</ele>
        <time>2021-01-27T12:22:58Z</time>
      </trkpt>
      <trkpt lat="43.82567" lon="7.45291">
        <ele>1105.6402949025</ele>
        <time>2021-01-27T12:22:59Z</time>
      </trkpt>
      <trkpt lat="43.82568" lon="7.4529">
        <ele>1105.6402458762</ele>
        <time>2021-01-27T12:23:00Z</time>
      </trkpt>
      <trkpt lat="43.82569" lon="7.4529">
        <ele>1106.6402011412</ele>
        <time>2021-01-27T12:23:01Z</time>
      </trkpt>
      <trkpt lat="43.82569" lon="7.45289">
        <ele>1106.640184285</ele>
        <time>2021-01-27T12:23:02Z</time>
      </trkpt>
      <trkpt lat="43.8257" lon="7.45289">
        <ele>1106.6401480741</ele>
        <time>2021-01-27T12:23:03Z</time>
      </trkpt>
      <trkpt lat="43.82572" lon="7.45289">
        <ele>1106.6400709811</ele>
        <time>2021-01-27T12:23:05Z</time>
      </trkpt>
      <trkpt lat="43.82572" lon="7.45289">
        <ele>1105.6400266209</ele>
        <time>2021-01-27T12:23:06Z</time>
      </trkpt>
      <trkpt lat="43.82573" lon="7.45287">
        <ele>1105.6399733335</ele>
        <time>2021-01-27T12:23:07Z</time>
      </trkpt>
      <trkpt lat="43.82574" lon="7.45286">
        <ele>1105.6399151475</ele>
        <time>2021-01-27T12:23:08Z</time>
      </trkpt>
      <trkpt lat="43.82575" lon="7.45285">
        <ele>1105.6398578918</ele>
        <time>2021-01-27T12:23:09Z</time>
      </trkpt>
      <trkpt lat="43.82575" lon="7.45285">
        <ele>1105.6398578918</ele>
        <time>2021-01-27T12:23:10Z</time>
      </trkpt>
      <trkpt lat="43.82576" lon="7.45283">
        <ele>1104.6397709571</ele>
        <time>2021-01-27T12:23:11Z</time>
      </trkpt>
      <trkpt lat="43.82577" lon="7.45283">
        <ele>1104.6397121005</ele>
        <time>2021-01-27T12:23:12Z</time>
      </trkpt>
      <trkpt lat="43.8258" lon="7.45282">
        <ele>1105.6395706882</ele>
        <time>2021-01-27T12:23:14Z</time>
      </trkpt>
      <trkpt lat="43.82581" lon="7.45281">
        <ele>1105.63951322</ele>
        <time>2021-01-27T12:23:15Z</time>
      </trkpt>
      <trkpt lat="43.82582" lon="7.4528">
        <ele>1105.6394582741</ele>
        <time>2021-01-27T12:23:16Z</time>
      </trkpt>
      <trkpt lat="43.82584" lon="7.45279">
        <ele>1106.6393515788</ele>
        <time>2021-01-27T12:23:18Z</time>
      </trkpt>
      <trkpt lat="43.82586" lon="7.45278">
        <ele>1106.6392627573</ele>
        <time>2021-01-27T12:23:20Z</time>
      </trkpt>
      <trkpt lat="43.82587" lon="7.45277">
        <ele>1107.6392155091</ele>
        <time>2021-01-27T12:23:21Z</time>
      </trkpt>
      <trkpt lat="43.82588" lon="7.45277">
        <ele>1106.6391464237</ele>
        <time>2021-01-27T12:23:23Z</time>
      </trkpt>
      <trkpt lat="43.82589" lon="7.45274">
        <ele>1106.6390711657</ele>
        <time>2021-01-27T12:23:25Z</time>
      </trkpt>
      <trkpt lat="43.8259" lon="7.45273">
        <ele>1106.6390191073</ele>
        <time>2021-01-27T12:23:26Z</time>
      </trkpt>
      <trkpt lat="43.8259" lon="7.45273">
        <ele>1106.6390191073</ele>
        <time>2021-01-27T12:23:27Z</time>
      </trkpt>
      <trkpt lat="43.82593" lon="7.4527">
        <ele>1106.6388417513</ele>
        <time>2021-01-27T12:23:29Z</time>
      </trkpt>
      <trkpt lat="43.82594" lon="7.4527">
        <ele>1106.6387863231</ele>
        <time>2021-01-27T12:23:30Z</time>
      </trkpt>
      <trkpt lat="43.82594" lon="7.45269">
        <ele>1106.638740568</ele>
        <time>2021-01-27T12:23:31Z</time>
      </trkpt>
      <trkpt lat="43.82596" lon="7.45267">
        <ele>1107.6386415371</ele>
        <time>2021-01-27T12:23:33Z</time>
      </trkpt>
      <trkpt lat="43.82597" lon="7.45267">
        <ele>1108.6385790331</ele>
        <time>2021-01-27T12:23:34Z</time>
      </trkpt>
      <trkpt lat="43.82598" lon="7.45266">
        <ele>1108.6385256582</ele>
        <time>2021-01-27T12:23:35Z</time>
      </trkpt>
      <trkpt lat="43.826" lon="7.45264">
        <ele>1109.6384152669</ele>
        <time>2021-01-27T12:23:37Z</time>
      </trkpt>
      <trkpt lat="43.82601" lon="7.45263">
        <ele>1109.6383484812</ele>
        <time>2021-01-27T12:23:38Z</time>
      </trkpt>
      <trkpt lat="43.82603" lon="7.45263">
        <ele>1109.6382816101</ele>
        <time>2021-01-27T12:23:39Z</time>
      </trkpt>
      <trkpt lat="43.82604" lon="7.45263">
        <ele>1110.6382182408</ele>
        <time>2021-01-27T12:23:40Z</time>
      </trkpt>
      <trkpt lat="43.82605" lon="7.45262">
        <ele>1111.6381590325</ele>
        <time>2021-01-27T12:23:41Z</time>
      </trkpt>
      <trkpt lat="43.82606" lon="7.45262">
        <ele>1111.6380951715</ele>
        <time>2021-01-27T12:23:42Z</time>
      </trkpt>
      <trkpt lat="43.82608" lon="7.45262">
        <ele>1111.6380250492</ele>
        <time>2021-01-27T12:23:43Z</time>
      </trkpt>
      <trkpt lat="43.82609" lon="7.45261">
        <ele>1111.6379596087</ele>
        <time>2021-01-27T12:23:44Z</time>
      </trkpt>
      <trkpt lat="43.8261" lon="7.45261">
        <ele>1111.6378952843</ele>
        <time>2021-01-27T12:23:45Z</time>
      </trkpt>
      <trkpt lat="43.82611" lon="7.4526">
        <ele>1111.6378256287</ele>
        <time>2021-01-27T12:23:46Z</time>
      </trkpt>
      <trkpt lat="43.82612" lon="7.45259">
        <ele>1112.6377559514</ele>
        <time>2021-01-27T12:23:47Z</time>
      </trkpt>
      <trkpt lat="43.82614" lon="7.45258">
        <ele>1111.6376940455</ele>
        <time>2021-01-27T12:23:48Z</time>
      </trkpt>
      <trkpt lat="43.82615" lon="7.45257">
        <ele>1112.6376322575</ele>
        <time>2021-01-27T12:23:49Z</time>
      </trkpt>
      <trkpt lat="43.82615" lon="7.45256">
        <ele>1112.6375806817</ele>
        <time>2021-01-27T12:23:50Z</time>
      </trkpt>
      <trkpt lat="43.82616" lon="7.45255">
        <ele>1112.6375480132</ele>
        <time>2021-01-27T12:23:51Z</time>
      </trkpt>
      <trkpt lat="43.82617" lon="7.45254">
        <ele>1112.6375092574</ele>
        <time>2021-01-27T12:23:52Z</time>
      </trkpt>
      <trkpt lat="43.82617" lon="7.45253">
        <ele>1112.6374577394</ele>
        <time>2021-01-27T12:23:53Z</time>
      </trkpt>
      <trkpt lat="43.82618" lon="7.45252">
        <ele>1112.6374051285</ele>
        <time>2021-01-27T12:23:54Z</time>
      </trkpt>
      <trkpt lat="43.82619" lon="7.45251">
        <ele>1112.6373708963</ele>
        <time>2021-01-27T12:23:55Z</time>
      </trkpt>
      <trkpt lat="43.82619" lon="7.45249">
        <ele>1112.6373245763</ele>
        <time>2021-01-27T12:23:56Z</time>
      </trkpt>
      <trkpt lat="43.8262" lon="7.45248">
        <ele>1112.6372551011</ele>
        <time>2021-01-27T12:23:57Z</time>
      </trkpt>
      <trkpt lat="43.82621" lon="7.45247">
        <ele>1112.6372012807</ele>
        <time>2021-01-27T12:23:58Z</time>
      </trkpt>
      <trkpt lat="43.82622" lon="7.45246">
        <ele>1112.637147409</ele>
        <time>2021-01-27T12:23:59Z</time>
      </trkpt>
      <trkpt lat="43.82623" lon="7.45244">
        <ele>1113.6370874353</ele>
        <time>2021-01-27T12:24:00Z</time>
      </trkpt>
      <trkpt lat="43.82624" lon="7.45243">
        <ele>1112.6370326173</ele>
        <time>2021-01-27T12:24:01Z</time>
      </trkpt>
      <trkpt lat="43.82625" lon="7.45242">
        <ele>1113.6369689239</ele>
        <time>2021-01-27T12:24:02Z</time>
      </trkpt>
      <trkpt lat="43.82625" lon="7.45241">
        <ele>1113.6369208039</ele>
        <time>2021-01-27T12:24:03Z</time>
      </trkpt>
      <trkpt lat="43.82626" lon="7.4524">
        <ele>1112.63687123</ele>
        <time>2021-01-27T12:24:04Z</time>
      </trkpt>
      <trkpt lat="43.82627" lon="7.45239">
        <ele>1112.6368366559</ele>
        <time>2021-01-27T12:24:05Z</time>
      </trkpt>
      <trkpt lat="43.82627" lon="7.45238">
        <ele>1112.6368001921</ele>
        <time>2021-01-27T12:24:06Z</time>
      </trkpt>
      <trkpt lat="43.82628" lon="7.45237">
        <ele>1112.6367631903</ele>
        <time>2021-01-27T12:24:07Z</time>
      </trkpt>
      <trkpt lat="43.82629" lon="7.45237">
        <ele>1112.6367081122</ele>
        <time>2021-01-27T12:24:08Z</time>
      </trkpt>
      <trkpt lat="43.8263" lon="7.45234">
        <ele>1111.6366194948</ele>
        <time>2021-01-27T12:24:10Z</time>
      </trkpt>
      <trkpt lat="43.82631" lon="7.45232">
        <ele>1111.6365734647</ele>
        <time>2021-01-27T12:24:11Z</time>
      </trkpt>
      <trkpt lat="43.82631" lon="7.45231">
        <ele>1112.6365227321</ele>
        <time>2021-01-27T12:24:12Z</time>
      </trkpt>
      <trkpt lat="43.82633" lon="7.45229">
        <ele>1112.6364319079</ele>
        <time>2021-01-27T12:24:14Z</time>
      </trkpt>
      <trkpt lat="43.82633" lon="7.45228">
        <ele>1112.6363801682</ele>
        <time>2021-01-27T12:24:15Z</time>
      </trkpt>
      <trkpt lat="43.82634" lon="7.45227">
        <ele>1113.6363255539</ele>
        <time>2021-01-27T12:24:16Z</time>
      </trkpt>
      <trkpt lat="43.82636" lon="7.45225">
        <ele>1113.636221437</ele>
        <time>2021-01-27T12:24:18Z</time>
      </trkpt>
      <trkpt lat="43.82637" lon="7.45225">
        <ele>1113.6361769829</ele>
        <time>2021-01-27T12:24:19Z</time>
      </trkpt>
      <trkpt lat="43.82638" lon="7.45224">
        <ele>1114.6361279088</ele>
        <time>2021-01-27T12:24:20Z</time>
      </trkpt>
      <trkpt lat="43.82639" lon="7.45223">
        <ele>1114.6360732972</ele>
        <time>2021-01-27T12:24:21Z</time>
      </trkpt>
      <trkpt lat="43.82639" lon="7.45223">
        <ele>1114.6360732972</ele>
        <time>2021-01-27T12:24:23Z</time>
      </trkpt>
      <trkpt lat="43.8264" lon="7.4522">
        <ele>1114.6359810138</ele>
        <time>2021-01-27T12:24:24Z</time>
      </trkpt>
      <trkpt lat="43.82641" lon="7.45219">
        <ele>1114.6359328812</ele>
        <time>2021-01-27T12:24:25Z</time>
      </trkpt>
      <trkpt lat="43.82642" lon="7.45217">
        <ele>1113.6358343436</ele>
        <time>2021-01-27T12:24:27Z</time>
      </trkpt>
      <trkpt lat="43.82642" lon="7.45216">
        <ele>1114.6358109504</ele>
        <time>2021-01-27T12:24:28Z</time>
      </trkpt>
      <trkpt lat="43.82643" lon="7.45215">
        <ele>1115.6357803267</ele>
        <time>2021-01-27T12:24:29Z</time>
      </trkpt>
      <trkpt lat="43.82643" lon="7.45213">
        <ele>1115.6357410049</ele>
        <time>2021-01-27T12:24:30Z</time>
      </trkpt>
      <trkpt lat="43.82643" lon="7.45213">
        <ele>1115.6357410049</ele>
        <time>2021-01-27T12:24:31Z</time>
      </trkpt>
      <trkpt lat="43.82643" lon="7.4521">
        <ele>1115.6357277782</ele>
        <time>2021-01-27T12:24:32Z</time>
      </trkpt>
      <trkpt lat="43.82642" lon="7.45208">
        <ele>1115.635737618</ele>
        <time>2021-01-27T12:24:33Z</time>
      </trkpt>
      <trkpt lat="43.82641" lon="7.45207">
        <ele>1115.635751191</ele>
        <time>2021-01-27T12:24:34Z</time>
      </trkpt>
      <trkpt lat="43.82641" lon="7.45205">
        <ele>1115.6357533694</ele>
        <time>2021-01-27T12:24:35Z</time>
      </trkpt>
      <trkpt lat="43.8264" lon="7.45204">
        <ele>1115.6357526968</ele>
        <time>2021-01-27T12:24:36Z</time>
      </trkpt>
      <trkpt lat="43.8264" lon="7.45202">
        <ele>1116.6357473791</ele>
        <time>2021-01-27T12:24:37Z</time>
      </trkpt>
      <trkpt lat="43.8264" lon="7.452">
        <ele>1117.6357506401</ele>
        <time>2021-01-27T12:24:38Z</time>
      </trkpt>
      <trkpt lat="43.82639" lon="7.45199">
        <ele>1117.6357491334</ele>
        <time>2021-01-27T12:24:39Z</time>
      </trkpt>
      <trkpt lat="43.82639" lon="7.45197">
        <ele>1118.6357363603</ele>
        <time>2021-01-27T12:24:40Z</time>
      </trkpt>
      <trkpt lat="43.82639" lon="7.45196">
        <ele>1118.6357122835</ele>
        <time>2021-01-27T12:24:41Z</time>
      </trkpt>
      <trkpt lat="43.82639" lon="7.45194">
        <ele>1118.6356948371</ele>
        <time>2021-01-27T12:24:42Z</time>
      </trkpt>
      <trkpt lat="43.82639" lon="7.45193">
        <ele>1119.6356666177</ele>
        <time>2021-01-27T12:24:43Z</time>
      </trkpt>
      <trkpt lat="43.82639" lon="7.45189">
        <ele>1118.6356599372</ele>
        <time>2021-01-27T12:24:45Z</time>
      </trkpt>
      <trkpt lat="43.82638" lon="7.45187">
        <ele>1118.6356692633</ele>
        <time>2021-01-27T12:24:46Z</time>
      </trkpt>
      <trkpt lat="43.82637" lon="7.45185">
        <ele>1118.6356922564</ele>
        <time>2021-01-27T12:24:47Z</time>
      </trkpt>
      <trkpt lat="43.82637" lon="7.45183">
        <ele>1118.6356879135</ele>
        <time>2021-01-27T12:24:48Z</time>
      </trkpt>
      <trkpt lat="43.82637" lon="7.45182">
        <ele>1118.6356704495</ele>
        <time>2021-01-27T12:24:49Z</time>
      </trkpt>
      <trkpt lat="43.82636" lon="7.4518">
        <ele>1119.6356639393</ele>
        <time>2021-01-27T12:24:50Z</time>
      </trkpt>
      <trkpt lat="43.82636" lon="7.45179">
        <ele>1119.6356799191</ele>
        <time>2021-01-27T12:24:51Z</time>
      </trkpt>
      <trkpt lat="43.82634" lon="7.45176">
        <ele>1120.6357311512</ele>
        <time>2021-01-27T12:24:53Z</time>
      </trkpt>
      <trkpt lat="43.82633" lon="7.45173">
        <ele>1121.6357330089</ele>
        <time>2021-01-27T12:24:55Z</time>
      </trkpt>
      <trkpt lat="43.82633" lon="7.45172">
        <ele>1121.6357041272</ele>
        <time>2021-01-27T12:24:56Z</time>
      </trkpt>
      <trkpt lat="43.82633" lon="7.45169">
        <ele>1122.6356666791</ele>
        <time>2021-01-27T12:24:58Z</time>
      </trkpt>
      <trkpt lat="43.82632" lon="7.45166">
        <ele>1124.63567282</ele>
        <time>2021-01-27T12:25:00Z</time>
      </trkpt>
      <trkpt lat="43.82633" lon="7.45165">
        <ele>1124.6356396146</ele>
        <time>2021-01-27T12:25:02Z</time>
      </trkpt>
      <trkpt lat="43.82635" lon="7.45163">
        <ele>1126.6355355032</ele>
        <time>2021-01-27T12:25:04Z</time>
      </trkpt>
      <trkpt lat="43.82636" lon="7.45163">
        <ele>1125.6354821207</ele>
        <time>2021-01-27T12:25:05Z</time>
      </trkpt>
      <trkpt lat="43.82636" lon="7.45163">
        <ele>1125.6354443859</ele>
        <time>2021-01-27T12:25:06Z</time>
      </trkpt>
      <trkpt lat="43.82637" lon="7.45162">
        <ele>1126.6354038734</ele>
        <time>2021-01-27T12:25:07Z</time>
      </trkpt>
      <trkpt lat="43.82638" lon="7.45162">
        <ele>1125.6353574719</ele>
        <time>2021-01-27T12:25:08Z</time>
      </trkpt>
      <trkpt lat="43.82639" lon="7.45162">
        <ele>1126.6353126097</ele>
        <time>2021-01-27T12:25:09Z</time>
      </trkpt>
      <trkpt lat="43.8264" lon="7.45163">
        <ele>1126.6352612771</ele>
        <time>2021-01-27T12:25:10Z</time>
      </trkpt>
      <trkpt lat="43.82641" lon="7.45163">
        <ele>1126.6352088429</ele>
        <time>2021-01-27T12:25:11Z</time>
      </trkpt>
      <trkpt lat="43.82643" lon="7.45163">
        <ele>1126.635154218</ele>
        <time>2021-01-27T12:25:12Z</time>
      </trkpt>
      <trkpt lat="43.82643" lon="7.45163">
        <ele>1127.6351098413</ele>
        <time>2021-01-27T12:25:13Z</time>
      </trkpt>
      <trkpt lat="43.82644" lon="7.45164">
        <ele>1127.6350738368</ele>
        <time>2021-01-27T12:25:14Z</time>
      </trkpt>
      <trkpt lat="43.82645" lon="7.45165">
        <ele>1127.635067591</ele>
        <time>2021-01-27T12:25:15Z</time>
      </trkpt>
      <trkpt lat="43.82645" lon="7.45166">
        <ele>1127.6350517011</ele>
        <time>2021-01-27T12:25:16Z</time>
      </trkpt>
      <trkpt lat="43.82647" lon="7.45168">
        <ele>1127.6350119575</ele>
        <time>2021-01-27T12:25:17Z</time>
      </trkpt>
      <trkpt lat="43.82647" lon="7.45169">
        <ele>1127.6349982986</ele>
        <time>2021-01-27T12:25:18Z</time>
      </trkpt>
      <trkpt lat="43.82648" lon="7.45171">
        <ele>1127.6349901305</ele>
        <time>2021-01-27T12:25:19Z</time>
      </trkpt>
      <trkpt lat="43.82649" lon="7.45171">
        <ele>1127.6349616761</ele>
        <time>2021-01-27T12:25:20Z</time>
      </trkpt>
      <trkpt lat="43.8265" lon="7.45172">
        <ele>1127.63492989</ele>
        <time>2021-01-27T12:25:21Z</time>
      </trkpt>
      <trkpt lat="43.8265" lon="7.45173">
        <ele>1128.6348999565</ele>
        <time>2021-01-27T12:25:22Z</time>
      </trkpt>
      <trkpt lat="43.82651" lon="7.45173">
        <ele>1127.6348723235</ele>
        <time>2021-01-27T12:25:23Z</time>
      </trkpt>
      <trkpt lat="43.82652" lon="7.45174">
        <ele>1128.6348352644</ele>
        <time>2021-01-27T12:25:24Z</time>
      </trkpt>
      <trkpt lat="43.82653" lon="7.45174">
        <ele>1128.634789141</ele>
        <time>2021-01-27T12:25:25Z</time>
      </trkpt>
      <trkpt lat="43.82654" lon="7.45175">
        <ele>1128.6347350322</ele>
        <time>2021-01-27T12:25:26Z</time>
      </trkpt>
      <trkpt lat="43.82656" lon="7.45176">
        <ele>1129.6346819</ele>
        <time>2021-01-27T12:25:27Z</time>
      </trkpt>
      <trkpt lat="43.82657" lon="7.45176">
        <ele>1129.6346428909</ele>
        <time>2021-01-27T12:25:28Z</time>
      </trkpt>
      <trkpt lat="43.82658" lon="7.45177">
        <ele>1129.6345974302</ele>
        <time>2021-01-27T12:25:29Z</time>
      </trkpt>
      <trkpt lat="43.82658" lon="7.45178">
        <ele>1129.6345768502</ele>
        <time>2021-01-27T12:25:30Z</time>
      </trkpt>
      <trkpt lat="43.82659" lon="7.45179">
        <ele>1130.634550906</ele>
        <time>2021-01-27T12:25:31Z</time>
      </trkpt>
      <trkpt lat="43.8266" lon="7.4518">
        <ele>1130.6345350379</ele>
        <time>2021-01-27T12:25:32Z</time>
      </trkpt>
      <trkpt lat="43.82661" lon="7.45181">
        <ele>1130.6345150278</ele>
        <time>2021-01-27T12:25:33Z</time>
      </trkpt>
      <trkpt lat="43.82661" lon="7.45182">
        <ele>1130.6345128709</ele>
        <time>2021-01-27T12:25:34Z</time>
      </trkpt>
      <trkpt lat="43.82661" lon="7.45184">
        <ele>1131.6345142255</ele>
        <time>2021-01-27T12:25:35Z</time>
      </trkpt>
      <trkpt lat="43.82661" lon="7.45185">
        <ele>1131.634521968</ele>
        <time>2021-01-27T12:25:36Z</time>
      </trkpt>
      <trkpt lat="43.82662" lon="7.45186">
        <ele>1130.6345156082</ele>
        <time>2021-01-27T12:25:37Z</time>
      </trkpt>
      <trkpt lat="43.82662" lon="7.45188">
        <ele>1131.6345053861</ele>
        <time>2021-01-27T12:25:38Z</time>
      </trkpt>
      <trkpt lat="43.82663" lon="7.45189">
        <ele>1131.6345137572</ele>
        <time>2021-01-27T12:25:39Z</time>
      </trkpt>
      <trkpt lat="43.82663" lon="7.45191">
        <ele>1132.634520626</ele>
        <time>2021-01-27T12:25:40Z</time>
      </trkpt>
      <trkpt lat="43.82663" lon="7.45192">
        <ele>1132.634522158</ele>
        <time>2021-01-27T12:25:41Z</time>
      </trkpt>
      <trkpt lat="43.82663" lon="7.45193">
        <ele>1132.6345350321</ele>
        <time>2021-01-27T12:25:42Z</time>
      </trkpt>
      <trkpt lat="43.82663" lon="7.45193">
        <ele>1132.6345350321</ele>
        <time>2021-01-27T12:25:44Z</time>
      </trkpt>
      <trkpt lat="43.82664" lon="7.45198">
        <ele>1133.6345549464</ele>
        <time>2021-01-27T12:25:45Z</time>
      </trkpt>
      <trkpt lat="43.82664" lon="7.452">
        <ele>1134.6345720713</ele>
        <time>2021-01-27T12:25:46Z</time>
      </trkpt>
      <trkpt lat="43.82665" lon="7.45201">
        <ele>1135.6345627802</ele>
        <time>2021-01-27T12:25:47Z</time>
      </trkpt>
      <trkpt lat="43.82666" lon="7.45202">
        <ele>1135.6345275035</ele>
        <time>2021-01-27T12:25:48Z</time>
      </trkpt>
      <trkpt lat="43.82667" lon="7.45203">
        <ele>1136.6344833028</ele>
        <time>2021-01-27T12:25:49Z</time>
      </trkpt>
      <trkpt lat="43.82668" lon="7.45204">
        <ele>1136.6344487053</ele>
        <time>2021-01-27T12:25:50Z</time>
      </trkpt>
      <trkpt lat="43.82669" lon="7.45205">
        <ele>1136.6344297395</ele>
        <time>2021-01-27T12:25:51Z</time>
      </trkpt>
      <trkpt lat="43.82669" lon="7.45206">
        <ele>1136.6344141641</ele>
        <time>2021-01-27T12:25:52Z</time>
      </trkpt>
      <trkpt lat="43.8267" lon="7.45207">
        <ele>1136.6343897276</ele>
        <time>2021-01-27T12:25:53Z</time>
      </trkpt>
      <trkpt lat="43.82671" lon="7.45209">
        <ele>1136.6343683448</ele>
        <time>2021-01-27T12:25:54Z</time>
      </trkpt>
      <trkpt lat="43.82671" lon="7.4521">
        <ele>1136.6343562332</ele>
        <time>2021-01-27T12:25:55Z</time>
      </trkpt>
      <trkpt lat="43.82672" lon="7.45212">
        <ele>1136.6343545893</ele>
        <time>2021-01-27T12:25:56Z</time>
      </trkpt>
      <trkpt lat="43.82672" lon="7.45213">
        <ele>1136.6343615907</ele>
        <time>2021-01-27T12:25:57Z</time>
      </trkpt>
      <trkpt lat="43.82673" lon="7.45214">
        <ele>1136.6343339067</ele>
        <time>2021-01-27T12:25:58Z</time>
      </trkpt>
      <trkpt lat="43.82674" lon="7.45216">
        <ele>1136.6343177019</ele>
        <time>2021-01-27T12:25:59Z</time>
      </trkpt>
      <trkpt lat="43.82674" lon="7.45217">
        <ele>1136.634333273</ele>
        <time>2021-01-27T12:26:00Z</time>
      </trkpt>
      <trkpt lat="43.82674" lon="7.45219">
        <ele>1136.6343506344</ele>
        <time>2021-01-27T12:26:01Z</time>
      </trkpt>
      <trkpt lat="43.82674" lon="7.4522">
        <ele>1137.6343688545</ele>
        <time>2021-01-27T12:26:02Z</time>
      </trkpt>
      <trkpt lat="43.82674" lon="7.45221">
        <ele>1137.6343920679</ele>
        <time>2021-01-27T12:26:03Z</time>
      </trkpt>
      <trkpt lat="43.82673" lon="7.45223">
        <ele>1138.6344448149</ele>
        <time>2021-01-27T12:26:04Z</time>
      </trkpt>
      <trkpt lat="43.82673" lon="7.45225">
        <ele>1138.6344691885</ele>
        <time>2021-01-27T12:26:05Z</time>
      </trkpt>
      <trkpt lat="43.82673" lon="7.45226">
        <ele>1138.6344959865</ele>
        <time>2021-01-27T12:26:06Z</time>
      </trkpt>
      <trkpt lat="43.82673" lon="7.45228">
        <ele>1138.6345099637</ele>
        <time>2021-01-27T12:26:07Z</time>
      </trkpt>
      <trkpt lat="43.82673" lon="7.45229">
        <ele>1138.634522301</ele>
        <time>2021-01-27T12:26:08Z</time>
      </trkpt>
      <trkpt lat="43.82672" lon="7.4523">
        <ele>1138.6345579142</ele>
        <time>2021-01-27T12:26:09Z</time>
      </trkpt>
      <trkpt lat="43.82672" lon="7.45232">
        <ele>1138.6345795504</ele>
        <time>2021-01-27T12:26:10Z</time>
      </trkpt>
      <trkpt lat="43.82672" lon="7.45234">
        <ele>1139.6346099174</ele>
        <time>2021-01-27T12:26:11Z</time>
      </trkpt>
      <trkpt lat="43.82672" lon="7.45235">
        <ele>1140.6346393329</ele>
        <time>2021-01-27T12:26:12Z</time>
      </trkpt>
      <trkpt lat="43.82671" lon="7.45237">
        <ele>1140.6346830923</ele>
        <time>2021-01-27T12:26:13Z</time>
      </trkpt>
      <trkpt lat="43.82671" lon="7.45239">
        <ele>1140.6347194713</ele>
        <time>2021-01-27T12:26:14Z</time>
      </trkpt>
      <trkpt lat="43.82671" lon="7.4524">
        <ele>1140.6347507173</ele>
        <time>2021-01-27T12:26:15Z</time>
      </trkpt>
      <trkpt lat="43.8267" lon="7.45242">
        <ele>1140.6347868168</ele>
        <time>2021-01-27T12:26:16Z</time>
      </trkpt>
      <trkpt lat="43.8267" lon="7.45243">
        <ele>1140.6348388612</ele>
        <time>2021-01-27T12:26:17Z</time>
      </trkpt>
      <trkpt lat="43.82669" lon="7.45245">
        <ele>1140.6348842644</ele>
        <time>2021-01-27T12:26:18Z</time>
      </trkpt>
      <trkpt lat="43.82668" lon="7.45246">
        <ele>1139.6349469978</ele>
        <time>2021-01-27T12:26:19Z</time>
      </trkpt>
      <trkpt lat="43.82668" lon="7.45248">
        <ele>1139.6349938157</ele>
        <time>2021-01-27T12:26:20Z</time>
      </trkpt>
      <trkpt lat="43.82667" lon="7.4525">
        <ele>1139.6350452785</ele>
        <time>2021-01-27T12:26:21Z</time>
      </trkpt>
      <trkpt lat="43.82667" lon="7.45251">
        <ele>1138.6350731869</ele>
        <time>2021-01-27T12:26:22Z</time>
      </trkpt>
      <trkpt lat="43.82667" lon="7.45252">
        <ele>1138.6350804542</ele>
        <time>2021-01-27T12:26:23Z</time>
      </trkpt>
      <trkpt lat="43.82667" lon="7.45253">
        <ele>1138.6350672895</ele>
        <time>2021-01-27T12:26:24Z</time>
      </trkpt>
      <trkpt lat="43.82668" lon="7.45254">
        <ele>1138.6350410208</ele>
        <time>2021-01-27T12:26:25Z</time>
      </trkpt>
      <trkpt lat="43.82669" lon="7.45254">
        <ele>1137.6350068844</ele>
        <time>2021-01-27T12:26:26Z</time>
      </trkpt>
      <trkpt lat="43.8267" lon="7.45254">
        <ele>1138.6349634113</ele>
        <time>2021-01-27T12:26:27Z</time>
      </trkpt>
      <trkpt lat="43.82671" lon="7.45254">
        <ele>1137.6349033802</ele>
        <time>2021-01-27T12:26:28Z</time>
      </trkpt>
      <trkpt lat="43.82672" lon="7.45253">
        <ele>1137.6348530579</ele>
        <time>2021-01-27T12:26:29Z</time>
      </trkpt>
      <trkpt lat="43.82673" lon="7.45253">
        <ele>1137.6348055435</ele>
        <time>2021-01-27T12:26:30Z</time>
      </trkpt>
      <trkpt lat="43.82674" lon="7.45252">
        <ele>1136.6347486647</ele>
        <time>2021-01-27T12:26:31Z</time>
      </trkpt>
      <trkpt lat="43.82675" lon="7.45252">
        <ele>1136.6347112428</ele>
        <time>2021-01-27T12:26:32Z</time>
      </trkpt>
      <trkpt lat="43.82675" lon="7.45251">
        <ele>1137.6346769339</ele>
        <time>2021-01-27T12:26:33Z</time>
      </trkpt>
      <trkpt lat="43.82677" lon="7.4525">
        <ele>1136.6346023026</ele>
        <time>2021-01-27T12:26:34Z</time>
      </trkpt>
      <trkpt lat="43.82678" lon="7.4525">
        <ele>1136.6345471407</ele>
        <time>2021-01-27T12:26:35Z</time>
      </trkpt>
      <trkpt lat="43.82678" lon="7.45249">
        <ele>1137.6345173002</ele>
        <time>2021-01-27T12:26:36Z</time>
      </trkpt>
      <trkpt lat="43.82679" lon="7.45248">
        <ele>1138.6344567224</ele>
        <time>2021-01-27T12:26:37Z</time>
      </trkpt>
      <trkpt lat="43.8268" lon="7.45248">
        <ele>1138.6344160355</ele>
        <time>2021-01-27T12:26:38Z</time>
      </trkpt>
      <trkpt lat="43.82681" lon="7.45247">
        <ele>1138.6343599323</ele>
        <time>2021-01-27T12:26:39Z</time>
      </trkpt>
      <trkpt lat="43.82682" lon="7.45246">
        <ele>1139.6343081831</ele>
        <time>2021-01-27T12:26:40Z</time>
      </trkpt>
      <trkpt lat="43.82682" lon="7.45245">
        <ele>1139.6342665056</ele>
        <time>2021-01-27T12:26:41Z</time>
      </trkpt>
      <trkpt lat="43.82683" lon="7.45244">
        <ele>1139.6342324395</ele>
        <time>2021-01-27T12:26:42Z</time>
      </trkpt>
      <trkpt lat="43.82684" lon="7.45243">
        <ele>1139.634185615</ele>
        <time>2021-01-27T12:26:43Z</time>
      </trkpt>
      <trkpt lat="43.82684" lon="7.45242">
        <ele>1139.6341379443</ele>
        <time>2021-01-27T12:26:44Z</time>
      </trkpt>
      <trkpt lat="43.82686" lon="7.45241">
        <ele>1138.6340608695</ele>
        <time>2021-01-27T12:26:45Z</time>
      </trkpt>
      <trkpt lat="43.82686" lon="7.4524">
        <ele>1139.6340206663</ele>
        <time>2021-01-27T12:26:46Z</time>
      </trkpt>
      <trkpt lat="43.82687" lon="7.45239">
        <ele>1139.633984196</ele>
        <time>2021-01-27T12:26:47Z</time>
      </trkpt>
      <trkpt lat="43.82687" lon="7.45238">
        <ele>1138.6339420663</ele>
        <time>2021-01-27T12:26:48Z</time>
      </trkpt>
      <trkpt lat="43.82688" lon="7.45237">
        <ele>1138.6338902426</ele>
        <time>2021-01-27T12:26:49Z</time>
      </trkpt>
      <trkpt lat="43.82689" lon="7.45236">
        <ele>1139.6338290556</ele>
        <time>2021-01-27T12:26:50Z</time>
      </trkpt>
      <trkpt lat="43.8269" lon="7.45235">
        <ele>1139.6337810483</ele>
        <time>2021-01-27T12:26:51Z</time>
      </trkpt>
      <trkpt lat="43.82691" lon="7.45235">
        <ele>1139.6337456172</ele>
        <time>2021-01-27T12:26:52Z</time>
      </trkpt>
      <trkpt lat="43.82691" lon="7.45235">
        <ele>1139.6336999428</ele>
        <time>2021-01-27T12:26:53Z</time>
      </trkpt>
      <trkpt lat="43.82692" lon="7.45234">
        <ele>1140.6336600422</ele>
        <time>2021-01-27T12:26:54Z</time>
      </trkpt>
      <trkpt lat="43.82693" lon="7.45233">
        <ele>1140.633619084</ele>
        <time>2021-01-27T12:26:55Z</time>
      </trkpt>
      <trkpt lat="43.82694" lon="7.45232">
        <ele>1140.6335636964</ele>
        <time>2021-01-27T12:26:56Z</time>
      </trkpt>
      <trkpt lat="43.82694" lon="7.45232">
        <ele>1140.633523071</ele>
        <time>2021-01-27T12:26:57Z</time>
      </trkpt>
      <trkpt lat="43.82695" lon="7.45231">
        <ele>1140.6334787493</ele>
        <time>2021-01-27T12:26:58Z</time>
      </trkpt>
      <trkpt lat="43.82696" lon="7.4523">
        <ele>1141.6334265219</ele>
        <time>2021-01-27T12:26:59Z</time>
      </trkpt>
      <trkpt lat="43.82697" lon="7.45229">
        <ele>1141.6333750839</ele>
        <time>2021-01-27T12:27:00Z</time>
      </trkpt>
      <trkpt lat="43.82697" lon="7.45228">
        <ele>1141.6333349819</ele>
        <time>2021-01-27T12:27:01Z</time>
      </trkpt>
      <trkpt lat="43.82698" lon="7.45227">
        <ele>1141.6332988983</ele>
        <time>2021-01-27T12:27:02Z</time>
      </trkpt>
      <trkpt lat="43.82699" lon="7.45227">
        <ele>1141.6332632604</ele>
        <time>2021-01-27T12:27:03Z</time>
      </trkpt>
      <trkpt lat="43.82699" lon="7.45226">
        <ele>1141.6332171639</ele>
        <time>2021-01-27T12:27:04Z</time>
      </trkpt>
      <trkpt lat="43.82699" lon="7.45226">
        <ele>1141.6332171639</ele>
        <time>2021-01-27T12:27:06Z</time>
      </trkpt>
      <trkpt lat="43.82701" lon="7.45223">
        <ele>1141.6331127645</ele>
        <time>2021-01-27T12:27:08Z</time>
      </trkpt>
      <trkpt lat="43.82702" lon="7.45221">
        <ele>1141.633031991</ele>
        <time>2021-01-27T12:27:10Z</time>
      </trkpt>
      <trkpt lat="43.82703" lon="7.4522">
        <ele>1141.632988692</ele>
        <time>2021-01-27T12:27:11Z</time>
      </trkpt>
      <trkpt lat="43.82703" lon="7.45219">
        <ele>1141.6329438564</ele>
        <time>2021-01-27T12:27:12Z</time>
      </trkpt>
      <trkpt lat="43.82704" lon="7.45218">
        <ele>1141.6328839925</ele>
        <time>2021-01-27T12:27:13Z</time>
      </trkpt>
      <trkpt lat="43.82705" lon="7.45217">
        <ele>1141.6328143506</ele>
        <time>2021-01-27T12:27:14Z</time>
      </trkpt>
      <trkpt lat="43.82706" lon="7.45215">
        <ele>1141.6327471698</ele>
        <time>2021-01-27T12:27:15Z</time>
      </trkpt>
      <trkpt lat="43.82707" lon="7.45214">
        <ele>1141.6326989225</ele>
        <time>2021-01-27T12:27:16Z</time>
      </trkpt>
      <trkpt lat="43.82708" lon="7.45213">
        <ele>1141.6326449386</ele>
        <time>2021-01-27T12:27:17Z</time>
      </trkpt>
      <trkpt lat="43.82708" lon="7.45212">
        <ele>1141.6326097104</ele>
        <time>2021-01-27T12:27:18Z</time>
      </trkpt>
      <trkpt lat="43.82709" lon="7.45211">
        <ele>1141.6325580504</ele>
        <time>2021-01-27T12:27:19Z</time>
      </trkpt>
      <trkpt lat="43.8271" lon="7.4521">
        <ele>1142.6325031331</ele>
        <time>2021-01-27T12:27:20Z</time>
      </trkpt>
      <trkpt lat="43.82711" lon="7.45207">
        <ele>1142.6324042545</ele>
        <time>2021-01-27T12:27:22Z</time>
      </trkpt>
      <trkpt lat="43.82712" lon="7.45205">
        <ele>1143.6323771941</ele>
        <time>2021-01-27T12:27:23Z</time>
      </trkpt>
      <trkpt lat="43.82712" lon="7.45203">
        <ele>1142.6323383095</ele>
        <time>2021-01-27T12:27:25Z</time>
      </trkpt>
      <trkpt lat="43.82712" lon="7.45202">
        <ele>1143.6322911622</ele>
        <time>2021-01-27T12:27:26Z</time>
      </trkpt>
      <trkpt lat="43.82713" lon="7.45201">
        <ele>1143.6322638861</ele>
        <time>2021-01-27T12:27:27Z</time>
      </trkpt>
      <trkpt lat="43.82713" lon="7.45199">
        <ele>1144.6322413226</ele>
        <time>2021-01-27T12:27:28Z</time>
      </trkpt>
      <trkpt lat="43.82713" lon="7.45198">
        <ele>1144.6322041657</ele>
        <time>2021-01-27T12:27:31Z</time>
      </trkpt>
      <trkpt lat="43.82715" lon="7.45196">
        <ele>1144.6320808998</ele>
        <time>2021-01-27T12:27:32Z</time>
      </trkpt>
      <trkpt lat="43.82717" lon="7.45195">
        <ele>1144.6319880014</ele>
        <time>2021-01-27T12:27:34Z</time>
      </trkpt>
      <trkpt lat="43.82718" lon="7.45195">
        <ele>1145.6319398924</ele>
        <time>2021-01-27T12:27:35Z</time>
      </trkpt>
      <trkpt lat="43.82719" lon="7.45194">
        <ele>1145.631879023</ele>
        <time>2021-01-27T12:27:36Z</time>
      </trkpt>
      <trkpt lat="43.8272" lon="7.45194">
        <ele>1145.6318232978</ele>
        <time>2021-01-27T12:27:37Z</time>
      </trkpt>
      <trkpt lat="43.82721" lon="7.45193">
        <ele>1145.6317972552</ele>
        <time>2021-01-27T12:27:38Z</time>
      </trkpt>
      <trkpt lat="43.82721" lon="7.45192">
        <ele>1145.6317637009</ele>
        <time>2021-01-27T12:27:39Z</time>
      </trkpt>
      <trkpt lat="43.82722" lon="7.45191">
        <ele>1145.6317225425</ele>
        <time>2021-01-27T12:27:40Z</time>
      </trkpt>
      <trkpt lat="43.82722" lon="7.4519">
        <ele>1145.6316846552</ele>
        <time>2021-01-27T12:27:41Z</time>
      </trkpt>
      <trkpt lat="43.82723" lon="7.45189">
        <ele>1145.6316332333</ele>
        <time>2021-01-27T12:27:42Z</time>
      </trkpt>
      <trkpt lat="43.82724" lon="7.45188">
        <ele>1145.6315911099</ele>
        <time>2021-01-27T12:27:43Z</time>
      </trkpt>
      <trkpt lat="43.82724" lon="7.45188">
        <ele>1145.6315911099</ele>
        <time>2021-01-27T12:27:45Z</time>
      </trkpt>
      <trkpt lat="43.82726" lon="7.45186">
        <ele>1146.6314699801</ele>
        <time>2021-01-27T12:27:46Z</time>
      </trkpt>
      <trkpt lat="43.82726" lon="7.45185">
        <ele>1146.6314272141</ele>
        <time>2021-01-27T12:27:47Z</time>
      </trkpt>
      <trkpt lat="43.82728" lon="7.45185">
        <ele>1147.6313536292</ele>
        <time>2021-01-27T12:27:49Z</time>
      </trkpt>
      <trkpt lat="43.82729" lon="7.45184">
        <ele>1147.6312798276</ele>
        <time>2021-01-27T12:27:50Z</time>
      </trkpt>
      <trkpt lat="43.8273" lon="7.45183">
        <ele>1147.6312103104</ele>
        <time>2021-01-27T12:27:51Z</time>
      </trkpt>
      <trkpt lat="43.82731" lon="7.45182">
        <ele>1147.6311677228</ele>
        <time>2021-01-27T12:27:52Z</time>
      </trkpt>
      <trkpt lat="43.82732" lon="7.45181">
        <ele>1148.6311004578</ele>
        <time>2021-01-27T12:27:53Z</time>
      </trkpt>
      <trkpt lat="43.82733" lon="7.45181">
        <ele>1148.6310432994</ele>
        <time>2021-01-27T12:27:54Z</time>
      </trkpt>
      <trkpt lat="43.82734" lon="7.4518">
        <ele>1148.6310039662</ele>
        <time>2021-01-27T12:27:55Z</time>
      </trkpt>
      <trkpt lat="43.82735" lon="7.4518">
        <ele>1147.6309587509</ele>
        <time>2021-01-27T12:27:56Z</time>
      </trkpt>
      <trkpt lat="43.82737" lon="7.45178">
        <ele>1148.6308292337</ele>
        <time>2021-01-27T12:27:58Z</time>
      </trkpt>
      <trkpt lat="43.82739" lon="7.45176">
        <ele>1148.6307214737</ele>
        <time>2021-01-27T12:28:00Z</time>
      </trkpt>
      <trkpt lat="43.8274" lon="7.45175">
        <ele>1149.6306615484</ele>
        <time>2021-01-27T12:28:01Z</time>
      </trkpt>
      <trkpt lat="43.8274" lon="7.45175">
        <ele>1149.6306615484</ele>
        <time>2021-01-27T12:28:02Z</time>
      </trkpt>
      <trkpt lat="43.82742" lon="7.45173">
        <ele>1149.6305459084</ele>
        <time>2021-01-27T12:28:04Z</time>
      </trkpt>
      <trkpt lat="43.82743" lon="7.45173">
        <ele>1149.630492547</ele>
        <time>2021-01-27T12:28:05Z</time>
      </trkpt>
      <trkpt lat="43.82744" lon="7.45172">
        <ele>1149.6304432026</ele>
        <time>2021-01-27T12:28:06Z</time>
      </trkpt>
      <trkpt lat="43.82744" lon="7.45171">
        <ele>1149.6304004533</ele>
        <time>2021-01-27T12:28:08Z</time>
      </trkpt>
      <trkpt lat="43.82746" lon="7.4517">
        <ele>1150.6302871414</ele>
        <time>2021-01-27T12:28:10Z</time>
      </trkpt>
      <trkpt lat="43.82747" lon="7.45169">
        <ele>1150.6302290611</ele>
        <time>2021-01-27T12:28:11Z</time>
      </trkpt>
      <trkpt lat="43.82748" lon="7.45169">
        <ele>1150.6301632631</ele>
        <time>2021-01-27T12:28:12Z</time>
      </trkpt>
      <trkpt lat="43.82749" lon="7.45168">
        <ele>1150.6301254532</ele>
        <time>2021-01-27T12:28:13Z</time>
      </trkpt>
      <trkpt lat="43.8275" lon="7.45168">
        <ele>1150.6300795447</ele>
        <time>2021-01-27T12:28:14Z</time>
      </trkpt>
      <trkpt lat="43.82751" lon="7.45167">
        <ele>1150.6300119515</ele>
        <time>2021-01-27T12:28:15Z</time>
      </trkpt>
      <trkpt lat="43.82753" lon="7.45166">
        <ele>1149.629940859</ele>
        <time>2021-01-27T12:28:16Z</time>
      </trkpt>
      <trkpt lat="43.82755" lon="7.45165">
        <ele>1149.6298183357</ele>
        <time>2021-01-27T12:28:18Z</time>
      </trkpt>
      <trkpt lat="43.82756" lon="7.45165">
        <ele>1149.6297772449</ele>
        <time>2021-01-27T12:28:21Z</time>
      </trkpt>
      <trkpt lat="43.82758" lon="7.45163">
        <ele>1148.6296432748</ele>
        <time>2021-01-27T12:28:22Z</time>
      </trkpt>
      <trkpt lat="43.82759" lon="7.45162">
        <ele>1148.6295890535</ele>
        <time>2021-01-27T12:28:23Z</time>
      </trkpt>
      <trkpt lat="43.8276" lon="7.45162">
        <ele>1149.6295355582</ele>
        <time>2021-01-27T12:28:24Z</time>
      </trkpt>
      <trkpt lat="43.82761" lon="7.4516">
        <ele>1149.6294778015</ele>
        <time>2021-01-27T12:28:25Z</time>
      </trkpt>
      <trkpt lat="43.82761" lon="7.4516">
        <ele>1149.6294778015</ele>
        <time>2021-01-27T12:28:26Z</time>
      </trkpt>
      <trkpt lat="43.82763" lon="7.45158">
        <ele>1150.629334054</ele>
        <time>2021-01-27T12:28:28Z</time>
      </trkpt>
      <trkpt lat="43.82764" lon="7.45157">
        <ele>1150.6292672519</ele>
        <time>2021-01-27T12:28:29Z</time>
      </trkpt>
      <trkpt lat="43.82765" lon="7.45156">
        <ele>1150.6292027259</ele>
        <time>2021-01-27T12:28:30Z</time>
      </trkpt>
      <trkpt lat="43.82766" lon="7.45155">
        <ele>1150.6291525666</ele>
        <time>2021-01-27T12:28:31Z</time>
      </trkpt>
      <trkpt lat="43.82767" lon="7.45155">
        <ele>1149.6291135105</ele>
        <time>2021-01-27T12:28:32Z</time>
      </trkpt>
      <trkpt lat="43.82768" lon="7.45154">
        <ele>1150.6290695128</ele>
        <time>2021-01-27T12:28:33Z</time>
      </trkpt>
      <trkpt lat="43.82769" lon="7.45151">
        <ele>1150.628953411</ele>
        <time>2021-01-27T12:28:35Z</time>
      </trkpt>
      <trkpt lat="43.82769" lon="7.4515">
        <ele>1150.6289421471</ele>
        <time>2021-01-27T12:28:36Z</time>
      </trkpt>
      <trkpt lat="43.82769" lon="7.45149">
        <ele>1150.6289346645</ele>
        <time>2021-01-27T12:28:37Z</time>
      </trkpt>
      <trkpt lat="43.8277" lon="7.45148">
        <ele>1151.6288918009</ele>
        <time>2021-01-27T12:28:38Z</time>
      </trkpt>
      <trkpt lat="43.82771" lon="7.45147">
        <ele>1151.6288397709</ele>
        <time>2021-01-27T12:28:39Z</time>
      </trkpt>
      <trkpt lat="43.82771" lon="7.45146">
        <ele>1151.6287994912</ele>
        <time>2021-01-27T12:28:40Z</time>
      </trkpt>
      <trkpt lat="43.82771" lon="7.45146">
        <ele>1151.6287994912</ele>
        <time>2021-01-27T12:28:41Z</time>
      </trkpt>
      <trkpt lat="43.82773" lon="7.45143">
        <ele>1152.6286661636</ele>
        <time>2021-01-27T12:28:43Z</time>
      </trkpt>
      <trkpt lat="43.82776" lon="7.4514">
        <ele>1152.6285205909</ele>
        <time>2021-01-27T12:28:45Z</time>
      </trkpt>
      <trkpt lat="43.82777" lon="7.45139">
        <ele>1151.6284380336</ele>
        <time>2021-01-27T12:28:46Z</time>
      </trkpt>
      <trkpt lat="43.82778" lon="7.45138">
        <ele>1151.6283744448</ele>
        <time>2021-01-27T12:28:47Z</time>
      </trkpt>
      <trkpt lat="43.8278" lon="7.45137">
        <ele>1151.628256965</ele>
        <time>2021-01-27T12:28:49Z</time>
      </trkpt>
      <trkpt lat="43.82781" lon="7.45137">
        <ele>1152.6282196405</ele>
        <time>2021-01-27T12:28:50Z</time>
      </trkpt>
      <trkpt lat="43.82782" lon="7.45136">
        <ele>1152.6281754217</ele>
        <time>2021-01-27T12:28:51Z</time>
      </trkpt>
      <trkpt lat="43.82783" lon="7.45134">
        <ele>1151.6280712987</ele>
        <time>2021-01-27T12:28:53Z</time>
      </trkpt>
      <trkpt lat="43.82785" lon="7.45132">
        <ele>1152.6279773957</ele>
        <time>2021-01-27T12:28:55Z</time>
      </trkpt>
      <trkpt lat="43.82785" lon="7.45131">
        <ele>1151.6279350525</ele>
        <time>2021-01-27T12:28:56Z</time>
      </trkpt>
      <trkpt lat="43.82786" lon="7.4513">
        <ele>1151.6279081062</ele>
        <time>2021-01-27T12:28:57Z</time>
      </trkpt>
      <trkpt lat="43.82786" lon="7.45127">
        <ele>1151.6278383009</ele>
        <time>2021-01-27T12:28:59Z</time>
      </trkpt>
      <trkpt lat="43.82787" lon="7.45125">
        <ele>1151.6277927572</ele>
        <time>2021-01-27T12:29:00Z</time>
      </trkpt>
      <trkpt lat="43.82788" lon="7.45124">
        <ele>1152.6277320242</ele>
        <time>2021-01-27T12:29:01Z</time>
      </trkpt>
      <trkpt lat="43.82789" lon="7.45123">
        <ele>1152.6276580225</ele>
        <time>2021-01-27T12:29:02Z</time>
      </trkpt>
      <trkpt lat="43.8279" lon="7.45122">
        <ele>1151.6276021607</ele>
        <time>2021-01-27T12:29:03Z</time>
      </trkpt>
      <trkpt lat="43.8279" lon="7.4512">
        <ele>1151.6275603934</ele>
        <time>2021-01-27T12:29:04Z</time>
      </trkpt>
      <trkpt lat="43.82791" lon="7.45119">
        <ele>1151.6275137509</ele>
        <time>2021-01-27T12:29:05Z</time>
      </trkpt>
      <trkpt lat="43.82792" lon="7.45118">
        <ele>1151.6274613491</ele>
        <time>2021-01-27T12:29:06Z</time>
      </trkpt>
      <trkpt lat="43.82793" lon="7.45116">
        <ele>1151.6273641402</ele>
        <time>2021-01-27T12:29:08Z</time>
      </trkpt>
      <trkpt lat="43.82794" lon="7.45115">
        <ele>1151.627316058</ele>
        <time>2021-01-27T12:29:09Z</time>
      </trkpt>
      <trkpt lat="43.82795" lon="7.45113">
        <ele>1151.6272752238</ele>
        <time>2021-01-27T12:29:10Z</time>
      </trkpt>
      <trkpt lat="43.82795" lon="7.45112">
        <ele>1150.6272277907</ele>
        <time>2021-01-27T12:29:11Z</time>
      </trkpt>
      <trkpt lat="43.82796" lon="7.45112">
        <ele>1151.6271817401</ele>
        <time>2021-01-27T12:29:12Z</time>
      </trkpt>
      <trkpt lat="43.82798" lon="7.4511">
        <ele>1151.6270814335</ele>
        <time>2021-01-27T12:29:14Z</time>
      </trkpt>
      <trkpt lat="43.82799" lon="7.45109">
        <ele>1151.6270290675</ele>
        <time>2021-01-27T12:29:15Z</time>
      </trkpt>
      <trkpt lat="43.82799" lon="7.45108">
        <ele>1152.62697201</ele>
        <time>2021-01-27T12:29:16Z</time>
      </trkpt>
      <trkpt lat="43.82801" lon="7.45107">
        <ele>1151.6269136268</ele>
        <time>2021-01-27T12:29:17Z</time>
      </trkpt>
      <trkpt lat="43.82801" lon="7.45107">
        <ele>1152.6268649935</ele>
        <time>2021-01-27T12:29:18Z</time>
      </trkpt>
      <trkpt lat="43.82801" lon="7.45106">
        <ele>1152.6268575212</ele>
        <time>2021-01-27T12:29:19Z</time>
      </trkpt>
      <trkpt lat="43.82801" lon="7.45105">
        <ele>1152.6268762572</ele>
        <time>2021-01-27T12:29:20Z</time>
      </trkpt>
      <trkpt lat="43.828" lon="7.45105">
        <ele>1152.6269269199</ele>
        <time>2021-01-27T12:29:21Z</time>
      </trkpt>
      <trkpt lat="43.828" lon="7.45105">
        <ele>1152.6269262576</ele>
        <time>2021-01-27T12:29:23Z</time>
      </trkpt>
      <trkpt lat="43.828" lon="7.45103">
        <ele>1152.6268979108</ele>
        <time>2021-01-27T12:29:25Z</time>
      </trkpt>
      <trkpt lat="43.828" lon="7.45102">
        <ele>1152.6268589731</ele>
        <time>2021-01-27T12:29:26Z</time>
      </trkpt>
      <trkpt lat="43.82801" lon="7.451">
        <ele>1152.6268124845</ele>
        <time>2021-01-27T12:29:27Z</time>
      </trkpt>
      <trkpt lat="43.82802" lon="7.45099">
        <ele>1152.6267265908</ele>
        <time>2021-01-27T12:29:29Z</time>
      </trkpt>
      <trkpt lat="43.82803" lon="7.45099">
        <ele>1152.6266702913</ele>
        <time>2021-01-27T12:29:30Z</time>
      </trkpt>
      <trkpt lat="43.82804" lon="7.45098">
        <ele>1152.6266305198</ele>
        <time>2021-01-27T12:29:31Z</time>
      </trkpt>
      <trkpt lat="43.82805" lon="7.45098">
        <ele>1152.6265729791</ele>
        <time>2021-01-27T12:29:33Z</time>
      </trkpt>
      <trkpt lat="43.82806" lon="7.45097">
        <ele>1152.626506025</ele>
        <time>2021-01-27T12:29:35Z</time>
      </trkpt>
      <trkpt lat="43.82806" lon="7.45097">
        <ele>1152.626506025</ele>
        <time>2021-01-27T12:29:37Z</time>
      </trkpt>
      <trkpt lat="43.82809" lon="7.45093">
        <ele>1153.626340895</ele>
        <time>2021-01-27T12:29:39Z</time>
      </trkpt>
      <trkpt lat="43.8281" lon="7.45092">
        <ele>1154.6262815406</ele>
        <time>2021-01-27T12:29:40Z</time>
      </trkpt>
      <trkpt lat="43.82811" lon="7.45092">
        <ele>1154.6262180164</ele>
        <time>2021-01-27T12:29:41Z</time>
      </trkpt>
      <trkpt lat="43.82813" lon="7.4509">
        <ele>1154.6261100246</ele>
        <time>2021-01-27T12:29:43Z</time>
      </trkpt>
      <trkpt lat="43.82815" lon="7.45089">
        <ele>1155.6260130138</ele>
        <time>2021-01-27T12:29:45Z</time>
      </trkpt>
      <trkpt lat="43.82815" lon="7.45088">
        <ele>1154.6259663199</ele>
        <time>2021-01-27T12:29:46Z</time>
      </trkpt>
      <trkpt lat="43.82816" lon="7.45087">
        <ele>1154.6259345033</ele>
        <time>2021-01-27T12:29:47Z</time>
      </trkpt>
      <trkpt lat="43.82816" lon="7.45087">
        <ele>1154.6259096739</ele>
        <time>2021-01-27T12:29:48Z</time>
      </trkpt>
      <trkpt lat="43.82817" lon="7.45087">
        <ele>1154.6258749971</ele>
        <time>2021-01-27T12:29:51Z</time>
      </trkpt>
      <trkpt lat="43.82819" lon="7.45085">
        <ele>1155.6257502126</ele>
        <time>2021-01-27T12:29:52Z</time>
      </trkpt>
      <trkpt lat="43.8282" lon="7.45084">
        <ele>1155.6257076756</ele>
        <time>2021-01-27T12:29:53Z</time>
      </trkpt>
      <trkpt lat="43.8282" lon="7.45083">
        <ele>1156.6256722858</ele>
        <time>2021-01-27T12:29:54Z</time>
      </trkpt>
      <trkpt lat="43.82821" lon="7.45082">
        <ele>1156.6256211608</ele>
        <time>2021-01-27T12:29:55Z</time>
      </trkpt>
      <trkpt lat="43.82822" lon="7.45082">
        <ele>1155.6255737857</ele>
        <time>2021-01-27T12:29:56Z</time>
      </trkpt>
      <trkpt lat="43.82822" lon="7.45081">
        <ele>1155.6255363793</ele>
        <time>2021-01-27T12:29:57Z</time>
      </trkpt>
      <trkpt lat="43.82823" lon="7.4508">
        <ele>1155.6255016751</ele>
        <time>2021-01-27T12:29:58Z</time>
      </trkpt>
      <trkpt lat="43.82825" lon="7.45077">
        <ele>1154.6253586774</ele>
        <time>2021-01-27T12:30:00Z</time>
      </trkpt>
      <trkpt lat="43.82826" lon="7.45076">
        <ele>1154.6252915399</ele>
        <time>2021-01-27T12:30:01Z</time>
      </trkpt>
      <trkpt lat="43.82827" lon="7.45075">
        <ele>1154.6252401118</ele>
        <time>2021-01-27T12:30:02Z</time>
      </trkpt>
      <trkpt lat="43.82828" lon="7.45074">
        <ele>1154.625190345</ele>
        <time>2021-01-27T12:30:03Z</time>
      </trkpt>
      <trkpt lat="43.82828" lon="7.45073">
        <ele>1154.625143595</ele>
        <time>2021-01-27T12:30:04Z</time>
      </trkpt>
      <trkpt lat="43.8283" lon="7.45072">
        <ele>1154.6250813009</ele>
        <time>2021-01-27T12:30:05Z</time>
      </trkpt>
      <trkpt lat="43.82831" lon="7.45071">
        <ele>1153.6250203224</ele>
        <time>2021-01-27T12:30:06Z</time>
      </trkpt>
      <trkpt lat="43.82831" lon="7.4507">
        <ele>1153.6249842511</ele>
        <time>2021-01-27T12:30:07Z</time>
      </trkpt>
      <trkpt lat="43.82833" lon="7.45069">
        <ele>1153.6248752699</ele>
        <time>2021-01-27T12:30:09Z</time>
      </trkpt>
      <trkpt lat="43.82834" lon="7.45067">
        <ele>1153.6248107596</ele>
        <time>2021-01-27T12:30:10Z</time>
      </trkpt>
      <trkpt lat="43.82835" lon="7.45066">
        <ele>1153.6247547804</ele>
        <time>2021-01-27T12:30:11Z</time>
      </trkpt>
      <trkpt lat="43.82837" lon="7.45064">
        <ele>1153.6246448162</ele>
        <time>2021-01-27T12:30:13Z</time>
      </trkpt>
      <trkpt lat="43.82838" lon="7.45062">
        <ele>1154.6245512899</ele>
        <time>2021-01-27T12:30:15Z</time>
      </trkpt>
      <trkpt lat="43.82839" lon="7.45061">
        <ele>1154.6245069173</ele>
        <time>2021-01-27T12:30:16Z</time>
      </trkpt>
      <trkpt lat="43.8284" lon="7.45059">
        <ele>1154.6244446763</ele>
        <time>2021-01-27T12:30:17Z</time>
      </trkpt>
      <trkpt lat="43.82841" lon="7.45057">
        <ele>1155.6243529076</ele>
        <time>2021-01-27T12:30:19Z</time>
      </trkpt>
      <trkpt lat="43.82842" lon="7.45056">
        <ele>1156.6242992996</ele>
        <time>2021-01-27T12:30:20Z</time>
      </trkpt>
      <trkpt lat="43.82843" lon="7.45055">
        <ele>1156.6242396266</ele>
        <time>2021-01-27T12:30:21Z</time>
      </trkpt>
      <trkpt lat="43.82844" lon="7.45053">
        <ele>1157.6241327781</ele>
        <time>2021-01-27T12:30:23Z</time>
      </trkpt>
      <trkpt lat="43.82845" lon="7.45052">
        <ele>1157.6240947553</ele>
        <time>2021-01-27T12:30:24Z</time>
      </trkpt>
      <trkpt lat="43.82846" lon="7.45051">
        <ele>1157.6240562048</ele>
        <time>2021-01-27T12:30:25Z</time>
      </trkpt>
      <trkpt lat="43.82846" lon="7.4505">
        <ele>1157.6240161692</ele>
        <time>2021-01-27T12:30:26Z</time>
      </trkpt>
      <trkpt lat="43.82846" lon="7.4505">
        <ele>1157.6240161692</ele>
        <time>2021-01-27T12:30:28Z</time>
      </trkpt>
      <trkpt lat="43.82848" lon="7.45046">
        <ele>1157.623885302</ele>
        <time>2021-01-27T12:30:29Z</time>
      </trkpt>
      <trkpt lat="43.82849" lon="7.45045">
        <ele>1158.6238160195</ele>
        <time>2021-01-27T12:30:30Z</time>
      </trkpt>
      <trkpt lat="43.8285" lon="7.45044">
        <ele>1158.6237539657</ele>
        <time>2021-01-27T12:30:31Z</time>
      </trkpt>
      <trkpt lat="43.82851" lon="7.45043">
        <ele>1159.6237014331</ele>
        <time>2021-01-27T12:30:32Z</time>
      </trkpt>
      <trkpt lat="43.82852" lon="7.45042">
        <ele>1159.6236505904</ele>
        <time>2021-01-27T12:30:33Z</time>
      </trkpt>
      <trkpt lat="43.82853" lon="7.45041">
        <ele>1159.6235900744</ele>
        <time>2021-01-27T12:30:34Z</time>
      </trkpt>
      <trkpt lat="43.82854" lon="7.4504">
        <ele>1160.6235221977</ele>
        <time>2021-01-27T12:30:35Z</time>
      </trkpt>
      <trkpt lat="43.82855" lon="7.45039">
        <ele>1160.6234545102</ele>
        <time>2021-01-27T12:30:36Z</time>
      </trkpt>
      <trkpt lat="43.82856" lon="7.45038">
        <ele>1160.6233772511</ele>
        <time>2021-01-27T12:30:37Z</time>
      </trkpt>
      <trkpt lat="43.82857" lon="7.45036">
        <ele>1159.6233192241</ele>
        <time>2021-01-27T12:30:38Z</time>
      </trkpt>
      <trkpt lat="43.82857" lon="7.45035">
        <ele>1160.6232891328</ele>
        <time>2021-01-27T12:30:39Z</time>
      </trkpt>
      <trkpt lat="43.82858" lon="7.45034">
        <ele>1160.6232498614</ele>
        <time>2021-01-27T12:30:40Z</time>
      </trkpt>
      <trkpt lat="43.82859" lon="7.45033">
        <ele>1160.6232133158</ele>
        <time>2021-01-27T12:30:41Z</time>
      </trkpt>
      <trkpt lat="43.82859" lon="7.45032">
        <ele>1160.623182429</ele>
        <time>2021-01-27T12:30:42Z</time>
      </trkpt>
      <trkpt lat="43.82859" lon="7.45031">
        <ele>1160.6231445046</ele>
        <time>2021-01-27T12:30:43Z</time>
      </trkpt>
      <trkpt lat="43.82859" lon="7.45031">
        <ele>1160.6231445046</ele>
        <time>2021-01-27T12:30:44Z</time>
      </trkpt>
      <trkpt lat="43.8286" lon="7.45029">
        <ele>1161.6230733316</ele>
        <time>2021-01-27T12:30:45Z</time>
      </trkpt>
      <trkpt lat="43.82861" lon="7.45027">
        <ele>1161.6230319092</ele>
        <time>2021-01-27T12:30:46Z</time>
      </trkpt>
      <trkpt lat="43.82862" lon="7.45025">
        <ele>1161.6229535294</ele>
        <time>2021-01-27T12:30:48Z</time>
      </trkpt>
      <trkpt lat="43.82864" lon="7.45022">
        <ele>1161.6228218858</ele>
        <time>2021-01-27T12:30:50Z</time>
      </trkpt>
      <trkpt lat="43.82865" lon="7.45021">
        <ele>1162.6227484805</ele>
        <time>2021-01-27T12:30:51Z</time>
      </trkpt>
      <trkpt lat="43.82866" lon="7.45019">
        <ele>1162.6226925438</ele>
        <time>2021-01-27T12:30:52Z</time>
      </trkpt>
      <trkpt lat="43.82866" lon="7.45018">
        <ele>1162.622642832</ele>
        <time>2021-01-27T12:30:53Z</time>
      </trkpt>
      <trkpt lat="43.82867" lon="7.45017">
        <ele>1162.6226009143</ele>
        <time>2021-01-27T12:30:54Z</time>
      </trkpt>
      <trkpt lat="43.82868" lon="7.45016">
        <ele>1162.6225579435</ele>
        <time>2021-01-27T12:30:55Z</time>
      </trkpt>
      <trkpt lat="43.82868" lon="7.45015">
        <ele>1162.6225177758</ele>
        <time>2021-01-27T12:30:56Z</time>
      </trkpt>
      <trkpt lat="43.82869" lon="7.45012">
        <ele>1162.6224326118</ele>
        <time>2021-01-27T12:30:58Z</time>
      </trkpt>
      <trkpt lat="43.8287" lon="7.4501">
        <ele>1163.6223493487</ele>
        <time>2021-01-27T12:31:00Z</time>
      </trkpt>
      <trkpt lat="43.82871" lon="7.45008">
        <ele>1163.6222844367</ele>
        <time>2021-01-27T12:31:01Z</time>
      </trkpt>
      <trkpt lat="43.82872" lon="7.45007">
        <ele>1163.6222274733</ele>
        <time>2021-01-27T12:31:02Z</time>
      </trkpt>
      <trkpt lat="43.82873" lon="7.45005">
        <ele>1164.6221547991</ele>
        <time>2021-01-27T12:31:04Z</time>
      </trkpt>
      <trkpt lat="43.82874" lon="7.45004">
        <ele>1165.6221176856</ele>
        <time>2021-01-27T12:31:05Z</time>
      </trkpt>
      <trkpt lat="43.82874" lon="7.45003">
        <ele>1165.6220731328</ele>
        <time>2021-01-27T12:31:06Z</time>
      </trkpt>
      <trkpt lat="43.82876" lon="7.45001">
        <ele>1165.6219806162</ele>
        <time>2021-01-27T12:31:08Z</time>
      </trkpt>
      <trkpt lat="43.82877" lon="7.45">
        <ele>1166.6218838587</ele>
        <time>2021-01-27T12:31:10Z</time>
      </trkpt>
      <trkpt lat="43.82878" lon="7.44999">
        <ele>1166.6218549079</ele>
        <time>2021-01-27T12:31:11Z</time>
      </trkpt>
      <trkpt lat="43.82878" lon="7.44998">
        <ele>1166.6218171942</ele>
        <time>2021-01-27T12:31:12Z</time>
      </trkpt>
      <trkpt lat="43.8288" lon="7.44996">
        <ele>1167.6217292907</ele>
        <time>2021-01-27T12:31:14Z</time>
      </trkpt>
      <trkpt lat="43.8288" lon="7.44995">
        <ele>1167.6216820564</ele>
        <time>2021-01-27T12:31:15Z</time>
      </trkpt>
      <trkpt lat="43.82881" lon="7.44993">
        <ele>1167.6216258746</ele>
        <time>2021-01-27T12:31:16Z</time>
      </trkpt>
      <trkpt lat="43.82882" lon="7.44992">
        <ele>1167.6215638675</ele>
        <time>2021-01-27T12:31:17Z</time>
      </trkpt>
      <trkpt lat="43.82883" lon="7.44988">
        <ele>1168.6214668473</ele>
        <time>2021-01-27T12:31:19Z</time>
      </trkpt>
      <trkpt lat="43.82884" lon="7.44987">
        <ele>1168.6214224661</ele>
        <time>2021-01-27T12:31:20Z</time>
      </trkpt>
      <trkpt lat="43.82885" lon="7.44985">
        <ele>1168.6213582259</ele>
        <time>2021-01-27T12:31:21Z</time>
      </trkpt>
      <trkpt lat="43.82885" lon="7.44984">
        <ele>1170.6213222817</ele>
        <time>2021-01-27T12:31:24Z</time>
      </trkpt>
      <trkpt lat="43.82887" lon="7.44981">
        <ele>1170.6211732608</ele>
        <time>2021-01-27T12:31:26Z</time>
      </trkpt>
      <trkpt lat="43.82888" lon="7.4498">
        <ele>1171.6211428873</ele>
        <time>2021-01-27T12:31:36Z</time>
      </trkpt>
      <trkpt lat="43.82887" lon="7.44976">
        <ele>1174.621109239</ele>
        <time>2021-01-27T12:31:37Z</time>
      </trkpt>
      <trkpt lat="43.82887" lon="7.44976">
        <ele>1174.6211096212</ele>
        <time>2021-01-27T12:31:38Z</time>
      </trkpt>
      <trkpt lat="43.82887" lon="7.44974">
        <ele>1174.6210968094</ele>
        <time>2021-01-27T12:31:39Z</time>
      </trkpt>
      <trkpt lat="43.82887" lon="7.44973">
        <ele>1175.6210873356</ele>
        <time>2021-01-27T12:31:40Z</time>
      </trkpt>
      <trkpt lat="43.82887" lon="7.44973">
        <ele>1175.6210873356</ele>
        <time>2021-01-27T12:31:42Z</time>
      </trkpt>
      <trkpt lat="43.82886" lon="7.44971">
        <ele>1175.6210900842</ele>
        <time>2021-01-27T12:31:43Z</time>
      </trkpt>
      <trkpt lat="43.82887" lon="7.44969">
        <ele>1176.6210364028</ele>
        <time>2021-01-27T12:31:45Z</time>
      </trkpt>
      <trkpt lat="43.82888" lon="7.44968">
        <ele>1176.620993255</ele>
        <time>2021-01-27T12:31:46Z</time>
      </trkpt>
      <trkpt lat="43.82889" lon="7.44968">
        <ele>1176.6209459141</ele>
        <time>2021-01-27T12:31:48Z</time>
      </trkpt>
      <trkpt lat="43.82889" lon="7.44967">
        <ele>1177.6209149669</ele>
        <time>2021-01-27T12:31:49Z</time>
      </trkpt>
      <trkpt lat="43.82889" lon="7.44967">
        <ele>1177.6208859306</ele>
        <time>2021-01-27T12:31:50Z</time>
      </trkpt>
      <trkpt lat="43.8289" lon="7.44966">
        <ele>1177.6208637233</ele>
        <time>2021-01-27T12:31:53Z</time>
      </trkpt>
      <trkpt lat="43.8289" lon="7.44967">
        <ele>1175.6208537799</ele>
        <time>2021-01-27T12:31:56Z</time>
      </trkpt>
      <trkpt lat="43.8289" lon="7.44967">
        <ele>1176.6208615283</ele>
        <time>2021-01-27T12:31:57Z</time>
      </trkpt>
      <trkpt lat="43.82891" lon="7.44964">
        <ele>1177.6207855879</ele>
        <time>2021-01-27T12:32:00Z</time>
      </trkpt>
      <trkpt lat="43.82891" lon="7.44964">
        <ele>1178.6207640131</ele>
        <time>2021-01-27T12:32:06Z</time>
      </trkpt>
      <trkpt lat="43.82891" lon="7.44962">
        <ele>1180.620771507</ele>
        <time>2021-01-27T12:32:07Z</time>
      </trkpt>
      <trkpt lat="43.82891" lon="7.44962">
        <ele>1180.6207711486</ele>
        <time>2021-01-27T12:32:18Z</time>
      </trkpt>
      <trkpt lat="43.82889" lon="7.44962">
        <ele>1181.6208645568</ele>
        <time>2021-01-27T12:32:20Z</time>
      </trkpt>
      <trkpt lat="43.82888" lon="7.44962">
        <ele>1181.6208753989</ele>
        <time>2021-01-27T12:32:33Z</time>
      </trkpt>
      <trkpt lat="43.82888" lon="7.44962">
        <ele>1180.6209113155</ele>
        <time>2021-01-27T12:32:37Z</time>
      </trkpt>
      <trkpt lat="43.82888" lon="7.44962">
        <ele>1182.6209178638</ele>
        <time>2021-01-27T12:33:33Z</time>
      </trkpt>
      <trkpt lat="43.82887" lon="7.44962">
        <ele>1181.6209600405</ele>
        <time>2021-01-27T12:33:35Z</time>
      </trkpt>
      <trkpt lat="43.82887" lon="7.44962">
        <ele>1181.6209590748</ele>
        <time>2021-01-27T12:33:41Z</time>
      </trkpt>
      <trkpt lat="43.82888" lon="7.44961">
        <ele>1182.6208899269</ele>
        <time>2021-01-27T12:33:43Z</time>
      </trkpt>
      <trkpt lat="43.82888" lon="7.4496">
        <ele>1181.6208530158</ele>
        <time>2021-01-27T12:33:45Z</time>
      </trkpt>
      <trkpt lat="43.82889" lon="7.44959">
        <ele>1181.6208185188</ele>
        <time>2021-01-27T12:33:46Z</time>
      </trkpt>
      <trkpt lat="43.8289" lon="7.44958">
        <ele>1181.6207550868</ele>
        <time>2021-01-27T12:33:47Z</time>
      </trkpt>
      <trkpt lat="43.82891" lon="7.44956">
        <ele>1181.6206945017</ele>
        <time>2021-01-27T12:33:48Z</time>
      </trkpt>
      <trkpt lat="43.82892" lon="7.44955">
        <ele>1181.6206182022</ele>
        <time>2021-01-27T12:33:49Z</time>
      </trkpt>
      <trkpt lat="43.82894" lon="7.44954">
        <ele>1181.6205303039</ele>
        <time>2021-01-27T12:33:50Z</time>
      </trkpt>
      <trkpt lat="43.82895" lon="7.44953">
        <ele>1181.6204443032</ele>
        <time>2021-01-27T12:33:51Z</time>
      </trkpt>
      <trkpt lat="43.82897" lon="7.44952">
        <ele>1180.6203608732</ele>
        <time>2021-01-27T12:33:52Z</time>
      </trkpt>
      <trkpt lat="43.82898" lon="7.4495">
        <ele>1180.6202816154</ele>
        <time>2021-01-27T12:33:54Z</time>
      </trkpt>
      <trkpt lat="43.82899" lon="7.44949">
        <ele>1179.6202252847</ele>
        <time>2021-01-27T12:33:55Z</time>
      </trkpt>
      <trkpt lat="43.829" lon="7.44949">
        <ele>1179.6201617256</ele>
        <time>2021-01-27T12:33:56Z</time>
      </trkpt>
      <trkpt lat="43.82901" lon="7.44947">
        <ele>1179.6200778011</ele>
        <time>2021-01-27T12:33:58Z</time>
      </trkpt>
      <trkpt lat="43.82902" lon="7.44946">
        <ele>1178.6200337116</ele>
        <time>2021-01-27T12:33:59Z</time>
      </trkpt>
      <trkpt lat="43.82902" lon="7.44944">
        <ele>1178.6199855822</ele>
        <time>2021-01-27T12:34:00Z</time>
      </trkpt>
      <trkpt lat="43.82903" lon="7.44943">
        <ele>1178.6199478994</ele>
        <time>2021-01-27T12:34:01Z</time>
      </trkpt>
      <trkpt lat="43.82903" lon="7.44942">
        <ele>1178.6199170553</ele>
        <time>2021-01-27T12:34:02Z</time>
      </trkpt>
      <trkpt lat="43.82904" lon="7.4494">
        <ele>1177.6198591133</ele>
        <time>2021-01-27T12:34:04Z</time>
      </trkpt>
      <trkpt lat="43.82904" lon="7.44939">
        <ele>1176.6198271691</ele>
        <time>2021-01-27T12:34:05Z</time>
      </trkpt>
      <trkpt lat="43.82904" lon="7.44938">
        <ele>1176.6198112756</ele>
        <time>2021-01-27T12:34:08Z</time>
      </trkpt>
      <trkpt lat="43.82906" lon="7.44934">
        <ele>1173.6197023042</ele>
        <time>2021-01-27T12:34:10Z</time>
      </trkpt>
      <trkpt lat="43.82906" lon="7.44932">
        <ele>1173.6196607156</ele>
        <time>2021-01-27T12:34:11Z</time>
      </trkpt>
      <trkpt lat="43.82906" lon="7.44931">
        <ele>1173.6196162151</ele>
        <time>2021-01-27T12:34:12Z</time>
      </trkpt>
      <trkpt lat="43.82907" lon="7.44928">
        <ele>1172.6195438131</ele>
        <time>2021-01-27T12:34:14Z</time>
      </trkpt>
      <trkpt lat="43.82908" lon="7.44927">
        <ele>1172.6195072925</ele>
        <time>2021-01-27T12:34:15Z</time>
      </trkpt>
      <trkpt lat="43.82908" lon="7.44926">
        <ele>1172.6194711126</ele>
        <time>2021-01-27T12:34:16Z</time>
      </trkpt>
      <trkpt lat="43.82909" lon="7.44924">
        <ele>1171.6194259199</ele>
        <time>2021-01-27T12:34:17Z</time>
      </trkpt>
      <trkpt lat="43.82909" lon="7.44923">
        <ele>1171.6193770944</ele>
        <time>2021-01-27T12:34:18Z</time>
      </trkpt>
      <trkpt lat="43.8291" lon="7.44922">
        <ele>1171.61932865</ele>
        <time>2021-01-27T12:34:19Z</time>
      </trkpt>
      <trkpt lat="43.82911" lon="7.4492">
        <ele>1170.6192774626</ele>
        <time>2021-01-27T12:34:20Z</time>
      </trkpt>
      <trkpt lat="43.82911" lon="7.44918">
        <ele>1170.6192377407</ele>
        <time>2021-01-27T12:34:21Z</time>
      </trkpt>
      <trkpt lat="43.82913" lon="7.44915">
        <ele>1169.6191152464</ele>
        <time>2021-01-27T12:34:23Z</time>
      </trkpt>
      <trkpt lat="43.82913" lon="7.44914">
        <ele>1169.6190797364</ele>
        <time>2021-01-27T12:34:24Z</time>
      </trkpt>
      <trkpt lat="43.82914" lon="7.44913">
        <ele>1169.6190380999</ele>
        <time>2021-01-27T12:34:25Z</time>
      </trkpt>
      <trkpt lat="43.82914" lon="7.44912">
        <ele>1169.6189936787</ele>
        <time>2021-01-27T12:34:26Z</time>
      </trkpt>
      <trkpt lat="43.82915" lon="7.4491">
        <ele>1169.618956861</ele>
        <time>2021-01-27T12:34:27Z</time>
      </trkpt>
      <trkpt lat="43.82915" lon="7.44908">
        <ele>1168.6188963097</ele>
        <time>2021-01-27T12:34:29Z</time>
      </trkpt>
      <trkpt lat="43.82915" lon="7.44906">
        <ele>1168.6188712756</ele>
        <time>2021-01-27T12:34:30Z</time>
      </trkpt>
      <trkpt lat="43.82916" lon="7.44905">
        <ele>1167.6188531537</ele>
        <time>2021-01-27T12:34:32Z</time>
      </trkpt>
      <trkpt lat="43.82915" lon="7.44903">
        <ele>1167.6188367935</ele>
        <time>2021-01-27T12:34:33Z</time>
      </trkpt>
      <trkpt lat="43.82915" lon="7.44901">
        <ele>1167.6188467795</ele>
        <time>2021-01-27T12:34:34Z</time>
      </trkpt>
      <trkpt lat="43.82914" lon="7.449">
        <ele>1167.6188390497</ele>
        <time>2021-01-27T12:34:35Z</time>
      </trkpt>
      <trkpt lat="43.82914" lon="7.44898">
        <ele>1168.618821521</ele>
        <time>2021-01-27T12:34:36Z</time>
      </trkpt>
      <trkpt lat="43.82914" lon="7.44896">
        <ele>1169.618801552</ele>
        <time>2021-01-27T12:34:38Z</time>
      </trkpt>
      <trkpt lat="43.82914" lon="7.44895">
        <ele>1169.618803987</ele>
        <time>2021-01-27T12:34:39Z</time>
      </trkpt>
      <trkpt lat="43.82913" lon="7.44894">
        <ele>1170.6188343082</ele>
        <time>2021-01-27T12:34:40Z</time>
      </trkpt>
      <trkpt lat="43.82912" lon="7.44894">
        <ele>1170.618867092</ele>
        <time>2021-01-27T12:34:41Z</time>
      </trkpt>
      <trkpt lat="43.82912" lon="7.44893">
        <ele>1170.6188961323</ele>
        <time>2021-01-27T12:34:42Z</time>
      </trkpt>
      <trkpt lat="43.82911" lon="7.44892">
        <ele>1170.6189310116</ele>
        <time>2021-01-27T12:34:43Z</time>
      </trkpt>
      <trkpt lat="43.82909" lon="7.4489">
        <ele>1171.618991399</ele>
        <time>2021-01-27T12:34:45Z</time>
      </trkpt>
      <trkpt lat="43.82908" lon="7.44889">
        <ele>1171.61902781</ele>
        <time>2021-01-27T12:34:46Z</time>
      </trkpt>
      <trkpt lat="43.82907" lon="7.44889">
        <ele>1170.6190571429</ele>
        <time>2021-01-27T12:34:47Z</time>
      </trkpt>
      <trkpt lat="43.82907" lon="7.44889">
        <ele>1170.6190571429</ele>
        <time>2021-01-27T12:34:49Z</time>
      </trkpt>
      <trkpt lat="43.82905" lon="7.44886">
        <ele>1170.6191293603</ele>
        <time>2021-01-27T12:34:50Z</time>
      </trkpt>
      <trkpt lat="43.82904" lon="7.44886">
        <ele>1171.619143198</ele>
        <time>2021-01-27T12:34:51Z</time>
      </trkpt>
      <trkpt lat="43.82904" lon="7.44885">
        <ele>1171.6191621563</ele>
        <time>2021-01-27T12:34:52Z</time>
      </trkpt>
      <trkpt lat="43.82903" lon="7.44884">
        <ele>1172.6191770317</ele>
        <time>2021-01-27T12:34:55Z</time>
      </trkpt>
      <trkpt lat="43.82902" lon="7.44882">
        <ele>1173.6192310357</ele>
        <time>2021-01-27T12:34:56Z</time>
      </trkpt>
      <trkpt lat="43.82901" lon="7.44881">
        <ele>1173.6192462009</ele>
        <time>2021-01-27T12:34:58Z</time>
      </trkpt>
      <trkpt lat="43.82899" lon="7.44879">
        <ele>1175.6193264453</ele>
        <time>2021-01-27T12:35:01Z</time>
      </trkpt>
      <trkpt lat="43.82898" lon="7.44879">
        <ele>1175.6193565079</ele>
        <time>2021-01-27T12:35:03Z</time>
      </trkpt>
      <trkpt lat="43.82898" lon="7.44878">
        <ele>1176.6193782481</ele>
        <time>2021-01-27T12:35:06Z</time>
      </trkpt>
      <trkpt lat="43.82894" lon="7.44876">
        <ele>1176.6195197429</ele>
        <time>2021-01-27T12:35:09Z</time>
      </trkpt>
      <trkpt lat="43.82894" lon="7.44875">
        <ele>1176.6195326795</ele>
        <time>2021-01-27T12:35:10Z</time>
      </trkpt>
      <trkpt lat="43.82893" lon="7.44875">
        <ele>1177.6195737317</ele>
        <time>2021-01-27T12:35:11Z</time>
      </trkpt>
      <trkpt lat="43.82892" lon="7.44875">
        <ele>1177.6196263779</ele>
        <time>2021-01-27T12:35:12Z</time>
      </trkpt>
      <trkpt lat="43.82892" lon="7.44875">
        <ele>1177.6196263779</ele>
        <time>2021-01-27T12:35:13Z</time>
      </trkpt>
      <trkpt lat="43.8289" lon="7.44874">
        <ele>1178.6196773015</ele>
        <time>2021-01-27T12:35:15Z</time>
      </trkpt>
      <trkpt lat="43.8289" lon="7.44873">
        <ele>1178.619696724</ele>
        <time>2021-01-27T12:35:16Z</time>
      </trkpt>
      <trkpt lat="43.82889" lon="7.44873">
        <ele>1178.6197191194</ele>
        <time>2021-01-27T12:35:17Z</time>
      </trkpt>
      <trkpt lat="43.82889" lon="7.44872">
        <ele>1178.6197354747</ele>
        <time>2021-01-27T12:35:20Z</time>
      </trkpt>
      <trkpt lat="43.82888" lon="7.44872">
        <ele>1179.6197630116</ele>
        <time>2021-01-27T12:35:21Z</time>
      </trkpt>
      <trkpt lat="43.82888" lon="7.44871">
        <ele>1179.6197644084</ele>
        <time>2021-01-27T12:35:22Z</time>
      </trkpt>
      <trkpt lat="43.82887" lon="7.44871">
        <ele>1179.61980618</ele>
        <time>2021-01-27T12:35:23Z</time>
      </trkpt>
      <trkpt lat="43.82886" lon="7.44871">
        <ele>1179.6198318201</ele>
        <time>2021-01-27T12:35:24Z</time>
      </trkpt>
      <trkpt lat="43.82885" lon="7.4487">
        <ele>1179.6198644685</ele>
        <time>2021-01-27T12:35:25Z</time>
      </trkpt>
      <trkpt lat="43.82885" lon="7.4487">
        <ele>1180.6198700343</ele>
        <time>2021-01-27T12:35:26Z</time>
      </trkpt>
      <trkpt lat="43.82885" lon="7.44869">
        <ele>1180.619871652</ele>
        <time>2021-01-27T12:35:28Z</time>
      </trkpt>
      <trkpt lat="43.82885" lon="7.44869">
        <ele>1182.6198567839</ele>
        <time>2021-01-27T12:35:32Z</time>
      </trkpt>
      <trkpt lat="43.82884" lon="7.44868">
        <ele>1183.6198968439</ele>
        <time>2021-01-27T12:35:34Z</time>
      </trkpt>
      <trkpt lat="43.82884" lon="7.44868">
        <ele>1183.6198968439</ele>
        <time>2021-01-27T12:35:35Z</time>
      </trkpt>
      <trkpt lat="43.82883" lon="7.44868">
        <ele>1183.6199516957</ele>
        <time>2021-01-27T12:35:36Z</time>
      </trkpt>
      <trkpt lat="43.82883" lon="7.44868">
        <ele>1183.6199614719</ele>
        <time>2021-01-27T12:35:37Z</time>
      </trkpt>
      <trkpt lat="43.82882" lon="7.44867">
        <ele>1182.6199907031</ele>
        <time>2021-01-27T12:35:38Z</time>
      </trkpt>
      <trkpt lat="43.82882" lon="7.44866">
        <ele>1183.6199633829</ele>
        <time>2021-01-27T12:35:42Z</time>
      </trkpt>
      <trkpt lat="43.82883" lon="7.44865">
        <ele>1183.6199201477</ele>
        <time>2021-01-27T12:35:44Z</time>
      </trkpt>
      <trkpt lat="43.82882" lon="7.44864">
        <ele>1184.6199372547</ele>
        <time>2021-01-27T12:35:50Z</time>
      </trkpt>
      <trkpt lat="43.82881" lon="7.44862">
        <ele>1185.6199508473</ele>
        <time>2021-01-27T12:35:53Z</time>
      </trkpt>
      <trkpt lat="43.82881" lon="7.44862">
        <ele>1185.6199720867</ele>
        <time>2021-01-27T12:35:56Z</time>
      </trkpt>
      <trkpt lat="43.82879" lon="7.44861">
        <ele>1185.6200298275</ele>
        <time>2021-01-27T12:35:59Z</time>
      </trkpt>
      <trkpt lat="43.82879" lon="7.4486">
        <ele>1185.6200438822</ele>
        <time>2021-01-27T12:36:02Z</time>
      </trkpt>
      <trkpt lat="43.82877" lon="7.44859">
        <ele>1186.6201104427</ele>
        <time>2021-01-27T12:36:03Z</time>
      </trkpt>
      <trkpt lat="43.82877" lon="7.44859">
        <ele>1188.6201373608</ele>
        <time>2021-01-27T12:36:09Z</time>
      </trkpt>
      <trkpt lat="43.82876" lon="7.44857">
        <ele>1188.6201370841</ele>
        <time>2021-01-27T12:36:10Z</time>
      </trkpt>
      <trkpt lat="43.82876" lon="7.44857">
        <ele>1189.6201518511</ele>
        <time>2021-01-27T12:36:11Z</time>
      </trkpt>
      <trkpt lat="43.82875" lon="7.44856">
        <ele>1189.6201627459</ele>
        <time>2021-01-27T12:36:12Z</time>
      </trkpt>
      <trkpt lat="43.82876" lon="7.44854">
        <ele>1189.6201245185</ele>
        <time>2021-01-27T12:36:14Z</time>
      </trkpt>
      <trkpt lat="43.82876" lon="7.44853">
        <ele>1189.6200900771</ele>
        <time>2021-01-27T12:36:15Z</time>
      </trkpt>
      <trkpt lat="43.82877" lon="7.44852">
        <ele>1189.6200662211</ele>
        <time>2021-01-27T12:36:16Z</time>
      </trkpt>
      <trkpt lat="43.82878" lon="7.44851">
        <ele>1188.6200062809</ele>
        <time>2021-01-27T12:36:18Z</time>
      </trkpt>
      <trkpt lat="43.82878" lon="7.4485">
        <ele>1187.6199689779</ele>
        <time>2021-01-27T12:36:20Z</time>
      </trkpt>
      <trkpt lat="43.82878" lon="7.44849">
        <ele>1187.619952945</ele>
        <time>2021-01-27T12:36:21Z</time>
      </trkpt>
      <trkpt lat="43.82878" lon="7.44848">
        <ele>1187.6199413416</ele>
        <time>2021-01-27T12:36:22Z</time>
      </trkpt>
      <trkpt lat="43.82878" lon="7.44847">
        <ele>1187.6199294923</ele>
        <time>2021-01-27T12:36:24Z</time>
      </trkpt>
      <trkpt lat="43.82878" lon="7.44847">
        <ele>1187.6199294923</ele>
        <time>2021-01-27T12:36:29Z</time>
      </trkpt>
      <trkpt lat="43.82877" lon="7.44845">
        <ele>1187.619947512</ele>
        <time>2021-01-27T12:36:30Z</time>
      </trkpt>
      <trkpt lat="43.82877" lon="7.44845">
        <ele>1189.6199704036</ele>
        <time>2021-01-27T12:36:31Z</time>
      </trkpt>
      <trkpt lat="43.82876" lon="7.44844">
        <ele>1190.6199815494</ele>
        <time>2021-01-27T12:36:32Z</time>
      </trkpt>
      <trkpt lat="43.82876" lon="7.44843">
        <ele>1190.6199712286</ele>
        <time>2021-01-27T12:36:35Z</time>
      </trkpt>
      <trkpt lat="43.82876" lon="7.44841">
        <ele>1191.6199394829</ele>
        <time>2021-01-27T12:36:36Z</time>
      </trkpt>
      <trkpt lat="43.82877" lon="7.4484">
        <ele>1191.6199119077</ele>
        <time>2021-01-27T12:36:37Z</time>
      </trkpt>
      <trkpt lat="43.82877" lon="7.44839">
        <ele>1191.6198878674</ele>
        <time>2021-01-27T12:36:39Z</time>
      </trkpt>
      <trkpt lat="43.82877" lon="7.44839">
        <ele>1191.6198878674</ele>
        <time>2021-01-27T12:36:41Z</time>
      </trkpt>
      <trkpt lat="43.82877" lon="7.44837">
        <ele>1191.6198641489</ele>
        <time>2021-01-27T12:36:42Z</time>
      </trkpt>
      <trkpt lat="43.82877" lon="7.44835">
        <ele>1191.6198448767</ele>
        <time>2021-01-27T12:36:43Z</time>
      </trkpt>
      <trkpt lat="43.82877" lon="7.44835">
        <ele>1191.6198355516</ele>
        <time>2021-01-27T12:36:44Z</time>
      </trkpt>
      <trkpt lat="43.82877" lon="7.44833">
        <ele>1191.6198208775</ele>
        <time>2021-01-27T12:36:47Z</time>
      </trkpt>
      <trkpt lat="43.82877" lon="7.44829">
        <ele>1191.6197680766</ele>
        <time>2021-01-27T12:36:50Z</time>
      </trkpt>
      <trkpt lat="43.82876" lon="7.44828">
        <ele>1191.619779865</ele>
        <time>2021-01-27T12:36:53Z</time>
      </trkpt>
      <trkpt lat="43.82876" lon="7.44825">
        <ele>1191.6197330077</ele>
        <time>2021-01-27T12:36:54Z</time>
      </trkpt>
      <trkpt lat="43.82876" lon="7.44825">
        <ele>1190.6197236066</ele>
        <time>2021-01-27T12:36:55Z</time>
      </trkpt>
      <trkpt lat="43.82877" lon="7.44823">
        <ele>1190.6196997648</ele>
        <time>2021-01-27T12:36:56Z</time>
      </trkpt>
      <trkpt lat="43.82877" lon="7.44822">
        <ele>1191.6196700388</ele>
        <time>2021-01-27T12:36:58Z</time>
      </trkpt>
      <trkpt lat="43.82879" lon="7.44818">
        <ele>1190.6195141826</ele>
        <time>2021-01-27T12:37:01Z</time>
      </trkpt>
      <trkpt lat="43.82879" lon="7.44818">
        <ele>1190.6194960397</ele>
        <time>2021-01-27T12:37:02Z</time>
      </trkpt>
      <trkpt lat="43.82879" lon="7.44816">
        <ele>1191.6195027596</ele>
        <time>2021-01-27T12:37:04Z</time>
      </trkpt>
      <trkpt lat="43.82878" lon="7.44816">
        <ele>1191.6195253467</ele>
        <time>2021-01-27T12:37:05Z</time>
      </trkpt>
      <trkpt lat="43.82878" lon="7.44816">
        <ele>1191.6195405423</ele>
        <time>2021-01-27T12:37:06Z</time>
      </trkpt>
      <trkpt lat="43.82878" lon="7.44813">
        <ele>1192.6195148749</ele>
        <time>2021-01-27T12:37:08Z</time>
      </trkpt>
      <trkpt lat="43.82878" lon="7.4481">
        <ele>1192.6194744747</ele>
        <time>2021-01-27T12:37:10Z</time>
      </trkpt>
      <trkpt lat="43.82878" lon="7.4481">
        <ele>1192.6194744747</ele>
        <time>2021-01-27T12:37:12Z</time>
      </trkpt>
      <trkpt lat="43.82878" lon="7.44806">
        <ele>1191.6194148652</ele>
        <time>2021-01-27T12:37:13Z</time>
      </trkpt>
      <trkpt lat="43.82877" lon="7.44806">
        <ele>1191.6194455861</ele>
        <time>2021-01-27T12:37:15Z</time>
      </trkpt>
      <trkpt lat="43.82877" lon="7.44805">
        <ele>1191.619454618</ele>
        <time>2021-01-27T12:37:16Z</time>
      </trkpt>
      <trkpt lat="43.82877" lon="7.44805">
        <ele>1192.6194675062</ele>
        <time>2021-01-27T12:37:17Z</time>
      </trkpt>
      <trkpt lat="43.82876" lon="7.44804">
        <ele>1193.6194826574</ele>
        <time>2021-01-27T12:37:20Z</time>
      </trkpt>
      <trkpt lat="43.82875" lon="7.44802">
        <ele>1194.6195016895</ele>
        <time>2021-01-27T12:37:21Z</time>
      </trkpt>
      <trkpt lat="43.82875" lon="7.44801">
        <ele>1194.6195074088</ele>
        <time>2021-01-27T12:37:22Z</time>
      </trkpt>
      <trkpt lat="43.82875" lon="7.44799">
        <ele>1194.6194845953</ele>
        <time>2021-01-27T12:37:23Z</time>
      </trkpt>
      <trkpt lat="43.82875" lon="7.44799">
        <ele>1193.6194505512</ele>
        <time>2021-01-27T12:37:24Z</time>
      </trkpt>
      <trkpt lat="43.82876" lon="7.44798">
        <ele>1193.6194255855</ele>
        <time>2021-01-27T12:37:25Z</time>
      </trkpt>
      <trkpt lat="43.82876" lon="7.44796">
        <ele>1193.6193998547</ele>
        <time>2021-01-27T12:37:26Z</time>
      </trkpt>
      <trkpt lat="43.82876" lon="7.44795">
        <ele>1194.6193806194</ele>
        <time>2021-01-27T12:37:27Z</time>
      </trkpt>
      <trkpt lat="43.82875" lon="7.44794">
        <ele>1193.6193804258</ele>
        <time>2021-01-27T12:37:28Z</time>
      </trkpt>
      <trkpt lat="43.82875" lon="7.44793">
        <ele>1194.6193826611</ele>
        <time>2021-01-27T12:37:29Z</time>
      </trkpt>
      <trkpt lat="43.82875" lon="7.44792">
        <ele>1193.6193712131</ele>
        <time>2021-01-27T12:37:31Z</time>
      </trkpt>
      <trkpt lat="43.82874" lon="7.4479">
        <ele>1194.6194087337</ele>
        <time>2021-01-27T12:37:33Z</time>
      </trkpt>
      <trkpt lat="43.82873" lon="7.44788">
        <ele>1194.6194360751</ele>
        <time>2021-01-27T12:37:35Z</time>
      </trkpt>
      <trkpt lat="43.82872" lon="7.44786">
        <ele>1194.619457194</ele>
        <time>2021-01-27T12:37:36Z</time>
      </trkpt>
      <trkpt lat="43.82872" lon="7.44784">
        <ele>1195.6194348559</ele>
        <time>2021-01-27T12:37:37Z</time>
      </trkpt>
      <trkpt lat="43.82872" lon="7.44783">
        <ele>1195.6194212764</ele>
        <time>2021-01-27T12:37:38Z</time>
      </trkpt>
      <trkpt lat="43.82872" lon="7.44781">
        <ele>1194.6194119802</ele>
        <time>2021-01-27T12:37:39Z</time>
      </trkpt>
      <trkpt lat="43.82871" lon="7.44781">
        <ele>1194.6194158958</ele>
        <time>2021-01-27T12:37:42Z</time>
      </trkpt>
      <trkpt lat="43.8287" lon="7.44777">
        <ele>1194.6194094955</ele>
        <time>2021-01-27T12:37:44Z</time>
      </trkpt>
      <trkpt lat="43.8287" lon="7.44776">
        <ele>1195.6194139041</ele>
        <time>2021-01-27T12:37:45Z</time>
      </trkpt>
      <trkpt lat="43.8287" lon="7.44775">
        <ele>1195.6194177729</ele>
        <time>2021-01-27T12:37:46Z</time>
      </trkpt>
      <trkpt lat="43.82869" lon="7.44774">
        <ele>1195.619446416</ele>
        <time>2021-01-27T12:37:48Z</time>
      </trkpt>
      <trkpt lat="43.82869" lon="7.44774">
        <ele>1195.619446416</ele>
        <time>2021-01-27T12:37:50Z</time>
      </trkpt>
      <trkpt lat="43.82867" lon="7.44774">
        <ele>1196.6195202991</ele>
        <time>2021-01-27T12:37:51Z</time>
      </trkpt>
      <trkpt lat="43.82867" lon="7.44774">
        <ele>1196.619542172</ele>
        <time>2021-01-27T12:37:52Z</time>
      </trkpt>
      <trkpt lat="43.82865" lon="7.44773">
        <ele>1197.6196093254</ele>
        <time>2021-01-27T12:37:54Z</time>
      </trkpt>
      <trkpt lat="43.82865" lon="7.44773">
        <ele>1197.6196093254</ele>
        <time>2021-01-27T12:37:56Z</time>
      </trkpt>
      <trkpt lat="43.82862" lon="7.44772">
        <ele>1198.6197515395</ele>
        <time>2021-01-27T12:37:58Z</time>
      </trkpt>
      <trkpt lat="43.82862" lon="7.44769">
        <ele>1199.6197368712</ele>
        <time>2021-01-27T12:38:00Z</time>
      </trkpt>
      <trkpt lat="43.82862" lon="7.44769">
        <ele>1199.6197368712</ele>
        <time>2021-01-27T12:38:02Z</time>
      </trkpt>
      <trkpt lat="43.8286" lon="7.44767">
        <ele>1199.6198001346</ele>
        <time>2021-01-27T12:38:04Z</time>
      </trkpt>
      <trkpt lat="43.82859" lon="7.44766">
        <ele>1200.6198100208</ele>
        <time>2021-01-27T12:38:05Z</time>
      </trkpt>
      <trkpt lat="43.82859" lon="7.44766">
        <ele>1200.6198381276</ele>
        <time>2021-01-27T12:38:08Z</time>
      </trkpt>
      <trkpt lat="43.82857" lon="7.44764">
        <ele>1200.6198807529</ele>
        <time>2021-01-27T12:38:09Z</time>
      </trkpt>
      <trkpt lat="43.82857" lon="7.44764">
        <ele>1201.6198980627</ele>
        <time>2021-01-27T12:38:10Z</time>
      </trkpt>
      <trkpt lat="43.82857" lon="7.44763">
        <ele>1201.6199117556</ele>
        <time>2021-01-27T12:38:11Z</time>
      </trkpt>
      <trkpt lat="43.82856" lon="7.44762">
        <ele>1201.6199277268</ele>
        <time>2021-01-27T12:38:13Z</time>
      </trkpt>
      <trkpt lat="43.82855" lon="7.44761">
        <ele>1201.6199426423</ele>
        <time>2021-01-27T12:38:14Z</time>
      </trkpt>
      <trkpt lat="43.82855" lon="7.44761">
        <ele>1202.6199569357</ele>
        <time>2021-01-27T12:38:15Z</time>
      </trkpt>
      <trkpt lat="43.82855" lon="7.44761">
        <ele>1203.6199710159</ele>
        <time>2021-01-27T12:38:18Z</time>
      </trkpt>
      <trkpt lat="43.82853" lon="7.44758">
        <ele>1202.6199974389</ele>
        <time>2021-01-27T12:38:19Z</time>
      </trkpt>
      <trkpt lat="43.82853" lon="7.44758">
        <ele>1202.620013326</ele>
        <time>2021-01-27T12:38:20Z</time>
      </trkpt>
      <trkpt lat="43.82852" lon="7.44757">
        <ele>1202.6200304416</ele>
        <time>2021-01-27T12:38:21Z</time>
      </trkpt>
      <trkpt lat="43.82852" lon="7.44757">
        <ele>1202.6200474411</ele>
        <time>2021-01-27T12:38:24Z</time>
      </trkpt>
      <trkpt lat="43.82851" lon="7.44756">
        <ele>1204.6200952091</ele>
        <time>2021-01-27T12:38:25Z</time>
      </trkpt>
      <trkpt lat="43.82851" lon="7.44755">
        <ele>1204.620093686</ele>
        <time>2021-01-27T12:38:26Z</time>
      </trkpt>
      <trkpt lat="43.82851" lon="7.44754">
        <ele>1204.6200857355</ele>
        <time>2021-01-27T12:38:27Z</time>
      </trkpt>
      <trkpt lat="43.82851" lon="7.44753">
        <ele>1204.6200517864</ele>
        <time>2021-01-27T12:38:28Z</time>
      </trkpt>
      <trkpt lat="43.82851" lon="7.44753">
        <ele>1204.6200517864</ele>
        <time>2021-01-27T12:38:30Z</time>
      </trkpt>
      <trkpt lat="43.8285" lon="7.4475">
        <ele>1204.6200489364</ele>
        <time>2021-01-27T12:38:31Z</time>
      </trkpt>
      <trkpt lat="43.8285" lon="7.44749">
        <ele>1203.6200692845</ele>
        <time>2021-01-27T12:38:32Z</time>
      </trkpt>
      <trkpt lat="43.82848" lon="7.44747">
        <ele>1203.6201076178</ele>
        <time>2021-01-27T12:38:34Z</time>
      </trkpt>
      <trkpt lat="43.82848" lon="7.44747">
        <ele>1203.6201076178</ele>
        <time>2021-01-27T12:38:36Z</time>
      </trkpt>
      <trkpt lat="43.82847" lon="7.44745">
        <ele>1204.620157194</ele>
        <time>2021-01-27T12:38:38Z</time>
      </trkpt>
      <trkpt lat="43.82847" lon="7.44744">
        <ele>1205.6201518936</ele>
        <time>2021-01-27T12:38:42Z</time>
      </trkpt>
      <trkpt lat="43.82846" lon="7.44743">
        <ele>1204.6201860719</ele>
        <time>2021-01-27T12:38:44Z</time>
      </trkpt>
      <trkpt lat="43.82844" lon="7.44742">
        <ele>1205.6202366303</ele>
        <time>2021-01-27T12:38:45Z</time>
      </trkpt>
      <trkpt lat="43.82843" lon="7.4474">
        <ele>1206.6202841727</ele>
        <time>2021-01-27T12:38:46Z</time>
      </trkpt>
      <trkpt lat="43.82841" lon="7.44739">
        <ele>1206.6203618881</ele>
        <time>2021-01-27T12:38:48Z</time>
      </trkpt>
      <trkpt lat="43.8284" lon="7.44738">
        <ele>1206.6203824345</ele>
        <time>2021-01-27T12:38:51Z</time>
      </trkpt>
      <trkpt lat="43.82839" lon="7.44737">
        <ele>1206.6204196446</ele>
        <time>2021-01-27T12:38:52Z</time>
      </trkpt>
      <trkpt lat="43.82839" lon="7.44736">
        <ele>1206.6204415566</ele>
        <time>2021-01-27T12:38:53Z</time>
      </trkpt>
      <trkpt lat="43.82838" lon="7.44736">
        <ele>1206.6204740861</ele>
        <time>2021-01-27T12:38:54Z</time>
      </trkpt>
      <trkpt lat="43.82838" lon="7.44735">
        <ele>1206.6204770272</ele>
        <time>2021-01-27T12:38:57Z</time>
      </trkpt>
      <trkpt lat="43.82835" lon="7.44732">
        <ele>1205.6205487486</ele>
        <time>2021-01-27T12:38:59Z</time>
      </trkpt>
      <trkpt lat="43.82834" lon="7.44731">
        <ele>1205.6205773352</ele>
        <time>2021-01-27T12:39:00Z</time>
      </trkpt>
      <trkpt lat="43.82834" lon="7.4473">
        <ele>1205.6205959858</ele>
        <time>2021-01-27T12:39:01Z</time>
      </trkpt>
      <trkpt lat="43.82833" lon="7.44729">
        <ele>1205.6206353034</ele>
        <time>2021-01-27T12:39:02Z</time>
      </trkpt>
      <trkpt lat="43.82833" lon="7.44729">
        <ele>1205.6206353034</ele>
        <time>2021-01-27T12:39:03Z</time>
      </trkpt>
      <trkpt lat="43.82831" lon="7.44726">
        <ele>1206.6206760921</ele>
        <time>2021-01-27T12:39:05Z</time>
      </trkpt>
      <trkpt lat="43.82831" lon="7.44725">
        <ele>1206.6206958723</ele>
        <time>2021-01-27T12:39:06Z</time>
      </trkpt>
      <trkpt lat="43.8283" lon="7.44724">
        <ele>1206.6207181817</ele>
        <time>2021-01-27T12:39:07Z</time>
      </trkpt>
      <trkpt lat="43.82829" lon="7.44724">
        <ele>1205.6207370977</ele>
        <time>2021-01-27T12:39:10Z</time>
      </trkpt>
      <trkpt lat="43.82828" lon="7.44722">
        <ele>1207.6207785884</ele>
        <time>2021-01-27T12:39:11Z</time>
      </trkpt>
      <trkpt lat="43.82827" lon="7.44722">
        <ele>1207.6208020152</ele>
        <time>2021-01-27T12:39:12Z</time>
      </trkpt>
      <trkpt lat="43.82827" lon="7.44722">
        <ele>1207.6208350884</ele>
        <time>2021-01-27T12:39:13Z</time>
      </trkpt>
      <trkpt lat="43.82826" lon="7.44722">
        <ele>1208.6208639067</ele>
        <time>2021-01-27T12:39:15Z</time>
      </trkpt>
      <trkpt lat="43.82826" lon="7.44722">
        <ele>1209.6208893701</ele>
        <time>2021-01-27T12:39:16Z</time>
      </trkpt>
      <trkpt lat="43.82825" lon="7.44722">
        <ele>1209.6209096323</ele>
        <time>2021-01-27T12:39:17Z</time>
      </trkpt>
      <trkpt lat="43.82825" lon="7.44721">
        <ele>1209.6209268221</ele>
        <time>2021-01-27T12:39:18Z</time>
      </trkpt>
      <trkpt lat="43.82824" lon="7.4472">
        <ele>1209.6209512672</ele>
        <time>2021-01-27T12:39:21Z</time>
      </trkpt>
      <trkpt lat="43.82823" lon="7.44719">
        <ele>1211.6209928222</ele>
        <time>2021-01-27T12:39:22Z</time>
      </trkpt>
      <trkpt lat="43.82822" lon="7.44719">
        <ele>1212.6210224268</ele>
        <time>2021-01-27T12:39:23Z</time>
      </trkpt>
      <trkpt lat="43.82821" lon="7.44719">
        <ele>1212.6210512744</ele>
        <time>2021-01-27T12:39:24Z</time>
      </trkpt>
      <trkpt lat="43.82821" lon="7.44719">
        <ele>1212.6210918003</ele>
        <time>2021-01-27T12:39:27Z</time>
      </trkpt>
      <trkpt lat="43.82818" lon="7.44717">
        <ele>1213.6211886171</ele>
        <time>2021-01-27T12:39:29Z</time>
      </trkpt>
      <trkpt lat="43.82818" lon="7.44718">
        <ele>1214.6212146101</ele>
        <time>2021-01-27T12:39:30Z</time>
      </trkpt>
      <trkpt lat="43.82817" lon="7.44718">
        <ele>1214.6212623968</ele>
        <time>2021-01-27T12:39:31Z</time>
      </trkpt>
      <trkpt lat="43.82816" lon="7.44719">
        <ele>1214.6213149033</ele>
        <time>2021-01-27T12:39:32Z</time>
      </trkpt>
      <trkpt lat="43.82815" lon="7.44719">
        <ele>1214.6213491405</ele>
        <time>2021-01-27T12:39:33Z</time>
      </trkpt>
      <trkpt lat="43.82815" lon="7.44719">
        <ele>1215.6213707884</ele>
        <time>2021-01-27T12:39:37Z</time>
      </trkpt>
      <trkpt lat="43.82814" lon="7.44717">
        <ele>1215.6214111914</ele>
        <time>2021-01-27T12:39:38Z</time>
      </trkpt>
      <trkpt lat="43.82814" lon="7.44716">
        <ele>1215.6213962795</ele>
        <time>2021-01-27T12:39:39Z</time>
      </trkpt>
      <trkpt lat="43.82813" lon="7.44715">
        <ele>1215.6214061755</ele>
        <time>2021-01-27T12:39:40Z</time>
      </trkpt>
      <trkpt lat="43.82812" lon="7.44714">
        <ele>1215.6214326317</ele>
        <time>2021-01-27T12:39:43Z</time>
      </trkpt>
      <trkpt lat="43.8281" lon="7.44713">
        <ele>1216.6215235781</ele>
        <time>2021-01-27T12:39:44Z</time>
      </trkpt>
      <trkpt lat="43.82809" lon="7.44713">
        <ele>1217.6215573515</ele>
        <time>2021-01-27T12:39:45Z</time>
      </trkpt>
      <trkpt lat="43.82808" lon="7.44712">
        <ele>1217.6215983954</ele>
        <time>2021-01-27T12:39:46Z</time>
      </trkpt>
      <trkpt lat="43.82808" lon="7.44712">
        <ele>1217.6216398432</ele>
        <time>2021-01-27T12:39:47Z</time>
      </trkpt>
      <trkpt lat="43.82808" lon="7.44712">
        <ele>1217.6216398432</ele>
        <time>2021-01-27T12:39:49Z</time>
      </trkpt>
      <trkpt lat="43.82805" lon="7.44711">
        <ele>1218.6217333223</ele>
        <time>2021-01-27T12:39:50Z</time>
      </trkpt>
      <trkpt lat="43.82804" lon="7.4471">
        <ele>1219.6217686916</ele>
        <time>2021-01-27T12:39:51Z</time>
      </trkpt>
      <trkpt lat="43.82804" lon="7.4471">
        <ele>1219.6218161027</ele>
        <time>2021-01-27T12:39:52Z</time>
      </trkpt>
      <trkpt lat="43.82803" lon="7.44711">
        <ele>1219.6218540162</ele>
        <time>2021-01-27T12:39:53Z</time>
      </trkpt>
      <trkpt lat="43.82802" lon="7.44711">
        <ele>1220.6218866672</ele>
        <time>2021-01-27T12:39:59Z</time>
      </trkpt>
      <trkpt lat="43.82801" lon="7.44712">
        <ele>1220.6219361997</ele>
        <time>2021-01-27T12:40:00Z</time>
      </trkpt>
      <trkpt lat="43.82801" lon="7.44713">
        <ele>1220.6219629403</ele>
        <time>2021-01-27T12:40:01Z</time>
      </trkpt>
      <trkpt lat="43.82801" lon="7.44713">
        <ele>1220.6219816859</ele>
        <time>2021-01-27T12:40:02Z</time>
      </trkpt>
      <trkpt lat="43.82801" lon="7.44714">
        <ele>1220.6220033726</ele>
        <time>2021-01-27T12:40:05Z</time>
      </trkpt>
      <trkpt lat="43.828" lon="7.44716">
        <ele>1221.6220380304</ele>
        <time>2021-01-27T12:40:06Z</time>
      </trkpt>
      <trkpt lat="43.828" lon="7.44717">
        <ele>1221.6220659305</ele>
        <time>2021-01-27T12:40:08Z</time>
      </trkpt>
      <trkpt lat="43.828" lon="7.44717">
        <ele>1221.6220926484</ele>
        <time>2021-01-27T12:40:10Z</time>
      </trkpt>
      <trkpt lat="43.82798" lon="7.44719">
        <ele>1221.6222126929</ele>
        <time>2021-01-27T12:40:11Z</time>
      </trkpt>
      <trkpt lat="43.82797" lon="7.4472">
        <ele>1221.6222540504</ele>
        <time>2021-01-27T12:40:12Z</time>
      </trkpt>
      <trkpt lat="43.82797" lon="7.44721">
        <ele>1222.6222849031</ele>
        <time>2021-01-27T12:40:13Z</time>
      </trkpt>
      <trkpt lat="43.82796" lon="7.44721">
        <ele>1222.6222974829</ele>
        <time>2021-01-27T12:40:14Z</time>
      </trkpt>
      <trkpt lat="43.82797" lon="7.44722">
        <ele>1222.6223028131</ele>
        <time>2021-01-27T12:40:17Z</time>
      </trkpt>
      <trkpt lat="43.82797" lon="7.44725">
        <ele>1221.6223090315</ele>
        <time>2021-01-27T12:40:18Z</time>
      </trkpt>
      <trkpt lat="43.82797" lon="7.44726">
        <ele>1221.6223175441</ele>
        <time>2021-01-27T12:40:19Z</time>
      </trkpt>
      <trkpt lat="43.82797" lon="7.44727">
        <ele>1221.6223314087</ele>
        <time>2021-01-27T12:40:20Z</time>
      </trkpt>
      <trkpt lat="43.82797" lon="7.44729">
        <ele>1222.6223680385</ele>
        <time>2021-01-27T12:40:21Z</time>
      </trkpt>
      <trkpt lat="43.82797" lon="7.44729">
        <ele>1222.6223680385</ele>
        <time>2021-01-27T12:40:23Z</time>
      </trkpt>
      <trkpt lat="43.82795" lon="7.4473">
        <ele>1222.6224595551</ele>
        <time>2021-01-27T12:40:24Z</time>
      </trkpt>
      <trkpt lat="43.82795" lon="7.44732">
        <ele>1223.6224963084</ele>
        <time>2021-01-27T12:40:25Z</time>
      </trkpt>
      <trkpt lat="43.82795" lon="7.44733">
        <ele>1223.6225301507</ele>
        <time>2021-01-27T12:40:26Z</time>
      </trkpt>
      <trkpt lat="43.82794" lon="7.44734">
        <ele>1223.6225669939</ele>
        <time>2021-01-27T12:40:29Z</time>
      </trkpt>
      <trkpt lat="43.82794" lon="7.44736">
        <ele>1224.622624431</ele>
        <time>2021-01-27T12:40:31Z</time>
      </trkpt>
      <trkpt lat="43.82793" lon="7.44737">
        <ele>1225.6226616754</ele>
        <time>2021-01-27T12:40:41Z</time>
      </trkpt>
      <trkpt lat="43.82789" lon="7.44736">
        <ele>1225.6228472035</ele>
        <time>2021-01-27T12:40:43Z</time>
      </trkpt>
      <trkpt lat="43.82788" lon="7.44736">
        <ele>1225.6229064433</ele>
        <time>2021-01-27T12:40:45Z</time>
      </trkpt>
      <trkpt lat="43.82788" lon="7.44736">
        <ele>1225.6229064433</ele>
        <time>2021-01-27T12:40:47Z</time>
      </trkpt>
      <trkpt lat="43.82785" lon="7.44735">
        <ele>1224.6230089451</ele>
        <time>2021-01-27T12:40:49Z</time>
      </trkpt>
      <trkpt lat="43.82784" lon="7.44735">
        <ele>1224.6230471573</ele>
        <time>2021-01-27T12:40:50Z</time>
      </trkpt>
      <trkpt lat="43.82784" lon="7.44735">
        <ele>1224.6230763703</ele>
        <time>2021-01-27T12:40:51Z</time>
      </trkpt>
      <trkpt lat="43.82783" lon="7.44735">
        <ele>1224.6231063654</ele>
        <time>2021-01-27T12:40:54Z</time>
      </trkpt>
      <trkpt lat="43.82783" lon="7.44737">
        <ele>1225.6231613221</ele>
        <time>2021-01-27T12:40:55Z</time>
      </trkpt>
      <trkpt lat="43.82782" lon="7.44737">
        <ele>1226.6231760149</ele>
        <time>2021-01-27T12:40:56Z</time>
      </trkpt>
      <trkpt lat="43.82782" lon="7.44738">
        <ele>1226.6231904641</ele>
        <time>2021-01-27T12:40:57Z</time>
      </trkpt>
      <trkpt lat="43.82782" lon="7.44739">
        <ele>1226.6232054404</ele>
        <time>2021-01-27T12:40:59Z</time>
      </trkpt>
      <trkpt lat="43.82782" lon="7.44741">
        <ele>1227.623227845</ele>
        <time>2021-01-27T12:41:00Z</time>
      </trkpt>
      <trkpt lat="43.82782" lon="7.44742">
        <ele>1227.6232464101</ele>
        <time>2021-01-27T12:41:01Z</time>
      </trkpt>
      <trkpt lat="43.82782" lon="7.44743">
        <ele>1228.6232719773</ele>
        <time>2021-01-27T12:41:02Z</time>
      </trkpt>
      <trkpt lat="43.82782" lon="7.44745">
        <ele>1228.6232878631</ele>
        <time>2021-01-27T12:41:03Z</time>
      </trkpt>
      <trkpt lat="43.82782" lon="7.44745">
        <ele>1228.6233017542</ele>
        <time>2021-01-27T12:41:06Z</time>
      </trkpt>
      <trkpt lat="43.82781" lon="7.44748">
        <ele>1228.623400371</ele>
        <time>2021-01-27T12:41:08Z</time>
      </trkpt>
      <trkpt lat="43.8278" lon="7.44749">
        <ele>1229.6234524482</ele>
        <time>2021-01-27T12:41:09Z</time>
      </trkpt>
      <trkpt lat="43.82779" lon="7.4475">
        <ele>1229.6234978575</ele>
        <time>2021-01-27T12:41:10Z</time>
      </trkpt>
      <trkpt lat="43.82779" lon="7.44751">
        <ele>1229.6235322359</ele>
        <time>2021-01-27T12:41:11Z</time>
      </trkpt>
      <trkpt lat="43.82778" lon="7.44752">
        <ele>1229.623563959</ele>
        <time>2021-01-27T12:41:12Z</time>
      </trkpt>
      <trkpt lat="43.82778" lon="7.44752">
        <ele>1229.6235941688</ele>
        <time>2021-01-27T12:41:15Z</time>
      </trkpt>
      <trkpt lat="43.82776" lon="7.44754">
        <ele>1230.6236820233</ele>
        <time>2021-01-27T12:41:18Z</time>
      </trkpt>
      <trkpt lat="43.82776" lon="7.44754">
        <ele>1230.6236952459</ele>
        <time>2021-01-27T12:41:21Z</time>
      </trkpt>
      <trkpt lat="43.82775" lon="7.44756">
        <ele>1231.6237497203</ele>
        <time>2021-01-27T12:41:22Z</time>
      </trkpt>
      <trkpt lat="43.82775" lon="7.44757">
        <ele>1231.6237656816</ele>
        <time>2021-01-27T12:41:23Z</time>
      </trkpt>
      <trkpt lat="43.82775" lon="7.44758">
        <ele>1231.6237743421</ele>
        <time>2021-01-27T12:41:24Z</time>
      </trkpt>
      <trkpt lat="43.82775" lon="7.44758">
        <ele>1231.6237922265</ele>
        <time>2021-01-27T12:41:26Z</time>
      </trkpt>
      <trkpt lat="43.82774" lon="7.4476">
        <ele>1230.6238441061</ele>
        <time>2021-01-27T12:41:28Z</time>
      </trkpt>
      <trkpt lat="43.82774" lon="7.4476">
        <ele>1231.6238644641</ele>
        <time>2021-01-27T12:41:38Z</time>
      </trkpt>
      <trkpt lat="43.82774" lon="7.44762">
        <ele>1231.6238639843</ele>
        <time>2021-01-27T12:41:39Z</time>
      </trkpt>
      <trkpt lat="43.82774" lon="7.44763">
        <ele>1232.623892948</ele>
        <time>2021-01-27T12:41:40Z</time>
      </trkpt>
      <trkpt lat="43.82774" lon="7.44764">
        <ele>1232.6239163436</ele>
        <time>2021-01-27T12:41:41Z</time>
      </trkpt>
      <trkpt lat="43.82774" lon="7.44766">
        <ele>1232.6239483805</ele>
        <time>2021-01-27T12:41:42Z</time>
      </trkpt>
      <trkpt lat="43.82773" lon="7.44767">
        <ele>1231.6239911663</ele>
        <time>2021-01-27T12:41:43Z</time>
      </trkpt>
      <trkpt lat="43.82773" lon="7.44768">
        <ele>1231.6240274634</ele>
        <time>2021-01-27T12:41:44Z</time>
      </trkpt>
      <trkpt lat="43.82772" lon="7.44769">
        <ele>1231.6240779658</ele>
        <time>2021-01-27T12:41:45Z</time>
      </trkpt>
      <trkpt lat="43.82772" lon="7.4477">
        <ele>1231.6241062212</ele>
        <time>2021-01-27T12:41:46Z</time>
      </trkpt>
      <trkpt lat="43.82771" lon="7.44771">
        <ele>1231.6241663042</ele>
        <time>2021-01-27T12:41:47Z</time>
      </trkpt>
      <trkpt lat="43.8277" lon="7.44773">
        <ele>1232.6242264123</ele>
        <time>2021-01-27T12:41:48Z</time>
      </trkpt>
      <trkpt lat="43.82769" lon="7.44774">
        <ele>1232.6242779699</ele>
        <time>2021-01-27T12:41:49Z</time>
      </trkpt>
      <trkpt lat="43.82768" lon="7.44775">
        <ele>1232.6243423882</ele>
        <time>2021-01-27T12:41:50Z</time>
      </trkpt>
      <trkpt lat="43.82767" lon="7.44775">
        <ele>1232.6244027672</ele>
        <time>2021-01-27T12:41:51Z</time>
      </trkpt>
      <trkpt lat="43.82766" lon="7.44776">
        <ele>1232.6244649054</ele>
        <time>2021-01-27T12:41:52Z</time>
      </trkpt>
      <trkpt lat="43.82765" lon="7.44777">
        <ele>1233.6245119345</ele>
        <time>2021-01-27T12:41:53Z</time>
      </trkpt>
      <trkpt lat="43.82764" lon="7.44777">
        <ele>1233.624563967</ele>
        <time>2021-01-27T12:41:54Z</time>
      </trkpt>
      <trkpt lat="43.82762" lon="7.44778">
        <ele>1232.6246401031</ele>
        <time>2021-01-27T12:41:55Z</time>
      </trkpt>
      <trkpt lat="43.82761" lon="7.44778">
        <ele>1233.6247130335</ele>
        <time>2021-01-27T12:41:56Z</time>
      </trkpt>
      <trkpt lat="43.8276" lon="7.44778">
        <ele>1233.6247845538</ele>
        <time>2021-01-27T12:41:57Z</time>
      </trkpt>
      <trkpt lat="43.82758" lon="7.44778">
        <ele>1233.6248483069</ele>
        <time>2021-01-27T12:41:58Z</time>
      </trkpt>
      <trkpt lat="43.82757" lon="7.44779">
        <ele>1233.6249150863</ele>
        <time>2021-01-27T12:41:59Z</time>
      </trkpt>
      <trkpt lat="43.82756" lon="7.4478">
        <ele>1233.6249772956</ele>
        <time>2021-01-27T12:42:00Z</time>
      </trkpt>
      <trkpt lat="43.82755" lon="7.4478">
        <ele>1233.6250187295</ele>
        <time>2021-01-27T12:42:01Z</time>
      </trkpt>
      <trkpt lat="43.82754" lon="7.44781">
        <ele>1233.6250715945</ele>
        <time>2021-01-27T12:42:02Z</time>
      </trkpt>
      <trkpt lat="43.82753" lon="7.4478">
        <ele>1233.6251259256</ele>
        <time>2021-01-27T12:42:03Z</time>
      </trkpt>
      <trkpt lat="43.82751" lon="7.4478">
        <ele>1234.6252193146</ele>
        <time>2021-01-27T12:42:05Z</time>
      </trkpt>
      <trkpt lat="43.8275" lon="7.4478">
        <ele>1234.6252681774</ele>
        <time>2021-01-27T12:42:06Z</time>
      </trkpt>
      <trkpt lat="43.82749" lon="7.44781">
        <ele>1234.625318012</ele>
        <time>2021-01-27T12:42:07Z</time>
      </trkpt>
      <trkpt lat="43.82748" lon="7.44781">
        <ele>1234.6253840714</ele>
        <time>2021-01-27T12:42:08Z</time>
      </trkpt>
      <trkpt lat="43.82745" lon="7.44781">
        <ele>1234.6255044571</ele>
        <time>2021-01-27T12:42:10Z</time>
      </trkpt>
      <trkpt lat="43.82744" lon="7.44781">
        <ele>1235.6255533878</ele>
        <time>2021-01-27T12:42:11Z</time>
      </trkpt>
      <trkpt lat="43.82743" lon="7.4478">
        <ele>1235.6256015144</ele>
        <time>2021-01-27T12:42:12Z</time>
      </trkpt>
      <trkpt lat="43.82742" lon="7.4478">
        <ele>1235.6256647177</ele>
        <time>2021-01-27T12:42:14Z</time>
      </trkpt>
      <trkpt lat="43.82742" lon="7.44781">
        <ele>1234.6256655264</ele>
        <time>2021-01-27T13:01:28Z</time>
      </trkpt>
      <trkpt lat="43.82742" lon="7.44782">
        <ele>1235.6256912254</ele>
        <time>2021-01-27T13:01:38Z</time>
      </trkpt>
      <trkpt lat="43.82741" lon="7.44783">
        <ele>1235.6257534396</ele>
        <time>2021-01-27T13:01:40Z</time>
      </trkpt>
      <trkpt lat="43.8274" lon="7.44784">
        <ele>1235.6257857534</ele>
        <time>2021-01-27T13:01:43Z</time>
      </trkpt>
      <trkpt lat="43.82741" lon="7.44784">
        <ele>1235.6257740779</ele>
        <time>2021-01-27T13:01:44Z</time>
      </trkpt>
      <trkpt lat="43.82741" lon="7.44785">
        <ele>1235.6257619594</ele>
        <time>2021-01-27T13:01:45Z</time>
      </trkpt>
      <trkpt lat="43.82741" lon="7.44786">
        <ele>1235.6257605013</ele>
        <time>2021-01-27T13:01:46Z</time>
      </trkpt>
      <trkpt lat="43.82741" lon="7.44787">
        <ele>1236.6257838445</ele>
        <time>2021-01-27T13:01:47Z</time>
      </trkpt>
      <trkpt lat="43.82741" lon="7.44788">
        <ele>1236.6258116156</ele>
        <time>2021-01-27T13:01:49Z</time>
      </trkpt>
      <trkpt lat="43.8274" lon="7.44788">
        <ele>1235.6258307126</ele>
        <time>2021-01-27T13:02:22Z</time>
      </trkpt>
      <trkpt lat="43.82739" lon="7.44786">
        <ele>1236.6258649512</ele>
        <time>2021-01-27T13:02:24Z</time>
      </trkpt>
      <trkpt lat="43.8274" lon="7.44786">
        <ele>1235.6258428178</ele>
        <time>2021-01-27T13:02:26Z</time>
      </trkpt>
      <trkpt lat="43.8274" lon="7.44787">
        <ele>1235.6258410969</ele>
        <time>2021-01-27T13:02:27Z</time>
      </trkpt>
      <trkpt lat="43.8274" lon="7.44787">
        <ele>1235.6258222155</ele>
        <time>2021-01-27T13:02:29Z</time>
      </trkpt>
      <trkpt lat="43.82741" lon="7.44786">
        <ele>1235.6257999953</ele>
        <time>2021-01-27T13:02:30Z</time>
      </trkpt>
      <trkpt lat="43.82741" lon="7.44785">
        <ele>1235.6257710516</ele>
        <time>2021-01-27T13:02:31Z</time>
      </trkpt>
      <trkpt lat="43.82741" lon="7.44784">
        <ele>1235.6257395649</ele>
        <time>2021-01-27T13:02:32Z</time>
      </trkpt>
      <trkpt lat="43.82742" lon="7.44783">
        <ele>1235.6257106641</ele>
        <time>2021-01-27T13:02:33Z</time>
      </trkpt>
      <trkpt lat="43.82742" lon="7.44782">
        <ele>1235.6256934326</ele>
        <time>2021-01-27T13:02:36Z</time>
      </trkpt>
      <trkpt lat="43.82743" lon="7.44784">
        <ele>1236.6256832031</ele>
        <time>2021-01-27T13:02:37Z</time>
      </trkpt>
      <trkpt lat="43.82742" lon="7.44786">
        <ele>1235.6257223969</ele>
        <time>2021-01-27T13:02:38Z</time>
      </trkpt>
      <trkpt lat="43.82741" lon="7.44787">
        <ele>1235.6257946274</ele>
        <time>2021-01-27T13:02:39Z</time>
      </trkpt>
      <trkpt lat="43.8274" lon="7.44787">
        <ele>1235.6258466371</ele>
        <time>2021-01-27T13:02:40Z</time>
      </trkpt>
      <trkpt lat="43.82739" lon="7.44788">
        <ele>1235.6258919549</ele>
        <time>2021-01-27T13:02:41Z</time>
      </trkpt>
      <trkpt lat="43.82738" lon="7.44788">
        <ele>1236.6259422224</ele>
        <time>2021-01-27T13:02:42Z</time>
      </trkpt>
      <trkpt lat="43.82737" lon="7.44788">
        <ele>1236.6260055182</ele>
        <time>2021-01-27T13:02:43Z</time>
      </trkpt>
      <trkpt lat="43.82736" lon="7.4479">
        <ele>1236.6260696416</ele>
        <time>2021-01-27T13:02:44Z</time>
      </trkpt>
      <trkpt lat="43.82735" lon="7.4479">
        <ele>1236.6261321017</ele>
        <time>2021-01-27T13:02:45Z</time>
      </trkpt>
      <trkpt lat="43.82734" lon="7.44792">
        <ele>1235.6261953189</ele>
        <time>2021-01-27T13:02:46Z</time>
      </trkpt>
      <trkpt lat="43.82733" lon="7.44793">
        <ele>1235.6262413233</ele>
        <time>2021-01-27T13:02:47Z</time>
      </trkpt>
      <trkpt lat="43.82733" lon="7.44794">
        <ele>1235.626277935</ele>
        <time>2021-01-27T13:02:48Z</time>
      </trkpt>
      <trkpt lat="43.82732" lon="7.44796">
        <ele>1235.6263313944</ele>
        <time>2021-01-27T13:02:49Z</time>
      </trkpt>
      <trkpt lat="43.82732" lon="7.44796">
        <ele>1235.6263562976</ele>
        <time>2021-01-27T13:02:50Z</time>
      </trkpt>
      <trkpt lat="43.82732" lon="7.44797">
        <ele>1235.6263735623</ele>
        <time>2021-01-27T13:02:52Z</time>
      </trkpt>
      <trkpt lat="43.82731" lon="7.44797">
        <ele>1235.6264039557</ele>
        <time>2021-01-27T13:02:53Z</time>
      </trkpt>
      <trkpt lat="43.8273" lon="7.44797">
        <ele>1235.6264775859</ele>
        <time>2021-01-27T13:02:54Z</time>
      </trkpt>
      <trkpt lat="43.82728" lon="7.44797">
        <ele>1235.6265381629</ele>
        <time>2021-01-27T13:02:55Z</time>
      </trkpt>
      <trkpt lat="43.82727" lon="7.44797">
        <ele>1235.6266029444</ele>
        <time>2021-01-27T13:02:56Z</time>
      </trkpt>
      <trkpt lat="43.82726" lon="7.44797">
        <ele>1234.6266518051</ele>
        <time>2021-01-27T13:02:57Z</time>
      </trkpt>
      <trkpt lat="43.82725" lon="7.44798">
        <ele>1234.6266812836</ele>
        <time>2021-01-27T13:02:58Z</time>
      </trkpt>
      <trkpt lat="43.82725" lon="7.44798">
        <ele>1234.626724391</ele>
        <time>2021-01-27T13:02:59Z</time>
      </trkpt>
      <trkpt lat="43.82724" lon="7.44799">
        <ele>1234.6267734793</ele>
        <time>2021-01-27T13:03:00Z</time>
      </trkpt>
      <trkpt lat="43.82723" lon="7.44799">
        <ele>1234.6268318659</ele>
        <time>2021-01-27T13:03:01Z</time>
      </trkpt>
      <trkpt lat="43.82722" lon="7.44797">
        <ele>1233.6268376467</ele>
        <time>2021-01-27T13:03:03Z</time>
      </trkpt>
      <trkpt lat="43.82723" lon="7.44797">
        <ele>1233.6267974453</ele>
        <time>2021-01-27T13:03:04Z</time>
      </trkpt>
      <trkpt lat="43.82723" lon="7.44797">
        <ele>1233.6267829135</ele>
        <time>2021-01-27T13:03:05Z</time>
      </trkpt>
      <trkpt lat="43.82724" lon="7.44795">
        <ele>1232.6267380113</ele>
        <time>2021-01-27T13:03:06Z</time>
      </trkpt>
      <trkpt lat="43.82724" lon="7.44793">
        <ele>1232.6266836781</ele>
        <time>2021-01-27T13:03:07Z</time>
      </trkpt>
      <trkpt lat="43.82725" lon="7.44791">
        <ele>1232.6266201265</ele>
        <time>2021-01-27T13:03:08Z</time>
      </trkpt>
      <trkpt lat="43.82726" lon="7.44789">
        <ele>1232.6265485793</ele>
        <time>2021-01-27T13:03:09Z</time>
      </trkpt>
      <trkpt lat="43.82727" lon="7.44787">
        <ele>1232.6264792487</ele>
        <time>2021-01-27T13:03:10Z</time>
      </trkpt>
      <trkpt lat="43.82728" lon="7.44786">
        <ele>1232.6264224023</ele>
        <time>2021-01-27T13:03:11Z</time>
      </trkpt>
      <trkpt lat="43.82728" lon="7.44785">
        <ele>1231.6263751421</ele>
        <time>2021-01-27T13:03:12Z</time>
      </trkpt>
      <trkpt lat="43.82729" lon="7.44782">
        <ele>1231.6263243977</ele>
        <time>2021-01-27T13:03:13Z</time>
      </trkpt>
      <trkpt lat="43.82729" lon="7.44781">
        <ele>1230.6262742944</ele>
        <time>2021-01-27T13:03:14Z</time>
      </trkpt>
      <trkpt lat="43.8273" lon="7.44779">
        <ele>1230.6262395322</ele>
        <time>2021-01-27T13:03:15Z</time>
      </trkpt>
      <trkpt lat="43.8273" lon="7.44777">
        <ele>1230.6261914031</ele>
        <time>2021-01-27T13:03:16Z</time>
      </trkpt>
      <trkpt lat="43.82731" lon="7.44776">
        <ele>1230.6261539228</ele>
        <time>2021-01-27T13:03:17Z</time>
      </trkpt>
      <trkpt lat="43.82731" lon="7.44774">
        <ele>1230.6261063627</ele>
        <time>2021-01-27T13:03:18Z</time>
      </trkpt>
      <trkpt lat="43.82732" lon="7.44773">
        <ele>1229.6260544536</ele>
        <time>2021-01-27T13:03:19Z</time>
      </trkpt>
      <trkpt lat="43.82733" lon="7.44771">
        <ele>1229.6260084055</ele>
        <time>2021-01-27T13:03:20Z</time>
      </trkpt>
      <trkpt lat="43.82733" lon="7.44769">
        <ele>1230.6259660221</ele>
        <time>2021-01-27T13:03:21Z</time>
      </trkpt>
      <trkpt lat="43.82733" lon="7.44768">
        <ele>1230.6259470865</ele>
        <time>2021-01-27T13:03:22Z</time>
      </trkpt>
      <trkpt lat="43.82733" lon="7.44766">
        <ele>1230.6259361382</ele>
        <time>2021-01-27T13:03:23Z</time>
      </trkpt>
      <trkpt lat="43.82732" lon="7.44764">
        <ele>1230.6259288254</ele>
        <time>2021-01-27T13:03:24Z</time>
      </trkpt>
      <trkpt lat="43.82732" lon="7.44763">
        <ele>1230.6259430244</ele>
        <time>2021-01-27T13:03:25Z</time>
      </trkpt>
      <trkpt lat="43.82731" lon="7.44762">
        <ele>1231.6259494384</ele>
        <time>2021-01-27T13:03:32Z</time>
      </trkpt>
      <trkpt lat="43.82731" lon="7.44763">
        <ele>1230.6259892689</ele>
        <time>2021-01-27T13:03:33Z</time>
      </trkpt>
      <trkpt lat="43.8273" lon="7.44764">
        <ele>1231.6260296989</ele>
        <time>2021-01-27T13:03:34Z</time>
      </trkpt>
      <trkpt lat="43.8273" lon="7.44765">
        <ele>1231.6260527646</ele>
        <time>2021-01-27T13:03:35Z</time>
      </trkpt>
      <trkpt lat="43.8273" lon="7.44766">
        <ele>1231.6260848903</ele>
        <time>2021-01-27T13:03:36Z</time>
      </trkpt>
      <trkpt lat="43.8273" lon="7.44768">
        <ele>1231.6261121815</ele>
        <time>2021-01-27T13:03:37Z</time>
      </trkpt>
      <trkpt lat="43.82729" lon="7.44769">
        <ele>1231.6261466014</ele>
        <time>2021-01-27T13:03:38Z</time>
      </trkpt>
      <trkpt lat="43.82729" lon="7.44771">
        <ele>1231.626180787</ele>
        <time>2021-01-27T13:03:39Z</time>
      </trkpt>
      <trkpt lat="43.82729" lon="7.44772">
        <ele>1232.626214826</ele>
        <time>2021-01-27T13:03:40Z</time>
      </trkpt>
      <trkpt lat="43.82728" lon="7.44774">
        <ele>1232.6262567037</ele>
        <time>2021-01-27T13:03:41Z</time>
      </trkpt>
      <trkpt lat="43.82728" lon="7.44775">
        <ele>1232.6262868863</ele>
        <time>2021-01-27T13:03:42Z</time>
      </trkpt>
      <trkpt lat="43.82728" lon="7.44776">
        <ele>1232.6263065034</ele>
        <time>2021-01-27T13:03:43Z</time>
      </trkpt>
      <trkpt lat="43.82728" lon="7.44777">
        <ele>1232.6263209754</ele>
        <time>2021-01-27T13:03:44Z</time>
      </trkpt>
      <trkpt lat="43.82727" lon="7.44778">
        <ele>1232.6263518738</ele>
        <time>2021-01-27T13:03:46Z</time>
      </trkpt>
      <trkpt lat="43.82726" lon="7.44779">
        <ele>1232.6263917201</ele>
        <time>2021-01-27T13:03:47Z</time>
      </trkpt>
      <trkpt lat="43.82726" lon="7.44779">
        <ele>1232.6264286956</ele>
        <time>2021-01-27T13:03:50Z</time>
      </trkpt>
      <trkpt lat="43.82725" lon="7.4478">
        <ele>1232.6265086035</ele>
        <time>2021-01-27T13:03:51Z</time>
      </trkpt>
      <trkpt lat="43.82724" lon="7.4478">
        <ele>1232.6265543101</ele>
        <time>2021-01-27T13:03:52Z</time>
      </trkpt>
      <trkpt lat="43.82723" lon="7.4478">
        <ele>1232.6265942439</ele>
        <time>2021-01-27T13:03:53Z</time>
      </trkpt>
      <trkpt lat="43.82722" lon="7.4478">
        <ele>1232.6266093921</ele>
        <time>2021-01-27T13:03:56Z</time>
      </trkpt>
      <trkpt lat="43.8272" lon="7.44782">
        <ele>1230.6267521574</ele>
        <time>2021-01-27T13:04:00Z</time>
      </trkpt>
      <trkpt lat="43.8272" lon="7.44783">
        <ele>1230.6267755611</ele>
        <time>2021-01-27T13:04:01Z</time>
      </trkpt>
      <trkpt lat="43.82719" lon="7.44784">
        <ele>1230.6268018615</ele>
        <time>2021-01-27T13:04:02Z</time>
      </trkpt>
      <trkpt lat="43.82719" lon="7.44784">
        <ele>1230.6268259178</ele>
        <time>2021-01-27T13:04:03Z</time>
      </trkpt>
      <trkpt lat="43.82717" lon="7.44786">
        <ele>1229.6269437762</ele>
        <time>2021-01-27T13:04:05Z</time>
      </trkpt>
      <trkpt lat="43.82716" lon="7.44787">
        <ele>1228.6270002577</ele>
        <time>2021-01-27T13:04:06Z</time>
      </trkpt>
      <trkpt lat="43.82715" lon="7.44788">
        <ele>1228.6270493047</ele>
        <time>2021-01-27T13:04:07Z</time>
      </trkpt>
      <trkpt lat="43.82714" lon="7.44789">
        <ele>1228.6270980138</ele>
        <time>2021-01-27T13:04:08Z</time>
      </trkpt>
      <trkpt lat="43.82714" lon="7.4479">
        <ele>1227.6271486984</ele>
        <time>2021-01-27T13:04:09Z</time>
      </trkpt>
      <trkpt lat="43.82713" lon="7.4479">
        <ele>1227.6271897091</ele>
        <time>2021-01-27T13:04:10Z</time>
      </trkpt>
      <trkpt lat="43.82712" lon="7.44791">
        <ele>1226.6272351789</ele>
        <time>2021-01-27T13:04:11Z</time>
      </trkpt>
      <trkpt lat="43.82712" lon="7.44792">
        <ele>1226.6272615118</ele>
        <time>2021-01-27T13:04:12Z</time>
      </trkpt>
      <trkpt lat="43.82711" lon="7.44792">
        <ele>1226.627321563</ele>
        <time>2021-01-27T13:04:13Z</time>
      </trkpt>
      <trkpt lat="43.8271" lon="7.44793">
        <ele>1225.6273837702</ele>
        <time>2021-01-27T13:04:14Z</time>
      </trkpt>
      <trkpt lat="43.82709" lon="7.44794">
        <ele>1225.6274336044</ele>
        <time>2021-01-27T13:04:15Z</time>
      </trkpt>
      <trkpt lat="43.82708" lon="7.44795">
        <ele>1225.6274762416</ele>
        <time>2021-01-27T13:04:16Z</time>
      </trkpt>
      <trkpt lat="43.82708" lon="7.44797">
        <ele>1224.6275265261</ele>
        <time>2021-01-27T13:04:17Z</time>
      </trkpt>
      <trkpt lat="43.82707" lon="7.44798">
        <ele>1224.6275884951</ele>
        <time>2021-01-27T13:04:18Z</time>
      </trkpt>
      <trkpt lat="43.82705" lon="7.448">
        <ele>1223.6277158435</ele>
        <time>2021-01-27T13:04:20Z</time>
      </trkpt>
      <trkpt lat="43.82704" lon="7.44801">
        <ele>1223.6277777769</ele>
        <time>2021-01-27T13:04:21Z</time>
      </trkpt>
      <trkpt lat="43.82702" lon="7.44802">
        <ele>1223.6278495339</ele>
        <time>2021-01-27T13:04:22Z</time>
      </trkpt>
      <trkpt lat="43.82701" lon="7.44803">
        <ele>1222.6279149307</ele>
        <time>2021-01-27T13:04:23Z</time>
      </trkpt>
      <trkpt lat="43.827" lon="7.44804">
        <ele>1221.6279939968</ele>
        <time>2021-01-27T13:04:24Z</time>
      </trkpt>
      <trkpt lat="43.82699" lon="7.44805">
        <ele>1221.628067725</ele>
        <time>2021-01-27T13:04:25Z</time>
      </trkpt>
      <trkpt lat="43.82697" lon="7.44806">
        <ele>1221.62813738</ele>
        <time>2021-01-27T13:04:26Z</time>
      </trkpt>
      <trkpt lat="43.82696" lon="7.44808">
        <ele>1220.6282008429</ele>
        <time>2021-01-27T13:04:27Z</time>
      </trkpt>
      <trkpt lat="43.82695" lon="7.44808">
        <ele>1220.6282684306</ele>
        <time>2021-01-27T13:04:28Z</time>
      </trkpt>
      <trkpt lat="43.82694" lon="7.44809">
        <ele>1220.6283509326</ele>
        <time>2021-01-27T13:04:29Z</time>
      </trkpt>
      <trkpt lat="43.82692" lon="7.44811">
        <ele>1220.6284703003</ele>
        <time>2021-01-27T13:04:31Z</time>
      </trkpt>
      <trkpt lat="43.82691" lon="7.44812">
        <ele>1220.6285316275</ele>
        <time>2021-01-27T13:04:32Z</time>
      </trkpt>
      <trkpt lat="43.8269" lon="7.44813">
        <ele>1220.6285798823</ele>
        <time>2021-01-27T13:04:33Z</time>
      </trkpt>
      <trkpt lat="43.82689" lon="7.44814">
        <ele>1220.6286304304</ele>
        <time>2021-01-27T13:04:34Z</time>
      </trkpt>
      <trkpt lat="43.82688" lon="7.44815">
        <ele>1220.6286899506</ele>
        <time>2021-01-27T13:04:35Z</time>
      </trkpt>
      <trkpt lat="43.82687" lon="7.44815">
        <ele>1220.6287330468</ele>
        <time>2021-01-27T13:04:36Z</time>
      </trkpt>
      <trkpt lat="43.82687" lon="7.44817">
        <ele>1220.6287958906</ele>
        <time>2021-01-27T13:04:37Z</time>
      </trkpt>
      <trkpt lat="43.82684" lon="7.44819">
        <ele>1219.6289226456</ele>
        <time>2021-01-27T13:04:39Z</time>
      </trkpt>
      <trkpt lat="43.82682" lon="7.44822">
        <ele>1218.6290547815</ele>
        <time>2021-01-27T13:04:41Z</time>
      </trkpt>
      <trkpt lat="43.82681" lon="7.44823">
        <ele>1218.6291288368</ele>
        <time>2021-01-27T13:04:42Z</time>
      </trkpt>
      <trkpt lat="43.8268" lon="7.44825">
        <ele>1218.6291958861</ele>
        <time>2021-01-27T13:04:43Z</time>
      </trkpt>
      <trkpt lat="43.82679" lon="7.44826">
        <ele>1218.6292774166</ele>
        <time>2021-01-27T13:04:44Z</time>
      </trkpt>
      <trkpt lat="43.82677" lon="7.44828">
        <ele>1218.6294101767</ele>
        <time>2021-01-27T13:04:46Z</time>
      </trkpt>
      <trkpt lat="43.82675" lon="7.4483">
        <ele>1218.6294887717</ele>
        <time>2021-01-27T13:04:47Z</time>
      </trkpt>
      <trkpt lat="43.82674" lon="7.44831">
        <ele>1218.629557491</ele>
        <time>2021-01-27T13:04:48Z</time>
      </trkpt>
      <trkpt lat="43.82673" lon="7.44834">
        <ele>1219.6296553721</ele>
        <time>2021-01-27T13:04:50Z</time>
      </trkpt>
      <trkpt lat="43.82672" lon="7.44835">
        <ele>1219.6297110211</ele>
        <time>2021-01-27T13:04:51Z</time>
      </trkpt>
      <trkpt lat="43.82671" lon="7.44836">
        <ele>1219.6297587247</ele>
        <time>2021-01-27T13:04:52Z</time>
      </trkpt>
      <trkpt lat="43.82671" lon="7.44837">
        <ele>1219.6297894481</ele>
        <time>2021-01-27T13:04:53Z</time>
      </trkpt>
      <trkpt lat="43.82671" lon="7.44838">
        <ele>1219.6298216036</ele>
        <time>2021-01-27T13:04:54Z</time>
      </trkpt>
      <trkpt lat="43.82671" lon="7.4484">
        <ele>1220.6298467334</ele>
        <time>2021-01-27T13:04:56Z</time>
      </trkpt>
      <trkpt lat="43.8267" lon="7.44841">
        <ele>1220.6298661196</ele>
        <time>2021-01-27T13:04:57Z</time>
      </trkpt>
      <trkpt lat="43.8267" lon="7.44842">
        <ele>1219.6299122166</ele>
        <time>2021-01-27T13:04:58Z</time>
      </trkpt>
      <trkpt lat="43.82669" lon="7.44843">
        <ele>1219.6299571116</ele>
        <time>2021-01-27T13:04:59Z</time>
      </trkpt>
      <trkpt lat="43.82668" lon="7.44842">
        <ele>1219.6299888515</ele>
        <time>2021-01-27T13:05:00Z</time>
      </trkpt>
      <trkpt lat="43.82668" lon="7.44841">
        <ele>1219.6300061674</ele>
        <time>2021-01-27T13:05:01Z</time>
      </trkpt>
      <trkpt lat="43.82667" lon="7.44842">
        <ele>1218.630044858</ele>
        <time>2021-01-27T13:05:02Z</time>
      </trkpt>
      <trkpt lat="43.82667" lon="7.44842">
        <ele>1219.6300583147</ele>
        <time>2021-01-27T13:05:07Z</time>
      </trkpt>
      <trkpt lat="43.82665" lon="7.44841">
        <ele>1220.630142777</ele>
        <time>2021-01-27T13:05:08Z</time>
      </trkpt>
      <trkpt lat="43.82664" lon="7.44841">
        <ele>1219.6301664709</ele>
        <time>2021-01-27T13:05:11Z</time>
      </trkpt>
      <trkpt lat="43.82664" lon="7.4484">
        <ele>1218.6301959375</ele>
        <time>2021-01-27T13:05:13Z</time>
      </trkpt>
      <trkpt lat="43.8266" lon="7.4484">
        <ele>1217.630377928</ele>
        <time>2021-01-27T13:05:17Z</time>
      </trkpt>
      <trkpt lat="43.82659" lon="7.4484">
        <ele>1216.6303919982</ele>
        <time>2021-01-27T13:05:18Z</time>
      </trkpt>
      <trkpt lat="43.82658" lon="7.4484">
        <ele>1216.6304372779</ele>
        <time>2021-01-27T13:05:19Z</time>
      </trkpt>
      <trkpt lat="43.82657" lon="7.44839">
        <ele>1215.63047617</ele>
        <time>2021-01-27T13:05:20Z</time>
      </trkpt>
      <trkpt lat="43.82657" lon="7.44839">
        <ele>1215.63050706</ele>
        <time>2021-01-27T13:05:21Z</time>
      </trkpt>
      <trkpt lat="43.82656" lon="7.44839">
        <ele>1215.6305356574</ele>
        <time>2021-01-27T13:05:22Z</time>
      </trkpt>
      <trkpt lat="43.82655" lon="7.44839">
        <ele>1216.6305813587</ele>
        <time>2021-01-27T13:05:24Z</time>
      </trkpt>
      <trkpt lat="43.82654" lon="7.44839">
        <ele>1216.6306590544</ele>
        <time>2021-01-27T13:05:26Z</time>
      </trkpt>
      <trkpt lat="43.82653" lon="7.4484">
        <ele>1215.6307029115</ele>
        <time>2021-01-27T13:05:27Z</time>
      </trkpt>
      <trkpt lat="43.82652" lon="7.44841">
        <ele>1215.6307433376</ele>
        <time>2021-01-27T13:05:28Z</time>
      </trkpt>
      <trkpt lat="43.82652" lon="7.44842">
        <ele>1214.6307728901</ele>
        <time>2021-01-27T13:05:30Z</time>
      </trkpt>
      <trkpt lat="43.82649" lon="7.44843">
        <ele>1213.6309145372</ele>
        <time>2021-01-27T13:05:34Z</time>
      </trkpt>
      <trkpt lat="43.82649" lon="7.44843">
        <ele>1213.6309313096</ele>
        <time>2021-01-27T13:05:35Z</time>
      </trkpt>
      <trkpt lat="43.82648" lon="7.44844">
        <ele>1213.6309997638</ele>
        <time>2021-01-27T13:05:37Z</time>
      </trkpt>
      <trkpt lat="43.82648" lon="7.44845">
        <ele>1212.6310177512</ele>
        <time>2021-01-27T13:05:38Z</time>
      </trkpt>
      <trkpt lat="43.82647" lon="7.44845">
        <ele>1212.631045386</ele>
        <time>2021-01-27T13:05:44Z</time>
      </trkpt>
      <trkpt lat="43.82646" lon="7.44848">
        <ele>1210.6311235921</ele>
        <time>2021-01-27T13:05:47Z</time>
      </trkpt>
      <trkpt lat="43.82646" lon="7.44849">
        <ele>1210.6311579591</ele>
        <time>2021-01-27T13:05:49Z</time>
      </trkpt>
      <trkpt lat="43.82644" lon="7.4485">
        <ele>1209.631231272</ele>
        <time>2021-01-27T13:05:50Z</time>
      </trkpt>
      <trkpt lat="43.82644" lon="7.4485">
        <ele>1209.6312603708</ele>
        <time>2021-01-27T13:05:51Z</time>
      </trkpt>
      <trkpt lat="43.82643" lon="7.44851">
        <ele>1209.6313005594</ele>
        <time>2021-01-27T13:05:52Z</time>
      </trkpt>
      <trkpt lat="43.82643" lon="7.44852">
        <ele>1209.6313280276</ele>
        <time>2021-01-27T13:05:55Z</time>
      </trkpt>
      <trkpt lat="43.82642" lon="7.44853">
        <ele>1208.6313915381</ele>
        <time>2021-01-27T13:05:56Z</time>
      </trkpt>
      <trkpt lat="43.82642" lon="7.44853">
        <ele>1208.6313899396</ele>
        <time>2021-01-27T13:05:57Z</time>
      </trkpt>
      <trkpt lat="43.82642" lon="7.44854">
        <ele>1208.6313945312</ele>
        <time>2021-01-27T13:05:58Z</time>
      </trkpt>
      <trkpt lat="43.82642" lon="7.44855">
        <ele>1208.6313952881</ele>
        <time>2021-01-27T13:05:59Z</time>
      </trkpt>
      <trkpt lat="43.82642" lon="7.44856">
        <ele>1208.6314429176</ele>
        <time>2021-01-27T13:06:00Z</time>
      </trkpt>
      <trkpt lat="43.82641" lon="7.44856">
        <ele>1208.6314866569</ele>
        <time>2021-01-27T13:06:01Z</time>
      </trkpt>
      <trkpt lat="43.8264" lon="7.44857">
        <ele>1207.6315163766</ele>
        <time>2021-01-27T13:06:07Z</time>
      </trkpt>
      <trkpt lat="43.82638" lon="7.44857">
        <ele>1207.6316525313</ele>
        <time>2021-01-27T13:06:09Z</time>
      </trkpt>
      <trkpt lat="43.82637" lon="7.44857">
        <ele>1207.6316895716</ele>
        <time>2021-01-27T13:06:13Z</time>
      </trkpt>
      <trkpt lat="43.82635" lon="7.4486">
        <ele>1205.6318321903</ele>
        <time>2021-01-27T13:06:16Z</time>
      </trkpt>
      <trkpt lat="43.82634" lon="7.4486">
        <ele>1205.6318609422</ele>
        <time>2021-01-27T13:06:18Z</time>
      </trkpt>
      <trkpt lat="43.82632" lon="7.44862">
        <ele>1204.6319870439</ele>
        <time>2021-01-27T13:06:20Z</time>
      </trkpt>
      <trkpt lat="43.8263" lon="7.44862">
        <ele>1203.6320603683</ele>
        <time>2021-01-27T13:06:22Z</time>
      </trkpt>
      <trkpt lat="43.8263" lon="7.44862">
        <ele>1203.6320603683</ele>
        <time>2021-01-27T13:06:24Z</time>
      </trkpt>
      <trkpt lat="43.82629" lon="7.44863">
        <ele>1204.6321437132</ele>
        <time>2021-01-27T13:06:26Z</time>
      </trkpt>
      <trkpt lat="43.82628" lon="7.44863">
        <ele>1204.6321737495</ele>
        <time>2021-01-27T13:06:27Z</time>
      </trkpt>
      <trkpt lat="43.82628" lon="7.44864">
        <ele>1203.6322104472</ele>
        <time>2021-01-27T13:06:33Z</time>
      </trkpt>
      <trkpt lat="43.82628" lon="7.44864">
        <ele>1202.6322182636</ele>
        <time>2021-01-27T13:06:37Z</time>
      </trkpt>
      <trkpt lat="43.82626" lon="7.44867">
        <ele>1199.6323442471</ele>
        <time>2021-01-27T13:06:40Z</time>
      </trkpt>
      <trkpt lat="43.82625" lon="7.44867">
        <ele>1199.6323685683</ele>
        <time>2021-01-27T13:06:43Z</time>
      </trkpt>
      <trkpt lat="43.82623" lon="7.44867">
        <ele>1198.6324628053</ele>
        <time>2021-01-27T13:06:44Z</time>
      </trkpt>
      <trkpt lat="43.82623" lon="7.44867">
        <ele>1198.6324871066</ele>
        <time>2021-01-27T13:06:45Z</time>
      </trkpt>
      <trkpt lat="43.82622" lon="7.44867">
        <ele>1197.6325431698</ele>
        <time>2021-01-27T13:06:47Z</time>
      </trkpt>
      <trkpt lat="43.82621" lon="7.44867">
        <ele>1197.6325835905</ele>
        <time>2021-01-27T13:06:49Z</time>
      </trkpt>
      <trkpt lat="43.8262" lon="7.44867">
        <ele>1197.6326124961</ele>
        <time>2021-01-27T13:06:50Z</time>
      </trkpt>
      <trkpt lat="43.8262" lon="7.44868">
        <ele>1197.6326518666</ele>
        <time>2021-01-27T13:06:51Z</time>
      </trkpt>
      <trkpt lat="43.82619" lon="7.44869">
        <ele>1197.6326706663</ele>
        <time>2021-01-27T13:06:54Z</time>
      </trkpt>
      <trkpt lat="43.82617" lon="7.44871">
        <ele>1195.6327910607</ele>
        <time>2021-01-27T13:06:56Z</time>
      </trkpt>
      <trkpt lat="43.82617" lon="7.44871">
        <ele>1194.6327975485</ele>
        <time>2021-01-27T13:06:57Z</time>
      </trkpt>
      <trkpt lat="43.82616" lon="7.44871">
        <ele>1193.632840359</ele>
        <time>2021-01-27T13:06:58Z</time>
      </trkpt>
      <trkpt lat="43.82616" lon="7.44871">
        <ele>1193.632840359</ele>
        <time>2021-01-27T13:07:00Z</time>
      </trkpt>
      <trkpt lat="43.82614" lon="7.4487">
        <ele>1192.6329218592</ele>
        <time>2021-01-27T13:07:01Z</time>
      </trkpt>
      <trkpt lat="43.82614" lon="7.44869">
        <ele>1192.6329511786</ele>
        <time>2021-01-27T13:07:02Z</time>
      </trkpt>
      <trkpt lat="43.82613" lon="7.44869">
        <ele>1192.6329961764</ele>
        <time>2021-01-27T13:07:03Z</time>
      </trkpt>
      <trkpt lat="43.82611" lon="7.44869">
        <ele>1191.6330569323</ele>
        <time>2021-01-27T13:07:05Z</time>
      </trkpt>
      <trkpt lat="43.8261" lon="7.44869">
        <ele>1191.6331110406</ele>
        <time>2021-01-27T13:07:07Z</time>
      </trkpt>
      <trkpt lat="43.8261" lon="7.44868">
        <ele>1192.6331377674</ele>
        <time>2021-01-27T13:07:08Z</time>
      </trkpt>
      <trkpt lat="43.82609" lon="7.44868">
        <ele>1192.6331608846</ele>
        <time>2021-01-27T13:07:09Z</time>
      </trkpt>
      <trkpt lat="43.82609" lon="7.44868">
        <ele>1192.6331835202</ele>
        <time>2021-01-27T13:07:10Z</time>
      </trkpt>
      <trkpt lat="43.82608" lon="7.44869">
        <ele>1191.6332292374</ele>
        <time>2021-01-27T13:07:14Z</time>
      </trkpt>
      <trkpt lat="43.82607" lon="7.4487">
        <ele>1189.6332901081</ele>
        <time>2021-01-27T13:07:17Z</time>
      </trkpt>
      <trkpt lat="43.82606" lon="7.44871">
        <ele>1188.6333276641</ele>
        <time>2021-01-27T13:07:20Z</time>
      </trkpt>
      <trkpt lat="43.82605" lon="7.44872">
        <ele>1187.6334182163</ele>
        <time>2021-01-27T13:07:21Z</time>
      </trkpt>
      <trkpt lat="43.82604" lon="7.44872">
        <ele>1186.6334448416</ele>
        <time>2021-01-27T13:07:22Z</time>
      </trkpt>
      <trkpt lat="43.82604" lon="7.44873">
        <ele>1187.6334764321</ele>
        <time>2021-01-27T13:07:23Z</time>
      </trkpt>
      <trkpt lat="43.82604" lon="7.44874">
        <ele>1187.6334920451</ele>
        <time>2021-01-27T13:07:27Z</time>
      </trkpt>
      <trkpt lat="43.82604" lon="7.44875">
        <ele>1186.633504371</ele>
        <time>2021-01-27T13:07:28Z</time>
      </trkpt>
      <trkpt lat="43.82604" lon="7.44876">
        <ele>1186.633498905</ele>
        <time>2021-01-27T13:07:29Z</time>
      </trkpt>
      <trkpt lat="43.82604" lon="7.44878">
        <ele>1186.633505028</ele>
        <time>2021-01-27T13:07:30Z</time>
      </trkpt>
      <trkpt lat="43.82604" lon="7.44878">
        <ele>1186.6335053676</ele>
        <time>2021-01-27T13:07:31Z</time>
      </trkpt>
      <trkpt lat="43.82604" lon="7.44879">
        <ele>1186.6335284182</ele>
        <time>2021-01-27T13:07:32Z</time>
      </trkpt>
      <trkpt lat="43.82604" lon="7.4488">
        <ele>1185.6335494405</ele>
        <time>2021-01-27T13:07:33Z</time>
      </trkpt>
      <trkpt lat="43.82603" lon="7.44882">
        <ele>1184.6336331414</ele>
        <time>2021-01-27T13:07:35Z</time>
      </trkpt>
      <trkpt lat="43.82602" lon="7.44882">
        <ele>1184.6336898346</ele>
        <time>2021-01-27T13:07:36Z</time>
      </trkpt>
      <trkpt lat="43.82601" lon="7.44883">
        <ele>1184.6337316144</ele>
        <time>2021-01-27T13:07:37Z</time>
      </trkpt>
      <trkpt lat="43.82601" lon="7.44884">
        <ele>1183.6337536555</ele>
        <time>2021-01-27T13:07:38Z</time>
      </trkpt>
      <trkpt lat="43.826" lon="7.44885">
        <ele>1183.6337960629</ele>
        <time>2021-01-27T13:07:39Z</time>
      </trkpt>
      <trkpt lat="43.82599" lon="7.44886">
        <ele>1183.6338844657</ele>
        <time>2021-01-27T13:07:41Z</time>
      </trkpt>
      <trkpt lat="43.82598" lon="7.44886">
        <ele>1183.6339307022</ele>
        <time>2021-01-27T13:07:42Z</time>
      </trkpt>
      <trkpt lat="43.82597" lon="7.44885">
        <ele>1183.6339742427</ele>
        <time>2021-01-27T13:07:43Z</time>
      </trkpt>
      <trkpt lat="43.82597" lon="7.44885">
        <ele>1183.6339742427</ele>
        <time>2021-01-27T13:07:45Z</time>
      </trkpt>
      <trkpt lat="43.82595" lon="7.44885">
        <ele>1184.6340738216</ele>
        <time>2021-01-27T13:07:46Z</time>
      </trkpt>
      <trkpt lat="43.82594" lon="7.44886">
        <ele>1184.6341172845</ele>
        <time>2021-01-27T13:07:49Z</time>
      </trkpt>
      <trkpt lat="43.82593" lon="7.44886">
        <ele>1184.6341363129</ele>
        <time>2021-01-27T13:07:50Z</time>
      </trkpt>
      <trkpt lat="43.82592" lon="7.44886">
        <ele>1183.6342092004</ele>
        <time>2021-01-27T13:07:52Z</time>
      </trkpt>
      <trkpt lat="43.82591" lon="7.44886">
        <ele>1183.6342448449</ele>
        <time>2021-01-27T13:07:55Z</time>
      </trkpt>
      <trkpt lat="43.8259" lon="7.44888">
        <ele>1182.6342982202</ele>
        <time>2021-01-27T13:07:56Z</time>
      </trkpt>
      <trkpt lat="43.82591" lon="7.44889">
        <ele>1182.6343058599</ele>
        <time>2021-01-27T13:08:02Z</time>
      </trkpt>
      <trkpt lat="43.82589" lon="7.4489">
        <ele>1181.6344008616</ele>
        <time>2021-01-27T13:08:03Z</time>
      </trkpt>
      <trkpt lat="43.82588" lon="7.4489">
        <ele>1180.6344243315</ele>
        <time>2021-01-27T13:08:04Z</time>
      </trkpt>
      <trkpt lat="43.82588" lon="7.44891">
        <ele>1180.6344477383</ele>
        <time>2021-01-27T13:08:05Z</time>
      </trkpt>
      <trkpt lat="43.82588" lon="7.44892">
        <ele>1180.6344765595</ele>
        <time>2021-01-27T13:08:08Z</time>
      </trkpt>
      <trkpt lat="43.82586" lon="7.44894">
        <ele>1179.63459706</ele>
        <time>2021-01-27T13:08:10Z</time>
      </trkpt>
      <trkpt lat="43.82585" lon="7.44894">
        <ele>1178.6346284954</ele>
        <time>2021-01-27T13:08:14Z</time>
      </trkpt>
      <trkpt lat="43.82584" lon="7.44895">
        <ele>1177.634701094</ele>
        <time>2021-01-27T13:08:15Z</time>
      </trkpt>
      <trkpt lat="43.82584" lon="7.44896">
        <ele>1177.6347232485</ele>
        <time>2021-01-27T13:08:16Z</time>
      </trkpt>
      <trkpt lat="43.82583" lon="7.44896">
        <ele>1177.6347460097</ele>
        <time>2021-01-27T13:08:17Z</time>
      </trkpt>
      <trkpt lat="43.82583" lon="7.44897">
        <ele>1177.6347848109</ele>
        <time>2021-01-27T13:08:18Z</time>
      </trkpt>
      <trkpt lat="43.82582" lon="7.44897">
        <ele>1177.6348201585</ele>
        <time>2021-01-27T13:08:19Z</time>
      </trkpt>
      <trkpt lat="43.82581" lon="7.44897">
        <ele>1177.6348689325</ele>
        <time>2021-01-27T13:08:20Z</time>
      </trkpt>
      <trkpt lat="43.8258" lon="7.44897">
        <ele>1177.6349154546</ele>
        <time>2021-01-27T13:08:21Z</time>
      </trkpt>
      <trkpt lat="43.82579" lon="7.44897">
        <ele>1177.6349377956</ele>
        <time>2021-01-27T13:08:24Z</time>
      </trkpt>
      <trkpt lat="43.8258" lon="7.44898">
        <ele>1175.6349056372</ele>
        <time>2021-01-27T13:08:26Z</time>
      </trkpt>
      <trkpt lat="43.82581" lon="7.44899">
        <ele>1175.6349076413</ele>
        <time>2021-01-27T13:08:29Z</time>
      </trkpt>
      <trkpt lat="43.8258" lon="7.44902">
        <ele>1175.6349977304</ele>
        <time>2021-01-27T13:08:32Z</time>
      </trkpt>
      <trkpt lat="43.8258" lon="7.44903">
        <ele>1175.6350103142</ele>
        <time>2021-01-27T13:08:33Z</time>
      </trkpt>
      <trkpt lat="43.82579" lon="7.44904">
        <ele>1174.6350316699</ele>
        <time>2021-01-27T13:08:36Z</time>
      </trkpt>
      <trkpt lat="43.82578" lon="7.44907">
        <ele>1172.6351482494</ele>
        <time>2021-01-27T13:08:39Z</time>
      </trkpt>
      <trkpt lat="43.82578" lon="7.44907">
        <ele>1172.635155678</ele>
        <time>2021-01-27T13:08:42Z</time>
      </trkpt>
      <trkpt lat="43.82576" lon="7.4491">
        <ele>1170.6352692755</ele>
        <time>2021-01-27T13:08:45Z</time>
      </trkpt>
      <trkpt lat="43.82575" lon="7.4491">
        <ele>1170.6352887671</ele>
        <time>2021-01-27T13:08:48Z</time>
      </trkpt>
      <trkpt lat="43.82573" lon="7.44911">
        <ele>1169.6354014597</ele>
        <time>2021-01-27T13:08:50Z</time>
      </trkpt>
      <trkpt lat="43.82573" lon="7.44912">
        <ele>1168.6354413313</ele>
        <time>2021-01-27T13:08:53Z</time>
      </trkpt>
      <trkpt lat="43.82572" lon="7.44912">
        <ele>1168.6354889223</ele>
        <time>2021-01-27T13:08:54Z</time>
      </trkpt>
      <trkpt lat="43.82571" lon="7.44913">
        <ele>1168.6355344804</ele>
        <time>2021-01-27T13:08:55Z</time>
      </trkpt>
      <trkpt lat="43.8257" lon="7.44914">
        <ele>1167.6356209132</ele>
        <time>2021-01-27T13:08:57Z</time>
      </trkpt>
      <trkpt lat="43.82569" lon="7.44915">
        <ele>1167.6356506948</ele>
        <time>2021-01-27T13:09:00Z</time>
      </trkpt>
      <trkpt lat="43.82566" lon="7.44916">
        <ele>1166.6358036867</ele>
        <time>2021-01-27T13:09:02Z</time>
      </trkpt>
      <trkpt lat="43.82566" lon="7.44916">
        <ele>1166.6358211263</ele>
        <time>2021-01-27T13:09:03Z</time>
      </trkpt>
      <trkpt lat="43.82565" lon="7.44915">
        <ele>1166.6358563209</ele>
        <time>2021-01-27T13:09:05Z</time>
      </trkpt>
      <trkpt lat="43.82563" lon="7.44916">
        <ele>1165.6359688221</ele>
        <time>2021-01-27T13:09:08Z</time>
      </trkpt>
      <trkpt lat="43.82562" lon="7.44916">
        <ele>1164.6360090951</ele>
        <time>2021-01-27T13:09:12Z</time>
      </trkpt>
      <trkpt lat="43.8256" lon="7.44916">
        <ele>1164.6361023972</ele>
        <time>2021-01-27T13:09:13Z</time>
      </trkpt>
      <trkpt lat="43.8256" lon="7.44917">
        <ele>1163.6361097955</ele>
        <time>2021-01-27T13:09:14Z</time>
      </trkpt>
      <trkpt lat="43.8256" lon="7.44918">
        <ele>1163.6361171232</ele>
        <time>2021-01-27T13:09:15Z</time>
      </trkpt>
      <trkpt lat="43.8256" lon="7.44919">
        <ele>1163.6361282826</ele>
        <time>2021-01-27T13:09:22Z</time>
      </trkpt>
      <trkpt lat="43.8256" lon="7.4492">
        <ele>1163.636173648</ele>
        <time>2021-01-27T13:09:23Z</time>
      </trkpt>
      <trkpt lat="43.8256" lon="7.44921">
        <ele>1163.6361853006</ele>
        <time>2021-01-27T13:09:24Z</time>
      </trkpt>
      <trkpt lat="43.82559" lon="7.44923">
        <ele>1162.6362471482</ele>
        <time>2021-01-27T13:09:26Z</time>
      </trkpt>
      <trkpt lat="43.82559" lon="7.44923">
        <ele>1162.6362471482</ele>
        <time>2021-01-27T13:09:28Z</time>
      </trkpt>
      <trkpt lat="43.82556" lon="7.44925">
        <ele>1160.6363867001</ele>
        <time>2021-01-27T13:09:29Z</time>
      </trkpt>
      <trkpt lat="43.82556" lon="7.44926">
        <ele>1160.6364252576</ele>
        <time>2021-01-27T13:09:31Z</time>
      </trkpt>
      <trkpt lat="43.82556" lon="7.44927">
        <ele>1161.6364272511</ele>
        <time>2021-01-27T13:09:32Z</time>
      </trkpt>
      <trkpt lat="43.82556" lon="7.44928">
        <ele>1161.6364194478</ele>
        <time>2021-01-27T13:09:33Z</time>
      </trkpt>
      <trkpt lat="43.82555" lon="7.44928">
        <ele>1160.636464808</ele>
        <time>2021-01-27T13:09:35Z</time>
      </trkpt>
      <trkpt lat="43.82555" lon="7.44927">
        <ele>1160.636483601</ele>
        <time>2021-01-27T13:09:36Z</time>
      </trkpt>
      <trkpt lat="43.82555" lon="7.44927">
        <ele>1160.636483601</ele>
        <time>2021-01-27T13:09:38Z</time>
      </trkpt>
      <trkpt lat="43.82553" lon="7.44926">
        <ele>1159.6365597869</ele>
        <time>2021-01-27T13:09:39Z</time>
      </trkpt>
      <trkpt lat="43.82553" lon="7.44927">
        <ele>1159.6365921023</ele>
        <time>2021-01-27T13:09:41Z</time>
      </trkpt>
      <trkpt lat="43.82552" lon="7.44927">
        <ele>1158.6366168448</ele>
        <time>2021-01-27T13:09:44Z</time>
      </trkpt>
      <trkpt lat="43.8255" lon="7.44931">
        <ele>1157.6367668448</ele>
        <time>2021-01-27T13:09:46Z</time>
      </trkpt>
      <trkpt lat="43.8255" lon="7.44931">
        <ele>1157.6367802824</ele>
        <time>2021-01-27T13:09:48Z</time>
      </trkpt>
      <trkpt lat="43.82548" lon="7.44934">
        <ele>1155.6368862576</ele>
        <time>2021-01-27T13:09:51Z</time>
      </trkpt>
      <trkpt lat="43.82547" lon="7.44934">
        <ele>1156.6369314404</ele>
        <time>2021-01-27T13:09:54Z</time>
      </trkpt>
      <trkpt lat="43.82546" lon="7.44938">
        <ele>1155.6370546719</ele>
        <time>2021-01-27T13:09:56Z</time>
      </trkpt>
      <trkpt lat="43.82546" lon="7.44938">
        <ele>1155.6370627506</ele>
        <time>2021-01-27T13:09:57Z</time>
      </trkpt>
      <trkpt lat="43.82545" lon="7.44939">
        <ele>1155.6371074384</ele>
        <time>2021-01-27T13:09:58Z</time>
      </trkpt>
      <trkpt lat="43.82544" lon="7.4494">
        <ele>1155.6371590852</ele>
        <time>2021-01-27T13:09:59Z</time>
      </trkpt>
      <trkpt lat="43.82543" lon="7.44941">
        <ele>1155.6372343305</ele>
        <time>2021-01-27T13:10:01Z</time>
      </trkpt>
      <trkpt lat="43.82543" lon="7.44941">
        <ele>1155.6372343305</ele>
        <time>2021-01-27T13:10:03Z</time>
      </trkpt>
      <trkpt lat="43.82541" lon="7.44943">
        <ele>1153.637334383</ele>
        <time>2021-01-27T13:10:05Z</time>
      </trkpt>
      <trkpt lat="43.82541" lon="7.44943">
        <ele>1153.637370287</ele>
        <time>2021-01-27T13:10:06Z</time>
      </trkpt>
      <trkpt lat="43.8254" lon="7.44944">
        <ele>1153.6374257316</ele>
        <time>2021-01-27T13:10:07Z</time>
      </trkpt>
      <trkpt lat="43.82538" lon="7.44945">
        <ele>1153.6374901533</ele>
        <time>2021-01-27T13:10:08Z</time>
      </trkpt>
      <trkpt lat="43.82537" lon="7.44945">
        <ele>1153.63754782</ele>
        <time>2021-01-27T13:10:09Z</time>
      </trkpt>
      <trkpt lat="43.82536" lon="7.44947">
        <ele>1152.6376123527</ele>
        <time>2021-01-27T13:10:11Z</time>
      </trkpt>
      <trkpt lat="43.82536" lon="7.44946">
        <ele>1151.6376386429</ele>
        <time>2021-01-27T13:10:13Z</time>
      </trkpt>
      <trkpt lat="43.82534" lon="7.44946">
        <ele>1151.6377210653</ele>
        <time>2021-01-27T13:10:15Z</time>
      </trkpt>
      <trkpt lat="43.82534" lon="7.44947">
        <ele>1150.6377452712</ele>
        <time>2021-01-27T13:10:19Z</time>
      </trkpt>
      <trkpt lat="43.82532" lon="7.44948">
        <ele>1150.6378508112</ele>
        <time>2021-01-27T13:10:21Z</time>
      </trkpt>
      <trkpt lat="43.82531" lon="7.44948">
        <ele>1149.6378794141</ele>
        <time>2021-01-27T13:10:22Z</time>
      </trkpt>
      <trkpt lat="43.82531" lon="7.44947">
        <ele>1149.6379025672</ele>
        <time>2021-01-27T13:10:23Z</time>
      </trkpt>
      <trkpt lat="43.8253" lon="7.44947">
        <ele>1148.6379234107</ele>
        <time>2021-01-27T13:10:24Z</time>
      </trkpt>
      <trkpt lat="43.8253" lon="7.44945">
        <ele>1148.6379209583</ele>
        <time>2021-01-27T13:10:25Z</time>
      </trkpt>
      <trkpt lat="43.82529" lon="7.44945">
        <ele>1148.6379454319</ele>
        <time>2021-01-27T13:10:28Z</time>
      </trkpt>
      <trkpt lat="43.82528" lon="7.44946">
        <ele>1148.6380188119</ele>
        <time>2021-01-27T13:10:29Z</time>
      </trkpt>
      <trkpt lat="43.82527" lon="7.44946">
        <ele>1148.6380509569</ele>
        <time>2021-01-27T13:10:30Z</time>
      </trkpt>
      <trkpt lat="43.82526" lon="7.44946">
        <ele>1148.6380922709</ele>
        <time>2021-01-27T13:10:31Z</time>
      </trkpt>
      <trkpt lat="43.82526" lon="7.44946">
        <ele>1148.6381194761</ele>
        <time>2021-01-27T13:10:33Z</time>
      </trkpt>
      <trkpt lat="43.82525" lon="7.44945">
        <ele>1148.6381463708</ele>
        <time>2021-01-27T13:10:34Z</time>
      </trkpt>
      <trkpt lat="43.82524" lon="7.44945">
        <ele>1148.6381610699</ele>
        <time>2021-01-27T13:10:35Z</time>
      </trkpt>
      <trkpt lat="43.82524" lon="7.44943">
        <ele>1148.6381498571</ele>
        <time>2021-01-27T13:10:36Z</time>
      </trkpt>
      <trkpt lat="43.82524" lon="7.44942">
        <ele>1146.6381449024</ele>
        <time>2021-01-27T13:10:41Z</time>
      </trkpt>
      <trkpt lat="43.82524" lon="7.4494">
        <ele>1145.638149509</ele>
        <time>2021-01-27T13:10:42Z</time>
      </trkpt>
      <trkpt lat="43.82523" lon="7.44939">
        <ele>1145.6381432469</ele>
        <time>2021-01-27T13:10:43Z</time>
      </trkpt>
      <trkpt lat="43.82523" lon="7.44938">
        <ele>1145.638144541</ele>
        <time>2021-01-27T13:10:44Z</time>
      </trkpt>
      <trkpt lat="43.82523" lon="7.44936">
        <ele>1145.638138377</ele>
        <time>2021-01-27T13:10:45Z</time>
      </trkpt>
      <trkpt lat="43.82522" lon="7.44934">
        <ele>1144.6381365414</ele>
        <time>2021-01-27T13:10:47Z</time>
      </trkpt>
      <trkpt lat="43.82522" lon="7.44934">
        <ele>1144.638141576</ele>
        <time>2021-01-27T13:10:50Z</time>
      </trkpt>
      <trkpt lat="43.82521" lon="7.44932">
        <ele>1143.6381629331</ele>
        <time>2021-01-27T13:10:51Z</time>
      </trkpt>
      <trkpt lat="43.82521" lon="7.4493">
        <ele>1143.6381501192</ele>
        <time>2021-01-27T13:10:52Z</time>
      </trkpt>
      <trkpt lat="43.82521" lon="7.44929">
        <ele>1142.6381386187</ele>
        <time>2021-01-27T13:10:53Z</time>
      </trkpt>
      <trkpt lat="43.82521" lon="7.44927">
        <ele>1142.6381244974</ele>
        <time>2021-01-27T13:10:54Z</time>
      </trkpt>
      <trkpt lat="43.82521" lon="7.44926">
        <ele>1142.6381116872</ele>
        <time>2021-01-27T13:10:56Z</time>
      </trkpt>
      <trkpt lat="43.8252" lon="7.44926">
        <ele>1142.6381367925</ele>
        <time>2021-01-27T13:10:57Z</time>
      </trkpt>
      <trkpt lat="43.8252" lon="7.44925">
        <ele>1143.638149799</ele>
        <time>2021-01-27T13:10:58Z</time>
      </trkpt>
      <trkpt lat="43.82519" lon="7.44923">
        <ele>1143.6381729907</ele>
        <time>2021-01-27T13:11:00Z</time>
      </trkpt>
      <trkpt lat="43.82518" lon="7.44922">
        <ele>1143.6381838833</ele>
        <time>2021-01-27T13:11:01Z</time>
      </trkpt>
      <trkpt lat="43.82518" lon="7.44921">
        <ele>1144.6381812646</ele>
        <time>2021-01-27T13:11:02Z</time>
      </trkpt>
      <trkpt lat="43.82518" lon="7.44919">
        <ele>1143.6381614015</ele>
        <time>2021-01-27T13:11:03Z</time>
      </trkpt>
      <trkpt lat="43.82518" lon="7.44918">
        <ele>1143.6381270146</ele>
        <time>2021-01-27T13:11:04Z</time>
      </trkpt>
      <trkpt lat="43.8252" lon="7.44917">
        <ele>1144.6380587342</ele>
        <time>2021-01-27T13:11:06Z</time>
      </trkpt>
      <trkpt lat="43.8252" lon="7.44916">
        <ele>1145.638053289</ele>
        <time>2021-01-27T13:11:07Z</time>
      </trkpt>
      <trkpt lat="43.82519" lon="7.44915">
        <ele>1145.6380587394</ele>
        <time>2021-01-27T13:11:08Z</time>
      </trkpt>
      <trkpt lat="43.82519" lon="7.44913">
        <ele>1145.6380483563</ele>
        <time>2021-01-27T13:11:09Z</time>
      </trkpt>
      <trkpt lat="43.82519" lon="7.44913">
        <ele>1145.6380483563</ele>
        <time>2021-01-27T13:11:11Z</time>
      </trkpt>
      <trkpt lat="43.82518" lon="7.4491">
        <ele>1145.6380505965</ele>
        <time>2021-01-27T13:11:12Z</time>
      </trkpt>
      <trkpt lat="43.82518" lon="7.44909">
        <ele>1145.6380450549</ele>
        <time>2021-01-27T13:11:13Z</time>
      </trkpt>
      <trkpt lat="43.82518" lon="7.44908">
        <ele>1146.6380359827</ele>
        <time>2021-01-27T13:11:14Z</time>
      </trkpt>
      <trkpt lat="43.82517" lon="7.44907">
        <ele>1146.6380469879</ele>
        <time>2021-01-27T13:11:17Z</time>
      </trkpt>
      <trkpt lat="43.82518" lon="7.44904">
        <ele>1146.6379980799</ele>
        <time>2021-01-27T13:11:18Z</time>
      </trkpt>
      <trkpt lat="43.82518" lon="7.44903">
        <ele>1145.6379831533</ele>
        <time>2021-01-27T13:11:19Z</time>
      </trkpt>
      <trkpt lat="43.82518" lon="7.44903">
        <ele>1145.6379640884</ele>
        <time>2021-01-27T13:11:20Z</time>
      </trkpt>
      <trkpt lat="43.82518" lon="7.44902">
        <ele>1145.6379616791</ele>
        <time>2021-01-27T13:11:23Z</time>
      </trkpt>
      <trkpt lat="43.82517" lon="7.44897">
        <ele>1145.6379433711</ele>
        <time>2021-01-27T13:11:26Z</time>
      </trkpt>
      <trkpt lat="43.82517" lon="7.44896">
        <ele>1145.6379426819</ele>
        <time>2021-01-27T13:11:29Z</time>
      </trkpt>
      <trkpt lat="43.82516" lon="7.44892">
        <ele>1145.6379279089</ele>
        <time>2021-01-27T13:11:31Z</time>
      </trkpt>
      <trkpt lat="43.82516" lon="7.4489">
        <ele>1145.637918353</ele>
        <time>2021-01-27T13:11:32Z</time>
      </trkpt>
      <trkpt lat="43.82516" lon="7.44888">
        <ele>1145.6378912202</ele>
        <time>2021-01-27T13:11:33Z</time>
      </trkpt>
      <trkpt lat="43.82516" lon="7.44888">
        <ele>1145.6378912202</ele>
        <time>2021-01-27T13:11:35Z</time>
      </trkpt>
      <trkpt lat="43.82516" lon="7.44884">
        <ele>1143.637835989</ele>
        <time>2021-01-27T13:11:37Z</time>
      </trkpt>
      <trkpt lat="43.82516" lon="7.44883">
        <ele>1143.6378353014</ele>
        <time>2021-01-27T13:11:38Z</time>
      </trkpt>
      <trkpt lat="43.82516" lon="7.44881">
        <ele>1143.6378195848</ele>
        <time>2021-01-27T13:11:40Z</time>
      </trkpt>
      <trkpt lat="43.82516" lon="7.44878">
        <ele>1143.6377500792</ele>
        <time>2021-01-27T13:11:42Z</time>
      </trkpt>
      <trkpt lat="43.82517" lon="7.44876">
        <ele>1143.6377226394</ele>
        <time>2021-01-27T13:11:43Z</time>
      </trkpt>
      <trkpt lat="43.82516" lon="7.44875">
        <ele>1143.6377098504</ele>
        <time>2021-01-27T13:11:44Z</time>
      </trkpt>
      <trkpt lat="43.82516" lon="7.44873">
        <ele>1143.6376982776</ele>
        <time>2021-01-27T13:11:46Z</time>
      </trkpt>
      <trkpt lat="43.82516" lon="7.44872">
        <ele>1143.6377139579</ele>
        <time>2021-01-27T13:11:47Z</time>
      </trkpt>
      <trkpt lat="43.82516" lon="7.44871">
        <ele>1142.6376957025</ele>
        <time>2021-01-27T13:11:48Z</time>
      </trkpt>
      <trkpt lat="43.82516" lon="7.44868">
        <ele>1142.637652543</ele>
        <time>2021-01-27T13:11:50Z</time>
      </trkpt>
      <trkpt lat="43.82515" lon="7.44866">
        <ele>1141.6376645297</ele>
        <time>2021-01-27T13:11:52Z</time>
      </trkpt>
      <trkpt lat="43.82515" lon="7.44865">
        <ele>1141.6376704245</ele>
        <time>2021-01-27T13:11:53Z</time>
      </trkpt>
      <trkpt lat="43.82515" lon="7.44865">
        <ele>1141.6376704245</ele>
        <time>2021-01-27T13:11:55Z</time>
      </trkpt>
      <trkpt lat="43.82514" lon="7.44862">
        <ele>1141.6376557516</ele>
        <time>2021-01-27T13:11:56Z</time>
      </trkpt>
      <trkpt lat="43.82514" lon="7.44861">
        <ele>1141.6376628572</ele>
        <time>2021-01-27T13:11:57Z</time>
      </trkpt>
      <trkpt lat="43.82514" lon="7.4486">
        <ele>1141.6376567209</ele>
        <time>2021-01-27T13:11:58Z</time>
      </trkpt>
      <trkpt lat="43.82514" lon="7.4486">
        <ele>1140.6376638151</ele>
        <time>2021-01-27T13:12:02Z</time>
      </trkpt>
      <trkpt lat="43.82513" lon="7.44858">
        <ele>1141.6376679264</ele>
        <time>2021-01-27T13:12:05Z</time>
      </trkpt>
      <trkpt lat="43.82513" lon="7.44857">
        <ele>1140.6376783531</ele>
        <time>2021-01-27T13:12:08Z</time>
      </trkpt>
      <trkpt lat="43.82512" lon="7.44855">
        <ele>1139.637662186</ele>
        <time>2021-01-27T13:12:09Z</time>
      </trkpt>
      <trkpt lat="43.82512" lon="7.44853">
        <ele>1140.6376524549</ele>
        <time>2021-01-27T13:12:11Z</time>
      </trkpt>
      <trkpt lat="43.82512" lon="7.44851">
        <ele>1139.6376271418</ele>
        <time>2021-01-27T13:12:12Z</time>
      </trkpt>
      <trkpt lat="43.82512" lon="7.4485">
        <ele>1139.6376065821</ele>
        <time>2021-01-27T13:12:13Z</time>
      </trkpt>
      <trkpt lat="43.82512" lon="7.44848">
        <ele>1139.6375813643</ele>
        <time>2021-01-27T13:12:14Z</time>
      </trkpt>
      <trkpt lat="43.82512" lon="7.44847">
        <ele>1139.6375742388</ele>
        <time>2021-01-27T13:12:15Z</time>
      </trkpt>
      <trkpt lat="43.82512" lon="7.44847">
        <ele>1138.6375918585</ele>
        <time>2021-01-27T13:12:18Z</time>
      </trkpt>
      <trkpt lat="43.82509" lon="7.44843">
        <ele>1136.6376761456</ele>
        <time>2021-01-27T13:12:22Z</time>
      </trkpt>
      <trkpt lat="43.82508" lon="7.44842">
        <ele>1135.6377076188</ele>
        <time>2021-01-27T13:12:24Z</time>
      </trkpt>
      <trkpt lat="43.82508" lon="7.44843">
        <ele>1135.6377419594</ele>
        <time>2021-01-27T13:12:25Z</time>
      </trkpt>
      <trkpt lat="43.82507" lon="7.44844">
        <ele>1134.6377874025</ele>
        <time>2021-01-27T13:12:26Z</time>
      </trkpt>
      <trkpt lat="43.82506" lon="7.44845">
        <ele>1133.6378437746</ele>
        <time>2021-01-27T13:12:27Z</time>
      </trkpt>
      <trkpt lat="43.82505" lon="7.44845">
        <ele>1132.637907036</ele>
        <time>2021-01-27T13:12:28Z</time>
      </trkpt>
      <trkpt lat="43.82504" lon="7.44846">
        <ele>1132.6379628392</ele>
        <time>2021-01-27T13:12:29Z</time>
      </trkpt>
      <trkpt lat="43.82504" lon="7.44846">
        <ele>1132.6379628392</ele>
        <time>2021-01-27T13:12:31Z</time>
      </trkpt>
      <trkpt lat="43.82502" lon="7.44847">
        <ele>1131.6380436557</ele>
        <time>2021-01-27T13:12:32Z</time>
      </trkpt>
      <trkpt lat="43.82502" lon="7.44847">
        <ele>1130.6380876187</ele>
        <time>2021-01-27T13:12:33Z</time>
      </trkpt>
      <trkpt lat="43.82501" lon="7.44848">
        <ele>1129.6381214385</ele>
        <time>2021-01-27T13:12:35Z</time>
      </trkpt>
      <trkpt lat="43.825" lon="7.44849">
        <ele>1129.6382093854</ele>
        <time>2021-01-27T13:12:37Z</time>
      </trkpt>
      <trkpt lat="43.82498" lon="7.44851">
        <ele>1129.6382909915</ele>
        <time>2021-01-27T13:12:38Z</time>
      </trkpt>
      <trkpt lat="43.82497" lon="7.44851">
        <ele>1128.6383394839</ele>
        <time>2021-01-27T13:12:39Z</time>
      </trkpt>
      <trkpt lat="43.82496" lon="7.44851">
        <ele>1127.6383899247</ele>
        <time>2021-01-27T13:12:40Z</time>
      </trkpt>
      <trkpt lat="43.82494" lon="7.44853">
        <ele>1127.6385102871</ele>
        <time>2021-01-27T13:12:42Z</time>
      </trkpt>
      <trkpt lat="43.82494" lon="7.44854">
        <ele>1127.6385685976</ele>
        <time>2021-01-27T13:12:43Z</time>
      </trkpt>
      <trkpt lat="43.82493" lon="7.44856">
        <ele>1127.6386127525</ele>
        <time>2021-01-27T13:12:44Z</time>
      </trkpt>
      <trkpt lat="43.82493" lon="7.44858">
        <ele>1126.638650542</ele>
        <time>2021-01-27T13:12:45Z</time>
      </trkpt>
      <trkpt lat="43.82492" lon="7.44859">
        <ele>1126.6386856997</ele>
        <time>2021-01-27T13:12:46Z</time>
      </trkpt>
      <trkpt lat="43.82492" lon="7.44861">
        <ele>1125.6387129751</ele>
        <time>2021-01-27T13:12:47Z</time>
      </trkpt>
      <trkpt lat="43.82492" lon="7.44862">
        <ele>1125.6387356039</ele>
        <time>2021-01-27T13:12:48Z</time>
      </trkpt>
      <trkpt lat="43.82492" lon="7.44863">
        <ele>1124.6387487888</ele>
        <time>2021-01-27T13:12:49Z</time>
      </trkpt>
      <trkpt lat="43.82492" lon="7.44864">
        <ele>1124.6387645012</ele>
        <time>2021-01-27T13:12:50Z</time>
      </trkpt>
      <trkpt lat="43.82492" lon="7.44865">
        <ele>1124.6387852571</ele>
        <time>2021-01-27T13:12:51Z</time>
      </trkpt>
      <trkpt lat="43.82491" lon="7.44865">
        <ele>1124.6388067419</ele>
        <time>2021-01-27T13:12:54Z</time>
      </trkpt>
      <trkpt lat="43.82491" lon="7.44867">
        <ele>1124.6388460133</ele>
        <time>2021-01-27T13:12:55Z</time>
      </trkpt>
      <trkpt lat="43.82491" lon="7.44868">
        <ele>1123.6388675728</ele>
        <time>2021-01-27T13:12:56Z</time>
      </trkpt>
      <trkpt lat="43.8249" lon="7.44869">
        <ele>1123.6388998675</ele>
        <time>2021-01-27T13:12:57Z</time>
      </trkpt>
      <trkpt lat="43.8249" lon="7.44869">
        <ele>1122.6389284022</ele>
        <time>2021-01-27T13:12:58Z</time>
      </trkpt>
      <trkpt lat="43.8249" lon="7.44871">
        <ele>1122.6389376157</ele>
        <time>2021-01-27T13:12:59Z</time>
      </trkpt>
      <trkpt lat="43.8249" lon="7.44872">
        <ele>1122.6389590595</ele>
        <time>2021-01-27T13:13:00Z</time>
      </trkpt>
      <trkpt lat="43.8249" lon="7.44872">
        <ele>1121.6389646832</ele>
        <time>2021-01-27T13:13:01Z</time>
      </trkpt>
      <trkpt lat="43.82489" lon="7.44873">
        <ele>1122.6389886521</ele>
        <time>2021-01-27T13:13:02Z</time>
      </trkpt>
      <trkpt lat="43.82489" lon="7.44874">
        <ele>1122.6390211147</ele>
        <time>2021-01-27T13:13:03Z</time>
      </trkpt>
      <trkpt lat="43.82488" lon="7.44875">
        <ele>1122.6390754099</ele>
        <time>2021-01-27T13:13:04Z</time>
      </trkpt>
      <trkpt lat="43.82487" lon="7.44876">
        <ele>1122.6391184656</ele>
        <time>2021-01-27T13:13:05Z</time>
      </trkpt>
      <trkpt lat="43.82488" lon="7.44877">
        <ele>1121.6391110432</ele>
        <time>2021-01-27T13:13:08Z</time>
      </trkpt>
      <trkpt lat="43.82487" lon="7.44878">
        <ele>1121.6391436601</ele>
        <time>2021-01-27T13:13:09Z</time>
      </trkpt>
      <trkpt lat="43.82487" lon="7.44879">
        <ele>1120.6391750926</ele>
        <time>2021-01-27T13:13:10Z</time>
      </trkpt>
      <trkpt lat="43.82487" lon="7.4488">
        <ele>1120.6391941194</ele>
        <time>2021-01-27T13:13:11Z</time>
      </trkpt>
      <trkpt lat="43.82487" lon="7.44881">
        <ele>1120.6392100136</ele>
        <time>2021-01-27T13:13:12Z</time>
      </trkpt>
      <trkpt lat="43.82486" lon="7.44882">
        <ele>1120.63925071</ele>
        <time>2021-01-27T13:13:13Z</time>
      </trkpt>
      <trkpt lat="43.82486" lon="7.44883">
        <ele>1120.6392749855</ele>
        <time>2021-01-27T13:13:20Z</time>
      </trkpt>
      <trkpt lat="43.82485" lon="7.44884">
        <ele>1119.6393156012</ele>
        <time>2021-01-27T13:13:22Z</time>
      </trkpt>
      <trkpt lat="43.82486" lon="7.44885">
        <ele>1119.6393096973</ele>
        <time>2021-01-27T13:13:46Z</time>
      </trkpt>
      <trkpt lat="43.82486" lon="7.44886">
        <ele>1119.6393124646</ele>
        <time>2021-01-27T13:13:47Z</time>
      </trkpt>
      <trkpt lat="43.82486" lon="7.44887">
        <ele>1119.6393271562</ele>
        <time>2021-01-27T13:13:49Z</time>
      </trkpt>
      <trkpt lat="43.82485" lon="7.44887">
        <ele>1119.6393821267</ele>
        <time>2021-01-27T13:13:51Z</time>
      </trkpt>
      <trkpt lat="43.82484" lon="7.44888">
        <ele>1119.6394038174</ele>
        <time>2021-01-27T13:13:52Z</time>
      </trkpt>
      <trkpt lat="43.82484" lon="7.44888">
        <ele>1118.6394360877</ele>
        <time>2021-01-27T13:13:53Z</time>
      </trkpt>
      <trkpt lat="43.82483" lon="7.44889">
        <ele>1117.6394700347</ele>
        <time>2021-01-27T13:13:56Z</time>
      </trkpt>
      <trkpt lat="43.82483" lon="7.44889">
        <ele>1117.6395165559</ele>
        <time>2021-01-27T13:13:57Z</time>
      </trkpt>
      <trkpt lat="43.82482" lon="7.44889">
        <ele>1117.6395325347</ele>
        <time>2021-01-27T13:13:58Z</time>
      </trkpt>
      <trkpt lat="43.82481" lon="7.44887">
        <ele>1116.6395437254</ele>
        <time>2021-01-27T13:14:00Z</time>
      </trkpt>
      <trkpt lat="43.82481" lon="7.44885">
        <ele>1115.6395437579</ele>
        <time>2021-01-27T13:14:01Z</time>
      </trkpt>
      <trkpt lat="43.8248" lon="7.44884">
        <ele>1115.6395560657</ele>
        <time>2021-01-27T13:14:02Z</time>
      </trkpt>
      <trkpt lat="43.8248" lon="7.44883">
        <ele>1115.639578353</ele>
        <time>2021-01-27T13:14:03Z</time>
      </trkpt>
      <trkpt lat="43.82479" lon="7.44882">
        <ele>1115.6396078841</ele>
        <time>2021-01-27T13:14:04Z</time>
      </trkpt>
      <trkpt lat="43.82479" lon="7.44881">
        <ele>1115.6396079785</ele>
        <time>2021-01-27T13:14:07Z</time>
      </trkpt>
      <trkpt lat="43.82477" lon="7.4488">
        <ele>1115.6396594382</ele>
        <time>2021-01-27T13:14:08Z</time>
      </trkpt>
      <trkpt lat="43.82476" lon="7.4488">
        <ele>1115.6397015523</ele>
        <time>2021-01-27T13:14:09Z</time>
      </trkpt>
      <trkpt lat="43.82475" lon="7.44879">
        <ele>1115.6397386448</ele>
        <time>2021-01-27T13:14:11Z</time>
      </trkpt>
      <trkpt lat="43.82475" lon="7.44878">
        <ele>1115.6397542613</ele>
        <time>2021-01-27T13:14:12Z</time>
      </trkpt>
      <trkpt lat="43.82474" lon="7.44877">
        <ele>1115.6397619133</ele>
        <time>2021-01-27T13:14:14Z</time>
      </trkpt>
      <trkpt lat="43.82474" lon="7.44877">
        <ele>1116.6397690103</ele>
        <time>2021-01-27T13:14:15Z</time>
      </trkpt>
      <trkpt lat="43.82473" lon="7.44879">
        <ele>1114.639854772</ele>
        <time>2021-01-27T13:14:17Z</time>
      </trkpt>
      <trkpt lat="43.82472" lon="7.44878">
        <ele>1114.6398638337</ele>
        <time>2021-01-27T13:14:18Z</time>
      </trkpt>
      <trkpt lat="43.82473" lon="7.44875">
        <ele>1113.6398080389</ele>
        <time>2021-01-27T13:14:20Z</time>
      </trkpt>
      <trkpt lat="43.82475" lon="7.44874">
        <ele>1112.6397073579</ele>
        <time>2021-01-27T13:14:22Z</time>
      </trkpt>
      <trkpt lat="43.82474" lon="7.44873">
        <ele>1112.639717543</ele>
        <time>2021-01-27T13:14:23Z</time>
      </trkpt>
      <trkpt lat="43.82474" lon="7.44872">
        <ele>1112.6397264717</ele>
        <time>2021-01-27T13:14:24Z</time>
      </trkpt>
      <trkpt lat="43.82473" lon="7.4487">
        <ele>1112.6397283445</ele>
        <time>2021-01-27T13:14:25Z</time>
      </trkpt>
      <trkpt lat="43.82473" lon="7.44869">
        <ele>1112.6397361487</ele>
        <time>2021-01-27T13:14:26Z</time>
      </trkpt>
      <trkpt lat="43.82472" lon="7.44867">
        <ele>1112.6397440323</ele>
        <time>2021-01-27T13:14:27Z</time>
      </trkpt>
      <trkpt lat="43.82472" lon="7.44867">
        <ele>1112.6397518023</ele>
        <time>2021-01-27T13:14:28Z</time>
      </trkpt>
      <trkpt lat="43.82472" lon="7.44866">
        <ele>1111.6397550212</ele>
        <time>2021-01-27T13:14:29Z</time>
      </trkpt>
      <trkpt lat="43.82472" lon="7.44863">
        <ele>1110.6397348357</ele>
        <time>2021-01-27T13:14:31Z</time>
      </trkpt>
      <trkpt lat="43.82472" lon="7.44862">
        <ele>1110.6397139332</ele>
        <time>2021-01-27T13:14:32Z</time>
      </trkpt>
      <trkpt lat="43.82471" lon="7.44862">
        <ele>1110.639746198</ele>
        <time>2021-01-27T13:14:35Z</time>
      </trkpt>
      <trkpt lat="43.82471" lon="7.44865">
        <ele>1109.6397815913</ele>
        <time>2021-01-27T13:14:37Z</time>
      </trkpt>
      <trkpt lat="43.82471" lon="7.44866">
        <ele>1109.6397993454</ele>
        <time>2021-01-27T13:14:38Z</time>
      </trkpt>
      <trkpt lat="43.82471" lon="7.44867">
        <ele>1108.639819018</ele>
        <time>2021-01-27T13:14:39Z</time>
      </trkpt>
      <trkpt lat="43.8247" lon="7.44868">
        <ele>1108.6398701535</ele>
        <time>2021-01-27T13:14:41Z</time>
      </trkpt>
      <trkpt lat="43.8247" lon="7.44869">
        <ele>1108.6398866232</ele>
        <time>2021-01-27T13:14:42Z</time>
      </trkpt>
      <trkpt lat="43.8247" lon="7.4487">
        <ele>1107.6399055222</ele>
        <time>2021-01-27T13:14:45Z</time>
      </trkpt>
      <trkpt lat="43.82469" lon="7.44872">
        <ele>1106.6399682884</ele>
        <time>2021-01-27T13:14:47Z</time>
      </trkpt>
      <trkpt lat="43.82469" lon="7.44872">
        <ele>1105.6399795219</ele>
        <time>2021-01-27T13:14:49Z</time>
      </trkpt>
      <trkpt lat="43.82469" lon="7.44874">
        <ele>1105.6399952389</ele>
        <time>2021-01-27T13:14:51Z</time>
      </trkpt>
      <trkpt lat="43.82469" lon="7.44874">
        <ele>1105.6399952389</ele>
        <time>2021-01-27T13:14:52Z</time>
      </trkpt>
      <trkpt lat="43.82468" lon="7.44875">
        <ele>1105.6400619172</ele>
        <time>2021-01-27T13:14:53Z</time>
      </trkpt>
      <trkpt lat="43.82467" lon="7.44873">
        <ele>1105.6400891407</ele>
        <time>2021-01-27T13:14:55Z</time>
      </trkpt>
      <trkpt lat="43.82466" lon="7.44872">
        <ele>1105.6400968209</ele>
        <time>2021-01-27T13:14:57Z</time>
      </trkpt>
      <trkpt lat="43.82466" lon="7.44871">
        <ele>1104.6400890872</ele>
        <time>2021-01-27T13:14:58Z</time>
      </trkpt>
      <trkpt lat="43.82466" lon="7.44869">
        <ele>1103.6400563313</ele>
        <time>2021-01-27T13:14:59Z</time>
      </trkpt>
      <trkpt lat="43.82467" lon="7.44868">
        <ele>1104.640030174</ele>
        <time>2021-01-27T13:15:00Z</time>
      </trkpt>
      <trkpt lat="43.82466" lon="7.44867">
        <ele>1103.6400258666</ele>
        <time>2021-01-27T13:15:01Z</time>
      </trkpt>
      <trkpt lat="43.82466" lon="7.44866">
        <ele>1103.6400291644</ele>
        <time>2021-01-27T13:15:02Z</time>
      </trkpt>
      <trkpt lat="43.82466" lon="7.44866">
        <ele>1103.6400404398</ele>
        <time>2021-01-27T13:15:09Z</time>
      </trkpt>
      <trkpt lat="43.82465" lon="7.44864">
        <ele>1102.6400748227</ele>
        <time>2021-01-27T13:15:10Z</time>
      </trkpt>
      <trkpt lat="43.82465" lon="7.44863">
        <ele>1103.6400643816</ele>
        <time>2021-01-27T13:15:11Z</time>
      </trkpt>
      <trkpt lat="43.82464" lon="7.44862">
        <ele>1102.6400687382</ele>
        <time>2021-01-27T13:15:12Z</time>
      </trkpt>
      <trkpt lat="43.82464" lon="7.44861">
        <ele>1102.6400718605</ele>
        <time>2021-01-27T13:15:13Z</time>
      </trkpt>
      <trkpt lat="43.82464" lon="7.4486">
        <ele>1102.6400779072</ele>
        <time>2021-01-27T13:15:15Z</time>
      </trkpt>
      <trkpt lat="43.82464" lon="7.44859">
        <ele>1101.6400575322</ele>
        <time>2021-01-27T13:15:17Z</time>
      </trkpt>
      <trkpt lat="43.82464" lon="7.44858">
        <ele>1101.640061661</ele>
        <time>2021-01-27T13:15:19Z</time>
      </trkpt>
      <trkpt lat="43.82464" lon="7.44858">
        <ele>1101.6400453589</ele>
        <time>2021-01-27T13:15:20Z</time>
      </trkpt>
      <trkpt lat="43.82464" lon="7.44857">
        <ele>1102.6400232701</ele>
        <time>2021-01-27T13:15:21Z</time>
      </trkpt>
      <trkpt lat="43.82464" lon="7.44857">
        <ele>1102.6400232701</ele>
        <time>2021-01-27T13:15:23Z</time>
      </trkpt>
      <trkpt lat="43.82463" lon="7.44855">
        <ele>1102.6400469028</ele>
        <time>2021-01-27T13:15:24Z</time>
      </trkpt>
      <trkpt lat="43.82462" lon="7.44853">
        <ele>1102.6400512195</ele>
        <time>2021-01-27T13:15:26Z</time>
      </trkpt>
      <trkpt lat="43.82462" lon="7.44852">
        <ele>1102.6400432133</ele>
        <time>2021-01-27T13:15:29Z</time>
      </trkpt>
      <trkpt lat="43.82462" lon="7.44848">
        <ele>1101.6400062435</ele>
        <time>2021-01-27T13:15:31Z</time>
      </trkpt>
      <trkpt lat="43.82462" lon="7.44846">
        <ele>1100.6399936611</ele>
        <time>2021-01-27T13:15:32Z</time>
      </trkpt>
      <trkpt lat="43.82461" lon="7.44845">
        <ele>1100.6400060543</ele>
        <time>2021-01-27T13:15:33Z</time>
      </trkpt>
      <trkpt lat="43.82461" lon="7.44843">
        <ele>1099.6399900921</ele>
        <time>2021-01-27T13:15:35Z</time>
      </trkpt>
      <trkpt lat="43.82461" lon="7.44842">
        <ele>1099.6399635915</ele>
        <time>2021-01-27T13:15:36Z</time>
      </trkpt>
      <trkpt lat="43.82462" lon="7.44841">
        <ele>1099.6399288376</ele>
        <time>2021-01-27T13:15:37Z</time>
      </trkpt>
      <trkpt lat="43.82462" lon="7.4484">
        <ele>1100.6399011793</ele>
        <time>2021-01-27T13:15:43Z</time>
      </trkpt>
      <trkpt lat="43.82463" lon="7.44838">
        <ele>1102.6398320941</ele>
        <time>2021-01-27T13:15:47Z</time>
      </trkpt>
      <trkpt lat="43.82463" lon="7.44837">
        <ele>1102.6398337974</ele>
        <time>2021-01-27T13:15:50Z</time>
      </trkpt>
      <trkpt lat="43.82461" lon="7.44836">
        <ele>1100.6399206261</ele>
        <time>2021-01-27T13:15:53Z</time>
      </trkpt>
      <trkpt lat="43.82461" lon="7.44835">
        <ele>1099.6399126689</ele>
        <time>2021-01-27T13:16:09Z</time>
      </trkpt>
      <trkpt lat="43.82461" lon="7.44833">
        <ele>1098.6398704777</ele>
        <time>2021-01-27T13:16:13Z</time>
      </trkpt>
      <trkpt lat="43.82461" lon="7.44832">
        <ele>1099.6398617529</ele>
        <time>2021-01-27T13:16:39Z</time>
      </trkpt>
      <trkpt lat="43.82461" lon="7.44829">
        <ele>1099.6398467425</ele>
        <time>2021-01-27T13:16:40Z</time>
      </trkpt>
      <trkpt lat="43.8246" lon="7.44829">
        <ele>1099.6398706125</ele>
        <time>2021-01-27T13:16:42Z</time>
      </trkpt>
      <trkpt lat="43.82459" lon="7.44827">
        <ele>1099.6399062795</ele>
        <time>2021-01-27T13:16:44Z</time>
      </trkpt>
      <trkpt lat="43.82459" lon="7.44827">
        <ele>1098.6399001843</ele>
        <time>2021-01-27T13:16:45Z</time>
      </trkpt>
      <trkpt lat="43.82458" lon="7.44826">
        <ele>1098.6399339168</ele>
        <time>2021-01-27T13:16:47Z</time>
      </trkpt>
      <trkpt lat="43.82458" lon="7.44825">
        <ele>1098.6399298849</ele>
        <time>2021-01-27T13:16:48Z</time>
      </trkpt>
      <trkpt lat="43.82457" lon="7.44824">
        <ele>1098.6399605382</ele>
        <time>2021-01-27T13:16:49Z</time>
      </trkpt>
      <trkpt lat="43.82456" lon="7.44825">
        <ele>1098.6400020765</ele>
        <time>2021-01-27T13:16:50Z</time>
      </trkpt>
      <trkpt lat="43.82456" lon="7.44824">
        <ele>1098.6400406334</ele>
        <time>2021-01-27T13:16:51Z</time>
      </trkpt>
      <trkpt lat="43.82455" lon="7.44824">
        <ele>1098.6400435565</ele>
        <time>2021-01-27T13:16:53Z</time>
      </trkpt>
      <trkpt lat="43.82455" lon="7.44824">
        <ele>1098.6400407522</ele>
        <time>2021-01-27T13:16:56Z</time>
      </trkpt>
      <trkpt lat="43.82456" lon="7.44825">
        <ele>1097.6400321712</ele>
        <time>2021-01-27T13:16:58Z</time>
      </trkpt>
      <trkpt lat="43.82456" lon="7.44825">
        <ele>1097.6400321712</ele>
        <time>2021-01-27T13:17:00Z</time>
      </trkpt>
      <trkpt lat="43.82454" lon="7.44826">
        <ele>1096.640119745</ele>
        <time>2021-01-27T13:17:01Z</time>
      </trkpt>
      <trkpt lat="43.82454" lon="7.44825">
        <ele>1096.6401341457</ele>
        <time>2021-01-27T13:17:03Z</time>
      </trkpt>
      <trkpt lat="43.82454" lon="7.44824">
        <ele>1096.6401158606</ele>
        <time>2021-01-27T13:17:05Z</time>
      </trkpt>
      <trkpt lat="43.82454" lon="7.44823">
        <ele>1095.6401002298</ele>
        <time>2021-01-27T13:17:09Z</time>
      </trkpt>
      <trkpt lat="43.82452" lon="7.44822">
        <ele>1095.6401824864</ele>
        <time>2021-01-27T13:17:12Z</time>
      </trkpt>
      <trkpt lat="43.82452" lon="7.44822">
        <ele>1095.6401974555</ele>
        <time>2021-01-27T13:17:13Z</time>
      </trkpt>
      <trkpt lat="43.82452" lon="7.4482">
        <ele>1095.640184694</ele>
        <time>2021-01-27T13:17:14Z</time>
      </trkpt>
      <trkpt lat="43.82452" lon="7.4482">
        <ele>1095.6401625132</ele>
        <time>2021-01-27T13:17:15Z</time>
      </trkpt>
      <trkpt lat="43.82453" lon="7.44818">
        <ele>1095.6400818978</ele>
        <time>2021-01-27T13:17:17Z</time>
      </trkpt>
      <trkpt lat="43.82454" lon="7.44816">
        <ele>1094.6400382687</ele>
        <time>2021-01-27T13:17:18Z</time>
      </trkpt>
      <trkpt lat="43.82453" lon="7.44815">
        <ele>1094.6400298741</ele>
        <time>2021-01-27T13:17:19Z</time>
      </trkpt>
      <trkpt lat="43.82454" lon="7.44814">
        <ele>1094.6400165372</ele>
        <time>2021-01-27T13:17:20Z</time>
      </trkpt>
      <trkpt lat="43.82454" lon="7.44814">
        <ele>1093.6399960533</ele>
        <time>2021-01-27T13:17:27Z</time>
      </trkpt>
      <trkpt lat="43.82452" lon="7.44815">
        <ele>1093.6400721225</ele>
        <time>2021-01-27T13:17:28Z</time>
      </trkpt>
      <trkpt lat="43.82453" lon="7.44814">
        <ele>1093.6400583316</ele>
        <time>2021-01-27T13:17:33Z</time>
      </trkpt>
      <trkpt lat="43.82452" lon="7.44812">
        <ele>1092.6400771255</ele>
        <time>2021-01-27T13:17:34Z</time>
      </trkpt>
      <trkpt lat="43.82451" lon="7.44811">
        <ele>1092.6400906498</ele>
        <time>2021-01-27T13:17:35Z</time>
      </trkpt>
      <trkpt lat="43.82451" lon="7.44811">
        <ele>1091.6401175588</ele>
        <time>2021-01-27T13:17:36Z</time>
      </trkpt>
      <trkpt lat="43.8245" lon="7.44809">
        <ele>1090.6401304082</ele>
        <time>2021-01-27T13:17:37Z</time>
      </trkpt>
      <trkpt lat="43.8245" lon="7.44809">
        <ele>1090.6401304082</ele>
        <time>2021-01-27T13:17:42Z</time>
      </trkpt>
      <trkpt lat="43.82448" lon="7.44812">
        <ele>1089.640275419</ele>
        <time>2021-01-27T13:17:43Z</time>
      </trkpt>
      <trkpt lat="43.82447" lon="7.44812">
        <ele>1088.6402970609</ele>
        <time>2021-01-27T13:17:44Z</time>
      </trkpt>
      <trkpt lat="43.82447" lon="7.44813">
        <ele>1088.6403020718</ele>
        <time>2021-01-27T13:17:45Z</time>
      </trkpt>
      <trkpt lat="43.82447" lon="7.44814">
        <ele>1087.6403194622</ele>
        <time>2021-01-27T13:17:48Z</time>
      </trkpt>
      <trkpt lat="43.82446" lon="7.44815">
        <ele>1085.6403740061</ele>
        <time>2021-01-27T13:17:49Z</time>
      </trkpt>
      <trkpt lat="43.82446" lon="7.44815">
        <ele>1085.6403898077</ele>
        <time>2021-01-27T13:17:50Z</time>
      </trkpt>
      <trkpt lat="43.82445" lon="7.44817">
        <ele>1084.6404562788</ele>
        <time>2021-01-27T13:17:52Z</time>
      </trkpt>
      <trkpt lat="43.82445" lon="7.44817">
        <ele>1084.6404562788</ele>
        <time>2021-01-27T13:17:54Z</time>
      </trkpt>
      <trkpt lat="43.82444" lon="7.44818">
        <ele>1083.6405333132</ele>
        <time>2021-01-27T13:17:56Z</time>
      </trkpt>
      <trkpt lat="43.82444" lon="7.44818">
        <ele>1083.6405337153</ele>
        <time>2021-01-27T13:17:59Z</time>
      </trkpt>
      <trkpt lat="43.82442" lon="7.44817">
        <ele>1084.6406042715</ele>
        <time>2021-01-27T13:18:01Z</time>
      </trkpt>
      <trkpt lat="43.82442" lon="7.44816">
        <ele>1083.6405975817</ele>
        <time>2021-01-27T13:18:03Z</time>
      </trkpt>
      <trkpt lat="43.82442" lon="7.44816">
        <ele>1082.6406108523</ele>
        <time>2021-01-27T13:18:05Z</time>
      </trkpt>
      <trkpt lat="43.82441" lon="7.44813">
        <ele>1082.6405872837</ele>
        <time>2021-01-27T13:18:07Z</time>
      </trkpt>
      <trkpt lat="43.82441" lon="7.44812">
        <ele>1081.6406198053</ele>
        <time>2021-01-27T13:18:18Z</time>
      </trkpt>
      <trkpt lat="43.82439" lon="7.44813">
        <ele>1081.6406867487</ele>
        <time>2021-01-27T13:18:19Z</time>
      </trkpt>
      <trkpt lat="43.82439" lon="7.44813">
        <ele>1082.6407229785</ele>
        <time>2021-01-27T13:18:21Z</time>
      </trkpt>
      <trkpt lat="43.82437" lon="7.44814">
        <ele>1081.6408267679</ele>
        <time>2021-01-27T13:18:23Z</time>
      </trkpt>
      <trkpt lat="43.82436" lon="7.44814">
        <ele>1080.6408347534</ele>
        <time>2021-01-27T13:18:24Z</time>
      </trkpt>
      <trkpt lat="43.82436" lon="7.44813">
        <ele>1080.6408364003</ele>
        <time>2021-01-27T13:18:25Z</time>
      </trkpt>
      <trkpt lat="43.82436" lon="7.4481">
        <ele>1078.6408142165</ele>
        <time>2021-01-27T13:18:27Z</time>
      </trkpt>
      <trkpt lat="43.82436" lon="7.4481">
        <ele>1078.6408142165</ele>
        <time>2021-01-27T13:18:29Z</time>
      </trkpt>
      <trkpt lat="43.82435" lon="7.44808">
        <ele>1076.6408327884</ele>
        <time>2021-01-27T13:18:31Z</time>
      </trkpt>
      <trkpt lat="43.82435" lon="7.44807">
        <ele>1076.6408482758</ele>
        <time>2021-01-27T13:18:32Z</time>
      </trkpt>
      <trkpt lat="43.82434" lon="7.44805">
        <ele>1075.6408378632</ele>
        <time>2021-01-27T13:18:33Z</time>
      </trkpt>
      <trkpt lat="43.82434" lon="7.44804">
        <ele>1075.6408642136</ele>
        <time>2021-01-27T13:18:34Z</time>
      </trkpt>
      <trkpt lat="43.82432" lon="7.44802">
        <ele>1075.6409000263</ele>
        <time>2021-01-27T13:18:36Z</time>
      </trkpt>
      <trkpt lat="43.82432" lon="7.44801">
        <ele>1075.6409026914</ele>
        <time>2021-01-27T13:18:38Z</time>
      </trkpt>
      <trkpt lat="43.82431" lon="7.44799">
        <ele>1074.6409107862</ele>
        <time>2021-01-27T13:18:40Z</time>
      </trkpt>
      <trkpt lat="43.8243" lon="7.44798">
        <ele>1074.6409594095</ele>
        <time>2021-01-27T13:18:42Z</time>
      </trkpt>
      <trkpt lat="43.82429" lon="7.44796">
        <ele>1074.640975782</ele>
        <time>2021-01-27T13:18:43Z</time>
      </trkpt>
      <trkpt lat="43.82429" lon="7.44795">
        <ele>1073.6409652785</ele>
        <time>2021-01-27T13:18:44Z</time>
      </trkpt>
      <trkpt lat="43.82428" lon="7.44791">
        <ele>1072.6409505444</ele>
        <time>2021-01-27T13:18:46Z</time>
      </trkpt>
      <trkpt lat="43.82428" lon="7.44789">
        <ele>1072.640939321</ele>
        <time>2021-01-27T13:18:47Z</time>
      </trkpt>
      <trkpt lat="43.82428" lon="7.44787">
        <ele>1071.6409423727</ele>
        <time>2021-01-27T13:18:48Z</time>
      </trkpt>
      <trkpt lat="43.82427" lon="7.44785">
        <ele>1072.6409420456</ele>
        <time>2021-01-27T13:18:50Z</time>
      </trkpt>
      <trkpt lat="43.82427" lon="7.44784">
        <ele>1072.6409407667</ele>
        <time>2021-01-27T13:18:51Z</time>
      </trkpt>
      <trkpt lat="43.82427" lon="7.44783">
        <ele>1072.640943042</ele>
        <time>2021-01-27T13:18:52Z</time>
      </trkpt>
      <trkpt lat="43.82427" lon="7.44782">
        <ele>1071.6409307397</ele>
        <time>2021-01-27T13:18:53Z</time>
      </trkpt>
      <trkpt lat="43.82427" lon="7.4478">
        <ele>1071.6409177028</ele>
        <time>2021-01-27T13:18:54Z</time>
      </trkpt>
      <trkpt lat="43.82426" lon="7.44778">
        <ele>1070.6409220184</ele>
        <time>2021-01-27T13:18:56Z</time>
      </trkpt>
      <trkpt lat="43.82425" lon="7.44777">
        <ele>1071.6409366677</ele>
        <time>2021-01-27T13:19:00Z</time>
      </trkpt>
      <trkpt lat="43.82424" lon="7.44775">
        <ele>1070.6409625955</ele>
        <time>2021-01-27T13:19:01Z</time>
      </trkpt>
      <trkpt lat="43.82424" lon="7.44774">
        <ele>1070.6409611937</ele>
        <time>2021-01-27T13:19:02Z</time>
      </trkpt>
      <trkpt lat="43.82424" lon="7.44773">
        <ele>1069.6409489828</ele>
        <time>2021-01-27T13:19:03Z</time>
      </trkpt>
      <trkpt lat="43.82424" lon="7.44771">
        <ele>1068.6409129963</ele>
        <time>2021-01-27T13:19:05Z</time>
      </trkpt>
      <trkpt lat="43.82424" lon="7.44769">
        <ele>1068.6409173453</ele>
        <time>2021-01-27T13:19:07Z</time>
      </trkpt>
      <trkpt lat="43.82423" lon="7.44768">
        <ele>1068.6409224088</ele>
        <time>2021-01-27T13:19:08Z</time>
      </trkpt>
      <trkpt lat="43.82423" lon="7.44767">
        <ele>1067.640926836</ele>
        <time>2021-01-27T13:19:09Z</time>
      </trkpt>
      <trkpt lat="43.82423" lon="7.44766">
        <ele>1067.640924717</ele>
        <time>2021-01-27T13:19:10Z</time>
      </trkpt>
      <trkpt lat="43.82423" lon="7.44765">
        <ele>1066.6409357256</ele>
        <time>2021-01-27T13:19:11Z</time>
      </trkpt>
      <trkpt lat="43.82422" lon="7.44765">
        <ele>1066.640950396</ele>
        <time>2021-01-27T13:19:12Z</time>
      </trkpt>
      <trkpt lat="43.82421" lon="7.44765">
        <ele>1066.6409925071</ele>
        <time>2021-01-27T13:19:13Z</time>
      </trkpt>
      <trkpt lat="43.8242" lon="7.44765">
        <ele>1066.6410371468</ele>
        <time>2021-01-27T13:19:14Z</time>
      </trkpt>
      <trkpt lat="43.82419" lon="7.44766">
        <ele>1065.6411180307</ele>
        <time>2021-01-27T13:19:16Z</time>
      </trkpt>
      <trkpt lat="43.82418" lon="7.44766">
        <ele>1065.6411622943</ele>
        <time>2021-01-27T13:19:17Z</time>
      </trkpt>
      <trkpt lat="43.82417" lon="7.44767">
        <ele>1065.6412175948</ele>
        <time>2021-01-27T13:19:18Z</time>
      </trkpt>
      <trkpt lat="43.82414" lon="7.44766">
        <ele>1064.6413268728</ele>
        <time>2021-01-27T13:19:20Z</time>
      </trkpt>
      <trkpt lat="43.82414" lon="7.44766">
        <ele>1064.6413586148</ele>
        <time>2021-01-27T13:19:22Z</time>
      </trkpt>
      <trkpt lat="43.82413" lon="7.44766">
        <ele>1064.6413958483</ele>
        <time>2021-01-27T13:19:23Z</time>
      </trkpt>
      <trkpt lat="43.82412" lon="7.44766">
        <ele>1064.6414379428</ele>
        <time>2021-01-27T13:19:24Z</time>
      </trkpt>
      <trkpt lat="43.82411" lon="7.44767">
        <ele>1063.641526395</ele>
        <time>2021-01-27T13:19:26Z</time>
      </trkpt>
      <trkpt lat="43.8241" lon="7.44768">
        <ele>1062.6415440207</ele>
        <time>2021-01-27T13:19:27Z</time>
      </trkpt>
      <trkpt lat="43.8241" lon="7.44769">
        <ele>1061.6415876776</ele>
        <time>2021-01-27T13:19:28Z</time>
      </trkpt>
      <trkpt lat="43.82409" lon="7.44769">
        <ele>1061.6416373663</ele>
        <time>2021-01-27T13:19:29Z</time>
      </trkpt>
      <trkpt lat="43.82408" lon="7.4477">
        <ele>1061.6416731189</ele>
        <time>2021-01-27T13:19:30Z</time>
      </trkpt>
      <trkpt lat="43.82407" lon="7.44769">
        <ele>1061.6417128493</ele>
        <time>2021-01-27T13:19:32Z</time>
      </trkpt>
      <trkpt lat="43.82407" lon="7.44768">
        <ele>1062.6417221883</ele>
        <time>2021-01-27T13:19:33Z</time>
      </trkpt>
      <trkpt lat="43.82406" lon="7.44769">
        <ele>1062.6417834589</ele>
        <time>2021-01-27T13:19:35Z</time>
      </trkpt>
      <trkpt lat="43.82405" lon="7.44769">
        <ele>1061.6418099694</ele>
        <time>2021-01-27T13:19:36Z</time>
      </trkpt>
      <trkpt lat="43.82405" lon="7.4477">
        <ele>1061.6418456557</ele>
        <time>2021-01-27T13:19:39Z</time>
      </trkpt>
      <trkpt lat="43.82403" lon="7.4477">
        <ele>1060.6419364695</ele>
        <time>2021-01-27T13:19:40Z</time>
      </trkpt>
      <trkpt lat="43.82402" lon="7.4477">
        <ele>1061.6419686343</ele>
        <time>2021-01-27T13:19:41Z</time>
      </trkpt>
      <trkpt lat="43.82402" lon="7.4477">
        <ele>1061.6419909115</ele>
        <time>2021-01-27T13:19:42Z</time>
      </trkpt>
      <trkpt lat="43.82401" lon="7.4477">
        <ele>1061.6420256349</ele>
        <time>2021-01-27T13:19:43Z</time>
      </trkpt>
      <trkpt lat="43.82401" lon="7.44772">
        <ele>1060.6420614964</ele>
        <time>2021-01-27T13:19:44Z</time>
      </trkpt>
      <trkpt lat="43.824" lon="7.44773">
        <ele>1060.6421223921</ele>
        <time>2021-01-27T13:19:45Z</time>
      </trkpt>
      <trkpt lat="43.82399" lon="7.44774">
        <ele>1059.6421716599</ele>
        <time>2021-01-27T13:19:46Z</time>
      </trkpt>
      <trkpt lat="43.82398" lon="7.44775">
        <ele>1059.6422243578</ele>
        <time>2021-01-27T13:19:47Z</time>
      </trkpt>
      <trkpt lat="43.82398" lon="7.44776">
        <ele>1059.6422671007</ele>
        <time>2021-01-27T13:19:48Z</time>
      </trkpt>
      <trkpt lat="43.82397" lon="7.44777">
        <ele>1059.6423143338</ele>
        <time>2021-01-27T13:19:49Z</time>
      </trkpt>
      <trkpt lat="43.82396" lon="7.44778">
        <ele>1058.6423589426</ele>
        <time>2021-01-27T13:19:50Z</time>
      </trkpt>
      <trkpt lat="43.82395" lon="7.44781">
        <ele>1058.6424702799</ele>
        <time>2021-01-27T13:19:52Z</time>
      </trkpt>
      <trkpt lat="43.82394" lon="7.44782">
        <ele>1058.6425308454</ele>
        <time>2021-01-27T13:19:53Z</time>
      </trkpt>
      <trkpt lat="43.82393" lon="7.44783">
        <ele>1057.6425835785</ele>
        <time>2021-01-27T13:19:54Z</time>
      </trkpt>
      <trkpt lat="43.82392" lon="7.44784">
        <ele>1057.64262188</ele>
        <time>2021-01-27T13:19:55Z</time>
      </trkpt>
      <trkpt lat="43.82392" lon="7.44785">
        <ele>1057.6426440884</ele>
        <time>2021-01-27T13:19:56Z</time>
      </trkpt>
      <trkpt lat="43.82392" lon="7.44786">
        <ele>1057.6426657266</ele>
        <time>2021-01-27T13:19:57Z</time>
      </trkpt>
      <trkpt lat="43.82391" lon="7.44786">
        <ele>1056.6426954448</ele>
        <time>2021-01-27T13:19:59Z</time>
      </trkpt>
      <trkpt lat="43.8239" lon="7.44784">
        <ele>1055.6427203475</ele>
        <time>2021-01-27T13:20:01Z</time>
      </trkpt>
      <trkpt lat="43.82389" lon="7.44783">
        <ele>1056.6427424242</ele>
        <time>2021-01-27T13:20:03Z</time>
      </trkpt>
      <trkpt lat="43.82389" lon="7.44783">
        <ele>1056.6427481313</ele>
        <time>2021-01-27T13:20:04Z</time>
      </trkpt>
      <trkpt lat="43.82389" lon="7.44782">
        <ele>1056.6427602225</ele>
        <time>2021-01-27T13:20:06Z</time>
      </trkpt>
      <trkpt lat="43.82388" lon="7.44781">
        <ele>1055.6427876803</ele>
        <time>2021-01-27T13:20:07Z</time>
      </trkpt>
      <trkpt lat="43.82388" lon="7.44781">
        <ele>1055.6428150177</ele>
        <time>2021-01-27T13:20:08Z</time>
      </trkpt>
      <trkpt lat="43.82386" lon="7.44782">
        <ele>1055.6428824128</ele>
        <time>2021-01-27T13:20:09Z</time>
      </trkpt>
      <trkpt lat="43.82384" lon="7.44781">
        <ele>1055.6429724947</ele>
        <time>2021-01-27T13:20:11Z</time>
      </trkpt>
      <trkpt lat="43.82383" lon="7.44782">
        <ele>1055.6430157892</ele>
        <time>2021-01-27T13:20:12Z</time>
      </trkpt>
      <trkpt lat="43.82383" lon="7.44781">
        <ele>1055.643034056</ele>
        <time>2021-01-27T13:20:13Z</time>
      </trkpt>
      <trkpt lat="43.82382" lon="7.44781">
        <ele>1054.6430644854</ele>
        <time>2021-01-27T13:20:14Z</time>
      </trkpt>
      <trkpt lat="43.82382" lon="7.44782">
        <ele>1053.6430850891</ele>
        <time>2021-01-27T13:20:15Z</time>
      </trkpt>
      <trkpt lat="43.82382" lon="7.44782">
        <ele>1053.6431106592</ele>
        <time>2021-01-27T13:20:16Z</time>
      </trkpt>
      <trkpt lat="43.82381" lon="7.44782">
        <ele>1053.6431405727</ele>
        <time>2021-01-27T13:20:17Z</time>
      </trkpt>
      <trkpt lat="43.8238" lon="7.44782">
        <ele>1053.643187437</ele>
        <time>2021-01-27T13:20:18Z</time>
      </trkpt>
      <trkpt lat="43.82379" lon="7.44782">
        <ele>1053.6432182743</ele>
        <time>2021-01-27T13:20:19Z</time>
      </trkpt>
      <trkpt lat="43.82378" lon="7.44782">
        <ele>1051.6432941793</ele>
        <time>2021-01-27T13:20:21Z</time>
      </trkpt>
      <trkpt lat="43.82377" lon="7.44783">
        <ele>1051.6433266682</ele>
        <time>2021-01-27T13:20:22Z</time>
      </trkpt>
      <trkpt lat="43.82377" lon="7.44783">
        <ele>1051.6433621543</ele>
        <time>2021-01-27T13:20:23Z</time>
      </trkpt>
      <trkpt lat="43.82376" lon="7.44784">
        <ele>1050.6433959533</ele>
        <time>2021-01-27T13:20:24Z</time>
      </trkpt>
      <trkpt lat="43.82376" lon="7.44784">
        <ele>1050.6434223908</ele>
        <time>2021-01-27T13:20:25Z</time>
      </trkpt>
      <trkpt lat="43.82375" lon="7.44784">
        <ele>1050.643464622</ele>
        <time>2021-01-27T13:20:26Z</time>
      </trkpt>
      <trkpt lat="43.82374" lon="7.44784">
        <ele>1049.6435168766</ele>
        <time>2021-01-27T13:20:27Z</time>
      </trkpt>
      <trkpt lat="43.82373" lon="7.44784">
        <ele>1049.6435465046</ele>
        <time>2021-01-27T13:20:28Z</time>
      </trkpt>
      <trkpt lat="43.82372" lon="7.44783">
        <ele>1048.6435714395</ele>
        <time>2021-01-27T13:20:29Z</time>
      </trkpt>
      <trkpt lat="43.82371" lon="7.44783">
        <ele>1049.6436453154</ele>
        <time>2021-01-27T13:20:31Z</time>
      </trkpt>
      <trkpt lat="43.8237" lon="7.44783">
        <ele>1049.6436810904</ele>
        <time>2021-01-27T13:20:32Z</time>
      </trkpt>
      <trkpt lat="43.8237" lon="7.44782">
        <ele>1048.6436907871</ele>
        <time>2021-01-27T13:20:33Z</time>
      </trkpt>
      <trkpt lat="43.82369" lon="7.44782">
        <ele>1048.6437135418</ele>
        <time>2021-01-27T13:20:34Z</time>
      </trkpt>
      <trkpt lat="43.82368" lon="7.44781">
        <ele>1047.6437528735</ele>
        <time>2021-01-27T13:20:35Z</time>
      </trkpt>
      <trkpt lat="43.82367" lon="7.44781">
        <ele>1047.6438155579</ele>
        <time>2021-01-27T13:20:37Z</time>
      </trkpt>
      <trkpt lat="43.82366" lon="7.44778">
        <ele>1046.6438322513</ele>
        <time>2021-01-27T13:20:39Z</time>
      </trkpt>
      <trkpt lat="43.82366" lon="7.44777">
        <ele>1046.6438301323</ele>
        <time>2021-01-27T13:20:40Z</time>
      </trkpt>
      <trkpt lat="43.82365" lon="7.44777">
        <ele>1046.6438481981</ele>
        <time>2021-01-27T13:20:41Z</time>
      </trkpt>
      <trkpt lat="43.82365" lon="7.44776">
        <ele>1046.6438552051</ele>
        <time>2021-01-27T13:20:42Z</time>
      </trkpt>
      <trkpt lat="43.82364" lon="7.44776">
        <ele>1046.6438763854</ele>
        <time>2021-01-27T13:20:45Z</time>
      </trkpt>
      <trkpt lat="43.82363" lon="7.44779">
        <ele>1044.6439832198</ele>
        <time>2021-01-27T13:20:47Z</time>
      </trkpt>
      <trkpt lat="43.82362" lon="7.44779">
        <ele>1044.6440277044</ele>
        <time>2021-01-27T13:20:48Z</time>
      </trkpt>
      <trkpt lat="43.82361" lon="7.44779">
        <ele>1044.64405926</ele>
        <time>2021-01-27T13:20:49Z</time>
      </trkpt>
      <trkpt lat="43.82361" lon="7.4478">
        <ele>1044.6441014879</ele>
        <time>2021-01-27T13:20:50Z</time>
      </trkpt>
      <trkpt lat="43.8236" lon="7.44779">
        <ele>1044.6441128987</ele>
        <time>2021-01-27T13:20:52Z</time>
      </trkpt>
      <trkpt lat="43.82359" lon="7.44779">
        <ele>1043.6441562398</ele>
        <time>2021-01-27T13:20:53Z</time>
      </trkpt>
      <trkpt lat="43.82359" lon="7.4478">
        <ele>1043.6441986622</ele>
        <time>2021-01-27T13:20:56Z</time>
      </trkpt>
      <trkpt lat="43.82356" lon="7.44782">
        <ele>1042.644337437</ele>
        <time>2021-01-27T13:20:59Z</time>
      </trkpt>
      <trkpt lat="43.82356" lon="7.44782">
        <ele>1042.6443575241</ele>
        <time>2021-01-27T13:21:00Z</time>
      </trkpt>
      <trkpt lat="43.82355" lon="7.44784">
        <ele>1041.6444294087</ele>
        <time>2021-01-27T13:21:02Z</time>
      </trkpt>
      <trkpt lat="43.82355" lon="7.44785">
        <ele>1040.6444454704</ele>
        <time>2021-01-27T13:21:03Z</time>
      </trkpt>
      <trkpt lat="43.82355" lon="7.44785">
        <ele>1040.6444601082</ele>
        <time>2021-01-27T13:21:04Z</time>
      </trkpt>
      <trkpt lat="43.82353" lon="7.44786">
        <ele>1039.6445261397</ele>
        <time>2021-01-27T13:21:06Z</time>
      </trkpt>
      <trkpt lat="43.82353" lon="7.44786">
        <ele>1039.6445482733</ele>
        <time>2021-01-27T13:21:07Z</time>
      </trkpt>
      <trkpt lat="43.82352" lon="7.44787">
        <ele>1039.6445782395</ele>
        <time>2021-01-27T13:21:08Z</time>
      </trkpt>
      <trkpt lat="43.82352" lon="7.44788">
        <ele>1039.6446160017</ele>
        <time>2021-01-27T13:21:10Z</time>
      </trkpt>
      <trkpt lat="43.82351" lon="7.44788">
        <ele>1038.6446736466</ele>
        <time>2021-01-27T13:21:11Z</time>
      </trkpt>
      <trkpt lat="43.82349" lon="7.44788">
        <ele>1038.6447341063</ele>
        <time>2021-01-27T13:21:12Z</time>
      </trkpt>
      <trkpt lat="43.82349" lon="7.44789">
        <ele>1037.644774246</ele>
        <time>2021-01-27T13:21:13Z</time>
      </trkpt>
      <trkpt lat="43.82349" lon="7.4479">
        <ele>1037.6448048465</ele>
        <time>2021-01-27T13:21:14Z</time>
      </trkpt>
      <trkpt lat="43.82348" lon="7.44792">
        <ele>1036.6448378766</ele>
        <time>2021-01-27T13:21:15Z</time>
      </trkpt>
      <trkpt lat="43.82347" lon="7.44794">
        <ele>1036.6449132651</ele>
        <time>2021-01-27T13:21:17Z</time>
      </trkpt>
      <trkpt lat="43.82347" lon="7.44795">
        <ele>1036.644931253</ele>
        <time>2021-01-27T13:21:18Z</time>
      </trkpt>
      <trkpt lat="43.82347" lon="7.44795">
        <ele>1037.6449562088</ele>
        <time>2021-01-27T13:21:19Z</time>
      </trkpt>
      <trkpt lat="43.82346" lon="7.44796">
        <ele>1036.6449843446</ele>
        <time>2021-01-27T13:21:20Z</time>
      </trkpt>
      <trkpt lat="43.82346" lon="7.44796">
        <ele>1036.6450021401</ele>
        <time>2021-01-27T13:21:23Z</time>
      </trkpt>
      <trkpt lat="43.82346" lon="7.44794">
        <ele>1034.6449913989</ele>
        <time>2021-01-27T13:21:24Z</time>
      </trkpt>
      <trkpt lat="43.82345" lon="7.44794">
        <ele>1034.6450315808</ele>
        <time>2021-01-27T13:21:25Z</time>
      </trkpt>
      <trkpt lat="43.82344" lon="7.44793">
        <ele>1034.6450804528</ele>
        <time>2021-01-27T13:21:26Z</time>
      </trkpt>
      <trkpt lat="43.82343" lon="7.44793">
        <ele>1034.6451152317</ele>
        <time>2021-01-27T13:21:27Z</time>
      </trkpt>
      <trkpt lat="43.82342" lon="7.44792">
        <ele>1034.6451554649</ele>
        <time>2021-01-27T13:21:28Z</time>
      </trkpt>
      <trkpt lat="43.82341" lon="7.44791">
        <ele>1034.6451726305</ele>
        <time>2021-01-27T13:21:29Z</time>
      </trkpt>
      <trkpt lat="43.82341" lon="7.4479">
        <ele>1034.6451591199</ele>
        <time>2021-01-27T13:21:30Z</time>
      </trkpt>
      <trkpt lat="43.82342" lon="7.44788">
        <ele>1034.6451167038</ele>
        <time>2021-01-27T13:21:32Z</time>
      </trkpt>
      <trkpt lat="43.82341" lon="7.44787">
        <ele>1033.6451280203</ele>
        <time>2021-01-27T13:21:35Z</time>
      </trkpt>
      <trkpt lat="43.82339" lon="7.44787">
        <ele>1031.6452078681</ele>
        <time>2021-01-27T13:21:36Z</time>
      </trkpt>
      <trkpt lat="43.82339" lon="7.44787">
        <ele>1031.6452365671</ele>
        <time>2021-01-27T13:21:37Z</time>
      </trkpt>
      <trkpt lat="43.82338" lon="7.44786">
        <ele>1031.6452674366</ele>
        <time>2021-01-27T13:21:38Z</time>
      </trkpt>
      <trkpt lat="43.82337" lon="7.44785">
        <ele>1031.6452956623</ele>
        <time>2021-01-27T13:21:39Z</time>
      </trkpt>
      <trkpt lat="43.82336" lon="7.44785">
        <ele>1031.64533953</ele>
        <time>2021-01-27T13:21:40Z</time>
      </trkpt>
      <trkpt lat="43.82336" lon="7.44785">
        <ele>1031.6453725199</ele>
        <time>2021-01-27T13:21:41Z</time>
      </trkpt>
      <trkpt lat="43.82335" lon="7.44785">
        <ele>1031.64541824</ele>
        <time>2021-01-27T13:21:42Z</time>
      </trkpt>
      <trkpt lat="43.82334" lon="7.44785">
        <ele>1031.6454453341</ele>
        <time>2021-01-27T13:21:43Z</time>
      </trkpt>
      <trkpt lat="43.82334" lon="7.44785">
        <ele>1030.645456519</ele>
        <time>2021-01-27T13:21:44Z</time>
      </trkpt>
      <trkpt lat="43.82333" lon="7.44785">
        <ele>1030.6455004416</ele>
        <time>2021-01-27T13:21:45Z</time>
      </trkpt>
      <trkpt lat="43.82332" lon="7.44785">
        <ele>1030.6455441273</ele>
        <time>2021-01-27T13:21:46Z</time>
      </trkpt>
      <trkpt lat="43.82331" lon="7.44784">
        <ele>1029.6455893222</ele>
        <time>2021-01-27T13:21:47Z</time>
      </trkpt>
      <trkpt lat="43.8233" lon="7.44783">
        <ele>1028.645602158</ele>
        <time>2021-01-27T13:21:48Z</time>
      </trkpt>
      <trkpt lat="43.8233" lon="7.44782">
        <ele>1028.6456159805</ele>
        <time>2021-01-27T13:21:49Z</time>
      </trkpt>
      <trkpt lat="43.82329" lon="7.44781">
        <ele>1028.6456317123</ele>
        <time>2021-01-27T13:21:50Z</time>
      </trkpt>
      <trkpt lat="43.82329" lon="7.44781">
        <ele>1027.6456473621</ele>
        <time>2021-01-27T13:21:51Z</time>
      </trkpt>
      <trkpt lat="43.82328" lon="7.44781">
        <ele>1027.6456839215</ele>
        <time>2021-01-27T13:21:52Z</time>
      </trkpt>
      <trkpt lat="43.82328" lon="7.4478">
        <ele>1027.6457043559</ele>
        <time>2021-01-27T13:21:53Z</time>
      </trkpt>
      <trkpt lat="43.82327" lon="7.4478">
        <ele>1027.6457419177</ele>
        <time>2021-01-27T13:21:54Z</time>
      </trkpt>
      <trkpt lat="43.82326" lon="7.44779">
        <ele>1027.6457684699</ele>
        <time>2021-01-27T13:21:55Z</time>
      </trkpt>
      <trkpt lat="43.82325" lon="7.44779">
        <ele>1027.6457946433</ele>
        <time>2021-01-27T13:21:56Z</time>
      </trkpt>
      <trkpt lat="43.82324" lon="7.44778">
        <ele>1027.6458275852</ele>
        <time>2021-01-27T13:21:57Z</time>
      </trkpt>
      <trkpt lat="43.82324" lon="7.44777">
        <ele>1027.6458581949</ele>
        <time>2021-01-27T13:21:58Z</time>
      </trkpt>
      <trkpt lat="43.82323" lon="7.44777">
        <ele>1027.6458924692</ele>
        <time>2021-01-27T13:21:59Z</time>
      </trkpt>
      <trkpt lat="43.82322" lon="7.44778">
        <ele>1027.6459205805</ele>
        <time>2021-01-27T13:22:00Z</time>
      </trkpt>
      <trkpt lat="43.82322" lon="7.44778">
        <ele>1027.6459561874</ele>
        <time>2021-01-27T13:22:01Z</time>
      </trkpt>
      <trkpt lat="43.82321" lon="7.44778">
        <ele>1026.6460089686</ele>
        <time>2021-01-27T13:22:02Z</time>
      </trkpt>
      <trkpt lat="43.8232" lon="7.44779">
        <ele>1025.646067475</ele>
        <time>2021-01-27T13:22:03Z</time>
      </trkpt>
      <trkpt lat="43.82319" lon="7.4478">
        <ele>1024.6460966659</ele>
        <time>2021-01-27T13:22:04Z</time>
      </trkpt>
      <trkpt lat="43.82319" lon="7.44781">
        <ele>1024.6461225376</ele>
        <time>2021-01-27T13:22:05Z</time>
      </trkpt>
      <trkpt lat="43.82319" lon="7.44782">
        <ele>1023.6461613831</ele>
        <time>2021-01-27T13:22:06Z</time>
      </trkpt>
      <trkpt lat="43.82318" lon="7.44783">
        <ele>1023.6461914378</ele>
        <time>2021-01-27T13:22:07Z</time>
      </trkpt>
      <trkpt lat="43.82318" lon="7.44785">
        <ele>1023.6462238626</ele>
        <time>2021-01-27T13:22:08Z</time>
      </trkpt>
      <trkpt lat="43.82317" lon="7.44786">
        <ele>1023.6462755992</ele>
        <time>2021-01-27T13:22:09Z</time>
      </trkpt>
      <trkpt lat="43.82317" lon="7.44788">
        <ele>1022.6463022557</ele>
        <time>2021-01-27T13:22:10Z</time>
      </trkpt>
      <trkpt lat="43.82316" lon="7.44789">
        <ele>1022.6463659649</ele>
        <time>2021-01-27T13:22:11Z</time>
      </trkpt>
      <trkpt lat="43.82315" lon="7.4479">
        <ele>1022.6464158419</ele>
        <time>2021-01-27T13:22:12Z</time>
      </trkpt>
      <trkpt lat="43.82314" lon="7.44791">
        <ele>1022.6464648527</ele>
        <time>2021-01-27T13:22:13Z</time>
      </trkpt>
      <trkpt lat="43.82313" lon="7.44791">
        <ele>1022.6465048636</ele>
        <time>2021-01-27T13:22:14Z</time>
      </trkpt>
      <trkpt lat="43.82313" lon="7.44789">
        <ele>1021.646526434</ele>
        <time>2021-01-27T13:22:15Z</time>
      </trkpt>
      <trkpt lat="43.82312" lon="7.44788">
        <ele>1021.646532901</ele>
        <time>2021-01-27T13:22:16Z</time>
      </trkpt>
      <trkpt lat="43.82312" lon="7.44786">
        <ele>1021.6465310329</ele>
        <time>2021-01-27T13:22:17Z</time>
      </trkpt>
      <trkpt lat="43.82312" lon="7.44786">
        <ele>1021.646540155</ele>
        <time>2021-01-27T13:22:18Z</time>
      </trkpt>
      <trkpt lat="43.82311" lon="7.44785">
        <ele>1020.6465500746</ele>
        <time>2021-01-27T13:22:19Z</time>
      </trkpt>
      <trkpt lat="43.8231" lon="7.44784">
        <ele>1020.6465802304</ele>
        <time>2021-01-27T13:22:20Z</time>
      </trkpt>
      <trkpt lat="43.8231" lon="7.44784">
        <ele>1019.6465976879</ele>
        <time>2021-01-27T13:22:21Z</time>
      </trkpt>
      <trkpt lat="43.82309" lon="7.44783">
        <ele>1019.6466119637</ele>
        <time>2021-01-27T13:22:22Z</time>
      </trkpt>
      <trkpt lat="43.82309" lon="7.44783">
        <ele>1019.6466201217</ele>
        <time>2021-01-27T13:22:23Z</time>
      </trkpt>
      <trkpt lat="43.82309" lon="7.44782">
        <ele>1019.6466347913</ele>
        <time>2021-01-27T13:22:24Z</time>
      </trkpt>
      <trkpt lat="43.82308" lon="7.44781">
        <ele>1018.6466605935</ele>
        <time>2021-01-27T13:22:25Z</time>
      </trkpt>
      <trkpt lat="43.82307" lon="7.4478">
        <ele>1018.64667585</ele>
        <time>2021-01-27T13:22:26Z</time>
      </trkpt>
      <trkpt lat="43.82307" lon="7.4478">
        <ele>1018.6466861683</ele>
        <time>2021-01-27T13:22:27Z</time>
      </trkpt>
      <trkpt lat="43.82306" lon="7.44779">
        <ele>1018.6467371053</ele>
        <time>2021-01-27T13:22:28Z</time>
      </trkpt>
      <trkpt lat="43.82305" lon="7.4478">
        <ele>1017.646775204</ele>
        <time>2021-01-27T13:22:29Z</time>
      </trkpt>
      <trkpt lat="43.82304" lon="7.44781">
        <ele>1017.6468384298</ele>
        <time>2021-01-27T13:22:30Z</time>
      </trkpt>
      <trkpt lat="43.82304" lon="7.44782">
        <ele>1016.646875371</ele>
        <time>2021-01-27T13:22:31Z</time>
      </trkpt>
      <trkpt lat="43.82303" lon="7.44782">
        <ele>1016.6469070048</ele>
        <time>2021-01-27T13:22:32Z</time>
      </trkpt>
      <trkpt lat="43.82302" lon="7.44783">
        <ele>1016.6469497724</ele>
        <time>2021-01-27T13:22:33Z</time>
      </trkpt>
      <trkpt lat="43.82301" lon="7.44782">
        <ele>1016.6469990373</ele>
        <time>2021-01-27T13:22:34Z</time>
      </trkpt>
      <trkpt lat="43.823" lon="7.44782">
        <ele>1015.6470408369</ele>
        <time>2021-01-27T13:22:35Z</time>
      </trkpt>
      <trkpt lat="43.823" lon="7.44781">
        <ele>1015.6470529445</ele>
        <time>2021-01-27T13:22:36Z</time>
      </trkpt>
      <trkpt lat="43.82299" lon="7.4478">
        <ele>1015.647063451</ele>
        <time>2021-01-27T13:22:37Z</time>
      </trkpt>
      <trkpt lat="43.82299" lon="7.4478">
        <ele>1015.6470888689</ele>
        <time>2021-01-27T13:22:38Z</time>
      </trkpt>
      <trkpt lat="43.82298" lon="7.4478">
        <ele>1014.6471223548</ele>
        <time>2021-01-27T13:22:39Z</time>
      </trkpt>
      <trkpt lat="43.82296" lon="7.44778">
        <ele>1014.6471956028</ele>
        <time>2021-01-27T13:22:41Z</time>
      </trkpt>
      <trkpt lat="43.82296" lon="7.44777">
        <ele>1013.6472004021</ele>
        <time>2021-01-27T13:22:42Z</time>
      </trkpt>
      <trkpt lat="43.82295" lon="7.44775">
        <ele>1012.6472151695</ele>
        <time>2021-01-27T13:22:43Z</time>
      </trkpt>
      <trkpt lat="43.82295" lon="7.44774">
        <ele>1012.6472247743</ele>
        <time>2021-01-27T13:22:44Z</time>
      </trkpt>
      <trkpt lat="43.82294" lon="7.44773">
        <ele>1012.6472393337</ele>
        <time>2021-01-27T13:22:45Z</time>
      </trkpt>
      <trkpt lat="43.82293" lon="7.44774">
        <ele>1012.6472957284</ele>
        <time>2021-01-27T13:22:46Z</time>
      </trkpt>
      <trkpt lat="43.82292" lon="7.44773">
        <ele>1012.6473493916</ele>
        <time>2021-01-27T13:22:47Z</time>
      </trkpt>
      <trkpt lat="43.82291" lon="7.44773">
        <ele>1011.6473864675</ele>
        <time>2021-01-27T13:22:48Z</time>
      </trkpt>
      <trkpt lat="43.8229" lon="7.44772">
        <ele>1010.6474075113</ele>
        <time>2021-01-27T13:22:49Z</time>
      </trkpt>
      <trkpt lat="43.82289" lon="7.44772">
        <ele>1010.6474510573</ele>
        <time>2021-01-27T13:22:50Z</time>
      </trkpt>
      <trkpt lat="43.82288" lon="7.44773">
        <ele>1010.6475100135</ele>
        <time>2021-01-27T13:22:52Z</time>
      </trkpt>
      <trkpt lat="43.82288" lon="7.44773">
        <ele>1009.6475355526</ele>
        <time>2021-01-27T13:22:53Z</time>
      </trkpt>
      <trkpt lat="43.82287" lon="7.44773">
        <ele>1009.6475636762</ele>
        <time>2021-01-27T13:22:54Z</time>
      </trkpt>
      <trkpt lat="43.82287" lon="7.44773">
        <ele>1009.6475864786</ele>
        <time>2021-01-27T13:22:55Z</time>
      </trkpt>
      <trkpt lat="43.82286" lon="7.44773">
        <ele>1008.6476172113</ele>
        <time>2021-01-27T13:22:56Z</time>
      </trkpt>
      <trkpt lat="43.82285" lon="7.44772">
        <ele>1008.6476577986</ele>
        <time>2021-01-27T13:22:57Z</time>
      </trkpt>
      <trkpt lat="43.82284" lon="7.44772">
        <ele>1007.6477091195</ele>
        <time>2021-01-27T13:22:58Z</time>
      </trkpt>
      <trkpt lat="43.82283" lon="7.44772">
        <ele>1008.6477543958</ele>
        <time>2021-01-27T13:22:59Z</time>
      </trkpt>
      <trkpt lat="43.82283" lon="7.44772">
        <ele>1008.6477870167</ele>
        <time>2021-01-27T13:23:00Z</time>
      </trkpt>
      <trkpt lat="43.82282" lon="7.44773">
        <ele>1007.647815458</ele>
        <time>2021-01-27T13:23:01Z</time>
      </trkpt>
      <trkpt lat="43.82282" lon="7.44774">
        <ele>1007.6478454831</ele>
        <time>2021-01-27T13:23:02Z</time>
      </trkpt>
      <trkpt lat="43.82281" lon="7.44773">
        <ele>1007.6478817975</ele>
        <time>2021-01-27T13:23:03Z</time>
      </trkpt>
      <trkpt lat="43.8228" lon="7.44773">
        <ele>1007.6479177337</ele>
        <time>2021-01-27T13:23:04Z</time>
      </trkpt>
      <trkpt lat="43.82279" lon="7.44773">
        <ele>1007.6479490376</ele>
        <time>2021-01-27T13:23:05Z</time>
      </trkpt>
      <trkpt lat="43.82279" lon="7.44773">
        <ele>1007.6479842367</ele>
        <time>2021-01-27T13:23:06Z</time>
      </trkpt>
      <trkpt lat="43.82278" lon="7.44772">
        <ele>1007.6480132429</ele>
        <time>2021-01-27T13:23:07Z</time>
      </trkpt>
      <trkpt lat="43.82277" lon="7.44772">
        <ele>1006.6480373631</ele>
        <time>2021-01-27T13:23:08Z</time>
      </trkpt>
      <trkpt lat="43.82277" lon="7.44771">
        <ele>1006.6480583242</ele>
        <time>2021-01-27T13:23:09Z</time>
      </trkpt>
      <trkpt lat="43.82276" lon="7.44771">
        <ele>1006.6480845176</ele>
        <time>2021-01-27T13:23:10Z</time>
      </trkpt>
      <trkpt lat="43.82275" lon="7.44771">
        <ele>1005.6481198119</ele>
        <time>2021-01-27T13:23:11Z</time>
      </trkpt>
      <trkpt lat="43.82274" lon="7.4477">
        <ele>1005.6481699724</ele>
        <time>2021-01-27T13:23:12Z</time>
      </trkpt>
      <trkpt lat="43.82273" lon="7.44769">
        <ele>1004.6482133357</ele>
        <time>2021-01-27T13:23:13Z</time>
      </trkpt>
      <trkpt lat="43.82272" lon="7.44768">
        <ele>1004.6482457135</ele>
        <time>2021-01-27T13:23:14Z</time>
      </trkpt>
      <trkpt lat="43.82271" lon="7.44767">
        <ele>1004.6482927273</ele>
        <time>2021-01-27T13:23:15Z</time>
      </trkpt>
      <trkpt lat="43.82269" lon="7.44765">
        <ele>1003.6483755195</ele>
        <time>2021-01-27T13:23:17Z</time>
      </trkpt>
      <trkpt lat="43.82267" lon="7.44765">
        <ele>1003.6484409149</ele>
        <time>2021-01-27T13:23:18Z</time>
      </trkpt>
      <trkpt lat="43.82267" lon="7.44765">
        <ele>1003.6484735717</ele>
        <time>2021-01-27T13:23:19Z</time>
      </trkpt>
      <trkpt lat="43.82266" lon="7.44766">
        <ele>1002.6485062665</ele>
        <time>2021-01-27T13:23:20Z</time>
      </trkpt>
      <trkpt lat="43.82265" lon="7.44766">
        <ele>1002.6485494461</ele>
        <time>2021-01-27T13:23:21Z</time>
      </trkpt>
      <trkpt lat="43.82265" lon="7.44767">
        <ele>1001.6485788009</ele>
        <time>2021-01-27T13:23:22Z</time>
      </trkpt>
      <trkpt lat="43.82264" lon="7.44768">
        <ele>1000.6486147639</ele>
        <time>2021-01-27T13:23:23Z</time>
      </trkpt>
      <trkpt lat="43.82264" lon="7.44769">
        <ele>1000.6486557587</ele>
        <time>2021-01-27T13:23:24Z</time>
      </trkpt>
      <trkpt lat="43.82263" lon="7.44769">
        <ele>1001.6487084067</ele>
        <time>2021-01-27T13:23:26Z</time>
      </trkpt>
      <trkpt lat="43.82262" lon="7.44769">
        <ele>1001.6487427674</ele>
        <time>2021-01-27T13:23:28Z</time>
      </trkpt>
      <trkpt lat="43.82261" lon="7.44769">
        <ele>1000.6487698971</ele>
        <time>2021-01-27T13:23:35Z</time>
      </trkpt>
      <trkpt lat="43.82261" lon="7.44769">
        <ele>999.648809104</ele>
        <time>2021-01-27T13:23:37Z</time>
      </trkpt>
      <trkpt lat="43.8226" lon="7.4477">
        <ele>999.64884472697</ele>
        <time>2021-01-27T13:23:38Z</time>
      </trkpt>
      <trkpt lat="43.82259" lon="7.4477">
        <ele>999.64889813277</ele>
        <time>2021-01-27T13:23:39Z</time>
      </trkpt>
      <trkpt lat="43.82259" lon="7.44771">
        <ele>998.64893069046</ele>
        <time>2021-01-27T13:23:40Z</time>
      </trkpt>
      <trkpt lat="43.82258" lon="7.44772">
        <ele>998.64896105758</ele>
        <time>2021-01-27T13:23:41Z</time>
      </trkpt>
      <trkpt lat="43.82257" lon="7.44772">
        <ele>998.64901028335</ele>
        <time>2021-01-27T13:23:42Z</time>
      </trkpt>
      <trkpt lat="43.82257" lon="7.44772">
        <ele>997.64904309612</ele>
        <time>2021-01-27T13:23:43Z</time>
      </trkpt>
      <trkpt lat="43.82256" lon="7.44773">
        <ele>997.64907854335</ele>
        <time>2021-01-27T13:23:44Z</time>
      </trkpt>
      <trkpt lat="43.82255" lon="7.44773">
        <ele>997.64911988437</ele>
        <time>2021-01-27T13:23:45Z</time>
      </trkpt>
      <trkpt lat="43.82254" lon="7.44775">
        <ele>997.64922267615</ele>
        <time>2021-01-27T13:23:47Z</time>
      </trkpt>
      <trkpt lat="43.82253" lon="7.44776">
        <ele>997.649272702</ele>
        <time>2021-01-27T13:23:48Z</time>
      </trkpt>
      <trkpt lat="43.82252" lon="7.44777">
        <ele>997.64932942919</ele>
        <time>2021-01-27T13:23:49Z</time>
      </trkpt>
      <trkpt lat="43.82251" lon="7.44778">
        <ele>997.64939087062</ele>
        <time>2021-01-27T13:23:50Z</time>
      </trkpt>
      <trkpt lat="43.8225" lon="7.4478">
        <ele>996.64945053263</ele>
        <time>2021-01-27T13:23:51Z</time>
      </trkpt>
      <trkpt lat="43.82249" lon="7.44781">
        <ele>996.64948836254</ele>
        <time>2021-01-27T13:23:52Z</time>
      </trkpt>
      <trkpt lat="43.82249" lon="7.44782">
        <ele>995.64951922145</ele>
        <time>2021-01-27T13:23:53Z</time>
      </trkpt>
      <trkpt lat="43.82249" lon="7.44784">
        <ele>995.64956103453</ele>
        <time>2021-01-27T13:23:54Z</time>
      </trkpt>
      <trkpt lat="43.82247" lon="7.44786">
        <ele>996.64968154544</ele>
        <time>2021-01-27T13:23:56Z</time>
      </trkpt>
      <trkpt lat="43.82246" lon="7.44787">
        <ele>995.64970028507</ele>
        <time>2021-01-27T13:23:57Z</time>
      </trkpt>
      <trkpt lat="43.82246" lon="7.44788">
        <ele>995.64973096391</ele>
        <time>2021-01-27T13:23:58Z</time>
      </trkpt>
      <trkpt lat="43.82245" lon="7.44789">
        <ele>995.64978758791</ele>
        <time>2021-01-27T13:23:59Z</time>
      </trkpt>
      <trkpt lat="43.82243" lon="7.4479">
        <ele>992.64989064913</ele>
        <time>2021-01-27T13:24:01Z</time>
      </trkpt>
      <trkpt lat="43.82242" lon="7.4479">
        <ele>993.64993558692</ele>
        <time>2021-01-27T13:24:02Z</time>
      </trkpt>
      <trkpt lat="43.82242" lon="7.44791">
        <ele>993.64997037357</ele>
        <time>2021-01-27T13:24:03Z</time>
      </trkpt>
      <trkpt lat="43.82241" lon="7.44791">
        <ele>993.65001086746</ele>
        <time>2021-01-27T13:24:04Z</time>
      </trkpt>
      <trkpt lat="43.8224" lon="7.44791">
        <ele>993.65004379894</ele>
        <time>2021-01-27T13:24:05Z</time>
      </trkpt>
      <trkpt lat="43.8224" lon="7.44792">
        <ele>993.65008325014</ele>
        <time>2021-01-27T13:24:06Z</time>
      </trkpt>
      <trkpt lat="43.82239" lon="7.44792">
        <ele>993.65013884134</ele>
        <time>2021-01-27T13:24:07Z</time>
      </trkpt>
      <trkpt lat="43.82238" lon="7.44793">
        <ele>993.65019020678</ele>
        <time>2021-01-27T13:24:08Z</time>
      </trkpt>
      <trkpt lat="43.82237" lon="7.44792">
        <ele>993.65022765912</ele>
        <time>2021-01-27T13:24:09Z</time>
      </trkpt>
      <trkpt lat="43.82236" lon="7.44792">
        <ele>993.65026831446</ele>
        <time>2021-01-27T13:24:10Z</time>
      </trkpt>
      <trkpt lat="43.82234" lon="7.44792">
        <ele>993.65033826574</ele>
        <time>2021-01-27T13:24:12Z</time>
      </trkpt>
      <trkpt lat="43.82233" lon="7.44792">
        <ele>993.65040011812</ele>
        <time>2021-01-27T13:24:13Z</time>
      </trkpt>
      <trkpt lat="43.82232" lon="7.44792">
        <ele>993.65043242537</ele>
        <time>2021-01-27T13:24:14Z</time>
      </trkpt>
      <trkpt lat="43.82232" lon="7.44792">
        <ele>993.65046493744</ele>
        <time>2021-01-27T13:24:15Z</time>
      </trkpt>
      <trkpt lat="43.82232" lon="7.44793">
        <ele>992.65047317271</ele>
        <time>2021-01-27T13:24:16Z</time>
      </trkpt>
      <trkpt lat="43.82231" lon="7.44794">
        <ele>992.65051040097</ele>
        <time>2021-01-27T13:24:20Z</time>
      </trkpt>
      <trkpt lat="43.8223" lon="7.44796">
        <ele>992.65061848033</ele>
        <time>2021-01-27T13:24:21Z</time>
      </trkpt>
      <trkpt lat="43.82229" lon="7.44797">
        <ele>991.65064582841</ele>
        <time>2021-01-27T13:24:22Z</time>
      </trkpt>
      <trkpt lat="43.82229" lon="7.44797">
        <ele>990.65066190327</ele>
        <time>2021-01-27T13:24:23Z</time>
      </trkpt>
      <trkpt lat="43.82228" lon="7.44797">
        <ele>989.65069129748</ele>
        <time>2021-01-27T13:24:24Z</time>
      </trkpt>
      <trkpt lat="43.82228" lon="7.44797">
        <ele>989.65072923614</ele>
        <time>2021-01-27T13:24:25Z</time>
      </trkpt>
      <trkpt lat="43.82227" lon="7.44796">
        <ele>989.6507531108</ele>
        <time>2021-01-27T13:24:26Z</time>
      </trkpt>
      <trkpt lat="43.82226" lon="7.44795">
        <ele>988.65075981508</ele>
        <time>2021-01-27T13:24:27Z</time>
      </trkpt>
      <trkpt lat="43.82226" lon="7.44793">
        <ele>988.65078164916</ele>
        <time>2021-01-27T13:24:28Z</time>
      </trkpt>
      <trkpt lat="43.82226" lon="7.44792">
        <ele>988.65076109697</ele>
        <time>2021-01-27T13:24:29Z</time>
      </trkpt>
      <trkpt lat="43.82226" lon="7.44788">
        <ele>987.65071040846</ele>
        <time>2021-01-27T13:24:31Z</time>
      </trkpt>
      <trkpt lat="43.82226" lon="7.44784">
        <ele>987.65066365657</ele>
        <time>2021-01-27T13:24:33Z</time>
      </trkpt>
      <trkpt lat="43.82226" lon="7.44783">
        <ele>987.65064150927</ele>
        <time>2021-01-27T13:24:34Z</time>
      </trkpt>
      <trkpt lat="43.82226" lon="7.44782">
        <ele>987.65062780995</ele>
        <time>2021-01-27T13:24:35Z</time>
      </trkpt>
      <trkpt lat="43.82226" lon="7.44782">
        <ele>987.65063941273</ele>
        <time>2021-01-27T13:24:36Z</time>
      </trkpt>
      <trkpt lat="43.82225" lon="7.44781">
        <ele>986.65065957029</ele>
        <time>2021-01-27T13:24:37Z</time>
      </trkpt>
      <trkpt lat="43.82224" lon="7.44782">
        <ele>985.65071711639</ele>
        <time>2021-01-27T13:24:38Z</time>
      </trkpt>
      <trkpt lat="43.82224" lon="7.44781">
        <ele>985.65073993586</ele>
        <time>2021-01-27T13:24:39Z</time>
      </trkpt>
      <trkpt lat="43.82223" lon="7.4478">
        <ele>984.65077266664</ele>
        <time>2021-01-27T13:24:41Z</time>
      </trkpt>
      <trkpt lat="43.82222" lon="7.44779">
        <ele>984.65078800919</ele>
        <time>2021-01-27T13:24:45Z</time>
      </trkpt>
      <trkpt lat="43.82222" lon="7.44777">
        <ele>984.65076892442</ele>
        <time>2021-01-27T13:24:47Z</time>
      </trkpt>
      <trkpt lat="43.82223" lon="7.44776">
        <ele>983.65073312184</ele>
        <time>2021-01-27T13:24:48Z</time>
      </trkpt>
      <trkpt lat="43.82223" lon="7.44775">
        <ele>983.65072359525</ele>
        <time>2021-01-27T13:24:49Z</time>
      </trkpt>
      <trkpt lat="43.82222" lon="7.44774">
        <ele>983.65071492428</ele>
        <time>2021-01-27T13:24:51Z</time>
      </trkpt>
      <trkpt lat="43.82221" lon="7.44773">
        <ele>983.65076460488</ele>
        <time>2021-01-27T13:24:53Z</time>
      </trkpt>
      <trkpt lat="43.82221" lon="7.44772">
        <ele>983.65077497193</ele>
        <time>2021-01-27T13:24:54Z</time>
      </trkpt>
      <trkpt lat="43.8222" lon="7.44771">
        <ele>982.65079992961</ele>
        <time>2021-01-27T13:24:55Z</time>
      </trkpt>
      <trkpt lat="43.82219" lon="7.44771">
        <ele>983.65082826199</ele>
        <time>2021-01-27T13:24:58Z</time>
      </trkpt>
      <trkpt lat="43.82216" lon="7.44771">
        <ele>982.65097815674</ele>
        <time>2021-01-27T13:25:00Z</time>
      </trkpt>
      <trkpt lat="43.82216" lon="7.44771">
        <ele>982.6509985422</ele>
        <time>2021-01-27T13:25:01Z</time>
      </trkpt>
      <trkpt lat="43.82215" lon="7.44771">
        <ele>982.65103849882</ele>
        <time>2021-01-27T13:25:04Z</time>
      </trkpt>
      <trkpt lat="43.82215" lon="7.44774">
        <ele>981.65106265342</ele>
        <time>2021-01-27T13:25:05Z</time>
      </trkpt>
      <trkpt lat="43.82216" lon="7.44775">
        <ele>982.65104722124</ele>
        <time>2021-01-27T13:25:06Z</time>
      </trkpt>
      <trkpt lat="43.82215" lon="7.44776">
        <ele>981.65108735133</ele>
        <time>2021-01-27T13:25:08Z</time>
      </trkpt>
      <trkpt lat="43.82215" lon="7.44776">
        <ele>981.65108735133</ele>
        <time>2021-01-27T13:25:11Z</time>
      </trkpt>
      <trkpt lat="43.82213" lon="7.44775">
        <ele>980.6511596336</ele>
        <time>2021-01-27T13:25:12Z</time>
      </trkpt>
      <trkpt lat="43.82213" lon="7.44775">
        <ele>979.65118887852</ele>
        <time>2021-01-27T13:25:13Z</time>
      </trkpt>
      <trkpt lat="43.82212" lon="7.44774">
        <ele>979.65121473491</ele>
        <time>2021-01-27T13:25:14Z</time>
      </trkpt>
      <trkpt lat="43.82212" lon="7.44774">
        <ele>979.65122769737</ele>
        <time>2021-01-27T13:25:15Z</time>
      </trkpt>
      <trkpt lat="43.82209" lon="7.44774">
        <ele>979.65134692498</ele>
        <time>2021-01-27T13:25:18Z</time>
      </trkpt>
      <trkpt lat="43.82209" lon="7.44774">
        <ele>979.65138192966</ele>
        <time>2021-01-27T13:25:21Z</time>
      </trkpt>
      <trkpt lat="43.82207" lon="7.44773">
        <ele>978.65144255477</ele>
        <time>2021-01-27T13:25:22Z</time>
      </trkpt>
      <trkpt lat="43.82206" lon="7.44773">
        <ele>977.65150807289</ele>
        <time>2021-01-27T13:25:23Z</time>
      </trkpt>
      <trkpt lat="43.82203" lon="7.44774">
        <ele>978.65163508223</ele>
        <time>2021-01-27T13:25:25Z</time>
      </trkpt>
      <trkpt lat="43.82201" lon="7.44775">
        <ele>977.65174577317</ele>
        <time>2021-01-27T13:25:27Z</time>
      </trkpt>
      <trkpt lat="43.822" lon="7.44776">
        <ele>977.65180763356</ele>
        <time>2021-01-27T13:25:28Z</time>
      </trkpt>
      <trkpt lat="43.822" lon="7.44777">
        <ele>977.65184102894</ele>
        <time>2021-01-27T13:25:29Z</time>
      </trkpt>
      <trkpt lat="43.82199" lon="7.44778">
        <ele>976.65189118743</ele>
        <time>2021-01-27T13:25:30Z</time>
      </trkpt>
      <trkpt lat="43.82197" lon="7.44779">
        <ele>976.65199457457</ele>
        <time>2021-01-27T13:25:32Z</time>
      </trkpt>
      <trkpt lat="43.82197" lon="7.44779">
        <ele>976.65200943677</ele>
        <time>2021-01-27T13:25:33Z</time>
      </trkpt>
      <trkpt lat="43.82197" lon="7.4478">
        <ele>976.65202831386</ele>
        <time>2021-01-27T13:25:36Z</time>
      </trkpt>
      <trkpt lat="43.82194" lon="7.44782">
        <ele>976.65217004206</ele>
        <time>2021-01-27T13:25:38Z</time>
      </trkpt>
      <trkpt lat="43.82194" lon="7.44783">
        <ele>976.65218610664</ele>
        <time>2021-01-27T13:25:42Z</time>
      </trkpt>
      <trkpt lat="43.82193" lon="7.44784">
        <ele>976.65225487002</ele>
        <time>2021-01-27T13:25:43Z</time>
      </trkpt>
      <trkpt lat="43.82192" lon="7.44784">
        <ele>976.65229836299</ele>
        <time>2021-01-27T13:25:44Z</time>
      </trkpt>
      <trkpt lat="43.82191" lon="7.44786">
        <ele>975.65236955103</ele>
        <time>2021-01-27T13:25:46Z</time>
      </trkpt>
      <trkpt lat="43.82191" lon="7.44786">
        <ele>975.65236955103</ele>
        <time>2021-01-27T13:25:48Z</time>
      </trkpt>
      <trkpt lat="43.82189" lon="7.44786">
        <ele>974.65248514697</ele>
        <time>2021-01-27T13:25:49Z</time>
      </trkpt>
      <trkpt lat="43.82188" lon="7.44786">
        <ele>973.65250986756</ele>
        <time>2021-01-27T13:25:50Z</time>
      </trkpt>
      <trkpt lat="43.82187" lon="7.44786">
        <ele>973.65254622199</ele>
        <time>2021-01-27T13:25:51Z</time>
      </trkpt>
      <trkpt lat="43.82187" lon="7.44786">
        <ele>972.652570562</ele>
        <time>2021-01-27T13:25:53Z</time>
      </trkpt>
      <trkpt lat="43.82185" lon="7.44786">
        <ele>972.6526618298</ele>
        <time>2021-01-27T13:25:54Z</time>
      </trkpt>
      <trkpt lat="43.82184" lon="7.44787">
        <ele>972.65271699239</ele>
        <time>2021-01-27T13:25:55Z</time>
      </trkpt>
      <trkpt lat="43.82183" lon="7.44787">
        <ele>972.6527595015</ele>
        <time>2021-01-27T13:25:56Z</time>
      </trkpt>
      <trkpt lat="43.82182" lon="7.44788">
        <ele>971.65281072403</ele>
        <time>2021-01-27T13:25:57Z</time>
      </trkpt>
      <trkpt lat="43.82181" lon="7.44787">
        <ele>971.65284925928</ele>
        <time>2021-01-27T13:25:58Z</time>
      </trkpt>
      <trkpt lat="43.82181" lon="7.44788">
        <ele>971.65287939483</ele>
        <time>2021-01-27T13:25:59Z</time>
      </trkpt>
      <trkpt lat="43.8218" lon="7.44789">
        <ele>971.65293359058</ele>
        <time>2021-01-27T13:26:00Z</time>
      </trkpt>
      <trkpt lat="43.82179" lon="7.44789">
        <ele>971.65298661936</ele>
        <time>2021-01-27T13:26:01Z</time>
      </trkpt>
      <trkpt lat="43.82176" lon="7.44789">
        <ele>971.65310785361</ele>
        <time>2021-01-27T13:26:03Z</time>
      </trkpt>
      <trkpt lat="43.82175" lon="7.44789">
        <ele>970.65316411074</ele>
        <time>2021-01-27T13:26:04Z</time>
      </trkpt>
      <trkpt lat="43.82174" lon="7.44789">
        <ele>969.6532118585</ele>
        <time>2021-01-27T13:26:05Z</time>
      </trkpt>
      <trkpt lat="43.82173" lon="7.4479">
        <ele>969.65326539931</ele>
        <time>2021-01-27T13:26:06Z</time>
      </trkpt>
      <trkpt lat="43.82173" lon="7.4479">
        <ele>969.65330551971</ele>
        <time>2021-01-27T13:26:07Z</time>
      </trkpt>
      <trkpt lat="43.82172" lon="7.4479">
        <ele>968.65333707659</ele>
        <time>2021-01-27T13:26:10Z</time>
      </trkpt>
      <trkpt lat="43.8217" lon="7.44789">
        <ele>968.65341102378</ele>
        <time>2021-01-27T13:26:11Z</time>
      </trkpt>
      <trkpt lat="43.82169" lon="7.44789">
        <ele>968.65344562969</ele>
        <time>2021-01-27T13:26:12Z</time>
      </trkpt>
      <trkpt lat="43.82169" lon="7.44789">
        <ele>968.65347453722</ele>
        <time>2021-01-27T13:26:13Z</time>
      </trkpt>
      <trkpt lat="43.82168" lon="7.44789">
        <ele>968.65351343297</ele>
        <time>2021-01-27T13:26:15Z</time>
      </trkpt>
      <trkpt lat="43.82166" lon="7.44789">
        <ele>967.65362804762</ele>
        <time>2021-01-27T13:26:17Z</time>
      </trkpt>
      <trkpt lat="43.82165" lon="7.44789">
        <ele>967.65368969678</ele>
        <time>2021-01-27T13:26:18Z</time>
      </trkpt>
      <trkpt lat="43.82164" lon="7.4479">
        <ele>966.65373449407</ele>
        <time>2021-01-27T13:26:19Z</time>
      </trkpt>
      <trkpt lat="43.82163" lon="7.4479">
        <ele>966.65377656913</ele>
        <time>2021-01-27T13:26:20Z</time>
      </trkpt>
      <trkpt lat="43.82162" lon="7.4479">
        <ele>967.65381970696</ele>
        <time>2021-01-27T13:26:21Z</time>
      </trkpt>
      <trkpt lat="43.8216" lon="7.44791">
        <ele>967.65392982925</ele>
        <time>2021-01-27T13:26:23Z</time>
      </trkpt>
      <trkpt lat="43.82159" lon="7.44792">
        <ele>967.65397689724</ele>
        <time>2021-01-27T13:26:24Z</time>
      </trkpt>
      <trkpt lat="43.82158" lon="7.44793">
        <ele>967.65402656099</ele>
        <time>2021-01-27T13:26:25Z</time>
      </trkpt>
      <trkpt lat="43.82158" lon="7.44794">
        <ele>966.65406363293</ele>
        <time>2021-01-27T13:26:26Z</time>
      </trkpt>
      <trkpt lat="43.82157" lon="7.44794">
        <ele>966.65410804711</ele>
        <time>2021-01-27T13:26:29Z</time>
      </trkpt>
      <trkpt lat="43.82152" lon="7.44796">
        <ele>965.65437135106</ele>
        <time>2021-01-27T13:26:32Z</time>
      </trkpt>
      <trkpt lat="43.82151" lon="7.44796">
        <ele>964.65440170975</ele>
        <time>2021-01-27T13:26:35Z</time>
      </trkpt>
      <trkpt lat="43.8215" lon="7.44798">
        <ele>962.65446766239</ele>
        <time>2021-01-27T13:26:37Z</time>
      </trkpt>
      <trkpt lat="43.8215" lon="7.44799">
        <ele>962.65450388804</ele>
        <time>2021-01-27T13:26:40Z</time>
      </trkpt>
      <trkpt lat="43.82148" lon="7.44799">
        <ele>963.65458402692</ele>
        <time>2021-01-27T13:26:42Z</time>
      </trkpt>
      <trkpt lat="43.82148" lon="7.44799">
        <ele>963.65460418228</ele>
        <time>2021-01-27T13:26:43Z</time>
      </trkpt>
      <trkpt lat="43.82147" lon="7.44799">
        <ele>963.65463171315</ele>
        <time>2021-01-27T13:26:44Z</time>
      </trkpt>
      <trkpt lat="43.82147" lon="7.44799">
        <ele>963.65466329267</ele>
        <time>2021-01-27T13:26:47Z</time>
      </trkpt>
      <trkpt lat="43.82146" lon="7.44801">
        <ele>962.65473366331</ele>
        <time>2021-01-27T13:26:48Z</time>
      </trkpt>
      <trkpt lat="43.82145" lon="7.44802">
        <ele>962.65477162818</ele>
        <time>2021-01-27T13:26:49Z</time>
      </trkpt>
      <trkpt lat="43.82145" lon="7.44803">
        <ele>962.65480941971</ele>
        <time>2021-01-27T13:26:50Z</time>
      </trkpt>
      <trkpt lat="43.82143" lon="7.44803">
        <ele>961.65486087374</ele>
        <time>2021-01-27T13:26:52Z</time>
      </trkpt>
      <trkpt lat="43.82143" lon="7.44803">
        <ele>961.65488830328</ele>
        <time>2021-01-27T13:26:55Z</time>
      </trkpt>
      <trkpt lat="43.82141" lon="7.44803">
        <ele>960.65498336324</ele>
        <time>2021-01-27T13:26:56Z</time>
      </trkpt>
      <trkpt lat="43.82141" lon="7.44803">
        <ele>959.65499685893</ele>
        <time>2021-01-27T13:26:57Z</time>
      </trkpt>
      <trkpt lat="43.8214" lon="7.44802">
        <ele>959.65503292077</ele>
        <time>2021-01-27T13:26:58Z</time>
      </trkpt>
      <trkpt lat="43.82139" lon="7.44801">
        <ele>959.65504079721</ele>
        <time>2021-01-27T13:27:01Z</time>
      </trkpt>
      <trkpt lat="43.82138" lon="7.44802">
        <ele>959.65511361312</ele>
        <time>2021-01-27T13:27:02Z</time>
      </trkpt>
      <trkpt lat="43.82137" lon="7.44802">
        <ele>958.65516214138</ele>
        <time>2021-01-27T13:27:03Z</time>
      </trkpt>
      <trkpt lat="43.82136" lon="7.44803">
        <ele>958.65521334133</ele>
        <time>2021-01-27T13:27:04Z</time>
      </trkpt>
      <trkpt lat="43.82135" lon="7.44802">
        <ele>958.65525283026</ele>
        <time>2021-01-27T13:27:05Z</time>
      </trkpt>
      <trkpt lat="43.82134" lon="7.44801">
        <ele>958.65528724209</ele>
        <time>2021-01-27T13:27:06Z</time>
      </trkpt>
      <trkpt lat="43.82133" lon="7.44799">
        <ele>958.65531325113</ele>
        <time>2021-01-27T13:27:07Z</time>
      </trkpt>
      <trkpt lat="43.82132" lon="7.44798">
        <ele>958.65534397384</ele>
        <time>2021-01-27T13:27:08Z</time>
      </trkpt>
      <trkpt lat="43.82132" lon="7.44797">
        <ele>958.65536846659</ele>
        <time>2021-01-27T13:27:09Z</time>
      </trkpt>
      <trkpt lat="43.82131" lon="7.44796">
        <ele>959.65537236504</ele>
        <time>2021-01-27T13:27:12Z</time>
      </trkpt>
      <trkpt lat="43.8213" lon="7.44797">
        <ele>957.65546455929</ele>
        <time>2021-01-27T13:27:13Z</time>
      </trkpt>
      <trkpt lat="43.82129" lon="7.44797">
        <ele>957.65550535628</ele>
        <time>2021-01-27T13:27:14Z</time>
      </trkpt>
      <trkpt lat="43.82128" lon="7.44797">
        <ele>956.6555581082</ele>
        <time>2021-01-27T13:27:16Z</time>
      </trkpt>
      <trkpt lat="43.82128" lon="7.44797">
        <ele>956.6555581082</ele>
        <time>2021-01-27T13:27:22Z</time>
      </trkpt>
      <trkpt lat="43.82126" lon="7.44798">
        <ele>955.6556705879</ele>
        <time>2021-01-27T13:27:23Z</time>
      </trkpt>
      <trkpt lat="43.82125" lon="7.44798">
        <ele>953.65570326515</ele>
        <time>2021-01-27T13:27:25Z</time>
      </trkpt>
      <trkpt lat="43.82124" lon="7.44797">
        <ele>953.65574018853</ele>
        <time>2021-01-27T13:27:26Z</time>
      </trkpt>
      <trkpt lat="43.82123" lon="7.44796">
        <ele>954.65577727836</ele>
        <time>2021-01-27T13:27:27Z</time>
      </trkpt>
      <trkpt lat="43.82122" lon="7.44796">
        <ele>954.65580934751</ele>
        <time>2021-01-27T13:27:28Z</time>
      </trkpt>
      <trkpt lat="43.82122" lon="7.44797">
        <ele>953.65584924509</ele>
        <time>2021-01-27T13:27:29Z</time>
      </trkpt>
      <trkpt lat="43.82121" lon="7.44796">
        <ele>953.65588698495</ele>
        <time>2021-01-27T13:27:30Z</time>
      </trkpt>
      <trkpt lat="43.8212" lon="7.44796">
        <ele>953.65591804408</ele>
        <time>2021-01-27T13:27:31Z</time>
      </trkpt>
      <trkpt lat="43.82119" lon="7.44796">
        <ele>953.65594103469</ele>
        <time>2021-01-27T13:27:34Z</time>
      </trkpt>
      <trkpt lat="43.82118" lon="7.44794">
        <ele>954.65598861419</ele>
        <time>2021-01-27T13:27:35Z</time>
      </trkpt>
      <trkpt lat="43.82118" lon="7.44794">
        <ele>954.65599927909</ele>
        <time>2021-01-27T13:27:36Z</time>
      </trkpt>
      <trkpt lat="43.82117" lon="7.44793">
        <ele>954.65602206741</ele>
        <time>2021-01-27T13:27:37Z</time>
      </trkpt>
      <trkpt lat="43.82117" lon="7.44793">
        <ele>954.65604363341</ele>
        <time>2021-01-27T13:27:40Z</time>
      </trkpt>
      <trkpt lat="43.82115" lon="7.44794">
        <ele>952.65611944011</ele>
        <time>2021-01-27T13:27:41Z</time>
      </trkpt>
      <trkpt lat="43.82114" lon="7.44794">
        <ele>952.65616670777</ele>
        <time>2021-01-27T13:27:42Z</time>
      </trkpt>
      <trkpt lat="43.82113" lon="7.44794">
        <ele>952.65621298565</ele>
        <time>2021-01-27T13:27:43Z</time>
      </trkpt>
      <trkpt lat="43.82112" lon="7.44793">
        <ele>952.65625122602</ele>
        <time>2021-01-27T13:27:44Z</time>
      </trkpt>
      <trkpt lat="43.82112" lon="7.44793">
        <ele>952.65625122602</ele>
        <time>2021-01-27T13:27:46Z</time>
      </trkpt>
      <trkpt lat="43.82108" lon="7.44791">
        <ele>950.6564253944</ele>
        <time>2021-01-27T13:27:48Z</time>
      </trkpt>
      <trkpt lat="43.82107" lon="7.44791">
        <ele>950.65648021789</ele>
        <time>2021-01-27T13:27:49Z</time>
      </trkpt>
      <trkpt lat="43.82106" lon="7.44791">
        <ele>950.65653527999</ele>
        <time>2021-01-27T13:27:50Z</time>
      </trkpt>
      <trkpt lat="43.82105" lon="7.44792">
        <ele>949.65659492808</ele>
        <time>2021-01-27T13:27:51Z</time>
      </trkpt>
      <trkpt lat="43.82104" lon="7.44792">
        <ele>949.65663890747</ele>
        <time>2021-01-27T13:27:52Z</time>
      </trkpt>
      <trkpt lat="43.82103" lon="7.44792">
        <ele>949.65668417527</ele>
        <time>2021-01-27T13:27:53Z</time>
      </trkpt>
      <trkpt lat="43.82102" lon="7.44791">
        <ele>948.6567328039</ele>
        <time>2021-01-27T13:27:54Z</time>
      </trkpt>
      <trkpt lat="43.82101" lon="7.44789">
        <ele>948.65674013728</ele>
        <time>2021-01-27T13:27:56Z</time>
      </trkpt>
      <trkpt lat="43.82102" lon="7.44787">
        <ele>948.65670431649</ele>
        <time>2021-01-27T13:27:58Z</time>
      </trkpt>
      <trkpt lat="43.82102" lon="7.44786">
        <ele>947.65667616366</ele>
        <time>2021-01-27T13:27:59Z</time>
      </trkpt>
      <trkpt lat="43.82103" lon="7.44784">
        <ele>946.6566157382</ele>
        <time>2021-01-27T13:28:00Z</time>
      </trkpt>
      <trkpt lat="43.82102" lon="7.44782">
        <ele>945.65663575988</ele>
        <time>2021-01-27T13:28:02Z</time>
      </trkpt>
      <trkpt lat="43.82101" lon="7.44782">
        <ele>945.65666234464</ele>
        <time>2021-01-27T13:28:03Z</time>
      </trkpt>
      <trkpt lat="43.82101" lon="7.44781">
        <ele>945.65668405472</ele>
        <time>2021-01-27T13:28:06Z</time>
      </trkpt>
      <trkpt lat="43.821" lon="7.44782">
        <ele>944.65673526695</ele>
        <time>2021-01-27T13:28:07Z</time>
      </trkpt>
      <trkpt lat="43.82098" lon="7.44782">
        <ele>945.65680118274</ele>
        <time>2021-01-27T13:28:08Z</time>
      </trkpt>
      <trkpt lat="43.82097" lon="7.44782">
        <ele>945.65685587764</ele>
        <time>2021-01-27T13:28:09Z</time>
      </trkpt>
      <trkpt lat="43.82097" lon="7.44782">
        <ele>944.65689372618</ele>
        <time>2021-01-27T13:28:10Z</time>
      </trkpt>
      <trkpt lat="43.82096" lon="7.44783">
        <ele>944.65691944702</ele>
        <time>2021-01-27T13:28:11Z</time>
      </trkpt>
      <trkpt lat="43.82095" lon="7.44783">
        <ele>943.65696380481</ele>
        <time>2021-01-27T13:28:12Z</time>
      </trkpt>
      <trkpt lat="43.82095" lon="7.44784">
        <ele>943.65700176008</ele>
        <time>2021-01-27T13:28:13Z</time>
      </trkpt>
      <trkpt lat="43.82094" lon="7.44785">
        <ele>943.65705976855</ele>
        <time>2021-01-27T13:28:14Z</time>
      </trkpt>
      <trkpt lat="43.82093" lon="7.44786">
        <ele>942.65709899544</ele>
        <time>2021-01-27T13:28:15Z</time>
      </trkpt>
      <trkpt lat="43.82093" lon="7.44786">
        <ele>942.65709899544</ele>
        <time>2021-01-27T13:28:16Z</time>
      </trkpt>
      <trkpt lat="43.82092" lon="7.44787">
        <ele>942.65717873783</ele>
        <time>2021-01-27T13:28:17Z</time>
      </trkpt>
      <trkpt lat="43.82091" lon="7.44788">
        <ele>942.65723496792</ele>
        <time>2021-01-27T13:28:18Z</time>
      </trkpt>
      <trkpt lat="43.8209" lon="7.44788">
        <ele>942.65728613123</ele>
        <time>2021-01-27T13:28:19Z</time>
      </trkpt>
      <trkpt lat="43.82089" lon="7.44789">
        <ele>942.65732299643</ele>
        <time>2021-01-27T13:28:20Z</time>
      </trkpt>
      <trkpt lat="43.82088" lon="7.4479">
        <ele>941.65739973714</ele>
        <time>2021-01-27T13:28:22Z</time>
      </trkpt>
      <trkpt lat="43.82087" lon="7.44791">
        <ele>940.65745340454</ele>
        <time>2021-01-27T13:28:23Z</time>
      </trkpt>
      <trkpt lat="43.82086" lon="7.44791">
        <ele>940.65749951303</ele>
        <time>2021-01-27T13:28:24Z</time>
      </trkpt>
      <trkpt lat="43.82085" lon="7.44791">
        <ele>940.65755042944</ele>
        <time>2021-01-27T13:28:25Z</time>
      </trkpt>
      <trkpt lat="43.82084" lon="7.44791">
        <ele>941.65760147973</ele>
        <time>2021-01-27T13:28:26Z</time>
      </trkpt>
      <trkpt lat="43.82083" lon="7.44791">
        <ele>941.65764938539</ele>
        <time>2021-01-27T13:28:27Z</time>
      </trkpt>
      <trkpt lat="43.82082" lon="7.44791">
        <ele>940.6576952361</ele>
        <time>2021-01-27T13:28:28Z</time>
      </trkpt>
      <trkpt lat="43.82082" lon="7.44791">
        <ele>940.65769990784</ele>
        <time>2021-01-27T13:28:30Z</time>
      </trkpt>
      <trkpt lat="43.82079" lon="7.44787">
        <ele>940.6577928949</ele>
        <time>2021-01-27T13:28:33Z</time>
      </trkpt>
      <trkpt lat="43.82079" lon="7.44786">
        <ele>940.65780996018</ele>
        <time>2021-01-27T13:28:34Z</time>
      </trkpt>
      <trkpt lat="43.82078" lon="7.44786">
        <ele>940.6578447393</ele>
        <time>2021-01-27T13:28:37Z</time>
      </trkpt>
      <trkpt lat="43.82078" lon="7.44789">
        <ele>940.65787931829</ele>
        <time>2021-01-27T13:28:39Z</time>
      </trkpt>
      <trkpt lat="43.82078" lon="7.44789">
        <ele>940.65786552742</ele>
        <time>2021-01-27T13:28:40Z</time>
      </trkpt>
      <trkpt lat="43.82078" lon="7.4479">
        <ele>939.65788929378</ele>
        <time>2021-01-27T13:28:43Z</time>
      </trkpt>
      <trkpt lat="43.82075" lon="7.44791">
        <ele>939.65802077726</ele>
        <time>2021-01-27T13:28:44Z</time>
      </trkpt>
      <trkpt lat="43.82074" lon="7.4479">
        <ele>939.6580605551</ele>
        <time>2021-01-27T13:28:45Z</time>
      </trkpt>
      <trkpt lat="43.82073" lon="7.4479">
        <ele>940.65811332981</ele>
        <time>2021-01-27T13:28:46Z</time>
      </trkpt>
      <trkpt lat="43.82072" lon="7.4479">
        <ele>939.65814943962</ele>
        <time>2021-01-27T13:28:47Z</time>
      </trkpt>
      <trkpt lat="43.82071" lon="7.44791">
        <ele>940.65820244647</ele>
        <time>2021-01-27T13:28:48Z</time>
      </trkpt>
      <trkpt lat="43.8207" lon="7.44792">
        <ele>940.65829536048</ele>
        <time>2021-01-27T13:28:50Z</time>
      </trkpt>
      <trkpt lat="43.8207" lon="7.44792">
        <ele>940.65829536048</ele>
        <time>2021-01-27T13:28:59Z</time>
      </trkpt>
      <trkpt lat="43.82068" lon="7.44791">
        <ele>939.65838993374</ele>
        <time>2021-01-27T13:29:01Z</time>
      </trkpt>
      <trkpt lat="43.82067" lon="7.44791">
        <ele>941.65841532897</ele>
        <time>2021-01-27T13:29:19Z</time>
      </trkpt>
      <trkpt lat="43.82068" lon="7.44793">
        <ele>941.658391911</ele>
        <time>2021-01-27T13:29:20Z</time>
      </trkpt>
      <trkpt lat="43.82068" lon="7.44793">
        <ele>941.6583817273</ele>
        <time>2021-01-27T13:29:36Z</time>
      </trkpt>
      <trkpt lat="43.82066" lon="7.44793">
        <ele>938.65850890184</ele>
        <time>2021-01-27T13:29:40Z</time>
      </trkpt>
      <trkpt lat="43.82065" lon="7.44793">
        <ele>937.65852788607</ele>
        <time>2021-01-27T13:30:13Z</time>
      </trkpt>
      <trkpt lat="43.82065" lon="7.44792">
        <ele>936.65851842645</ele>
        <time>2021-01-27T13:30:14Z</time>
      </trkpt>
      <trkpt lat="43.82065" lon="7.44791">
        <ele>937.65850344307</ele>
        <time>2021-01-27T13:31:21Z</time>
      </trkpt>
      <trkpt lat="43.82065" lon="7.4479">
        <ele>938.65853181607</ele>
        <time>2021-01-27T13:31:22Z</time>
      </trkpt>
      <trkpt lat="43.82065" lon="7.4479">
        <ele>939.65849738852</ele>
        <time>2021-01-27T13:31:35Z</time>
      </trkpt>
      <trkpt lat="43.82065" lon="7.44789">
        <ele>939.65849247474</ele>
        <time>2021-01-27T13:31:37Z</time>
      </trkpt>
      <trkpt lat="43.82065" lon="7.44789">
        <ele>939.6585025358</ele>
        <time>2021-01-27T13:31:38Z</time>
      </trkpt>
      <trkpt lat="43.82064" lon="7.44788">
        <ele>939.65855918513</ele>
        <time>2021-01-27T13:31:39Z</time>
      </trkpt>
      <trkpt lat="43.82063" lon="7.44789">
        <ele>940.65858007847</ele>
        <time>2021-01-27T13:31:45Z</time>
      </trkpt>
      <trkpt lat="43.82064" lon="7.4479">
        <ele>940.65855040845</ele>
        <time>2021-01-27T13:31:48Z</time>
      </trkpt>
      <trkpt lat="43.82065" lon="7.44789">
        <ele>940.65851337054</ele>
        <time>2021-01-27T13:32:19Z</time>
      </trkpt>
      <trkpt lat="43.82064" lon="7.44788">
        <ele>941.65851283227</ele>
        <time>2021-01-27T13:32:20Z</time>
      </trkpt>
      <trkpt lat="43.82065" lon="7.44788">
        <ele>941.65848272233</ele>
        <time>2021-01-27T13:38:38Z</time>
      </trkpt>
      <trkpt lat="43.82066" lon="7.44787">
        <ele>941.65843877056</ele>
        <time>2021-01-27T13:38:39Z</time>
      </trkpt>
      <trkpt lat="43.82066" lon="7.44787">
        <ele>941.65843125181</ele>
        <time>2021-01-27T13:39:10Z</time>
      </trkpt>
      <trkpt lat="43.82064" lon="7.44789">
        <ele>940.65855398633</ele>
        <time>2021-01-27T13:39:12Z</time>
      </trkpt>
      <trkpt lat="43.82063" lon="7.4479">
        <ele>939.65861095352</ele>
        <time>2021-01-27T13:39:13Z</time>
      </trkpt>
      <trkpt lat="43.82062" lon="7.4479">
        <ele>939.65866502992</ele>
        <time>2021-01-27T13:39:14Z</time>
      </trkpt>
      <trkpt lat="43.8206" lon="7.4479">
        <ele>938.65875559061</ele>
        <time>2021-01-27T13:39:16Z</time>
      </trkpt>
      <trkpt lat="43.82057" lon="7.4479">
        <ele>938.65888152457</ele>
        <time>2021-01-27T13:39:18Z</time>
      </trkpt>
      <trkpt lat="43.82056" lon="7.4479">
        <ele>938.65894672624</ele>
        <time>2021-01-27T13:39:19Z</time>
      </trkpt>
      <trkpt lat="43.82055" lon="7.4479">
        <ele>938.6589948426</ele>
        <time>2021-01-27T13:39:20Z</time>
      </trkpt>
      <trkpt lat="43.82054" lon="7.4479">
        <ele>938.65904763392</ele>
        <time>2021-01-27T13:39:21Z</time>
      </trkpt>
      <trkpt lat="43.82052" lon="7.44791">
        <ele>939.65914430491</ele>
        <time>2021-01-27T13:39:23Z</time>
      </trkpt>
      <trkpt lat="43.82051" lon="7.44791">
        <ele>939.65919959202</ele>
        <time>2021-01-27T13:39:24Z</time>
      </trkpt>
      <trkpt lat="43.8205" lon="7.4479">
        <ele>939.65922892229</ele>
        <time>2021-01-27T13:39:25Z</time>
      </trkpt>
      <trkpt lat="43.82048" lon="7.44789">
        <ele>939.65930703637</ele>
        <time>2021-01-27T13:39:27Z</time>
      </trkpt>
      <trkpt lat="43.82047" lon="7.44789">
        <ele>938.65936294847</ele>
        <time>2021-01-27T13:39:28Z</time>
      </trkpt>
      <trkpt lat="43.82046" lon="7.44789">
        <ele>938.65939832042</ele>
        <time>2021-01-27T13:39:29Z</time>
      </trkpt>
      <trkpt lat="43.82045" lon="7.44789">
        <ele>938.65948178451</ele>
        <time>2021-01-27T13:39:31Z</time>
      </trkpt>
      <trkpt lat="43.82043" lon="7.44788">
        <ele>938.65953424337</ele>
        <time>2021-01-27T13:39:32Z</time>
      </trkpt>
      <trkpt lat="43.82043" lon="7.44788">
        <ele>938.65955861648</ele>
        <time>2021-01-27T13:39:33Z</time>
      </trkpt>
      <trkpt lat="43.82042" lon="7.44788">
        <ele>938.65961228928</ele>
        <time>2021-01-27T13:39:34Z</time>
      </trkpt>
      <trkpt lat="43.82041" lon="7.44788">
        <ele>938.65965853131</ele>
        <time>2021-01-27T13:39:35Z</time>
      </trkpt>
      <trkpt lat="43.8204" lon="7.44788">
        <ele>938.65971064388</ele>
        <time>2021-01-27T13:39:36Z</time>
      </trkpt>
      <trkpt lat="43.82039" lon="7.44788">
        <ele>938.65976207982</ele>
        <time>2021-01-27T13:39:37Z</time>
      </trkpt>
      <trkpt lat="43.82037" lon="7.44787">
        <ele>939.65982055735</ele>
        <time>2021-01-27T13:39:38Z</time>
      </trkpt>
      <trkpt lat="43.82036" lon="7.44787">
        <ele>939.65986312642</ele>
        <time>2021-01-27T13:39:39Z</time>
      </trkpt>
      <trkpt lat="43.82034" lon="7.44787">
        <ele>939.65995175508</ele>
        <time>2021-01-27T13:39:41Z</time>
      </trkpt>
      <trkpt lat="43.82034" lon="7.44787">
        <ele>940.65999043041</ele>
        <time>2021-01-27T13:39:42Z</time>
      </trkpt>
      <trkpt lat="43.82033" lon="7.44788">
        <ele>940.66002683137</ele>
        <time>2021-01-27T13:39:43Z</time>
      </trkpt>
      <trkpt lat="43.82032" lon="7.44787">
        <ele>940.66006187263</ele>
        <time>2021-01-27T13:39:44Z</time>
      </trkpt>
      <trkpt lat="43.82031" lon="7.44787">
        <ele>939.6601192074</ele>
        <time>2021-01-27T13:39:45Z</time>
      </trkpt>
      <trkpt lat="43.8203" lon="7.44786">
        <ele>939.66014828468</ele>
        <time>2021-01-27T13:39:46Z</time>
      </trkpt>
      <trkpt lat="43.82029" lon="7.44786">
        <ele>939.66018424544</ele>
        <time>2021-01-27T13:39:47Z</time>
      </trkpt>
      <trkpt lat="43.82029" lon="7.44786">
        <ele>940.6602011979</ele>
        <time>2021-01-27T13:39:48Z</time>
      </trkpt>
      <trkpt lat="43.82028" lon="7.44786">
        <ele>940.66024134139</ele>
        <time>2021-01-27T13:39:49Z</time>
      </trkpt>
      <trkpt lat="43.82026" lon="7.44786">
        <ele>940.66032498803</ele>
        <time>2021-01-27T13:39:51Z</time>
      </trkpt>
      <trkpt lat="43.82024" lon="7.44786">
        <ele>940.66043394558</ele>
        <time>2021-01-27T13:39:53Z</time>
      </trkpt>
      <trkpt lat="43.82023" lon="7.44785">
        <ele>940.66047493212</ele>
        <time>2021-01-27T13:39:54Z</time>
      </trkpt>
      <trkpt lat="43.82022" lon="7.44785">
        <ele>940.66051047956</ele>
        <time>2021-01-27T13:39:55Z</time>
      </trkpt>
      <trkpt lat="43.82021" lon="7.44784">
        <ele>940.66058252128</ele>
        <time>2021-01-27T13:39:57Z</time>
      </trkpt>
      <trkpt lat="43.8202" lon="7.44784">
        <ele>940.66064261348</ele>
        <time>2021-01-27T13:39:58Z</time>
      </trkpt>
      <trkpt lat="43.82018" lon="7.44784">
        <ele>940.66072428689</ele>
        <time>2021-01-27T13:39:59Z</time>
      </trkpt>
      <trkpt lat="43.82017" lon="7.44784">
        <ele>940.66077632865</ele>
        <time>2021-01-27T13:40:00Z</time>
      </trkpt>
      <trkpt lat="43.82015" lon="7.44784">
        <ele>940.66086481294</ele>
        <time>2021-01-27T13:40:02Z</time>
      </trkpt>
      <trkpt lat="43.82014" lon="7.44784">
        <ele>940.66092093023</ele>
        <time>2021-01-27T13:40:03Z</time>
      </trkpt>
      <trkpt lat="43.82013" lon="7.44784">
        <ele>940.66093955687</ele>
        <time>2021-01-27T13:40:04Z</time>
      </trkpt>
      <trkpt lat="43.82013" lon="7.44783">
        <ele>940.66096021074</ele>
        <time>2021-01-27T13:40:05Z</time>
      </trkpt>
      <trkpt lat="43.82012" lon="7.44782">
        <ele>941.66100610048</ele>
        <time>2021-01-27T13:40:06Z</time>
      </trkpt>
      <trkpt lat="43.8201" lon="7.44782">
        <ele>941.66106497204</ele>
        <time>2021-01-27T13:40:07Z</time>
      </trkpt>
      <trkpt lat="43.82009" lon="7.44781">
        <ele>940.66111955843</ele>
        <time>2021-01-27T13:40:08Z</time>
      </trkpt>
      <trkpt lat="43.82008" lon="7.44781">
        <ele>939.66115540285</ele>
        <time>2021-01-27T13:40:09Z</time>
      </trkpt>
      <trkpt lat="43.82007" lon="7.4478">
        <ele>939.66120862324</ele>
        <time>2021-01-27T13:40:10Z</time>
      </trkpt>
      <trkpt lat="43.82006" lon="7.4478">
        <ele>939.6612694004</ele>
        <time>2021-01-27T13:40:11Z</time>
      </trkpt>
      <trkpt lat="43.82005" lon="7.4478">
        <ele>938.66132290794</ele>
        <time>2021-01-27T13:40:12Z</time>
      </trkpt>
      <trkpt lat="43.82003" lon="7.44781">
        <ele>937.66138657103</ele>
        <time>2021-01-27T13:40:13Z</time>
      </trkpt>
      <trkpt lat="43.82002" lon="7.44781">
        <ele>937.66143124561</ele>
        <time>2021-01-27T13:40:14Z</time>
      </trkpt>
      <trkpt lat="43.82002" lon="7.44781">
        <ele>937.66146938999</ele>
        <time>2021-01-27T13:40:15Z</time>
      </trkpt>
      <trkpt lat="43.82001" lon="7.44781">
        <ele>936.66149186354</ele>
        <time>2021-01-27T13:40:16Z</time>
      </trkpt>
      <trkpt lat="43.82" lon="7.44779">
        <ele>936.66152758752</ele>
        <time>2021-01-27T13:40:17Z</time>
      </trkpt>
      <trkpt lat="43.81999" lon="7.44778">
        <ele>935.66156319107</ele>
        <time>2021-01-27T13:40:18Z</time>
      </trkpt>
      <trkpt lat="43.81998" lon="7.44777">
        <ele>935.6616081331</ele>
        <time>2021-01-27T13:40:19Z</time>
      </trkpt>
      <trkpt lat="43.81997" lon="7.44776">
        <ele>935.66164601141</ele>
        <time>2021-01-27T13:40:20Z</time>
      </trkpt>
      <trkpt lat="43.81995" lon="7.44776">
        <ele>934.6617112889</ele>
        <time>2021-01-27T13:40:22Z</time>
      </trkpt>
      <trkpt lat="43.81994" lon="7.44776">
        <ele>933.6617639709</ele>
        <time>2021-01-27T13:40:23Z</time>
      </trkpt>
      <trkpt lat="43.81994" lon="7.44776">
        <ele>933.66179946779</ele>
        <time>2021-01-27T13:40:24Z</time>
      </trkpt>
      <trkpt lat="43.81993" lon="7.44776">
        <ele>933.66184750882</ele>
        <time>2021-01-27T13:40:25Z</time>
      </trkpt>
      <trkpt lat="43.81992" lon="7.44775">
        <ele>933.66188781303</ele>
        <time>2021-01-27T13:40:26Z</time>
      </trkpt>
      <trkpt lat="43.8199" lon="7.44775">
        <ele>933.66194560387</ele>
        <time>2021-01-27T13:40:27Z</time>
      </trkpt>
      <trkpt lat="43.8199" lon="7.44773">
        <ele>933.6619643286</ele>
        <time>2021-01-27T13:40:28Z</time>
      </trkpt>
      <trkpt lat="43.81989" lon="7.44773">
        <ele>933.66200165216</ele>
        <time>2021-01-27T13:40:29Z</time>
      </trkpt>
      <trkpt lat="43.81988" lon="7.44773">
        <ele>933.66204286584</ele>
        <time>2021-01-27T13:40:30Z</time>
      </trkpt>
      <trkpt lat="43.81987" lon="7.44773">
        <ele>933.66210666696</ele>
        <time>2021-01-27T13:40:31Z</time>
      </trkpt>
      <trkpt lat="43.81985" lon="7.44773">
        <ele>933.66216884296</ele>
        <time>2021-01-27T13:40:32Z</time>
      </trkpt>
      <trkpt lat="43.81984" lon="7.44773">
        <ele>933.66222824347</ele>
        <time>2021-01-27T13:40:33Z</time>
      </trkpt>
      <trkpt lat="43.81983" lon="7.44772">
        <ele>932.66226780671</ele>
        <time>2021-01-27T13:40:34Z</time>
      </trkpt>
      <trkpt lat="43.81982" lon="7.44771">
        <ele>932.66229706311</ele>
        <time>2021-01-27T13:40:35Z</time>
      </trkpt>
      <trkpt lat="43.81981" lon="7.44771">
        <ele>931.66236284529</ele>
        <time>2021-01-27T13:40:36Z</time>
      </trkpt>
      <trkpt lat="43.81979" lon="7.44771">
        <ele>930.66244594026</ele>
        <time>2021-01-27T13:40:37Z</time>
      </trkpt>
      <trkpt lat="43.81978" lon="7.4477">
        <ele>930.66250303826</ele>
        <time>2021-01-27T13:40:38Z</time>
      </trkpt>
      <trkpt lat="43.81977" lon="7.4477">
        <ele>930.66255999865</ele>
        <time>2021-01-27T13:40:39Z</time>
      </trkpt>
      <trkpt lat="43.81976" lon="7.4477">
        <ele>930.66261285834</ele>
        <time>2021-01-27T13:40:40Z</time>
      </trkpt>
      <trkpt lat="43.81975" lon="7.4477">
        <ele>930.66264256338</ele>
        <time>2021-01-27T13:40:41Z</time>
      </trkpt>
      <trkpt lat="43.81974" lon="7.4477">
        <ele>930.66268259136</ele>
        <time>2021-01-27T13:40:42Z</time>
      </trkpt>
      <trkpt lat="43.81974" lon="7.4477">
        <ele>930.66270428041</ele>
        <time>2021-01-27T13:40:43Z</time>
      </trkpt>
      <trkpt lat="43.81973" lon="7.4477">
        <ele>929.66272400754</ele>
        <time>2021-01-27T13:40:44Z</time>
      </trkpt>
      <trkpt lat="43.81972" lon="7.44769">
        <ele>929.66274818142</ele>
        <time>2021-01-27T13:40:45Z</time>
      </trkpt>
      <trkpt lat="43.81972" lon="7.44768">
        <ele>928.66276571334</ele>
        <time>2021-01-27T13:40:46Z</time>
      </trkpt>
      <trkpt lat="43.81971" lon="7.44768">
        <ele>928.66279496805</ele>
        <time>2021-01-27T13:40:47Z</time>
      </trkpt>
      <trkpt lat="43.8197" lon="7.44768">
        <ele>928.6628393009</ele>
        <time>2021-01-27T13:40:48Z</time>
      </trkpt>
      <trkpt lat="43.8197" lon="7.44767">
        <ele>928.6628589744</ele>
        <time>2021-01-27T13:40:49Z</time>
      </trkpt>
      <trkpt lat="43.81969" lon="7.44766">
        <ele>927.6628861377</ele>
        <time>2021-01-27T13:40:50Z</time>
      </trkpt>
      <trkpt lat="43.81969" lon="7.44765">
        <ele>927.66288715633</ele>
        <time>2021-01-27T13:40:51Z</time>
      </trkpt>
      <trkpt lat="43.81968" lon="7.44763">
        <ele>927.66288021853</ele>
        <time>2021-01-27T13:40:53Z</time>
      </trkpt>
      <trkpt lat="43.81967" lon="7.44763">
        <ele>927.66291993511</ele>
        <time>2021-01-27T13:40:54Z</time>
      </trkpt>
      <trkpt lat="43.81966" lon="7.44762">
        <ele>927.66296491713</ele>
        <time>2021-01-27T13:40:55Z</time>
      </trkpt>
      <trkpt lat="43.81965" lon="7.44761">
        <ele>926.66301194164</ele>
        <time>2021-01-27T13:40:56Z</time>
      </trkpt>
      <trkpt lat="43.81964" lon="7.44761">
        <ele>926.66306254728</ele>
        <time>2021-01-27T13:40:57Z</time>
      </trkpt>
      <trkpt lat="43.81963" lon="7.44761">
        <ele>927.66311363436</ele>
        <time>2021-01-27T13:40:58Z</time>
      </trkpt>
      <trkpt lat="43.81962" lon="7.44761">
        <ele>927.66316917734</ele>
        <time>2021-01-27T13:40:59Z</time>
      </trkpt>
      <trkpt lat="43.81961" lon="7.4476">
        <ele>927.66320802493</ele>
        <time>2021-01-27T13:41:00Z</time>
      </trkpt>
      <trkpt lat="43.8196" lon="7.44761">
        <ele>926.66325778466</ele>
        <time>2021-01-27T13:41:01Z</time>
      </trkpt>
      <trkpt lat="43.81959" lon="7.4476">
        <ele>927.66331100102</ele>
        <time>2021-01-27T13:41:02Z</time>
      </trkpt>
      <trkpt lat="43.81958" lon="7.44761">
        <ele>926.66336297707</ele>
        <time>2021-01-27T13:41:03Z</time>
      </trkpt>
      <trkpt lat="43.81956" lon="7.44761">
        <ele>926.66342582711</ele>
        <time>2021-01-27T13:41:04Z</time>
      </trkpt>
      <trkpt lat="43.81956" lon="7.44761">
        <ele>926.66347642689</ele>
        <time>2021-01-27T13:41:05Z</time>
      </trkpt>
      <trkpt lat="43.81955" lon="7.44761">
        <ele>926.66351990874</ele>
        <time>2021-01-27T13:41:06Z</time>
      </trkpt>
      <trkpt lat="43.81953" lon="7.44759">
        <ele>925.66356405984</ele>
        <time>2021-01-27T13:41:08Z</time>
      </trkpt>
      <trkpt lat="43.81952" lon="7.44759">
        <ele>925.66360247586</ele>
        <time>2021-01-27T13:41:10Z</time>
      </trkpt>
      <trkpt lat="43.81952" lon="7.44759">
        <ele>923.6636260289</ele>
        <time>2021-01-27T13:41:11Z</time>
      </trkpt>
      <trkpt lat="43.81951" lon="7.44758">
        <ele>923.66365478296</ele>
        <time>2021-01-27T13:41:12Z</time>
      </trkpt>
      <trkpt lat="43.81951" lon="7.44758">
        <ele>922.66368012983</ele>
        <time>2021-01-27T13:41:13Z</time>
      </trkpt>
      <trkpt lat="43.8195" lon="7.44757">
        <ele>922.66370529595</ele>
        <time>2021-01-27T13:41:15Z</time>
      </trkpt>
      <trkpt lat="43.81949" lon="7.44757">
        <ele>920.66377243619</ele>
        <time>2021-01-27T13:41:17Z</time>
      </trkpt>
      <trkpt lat="43.81948" lon="7.44757">
        <ele>920.66379438167</ele>
        <time>2021-01-27T13:41:18Z</time>
      </trkpt>
      <trkpt lat="43.81947" lon="7.44756">
        <ele>919.66381443156</ele>
        <time>2021-01-27T13:41:19Z</time>
      </trkpt>
      <trkpt lat="43.81947" lon="7.44755">
        <ele>920.66384563278</ele>
        <time>2021-01-27T13:41:20Z</time>
      </trkpt>
      <trkpt lat="43.81946" lon="7.44754">
        <ele>920.66387165612</ele>
        <time>2021-01-27T13:41:21Z</time>
      </trkpt>
      <trkpt lat="43.81945" lon="7.44753">
        <ele>920.66390111729</ele>
        <time>2021-01-27T13:41:22Z</time>
      </trkpt>
      <trkpt lat="43.81944" lon="7.44753">
        <ele>920.66393686764</ele>
        <time>2021-01-27T13:41:23Z</time>
      </trkpt>
      <trkpt lat="43.81943" lon="7.44753">
        <ele>919.66397784451</ele>
        <time>2021-01-27T13:41:24Z</time>
      </trkpt>
      <trkpt lat="43.81943" lon="7.44752">
        <ele>919.66400690482</ele>
        <time>2021-01-27T13:41:25Z</time>
      </trkpt>
      <trkpt lat="43.81942" lon="7.44752">
        <ele>918.66403602529</ele>
        <time>2021-01-27T13:41:26Z</time>
      </trkpt>
      <trkpt lat="43.81941" lon="7.44752">
        <ele>917.66407195287</ele>
        <time>2021-01-27T13:41:27Z</time>
      </trkpt>
      <trkpt lat="43.8194" lon="7.44751">
        <ele>918.66411488508</ele>
        <time>2021-01-27T13:41:28Z</time>
      </trkpt>
      <trkpt lat="43.81939" lon="7.44751">
        <ele>918.66414881328</ele>
        <time>2021-01-27T13:41:29Z</time>
      </trkpt>
      <trkpt lat="43.81938" lon="7.44751">
        <ele>918.66419401964</ele>
        <time>2021-01-27T13:41:30Z</time>
      </trkpt>
      <trkpt lat="43.81938" lon="7.44751">
        <ele>917.66423123757</ele>
        <time>2021-01-27T13:41:31Z</time>
      </trkpt>
      <trkpt lat="43.81937" lon="7.44751">
        <ele>917.66425004207</ele>
        <time>2021-01-27T13:41:32Z</time>
      </trkpt>
      <trkpt lat="43.81937" lon="7.4475">
        <ele>917.66426780234</ele>
        <time>2021-01-27T13:41:33Z</time>
      </trkpt>
      <trkpt lat="43.81935" lon="7.44749">
        <ele>916.66432065757</ele>
        <time>2021-01-27T13:41:34Z</time>
      </trkpt>
      <trkpt lat="43.81934" lon="7.44749">
        <ele>917.66438531349</ele>
        <time>2021-01-27T13:41:35Z</time>
      </trkpt>
      <trkpt lat="43.81933" lon="7.44748">
        <ele>917.66443621266</ele>
        <time>2021-01-27T13:41:36Z</time>
      </trkpt>
      <trkpt lat="43.81932" lon="7.44747">
        <ele>916.66447886516</ele>
        <time>2021-01-27T13:41:37Z</time>
      </trkpt>
      <trkpt lat="43.81931" lon="7.44746">
        <ele>917.66452268525</ele>
        <time>2021-01-27T13:41:38Z</time>
      </trkpt>
      <trkpt lat="43.8193" lon="7.44746">
        <ele>916.66455682106</ele>
        <time>2021-01-27T13:41:39Z</time>
      </trkpt>
      <trkpt lat="43.81928" lon="7.44745">
        <ele>916.66460814743</ele>
        <time>2021-01-27T13:41:40Z</time>
      </trkpt>
      <trkpt lat="43.81927" lon="7.44743">
        <ele>915.66463564872</ele>
        <time>2021-01-27T13:41:41Z</time>
      </trkpt>
      <trkpt lat="43.81926" lon="7.44741">
        <ele>915.66466958102</ele>
        <time>2021-01-27T13:41:42Z</time>
      </trkpt>
      <trkpt lat="43.81924" lon="7.44739">
        <ele>914.66474607801</ele>
        <time>2021-01-27T13:41:44Z</time>
      </trkpt>
      <trkpt lat="43.81923" lon="7.44738">
        <ele>914.66479495852</ele>
        <time>2021-01-27T13:41:45Z</time>
      </trkpt>
      <trkpt lat="43.81921" lon="7.44737">
        <ele>914.66486816859</ele>
        <time>2021-01-27T13:41:46Z</time>
      </trkpt>
      <trkpt lat="43.8192" lon="7.44737">
        <ele>915.66491498371</ele>
        <time>2021-01-27T13:41:47Z</time>
      </trkpt>
      <trkpt lat="43.81919" lon="7.44736">
        <ele>915.66495494647</ele>
        <time>2021-01-27T13:41:48Z</time>
      </trkpt>
      <trkpt lat="43.81919" lon="7.44734">
        <ele>915.66496251627</ele>
        <time>2021-01-27T13:41:49Z</time>
      </trkpt>
      <trkpt lat="43.81918" lon="7.44733">
        <ele>914.66499945371</ele>
        <time>2021-01-27T13:41:50Z</time>
      </trkpt>
      <trkpt lat="43.81917" lon="7.44732">
        <ele>914.66503041076</ele>
        <time>2021-01-27T13:41:51Z</time>
      </trkpt>
      <trkpt lat="43.81914" lon="7.44728">
        <ele>914.66510779971</ele>
        <time>2021-01-27T13:41:53Z</time>
      </trkpt>
      <trkpt lat="43.81913" lon="7.44727">
        <ele>914.66514187034</ele>
        <time>2021-01-27T13:41:54Z</time>
      </trkpt>
      <trkpt lat="43.81913" lon="7.44726">
        <ele>913.66516624767</ele>
        <time>2021-01-27T13:41:55Z</time>
      </trkpt>
      <trkpt lat="43.81912" lon="7.44724">
        <ele>913.6651822322</ele>
        <time>2021-01-27T13:41:56Z</time>
      </trkpt>
      <trkpt lat="43.81911" lon="7.44723">
        <ele>912.66520788664</ele>
        <time>2021-01-27T13:41:57Z</time>
      </trkpt>
      <trkpt lat="43.8191" lon="7.44722">
        <ele>912.66524297103</ele>
        <time>2021-01-27T13:41:58Z</time>
      </trkpt>
      <trkpt lat="43.81909" lon="7.44721">
        <ele>912.66526667562</ele>
        <time>2021-01-27T13:41:59Z</time>
      </trkpt>
      <trkpt lat="43.81909" lon="7.4472">
        <ele>911.66527828493</ele>
        <time>2021-01-27T13:42:00Z</time>
      </trkpt>
      <trkpt lat="43.81908" lon="7.44718">
        <ele>911.66528055824</ele>
        <time>2021-01-27T13:42:01Z</time>
      </trkpt>
      <trkpt lat="43.81908" lon="7.44717">
        <ele>911.665286169</ele>
        <time>2021-01-27T13:42:02Z</time>
      </trkpt>
      <trkpt lat="43.81907" lon="7.44715">
        <ele>911.66531020426</ele>
        <time>2021-01-27T13:42:04Z</time>
      </trkpt>
      <trkpt lat="43.81906" lon="7.44714">
        <ele>910.66534701739</ele>
        <time>2021-01-27T13:42:06Z</time>
      </trkpt>
      <trkpt lat="43.81905" lon="7.44713">
        <ele>909.66537014332</ele>
        <time>2021-01-27T13:42:07Z</time>
      </trkpt>
      <trkpt lat="43.81905" lon="7.44712">
        <ele>908.6653544875</ele>
        <time>2021-01-27T13:42:08Z</time>
      </trkpt>
      <trkpt lat="43.81906" lon="7.4471">
        <ele>908.66531928324</ele>
        <time>2021-01-27T13:42:09Z</time>
      </trkpt>
      <trkpt lat="43.81905" lon="7.44709">
        <ele>907.66535270647</ele>
        <time>2021-01-27T13:42:11Z</time>
      </trkpt>
      <trkpt lat="43.81904" lon="7.44709">
        <ele>907.66541448393</ele>
        <time>2021-01-27T13:42:13Z</time>
      </trkpt>
      <trkpt lat="43.81903" lon="7.4471">
        <ele>906.6654666844</ele>
        <time>2021-01-27T13:42:14Z</time>
      </trkpt>
      <trkpt lat="43.81902" lon="7.44711">
        <ele>906.66551645444</ele>
        <time>2021-01-27T13:42:15Z</time>
      </trkpt>
      <trkpt lat="43.81902" lon="7.44712">
        <ele>905.66554459868</ele>
        <time>2021-01-27T13:42:16Z</time>
      </trkpt>
      <trkpt lat="43.81901" lon="7.44711">
        <ele>905.66557275477</ele>
        <time>2021-01-27T13:42:17Z</time>
      </trkpt>
      <trkpt lat="43.819" lon="7.44711">
        <ele>905.66558808808</ele>
        <time>2021-01-27T13:42:18Z</time>
      </trkpt>
      <trkpt lat="43.819" lon="7.4471">
        <ele>905.66560022153</ele>
        <time>2021-01-27T13:42:19Z</time>
      </trkpt>
      <trkpt lat="43.81899" lon="7.4471">
        <ele>904.66563808536</ele>
        <time>2021-01-27T13:42:20Z</time>
      </trkpt>
      <trkpt lat="43.81899" lon="7.44709">
        <ele>904.66566106966</ele>
        <time>2021-01-27T13:42:21Z</time>
      </trkpt>
      <trkpt lat="43.81898" lon="7.44707">
        <ele>903.66566712545</ele>
        <time>2021-01-27T13:42:23Z</time>
      </trkpt>
      <trkpt lat="43.81897" lon="7.44705">
        <ele>904.66566988715</ele>
        <time>2021-01-27T13:42:24Z</time>
      </trkpt>
      <trkpt lat="43.81897" lon="7.44704">
        <ele>904.66566436096</ele>
        <time>2021-01-27T13:42:25Z</time>
      </trkpt>
      <trkpt lat="43.81897" lon="7.44703">
        <ele>904.66565874963</ele>
        <time>2021-01-27T13:42:26Z</time>
      </trkpt>
      <trkpt lat="43.81897" lon="7.44702">
        <ele>903.66567055423</ele>
        <time>2021-01-27T13:42:29Z</time>
      </trkpt>
      <trkpt lat="43.81896" lon="7.44702">
        <ele>903.6657029464</ele>
        <time>2021-01-27T13:42:30Z</time>
      </trkpt>
      <trkpt lat="43.81895" lon="7.44703">
        <ele>901.665742919</ele>
        <time>2021-01-27T13:42:45Z</time>
      </trkpt>
      <trkpt lat="43.81895" lon="7.44705">
        <ele>899.66577015486</ele>
        <time>2021-01-27T13:42:47Z</time>
      </trkpt>
      <trkpt lat="43.81895" lon="7.44705">
        <ele>899.6657870203</ele>
        <time>2021-01-27T13:42:49Z</time>
      </trkpt>
      <trkpt lat="43.81894" lon="7.44705">
        <ele>898.66582044944</ele>
        <time>2021-01-27T13:42:50Z</time>
      </trkpt>
      <trkpt lat="43.81894" lon="7.44705">
        <ele>898.66584457961</ele>
        <time>2021-01-27T13:42:51Z</time>
      </trkpt>
      <trkpt lat="43.81893" lon="7.44704">
        <ele>898.66585524235</ele>
        <time>2021-01-27T13:42:52Z</time>
      </trkpt>
      <trkpt lat="43.81893" lon="7.44703">
        <ele>898.66585816908</ele>
        <time>2021-01-27T13:42:53Z</time>
      </trkpt>
      <trkpt lat="43.81893" lon="7.44702">
        <ele>898.66586465902</ele>
        <time>2021-01-27T13:42:55Z</time>
      </trkpt>
      <trkpt lat="43.81893" lon="7.44701">
        <ele>898.66583553906</ele>
        <time>2021-01-27T13:42:58Z</time>
      </trkpt>
      <trkpt lat="43.81892" lon="7.447">
        <ele>898.66585435359</ele>
        <time>2021-01-27T13:43:03Z</time>
      </trkpt>
      <trkpt lat="43.81891" lon="7.44699">
        <ele>898.66590174316</ele>
        <time>2021-01-27T13:43:05Z</time>
      </trkpt>
      <trkpt lat="43.81891" lon="7.44698">
        <ele>898.66590907027</ele>
        <time>2021-01-27T13:43:11Z</time>
      </trkpt>
      <trkpt lat="43.8189" lon="7.44698">
        <ele>896.66595628038</ele>
        <time>2021-01-27T13:43:12Z</time>
      </trkpt>
      <trkpt lat="43.8189" lon="7.44697">
        <ele>896.66596363057</ele>
        <time>2021-01-27T13:43:14Z</time>
      </trkpt>
      <trkpt lat="43.81889" lon="7.44697">
        <ele>896.66598453983</ele>
        <time>2021-01-27T13:43:17Z</time>
      </trkpt>
      <trkpt lat="43.81887" lon="7.44696">
        <ele>896.6660465517</ele>
        <time>2021-01-27T13:43:18Z</time>
      </trkpt>
      <trkpt lat="43.81887" lon="7.44695">
        <ele>896.66607280255</ele>
        <time>2021-01-27T13:43:19Z</time>
      </trkpt>
      <trkpt lat="43.81886" lon="7.44696">
        <ele>895.66611024739</ele>
        <time>2021-01-27T13:43:20Z</time>
      </trkpt>
      <trkpt lat="43.81886" lon="7.44697">
        <ele>895.66613945162</ele>
        <time>2021-01-27T13:43:21Z</time>
      </trkpt>
      <trkpt lat="43.81886" lon="7.44697">
        <ele>894.66615465434</ele>
        <time>2021-01-27T13:43:22Z</time>
      </trkpt>
      <trkpt lat="43.81885" lon="7.44697">
        <ele>894.6661882538</ele>
        <time>2021-01-27T13:43:23Z</time>
      </trkpt>
      <trkpt lat="43.81885" lon="7.44698">
        <ele>894.66621871158</ele>
        <time>2021-01-27T13:43:24Z</time>
      </trkpt>
      <trkpt lat="43.81882" lon="7.44698">
        <ele>892.66634590825</ele>
        <time>2021-01-27T13:43:27Z</time>
      </trkpt>
      <trkpt lat="43.81881" lon="7.44698">
        <ele>892.66637321094</ele>
        <time>2021-01-27T13:43:29Z</time>
      </trkpt>
      <trkpt lat="43.8188" lon="7.44699">
        <ele>891.66646560128</ele>
        <time>2021-01-27T13:43:31Z</time>
      </trkpt>
      <trkpt lat="43.81879" lon="7.44699">
        <ele>891.66648940816</ele>
        <time>2021-01-27T13:43:32Z</time>
      </trkpt>
      <trkpt lat="43.81878" lon="7.447">
        <ele>891.66653330272</ele>
        <time>2021-01-27T13:43:33Z</time>
      </trkpt>
      <trkpt lat="43.81878" lon="7.44701">
        <ele>891.66656860713</ele>
        <time>2021-01-27T13:43:34Z</time>
      </trkpt>
      <trkpt lat="43.81877" lon="7.44702">
        <ele>890.66660263367</ele>
        <time>2021-01-27T13:43:35Z</time>
      </trkpt>
      <trkpt lat="43.81877" lon="7.44702">
        <ele>890.66662801761</ele>
        <time>2021-01-27T13:43:36Z</time>
      </trkpt>
      <trkpt lat="43.81875" lon="7.44703">
        <ele>889.66672686024</ele>
        <time>2021-01-27T13:43:38Z</time>
      </trkpt>
      <trkpt lat="43.81874" lon="7.44702">
        <ele>889.6667467132</ele>
        <time>2021-01-27T13:43:39Z</time>
      </trkpt>
      <trkpt lat="43.81874" lon="7.44701">
        <ele>889.66677315258</ele>
        <time>2021-01-27T13:43:40Z</time>
      </trkpt>
      <trkpt lat="43.81873" lon="7.447">
        <ele>888.66679877903</ele>
        <time>2021-01-27T13:43:41Z</time>
      </trkpt>
      <trkpt lat="43.81872" lon="7.44698">
        <ele>888.66683363871</ele>
        <time>2021-01-27T13:43:43Z</time>
      </trkpt>
      <trkpt lat="43.81871" lon="7.44697">
        <ele>887.66684138949</ele>
        <time>2021-01-27T13:43:44Z</time>
      </trkpt>
      <trkpt lat="43.81871" lon="7.44696">
        <ele>888.66686090162</ele>
        <time>2021-01-27T13:43:45Z</time>
      </trkpt>
      <trkpt lat="43.81869" lon="7.44694">
        <ele>888.66690284388</ele>
        <time>2021-01-27T13:43:47Z</time>
      </trkpt>
      <trkpt lat="43.8187" lon="7.44692">
        <ele>888.66688254343</ele>
        <time>2021-01-27T13:43:48Z</time>
      </trkpt>
      <trkpt lat="43.8187" lon="7.44691">
        <ele>887.66683090319</ele>
        <time>2021-01-27T13:43:49Z</time>
      </trkpt>
      <trkpt lat="43.81871" lon="7.44689">
        <ele>886.66677048448</ele>
        <time>2021-01-27T13:43:51Z</time>
      </trkpt>
      <trkpt lat="43.81872" lon="7.44688">
        <ele>886.66673095952</ele>
        <time>2021-01-27T13:43:53Z</time>
      </trkpt>
      <trkpt lat="43.81872" lon="7.44687">
        <ele>886.66670303756</ele>
        <time>2021-01-27T13:43:54Z</time>
      </trkpt>
      <trkpt lat="43.81872" lon="7.44686">
        <ele>886.66667602581</ele>
        <time>2021-01-27T13:43:55Z</time>
      </trkpt>
      <trkpt lat="43.81872" lon="7.44685">
        <ele>885.66667504046</ele>
        <time>2021-01-27T13:43:56Z</time>
      </trkpt>
      <trkpt lat="43.81872" lon="7.44684">
        <ele>885.66668516081</ele>
        <time>2021-01-27T13:43:57Z</time>
      </trkpt>
      <trkpt lat="43.81872" lon="7.44683">
        <ele>885.66668521522</ele>
        <time>2021-01-27T13:43:58Z</time>
      </trkpt>
      <trkpt lat="43.81871" lon="7.44683">
        <ele>884.66670787357</ele>
        <time>2021-01-27T13:43:59Z</time>
      </trkpt>
      <trkpt lat="43.8187" lon="7.44682">
        <ele>884.66675050439</ele>
        <time>2021-01-27T13:44:00Z</time>
      </trkpt>
      <trkpt lat="43.81869" lon="7.44683">
        <ele>884.66679570027</ele>
        <time>2021-01-27T13:44:02Z</time>
      </trkpt>
      <trkpt lat="43.81869" lon="7.44684">
        <ele>884.66681593119</ele>
        <time>2021-01-27T13:44:03Z</time>
      </trkpt>
      <trkpt lat="43.81869" lon="7.44684">
        <ele>883.66683298835</ele>
        <time>2021-01-27T13:44:04Z</time>
      </trkpt>
      <trkpt lat="43.81869" lon="7.44685">
        <ele>883.66684950204</ele>
        <time>2021-01-27T13:44:05Z</time>
      </trkpt>
      <trkpt lat="43.81868" lon="7.44686">
        <ele>883.66686549136</ele>
        <time>2021-01-27T13:44:06Z</time>
      </trkpt>
      <trkpt lat="43.81868" lon="7.44687">
        <ele>883.66690637717</ele>
        <time>2021-01-27T13:44:07Z</time>
      </trkpt>
      <trkpt lat="43.81867" lon="7.44688">
        <ele>882.66694968417</ele>
        <time>2021-01-27T13:44:08Z</time>
      </trkpt>
      <trkpt lat="43.81866" lon="7.44689">
        <ele>882.66699764859</ele>
        <time>2021-01-27T13:44:09Z</time>
      </trkpt>
      <trkpt lat="43.81866" lon="7.44689">
        <ele>882.66703003206</ele>
        <time>2021-01-27T13:44:10Z</time>
      </trkpt>
      <trkpt lat="43.81865" lon="7.44689">
        <ele>882.66704949217</ele>
        <time>2021-01-27T13:44:11Z</time>
      </trkpt>
      <trkpt lat="43.81865" lon="7.44689">
        <ele>881.66707921336</ele>
        <time>2021-01-27T13:44:12Z</time>
      </trkpt>
      <trkpt lat="43.81863" lon="7.44691">
        <ele>881.66718390947</ele>
        <time>2021-01-27T13:44:14Z</time>
      </trkpt>
      <trkpt lat="43.81862" lon="7.44691">
        <ele>880.66722880992</ele>
        <time>2021-01-27T13:44:16Z</time>
      </trkpt>
      <trkpt lat="43.81862" lon="7.44692">
        <ele>880.66726631948</ele>
        <time>2021-01-27T13:44:17Z</time>
      </trkpt>
      <trkpt lat="43.81861" lon="7.44693">
        <ele>879.66730787287</ele>
        <time>2021-01-27T13:44:18Z</time>
      </trkpt>
      <trkpt lat="43.8186" lon="7.44693">
        <ele>879.66734931607</ele>
        <time>2021-01-27T13:44:19Z</time>
      </trkpt>
      <trkpt lat="43.8186" lon="7.44692">
        <ele>879.667354075</ele>
        <time>2021-01-27T13:44:20Z</time>
      </trkpt>
      <trkpt lat="43.81859" lon="7.44691">
        <ele>879.66737098229</ele>
        <time>2021-01-27T13:44:21Z</time>
      </trkpt>
      <trkpt lat="43.81859" lon="7.4469">
        <ele>879.66737749578</ele>
        <time>2021-01-27T13:44:22Z</time>
      </trkpt>
      <trkpt lat="43.81858" lon="7.44689">
        <ele>877.66739825973</ele>
        <time>2021-01-27T13:44:26Z</time>
      </trkpt>
      <trkpt lat="43.81856" lon="7.44688">
        <ele>876.6675017814</ele>
        <time>2021-01-27T13:44:29Z</time>
      </trkpt>
      <trkpt lat="43.81855" lon="7.44688">
        <ele>875.66751419994</ele>
        <time>2021-01-27T13:44:30Z</time>
      </trkpt>
      <trkpt lat="43.81854" lon="7.44687">
        <ele>874.66758918103</ele>
        <time>2021-01-27T13:44:33Z</time>
      </trkpt>
      <trkpt lat="43.81853" lon="7.44686">
        <ele>874.66760456557</ele>
        <time>2021-01-27T13:44:35Z</time>
      </trkpt>
      <trkpt lat="43.81852" lon="7.44685">
        <ele>873.6676381901</ele>
        <time>2021-01-27T13:44:37Z</time>
      </trkpt>
      <trkpt lat="43.81852" lon="7.44684">
        <ele>873.66765503514</ele>
        <time>2021-01-27T13:44:38Z</time>
      </trkpt>
      <trkpt lat="43.81851" lon="7.44683">
        <ele>872.6676567437</ele>
        <time>2021-01-27T13:44:39Z</time>
      </trkpt>
      <trkpt lat="43.81851" lon="7.44682">
        <ele>872.66767312397</ele>
        <time>2021-01-27T13:44:40Z</time>
      </trkpt>
      <trkpt lat="43.8185" lon="7.44682">
        <ele>872.66769842321</ele>
        <time>2021-01-27T13:44:43Z</time>
      </trkpt>
      <trkpt lat="43.81849" lon="7.44681">
        <ele>872.66776559498</ele>
        <time>2021-01-27T13:44:44Z</time>
      </trkpt>
      <trkpt lat="43.81848" lon="7.4468">
        <ele>872.66779265213</ele>
        <time>2021-01-27T13:44:45Z</time>
      </trkpt>
      <trkpt lat="43.81848" lon="7.44679">
        <ele>872.66780437741</ele>
        <time>2021-01-27T13:44:46Z</time>
      </trkpt>
      <trkpt lat="43.81847" lon="7.44679">
        <ele>872.66782442635</ele>
        <time>2021-01-27T13:44:47Z</time>
      </trkpt>
      <trkpt lat="43.81846" lon="7.44678">
        <ele>872.66785066892</ele>
        <time>2021-01-27T13:44:48Z</time>
      </trkpt>
      <trkpt lat="43.81846" lon="7.44677">
        <ele>872.66785436339</ele>
        <time>2021-01-27T13:44:49Z</time>
      </trkpt>
      <trkpt lat="43.81846" lon="7.44675">
        <ele>872.66784599028</ele>
        <time>2021-01-27T13:44:50Z</time>
      </trkpt>
      <trkpt lat="43.81846" lon="7.44674">
        <ele>873.6678421694</ele>
        <time>2021-01-27T13:44:51Z</time>
      </trkpt>
      <trkpt lat="43.81845" lon="7.44673">
        <ele>873.66784852279</ele>
        <time>2021-01-27T13:44:52Z</time>
      </trkpt>
      <trkpt lat="43.81845" lon="7.44674">
        <ele>872.66788424578</ele>
        <time>2021-01-27T13:44:54Z</time>
      </trkpt>
      <trkpt lat="43.81844" lon="7.44674">
        <ele>871.66790473495</ele>
        <time>2021-01-27T13:44:55Z</time>
      </trkpt>
      <trkpt lat="43.81844" lon="7.44675">
        <ele>870.66791901596</ele>
        <time>2021-01-27T13:44:56Z</time>
      </trkpt>
      <trkpt lat="43.81844" lon="7.44676">
        <ele>870.66796175809</ele>
        <time>2021-01-27T13:44:57Z</time>
      </trkpt>
      <trkpt lat="43.81842" lon="7.44677">
        <ele>870.66806145047</ele>
        <time>2021-01-27T13:44:59Z</time>
      </trkpt>
      <trkpt lat="43.81841" lon="7.44678">
        <ele>870.66808999119</ele>
        <time>2021-01-27T13:45:00Z</time>
      </trkpt>
      <trkpt lat="43.81841" lon="7.44678">
        <ele>869.66812751015</ele>
        <time>2021-01-27T13:45:01Z</time>
      </trkpt>
      <trkpt lat="43.81841" lon="7.44677">
        <ele>869.668116112</ele>
        <time>2021-01-27T13:45:02Z</time>
      </trkpt>
      <trkpt lat="43.81841" lon="7.44676">
        <ele>869.66809711075</ele>
        <time>2021-01-27T13:45:03Z</time>
      </trkpt>
      <trkpt lat="43.8184" lon="7.44675">
        <ele>869.66810762115</ele>
        <time>2021-01-27T13:45:04Z</time>
      </trkpt>
      <trkpt lat="43.8184" lon="7.44674">
        <ele>869.66809695526</ele>
        <time>2021-01-27T13:45:05Z</time>
      </trkpt>
      <trkpt lat="43.8184" lon="7.44674">
        <ele>869.66811097311</ele>
        <time>2021-01-27T13:45:08Z</time>
      </trkpt>
      <trkpt lat="43.81838" lon="7.44671">
        <ele>869.66819519367</ele>
        <time>2021-01-27T13:45:10Z</time>
      </trkpt>
      <trkpt lat="43.81837" lon="7.44671">
        <ele>868.66820578805</ele>
        <time>2021-01-27T13:45:11Z</time>
      </trkpt>
      <trkpt lat="43.81836" lon="7.44671">
        <ele>866.66830124746</ele>
        <time>2021-01-27T13:45:14Z</time>
      </trkpt>
      <trkpt lat="43.81835" lon="7.44671">
        <ele>865.66832337174</ele>
        <time>2021-01-27T13:45:15Z</time>
      </trkpt>
      <trkpt lat="43.81834" lon="7.44671">
        <ele>864.66838010957</ele>
        <time>2021-01-27T13:45:17Z</time>
      </trkpt>
      <trkpt lat="43.81834" lon="7.44671">
        <ele>864.66838010957</ele>
        <time>2021-01-27T13:45:19Z</time>
      </trkpt>
      <trkpt lat="43.81833" lon="7.44669">
        <ele>864.66840442105</ele>
        <time>2021-01-27T13:45:20Z</time>
      </trkpt>
      <trkpt lat="43.81832" lon="7.44667">
        <ele>864.66840791818</ele>
        <time>2021-01-27T13:45:21Z</time>
      </trkpt>
      <trkpt lat="43.81832" lon="7.44664">
        <ele>863.66841095728</ele>
        <time>2021-01-27T13:45:23Z</time>
      </trkpt>
      <trkpt lat="43.81831" lon="7.44663">
        <ele>863.66842383531</ele>
        <time>2021-01-27T13:45:25Z</time>
      </trkpt>
      <trkpt lat="43.8183" lon="7.44662">
        <ele>863.66844931699</ele>
        <time>2021-01-27T13:45:26Z</time>
      </trkpt>
      <trkpt lat="43.8183" lon="7.44661">
        <ele>863.66847213717</ele>
        <time>2021-01-27T13:45:27Z</time>
      </trkpt>
      <trkpt lat="43.81829" lon="7.4466">
        <ele>862.66849165376</ele>
        <time>2021-01-27T13:45:28Z</time>
      </trkpt>
      <trkpt lat="43.81829" lon="7.4466">
        <ele>862.66851871124</ele>
        <time>2021-01-27T13:45:29Z</time>
      </trkpt>
      <trkpt lat="43.81828" lon="7.4466">
        <ele>862.66856037572</ele>
        <time>2021-01-27T13:45:30Z</time>
      </trkpt>
      <trkpt lat="43.81827" lon="7.44659">
        <ele>862.66858755636</ele>
        <time>2021-01-27T13:45:31Z</time>
      </trkpt>
      <trkpt lat="43.81826" lon="7.44658">
        <ele>862.66861075087</ele>
        <time>2021-01-27T13:45:32Z</time>
      </trkpt>
      <trkpt lat="43.81825" lon="7.44658">
        <ele>861.66864017208</ele>
        <time>2021-01-27T13:45:34Z</time>
      </trkpt>
      <trkpt lat="43.81825" lon="7.44658">
        <ele>860.66867525669</ele>
        <time>2021-01-27T13:45:35Z</time>
      </trkpt>
      <trkpt lat="43.81825" lon="7.44659">
        <ele>860.66870409303</ele>
        <time>2021-01-27T13:45:36Z</time>
      </trkpt>
      <trkpt lat="43.81823" lon="7.4466">
        <ele>859.66876624496</ele>
        <time>2021-01-27T13:45:37Z</time>
      </trkpt>
      <trkpt lat="43.81822" lon="7.44659">
        <ele>858.66881855516</ele>
        <time>2021-01-27T13:45:38Z</time>
      </trkpt>
      <trkpt lat="43.81822" lon="7.44657">
        <ele>859.66881231309</ele>
        <time>2021-01-27T13:45:39Z</time>
      </trkpt>
      <trkpt lat="43.81821" lon="7.44656">
        <ele>859.6688231407</ele>
        <time>2021-01-27T13:45:40Z</time>
      </trkpt>
      <trkpt lat="43.81821" lon="7.44654">
        <ele>859.66882279048</ele>
        <time>2021-01-27T13:45:41Z</time>
      </trkpt>
      <trkpt lat="43.81821" lon="7.44653">
        <ele>860.66882268653</ele>
        <time>2021-01-27T13:45:43Z</time>
      </trkpt>
      <trkpt lat="43.8182" lon="7.44652">
        <ele>859.66882531479</ele>
        <time>2021-01-27T13:45:44Z</time>
      </trkpt>
      <trkpt lat="43.8182" lon="7.44651">
        <ele>859.66883201421</ele>
        <time>2021-01-27T13:45:45Z</time>
      </trkpt>
      <trkpt lat="43.8182" lon="7.44651">
        <ele>859.66884818528</ele>
        <time>2021-01-27T13:45:46Z</time>
      </trkpt>
      <trkpt lat="43.81819" lon="7.4465">
        <ele>859.66885459559</ele>
        <time>2021-01-27T13:45:47Z</time>
      </trkpt>
      <trkpt lat="43.81819" lon="7.44649">
        <ele>859.66885841364</ele>
        <time>2021-01-27T13:45:48Z</time>
      </trkpt>
      <trkpt lat="43.81819" lon="7.44648">
        <ele>858.66885659554</ele>
        <time>2021-01-27T13:45:51Z</time>
      </trkpt>
      <trkpt lat="43.81818" lon="7.44646">
        <ele>858.6688755655</ele>
        <time>2021-01-27T13:45:52Z</time>
      </trkpt>
      <trkpt lat="43.81817" lon="7.44644">
        <ele>857.66890001766</ele>
        <time>2021-01-27T13:45:54Z</time>
      </trkpt>
      <trkpt lat="43.81816" lon="7.44643">
        <ele>857.66893642032</ele>
        <time>2021-01-27T13:45:55Z</time>
      </trkpt>
      <trkpt lat="43.81815" lon="7.44642">
        <ele>857.66896698237</ele>
        <time>2021-01-27T13:45:56Z</time>
      </trkpt>
      <trkpt lat="43.81815" lon="7.44642">
        <ele>856.66899445127</ele>
        <time>2021-01-27T13:45:57Z</time>
      </trkpt>
      <trkpt lat="43.81814" lon="7.44642">
        <ele>853.66903084419</ele>
        <time>2021-01-27T13:46:00Z</time>
      </trkpt>
      <trkpt lat="43.81814" lon="7.4464">
        <ele>853.66899649348</ele>
        <time>2021-01-27T13:46:01Z</time>
      </trkpt>
      <trkpt lat="43.81814" lon="7.44639">
        <ele>853.66899478912</ele>
        <time>2021-01-27T13:46:02Z</time>
      </trkpt>
      <trkpt lat="43.81814" lon="7.44638">
        <ele>852.6689985445</ele>
        <time>2021-01-27T13:46:03Z</time>
      </trkpt>
      <trkpt lat="43.81813" lon="7.44637">
        <ele>852.6690055248</ele>
        <time>2021-01-27T13:46:04Z</time>
      </trkpt>
      <trkpt lat="43.81813" lon="7.44636">
        <ele>852.66901114865</ele>
        <time>2021-01-27T13:46:05Z</time>
      </trkpt>
      <trkpt lat="43.81813" lon="7.44635">
        <ele>852.66899278386</ele>
        <time>2021-01-27T13:46:06Z</time>
      </trkpt>
      <trkpt lat="43.81814" lon="7.44634">
        <ele>852.66894999193</ele>
        <time>2021-01-27T13:46:07Z</time>
      </trkpt>
      <trkpt lat="43.81814" lon="7.44632">
        <ele>852.66890535535</ele>
        <time>2021-01-27T13:46:09Z</time>
      </trkpt>
      <trkpt lat="43.81814" lon="7.44631">
        <ele>851.66892539521</ele>
        <time>2021-01-27T13:46:10Z</time>
      </trkpt>
      <trkpt lat="43.81813" lon="7.4463">
        <ele>850.66892342997</ele>
        <time>2021-01-27T13:46:11Z</time>
      </trkpt>
      <trkpt lat="43.81812" lon="7.44628">
        <ele>849.66896450636</ele>
        <time>2021-01-27T13:46:13Z</time>
      </trkpt>
      <trkpt lat="43.81811" lon="7.44628">
        <ele>849.66900281402</ele>
        <time>2021-01-27T13:46:15Z</time>
      </trkpt>
      <trkpt lat="43.81811" lon="7.44627">
        <ele>849.66902348638</ele>
        <time>2021-01-27T13:46:16Z</time>
      </trkpt>
      <trkpt lat="43.81811" lon="7.44626">
        <ele>849.66901687121</ele>
        <time>2021-01-27T13:46:17Z</time>
      </trkpt>
      <trkpt lat="43.81811" lon="7.44624">
        <ele>849.66896302072</ele>
        <time>2021-01-27T13:46:18Z</time>
      </trkpt>
      <trkpt lat="43.81812" lon="7.44622">
        <ele>848.66892513353</ele>
        <time>2021-01-27T13:46:19Z</time>
      </trkpt>
      <trkpt lat="43.81812" lon="7.44621">
        <ele>848.66889026629</ele>
        <time>2021-01-27T13:46:20Z</time>
      </trkpt>
      <trkpt lat="43.81812" lon="7.4462">
        <ele>848.66889928411</ele>
        <time>2021-01-27T13:46:21Z</time>
      </trkpt>
      <trkpt lat="43.8181" lon="7.4462">
        <ele>847.66897535921</ele>
        <time>2021-01-27T13:46:23Z</time>
      </trkpt>
      <trkpt lat="43.8181" lon="7.4462">
        <ele>847.66899703685</ele>
        <time>2021-01-27T13:46:25Z</time>
      </trkpt>
      <trkpt lat="43.81809" lon="7.4462">
        <ele>846.6690356302</ele>
        <time>2021-01-27T13:46:26Z</time>
      </trkpt>
      <trkpt lat="43.81808" lon="7.4462">
        <ele>846.66907441406</ele>
        <time>2021-01-27T13:46:27Z</time>
      </trkpt>
      <trkpt lat="43.81807" lon="7.44619">
        <ele>845.66910054906</ele>
        <time>2021-01-27T13:46:28Z</time>
      </trkpt>
      <trkpt lat="43.81807" lon="7.44618">
        <ele>846.66910829369</ele>
        <time>2021-01-27T13:46:29Z</time>
      </trkpt>
      <trkpt lat="43.81807" lon="7.44617">
        <ele>845.66911153581</ele>
        <time>2021-01-27T13:46:30Z</time>
      </trkpt>
      <trkpt lat="43.81806" lon="7.44617">
        <ele>845.6691355631</ele>
        <time>2021-01-27T13:46:31Z</time>
      </trkpt>
      <trkpt lat="43.81805" lon="7.44617">
        <ele>845.66917235584</ele>
        <time>2021-01-27T13:46:33Z</time>
      </trkpt>
      <trkpt lat="43.81805" lon="7.44617">
        <ele>845.66919627331</ele>
        <time>2021-01-27T13:46:34Z</time>
      </trkpt>
      <trkpt lat="43.81804" lon="7.44616">
        <ele>845.66921813756</ele>
        <time>2021-01-27T13:46:35Z</time>
      </trkpt>
      <trkpt lat="43.81804" lon="7.44616">
        <ele>845.6692504689</ele>
        <time>2021-01-27T13:46:36Z</time>
      </trkpt>
      <trkpt lat="43.81803" lon="7.44615">
        <ele>844.6692662114</ele>
        <time>2021-01-27T13:46:37Z</time>
      </trkpt>
      <trkpt lat="43.81803" lon="7.44614">
        <ele>844.66928192416</ele>
        <time>2021-01-27T13:46:38Z</time>
      </trkpt>
      <trkpt lat="43.81803" lon="7.44613">
        <ele>844.66926619618</ele>
        <time>2021-01-27T13:46:39Z</time>
      </trkpt>
      <trkpt lat="43.81803" lon="7.44612">
        <ele>844.66925140439</ele>
        <time>2021-01-27T13:46:40Z</time>
      </trkpt>
      <trkpt lat="43.81802" lon="7.44611">
        <ele>843.66925772884</ele>
        <time>2021-01-27T13:46:42Z</time>
      </trkpt>
      <trkpt lat="43.81801" lon="7.4461">
        <ele>843.66930827079</ele>
        <time>2021-01-27T13:46:44Z</time>
      </trkpt>
      <trkpt lat="43.81801" lon="7.4461">
        <ele>842.66931890126</ele>
        <time>2021-01-27T13:46:45Z</time>
      </trkpt>
      <trkpt lat="43.818" lon="7.44609">
        <ele>841.66933114275</ele>
        <time>2021-01-27T13:46:46Z</time>
      </trkpt>
      <trkpt lat="43.81799" lon="7.44609">
        <ele>841.66937977869</ele>
        <time>2021-01-27T13:46:47Z</time>
      </trkpt>
      <trkpt lat="43.81799" lon="7.44609">
        <ele>840.66941811672</ele>
        <time>2021-01-27T13:46:48Z</time>
      </trkpt>
      <trkpt lat="43.81798" lon="7.44609">
        <ele>840.66944621255</ele>
        <time>2021-01-27T13:46:49Z</time>
      </trkpt>
      <trkpt lat="43.81798" lon="7.44607">
        <ele>841.66943418987</ele>
        <time>2021-01-27T13:46:50Z</time>
      </trkpt>
      <trkpt lat="43.81798" lon="7.44605">
        <ele>842.66938493449</ele>
        <time>2021-01-27T13:46:52Z</time>
      </trkpt>
      <trkpt lat="43.81801" lon="7.44603">
        <ele>840.6692121823</ele>
        <time>2021-01-27T13:46:55Z</time>
      </trkpt>
      <trkpt lat="43.81802" lon="7.44602">
        <ele>840.66918608863</ele>
        <time>2021-01-27T13:46:56Z</time>
      </trkpt>
      <trkpt lat="43.81803" lon="7.446">
        <ele>839.66909881492</ele>
        <time>2021-01-27T13:46:58Z</time>
      </trkpt>
      <trkpt lat="43.81804" lon="7.44599">
        <ele>839.66905678934</ele>
        <time>2021-01-27T13:46:59Z</time>
      </trkpt>
      <trkpt lat="43.81804" lon="7.44598">
        <ele>839.66902299963</ele>
        <time>2021-01-27T13:47:00Z</time>
      </trkpt>
      <trkpt lat="43.81805" lon="7.44598">
        <ele>839.66898688478</ele>
        <time>2021-01-27T13:47:01Z</time>
      </trkpt>
      <trkpt lat="43.81804" lon="7.44598">
        <ele>838.66901070196</ele>
        <time>2021-01-27T13:47:04Z</time>
      </trkpt>
      <trkpt lat="43.81804" lon="7.44598">
        <ele>837.66903613786</ele>
        <time>2021-01-27T13:47:06Z</time>
      </trkpt>
      <trkpt lat="43.81803" lon="7.446">
        <ele>836.66909133508</ele>
        <time>2021-01-27T13:47:08Z</time>
      </trkpt>
      <trkpt lat="43.81802" lon="7.446">
        <ele>835.66914170316</ele>
        <time>2021-01-27T13:47:09Z</time>
      </trkpt>
      <trkpt lat="43.81801" lon="7.446">
        <ele>835.66917631478</ele>
        <time>2021-01-27T13:47:10Z</time>
      </trkpt>
      <trkpt lat="43.81801" lon="7.44599">
        <ele>835.66917955875</ele>
        <time>2021-01-27T13:47:11Z</time>
      </trkpt>
      <trkpt lat="43.81801" lon="7.44598">
        <ele>835.66918470777</ele>
        <time>2021-01-27T13:47:12Z</time>
      </trkpt>
      <trkpt lat="43.81801" lon="7.44597">
        <ele>835.66918557141</ele>
        <time>2021-01-27T13:47:18Z</time>
      </trkpt>
      <trkpt lat="43.818" lon="7.44597">
        <ele>834.66922234244</ele>
        <time>2021-01-27T13:47:19Z</time>
      </trkpt>
      <trkpt lat="43.81799" lon="7.44598">
        <ele>833.66925915036</ele>
        <time>2021-01-27T13:47:20Z</time>
      </trkpt>
      <trkpt lat="43.81799" lon="7.44598">
        <ele>832.66930215239</ele>
        <time>2021-01-27T13:47:21Z</time>
      </trkpt>
      <trkpt lat="43.81797" lon="7.44599">
        <ele>832.66937382132</ele>
        <time>2021-01-27T13:47:23Z</time>
      </trkpt>
      <trkpt lat="43.81796" lon="7.44599">
        <ele>832.66940850493</ele>
        <time>2021-01-27T13:47:24Z</time>
      </trkpt>
      <trkpt lat="43.81795" lon="7.44599">
        <ele>832.66946175928</ele>
        <time>2021-01-27T13:47:25Z</time>
      </trkpt>
      <trkpt lat="43.81793" lon="7.446">
        <ele>831.66957659777</ele>
        <time>2021-01-27T13:47:27Z</time>
      </trkpt>
      <trkpt lat="43.81791" lon="7.446">
        <ele>830.66967098369</ele>
        <time>2021-01-27T13:47:29Z</time>
      </trkpt>
      <trkpt lat="43.81791" lon="7.44601">
        <ele>830.66970740682</ele>
        <time>2021-01-27T13:47:30Z</time>
      </trkpt>
      <trkpt lat="43.81789" lon="7.44601">
        <ele>829.66977497451</ele>
        <time>2021-01-27T13:47:31Z</time>
      </trkpt>
      <trkpt lat="43.81788" lon="7.44601">
        <ele>829.66982977293</ele>
        <time>2021-01-27T13:47:32Z</time>
      </trkpt>
      <trkpt lat="43.81788" lon="7.44601">
        <ele>829.66986225706</ele>
        <time>2021-01-27T13:47:33Z</time>
      </trkpt>
      <trkpt lat="43.81786" lon="7.446">
        <ele>829.66991271821</ele>
        <time>2021-01-27T13:47:34Z</time>
      </trkpt>
      <trkpt lat="43.81785" lon="7.44599">
        <ele>829.66996625763</ele>
        <time>2021-01-27T13:47:35Z</time>
      </trkpt>
      <trkpt lat="43.81785" lon="7.44599">
        <ele>829.6699902764</ele>
        <time>2021-01-27T13:47:36Z</time>
      </trkpt>
      <trkpt lat="43.81783" lon="7.44599">
        <ele>828.67004258121</ele>
        <time>2021-01-27T13:47:38Z</time>
      </trkpt>
      <trkpt lat="43.81783" lon="7.44599">
        <ele>827.67008178754</ele>
        <time>2021-01-27T13:47:39Z</time>
      </trkpt>
      <trkpt lat="43.81781" lon="7.44599">
        <ele>827.6701410252</ele>
        <time>2021-01-27T13:47:40Z</time>
      </trkpt>
      <trkpt lat="43.81781" lon="7.44598">
        <ele>827.67017081721</ele>
        <time>2021-01-27T13:47:41Z</time>
      </trkpt>
      <trkpt lat="43.81779" lon="7.44598">
        <ele>827.67023964705</ele>
        <time>2021-01-27T13:47:43Z</time>
      </trkpt>
      <trkpt lat="43.81779" lon="7.44599">
        <ele>826.6702696282</ele>
        <time>2021-01-27T13:47:44Z</time>
      </trkpt>
      <trkpt lat="43.81778" lon="7.44599">
        <ele>825.67030907161</ele>
        <time>2021-01-27T13:47:45Z</time>
      </trkpt>
      <trkpt lat="43.81777" lon="7.44599">
        <ele>825.67035221265</ele>
        <time>2021-01-27T13:47:46Z</time>
      </trkpt>
      <trkpt lat="43.81776" lon="7.44598">
        <ele>824.67038981841</ele>
        <time>2021-01-27T13:47:47Z</time>
      </trkpt>
      <trkpt lat="43.81776" lon="7.44598">
        <ele>824.67041760525</ele>
        <time>2021-01-27T13:47:48Z</time>
      </trkpt>
      <trkpt lat="43.81775" lon="7.44598">
        <ele>824.67043980414</ele>
        <time>2021-01-27T13:47:49Z</time>
      </trkpt>
      <trkpt lat="43.81774" lon="7.44598">
        <ele>824.6704764196</ele>
        <time>2021-01-27T13:47:50Z</time>
      </trkpt>
      <trkpt lat="43.81773" lon="7.44598">
        <ele>824.67052949752</ele>
        <time>2021-01-27T13:47:51Z</time>
      </trkpt>
      <trkpt lat="43.81771" lon="7.44597">
        <ele>823.67060820975</ele>
        <time>2021-01-27T13:47:53Z</time>
      </trkpt>
      <trkpt lat="43.8177" lon="7.44596">
        <ele>823.67065463937</ele>
        <time>2021-01-27T13:47:54Z</time>
      </trkpt>
      <trkpt lat="43.8177" lon="7.44596">
        <ele>822.67068136906</ele>
        <time>2021-01-27T13:47:55Z</time>
      </trkpt>
      <trkpt lat="43.81769" lon="7.44596">
        <ele>821.67071724325</ele>
        <time>2021-01-27T13:47:56Z</time>
      </trkpt>
      <trkpt lat="43.81768" lon="7.44596">
        <ele>820.67075292577</ele>
        <time>2021-01-27T13:47:57Z</time>
      </trkpt>
      <trkpt lat="43.81767" lon="7.44595">
        <ele>821.67079742462</ele>
        <time>2021-01-27T13:47:58Z</time>
      </trkpt>
      <trkpt lat="43.81766" lon="7.44594">
        <ele>821.67083648861</ele>
        <time>2021-01-27T13:47:59Z</time>
      </trkpt>
      <trkpt lat="43.81765" lon="7.44594">
        <ele>820.67087873076</ele>
        <time>2021-01-27T13:48:00Z</time>
      </trkpt>
      <trkpt lat="43.81764" lon="7.44594">
        <ele>821.67092038979</ele>
        <time>2021-01-27T13:48:01Z</time>
      </trkpt>
      <trkpt lat="43.81763" lon="7.44593">
        <ele>820.67096916239</ele>
        <time>2021-01-27T13:48:02Z</time>
      </trkpt>
      <trkpt lat="43.81762" lon="7.44592">
        <ele>820.67099837467</ele>
        <time>2021-01-27T13:48:03Z</time>
      </trkpt>
      <trkpt lat="43.81761" lon="7.44591">
        <ele>820.67104639881</ele>
        <time>2021-01-27T13:48:04Z</time>
      </trkpt>
      <trkpt lat="43.8176" lon="7.4459">
        <ele>820.67110111116</ele>
        <time>2021-01-27T13:48:05Z</time>
      </trkpt>
      <trkpt lat="43.81758" lon="7.44589">
        <ele>819.67115662114</ele>
        <time>2021-01-27T13:48:06Z</time>
      </trkpt>
      <trkpt lat="43.81757" lon="7.44588">
        <ele>819.67120719462</ele>
        <time>2021-01-27T13:48:07Z</time>
      </trkpt>
      <trkpt lat="43.81756" lon="7.44588">
        <ele>819.67124494632</ele>
        <time>2021-01-27T13:48:08Z</time>
      </trkpt>
      <trkpt lat="43.81756" lon="7.44586">
        <ele>819.67126416689</ele>
        <time>2021-01-27T13:48:09Z</time>
      </trkpt>
      <trkpt lat="43.81755" lon="7.44586">
        <ele>819.67128678602</ele>
        <time>2021-01-27T13:48:10Z</time>
      </trkpt>
      <trkpt lat="43.81754" lon="7.44585">
        <ele>819.67132257221</ele>
        <time>2021-01-27T13:48:11Z</time>
      </trkpt>
      <trkpt lat="43.81753" lon="7.44585">
        <ele>818.67136057528</ele>
        <time>2021-01-27T13:48:12Z</time>
      </trkpt>
      <trkpt lat="43.81752" lon="7.44584">
        <ele>818.67139980621</ele>
        <time>2021-01-27T13:48:13Z</time>
      </trkpt>
      <trkpt lat="43.81752" lon="7.44584">
        <ele>819.67142365386</ele>
        <time>2021-01-27T13:48:14Z</time>
      </trkpt>
      <trkpt lat="43.81752" lon="7.44583">
        <ele>818.67141793122</ele>
        <time>2021-01-27T13:48:28Z</time>
      </trkpt>
      <trkpt lat="43.81751" lon="7.44583">
        <ele>818.67145086396</ele>
        <time>2021-01-27T13:49:53Z</time>
      </trkpt>
      <trkpt lat="43.81749" lon="7.44582">
        <ele>818.67151356349</ele>
        <time>2021-01-27T13:49:55Z</time>
      </trkpt>
      <trkpt lat="43.81749" lon="7.44581">
        <ele>818.67154219628</ele>
        <time>2021-01-27T13:50:01Z</time>
      </trkpt>
      <trkpt lat="43.81748" lon="7.44581">
        <ele>819.6715841001</ele>
        <time>2021-01-27T13:50:46Z</time>
      </trkpt>
      <trkpt lat="43.81747" lon="7.44581">
        <ele>818.67160629934</ele>
        <time>2021-01-27T13:50:49Z</time>
      </trkpt>
      <trkpt lat="43.81746" lon="7.4458">
        <ele>818.67164753242</ele>
        <time>2021-01-27T13:50:50Z</time>
      </trkpt>
      <trkpt lat="43.81746" lon="7.4458">
        <ele>818.67167494002</ele>
        <time>2021-01-27T13:50:51Z</time>
      </trkpt>
      <trkpt lat="43.81745" lon="7.4458">
        <ele>818.67170912761</ele>
        <time>2021-01-27T13:50:52Z</time>
      </trkpt>
      <trkpt lat="43.81744" lon="7.44579">
        <ele>818.67176502723</ele>
        <time>2021-01-27T13:50:53Z</time>
      </trkpt>
      <trkpt lat="43.81743" lon="7.4458">
        <ele>818.67179257421</ele>
        <time>2021-01-27T13:50:54Z</time>
      </trkpt>
      <trkpt lat="43.81743" lon="7.44581">
        <ele>818.67181820295</ele>
        <time>2021-01-27T13:50:55Z</time>
      </trkpt>
      <trkpt lat="43.81743" lon="7.44582">
        <ele>818.67184671974</ele>
        <time>2021-01-27T13:50:56Z</time>
      </trkpt>
      <trkpt lat="43.81742" lon="7.44582">
        <ele>818.67189636875</ele>
        <time>2021-01-27T13:50:57Z</time>
      </trkpt>
      <trkpt lat="43.8174" lon="7.44582">
        <ele>818.67199689324</ele>
        <time>2021-01-27T13:50:59Z</time>
      </trkpt>
      <trkpt lat="43.81739" lon="7.44581">
        <ele>818.6720301885</ele>
        <time>2021-01-27T13:51:00Z</time>
      </trkpt>
      <trkpt lat="43.81738" lon="7.44581">
        <ele>819.67207095527</ele>
        <time>2021-01-27T13:51:01Z</time>
      </trkpt>
      <trkpt lat="43.81737" lon="7.4458">
        <ele>819.67209746437</ele>
        <time>2021-01-27T13:51:02Z</time>
      </trkpt>
      <trkpt lat="43.81736" lon="7.44579">
        <ele>820.67213542561</ele>
        <time>2021-01-27T13:51:03Z</time>
      </trkpt>
      <trkpt lat="43.81735" lon="7.44579">
        <ele>820.67218587236</ele>
        <time>2021-01-27T13:51:04Z</time>
      </trkpt>
      <trkpt lat="43.81734" lon="7.44578">
        <ele>820.67223487246</ele>
        <time>2021-01-27T13:51:05Z</time>
      </trkpt>
      <trkpt lat="43.81731" lon="7.44578">
        <ele>821.6723439335</ele>
        <time>2021-01-27T13:51:07Z</time>
      </trkpt>
      <trkpt lat="43.8173" lon="7.44578">
        <ele>821.67239826389</ele>
        <time>2021-01-27T13:51:08Z</time>
      </trkpt>
      <trkpt lat="43.81729" lon="7.44578">
        <ele>821.67245883243</ele>
        <time>2021-01-27T13:51:09Z</time>
      </trkpt>
      <trkpt lat="43.81728" lon="7.44579">
        <ele>821.672508749</ele>
        <time>2021-01-27T13:51:10Z</time>
      </trkpt>
      <trkpt lat="43.81727" lon="7.44579">
        <ele>821.67255166932</ele>
        <time>2021-01-27T13:51:11Z</time>
      </trkpt>
      <trkpt lat="43.81726" lon="7.44579">
        <ele>822.67260318131</ele>
        <time>2021-01-27T13:51:12Z</time>
      </trkpt>
      <trkpt lat="43.81724" lon="7.44578">
        <ele>821.67269347675</ele>
        <time>2021-01-27T13:51:14Z</time>
      </trkpt>
      <trkpt lat="43.81723" lon="7.44578">
        <ele>822.67274959299</ele>
        <time>2021-01-27T13:51:15Z</time>
      </trkpt>
      <trkpt lat="43.81722" lon="7.44577">
        <ele>822.67280890292</ele>
        <time>2021-01-27T13:51:16Z</time>
      </trkpt>
      <trkpt lat="43.81721" lon="7.44577">
        <ele>821.67286433895</ele>
        <time>2021-01-27T13:51:17Z</time>
      </trkpt>
      <trkpt lat="43.8172" lon="7.44577">
        <ele>821.6729098788</ele>
        <time>2021-01-27T13:51:18Z</time>
      </trkpt>
      <trkpt lat="43.81719" lon="7.44578">
        <ele>821.67297193615</ele>
        <time>2021-01-27T13:51:19Z</time>
      </trkpt>
      <trkpt lat="43.81717" lon="7.44578">
        <ele>821.67303707284</ele>
        <time>2021-01-27T13:51:20Z</time>
      </trkpt>
      <trkpt lat="43.81716" lon="7.44578">
        <ele>821.67311077924</ele>
        <time>2021-01-27T13:51:21Z</time>
      </trkpt>
      <trkpt lat="43.81715" lon="7.44579">
        <ele>822.67315911899</ele>
        <time>2021-01-27T13:51:22Z</time>
      </trkpt>
      <trkpt lat="43.81714" lon="7.4458">
        <ele>821.67321691348</ele>
        <time>2021-01-27T13:51:23Z</time>
      </trkpt>
      <trkpt lat="43.81713" lon="7.44581">
        <ele>821.67327362727</ele>
        <time>2021-01-27T13:51:24Z</time>
      </trkpt>
      <trkpt lat="43.81712" lon="7.44582">
        <ele>822.67332432532</ele>
        <time>2021-01-27T13:51:25Z</time>
      </trkpt>
      <trkpt lat="43.81711" lon="7.44583">
        <ele>822.67339092843</ele>
        <time>2021-01-27T13:51:26Z</time>
      </trkpt>
      <trkpt lat="43.8171" lon="7.44584">
        <ele>822.67344635796</ele>
        <time>2021-01-27T13:51:27Z</time>
      </trkpt>
      <trkpt lat="43.81708" lon="7.44585">
        <ele>822.67354565942</ele>
        <time>2021-01-27T13:51:29Z</time>
      </trkpt>
      <trkpt lat="43.81707" lon="7.44586">
        <ele>822.67359974561</ele>
        <time>2021-01-27T13:51:30Z</time>
      </trkpt>
      <trkpt lat="43.81706" lon="7.44586">
        <ele>822.67365813712</ele>
        <time>2021-01-27T13:51:31Z</time>
      </trkpt>
      <trkpt lat="43.81706" lon="7.44587">
        <ele>822.67370390021</ele>
        <time>2021-01-27T13:51:32Z</time>
      </trkpt>
      <trkpt lat="43.81703" lon="7.44588">
        <ele>822.67381842356</ele>
        <time>2021-01-27T13:51:34Z</time>
      </trkpt>
      <trkpt lat="43.81702" lon="7.44588">
        <ele>822.6738733605</ele>
        <time>2021-01-27T13:51:35Z</time>
      </trkpt>
      <trkpt lat="43.81702" lon="7.44589">
        <ele>821.67392291549</ele>
        <time>2021-01-27T13:51:36Z</time>
      </trkpt>
      <trkpt lat="43.81701" lon="7.4459">
        <ele>821.67396418694</ele>
        <time>2021-01-27T13:51:37Z</time>
      </trkpt>
      <trkpt lat="43.817" lon="7.44591">
        <ele>822.67401125583</ele>
        <time>2021-01-27T13:51:38Z</time>
      </trkpt>
      <trkpt lat="43.81699" lon="7.44592">
        <ele>822.67405934588</ele>
        <time>2021-01-27T13:51:39Z</time>
      </trkpt>
      <trkpt lat="43.81698" lon="7.44593">
        <ele>822.67412290926</ele>
        <time>2021-01-27T13:51:40Z</time>
      </trkpt>
      <trkpt lat="43.81697" lon="7.44593">
        <ele>822.67419409379</ele>
        <time>2021-01-27T13:51:41Z</time>
      </trkpt>
      <trkpt lat="43.81696" lon="7.44594">
        <ele>822.67425233329</ele>
        <time>2021-01-27T13:51:42Z</time>
      </trkpt>
      <trkpt lat="43.81695" lon="7.44595">
        <ele>822.67430526934</ele>
        <time>2021-01-27T13:51:43Z</time>
      </trkpt>
      <trkpt lat="43.81694" lon="7.44596">
        <ele>822.67436676345</ele>
        <time>2021-01-27T13:51:44Z</time>
      </trkpt>
      <trkpt lat="43.81693" lon="7.44598">
        <ele>822.67442376665</ele>
        <time>2021-01-27T13:51:45Z</time>
      </trkpt>
      <trkpt lat="43.81692" lon="7.44599">
        <ele>822.67448291768</ele>
        <time>2021-01-27T13:51:46Z</time>
      </trkpt>
      <trkpt lat="43.81691" lon="7.446">
        <ele>822.67454436846</ele>
        <time>2021-01-27T13:51:47Z</time>
      </trkpt>
      <trkpt lat="43.8169" lon="7.44602">
        <ele>821.67460715053</ele>
        <time>2021-01-27T13:51:48Z</time>
      </trkpt>
      <trkpt lat="43.81689" lon="7.44603">
        <ele>821.67466378874</ele>
        <time>2021-01-27T13:51:49Z</time>
      </trkpt>
      <trkpt lat="43.81689" lon="7.44605">
        <ele>821.67471653334</ele>
        <time>2021-01-27T13:51:50Z</time>
      </trkpt>
      <trkpt lat="43.81688" lon="7.44606">
        <ele>821.67477126352</ele>
        <time>2021-01-27T13:51:51Z</time>
      </trkpt>
      <trkpt lat="43.81685" lon="7.44607">
        <ele>821.6748996033</ele>
        <time>2021-01-27T13:51:53Z</time>
      </trkpt>
      <trkpt lat="43.81684" lon="7.44608">
        <ele>820.67497336118</ele>
        <time>2021-01-27T13:51:54Z</time>
      </trkpt>
      <trkpt lat="43.81683" lon="7.44608">
        <ele>819.6750422325</ele>
        <time>2021-01-27T13:51:55Z</time>
      </trkpt>
      <trkpt lat="43.81681" lon="7.44608">
        <ele>819.67510253062</ele>
        <time>2021-01-27T13:51:56Z</time>
      </trkpt>
      <trkpt lat="43.8168" lon="7.44609">
        <ele>819.67516325499</ele>
        <time>2021-01-27T13:51:57Z</time>
      </trkpt>
      <trkpt lat="43.81679" lon="7.44609">
        <ele>819.67522653234</ele>
        <time>2021-01-27T13:51:58Z</time>
      </trkpt>
      <trkpt lat="43.81678" lon="7.4461">
        <ele>819.67527711689</ele>
        <time>2021-01-27T13:51:59Z</time>
      </trkpt>
      <trkpt lat="43.81677" lon="7.44611">
        <ele>820.6753307126</ele>
        <time>2021-01-27T13:52:00Z</time>
      </trkpt>
      <trkpt lat="43.81676" lon="7.44612">
        <ele>820.67540595712</ele>
        <time>2021-01-27T13:52:01Z</time>
      </trkpt>
      <trkpt lat="43.81675" lon="7.44612">
        <ele>820.67546187044</ele>
        <time>2021-01-27T13:52:02Z</time>
      </trkpt>
      <trkpt lat="43.81674" lon="7.44612">
        <ele>820.67549287977</ele>
        <time>2021-01-27T13:52:03Z</time>
      </trkpt>
      <trkpt lat="43.81674" lon="7.44613">
        <ele>820.67551747654</ele>
        <time>2021-01-27T13:52:05Z</time>
      </trkpt>
      <trkpt lat="43.81673" lon="7.44612">
        <ele>820.67556160908</ele>
        <time>2021-01-27T13:52:07Z</time>
      </trkpt>
      <trkpt lat="43.81673" lon="7.44612">
        <ele>820.67556095786</ele>
        <time>2021-01-27T13:52:10Z</time>
      </trkpt>
      <trkpt lat="43.81672" lon="7.44612">
        <ele>820.67561585744</ele>
        <time>2021-01-27T13:52:12Z</time>
      </trkpt>
      <trkpt lat="43.8167" lon="7.44614">
        <ele>819.6757117508</ele>
        <time>2021-01-27T13:52:14Z</time>
      </trkpt>
      <trkpt lat="43.81669" lon="7.44615">
        <ele>819.67576652975</ele>
        <time>2021-01-27T13:52:15Z</time>
      </trkpt>
      <trkpt lat="43.81668" lon="7.44615">
        <ele>819.67583148493</ele>
        <time>2021-01-27T13:52:16Z</time>
      </trkpt>
      <trkpt lat="43.81666" lon="7.44615">
        <ele>819.67591023942</ele>
        <time>2021-01-27T13:52:17Z</time>
      </trkpt>
      <trkpt lat="43.81665" lon="7.44616">
        <ele>819.67597830624</ele>
        <time>2021-01-27T13:52:18Z</time>
      </trkpt>
      <trkpt lat="43.81664" lon="7.44616">
        <ele>819.67604145239</ele>
        <time>2021-01-27T13:52:19Z</time>
      </trkpt>
      <trkpt lat="43.81663" lon="7.44617">
        <ele>819.67609530013</ele>
        <time>2021-01-27T13:52:20Z</time>
      </trkpt>
      <trkpt lat="43.81662" lon="7.44617">
        <ele>819.67615232038</ele>
        <time>2021-01-27T13:52:21Z</time>
      </trkpt>
      <trkpt lat="43.81661" lon="7.44618">
        <ele>819.67620752264</ele>
        <time>2021-01-27T13:52:22Z</time>
      </trkpt>
      <trkpt lat="43.8166" lon="7.44619">
        <ele>819.67626585982</ele>
        <time>2021-01-27T13:52:23Z</time>
      </trkpt>
      <trkpt lat="43.81659" lon="7.44619">
        <ele>820.67631041383</ele>
        <time>2021-01-27T13:52:24Z</time>
      </trkpt>
      <trkpt lat="43.81658" lon="7.4462">
        <ele>819.67637298812</ele>
        <time>2021-01-27T13:52:25Z</time>
      </trkpt>
      <trkpt lat="43.81657" lon="7.4462">
        <ele>819.6764394748</ele>
        <time>2021-01-27T13:52:26Z</time>
      </trkpt>
      <trkpt lat="43.81655" lon="7.4462">
        <ele>819.67651038545</ele>
        <time>2021-01-27T13:52:27Z</time>
      </trkpt>
      <trkpt lat="43.81653" lon="7.4462">
        <ele>819.6766215697</ele>
        <time>2021-01-27T13:52:29Z</time>
      </trkpt>
      <trkpt lat="43.81652" lon="7.44619">
        <ele>819.67666028517</ele>
        <time>2021-01-27T13:52:30Z</time>
      </trkpt>
      <trkpt lat="43.81651" lon="7.4462">
        <ele>819.67670653151</ele>
        <time>2021-01-27T13:52:31Z</time>
      </trkpt>
      <trkpt lat="43.8165" lon="7.4462">
        <ele>818.67675727103</ele>
        <time>2021-01-27T13:52:32Z</time>
      </trkpt>
      <trkpt lat="43.81649" lon="7.4462">
        <ele>818.67682959126</ele>
        <time>2021-01-27T13:52:33Z</time>
      </trkpt>
      <trkpt lat="43.81648" lon="7.44621">
        <ele>818.67687276744</ele>
        <time>2021-01-27T13:52:34Z</time>
      </trkpt>
      <trkpt lat="43.81647" lon="7.44621">
        <ele>819.6769108494</ele>
        <time>2021-01-27T13:52:35Z</time>
      </trkpt>
      <trkpt lat="43.81645" lon="7.44622">
        <ele>818.67702412311</ele>
        <time>2021-01-27T13:52:37Z</time>
      </trkpt>
      <trkpt lat="43.81644" lon="7.44622">
        <ele>818.67709046479</ele>
        <time>2021-01-27T13:52:38Z</time>
      </trkpt>
      <trkpt lat="43.81643" lon="7.44623">
        <ele>818.67715579796</ele>
        <time>2021-01-27T13:52:39Z</time>
      </trkpt>
      <trkpt lat="43.81641" lon="7.44624">
        <ele>818.67723718029</ele>
        <time>2021-01-27T13:52:40Z</time>
      </trkpt>
      <trkpt lat="43.8164" lon="7.44626">
        <ele>818.67732045056</ele>
        <time>2021-01-27T13:52:41Z</time>
      </trkpt>
      <trkpt lat="43.81639" lon="7.44627">
        <ele>818.6773810973</ele>
        <time>2021-01-27T13:52:42Z</time>
      </trkpt>
      <trkpt lat="43.81638" lon="7.44627">
        <ele>817.67742908358</ele>
        <time>2021-01-27T13:52:43Z</time>
      </trkpt>
      <trkpt lat="43.81637" lon="7.44627">
        <ele>817.67748936743</ele>
        <time>2021-01-27T13:52:44Z</time>
      </trkpt>
      <trkpt lat="43.81636" lon="7.44629">
        <ele>817.67754955552</ele>
        <time>2021-01-27T13:52:45Z</time>
      </trkpt>
      <trkpt lat="43.81634" lon="7.4463">
        <ele>817.67761964655</ele>
        <time>2021-01-27T13:52:46Z</time>
      </trkpt>
      <trkpt lat="43.81633" lon="7.4463">
        <ele>817.67766973006</ele>
        <time>2021-01-27T13:52:47Z</time>
      </trkpt>
      <trkpt lat="43.81633" lon="7.4463">
        <ele>816.67770334851</ele>
        <time>2021-01-27T13:52:48Z</time>
      </trkpt>
      <trkpt lat="43.81632" lon="7.44631">
        <ele>816.67774674075</ele>
        <time>2021-01-27T13:52:49Z</time>
      </trkpt>
      <trkpt lat="43.81631" lon="7.44631">
        <ele>815.67781397683</ele>
        <time>2021-01-27T13:52:50Z</time>
      </trkpt>
      <trkpt lat="43.81629" lon="7.44633">
        <ele>814.67793391088</ele>
        <time>2021-01-27T13:52:52Z</time>
      </trkpt>
      <trkpt lat="43.81628" lon="7.44633">
        <ele>814.67797881521</ele>
        <time>2021-01-27T13:52:53Z</time>
      </trkpt>
      <trkpt lat="43.81626" lon="7.44634">
        <ele>814.6780552871</ele>
        <time>2021-01-27T13:52:54Z</time>
      </trkpt>
      <trkpt lat="43.81625" lon="7.44634">
        <ele>814.6781310791</ele>
        <time>2021-01-27T13:52:55Z</time>
      </trkpt>
      <trkpt lat="43.81624" lon="7.44635">
        <ele>814.67817450438</ele>
        <time>2021-01-27T13:52:56Z</time>
      </trkpt>
      <trkpt lat="43.81623" lon="7.44637">
        <ele>813.67827371419</ele>
        <time>2021-01-27T13:52:58Z</time>
      </trkpt>
      <trkpt lat="43.81622" lon="7.44638">
        <ele>814.67832853653</ele>
        <time>2021-01-27T13:52:59Z</time>
      </trkpt>
      <trkpt lat="43.81621" lon="7.44639">
        <ele>813.67839655832</ele>
        <time>2021-01-27T13:53:00Z</time>
      </trkpt>
      <trkpt lat="43.81619" lon="7.44643">
        <ele>814.67850458273</ele>
        <time>2021-01-27T13:53:02Z</time>
      </trkpt>
      <trkpt lat="43.81618" lon="7.44644">
        <ele>814.6785656926</ele>
        <time>2021-01-27T13:53:03Z</time>
      </trkpt>
      <trkpt lat="43.81617" lon="7.44646">
        <ele>814.67862241831</ele>
        <time>2021-01-27T13:53:04Z</time>
      </trkpt>
      <trkpt lat="43.81616" lon="7.44647">
        <ele>814.67867627965</ele>
        <time>2021-01-27T13:53:05Z</time>
      </trkpt>
      <trkpt lat="43.81616" lon="7.44648">
        <ele>815.67873056089</ele>
        <time>2021-01-27T13:53:06Z</time>
      </trkpt>
      <trkpt lat="43.81613" lon="7.44651">
        <ele>815.6788820479</ele>
        <time>2021-01-27T13:53:08Z</time>
      </trkpt>
      <trkpt lat="43.81612" lon="7.44652">
        <ele>815.67896172965</ele>
        <time>2021-01-27T13:53:09Z</time>
      </trkpt>
      <trkpt lat="43.81611" lon="7.44652">
        <ele>816.67900561976</ele>
        <time>2021-01-27T13:53:10Z</time>
      </trkpt>
      <trkpt lat="43.8161" lon="7.44653">
        <ele>816.67906082147</ele>
        <time>2021-01-27T13:53:11Z</time>
      </trkpt>
      <trkpt lat="43.81608" lon="7.44653">
        <ele>816.67913003972</ele>
        <time>2021-01-27T13:53:12Z</time>
      </trkpt>
      <trkpt lat="43.81607" lon="7.44654">
        <ele>815.67920829707</ele>
        <time>2021-01-27T13:53:13Z</time>
      </trkpt>
      <trkpt lat="43.81606" lon="7.44655">
        <ele>815.67927733501</ele>
        <time>2021-01-27T13:53:14Z</time>
      </trkpt>
      <trkpt lat="43.81605" lon="7.44656">
        <ele>815.67933316754</ele>
        <time>2021-01-27T13:53:15Z</time>
      </trkpt>
      <trkpt lat="43.81603" lon="7.44657">
        <ele>815.67944207029</ele>
        <time>2021-01-27T13:53:17Z</time>
      </trkpt>
      <trkpt lat="43.81602" lon="7.44659">
        <ele>815.67949924463</ele>
        <time>2021-01-27T13:53:18Z</time>
      </trkpt>
      <trkpt lat="43.81601" lon="7.44659">
        <ele>815.67954448971</ele>
        <time>2021-01-27T13:53:19Z</time>
      </trkpt>
      <trkpt lat="43.816" lon="7.4466">
        <ele>815.67960086151</ele>
        <time>2021-01-27T13:53:20Z</time>
      </trkpt>
      <trkpt lat="43.81599" lon="7.44661">
        <ele>815.67966256324</ele>
        <time>2021-01-27T13:53:21Z</time>
      </trkpt>
      <trkpt lat="43.81597" lon="7.44663">
        <ele>815.67977927132</ele>
        <time>2021-01-27T13:53:23Z</time>
      </trkpt>
      <trkpt lat="43.81596" lon="7.44665">
        <ele>815.67983658675</ele>
        <time>2021-01-27T13:53:24Z</time>
      </trkpt>
      <trkpt lat="43.81596" lon="7.44665">
        <ele>815.67987369756</ele>
        <time>2021-01-27T13:53:25Z</time>
      </trkpt>
      <trkpt lat="43.81595" lon="7.44666">
        <ele>815.6799305289</ele>
        <time>2021-01-27T13:53:26Z</time>
      </trkpt>
      <trkpt lat="43.81594" lon="7.44667">
        <ele>815.67996415234</ele>
        <time>2021-01-27T13:53:27Z</time>
      </trkpt>
      <trkpt lat="43.81594" lon="7.44668">
        <ele>815.67997367677</ele>
        <time>2021-01-27T13:53:29Z</time>
      </trkpt>
      <trkpt lat="43.81594" lon="7.44669">
        <ele>815.67999727926</ele>
        <time>2021-01-27T13:53:30Z</time>
      </trkpt>
      <trkpt lat="43.81593" lon="7.4467">
        <ele>815.6800594523</ele>
        <time>2021-01-27T13:53:32Z</time>
      </trkpt>
      <trkpt lat="43.81592" lon="7.44671">
        <ele>815.68009586368</ele>
        <time>2021-01-27T13:53:34Z</time>
      </trkpt>
      <trkpt lat="43.81593" lon="7.44672">
        <ele>815.68008958503</ele>
        <time>2021-01-27T13:53:36Z</time>
      </trkpt>
      <trkpt lat="43.81592" lon="7.44674">
        <ele>815.68015971486</ele>
        <time>2021-01-27T13:53:38Z</time>
      </trkpt>
      <trkpt lat="43.81591" lon="7.44675">
        <ele>814.68018799721</ele>
        <time>2021-01-27T13:53:39Z</time>
      </trkpt>
      <trkpt lat="43.81591" lon="7.44675">
        <ele>814.68021205348</ele>
        <time>2021-01-27T13:53:40Z</time>
      </trkpt>
      <trkpt lat="43.8159" lon="7.44676">
        <ele>813.68025961414</ele>
        <time>2021-01-27T13:53:42Z</time>
      </trkpt>
      <trkpt lat="43.8159" lon="7.44677">
        <ele>814.6802801564</ele>
        <time>2021-01-27T13:53:44Z</time>
      </trkpt>
      <trkpt lat="43.81589" lon="7.44678">
        <ele>814.68033042184</ele>
        <time>2021-01-27T13:53:45Z</time>
      </trkpt>
      <trkpt lat="43.81589" lon="7.44678">
        <ele>814.6803617217</ele>
        <time>2021-01-27T13:53:46Z</time>
      </trkpt>
      <trkpt lat="43.81588" lon="7.44679">
        <ele>815.68038364331</ele>
        <time>2021-01-27T13:53:47Z</time>
      </trkpt>
      <trkpt lat="43.81588" lon="7.44679">
        <ele>815.6804128417</ele>
        <time>2021-01-27T13:53:48Z</time>
      </trkpt>
      <trkpt lat="43.81587" lon="7.44679">
        <ele>815.68044276494</ele>
        <time>2021-01-27T13:53:50Z</time>
      </trkpt>
      <trkpt lat="43.81586" lon="7.44679">
        <ele>815.68047718291</ele>
        <time>2021-01-27T13:53:51Z</time>
      </trkpt>
      <trkpt lat="43.81587" lon="7.4468">
        <ele>815.68047922513</ele>
        <time>2021-01-27T13:53:55Z</time>
      </trkpt>
      <trkpt lat="43.81587" lon="7.4468">
        <ele>813.68042862277</ele>
        <time>2021-01-27T13:53:56Z</time>
      </trkpt>
      <trkpt lat="43.81587" lon="7.4468">
        <ele>813.68042713786</ele>
        <time>2021-01-27T13:54:11Z</time>
      </trkpt>
      <trkpt lat="43.81587" lon="7.44682">
        <ele>813.68049335685</ele>
        <time>2021-01-27T13:54:13Z</time>
      </trkpt>
      <trkpt lat="43.81587" lon="7.44682">
        <ele>813.6804873001</ele>
        <time>2021-01-27T13:54:23Z</time>
      </trkpt>
      <trkpt lat="43.81587" lon="7.44681">
        <ele>813.68047281766</ele>
        <time>2021-01-27T13:54:29Z</time>
      </trkpt>
      <trkpt lat="43.81587" lon="7.44681">
        <ele>813.6804626284</ele>
        <time>2021-01-27T13:54:43Z</time>
      </trkpt>
      <trkpt lat="43.81586" lon="7.4468">
        <ele>813.68050889834</ele>
        <time>2021-01-27T13:54:44Z</time>
      </trkpt>
      <trkpt lat="43.81586" lon="7.44681">
        <ele>813.68051596081</ele>
        <time>2021-01-27T13:55:12Z</time>
      </trkpt>
      <trkpt lat="43.81586" lon="7.44679">
        <ele>814.68046933668</ele>
        <time>2021-01-27T13:55:14Z</time>
      </trkpt>
      <trkpt lat="43.81587" lon="7.44678">
        <ele>814.68041598524</ele>
        <time>2021-01-27T13:55:15Z</time>
      </trkpt>
      <trkpt lat="43.81588" lon="7.44677">
        <ele>814.68036672928</ele>
        <time>2021-01-27T13:55:16Z</time>
      </trkpt>
      <trkpt lat="43.81589" lon="7.44677">
        <ele>814.68032484727</ele>
        <time>2021-01-27T13:55:17Z</time>
      </trkpt>
      <trkpt lat="43.81589" lon="7.44676">
        <ele>815.68032510901</ele>
        <time>2021-01-27T13:55:19Z</time>
      </trkpt>
      <trkpt lat="43.81589" lon="7.44675">
        <ele>815.68031646896</ele>
        <time>2021-01-27T13:55:20Z</time>
      </trkpt>
      <trkpt lat="43.81588" lon="7.44674">
        <ele>815.6803318741</ele>
        <time>2021-01-27T13:55:21Z</time>
      </trkpt>
      <trkpt lat="43.81588" lon="7.44673">
        <ele>815.68032062791</ele>
        <time>2021-01-27T13:55:22Z</time>
      </trkpt>
      <trkpt lat="43.81588" lon="7.44671">
        <ele>815.68030856159</ele>
        <time>2021-01-27T13:55:24Z</time>
      </trkpt>
      <trkpt lat="43.81588" lon="7.44671">
        <ele>815.68033281948</ele>
        <time>2021-01-27T13:55:25Z</time>
      </trkpt>
      <trkpt lat="43.81587" lon="7.4467">
        <ele>815.68033342874</ele>
        <time>2021-01-27T13:55:26Z</time>
      </trkpt>
      <trkpt lat="43.81586" lon="7.44669">
        <ele>814.680406435</ele>
        <time>2021-01-27T13:55:28Z</time>
      </trkpt>
      <trkpt lat="43.81585" lon="7.4467">
        <ele>813.68042394256</ele>
        <time>2021-01-27T13:55:30Z</time>
      </trkpt>
      <trkpt lat="43.81585" lon="7.44671">
        <ele>812.68045708815</ele>
        <time>2021-01-27T13:55:31Z</time>
      </trkpt>
      <trkpt lat="43.81585" lon="7.44672">
        <ele>812.68048814506</ele>
        <time>2021-01-27T13:55:32Z</time>
      </trkpt>
      <trkpt lat="43.81584" lon="7.44674">
        <ele>811.68053841224</ele>
        <time>2021-01-27T13:55:33Z</time>
      </trkpt>
      <trkpt lat="43.81583" lon="7.44676">
        <ele>811.6805861686</ele>
        <time>2021-01-27T13:55:34Z</time>
      </trkpt>
      <trkpt lat="43.81583" lon="7.44677">
        <ele>811.68061412408</ele>
        <time>2021-01-27T13:55:35Z</time>
      </trkpt>
      <trkpt lat="43.81583" lon="7.44678">
        <ele>811.68061471788</ele>
        <time>2021-01-27T13:55:36Z</time>
      </trkpt>
      <trkpt lat="43.81583" lon="7.44679">
        <ele>810.68064269883</ele>
        <time>2021-01-27T13:55:37Z</time>
      </trkpt>
      <trkpt lat="43.81582" lon="7.4468">
        <ele>810.68067329766</ele>
        <time>2021-01-27T13:55:38Z</time>
      </trkpt>
      <trkpt lat="43.81583" lon="7.44681">
        <ele>810.68067301922</ele>
        <time>2021-01-27T13:55:39Z</time>
      </trkpt>
      <trkpt lat="43.81583" lon="7.44682">
        <ele>809.68068454092</ele>
        <time>2021-01-27T13:55:40Z</time>
      </trkpt>
      <trkpt lat="43.81582" lon="7.44682">
        <ele>810.68069630033</ele>
        <time>2021-01-27T13:55:45Z</time>
      </trkpt>
      <trkpt lat="43.81582" lon="7.44683">
        <ele>810.68074564713</ele>
        <time>2021-01-27T13:55:47Z</time>
      </trkpt>
      <trkpt lat="43.81581" lon="7.44683">
        <ele>810.68078222831</ele>
        <time>2021-01-27T13:55:48Z</time>
      </trkpt>
      <trkpt lat="43.8158" lon="7.44684">
        <ele>810.68083707042</ele>
        <time>2021-01-27T13:55:49Z</time>
      </trkpt>
      <trkpt lat="43.81579" lon="7.44684">
        <ele>810.68088048223</ele>
        <time>2021-01-27T13:55:50Z</time>
      </trkpt>
      <trkpt lat="43.81579" lon="7.44685">
        <ele>810.68089584487</ele>
        <time>2021-01-27T13:55:51Z</time>
      </trkpt>
      <trkpt lat="43.81578" lon="7.44685">
        <ele>809.68096041505</ele>
        <time>2021-01-27T13:55:53Z</time>
      </trkpt>
      <trkpt lat="43.81577" lon="7.44685">
        <ele>808.68100350978</ele>
        <time>2021-01-27T13:55:54Z</time>
      </trkpt>
      <trkpt lat="43.81576" lon="7.44685">
        <ele>808.68103469184</ele>
        <time>2021-01-27T13:55:55Z</time>
      </trkpt>
      <trkpt lat="43.81576" lon="7.44685">
        <ele>808.68104849225</ele>
        <time>2021-01-27T13:55:58Z</time>
      </trkpt>
      <trkpt lat="43.81574" lon="7.44686">
        <ele>807.68117202252</ele>
        <time>2021-01-27T13:56:00Z</time>
      </trkpt>
      <trkpt lat="43.81573" lon="7.44687">
        <ele>807.68119269172</ele>
        <time>2021-01-27T13:56:01Z</time>
      </trkpt>
      <trkpt lat="43.81573" lon="7.44687">
        <ele>807.68121058532</ele>
        <time>2021-01-27T13:56:03Z</time>
      </trkpt>
      <trkpt lat="43.81572" lon="7.4469">
        <ele>807.68126926138</ele>
        <time>2021-01-27T13:56:04Z</time>
      </trkpt>
      <trkpt lat="43.81571" lon="7.4469">
        <ele>806.68132898672</ele>
        <time>2021-01-27T13:56:05Z</time>
      </trkpt>
      <trkpt lat="43.8157" lon="7.44691">
        <ele>806.68139677689</ele>
        <time>2021-01-27T13:56:06Z</time>
      </trkpt>
      <trkpt lat="43.81568" lon="7.4469">
        <ele>806.68148461012</ele>
        <time>2021-01-27T13:56:07Z</time>
      </trkpt>
      <trkpt lat="43.81567" lon="7.44691">
        <ele>806.68154331977</ele>
        <time>2021-01-27T13:56:08Z</time>
      </trkpt>
      <trkpt lat="43.81566" lon="7.44691">
        <ele>806.68160020019</ele>
        <time>2021-01-27T13:56:09Z</time>
      </trkpt>
      <trkpt lat="43.81565" lon="7.4469">
        <ele>805.68164665643</ele>
        <time>2021-01-27T13:56:10Z</time>
      </trkpt>
      <trkpt lat="43.81564" lon="7.44689">
        <ele>805.68167655685</ele>
        <time>2021-01-27T13:56:12Z</time>
      </trkpt>
      <trkpt lat="43.81563" lon="7.44689">
        <ele>804.68171112893</ele>
        <time>2021-01-27T13:56:13Z</time>
      </trkpt>
      <trkpt lat="43.81562" lon="7.44688">
        <ele>804.68173985728</ele>
        <time>2021-01-27T13:56:14Z</time>
      </trkpt>
      <trkpt lat="43.81562" lon="7.44686">
        <ele>804.68175292679</ele>
        <time>2021-01-27T13:56:15Z</time>
      </trkpt>
      <trkpt lat="43.81561" lon="7.44686">
        <ele>804.68178519798</ele>
        <time>2021-01-27T13:56:16Z</time>
      </trkpt>
      <trkpt lat="43.8156" lon="7.44686">
        <ele>804.68180477287</ele>
        <time>2021-01-27T13:56:19Z</time>
      </trkpt>
      <trkpt lat="43.81559" lon="7.44686">
        <ele>803.68188013693</ele>
        <time>2021-01-27T13:56:20Z</time>
      </trkpt>
      <trkpt lat="43.81558" lon="7.44686">
        <ele>802.68192701391</ele>
        <time>2021-01-27T13:56:21Z</time>
      </trkpt>
      <trkpt lat="43.81557" lon="7.44686">
        <ele>802.68197948377</ele>
        <time>2021-01-27T13:56:22Z</time>
      </trkpt>
      <trkpt lat="43.81556" lon="7.44686">
        <ele>803.68200665524</ele>
        <time>2021-01-27T13:56:23Z</time>
      </trkpt>
      <trkpt lat="43.81556" lon="7.44684">
        <ele>802.68202106934</ele>
        <time>2021-01-27T13:56:24Z</time>
      </trkpt>
      <trkpt lat="43.81556" lon="7.44684">
        <ele>802.68202106934</ele>
        <time>2021-01-27T13:56:25Z</time>
      </trkpt>
      <trkpt lat="43.81555" lon="7.44683">
        <ele>802.68201457374</ele>
        <time>2021-01-27T13:56:27Z</time>
      </trkpt>
      <trkpt lat="43.81554" lon="7.44683">
        <ele>801.68207597376</ele>
        <time>2021-01-27T13:56:29Z</time>
      </trkpt>
      <trkpt lat="43.81553" lon="7.44682">
        <ele>802.68214066816</ele>
        <time>2021-01-27T13:56:30Z</time>
      </trkpt>
      <trkpt lat="43.81552" lon="7.44681">
        <ele>801.6821849461</ele>
        <time>2021-01-27T13:56:31Z</time>
      </trkpt>
      <trkpt lat="43.81552" lon="7.44681">
        <ele>801.6821849461</ele>
        <time>2021-01-27T13:56:33Z</time>
      </trkpt>
      <trkpt lat="43.8155" lon="7.44682">
        <ele>801.68224848421</ele>
        <time>2021-01-27T13:56:34Z</time>
      </trkpt>
      <trkpt lat="43.8155" lon="7.44682">
        <ele>801.68228402138</ele>
        <time>2021-01-27T13:56:35Z</time>
      </trkpt>
      <trkpt lat="43.81549" lon="7.44682">
        <ele>801.6823034147</ele>
        <time>2021-01-27T13:56:36Z</time>
      </trkpt>
      <trkpt lat="43.81548" lon="7.44682">
        <ele>802.68234897952</ele>
        <time>2021-01-27T13:56:37Z</time>
      </trkpt>
      <trkpt lat="43.81547" lon="7.44682">
        <ele>801.68239562769</ele>
        <time>2021-01-27T13:56:38Z</time>
      </trkpt>
      <trkpt lat="43.81546" lon="7.44682">
        <ele>801.68243942016</ele>
        <time>2021-01-27T13:56:39Z</time>
      </trkpt>
      <trkpt lat="43.81546" lon="7.44682">
        <ele>801.68247220674</ele>
        <time>2021-01-27T13:56:42Z</time>
      </trkpt>
      <trkpt lat="43.81545" lon="7.44683">
        <ele>800.68250576377</ele>
        <time>2021-01-27T13:56:43Z</time>
      </trkpt>
      <trkpt lat="43.81545" lon="7.44684">
        <ele>800.68253464421</ele>
        <time>2021-01-27T13:56:45Z</time>
      </trkpt>
      <trkpt lat="43.81543" lon="7.44685">
        <ele>800.68263395251</ele>
        <time>2021-01-27T13:56:47Z</time>
      </trkpt>
      <trkpt lat="43.81543" lon="7.44686">
        <ele>798.68265527476</ele>
        <time>2021-01-27T13:56:49Z</time>
      </trkpt>
      <trkpt lat="43.81542" lon="7.44686">
        <ele>797.68268080339</ele>
        <time>2021-01-27T13:56:51Z</time>
      </trkpt>
      <trkpt lat="43.81542" lon="7.44686">
        <ele>797.68270643018</ele>
        <time>2021-01-27T13:56:52Z</time>
      </trkpt>
      <trkpt lat="43.8154" lon="7.44686">
        <ele>797.6827724291</ele>
        <time>2021-01-27T13:56:53Z</time>
      </trkpt>
      <trkpt lat="43.81539" lon="7.44685">
        <ele>797.68282947172</ele>
        <time>2021-01-27T13:56:54Z</time>
      </trkpt>
      <trkpt lat="43.81538" lon="7.44685">
        <ele>797.68286645225</ele>
        <time>2021-01-27T13:56:55Z</time>
      </trkpt>
      <trkpt lat="43.81538" lon="7.44684">
        <ele>795.68286245541</ele>
        <time>2021-01-27T13:56:57Z</time>
      </trkpt>
      <trkpt lat="43.81537" lon="7.44682">
        <ele>794.68292276953</ele>
        <time>2021-01-27T13:56:59Z</time>
      </trkpt>
      <trkpt lat="43.81536" lon="7.44681">
        <ele>795.68293948698</ele>
        <time>2021-01-27T13:57:00Z</time>
      </trkpt>
      <trkpt lat="43.81536" lon="7.44681">
        <ele>795.68295502446</ele>
        <time>2021-01-27T13:57:01Z</time>
      </trkpt>
      <trkpt lat="43.81535" lon="7.44681">
        <ele>794.68298152746</ele>
        <time>2021-01-27T13:57:03Z</time>
      </trkpt>
      <trkpt lat="43.81534" lon="7.4468">
        <ele>794.68303445402</ele>
        <time>2021-01-27T13:57:04Z</time>
      </trkpt>
      <trkpt lat="43.81533" lon="7.4468">
        <ele>794.68305856356</ele>
        <time>2021-01-27T13:57:05Z</time>
      </trkpt>
      <trkpt lat="43.81533" lon="7.4468">
        <ele>794.68309000015</ele>
        <time>2021-01-27T13:57:06Z</time>
      </trkpt>
      <trkpt lat="43.81532" lon="7.4468">
        <ele>794.68310122521</ele>
        <time>2021-01-27T13:57:07Z</time>
      </trkpt>
      <trkpt lat="43.81532" lon="7.4468">
        <ele>794.68313189402</ele>
        <time>2021-01-27T13:57:08Z</time>
      </trkpt>
      <trkpt lat="43.81531" lon="7.4468">
        <ele>794.68315244396</ele>
        <time>2021-01-27T13:57:09Z</time>
      </trkpt>
      <trkpt lat="43.81531" lon="7.44678">
        <ele>793.68316820848</ele>
        <time>2021-01-27T13:57:10Z</time>
      </trkpt>
      <trkpt lat="43.8153" lon="7.44678">
        <ele>792.68319789436</ele>
        <time>2021-01-27T13:57:11Z</time>
      </trkpt>
      <trkpt lat="43.81528" lon="7.44677">
        <ele>790.68327165015</ele>
        <time>2021-01-27T13:57:13Z</time>
      </trkpt>
      <trkpt lat="43.81528" lon="7.44676">
        <ele>790.68327757812</ele>
        <time>2021-01-27T13:57:14Z</time>
      </trkpt>
      <trkpt lat="43.81528" lon="7.44674">
        <ele>789.68327099918</ele>
        <time>2021-01-27T13:57:15Z</time>
      </trkpt>
      <trkpt lat="43.81527" lon="7.44673">
        <ele>789.68327723415</ele>
        <time>2021-01-27T13:57:16Z</time>
      </trkpt>
      <trkpt lat="43.81526" lon="7.44673">
        <ele>789.68331466449</ele>
        <time>2021-01-27T13:57:17Z</time>
      </trkpt>
      <trkpt lat="43.81526" lon="7.44672">
        <ele>789.68335238419</ele>
        <time>2021-01-27T13:57:18Z</time>
      </trkpt>
      <trkpt lat="43.81525" lon="7.44672">
        <ele>788.6833953528</ele>
        <time>2021-01-27T13:57:20Z</time>
      </trkpt>
      <trkpt lat="43.81524" lon="7.44673">
        <ele>788.68342923629</ele>
        <time>2021-01-27T13:57:22Z</time>
      </trkpt>
      <trkpt lat="43.81524" lon="7.44673">
        <ele>788.6834554084</ele>
        <time>2021-01-27T13:57:25Z</time>
      </trkpt>
      <trkpt lat="43.81522" lon="7.44674">
        <ele>787.68353110057</ele>
        <time>2021-01-27T13:57:26Z</time>
      </trkpt>
      <trkpt lat="43.81522" lon="7.44674">
        <ele>787.68355978649</ele>
        <time>2021-01-27T13:57:27Z</time>
      </trkpt>
      <trkpt lat="43.8152" lon="7.44673">
        <ele>785.68361396711</ele>
        <time>2021-01-27T13:57:29Z</time>
      </trkpt>
      <trkpt lat="43.8152" lon="7.44674">
        <ele>785.68365388325</ele>
        <time>2021-01-27T13:57:30Z</time>
      </trkpt>
      <trkpt lat="43.81519" lon="7.44673">
        <ele>785.68370425744</ele>
        <time>2021-01-27T13:57:31Z</time>
      </trkpt>
      <trkpt lat="43.81518" lon="7.44672">
        <ele>784.68371576245</ele>
        <time>2021-01-27T13:57:32Z</time>
      </trkpt>
      <trkpt lat="43.81517" lon="7.44672">
        <ele>783.68375884851</ele>
        <time>2021-01-27T13:57:33Z</time>
      </trkpt>
      <trkpt lat="43.81517" lon="7.44672">
        <ele>783.68378951598</ele>
        <time>2021-01-27T13:57:34Z</time>
      </trkpt>
      <trkpt lat="43.81516" lon="7.44671">
        <ele>783.68379870832</ele>
        <time>2021-01-27T13:57:35Z</time>
      </trkpt>
      <trkpt lat="43.81515" lon="7.44671">
        <ele>783.68383045631</ele>
        <time>2021-01-27T13:57:36Z</time>
      </trkpt>
      <trkpt lat="43.81515" lon="7.44671">
        <ele>783.68386356681</ele>
        <time>2021-01-27T13:57:40Z</time>
      </trkpt>
      <trkpt lat="43.81513" lon="7.44671">
        <ele>782.68395191303</ele>
        <time>2021-01-27T13:57:41Z</time>
      </trkpt>
      <trkpt lat="43.81511" lon="7.4467">
        <ele>781.68401712182</ele>
        <time>2021-01-27T13:57:42Z</time>
      </trkpt>
      <trkpt lat="43.8151" lon="7.44668">
        <ele>781.68405821013</ele>
        <time>2021-01-27T13:57:44Z</time>
      </trkpt>
      <trkpt lat="43.8151" lon="7.44667">
        <ele>781.68405828007</ele>
        <time>2021-01-27T13:57:46Z</time>
      </trkpt>
      <trkpt lat="43.8151" lon="7.44667">
        <ele>781.68408010292</ele>
        <time>2021-01-27T13:57:49Z</time>
      </trkpt>
      <trkpt lat="43.81508" lon="7.44668">
        <ele>779.68413830783</ele>
        <time>2021-01-27T13:57:50Z</time>
      </trkpt>
      <trkpt lat="43.81508" lon="7.44668">
        <ele>779.68417722192</ele>
        <time>2021-01-27T13:57:52Z</time>
      </trkpt>
      <trkpt lat="43.81507" lon="7.44669">
        <ele>779.68420942369</ele>
        <time>2021-01-27T13:57:54Z</time>
      </trkpt>
      <trkpt lat="43.81506" lon="7.44668">
        <ele>778.68427313522</ele>
        <time>2021-01-27T13:57:56Z</time>
      </trkpt>
      <trkpt lat="43.81505" lon="7.44669">
        <ele>777.68431248432</ele>
        <time>2021-01-27T13:57:59Z</time>
      </trkpt>
      <trkpt lat="43.81505" lon="7.4467">
        <ele>776.68434055513</ele>
        <time>2021-01-27T13:58:00Z</time>
      </trkpt>
      <trkpt lat="43.81504" lon="7.4467">
        <ele>776.68439535127</ele>
        <time>2021-01-27T13:58:02Z</time>
      </trkpt>
      <trkpt lat="43.81503" lon="7.44669">
        <ele>775.68441495867</ele>
        <time>2021-01-27T13:58:03Z</time>
      </trkpt>
      <trkpt lat="43.81502" lon="7.44668">
        <ele>775.684436341</ele>
        <time>2021-01-27T13:58:04Z</time>
      </trkpt>
      <trkpt lat="43.81502" lon="7.44668">
        <ele>775.68447155556</ele>
        <time>2021-01-27T13:58:05Z</time>
      </trkpt>
      <trkpt lat="43.81501" lon="7.44668">
        <ele>775.68449430657</ele>
        <time>2021-01-27T13:58:06Z</time>
      </trkpt>
      <trkpt lat="43.815" lon="7.44668">
        <ele>775.68453672798</ele>
        <time>2021-01-27T13:58:07Z</time>
      </trkpt>
      <trkpt lat="43.81499" lon="7.44668">
        <ele>775.68457877141</ele>
        <time>2021-01-27T13:58:08Z</time>
      </trkpt>
      <trkpt lat="43.81499" lon="7.44668">
        <ele>775.68461163348</ele>
        <time>2021-01-27T13:58:09Z</time>
      </trkpt>
      <trkpt lat="43.81498" lon="7.44669">
        <ele>774.68465233934</ele>
        <time>2021-01-27T13:58:11Z</time>
      </trkpt>
      <trkpt lat="43.81498" lon="7.44669">
        <ele>774.68466253779</ele>
        <time>2021-01-27T13:58:12Z</time>
      </trkpt>
      <trkpt lat="43.81497" lon="7.44669">
        <ele>773.68470350407</ele>
        <time>2021-01-27T13:58:14Z</time>
      </trkpt>
      <trkpt lat="43.81497" lon="7.44669">
        <ele>773.68472137356</ele>
        <time>2021-01-27T13:58:15Z</time>
      </trkpt>
      <trkpt lat="43.81496" lon="7.44669">
        <ele>772.68476693446</ele>
        <time>2021-01-27T13:58:17Z</time>
      </trkpt>
      <trkpt lat="43.81495" lon="7.44668">
        <ele>772.68479157619</ele>
        <time>2021-01-27T13:58:18Z</time>
      </trkpt>
      <trkpt lat="43.81494" lon="7.44668">
        <ele>772.68483025486</ele>
        <time>2021-01-27T13:58:19Z</time>
      </trkpt>
      <trkpt lat="43.81493" lon="7.44667">
        <ele>772.68486567782</ele>
        <time>2021-01-27T13:58:21Z</time>
      </trkpt>
      <trkpt lat="43.81493" lon="7.44668">
        <ele>771.68489185031</ele>
        <time>2021-01-27T13:58:23Z</time>
      </trkpt>
      <trkpt lat="43.81493" lon="7.44669">
        <ele>771.68491188976</ele>
        <time>2021-01-27T13:58:24Z</time>
      </trkpt>
      <trkpt lat="43.81492" lon="7.44669">
        <ele>771.68494221738</ele>
        <time>2021-01-27T13:58:25Z</time>
      </trkpt>
      <trkpt lat="43.81491" lon="7.4467">
        <ele>771.6849971778</ele>
        <time>2021-01-27T13:58:26Z</time>
      </trkpt>
      <trkpt lat="43.8149" lon="7.44671">
        <ele>770.68504159532</ele>
        <time>2021-01-27T13:58:27Z</time>
      </trkpt>
      <trkpt lat="43.81489" lon="7.44671">
        <ele>769.68510936644</ele>
        <time>2021-01-27T13:58:29Z</time>
      </trkpt>
      <trkpt lat="43.81489" lon="7.44672">
        <ele>769.68514595641</ele>
        <time>2021-01-27T13:58:30Z</time>
      </trkpt>
      <trkpt lat="43.81488" lon="7.44672">
        <ele>768.68516954659</ele>
        <time>2021-01-27T13:58:31Z</time>
      </trkpt>
      <trkpt lat="43.81487" lon="7.44672">
        <ele>767.68520575182</ele>
        <time>2021-01-27T13:58:32Z</time>
      </trkpt>
      <trkpt lat="43.81487" lon="7.44672">
        <ele>766.68523178267</ele>
        <time>2021-01-27T13:58:37Z</time>
      </trkpt>
      <trkpt lat="43.81485" lon="7.44672">
        <ele>766.68529549127</ele>
        <time>2021-01-27T13:58:39Z</time>
      </trkpt>
      <trkpt lat="43.81485" lon="7.44673">
        <ele>765.68534379443</ele>
        <time>2021-01-27T13:58:40Z</time>
      </trkpt>
      <trkpt lat="43.81484" lon="7.44672">
        <ele>765.68537183311</ele>
        <time>2021-01-27T13:58:41Z</time>
      </trkpt>
      <trkpt lat="43.81483" lon="7.44672">
        <ele>764.68539652987</ele>
        <time>2021-01-27T13:58:42Z</time>
      </trkpt>
      <trkpt lat="43.81483" lon="7.44672">
        <ele>764.68542061523</ele>
        <time>2021-01-27T13:58:44Z</time>
      </trkpt>
      <trkpt lat="43.81482" lon="7.44673">
        <ele>764.68547887783</ele>
        <time>2021-01-27T13:58:45Z</time>
      </trkpt>
      <trkpt lat="43.81481" lon="7.44674">
        <ele>764.68551761132</ele>
        <time>2021-01-27T13:58:46Z</time>
      </trkpt>
      <trkpt lat="43.8148" lon="7.44675">
        <ele>764.68558207324</ele>
        <time>2021-01-27T13:58:48Z</time>
      </trkpt>
      <trkpt lat="43.8148" lon="7.44675">
        <ele>764.6856057606</ele>
        <time>2021-01-27T13:58:51Z</time>
      </trkpt>
      <trkpt lat="43.81477" lon="7.44675">
        <ele>763.68572366285</ele>
        <time>2021-01-27T13:58:53Z</time>
      </trkpt>
      <trkpt lat="43.81477" lon="7.44676">
        <ele>763.68572900114</ele>
        <time>2021-01-27T13:58:54Z</time>
      </trkpt>
      <trkpt lat="43.81477" lon="7.44676">
        <ele>763.68576930778</ele>
        <time>2021-01-27T13:58:55Z</time>
      </trkpt>
      <trkpt lat="43.81475" lon="7.44677">
        <ele>762.68587385019</ele>
        <time>2021-01-27T13:58:57Z</time>
      </trkpt>
      <trkpt lat="43.81474" lon="7.44676">
        <ele>761.68590207436</ele>
        <time>2021-01-27T13:58:58Z</time>
      </trkpt>
      <trkpt lat="43.81473" lon="7.44676">
        <ele>761.68593050943</ele>
        <time>2021-01-27T13:58:59Z</time>
      </trkpt>
      <trkpt lat="43.81473" lon="7.44677">
        <ele>761.68596843216</ele>
        <time>2021-01-27T13:59:00Z</time>
      </trkpt>
      <trkpt lat="43.81472" lon="7.44677">
        <ele>761.68599538146</ele>
        <time>2021-01-27T13:59:01Z</time>
      </trkpt>
      <trkpt lat="43.81472" lon="7.44677">
        <ele>761.68601783728</ele>
        <time>2021-01-27T13:59:02Z</time>
      </trkpt>
      <trkpt lat="43.81471" lon="7.44677">
        <ele>761.68604724385</ele>
        <time>2021-01-27T13:59:06Z</time>
      </trkpt>
      <trkpt lat="43.8147" lon="7.44678">
        <ele>760.68611168847</ele>
        <time>2021-01-27T13:59:08Z</time>
      </trkpt>
      <trkpt lat="43.81469" lon="7.44677">
        <ele>760.68615599775</ele>
        <time>2021-01-27T13:59:09Z</time>
      </trkpt>
      <trkpt lat="43.81468" lon="7.44678">
        <ele>760.68619313357</ele>
        <time>2021-01-27T13:59:10Z</time>
      </trkpt>
      <trkpt lat="43.81467" lon="7.44678">
        <ele>760.68622998144</ele>
        <time>2021-01-27T13:59:11Z</time>
      </trkpt>
      <trkpt lat="43.81467" lon="7.44678">
        <ele>759.68626035798</ele>
        <time>2021-01-27T13:59:12Z</time>
      </trkpt>
      <trkpt lat="43.81466" lon="7.44678">
        <ele>759.68629247159</ele>
        <time>2021-01-27T13:59:13Z</time>
      </trkpt>
      <trkpt lat="43.81465" lon="7.44678">
        <ele>760.6863360575</ele>
        <time>2021-01-27T13:59:15Z</time>
      </trkpt>
      <trkpt lat="43.81465" lon="7.44679">
        <ele>758.68636976911</ele>
        <time>2021-01-27T13:59:17Z</time>
      </trkpt>
      <trkpt lat="43.81464" lon="7.44679">
        <ele>757.68640963669</ele>
        <time>2021-01-27T13:59:18Z</time>
      </trkpt>
      <trkpt lat="43.81463" lon="7.4468">
        <ele>757.68644648537</ele>
        <time>2021-01-27T13:59:19Z</time>
      </trkpt>
      <trkpt lat="43.81463" lon="7.44681">
        <ele>756.68648642935</ele>
        <time>2021-01-27T13:59:20Z</time>
      </trkpt>
      <trkpt lat="43.81462" lon="7.44682">
        <ele>757.68651605675</ele>
        <time>2021-01-27T13:59:21Z</time>
      </trkpt>
      <trkpt lat="43.81461" lon="7.44683">
        <ele>756.68658848074</ele>
        <time>2021-01-27T13:59:23Z</time>
      </trkpt>
      <trkpt lat="43.8146" lon="7.44683">
        <ele>756.68664206008</ele>
        <time>2021-01-27T13:59:24Z</time>
      </trkpt>
      <trkpt lat="43.81459" lon="7.44682">
        <ele>756.6866662885</ele>
        <time>2021-01-27T13:59:25Z</time>
      </trkpt>
      <trkpt lat="43.81458" lon="7.4468">
        <ele>755.6867038585</ele>
        <time>2021-01-27T13:59:26Z</time>
      </trkpt>
      <trkpt lat="43.81457" lon="7.44679">
        <ele>754.68674465929</ele>
        <time>2021-01-27T13:59:27Z</time>
      </trkpt>
      <trkpt lat="43.81457" lon="7.44678">
        <ele>754.68675556744</ele>
        <time>2021-01-27T13:59:34Z</time>
      </trkpt>
      <trkpt lat="43.81454" lon="7.44678">
        <ele>753.68687349891</ele>
        <time>2021-01-27T13:59:35Z</time>
      </trkpt>
      <trkpt lat="43.81452" lon="7.44676">
        <ele>752.6869473273</ele>
        <time>2021-01-27T13:59:37Z</time>
      </trkpt>
      <trkpt lat="43.81452" lon="7.44676">
        <ele>751.68698009908</ele>
        <time>2021-01-27T13:59:38Z</time>
      </trkpt>
      <trkpt lat="43.81451" lon="7.44676">
        <ele>751.68701063398</ele>
        <time>2021-01-27T13:59:40Z</time>
      </trkpt>
      <trkpt lat="43.8145" lon="7.44676">
        <ele>751.68704359235</ele>
        <time>2021-01-27T13:59:41Z</time>
      </trkpt>
      <trkpt lat="43.8145" lon="7.44676">
        <ele>751.68707932065</ele>
        <time>2021-01-27T13:59:42Z</time>
      </trkpt>
      <trkpt lat="43.81449" lon="7.44675">
        <ele>750.68711714872</ele>
        <time>2021-01-27T13:59:43Z</time>
      </trkpt>
      <trkpt lat="43.81448" lon="7.44674">
        <ele>750.68715802938</ele>
        <time>2021-01-27T13:59:44Z</time>
      </trkpt>
      <trkpt lat="43.81447" lon="7.44674">
        <ele>750.68719054352</ele>
        <time>2021-01-27T13:59:45Z</time>
      </trkpt>
      <trkpt lat="43.81446" lon="7.44673">
        <ele>750.68723353197</ele>
        <time>2021-01-27T13:59:46Z</time>
      </trkpt>
      <trkpt lat="43.81445" lon="7.44672">
        <ele>749.68727515844</ele>
        <time>2021-01-27T13:59:47Z</time>
      </trkpt>
      <trkpt lat="43.81444" lon="7.44672">
        <ele>749.68731644197</ele>
        <time>2021-01-27T13:59:48Z</time>
      </trkpt>
      <trkpt lat="43.81443" lon="7.44671">
        <ele>749.6873682206</ele>
        <time>2021-01-27T13:59:49Z</time>
      </trkpt>
      <trkpt lat="43.81441" lon="7.44671">
        <ele>749.68744096573</ele>
        <time>2021-01-27T13:59:50Z</time>
      </trkpt>
      <trkpt lat="43.8144" lon="7.44671">
        <ele>749.68751039558</ele>
        <time>2021-01-27T13:59:52Z</time>
      </trkpt>
      <trkpt lat="43.81439" lon="7.44671">
        <ele>748.687533363</ele>
        <time>2021-01-27T13:59:53Z</time>
      </trkpt>
      <trkpt lat="43.81438" lon="7.4467">
        <ele>749.68755424054</ele>
        <time>2021-01-27T13:59:54Z</time>
      </trkpt>
      <trkpt lat="43.81438" lon="7.44669">
        <ele>748.68758082266</ele>
        <time>2021-01-27T13:59:55Z</time>
      </trkpt>
      <trkpt lat="43.81437" lon="7.44668">
        <ele>748.68760476986</ele>
        <time>2021-01-27T13:59:56Z</time>
      </trkpt>
      <trkpt lat="43.81436" lon="7.44668">
        <ele>747.68763987525</ele>
        <time>2021-01-27T13:59:57Z</time>
      </trkpt>
      <trkpt lat="43.81435" lon="7.44667">
        <ele>748.68769143795</ele>
        <time>2021-01-27T13:59:58Z</time>
      </trkpt>
      <trkpt lat="43.81434" lon="7.44667">
        <ele>747.68773431157</ele>
        <time>2021-01-27T13:59:59Z</time>
      </trkpt>
      <trkpt lat="43.81433" lon="7.44666">
        <ele>747.68776352816</ele>
        <time>2021-01-27T14:00:00Z</time>
      </trkpt>
      <trkpt lat="43.81433" lon="7.44665">
        <ele>746.6877630746</ele>
        <time>2021-01-27T14:00:01Z</time>
      </trkpt>
      <trkpt lat="43.81432" lon="7.44663">
        <ele>745.68778519109</ele>
        <time>2021-01-27T14:00:02Z</time>
      </trkpt>
      <trkpt lat="43.81431" lon="7.44662">
        <ele>746.68781905379</ele>
        <time>2021-01-27T14:00:03Z</time>
      </trkpt>
      <trkpt lat="43.8143" lon="7.44661">
        <ele>746.68786325869</ele>
        <time>2021-01-27T14:00:04Z</time>
      </trkpt>
      <trkpt lat="43.81429" lon="7.4466">
        <ele>746.6879053894</ele>
        <time>2021-01-27T14:00:05Z</time>
      </trkpt>
      <trkpt lat="43.81428" lon="7.44659">
        <ele>746.68794625844</ele>
        <time>2021-01-27T14:00:06Z</time>
      </trkpt>
      <trkpt lat="43.81427" lon="7.44659">
        <ele>746.68798101845</ele>
        <time>2021-01-27T14:00:07Z</time>
      </trkpt>
      <trkpt lat="43.81427" lon="7.44658">
        <ele>746.68800455841</ele>
        <time>2021-01-27T14:00:08Z</time>
      </trkpt>
      <trkpt lat="43.81426" lon="7.44659">
        <ele>745.68804512912</ele>
        <time>2021-01-27T14:00:09Z</time>
      </trkpt>
      <trkpt lat="43.81425" lon="7.4466">
        <ele>746.68811562356</ele>
        <time>2021-01-27T14:00:10Z</time>
      </trkpt>
      <trkpt lat="43.81424" lon="7.4466">
        <ele>746.68814833718</ele>
        <time>2021-01-27T14:00:11Z</time>
      </trkpt>
      <trkpt lat="43.81424" lon="7.44661">
        <ele>745.68818675342</ele>
        <time>2021-01-27T14:00:12Z</time>
      </trkpt>
      <trkpt lat="43.81422" lon="7.44661">
        <ele>745.68825247665</ele>
        <time>2021-01-27T14:00:13Z</time>
      </trkpt>
      <trkpt lat="43.81421" lon="7.44661">
        <ele>745.68829847581</ele>
        <time>2021-01-27T14:00:14Z</time>
      </trkpt>
      <trkpt lat="43.8142" lon="7.44661">
        <ele>745.68836571233</ele>
        <time>2021-01-27T14:00:15Z</time>
      </trkpt>
      <trkpt lat="43.81419" lon="7.44662">
        <ele>744.68840685418</ele>
        <time>2021-01-27T14:00:16Z</time>
      </trkpt>
      <trkpt lat="43.81418" lon="7.44662">
        <ele>743.68848530173</ele>
        <time>2021-01-27T14:00:17Z</time>
      </trkpt>
      <trkpt lat="43.81416" lon="7.44663">
        <ele>743.6885472379</ele>
        <time>2021-01-27T14:00:18Z</time>
      </trkpt>
      <trkpt lat="43.81415" lon="7.44663">
        <ele>743.68861022914</ele>
        <time>2021-01-27T14:00:19Z</time>
      </trkpt>
      <trkpt lat="43.81414" lon="7.44663">
        <ele>742.68866736751</ele>
        <time>2021-01-27T14:00:20Z</time>
      </trkpt>
      <trkpt lat="43.81413" lon="7.44663">
        <ele>742.6887345127</ele>
        <time>2021-01-27T14:00:21Z</time>
      </trkpt>
      <trkpt lat="43.8141" lon="7.44663">
        <ele>741.68884397452</ele>
        <time>2021-01-27T14:00:23Z</time>
      </trkpt>
      <trkpt lat="43.81409" lon="7.44663">
        <ele>741.68889794853</ele>
        <time>2021-01-27T14:00:24Z</time>
      </trkpt>
      <trkpt lat="43.81408" lon="7.44663">
        <ele>741.68894610668</ele>
        <time>2021-01-27T14:00:25Z</time>
      </trkpt>
      <trkpt lat="43.81407" lon="7.44663">
        <ele>740.68900081817</ele>
        <time>2021-01-27T14:00:26Z</time>
      </trkpt>
      <trkpt lat="43.81406" lon="7.44664">
        <ele>740.68906541534</ele>
        <time>2021-01-27T14:00:27Z</time>
      </trkpt>
      <trkpt lat="43.81404" lon="7.44666">
        <ele>740.68919817727</ele>
        <time>2021-01-27T14:00:29Z</time>
      </trkpt>
      <trkpt lat="43.81403" lon="7.44666">
        <ele>740.68925142836</ele>
        <time>2021-01-27T14:00:30Z</time>
      </trkpt>
      <trkpt lat="43.81402" lon="7.44667">
        <ele>740.68929944263</ele>
        <time>2021-01-27T14:00:31Z</time>
      </trkpt>
      <trkpt lat="43.81401" lon="7.44668">
        <ele>740.68935721753</ele>
        <time>2021-01-27T14:00:32Z</time>
      </trkpt>
      <trkpt lat="43.814" lon="7.44669">
        <ele>740.68942090452</ele>
        <time>2021-01-27T14:00:33Z</time>
      </trkpt>
      <trkpt lat="43.81399" lon="7.4467">
        <ele>740.68946633319</ele>
        <time>2021-01-27T14:00:34Z</time>
      </trkpt>
      <trkpt lat="43.81398" lon="7.4467">
        <ele>740.68951292397</ele>
        <time>2021-01-27T14:00:35Z</time>
      </trkpt>
      <trkpt lat="43.81397" lon="7.44671">
        <ele>740.68956367863</ele>
        <time>2021-01-27T14:00:36Z</time>
      </trkpt>
      <trkpt lat="43.81396" lon="7.44673">
        <ele>740.68962654606</ele>
        <time>2021-01-27T14:00:37Z</time>
      </trkpt>
      <trkpt lat="43.81395" lon="7.44674">
        <ele>740.68967953175</ele>
        <time>2021-01-27T14:00:38Z</time>
      </trkpt>
      <trkpt lat="43.81395" lon="7.44674">
        <ele>740.68971756956</ele>
        <time>2021-01-27T14:00:39Z</time>
      </trkpt>
      <trkpt lat="43.81394" lon="7.44676">
        <ele>739.68978066409</ele>
        <time>2021-01-27T14:00:40Z</time>
      </trkpt>
      <trkpt lat="43.81393" lon="7.44677">
        <ele>739.68982807532</ele>
        <time>2021-01-27T14:00:41Z</time>
      </trkpt>
      <trkpt lat="43.81392" lon="7.44678">
        <ele>739.68987579516</ele>
        <time>2021-01-27T14:00:42Z</time>
      </trkpt>
      <trkpt lat="43.81391" lon="7.44679">
        <ele>739.68994419136</ele>
        <time>2021-01-27T14:00:43Z</time>
      </trkpt>
      <trkpt lat="43.8139" lon="7.4468">
        <ele>739.69000640277</ele>
        <time>2021-01-27T14:00:44Z</time>
      </trkpt>
      <trkpt lat="43.8139" lon="7.44681">
        <ele>739.69004178531</ele>
        <time>2021-01-27T14:00:45Z</time>
      </trkpt>
      <trkpt lat="43.81389" lon="7.44682">
        <ele>739.69009434425</ele>
        <time>2021-01-27T14:00:46Z</time>
      </trkpt>
      <trkpt lat="43.81388" lon="7.44683">
        <ele>739.69013070078</ele>
        <time>2021-01-27T14:00:47Z</time>
      </trkpt>
      <trkpt lat="43.81387" lon="7.44684">
        <ele>740.69018111677</ele>
        <time>2021-01-27T14:00:48Z</time>
      </trkpt>
      <trkpt lat="43.81386" lon="7.44686">
        <ele>740.69024214317</ele>
        <time>2021-01-27T14:00:49Z</time>
      </trkpt>
      <trkpt lat="43.81385" lon="7.44687">
        <ele>740.69031112546</ele>
        <time>2021-01-27T14:00:50Z</time>
      </trkpt>
      <trkpt lat="43.81384" lon="7.44688">
        <ele>740.69036505849</ele>
        <time>2021-01-27T14:00:51Z</time>
      </trkpt>
      <trkpt lat="43.81384" lon="7.44689">
        <ele>740.69040978952</ele>
        <time>2021-01-27T14:00:52Z</time>
      </trkpt>
      <trkpt lat="43.81383" lon="7.4469">
        <ele>740.69046617768</ele>
        <time>2021-01-27T14:00:53Z</time>
      </trkpt>
      <trkpt lat="43.81382" lon="7.44691">
        <ele>740.6905309814</ele>
        <time>2021-01-27T14:00:54Z</time>
      </trkpt>
      <trkpt lat="43.81381" lon="7.44692">
        <ele>740.69059397352</ele>
        <time>2021-01-27T14:00:55Z</time>
      </trkpt>
      <trkpt lat="43.81379" lon="7.44693">
        <ele>739.69065082345</ele>
        <time>2021-01-27T14:00:56Z</time>
      </trkpt>
      <trkpt lat="43.81379" lon="7.44694">
        <ele>739.69070409793</ele>
        <time>2021-01-27T14:00:57Z</time>
      </trkpt>
      <trkpt lat="43.81377" lon="7.44694">
        <ele>739.69076454718</ele>
        <time>2021-01-27T14:00:58Z</time>
      </trkpt>
      <trkpt lat="43.81377" lon="7.44695">
        <ele>740.69082238249</ele>
        <time>2021-01-27T14:00:59Z</time>
      </trkpt>
      <trkpt lat="43.81375" lon="7.44696">
        <ele>740.69088326256</ele>
        <time>2021-01-27T14:01:00Z</time>
      </trkpt>
      <trkpt lat="43.81374" lon="7.44697">
        <ele>739.69094143844</ele>
        <time>2021-01-27T14:01:01Z</time>
      </trkpt>
      <trkpt lat="43.81374" lon="7.44697">
        <ele>739.69097824652</ele>
        <time>2021-01-27T14:01:02Z</time>
      </trkpt>
      <trkpt lat="43.81373" lon="7.44698">
        <ele>738.69102786929</ele>
        <time>2021-01-27T14:01:03Z</time>
      </trkpt>
      <trkpt lat="43.81372" lon="7.44699">
        <ele>738.69106829131</ele>
        <time>2021-01-27T14:01:04Z</time>
      </trkpt>
      <trkpt lat="43.81371" lon="7.447">
        <ele>737.69111834021</ele>
        <time>2021-01-27T14:01:05Z</time>
      </trkpt>
      <trkpt lat="43.8137" lon="7.447">
        <ele>737.69117196313</ele>
        <time>2021-01-27T14:01:06Z</time>
      </trkpt>
      <trkpt lat="43.8137" lon="7.44701">
        <ele>738.69119324809</ele>
        <time>2021-01-27T14:01:07Z</time>
      </trkpt>
      <trkpt lat="43.81369" lon="7.447">
        <ele>737.69122580448</ele>
        <time>2021-01-27T14:01:08Z</time>
      </trkpt>
      <trkpt lat="43.81368" lon="7.44699">
        <ele>736.69126853178</ele>
        <time>2021-01-27T14:01:09Z</time>
      </trkpt>
      <trkpt lat="43.81367" lon="7.44699">
        <ele>735.69131150645</ele>
        <time>2021-01-27T14:01:10Z</time>
      </trkpt>
      <trkpt lat="43.81366" lon="7.44698">
        <ele>735.69134260671</ele>
        <time>2021-01-27T14:01:11Z</time>
      </trkpt>
      <trkpt lat="43.81366" lon="7.44697">
        <ele>735.69134841707</ele>
        <time>2021-01-27T14:01:12Z</time>
      </trkpt>
      <trkpt lat="43.81365" lon="7.44697">
        <ele>734.69138790947</ele>
        <time>2021-01-27T14:01:14Z</time>
      </trkpt>
      <trkpt lat="43.81365" lon="7.44696">
        <ele>734.69140308315</ele>
        <time>2021-01-27T14:01:15Z</time>
      </trkpt>
      <trkpt lat="43.81364" lon="7.44695">
        <ele>734.69141499445</ele>
        <time>2021-01-27T14:01:16Z</time>
      </trkpt>
      <trkpt lat="43.81363" lon="7.44694">
        <ele>733.69143832475</ele>
        <time>2021-01-27T14:01:18Z</time>
      </trkpt>
      <trkpt lat="43.81363" lon="7.44693">
        <ele>733.6914625911</ele>
        <time>2021-01-27T14:01:19Z</time>
      </trkpt>
      <trkpt lat="43.81362" lon="7.44692">
        <ele>734.69149619495</ele>
        <time>2021-01-27T14:01:20Z</time>
      </trkpt>
      <trkpt lat="43.81361" lon="7.44691">
        <ele>734.69152050676</ele>
        <time>2021-01-27T14:01:21Z</time>
      </trkpt>
      <trkpt lat="43.8136" lon="7.4469">
        <ele>733.69154871727</ele>
        <time>2021-01-27T14:01:23Z</time>
      </trkpt>
      <trkpt lat="43.81359" lon="7.44689">
        <ele>733.69161455033</ele>
        <time>2021-01-27T14:01:25Z</time>
      </trkpt>
      <trkpt lat="43.81358" lon="7.44689">
        <ele>733.69165477579</ele>
        <time>2021-01-27T14:01:27Z</time>
      </trkpt>
      <trkpt lat="43.81358" lon="7.4469">
        <ele>734.69166385263</ele>
        <time>2021-01-27T14:01:29Z</time>
      </trkpt>
      <trkpt lat="43.81358" lon="7.44691">
        <ele>732.69167620217</ele>
        <time>2021-01-27T14:01:32Z</time>
      </trkpt>
      <trkpt lat="43.81358" lon="7.44691">
        <ele>733.69167123442</ele>
        <time>2021-01-27T14:01:33Z</time>
      </trkpt>
      <trkpt lat="43.81358" lon="7.44692">
        <ele>734.69168283657</ele>
        <time>2021-01-27T14:01:34Z</time>
      </trkpt>
      <trkpt lat="43.81358" lon="7.44692">
        <ele>736.6916819653</ele>
        <time>2021-01-27T14:01:47Z</time>
      </trkpt>
      <trkpt lat="43.81357" lon="7.44692">
        <ele>736.69172840532</ele>
        <time>2021-01-27T14:01:51Z</time>
      </trkpt>
      <trkpt lat="43.81357" lon="7.44691">
        <ele>735.69172540701</ele>
        <time>2021-01-27T14:02:08Z</time>
      </trkpt>
      <trkpt lat="43.81357" lon="7.44692">
        <ele>735.69171450209</ele>
        <time>2021-01-27T14:02:09Z</time>
      </trkpt>
      <trkpt lat="43.81358" lon="7.44692">
        <ele>736.69168402454</ele>
        <time>2021-01-27T14:02:22Z</time>
      </trkpt>
      <trkpt lat="43.81358" lon="7.44691">
        <ele>736.691669486</ele>
        <time>2021-01-27T14:02:26Z</time>
      </trkpt>
      <trkpt lat="43.81357" lon="7.44692">
        <ele>735.69170805613</ele>
        <time>2021-01-27T14:03:24Z</time>
      </trkpt>
      <trkpt lat="43.81358" lon="7.44693">
        <ele>735.69171227573</ele>
        <time>2021-01-27T14:03:25Z</time>
      </trkpt>
      <trkpt lat="43.81358" lon="7.44695">
        <ele>735.69172599398</ele>
        <time>2021-01-27T14:03:27Z</time>
      </trkpt>
      <trkpt lat="43.81359" lon="7.44698">
        <ele>735.69171326266</ele>
        <time>2021-01-27T14:03:29Z</time>
      </trkpt>
      <trkpt lat="43.8136" lon="7.44701">
        <ele>735.69167512477</ele>
        <time>2021-01-27T14:03:30Z</time>
      </trkpt>
      <trkpt lat="43.81361" lon="7.44703">
        <ele>735.6916594553</ele>
        <time>2021-01-27T14:03:31Z</time>
      </trkpt>
      <trkpt lat="43.81362" lon="7.44708">
        <ele>734.69166962411</ele>
        <time>2021-01-27T14:03:33Z</time>
      </trkpt>
      <trkpt lat="43.81363" lon="7.4471">
        <ele>734.69164119789</ele>
        <time>2021-01-27T14:03:34Z</time>
      </trkpt>
      <trkpt lat="43.81363" lon="7.4471">
        <ele>734.69162136392</ele>
        <time>2021-01-27T14:03:35Z</time>
      </trkpt>
      <trkpt lat="43.81364" lon="7.44711">
        <ele>733.69156376224</ele>
        <time>2021-01-27T14:03:37Z</time>
      </trkpt>
      <trkpt lat="43.81365" lon="7.44712">
        <ele>733.6915403257</ele>
        <time>2021-01-27T14:03:38Z</time>
      </trkpt>
      <trkpt lat="43.81366" lon="7.44712">
        <ele>733.69150479866</ele>
        <time>2021-01-27T14:03:39Z</time>
      </trkpt>
      <trkpt lat="43.81367" lon="7.44712">
        <ele>733.69144984301</ele>
        <time>2021-01-27T14:03:40Z</time>
      </trkpt>
      <trkpt lat="43.81368" lon="7.44712">
        <ele>733.69137743098</ele>
        <time>2021-01-27T14:03:41Z</time>
      </trkpt>
      <trkpt lat="43.81369" lon="7.44711">
        <ele>733.69132436107</ele>
        <time>2021-01-27T14:03:42Z</time>
      </trkpt>
      <trkpt lat="43.81371" lon="7.44711">
        <ele>733.6912740886</ele>
        <time>2021-01-27T14:03:43Z</time>
      </trkpt>
      <trkpt lat="43.81372" lon="7.44711">
        <ele>733.69122487354</ele>
        <time>2021-01-27T14:03:44Z</time>
      </trkpt>
      <trkpt lat="43.81373" lon="7.44711">
        <ele>732.69113619516</ele>
        <time>2021-01-27T14:03:45Z</time>
      </trkpt>
      <trkpt lat="43.81375" lon="7.4471">
        <ele>732.6910517807</ele>
        <time>2021-01-27T14:03:46Z</time>
      </trkpt>
      <trkpt lat="43.81378" lon="7.4471">
        <ele>732.69091432863</ele>
        <time>2021-01-27T14:03:48Z</time>
      </trkpt>
      <trkpt lat="43.81379" lon="7.44709">
        <ele>732.69084468062</ele>
        <time>2021-01-27T14:03:49Z</time>
      </trkpt>
      <trkpt lat="43.8138" lon="7.44709">
        <ele>732.69079004311</ele>
        <time>2021-01-27T14:03:50Z</time>
      </trkpt>
      <trkpt lat="43.81381" lon="7.44709">
        <ele>732.69073427308</ele>
        <time>2021-01-27T14:03:51Z</time>
      </trkpt>
      <trkpt lat="43.81382" lon="7.44709">
        <ele>732.69067590871</ele>
        <time>2021-01-27T14:03:52Z</time>
      </trkpt>
      <trkpt lat="43.81383" lon="7.44708">
        <ele>733.69061124495</ele>
        <time>2021-01-27T14:03:53Z</time>
      </trkpt>
      <trkpt lat="43.81385" lon="7.44708">
        <ele>733.69053951632</ele>
        <time>2021-01-27T14:03:54Z</time>
      </trkpt>
      <trkpt lat="43.81386" lon="7.44708">
        <ele>733.6904823906</ele>
        <time>2021-01-27T14:03:55Z</time>
      </trkpt>
      <trkpt lat="43.81389" lon="7.44708">
        <ele>733.69033922973</ele>
        <time>2021-01-27T14:03:57Z</time>
      </trkpt>
      <trkpt lat="43.8139" lon="7.44708">
        <ele>733.69027829247</ele>
        <time>2021-01-27T14:03:58Z</time>
      </trkpt>
      <trkpt lat="43.81393" lon="7.44709">
        <ele>734.69017543491</ele>
        <time>2021-01-27T14:04:00Z</time>
      </trkpt>
      <trkpt lat="43.81394" lon="7.4471">
        <ele>734.69010334193</ele>
        <time>2021-01-27T14:04:01Z</time>
      </trkpt>
      <trkpt lat="43.81395" lon="7.44711">
        <ele>734.69006812772</ele>
        <time>2021-01-27T14:04:02Z</time>
      </trkpt>
      <trkpt lat="43.81397" lon="7.44713">
        <ele>733.68999603198</ele>
        <time>2021-01-27T14:04:04Z</time>
      </trkpt>
      <trkpt lat="43.81398" lon="7.44714">
        <ele>733.68995332295</ele>
        <time>2021-01-27T14:04:05Z</time>
      </trkpt>
      <trkpt lat="43.814" lon="7.44714">
        <ele>733.68988275894</ele>
        <time>2021-01-27T14:04:06Z</time>
      </trkpt>
      <trkpt lat="43.81402" lon="7.44714">
        <ele>733.68980497677</ele>
        <time>2021-01-27T14:04:07Z</time>
      </trkpt>
      <trkpt lat="43.81405" lon="7.44716">
        <ele>733.68965651332</ele>
        <time>2021-01-27T14:04:09Z</time>
      </trkpt>
      <trkpt lat="43.81406" lon="7.44716">
        <ele>732.68958676613</ele>
        <time>2021-01-27T14:04:10Z</time>
      </trkpt>
      <trkpt lat="43.81408" lon="7.44716">
        <ele>732.68949638363</ele>
        <time>2021-01-27T14:04:11Z</time>
      </trkpt>
      <trkpt lat="43.81411" lon="7.44715">
        <ele>733.6893698492</ele>
        <time>2021-01-27T14:04:13Z</time>
      </trkpt>
      <trkpt lat="43.81413" lon="7.44713">
        <ele>733.68924448761</ele>
        <time>2021-01-27T14:04:15Z</time>
      </trkpt>
      <trkpt lat="43.81416" lon="7.44715">
        <ele>733.68912708333</ele>
        <time>2021-01-27T14:04:17Z</time>
      </trkpt>
      <trkpt lat="43.81417" lon="7.44716">
        <ele>732.68905691242</ele>
        <time>2021-01-27T14:04:18Z</time>
      </trkpt>
      <trkpt lat="43.81417" lon="7.44718">
        <ele>732.68906600618</ele>
        <time>2021-01-27T14:04:19Z</time>
      </trkpt>
      <trkpt lat="43.81418" lon="7.44719">
        <ele>731.68905962117</ele>
        <time>2021-01-27T14:04:20Z</time>
      </trkpt>
      <trkpt lat="43.81418" lon="7.44721">
        <ele>731.68906279254</ele>
        <time>2021-01-27T14:04:21Z</time>
      </trkpt>
      <trkpt lat="43.81418" lon="7.44723">
        <ele>729.68911723404</ele>
        <time>2021-01-27T14:04:23Z</time>
      </trkpt>
      <trkpt lat="43.81418" lon="7.44725">
        <ele>728.68911035242</ele>
        <time>2021-01-27T14:04:24Z</time>
      </trkpt>
      <trkpt lat="43.81418" lon="7.44725">
        <ele>728.6891239374</ele>
        <time>2021-01-27T14:04:25Z</time>
      </trkpt>
      <trkpt lat="43.81418" lon="7.44727">
        <ele>728.68915220098</ele>
        <time>2021-01-27T14:04:26Z</time>
      </trkpt>
      <trkpt lat="43.81417" lon="7.44728">
        <ele>728.68918200298</ele>
        <time>2021-01-27T14:04:27Z</time>
      </trkpt>
      <trkpt lat="43.81416" lon="7.44729">
        <ele>729.68923237782</ele>
        <time>2021-01-27T14:04:28Z</time>
      </trkpt>
      <trkpt lat="43.81416" lon="7.4473">
        <ele>728.6892783569</ele>
        <time>2021-01-27T14:04:29Z</time>
      </trkpt>
      <trkpt lat="43.81415" lon="7.44732">
        <ele>728.68932550426</ele>
        <time>2021-01-27T14:04:30Z</time>
      </trkpt>
      <trkpt lat="43.81414" lon="7.44734">
        <ele>728.68937394359</ele>
        <time>2021-01-27T14:04:31Z</time>
      </trkpt>
      <trkpt lat="43.81414" lon="7.44735">
        <ele>728.68942250481</ele>
        <time>2021-01-27T14:04:32Z</time>
      </trkpt>
      <trkpt lat="43.81413" lon="7.44737">
        <ele>728.68946521516</ele>
        <time>2021-01-27T14:04:33Z</time>
      </trkpt>
      <trkpt lat="43.81413" lon="7.44738">
        <ele>728.6894965406</ele>
        <time>2021-01-27T14:04:34Z</time>
      </trkpt>
      <trkpt lat="43.81411" lon="7.44739">
        <ele>728.68957186232</ele>
        <time>2021-01-27T14:04:35Z</time>
      </trkpt>
      <trkpt lat="43.81409" lon="7.44738">
        <ele>727.68966714543</ele>
        <time>2021-01-27T14:04:36Z</time>
      </trkpt>
      <trkpt lat="43.81408" lon="7.44738">
        <ele>727.68974690542</ele>
        <time>2021-01-27T14:04:37Z</time>
      </trkpt>
      <trkpt lat="43.81406" lon="7.44738">
        <ele>726.68982983115</ele>
        <time>2021-01-27T14:04:38Z</time>
      </trkpt>
      <trkpt lat="43.81404" lon="7.44738">
        <ele>726.68991752368</ele>
        <time>2021-01-27T14:04:39Z</time>
      </trkpt>
      <trkpt lat="43.81403" lon="7.44739">
        <ele>726.69000217489</ele>
        <time>2021-01-27T14:04:40Z</time>
      </trkpt>
      <trkpt lat="43.81401" lon="7.44739">
        <ele>726.6900709645</ele>
        <time>2021-01-27T14:04:41Z</time>
      </trkpt>
      <trkpt lat="43.814" lon="7.44739">
        <ele>726.69014881427</ele>
        <time>2021-01-27T14:04:42Z</time>
      </trkpt>
      <trkpt lat="43.81398" lon="7.44739">
        <ele>726.6902241986</ele>
        <time>2021-01-27T14:04:43Z</time>
      </trkpt>
      <trkpt lat="43.81397" lon="7.44738">
        <ele>725.69029183467</ele>
        <time>2021-01-27T14:04:44Z</time>
      </trkpt>
      <trkpt lat="43.81395" lon="7.44738">
        <ele>725.69037080411</ele>
        <time>2021-01-27T14:04:45Z</time>
      </trkpt>
      <trkpt lat="43.81393" lon="7.44738">
        <ele>724.69044419868</ele>
        <time>2021-01-27T14:04:46Z</time>
      </trkpt>
      <trkpt lat="43.81391" lon="7.44737">
        <ele>724.69053326376</ele>
        <time>2021-01-27T14:04:47Z</time>
      </trkpt>
      <trkpt lat="43.8139" lon="7.44737">
        <ele>724.69060431486</ele>
        <time>2021-01-27T14:04:48Z</time>
      </trkpt>
      <trkpt lat="43.81387" lon="7.44737">
        <ele>723.69074230697</ele>
        <time>2021-01-27T14:04:50Z</time>
      </trkpt>
      <trkpt lat="43.81385" lon="7.44737">
        <ele>723.69082010342</ele>
        <time>2021-01-27T14:04:51Z</time>
      </trkpt>
      <trkpt lat="43.81384" lon="7.44738">
        <ele>723.69088100719</ele>
        <time>2021-01-27T14:04:52Z</time>
      </trkpt>
      <trkpt lat="43.81383" lon="7.44738">
        <ele>723.69094524862</ele>
        <time>2021-01-27T14:04:53Z</time>
      </trkpt>
      <trkpt lat="43.81381" lon="7.44739">
        <ele>723.69102538729</ele>
        <time>2021-01-27T14:04:54Z</time>
      </trkpt>
      <trkpt lat="43.8138" lon="7.4474">
        <ele>723.69110999766</ele>
        <time>2021-01-27T14:04:55Z</time>
      </trkpt>
      <trkpt lat="43.81378" lon="7.44741">
        <ele>723.69120310675</ele>
        <time>2021-01-27T14:04:56Z</time>
      </trkpt>
      <trkpt lat="43.81377" lon="7.44741">
        <ele>723.69128386623</ele>
        <time>2021-01-27T14:04:57Z</time>
      </trkpt>
      <trkpt lat="43.81376" lon="7.44741">
        <ele>722.69133069615</ele>
        <time>2021-01-27T14:04:58Z</time>
      </trkpt>
      <trkpt lat="43.81375" lon="7.44741">
        <ele>722.69137292137</ele>
        <time>2021-01-27T14:04:59Z</time>
      </trkpt>
      <trkpt lat="43.81374" lon="7.44742">
        <ele>721.69141510801</ele>
        <time>2021-01-27T14:05:00Z</time>
      </trkpt>
      <trkpt lat="43.81373" lon="7.44743">
        <ele>721.69146800465</ele>
        <time>2021-01-27T14:05:01Z</time>
      </trkpt>
      <trkpt lat="43.81372" lon="7.44744">
        <ele>721.69154083398</ele>
        <time>2021-01-27T14:05:02Z</time>
      </trkpt>
      <trkpt lat="43.81371" lon="7.44745">
        <ele>720.69160971956</ele>
        <time>2021-01-27T14:05:03Z</time>
      </trkpt>
      <trkpt lat="43.81369" lon="7.44746">
        <ele>720.69170189984</ele>
        <time>2021-01-27T14:05:04Z</time>
      </trkpt>
      <trkpt lat="43.81368" lon="7.44747">
        <ele>720.69176626042</ele>
        <time>2021-01-27T14:05:05Z</time>
      </trkpt>
      <trkpt lat="43.81367" lon="7.44748">
        <ele>719.69182754112</ele>
        <time>2021-01-27T14:05:06Z</time>
      </trkpt>
      <trkpt lat="43.81366" lon="7.44749">
        <ele>719.69188370582</ele>
        <time>2021-01-27T14:05:07Z</time>
      </trkpt>
      <trkpt lat="43.81365" lon="7.4475">
        <ele>719.6919508422</ele>
        <time>2021-01-27T14:05:08Z</time>
      </trkpt>
      <trkpt lat="43.81363" lon="7.44751">
        <ele>718.69202886366</ele>
        <time>2021-01-27T14:05:09Z</time>
      </trkpt>
      <trkpt lat="43.81362" lon="7.44752">
        <ele>719.69210983934</ele>
        <time>2021-01-27T14:05:10Z</time>
      </trkpt>
      <trkpt lat="43.8136" lon="7.44753">
        <ele>719.69218809292</ele>
        <time>2021-01-27T14:05:11Z</time>
      </trkpt>
      <trkpt lat="43.81359" lon="7.44753">
        <ele>719.69227709601</ele>
        <time>2021-01-27T14:05:12Z</time>
      </trkpt>
      <trkpt lat="43.81357" lon="7.44753">
        <ele>719.69235112353</ele>
        <time>2021-01-27T14:05:13Z</time>
      </trkpt>
      <trkpt lat="43.81355" lon="7.44753">
        <ele>718.69242990123</ele>
        <time>2021-01-27T14:05:14Z</time>
      </trkpt>
      <trkpt lat="43.81354" lon="7.44752">
        <ele>718.69248887967</ele>
        <time>2021-01-27T14:05:15Z</time>
      </trkpt>
      <trkpt lat="43.81353" lon="7.44751">
        <ele>718.69253605295</ele>
        <time>2021-01-27T14:05:16Z</time>
      </trkpt>
      <trkpt lat="43.81352" lon="7.44748">
        <ele>717.69256682665</ele>
        <time>2021-01-27T14:05:17Z</time>
      </trkpt>
      <trkpt lat="43.81351" lon="7.44747">
        <ele>717.69259582074</ele>
        <time>2021-01-27T14:05:18Z</time>
      </trkpt>
      <trkpt lat="43.81349" lon="7.44743">
        <ele>717.69265308923</ele>
        <time>2021-01-27T14:05:20Z</time>
      </trkpt>
      <trkpt lat="43.81348" lon="7.44741">
        <ele>716.69267787606</ele>
        <time>2021-01-27T14:05:21Z</time>
      </trkpt>
      <trkpt lat="43.81347" lon="7.44738">
        <ele>716.69268942049</ele>
        <time>2021-01-27T14:05:22Z</time>
      </trkpt>
      <trkpt lat="43.81346" lon="7.44737">
        <ele>716.69271669507</ele>
        <time>2021-01-27T14:05:23Z</time>
      </trkpt>
      <trkpt lat="43.81345" lon="7.44736">
        <ele>716.69273881443</ele>
        <time>2021-01-27T14:05:24Z</time>
      </trkpt>
      <trkpt lat="43.81345" lon="7.44734">
        <ele>716.69274724234</ele>
        <time>2021-01-27T14:05:25Z</time>
      </trkpt>
      <trkpt lat="43.81344" lon="7.44733">
        <ele>716.69275697349</ele>
        <time>2021-01-27T14:05:27Z</time>
      </trkpt>
      <trkpt lat="43.81344" lon="7.44729">
        <ele>715.6927455115</ele>
        <time>2021-01-27T14:05:29Z</time>
      </trkpt>
      <trkpt lat="43.81343" lon="7.44727">
        <ele>714.69275632889</ele>
        <time>2021-01-27T14:05:30Z</time>
      </trkpt>
      <trkpt lat="43.81343" lon="7.44725">
        <ele>714.69277228172</ele>
        <time>2021-01-27T14:05:31Z</time>
      </trkpt>
      <trkpt lat="43.81341" lon="7.44724">
        <ele>713.69281631279</ele>
        <time>2021-01-27T14:05:32Z</time>
      </trkpt>
      <trkpt lat="43.81341" lon="7.44723">
        <ele>713.69283240217</ele>
        <time>2021-01-27T14:05:33Z</time>
      </trkpt>
      <trkpt lat="43.8134" lon="7.44722">
        <ele>713.69286311148</ele>
        <time>2021-01-27T14:05:34Z</time>
      </trkpt>
      <trkpt lat="43.8134" lon="7.44722">
        <ele>713.69286715307</ele>
        <time>2021-01-27T14:05:35Z</time>
      </trkpt>
      <trkpt lat="43.81339" lon="7.44721">
        <ele>713.69290937383</ele>
        <time>2021-01-27T14:05:37Z</time>
      </trkpt>
      <trkpt lat="43.81338" lon="7.44721">
        <ele>713.69297289495</ele>
        <time>2021-01-27T14:05:38Z</time>
      </trkpt>
      <trkpt lat="43.81336" lon="7.44722">
        <ele>713.69305480221</ele>
        <time>2021-01-27T14:05:39Z</time>
      </trkpt>
      <trkpt lat="43.81335" lon="7.44722">
        <ele>712.69311603449</ele>
        <time>2021-01-27T14:05:40Z</time>
      </trkpt>
      <trkpt lat="43.81334" lon="7.44724">
        <ele>712.6931521294</ele>
        <time>2021-01-27T14:05:41Z</time>
      </trkpt>
      <trkpt lat="43.81334" lon="7.44726">
        <ele>712.69319609048</ele>
        <time>2021-01-27T14:05:42Z</time>
      </trkpt>
      <trkpt lat="43.81333" lon="7.44727">
        <ele>712.69325345217</ele>
        <time>2021-01-27T14:05:43Z</time>
      </trkpt>
      <trkpt lat="43.8133" lon="7.44728">
        <ele>711.693402038</ele>
        <time>2021-01-27T14:05:45Z</time>
      </trkpt>
      <trkpt lat="43.81329" lon="7.44728">
        <ele>711.69347612187</ele>
        <time>2021-01-27T14:05:46Z</time>
      </trkpt>
      <trkpt lat="43.81327" lon="7.44728">
        <ele>710.6935420817</ele>
        <time>2021-01-27T14:05:47Z</time>
      </trkpt>
      <trkpt lat="43.81326" lon="7.44728">
        <ele>710.69360949198</ele>
        <time>2021-01-27T14:05:48Z</time>
      </trkpt>
      <trkpt lat="43.81325" lon="7.44728">
        <ele>710.69366968306</ele>
        <time>2021-01-27T14:05:49Z</time>
      </trkpt>
      <trkpt lat="43.81323" lon="7.44727">
        <ele>710.69371856703</ele>
        <time>2021-01-27T14:05:50Z</time>
      </trkpt>
      <trkpt lat="43.81322" lon="7.44726">
        <ele>710.69376779293</ele>
        <time>2021-01-27T14:05:51Z</time>
      </trkpt>
      <trkpt lat="43.81321" lon="7.44726">
        <ele>709.69382420024</ele>
        <time>2021-01-27T14:05:52Z</time>
      </trkpt>
      <trkpt lat="43.8132" lon="7.44727">
        <ele>708.693889816</ele>
        <time>2021-01-27T14:05:53Z</time>
      </trkpt>
      <trkpt lat="43.81319" lon="7.44727">
        <ele>707.69394128487</ele>
        <time>2021-01-27T14:05:54Z</time>
      </trkpt>
      <trkpt lat="43.81318" lon="7.44728">
        <ele>706.69401264011</ele>
        <time>2021-01-27T14:05:55Z</time>
      </trkpt>
      <trkpt lat="43.81316" lon="7.44729">
        <ele>706.69407864468</ele>
        <time>2021-01-27T14:05:56Z</time>
      </trkpt>
      <trkpt lat="43.81316" lon="7.44731">
        <ele>706.69412922384</ele>
        <time>2021-01-27T14:05:57Z</time>
      </trkpt>
      <trkpt lat="43.81315" lon="7.44731">
        <ele>706.69416854615</ele>
        <time>2021-01-27T14:05:58Z</time>
      </trkpt>
      <trkpt lat="43.81314" lon="7.44732">
        <ele>706.69422029295</ele>
        <time>2021-01-27T14:05:59Z</time>
      </trkpt>
      <trkpt lat="43.81313" lon="7.44733">
        <ele>706.69428146114</ele>
        <time>2021-01-27T14:06:00Z</time>
      </trkpt>
      <trkpt lat="43.81312" lon="7.44734">
        <ele>706.6943355101</ele>
        <time>2021-01-27T14:06:01Z</time>
      </trkpt>
      <trkpt lat="43.81311" lon="7.44734">
        <ele>706.69439257718</ele>
        <time>2021-01-27T14:06:02Z</time>
      </trkpt>
      <trkpt lat="43.81309" lon="7.44736">
        <ele>706.69452578597</ele>
        <time>2021-01-27T14:06:04Z</time>
      </trkpt>
      <trkpt lat="43.81308" lon="7.44737">
        <ele>706.69458293177</ele>
        <time>2021-01-27T14:06:05Z</time>
      </trkpt>
      <trkpt lat="43.81306" lon="7.44737">
        <ele>706.69464191868</ele>
        <time>2021-01-27T14:06:06Z</time>
      </trkpt>
      <trkpt lat="43.81305" lon="7.44738">
        <ele>706.6946971329</ele>
        <time>2021-01-27T14:06:07Z</time>
      </trkpt>
      <trkpt lat="43.81305" lon="7.44739">
        <ele>706.69474375469</ele>
        <time>2021-01-27T14:06:08Z</time>
      </trkpt>
      <trkpt lat="43.81304" lon="7.44741">
        <ele>706.69477745536</ele>
        <time>2021-01-27T14:06:09Z</time>
      </trkpt>
      <trkpt lat="43.81304" lon="7.44742">
        <ele>706.69480144916</ele>
        <time>2021-01-27T14:06:10Z</time>
      </trkpt>
      <trkpt lat="43.81304" lon="7.44744">
        <ele>706.69483577253</ele>
        <time>2021-01-27T14:06:11Z</time>
      </trkpt>
      <trkpt lat="43.81305" lon="7.44748">
        <ele>706.6948249107</ele>
        <time>2021-01-27T14:06:13Z</time>
      </trkpt>
      <trkpt lat="43.81306" lon="7.44751">
        <ele>706.69480156513</ele>
        <time>2021-01-27T14:06:15Z</time>
      </trkpt>
      <trkpt lat="43.81306" lon="7.44753">
        <ele>706.69480017392</ele>
        <time>2021-01-27T14:06:16Z</time>
      </trkpt>
      <trkpt lat="43.81307" lon="7.44754">
        <ele>706.6947925493</ele>
        <time>2021-01-27T14:06:17Z</time>
      </trkpt>
      <trkpt lat="43.81307" lon="7.44757">
        <ele>705.69479678744</ele>
        <time>2021-01-27T14:06:19Z</time>
      </trkpt>
      <trkpt lat="43.81308" lon="7.44759">
        <ele>705.69479430414</ele>
        <time>2021-01-27T14:06:20Z</time>
      </trkpt>
      <trkpt lat="43.81308" lon="7.44761">
        <ele>705.69477896619</ele>
        <time>2021-01-27T14:06:21Z</time>
      </trkpt>
      <trkpt lat="43.8131" lon="7.44764">
        <ele>703.69475409836</ele>
        <time>2021-01-27T14:06:23Z</time>
      </trkpt>
      <trkpt lat="43.8131" lon="7.44767">
        <ele>703.6947592402</ele>
        <time>2021-01-27T14:06:25Z</time>
      </trkpt>
      <trkpt lat="43.8131" lon="7.44769">
        <ele>703.69478624019</ele>
        <time>2021-01-27T14:06:26Z</time>
      </trkpt>
      <trkpt lat="43.81311" lon="7.44772">
        <ele>703.69479296413</ele>
        <time>2021-01-27T14:06:27Z</time>
      </trkpt>
      <trkpt lat="43.81311" lon="7.44776">
        <ele>703.69479920004</ele>
        <time>2021-01-27T14:06:29Z</time>
      </trkpt>
      <trkpt lat="43.81312" lon="7.44778">
        <ele>702.69478323596</ele>
        <time>2021-01-27T14:06:30Z</time>
      </trkpt>
      <trkpt lat="43.81312" lon="7.44779">
        <ele>701.69478480582</ele>
        <time>2021-01-27T14:06:31Z</time>
      </trkpt>
      <trkpt lat="43.81312" lon="7.44781">
        <ele>701.69480364744</ele>
        <time>2021-01-27T14:06:32Z</time>
      </trkpt>
      <trkpt lat="43.81312" lon="7.44783">
        <ele>701.69481374289</ele>
        <time>2021-01-27T14:06:33Z</time>
      </trkpt>
      <trkpt lat="43.81313" lon="7.44785">
        <ele>701.69481747372</ele>
        <time>2021-01-27T14:06:34Z</time>
      </trkpt>
      <trkpt lat="43.81312" lon="7.44786">
        <ele>702.69485638611</ele>
        <time>2021-01-27T14:06:35Z</time>
      </trkpt>
      <trkpt lat="43.81312" lon="7.44788">
        <ele>702.69488291726</ele>
        <time>2021-01-27T14:06:36Z</time>
      </trkpt>
      <trkpt lat="43.81312" lon="7.44789">
        <ele>702.69491363486</ele>
        <time>2021-01-27T14:06:37Z</time>
      </trkpt>
      <trkpt lat="43.81311" lon="7.44791">
        <ele>702.69496488537</ele>
        <time>2021-01-27T14:06:38Z</time>
      </trkpt>
      <trkpt lat="43.8131" lon="7.44793">
        <ele>701.69503227971</ele>
        <time>2021-01-27T14:06:39Z</time>
      </trkpt>
      <trkpt lat="43.81309" lon="7.44794">
        <ele>701.695102089</ele>
        <time>2021-01-27T14:06:40Z</time>
      </trkpt>
      <trkpt lat="43.81308" lon="7.44796">
        <ele>701.69517270793</ele>
        <time>2021-01-27T14:06:41Z</time>
      </trkpt>
      <trkpt lat="43.81306" lon="7.44797">
        <ele>700.69524292997</ele>
        <time>2021-01-27T14:06:42Z</time>
      </trkpt>
      <trkpt lat="43.81306" lon="7.44798">
        <ele>700.69529927589</ele>
        <time>2021-01-27T14:06:43Z</time>
      </trkpt>
      <trkpt lat="43.81306" lon="7.448">
        <ele>701.69531501806</ele>
        <time>2021-01-27T14:06:44Z</time>
      </trkpt>
      <trkpt lat="43.81305" lon="7.44802">
        <ele>701.69535076527</ele>
        <time>2021-01-27T14:06:45Z</time>
      </trkpt>
      <trkpt lat="43.81305" lon="7.44804">
        <ele>701.6954036611</ele>
        <time>2021-01-27T14:06:46Z</time>
      </trkpt>
      <trkpt lat="43.81304" lon="7.44806">
        <ele>701.69546214397</ele>
        <time>2021-01-27T14:06:47Z</time>
      </trkpt>
      <trkpt lat="43.81303" lon="7.44807">
        <ele>701.69549203185</ele>
        <time>2021-01-27T14:06:48Z</time>
      </trkpt>
      <trkpt lat="43.81303" lon="7.4481">
        <ele>701.69554420138</ele>
        <time>2021-01-27T14:06:50Z</time>
      </trkpt>
      <trkpt lat="43.81302" lon="7.44811">
        <ele>701.69558036076</ele>
        <time>2021-01-27T14:06:51Z</time>
      </trkpt>
      <trkpt lat="43.81302" lon="7.44812">
        <ele>701.69562094993</ele>
        <time>2021-01-27T14:06:52Z</time>
      </trkpt>
      <trkpt lat="43.81301" lon="7.44813">
        <ele>701.6956639171</ele>
        <time>2021-01-27T14:06:53Z</time>
      </trkpt>
      <trkpt lat="43.813" lon="7.44814">
        <ele>701.69572224131</ele>
        <time>2021-01-27T14:06:54Z</time>
      </trkpt>
      <trkpt lat="43.813" lon="7.44815">
        <ele>702.69576265824</ele>
        <time>2021-01-27T14:06:55Z</time>
      </trkpt>
      <trkpt lat="43.81298" lon="7.44817">
        <ele>701.6958350199</ele>
        <time>2021-01-27T14:06:56Z</time>
      </trkpt>
      <trkpt lat="43.81298" lon="7.44818">
        <ele>702.69587993333</ele>
        <time>2021-01-27T14:06:57Z</time>
      </trkpt>
      <trkpt lat="43.81296" lon="7.4482">
        <ele>701.69596589197</ele>
        <time>2021-01-27T14:06:59Z</time>
      </trkpt>
      <trkpt lat="43.81296" lon="7.44821">
        <ele>701.69600102181</ele>
        <time>2021-01-27T14:07:00Z</time>
      </trkpt>
      <trkpt lat="43.81296" lon="7.44822">
        <ele>701.69601047824</ele>
        <time>2021-01-27T14:07:01Z</time>
      </trkpt>
      <trkpt lat="43.81296" lon="7.44823">
        <ele>701.6960340729</ele>
        <time>2021-01-27T14:07:02Z</time>
      </trkpt>
      <trkpt lat="43.81295" lon="7.44825">
        <ele>701.69606517641</ele>
        <time>2021-01-27T14:07:03Z</time>
      </trkpt>
      <trkpt lat="43.81295" lon="7.44827">
        <ele>700.69608700053</ele>
        <time>2021-01-27T14:07:04Z</time>
      </trkpt>
      <trkpt lat="43.81295" lon="7.44829">
        <ele>700.696133035</ele>
        <time>2021-01-27T14:07:05Z</time>
      </trkpt>
      <trkpt lat="43.81294" lon="7.44831">
        <ele>699.69618551202</ele>
        <time>2021-01-27T14:07:06Z</time>
      </trkpt>
      <trkpt lat="43.81294" lon="7.44832">
        <ele>699.69622110483</ele>
        <time>2021-01-27T14:07:07Z</time>
      </trkpt>
      <trkpt lat="43.81293" lon="7.44834">
        <ele>698.6962521289</ele>
        <time>2021-01-27T14:07:08Z</time>
      </trkpt>
      <trkpt lat="43.81293" lon="7.44835">
        <ele>698.69628605265</ele>
        <time>2021-01-27T14:07:09Z</time>
      </trkpt>
      <trkpt lat="43.81292" lon="7.44835">
        <ele>698.69630658423</ele>
        <time>2021-01-27T14:07:10Z</time>
      </trkpt>
      <trkpt lat="43.81292" lon="7.44836">
        <ele>698.69631800289</ele>
        <time>2021-01-27T14:07:11Z</time>
      </trkpt>
      <trkpt lat="43.81293" lon="7.44839">
        <ele>698.69630527492</ele>
        <time>2021-01-27T14:07:13Z</time>
      </trkpt>
      <trkpt lat="43.81293" lon="7.4484">
        <ele>698.6963454536</ele>
        <time>2021-01-27T14:07:14Z</time>
      </trkpt>
      <trkpt lat="43.81292" lon="7.44841">
        <ele>698.69638699488</ele>
        <time>2021-01-27T14:07:15Z</time>
      </trkpt>
      <trkpt lat="43.81292" lon="7.44842">
        <ele>698.69641795403</ele>
        <time>2021-01-27T14:07:16Z</time>
      </trkpt>
      <trkpt lat="43.81291" lon="7.44844">
        <ele>697.69647817109</ele>
        <time>2021-01-27T14:07:17Z</time>
      </trkpt>
      <trkpt lat="43.8129" lon="7.44845">
        <ele>696.69652100128</ele>
        <time>2021-01-27T14:07:18Z</time>
      </trkpt>
      <trkpt lat="43.8129" lon="7.44846">
        <ele>696.69654235274</ele>
        <time>2021-01-27T14:07:19Z</time>
      </trkpt>
      <trkpt lat="43.81289" lon="7.44848">
        <ele>696.69659602335</ele>
        <time>2021-01-27T14:07:20Z</time>
      </trkpt>
      <trkpt lat="43.81288" lon="7.4485">
        <ele>696.69667715026</ele>
        <time>2021-01-27T14:07:21Z</time>
      </trkpt>
      <trkpt lat="43.81287" lon="7.44852">
        <ele>696.69672022615</ele>
        <time>2021-01-27T14:07:22Z</time>
      </trkpt>
      <trkpt lat="43.81287" lon="7.44853">
        <ele>696.69675379621</ele>
        <time>2021-01-27T14:07:23Z</time>
      </trkpt>
      <trkpt lat="43.81286" lon="7.44854">
        <ele>695.69678632221</ele>
        <time>2021-01-27T14:07:24Z</time>
      </trkpt>
      <trkpt lat="43.81286" lon="7.44856">
        <ele>695.69682599013</ele>
        <time>2021-01-27T14:07:25Z</time>
      </trkpt>
      <trkpt lat="43.81286" lon="7.44858">
        <ele>695.69686111298</ele>
        <time>2021-01-27T14:07:26Z</time>
      </trkpt>
      <trkpt lat="43.81285" lon="7.4486">
        <ele>695.69688811218</ele>
        <time>2021-01-27T14:07:27Z</time>
      </trkpt>
      <trkpt lat="43.81285" lon="7.44863">
        <ele>694.6969414503</ele>
        <time>2021-01-27T14:07:29Z</time>
      </trkpt>
      <trkpt lat="43.81285" lon="7.44865">
        <ele>693.69696472146</ele>
        <time>2021-01-27T14:07:30Z</time>
      </trkpt>
      <trkpt lat="43.81285" lon="7.44866">
        <ele>693.69699302399</ele>
        <time>2021-01-27T14:07:31Z</time>
      </trkpt>
      <trkpt lat="43.81285" lon="7.44868">
        <ele>693.69700919218</ele>
        <time>2021-01-27T14:07:32Z</time>
      </trkpt>
      <trkpt lat="43.81284" lon="7.44869">
        <ele>692.69705447078</ele>
        <time>2021-01-27T14:07:33Z</time>
      </trkpt>
      <trkpt lat="43.81284" lon="7.44871">
        <ele>692.69707406769</ele>
        <time>2021-01-27T14:07:34Z</time>
      </trkpt>
      <trkpt lat="43.81283" lon="7.44873">
        <ele>692.69711388579</ele>
        <time>2021-01-27T14:07:35Z</time>
      </trkpt>
      <trkpt lat="43.81283" lon="7.44874">
        <ele>691.69715188324</ele>
        <time>2021-01-27T14:07:36Z</time>
      </trkpt>
      <trkpt lat="43.81283" lon="7.44876">
        <ele>691.69719407384</ele>
        <time>2021-01-27T14:07:37Z</time>
      </trkpt>
      <trkpt lat="43.81283" lon="7.44878">
        <ele>691.69721738961</ele>
        <time>2021-01-27T14:07:38Z</time>
      </trkpt>
      <trkpt lat="43.81282" lon="7.44879">
        <ele>691.69725500233</ele>
        <time>2021-01-27T14:07:39Z</time>
      </trkpt>
      <trkpt lat="43.81282" lon="7.44881">
        <ele>690.69729070027</ele>
        <time>2021-01-27T14:07:40Z</time>
      </trkpt>
      <trkpt lat="43.81281" lon="7.44882">
        <ele>691.69731300124</ele>
        <time>2021-01-27T14:07:41Z</time>
      </trkpt>
      <trkpt lat="43.81281" lon="7.44884">
        <ele>691.69735829287</ele>
        <time>2021-01-27T14:07:42Z</time>
      </trkpt>
      <trkpt lat="43.81281" lon="7.44886">
        <ele>691.69737974804</ele>
        <time>2021-01-27T14:07:43Z</time>
      </trkpt>
      <trkpt lat="43.81281" lon="7.44887">
        <ele>691.69740247877</ele>
        <time>2021-01-27T14:07:44Z</time>
      </trkpt>
      <trkpt lat="43.8128" lon="7.44889">
        <ele>691.69743505839</ele>
        <time>2021-01-27T14:07:45Z</time>
      </trkpt>
      <trkpt lat="43.8128" lon="7.44891">
        <ele>692.69746085481</ele>
        <time>2021-01-27T14:07:46Z</time>
      </trkpt>
      <trkpt lat="43.8128" lon="7.44892">
        <ele>692.69749692803</ele>
        <time>2021-01-27T14:07:47Z</time>
      </trkpt>
      <trkpt lat="43.81279" lon="7.44894">
        <ele>692.69755715958</ele>
        <time>2021-01-27T14:07:48Z</time>
      </trkpt>
      <trkpt lat="43.81278" lon="7.44896">
        <ele>692.69761393316</ele>
        <time>2021-01-27T14:07:49Z</time>
      </trkpt>
      <trkpt lat="43.81278" lon="7.44897">
        <ele>692.69764217399</ele>
        <time>2021-01-27T14:07:50Z</time>
      </trkpt>
      <trkpt lat="43.81277" lon="7.44898">
        <ele>691.69766847824</ele>
        <time>2021-01-27T14:07:51Z</time>
      </trkpt>
      <trkpt lat="43.81276" lon="7.44901">
        <ele>692.69774380681</ele>
        <time>2021-01-27T14:07:53Z</time>
      </trkpt>
      <trkpt lat="43.81276" lon="7.44903">
        <ele>692.69777623368</ele>
        <time>2021-01-27T14:07:54Z</time>
      </trkpt>
      <trkpt lat="43.81276" lon="7.44905">
        <ele>691.6978173174</ele>
        <time>2021-01-27T14:07:55Z</time>
      </trkpt>
      <trkpt lat="43.81275" lon="7.44906">
        <ele>691.69785466659</ele>
        <time>2021-01-27T14:07:56Z</time>
      </trkpt>
      <trkpt lat="43.81274" lon="7.44908">
        <ele>691.69790860683</ele>
        <time>2021-01-27T14:07:58Z</time>
      </trkpt>
      <trkpt lat="43.81274" lon="7.44909">
        <ele>691.69793319706</ele>
        <time>2021-01-27T14:07:59Z</time>
      </trkpt>
      <trkpt lat="43.81274" lon="7.4491">
        <ele>691.69795220857</ele>
        <time>2021-01-27T14:08:00Z</time>
      </trkpt>
      <trkpt lat="43.81273" lon="7.44911">
        <ele>690.69799245192</ele>
        <time>2021-01-27T14:08:01Z</time>
      </trkpt>
      <trkpt lat="43.81272" lon="7.44913">
        <ele>690.69804947703</ele>
        <time>2021-01-27T14:08:02Z</time>
      </trkpt>
      <trkpt lat="43.81271" lon="7.44915">
        <ele>690.69812445464</ele>
        <time>2021-01-27T14:08:04Z</time>
      </trkpt>
      <trkpt lat="43.81271" lon="7.44917">
        <ele>690.69815879209</ele>
        <time>2021-01-27T14:08:05Z</time>
      </trkpt>
      <trkpt lat="43.81271" lon="7.44918">
        <ele>690.6981890916</ele>
        <time>2021-01-27T14:08:06Z</time>
      </trkpt>
      <trkpt lat="43.8127" lon="7.44919">
        <ele>689.69820972358</ele>
        <time>2021-01-27T14:08:07Z</time>
      </trkpt>
      <trkpt lat="43.8127" lon="7.44921">
        <ele>689.6982632163</ele>
        <time>2021-01-27T14:08:08Z</time>
      </trkpt>
      <trkpt lat="43.81269" lon="7.44922">
        <ele>689.69832611781</ele>
        <time>2021-01-27T14:08:09Z</time>
      </trkpt>
      <trkpt lat="43.81268" lon="7.44923">
        <ele>689.69836136363</ele>
        <time>2021-01-27T14:08:10Z</time>
      </trkpt>
      <trkpt lat="43.81267" lon="7.44924">
        <ele>689.69842092951</ele>
        <time>2021-01-27T14:08:11Z</time>
      </trkpt>
      <trkpt lat="43.81266" lon="7.44925">
        <ele>689.69848896154</ele>
        <time>2021-01-27T14:08:12Z</time>
      </trkpt>
      <trkpt lat="43.81264" lon="7.44926">
        <ele>688.69859342201</ele>
        <time>2021-01-27T14:08:14Z</time>
      </trkpt>
      <trkpt lat="43.81264" lon="7.44928">
        <ele>688.69860282976</ele>
        <time>2021-01-27T14:08:15Z</time>
      </trkpt>
      <trkpt lat="43.81264" lon="7.44929">
        <ele>688.69862561323</ele>
        <time>2021-01-27T14:08:16Z</time>
      </trkpt>
      <trkpt lat="43.81263" lon="7.44931">
        <ele>687.69866198938</ele>
        <time>2021-01-27T14:08:17Z</time>
      </trkpt>
      <trkpt lat="43.81263" lon="7.44932">
        <ele>687.69869802787</ele>
        <time>2021-01-27T14:08:18Z</time>
      </trkpt>
      <trkpt lat="43.81263" lon="7.44933">
        <ele>687.69873480315</ele>
        <time>2021-01-27T14:08:19Z</time>
      </trkpt>
      <trkpt lat="43.81262" lon="7.44935">
        <ele>686.69875719545</ele>
        <time>2021-01-27T14:08:20Z</time>
      </trkpt>
      <trkpt lat="43.81262" lon="7.44937">
        <ele>685.69878071074</ele>
        <time>2021-01-27T14:08:22Z</time>
      </trkpt>
      <trkpt lat="43.81261" lon="7.4494">
        <ele>684.69887892293</ele>
        <time>2021-01-27T14:08:24Z</time>
      </trkpt>
      <trkpt lat="43.8126" lon="7.44942">
        <ele>684.69893498611</ele>
        <time>2021-01-27T14:08:25Z</time>
      </trkpt>
      <trkpt lat="43.81259" lon="7.44943">
        <ele>683.69898520161</ele>
        <time>2021-01-27T14:08:26Z</time>
      </trkpt>
      <trkpt lat="43.81258" lon="7.44944">
        <ele>683.69903810144</ele>
        <time>2021-01-27T14:08:27Z</time>
      </trkpt>
      <trkpt lat="43.81257" lon="7.44945">
        <ele>683.69909739691</ele>
        <time>2021-01-27T14:08:28Z</time>
      </trkpt>
      <trkpt lat="43.81257" lon="7.44947">
        <ele>683.69911616513</ele>
        <time>2021-01-27T14:08:29Z</time>
      </trkpt>
      <trkpt lat="43.81257" lon="7.44947">
        <ele>682.69913159276</ele>
        <time>2021-01-27T14:08:30Z</time>
      </trkpt>
      <trkpt lat="43.81257" lon="7.44949">
        <ele>682.69916256631</ele>
        <time>2021-01-27T14:08:31Z</time>
      </trkpt>
      <trkpt lat="43.81256" lon="7.4495">
        <ele>682.69919520304</ele>
        <time>2021-01-27T14:08:32Z</time>
      </trkpt>
      <trkpt lat="43.81256" lon="7.44951">
        <ele>682.69922505166</ele>
        <time>2021-01-27T14:08:33Z</time>
      </trkpt>
      <trkpt lat="43.81255" lon="7.44952">
        <ele>682.69926428349</ele>
        <time>2021-01-27T14:08:34Z</time>
      </trkpt>
      <trkpt lat="43.81255" lon="7.44954">
        <ele>682.69931588235</ele>
        <time>2021-01-27T14:08:35Z</time>
      </trkpt>
      <trkpt lat="43.81254" lon="7.44956">
        <ele>682.69936297926</ele>
        <time>2021-01-27T14:08:36Z</time>
      </trkpt>
      <trkpt lat="43.81253" lon="7.44958">
        <ele>681.69943756299</ele>
        <time>2021-01-27T14:08:38Z</time>
      </trkpt>
      <trkpt lat="43.81253" lon="7.4496">
        <ele>681.69947557032</ele>
        <time>2021-01-27T14:08:39Z</time>
      </trkpt>
      <trkpt lat="43.81252" lon="7.44961">
        <ele>680.6994969764</ele>
        <time>2021-01-27T14:08:40Z</time>
      </trkpt>
      <trkpt lat="43.81252" lon="7.44962">
        <ele>680.69951521379</ele>
        <time>2021-01-27T14:08:41Z</time>
      </trkpt>
      <trkpt lat="43.81252" lon="7.44964">
        <ele>680.6995551802</ele>
        <time>2021-01-27T14:08:43Z</time>
      </trkpt>
      <trkpt lat="43.81251" lon="7.44965">
        <ele>679.69958218798</ele>
        <time>2021-01-27T14:08:44Z</time>
      </trkpt>
      <trkpt lat="43.81251" lon="7.44967">
        <ele>679.69960911984</ele>
        <time>2021-01-27T14:08:45Z</time>
      </trkpt>
      <trkpt lat="43.81251" lon="7.44969">
        <ele>679.69961973092</ele>
        <time>2021-01-27T14:08:46Z</time>
      </trkpt>
      <trkpt lat="43.81251" lon="7.4497">
        <ele>679.69964012702</ele>
        <time>2021-01-27T14:08:47Z</time>
      </trkpt>
      <trkpt lat="43.8125" lon="7.44972">
        <ele>679.69972475123</ele>
        <time>2021-01-27T14:08:49Z</time>
      </trkpt>
      <trkpt lat="43.81249" lon="7.44972">
        <ele>679.69976998336</ele>
        <time>2021-01-27T14:08:50Z</time>
      </trkpt>
      <trkpt lat="43.81248" lon="7.44973">
        <ele>678.69983188355</ele>
        <time>2021-01-27T14:08:51Z</time>
      </trkpt>
      <trkpt lat="43.81246" lon="7.44977">
        <ele>676.69996062834</ele>
        <time>2021-01-27T14:08:53Z</time>
      </trkpt>
      <trkpt lat="43.81245" lon="7.44978">
        <ele>676.70003995228</ele>
        <time>2021-01-27T14:08:54Z</time>
      </trkpt>
      <trkpt lat="43.81243" lon="7.44979">
        <ele>675.70011587114</ele>
        <time>2021-01-27T14:08:55Z</time>
      </trkpt>
      <trkpt lat="43.81242" lon="7.44979">
        <ele>675.70017191631</ele>
        <time>2021-01-27T14:08:56Z</time>
      </trkpt>
      <trkpt lat="43.81241" lon="7.4498">
        <ele>675.70020971551</ele>
        <time>2021-01-27T14:08:57Z</time>
      </trkpt>
      <trkpt lat="43.81241" lon="7.4498">
        <ele>674.70025216132</ele>
        <time>2021-01-27T14:08:58Z</time>
      </trkpt>
      <trkpt lat="43.8124" lon="7.44981">
        <ele>674.70029166773</ele>
        <time>2021-01-27T14:08:59Z</time>
      </trkpt>
      <trkpt lat="43.81239" lon="7.44982">
        <ele>674.70035793451</ele>
        <time>2021-01-27T14:09:00Z</time>
      </trkpt>
      <trkpt lat="43.81238" lon="7.44983">
        <ele>674.70043082645</ele>
        <time>2021-01-27T14:09:01Z</time>
      </trkpt>
      <trkpt lat="43.81236" lon="7.44984">
        <ele>674.70051133889</ele>
        <time>2021-01-27T14:09:02Z</time>
      </trkpt>
      <trkpt lat="43.81235" lon="7.44986">
        <ele>673.70057071136</ele>
        <time>2021-01-27T14:09:03Z</time>
      </trkpt>
      <trkpt lat="43.81235" lon="7.44987">
        <ele>673.70059176649</ele>
        <time>2021-01-27T14:09:04Z</time>
      </trkpt>
      <trkpt lat="43.81235" lon="7.4499">
        <ele>673.70061588537</ele>
        <time>2021-01-27T14:09:05Z</time>
      </trkpt>
      <trkpt lat="43.81236" lon="7.44992">
        <ele>673.70061239516</ele>
        <time>2021-01-27T14:09:06Z</time>
      </trkpt>
      <trkpt lat="43.81237" lon="7.44994">
        <ele>672.7005742773</ele>
        <time>2021-01-27T14:09:08Z</time>
      </trkpt>
      <trkpt lat="43.81238" lon="7.44994">
        <ele>671.70050104225</ele>
        <time>2021-01-27T14:09:10Z</time>
      </trkpt>
      <trkpt lat="43.81239" lon="7.44993">
        <ele>672.70046368542</ele>
        <time>2021-01-27T14:09:11Z</time>
      </trkpt>
      <trkpt lat="43.81239" lon="7.44992">
        <ele>672.70044298624</ele>
        <time>2021-01-27T14:09:12Z</time>
      </trkpt>
      <trkpt lat="43.8124" lon="7.44991">
        <ele>672.70039072412</ele>
        <time>2021-01-27T14:09:13Z</time>
      </trkpt>
      <trkpt lat="43.81241" lon="7.4499">
        <ele>671.70034717596</ele>
        <time>2021-01-27T14:09:14Z</time>
      </trkpt>
      <trkpt lat="43.81242" lon="7.4499">
        <ele>672.70029242059</ele>
        <time>2021-01-27T14:09:15Z</time>
      </trkpt>
      <trkpt lat="43.81243" lon="7.44989">
        <ele>672.70024467241</ele>
        <time>2021-01-27T14:09:16Z</time>
      </trkpt>
      <trkpt lat="43.81244" lon="7.44989">
        <ele>672.70018913116</ele>
        <time>2021-01-27T14:09:17Z</time>
      </trkpt>
      <trkpt lat="43.81245" lon="7.44987">
        <ele>671.70008685634</ele>
        <time>2021-01-27T14:09:19Z</time>
      </trkpt>
      <trkpt lat="43.81246" lon="7.44986">
        <ele>671.70005615234</ele>
        <time>2021-01-27T14:09:20Z</time>
      </trkpt>
      <trkpt lat="43.81247" lon="7.44986">
        <ele>671.70000534083</ele>
        <time>2021-01-27T14:09:21Z</time>
      </trkpt>
      <trkpt lat="43.81249" lon="7.44985">
        <ele>670.69989511721</ele>
        <time>2021-01-27T14:09:23Z</time>
      </trkpt>
      <trkpt lat="43.81251" lon="7.44983">
        <ele>668.69976473603</ele>
        <time>2021-01-27T14:09:25Z</time>
      </trkpt>
      <trkpt lat="43.81253" lon="7.44982">
        <ele>667.69969456023</ele>
        <time>2021-01-27T14:09:26Z</time>
      </trkpt>
      <trkpt lat="43.81254" lon="7.44981">
        <ele>666.69963902142</ele>
        <time>2021-01-27T14:09:27Z</time>
      </trkpt>
      <trkpt lat="43.81255" lon="7.44979">
        <ele>666.69952830545</ele>
        <time>2021-01-27T14:09:29Z</time>
      </trkpt>
      <trkpt lat="43.81257" lon="7.44979">
        <ele>667.69946544592</ele>
        <time>2021-01-27T14:09:30Z</time>
      </trkpt>
      <trkpt lat="43.81258" lon="7.44978">
        <ele>667.69939783771</ele>
        <time>2021-01-27T14:09:31Z</time>
      </trkpt>
      <trkpt lat="43.8126" lon="7.44976">
        <ele>666.69927362746</ele>
        <time>2021-01-27T14:09:33Z</time>
      </trkpt>
      <trkpt lat="43.81262" lon="7.44974">
        <ele>666.69917884943</ele>
        <time>2021-01-27T14:09:35Z</time>
      </trkpt>
      <trkpt lat="43.81262" lon="7.44974">
        <ele>666.69914963375</ele>
        <time>2021-01-27T14:09:36Z</time>
      </trkpt>
      <trkpt lat="43.81263" lon="7.44973">
        <ele>666.69911878471</ele>
        <time>2021-01-27T14:09:37Z</time>
      </trkpt>
      <trkpt lat="43.81265" lon="7.44972">
        <ele>666.69901816637</ele>
        <time>2021-01-27T14:09:39Z</time>
      </trkpt>
      <trkpt lat="43.81266" lon="7.44971">
        <ele>666.69894254295</ele>
        <time>2021-01-27T14:09:40Z</time>
      </trkpt>
      <trkpt lat="43.81267" lon="7.4497">
        <ele>666.69886902876</ele>
        <time>2021-01-27T14:09:41Z</time>
      </trkpt>
      <trkpt lat="43.81268" lon="7.44969">
        <ele>665.69881152037</ele>
        <time>2021-01-27T14:09:42Z</time>
      </trkpt>
      <trkpt lat="43.81269" lon="7.44968">
        <ele>665.69876961876</ele>
        <time>2021-01-27T14:09:43Z</time>
      </trkpt>
      <trkpt lat="43.8127" lon="7.44968">
        <ele>665.69871095832</ele>
        <time>2021-01-27T14:09:44Z</time>
      </trkpt>
      <trkpt lat="43.81271" lon="7.44967">
        <ele>664.69864734266</ele>
        <time>2021-01-27T14:09:45Z</time>
      </trkpt>
      <trkpt lat="43.81273" lon="7.44966">
        <ele>664.69855227916</ele>
        <time>2021-01-27T14:09:46Z</time>
      </trkpt>
      <trkpt lat="43.81276" lon="7.44964">
        <ele>663.69838639797</ele>
        <time>2021-01-27T14:09:48Z</time>
      </trkpt>
      <trkpt lat="43.81277" lon="7.44962">
        <ele>663.69832370384</ele>
        <time>2021-01-27T14:09:49Z</time>
      </trkpt>
      <trkpt lat="43.81278" lon="7.44962">
        <ele>664.69826427237</ele>
        <time>2021-01-27T14:09:50Z</time>
      </trkpt>
      <trkpt lat="43.81279" lon="7.44962">
        <ele>663.69820675809</ele>
        <time>2021-01-27T14:09:51Z</time>
      </trkpt>
      <trkpt lat="43.81281" lon="7.44961">
        <ele>663.69812639771</ele>
        <time>2021-01-27T14:09:52Z</time>
      </trkpt>
      <trkpt lat="43.81283" lon="7.4496">
        <ele>662.69799802939</ele>
        <time>2021-01-27T14:09:54Z</time>
      </trkpt>
      <trkpt lat="43.81285" lon="7.44959">
        <ele>662.69791550738</ele>
        <time>2021-01-27T14:09:55Z</time>
      </trkpt>
      <trkpt lat="43.81286" lon="7.44958">
        <ele>662.69785095472</ele>
        <time>2021-01-27T14:09:56Z</time>
      </trkpt>
      <trkpt lat="43.81287" lon="7.44957">
        <ele>662.69778572809</ele>
        <time>2021-01-27T14:09:57Z</time>
      </trkpt>
      <trkpt lat="43.81288" lon="7.44956">
        <ele>661.69771597336</ele>
        <time>2021-01-27T14:09:58Z</time>
      </trkpt>
      <trkpt lat="43.8129" lon="7.44956">
        <ele>661.69764398578</ele>
        <time>2021-01-27T14:09:59Z</time>
      </trkpt>
      <trkpt lat="43.81291" lon="7.44955">
        <ele>661.69757815261</ele>
        <time>2021-01-27T14:10:00Z</time>
      </trkpt>
      <trkpt lat="43.81292" lon="7.44955">
        <ele>661.6975120813</ele>
        <time>2021-01-27T14:10:01Z</time>
      </trkpt>
      <trkpt lat="43.81295" lon="7.44953">
        <ele>661.69737600136</ele>
        <time>2021-01-27T14:10:03Z</time>
      </trkpt>
      <trkpt lat="43.81297" lon="7.44952">
        <ele>662.697258196</ele>
        <time>2021-01-27T14:10:05Z</time>
      </trkpt>
      <trkpt lat="43.81298" lon="7.44951">
        <ele>662.69721003619</ele>
        <time>2021-01-27T14:10:06Z</time>
      </trkpt>
      <trkpt lat="43.81299" lon="7.44951">
        <ele>662.69715887157</ele>
        <time>2021-01-27T14:10:07Z</time>
      </trkpt>
      <trkpt lat="43.813" lon="7.44949">
        <ele>661.69707321696</ele>
        <time>2021-01-27T14:10:09Z</time>
      </trkpt>
      <trkpt lat="43.81301" lon="7.44948">
        <ele>661.6970326166</ele>
        <time>2021-01-27T14:10:10Z</time>
      </trkpt>
      <trkpt lat="43.81302" lon="7.44947">
        <ele>661.696985832</ele>
        <time>2021-01-27T14:10:11Z</time>
      </trkpt>
      <trkpt lat="43.81303" lon="7.44945">
        <ele>662.6968840055</ele>
        <time>2021-01-27T14:10:13Z</time>
      </trkpt>
      <trkpt lat="43.81305" lon="7.44945">
        <ele>662.69678882873</ele>
        <time>2021-01-27T14:10:15Z</time>
      </trkpt>
      <trkpt lat="43.81306" lon="7.44944">
        <ele>662.69675110967</ele>
        <time>2021-01-27T14:10:16Z</time>
      </trkpt>
      <trkpt lat="43.81307" lon="7.44944">
        <ele>662.69670535446</ele>
        <time>2021-01-27T14:10:17Z</time>
      </trkpt>
      <trkpt lat="43.81309" lon="7.44943">
        <ele>662.69660981063</ele>
        <time>2021-01-27T14:10:19Z</time>
      </trkpt>
      <trkpt lat="43.8131" lon="7.44942">
        <ele>662.6965444455</ele>
        <time>2021-01-27T14:10:20Z</time>
      </trkpt>
      <trkpt lat="43.81311" lon="7.44943">
        <ele>662.69647523652</ele>
        <time>2021-01-27T14:10:21Z</time>
      </trkpt>
      <trkpt lat="43.81314" lon="7.44946">
        <ele>661.6964068671</ele>
        <time>2021-01-27T14:10:23Z</time>
      </trkpt>
      <trkpt lat="43.81314" lon="7.4495">
        <ele>660.69643799491</ele>
        <time>2021-01-27T14:10:25Z</time>
      </trkpt>
      <trkpt lat="43.81313" lon="7.44951">
        <ele>659.69648990862</ele>
        <time>2021-01-27T14:10:26Z</time>
      </trkpt>
      <trkpt lat="43.81312" lon="7.44953">
        <ele>659.69653124742</ele>
        <time>2021-01-27T14:10:27Z</time>
      </trkpt>
      <trkpt lat="43.81312" lon="7.44954">
        <ele>659.69657478312</ele>
        <time>2021-01-27T14:10:28Z</time>
      </trkpt>
      <trkpt lat="43.81311" lon="7.44955">
        <ele>659.69662606134</ele>
        <time>2021-01-27T14:10:29Z</time>
      </trkpt>
      <trkpt lat="43.81311" lon="7.44957">
        <ele>659.69665718584</ele>
        <time>2021-01-27T14:10:30Z</time>
      </trkpt>
      <trkpt lat="43.8131" lon="7.44958">
        <ele>659.6966928695</ele>
        <time>2021-01-27T14:10:31Z</time>
      </trkpt>
      <trkpt lat="43.8131" lon="7.44959">
        <ele>659.69671092931</ele>
        <time>2021-01-27T14:10:32Z</time>
      </trkpt>
      <trkpt lat="43.8131" lon="7.4496">
        <ele>659.69674246071</ele>
        <time>2021-01-27T14:10:33Z</time>
      </trkpt>
      <trkpt lat="43.81309" lon="7.44962">
        <ele>658.69678913004</ele>
        <time>2021-01-27T14:10:34Z</time>
      </trkpt>
      <trkpt lat="43.81308" lon="7.44963">
        <ele>658.69682655088</ele>
        <time>2021-01-27T14:10:35Z</time>
      </trkpt>
      <trkpt lat="43.81308" lon="7.44965">
        <ele>659.69686416286</ele>
        <time>2021-01-27T14:10:36Z</time>
      </trkpt>
      <trkpt lat="43.81307" lon="7.44965">
        <ele>659.69690827804</ele>
        <time>2021-01-27T14:10:37Z</time>
      </trkpt>
      <trkpt lat="43.81306" lon="7.44966">
        <ele>659.69695085625</ele>
        <time>2021-01-27T14:10:38Z</time>
      </trkpt>
      <trkpt lat="43.81305" lon="7.44969">
        <ele>659.69704026628</ele>
        <time>2021-01-27T14:10:40Z</time>
      </trkpt>
      <trkpt lat="43.81304" lon="7.4497">
        <ele>658.69708404949</ele>
        <time>2021-01-27T14:10:41Z</time>
      </trkpt>
      <trkpt lat="43.81303" lon="7.44971">
        <ele>658.69714649696</ele>
        <time>2021-01-27T14:10:42Z</time>
      </trkpt>
      <trkpt lat="43.81302" lon="7.44971">
        <ele>658.6972043745</ele>
        <time>2021-01-27T14:10:43Z</time>
      </trkpt>
      <trkpt lat="43.81301" lon="7.44972">
        <ele>657.69727773617</ele>
        <time>2021-01-27T14:10:44Z</time>
      </trkpt>
      <trkpt lat="43.813" lon="7.44973">
        <ele>657.69732780019</ele>
        <time>2021-01-27T14:10:45Z</time>
      </trkpt>
      <trkpt lat="43.81299" lon="7.44974">
        <ele>656.6973988348</ele>
        <time>2021-01-27T14:10:46Z</time>
      </trkpt>
      <trkpt lat="43.81298" lon="7.44975">
        <ele>656.69746596717</ele>
        <time>2021-01-27T14:10:47Z</time>
      </trkpt>
      <trkpt lat="43.81296" lon="7.44977">
        <ele>656.6975787466</ele>
        <time>2021-01-27T14:10:49Z</time>
      </trkpt>
      <trkpt lat="43.81295" lon="7.44978">
        <ele>655.6976347059</ele>
        <time>2021-01-27T14:10:50Z</time>
      </trkpt>
      <trkpt lat="43.81294" lon="7.44979">
        <ele>655.69770253961</ele>
        <time>2021-01-27T14:10:51Z</time>
      </trkpt>
      <trkpt lat="43.81293" lon="7.4498">
        <ele>655.69775842092</ele>
        <time>2021-01-27T14:10:52Z</time>
      </trkpt>
      <trkpt lat="43.81292" lon="7.44981">
        <ele>654.69779795562</ele>
        <time>2021-01-27T14:10:53Z</time>
      </trkpt>
      <trkpt lat="43.81291" lon="7.44983">
        <ele>654.69785306313</ele>
        <time>2021-01-27T14:10:54Z</time>
      </trkpt>
      <trkpt lat="43.8129" lon="7.44984">
        <ele>653.69791225724</ele>
        <time>2021-01-27T14:10:55Z</time>
      </trkpt>
      <trkpt lat="43.81289" lon="7.44986">
        <ele>653.69797371272</ele>
        <time>2021-01-27T14:10:56Z</time>
      </trkpt>
      <trkpt lat="43.81288" lon="7.44987">
        <ele>653.69803339067</ele>
        <time>2021-01-27T14:10:57Z</time>
      </trkpt>
      <trkpt lat="43.81286" lon="7.4499">
        <ele>653.69817454743</ele>
        <time>2021-01-27T14:10:59Z</time>
      </trkpt>
      <trkpt lat="43.81285" lon="7.44991">
        <ele>653.69824894761</ele>
        <time>2021-01-27T14:11:00Z</time>
      </trkpt>
      <trkpt lat="43.81283" lon="7.44991">
        <ele>653.69831802664</ele>
        <time>2021-01-27T14:11:01Z</time>
      </trkpt>
      <trkpt lat="43.81282" lon="7.44992">
        <ele>653.69837063793</ele>
        <time>2021-01-27T14:11:02Z</time>
      </trkpt>
      <trkpt lat="43.81282" lon="7.44993">
        <ele>653.69838911794</ele>
        <time>2021-01-27T14:11:04Z</time>
      </trkpt>
      <trkpt lat="43.81282" lon="7.44994">
        <ele>652.6984167182</ele>
        <time>2021-01-27T14:11:05Z</time>
      </trkpt>
      <trkpt lat="43.81281" lon="7.44994">
        <ele>652.69845723691</ele>
        <time>2021-01-27T14:11:06Z</time>
      </trkpt>
      <trkpt lat="43.8128" lon="7.44996">
        <ele>652.69851907594</ele>
        <time>2021-01-27T14:11:07Z</time>
      </trkpt>
      <trkpt lat="43.81279" lon="7.44997">
        <ele>652.69856577489</ele>
        <time>2021-01-27T14:11:08Z</time>
      </trkpt>
      <trkpt lat="43.81279" lon="7.44999">
        <ele>652.69859712066</ele>
        <time>2021-01-27T14:11:09Z</time>
      </trkpt>
      <trkpt lat="43.81278" lon="7.45">
        <ele>652.69864149834</ele>
        <time>2021-01-27T14:11:10Z</time>
      </trkpt>
      <trkpt lat="43.81277" lon="7.45002">
        <ele>651.69869849892</ele>
        <time>2021-01-27T14:11:11Z</time>
      </trkpt>
      <trkpt lat="43.81277" lon="7.45003">
        <ele>651.69874253864</ele>
        <time>2021-01-27T14:11:12Z</time>
      </trkpt>
      <trkpt lat="43.81276" lon="7.45005">
        <ele>651.6987861439</ele>
        <time>2021-01-27T14:11:13Z</time>
      </trkpt>
      <trkpt lat="43.81275" lon="7.45006">
        <ele>651.6988581146</ele>
        <time>2021-01-27T14:11:14Z</time>
      </trkpt>
      <trkpt lat="43.81274" lon="7.45008">
        <ele>652.69893017181</ele>
        <time>2021-01-27T14:11:15Z</time>
      </trkpt>
      <trkpt lat="43.81273" lon="7.4501">
        <ele>651.69898534453</ele>
        <time>2021-01-27T14:11:16Z</time>
      </trkpt>
      <trkpt lat="43.81272" lon="7.4501">
        <ele>651.69903834163</ele>
        <time>2021-01-27T14:11:17Z</time>
      </trkpt>
      <trkpt lat="43.81271" lon="7.45011">
        <ele>651.69908979067</ele>
        <time>2021-01-27T14:11:18Z</time>
      </trkpt>
      <trkpt lat="43.81269" lon="7.45012">
        <ele>652.69920802233</ele>
        <time>2021-01-27T14:11:20Z</time>
      </trkpt>
      <trkpt lat="43.81268" lon="7.45013">
        <ele>652.69927200624</ele>
        <time>2021-01-27T14:11:21Z</time>
      </trkpt>
      <trkpt lat="43.81267" lon="7.45013">
        <ele>652.69933683597</ele>
        <time>2021-01-27T14:11:22Z</time>
      </trkpt>
      <trkpt lat="43.81266" lon="7.45014">
        <ele>652.69938526557</ele>
        <time>2021-01-27T14:11:23Z</time>
      </trkpt>
      <trkpt lat="43.81265" lon="7.45015">
        <ele>652.69942809548</ele>
        <time>2021-01-27T14:11:24Z</time>
      </trkpt>
      <trkpt lat="43.81264" lon="7.45017">
        <ele>651.6994752951</ele>
        <time>2021-01-27T14:11:25Z</time>
      </trkpt>
      <trkpt lat="43.81264" lon="7.45018">
        <ele>651.69952256476</ele>
        <time>2021-01-27T14:11:26Z</time>
      </trkpt>
      <trkpt lat="43.81262" lon="7.45019">
        <ele>651.69959987205</ele>
        <time>2021-01-27T14:11:28Z</time>
      </trkpt>
      <trkpt lat="43.81262" lon="7.45021">
        <ele>652.69964310264</ele>
        <time>2021-01-27T14:11:29Z</time>
      </trkpt>
      <trkpt lat="43.81261" lon="7.45022">
        <ele>651.69967297664</ele>
        <time>2021-01-27T14:11:30Z</time>
      </trkpt>
      <trkpt lat="43.81261" lon="7.45023">
        <ele>651.6997311507</ele>
        <time>2021-01-27T14:11:31Z</time>
      </trkpt>
      <trkpt lat="43.8126" lon="7.45025">
        <ele>651.69978425945</ele>
        <time>2021-01-27T14:11:32Z</time>
      </trkpt>
      <trkpt lat="43.81259" lon="7.45027">
        <ele>651.69981955303</ele>
        <time>2021-01-27T14:11:33Z</time>
      </trkpt>
      <trkpt lat="43.81258" lon="7.4503">
        <ele>651.69990365434</ele>
        <time>2021-01-27T14:11:35Z</time>
      </trkpt>
      <trkpt lat="43.81258" lon="7.45031">
        <ele>651.69994482591</ele>
        <time>2021-01-27T14:11:36Z</time>
      </trkpt>
      <trkpt lat="43.81257" lon="7.45032">
        <ele>651.69997714681</ele>
        <time>2021-01-27T14:11:37Z</time>
      </trkpt>
      <trkpt lat="43.81257" lon="7.45033">
        <ele>651.69999793071</ele>
        <time>2021-01-27T14:11:38Z</time>
      </trkpt>
      <trkpt lat="43.81256" lon="7.45034">
        <ele>651.70002839436</ele>
        <time>2021-01-27T14:11:39Z</time>
      </trkpt>
      <trkpt lat="43.81256" lon="7.45035">
        <ele>650.70005082795</ele>
        <time>2021-01-27T14:11:40Z</time>
      </trkpt>
      <trkpt lat="43.81256" lon="7.45036">
        <ele>650.70007883797</ele>
        <time>2021-01-27T14:11:41Z</time>
      </trkpt>
      <trkpt lat="43.81255" lon="7.4504">
        <ele>649.70016589874</ele>
        <time>2021-01-27T14:11:43Z</time>
      </trkpt>
      <trkpt lat="43.81255" lon="7.45041">
        <ele>649.70018325187</ele>
        <time>2021-01-27T14:11:44Z</time>
      </trkpt>
      <trkpt lat="43.81254" lon="7.45042">
        <ele>648.70021534171</ele>
        <time>2021-01-27T14:11:45Z</time>
      </trkpt>
      <trkpt lat="43.81254" lon="7.45044">
        <ele>648.70024283165</ele>
        <time>2021-01-27T14:11:46Z</time>
      </trkpt>
      <trkpt lat="43.81253" lon="7.45045">
        <ele>648.70028968052</ele>
        <time>2021-01-27T14:11:47Z</time>
      </trkpt>
      <trkpt lat="43.81253" lon="7.45047">
        <ele>648.7003335642</ele>
        <time>2021-01-27T14:11:48Z</time>
      </trkpt>
      <trkpt lat="43.81252" lon="7.45048">
        <ele>647.70038362235</ele>
        <time>2021-01-27T14:11:49Z</time>
      </trkpt>
      <trkpt lat="43.81251" lon="7.4505">
        <ele>648.70043528169</ele>
        <time>2021-01-27T14:11:50Z</time>
      </trkpt>
      <trkpt lat="43.81251" lon="7.45051">
        <ele>647.7004859683</ele>
        <time>2021-01-27T14:11:51Z</time>
      </trkpt>
      <trkpt lat="43.8125" lon="7.45053">
        <ele>647.70054973546</ele>
        <time>2021-01-27T14:11:52Z</time>
      </trkpt>
      <trkpt lat="43.81249" lon="7.45054">
        <ele>647.7006007968</ele>
        <time>2021-01-27T14:11:53Z</time>
      </trkpt>
      <trkpt lat="43.81249" lon="7.45055">
        <ele>647.70062663537</ele>
        <time>2021-01-27T14:11:54Z</time>
      </trkpt>
      <trkpt lat="43.81247" lon="7.45057">
        <ele>646.70071391474</ele>
        <time>2021-01-27T14:11:55Z</time>
      </trkpt>
      <trkpt lat="43.81244" lon="7.45057">
        <ele>646.70087041289</ele>
        <time>2021-01-27T14:11:57Z</time>
      </trkpt>
      <trkpt lat="43.81241" lon="7.45057">
        <ele>645.70098658018</ele>
        <time>2021-01-27T14:11:59Z</time>
      </trkpt>
      <trkpt lat="43.8124" lon="7.45056">
        <ele>644.70104950882</ele>
        <time>2021-01-27T14:12:00Z</time>
      </trkpt>
      <trkpt lat="43.81239" lon="7.45056">
        <ele>644.70109923769</ele>
        <time>2021-01-27T14:12:01Z</time>
      </trkpt>
      <trkpt lat="43.81238" lon="7.45055">
        <ele>643.70115110929</ele>
        <time>2021-01-27T14:12:02Z</time>
      </trkpt>
      <trkpt lat="43.81236" lon="7.45055">
        <ele>643.70120564487</ele>
        <time>2021-01-27T14:12:03Z</time>
      </trkpt>
      <trkpt lat="43.81235" lon="7.45054">
        <ele>642.70127798754</ele>
        <time>2021-01-27T14:12:04Z</time>
      </trkpt>
      <trkpt lat="43.81233" lon="7.45053">
        <ele>642.70133637989</ele>
        <time>2021-01-27T14:12:05Z</time>
      </trkpt>
      <trkpt lat="43.81232" lon="7.45053">
        <ele>642.70137063816</ele>
        <time>2021-01-27T14:12:06Z</time>
      </trkpt>
      <trkpt lat="43.8123" lon="7.45052">
        <ele>641.70145897621</ele>
        <time>2021-01-27T14:12:08Z</time>
      </trkpt>
      <trkpt lat="43.8123" lon="7.45051">
        <ele>641.70148628089</ele>
        <time>2021-01-27T14:12:09Z</time>
      </trkpt>
      <trkpt lat="43.81229" lon="7.4505">
        <ele>640.70152520656</ele>
        <time>2021-01-27T14:12:10Z</time>
      </trkpt>
      <trkpt lat="43.81228" lon="7.45049">
        <ele>640.70155902074</ele>
        <time>2021-01-27T14:12:11Z</time>
      </trkpt>
      <trkpt lat="43.81227" lon="7.45048">
        <ele>640.70160431446</ele>
        <time>2021-01-27T14:12:12Z</time>
      </trkpt>
      <trkpt lat="43.81226" lon="7.45047">
        <ele>639.70163607128</ele>
        <time>2021-01-27T14:12:13Z</time>
      </trkpt>
      <trkpt lat="43.81225" lon="7.45046">
        <ele>640.70166531388</ele>
        <time>2021-01-27T14:12:14Z</time>
      </trkpt>
      <trkpt lat="43.81224" lon="7.45046">
        <ele>641.70170506799</ele>
        <time>2021-01-27T14:12:15Z</time>
      </trkpt>
      <trkpt lat="43.81223" lon="7.45045">
        <ele>641.70173001193</ele>
        <time>2021-01-27T14:12:16Z</time>
      </trkpt>
      <trkpt lat="43.81222" lon="7.45045">
        <ele>641.70179986541</ele>
        <time>2021-01-27T14:12:17Z</time>
      </trkpt>
      <trkpt lat="43.8122" lon="7.45044">
        <ele>640.70186282463</ele>
        <time>2021-01-27T14:12:18Z</time>
      </trkpt>
      <trkpt lat="43.81219" lon="7.45043">
        <ele>640.70190020613</ele>
        <time>2021-01-27T14:12:19Z</time>
      </trkpt>
      <trkpt lat="43.81218" lon="7.45042">
        <ele>640.70194825309</ele>
        <time>2021-01-27T14:12:20Z</time>
      </trkpt>
      <trkpt lat="43.81218" lon="7.45041">
        <ele>640.70197274614</ele>
        <time>2021-01-27T14:12:21Z</time>
      </trkpt>
      <trkpt lat="43.81212" lon="7.45038">
        <ele>638.70220189551</ele>
        <time>2021-01-27T14:12:25Z</time>
      </trkpt>
      <trkpt lat="43.81211" lon="7.45038">
        <ele>638.70224099944</ele>
        <time>2021-01-27T14:12:26Z</time>
      </trkpt>
      <trkpt lat="43.8121" lon="7.45038">
        <ele>638.70229936106</ele>
        <time>2021-01-27T14:12:27Z</time>
      </trkpt>
      <trkpt lat="43.81208" lon="7.45038">
        <ele>637.70240432096</ele>
        <time>2021-01-27T14:12:29Z</time>
      </trkpt>
      <trkpt lat="43.81207" lon="7.45038">
        <ele>637.70244582903</ele>
        <time>2021-01-27T14:12:30Z</time>
      </trkpt>
      <trkpt lat="43.81206" lon="7.45037">
        <ele>637.70250066166</ele>
        <time>2021-01-27T14:12:31Z</time>
      </trkpt>
      <trkpt lat="43.81205" lon="7.45037">
        <ele>637.70255024108</ele>
        <time>2021-01-27T14:12:32Z</time>
      </trkpt>
      <trkpt lat="43.81204" lon="7.45036">
        <ele>636.70258607677</ele>
        <time>2021-01-27T14:12:33Z</time>
      </trkpt>
      <trkpt lat="43.81202" lon="7.45036">
        <ele>637.70266887143</ele>
        <time>2021-01-27T14:12:35Z</time>
      </trkpt>
      <trkpt lat="43.81202" lon="7.45037">
        <ele>636.70268983915</ele>
        <time>2021-01-27T14:12:36Z</time>
      </trkpt>
      <trkpt lat="43.81201" lon="7.45038">
        <ele>637.70272816137</ele>
        <time>2021-01-27T14:12:37Z</time>
      </trkpt>
      <trkpt lat="43.81199" lon="7.45038">
        <ele>637.70280553394</ele>
        <time>2021-01-27T14:12:39Z</time>
      </trkpt>
      <trkpt lat="43.81198" lon="7.45038">
        <ele>637.70286672163</ele>
        <time>2021-01-27T14:12:40Z</time>
      </trkpt>
      <trkpt lat="43.81197" lon="7.45038">
        <ele>636.70293955518</ele>
        <time>2021-01-27T14:12:41Z</time>
      </trkpt>
      <trkpt lat="43.81194" lon="7.45038">
        <ele>636.70307010844</ele>
        <time>2021-01-27T14:12:43Z</time>
      </trkpt>
      <trkpt lat="43.81191" lon="7.45037">
        <ele>635.70319086833</ele>
        <time>2021-01-27T14:12:45Z</time>
      </trkpt>
      <trkpt lat="43.8119" lon="7.45037">
        <ele>634.70326930352</ele>
        <time>2021-01-27T14:12:46Z</time>
      </trkpt>
      <trkpt lat="43.81188" lon="7.45037">
        <ele>634.70333065264</ele>
        <time>2021-01-27T14:12:47Z</time>
      </trkpt>
      <trkpt lat="43.81187" lon="7.45036">
        <ele>634.70337881271</ele>
        <time>2021-01-27T14:12:48Z</time>
      </trkpt>
      <trkpt lat="43.81186" lon="7.45036">
        <ele>633.70343172656</ele>
        <time>2021-01-27T14:12:49Z</time>
      </trkpt>
      <trkpt lat="43.81185" lon="7.45036">
        <ele>633.70348537563</ele>
        <time>2021-01-27T14:12:50Z</time>
      </trkpt>
      <trkpt lat="43.81184" lon="7.45035">
        <ele>632.7035344366</ele>
        <time>2021-01-27T14:12:51Z</time>
      </trkpt>
      <trkpt lat="43.81183" lon="7.45035">
        <ele>632.70358005155</ele>
        <time>2021-01-27T14:12:52Z</time>
      </trkpt>
      <trkpt lat="43.81182" lon="7.45035">
        <ele>632.70361443365</ele>
        <time>2021-01-27T14:12:53Z</time>
      </trkpt>
      <trkpt lat="43.81181" lon="7.45035">
        <ele>632.70366363257</ele>
        <time>2021-01-27T14:12:54Z</time>
      </trkpt>
      <trkpt lat="43.8118" lon="7.45035">
        <ele>632.70372627256</ele>
        <time>2021-01-27T14:12:55Z</time>
      </trkpt>
      <trkpt lat="43.81179" lon="7.45036">
        <ele>632.7037680701</ele>
        <time>2021-01-27T14:12:56Z</time>
      </trkpt>
      <trkpt lat="43.81178" lon="7.45036">
        <ele>632.70381529593</ele>
        <time>2021-01-27T14:12:57Z</time>
      </trkpt>
      <trkpt lat="43.81177" lon="7.45037">
        <ele>632.70386975882</ele>
        <time>2021-01-27T14:12:58Z</time>
      </trkpt>
      <trkpt lat="43.81176" lon="7.4504">
        <ele>631.7039584231</ele>
        <time>2021-01-27T14:13:00Z</time>
      </trkpt>
      <trkpt lat="43.81176" lon="7.4504">
        <ele>630.70396962925</ele>
        <time>2021-01-27T14:13:01Z</time>
      </trkpt>
      <trkpt lat="43.81175" lon="7.45041">
        <ele>631.70398911697</ele>
        <time>2021-01-27T14:13:02Z</time>
      </trkpt>
      <trkpt lat="43.81175" lon="7.45042">
        <ele>631.70399573513</ele>
        <time>2021-01-27T14:13:03Z</time>
      </trkpt>
      <trkpt lat="43.81176" lon="7.45043">
        <ele>631.70399799059</ele>
        <time>2021-01-27T14:13:04Z</time>
      </trkpt>
      <trkpt lat="43.81175" lon="7.45044">
        <ele>632.70403709936</ele>
        <time>2021-01-27T14:13:05Z</time>
      </trkpt>
      <trkpt lat="43.81175" lon="7.45046">
        <ele>632.70406807269</ele>
        <time>2021-01-27T14:13:06Z</time>
      </trkpt>
      <trkpt lat="43.81175" lon="7.45047">
        <ele>632.70408706041</ele>
        <time>2021-01-27T14:13:07Z</time>
      </trkpt>
      <trkpt lat="43.81175" lon="7.45049">
        <ele>632.70409088122</ele>
        <time>2021-01-27T14:13:09Z</time>
      </trkpt>
      <trkpt lat="43.81175" lon="7.4505">
        <ele>631.7040883464</ele>
        <time>2021-01-27T14:13:10Z</time>
      </trkpt>
      <trkpt lat="43.81176" lon="7.45052">
        <ele>632.70406762546</ele>
        <time>2021-01-27T14:13:11Z</time>
      </trkpt>
      <trkpt lat="43.81177" lon="7.45053">
        <ele>632.70404983992</ele>
        <time>2021-01-27T14:13:12Z</time>
      </trkpt>
      <trkpt lat="43.81178" lon="7.45057">
        <ele>631.70404066862</ele>
        <time>2021-01-27T14:13:14Z</time>
      </trkpt>
      <trkpt lat="43.81178" lon="7.45058">
        <ele>631.70402666952</ele>
        <time>2021-01-27T14:13:15Z</time>
      </trkpt>
      <trkpt lat="43.81179" lon="7.4506">
        <ele>631.70401194702</ele>
        <time>2021-01-27T14:13:16Z</time>
      </trkpt>
      <trkpt lat="43.81179" lon="7.45062">
        <ele>631.70400136477</ele>
        <time>2021-01-27T14:13:17Z</time>
      </trkpt>
      <trkpt lat="43.8118" lon="7.45065">
        <ele>631.70397689397</ele>
        <time>2021-01-27T14:13:19Z</time>
      </trkpt>
      <trkpt lat="43.81181" lon="7.45067">
        <ele>631.70398140521</ele>
        <time>2021-01-27T14:13:20Z</time>
      </trkpt>
      <trkpt lat="43.81181" lon="7.45068">
        <ele>631.70399358967</ele>
        <time>2021-01-27T14:13:21Z</time>
      </trkpt>
      <trkpt lat="43.81181" lon="7.4507">
        <ele>631.70398729299</ele>
        <time>2021-01-27T14:13:22Z</time>
      </trkpt>
      <trkpt lat="43.81182" lon="7.45073">
        <ele>632.70397177536</ele>
        <time>2021-01-27T14:13:24Z</time>
      </trkpt>
      <trkpt lat="43.81183" lon="7.45075">
        <ele>632.70394847191</ele>
        <time>2021-01-27T14:13:25Z</time>
      </trkpt>
      <trkpt lat="43.81184" lon="7.45076">
        <ele>631.70393298104</ele>
        <time>2021-01-27T14:13:26Z</time>
      </trkpt>
      <trkpt lat="43.81184" lon="7.45077">
        <ele>632.7039427426</ele>
        <time>2021-01-27T14:13:27Z</time>
      </trkpt>
      <trkpt lat="43.81185" lon="7.4508">
        <ele>633.70392786462</ele>
        <time>2021-01-27T14:13:29Z</time>
      </trkpt>
      <trkpt lat="43.81185" lon="7.45081">
        <ele>633.70393788846</ele>
        <time>2021-01-27T14:13:30Z</time>
      </trkpt>
      <trkpt lat="43.81185" lon="7.45083">
        <ele>632.70393531102</ele>
        <time>2021-01-27T14:13:31Z</time>
      </trkpt>
      <trkpt lat="43.81185" lon="7.45085">
        <ele>632.70393481322</ele>
        <time>2021-01-27T14:13:32Z</time>
      </trkpt>
      <trkpt lat="43.81186" lon="7.45086">
        <ele>631.70392883524</ele>
        <time>2021-01-27T14:13:33Z</time>
      </trkpt>
      <trkpt lat="43.81186" lon="7.45088">
        <ele>631.7039350716</ele>
        <time>2021-01-27T14:13:34Z</time>
      </trkpt>
      <trkpt lat="43.81187" lon="7.4509">
        <ele>631.70392830793</ele>
        <time>2021-01-27T14:13:35Z</time>
      </trkpt>
      <trkpt lat="43.81187" lon="7.45092">
        <ele>631.70391927962</ele>
        <time>2021-01-27T14:13:36Z</time>
      </trkpt>
      <trkpt lat="43.81188" lon="7.45095">
        <ele>631.70393907707</ele>
        <time>2021-01-27T14:13:38Z</time>
      </trkpt>
      <trkpt lat="43.81188" lon="7.45099">
        <ele>630.70397362527</ele>
        <time>2021-01-27T14:13:40Z</time>
      </trkpt>
      <trkpt lat="43.81188" lon="7.45101">
        <ele>630.70398388289</ele>
        <time>2021-01-27T14:13:41Z</time>
      </trkpt>
      <trkpt lat="43.81187" lon="7.45103">
        <ele>630.70403568165</ele>
        <time>2021-01-27T14:13:42Z</time>
      </trkpt>
      <trkpt lat="43.81187" lon="7.45104">
        <ele>630.7040513574</ele>
        <time>2021-01-27T14:13:43Z</time>
      </trkpt>
      <trkpt lat="43.81187" lon="7.45106">
        <ele>630.70407242419</ele>
        <time>2021-01-27T14:13:44Z</time>
      </trkpt>
      <trkpt lat="43.81187" lon="7.45108">
        <ele>630.70409120337</ele>
        <time>2021-01-27T14:13:45Z</time>
      </trkpt>
      <trkpt lat="43.81186" lon="7.4511">
        <ele>630.70415725863</ele>
        <time>2021-01-27T14:13:46Z</time>
      </trkpt>
      <trkpt lat="43.81185" lon="7.45112">
        <ele>630.70422005875</ele>
        <time>2021-01-27T14:13:47Z</time>
      </trkpt>
      <trkpt lat="43.81185" lon="7.45116">
        <ele>630.70427312013</ele>
        <time>2021-01-27T14:13:49Z</time>
      </trkpt>
      <trkpt lat="43.81185" lon="7.45118">
        <ele>631.70430598825</ele>
        <time>2021-01-27T14:13:50Z</time>
      </trkpt>
      <trkpt lat="43.81185" lon="7.45119">
        <ele>631.70431974343</ele>
        <time>2021-01-27T14:13:51Z</time>
      </trkpt>
      <trkpt lat="43.81185" lon="7.45121">
        <ele>631.70433179257</ele>
        <time>2021-01-27T14:13:52Z</time>
      </trkpt>
      <trkpt lat="43.81185" lon="7.45123">
        <ele>631.70435640251</ele>
        <time>2021-01-27T14:13:53Z</time>
      </trkpt>
      <trkpt lat="43.81185" lon="7.45126">
        <ele>631.70436713854</ele>
        <time>2021-01-27T14:13:55Z</time>
      </trkpt>
      <trkpt lat="43.81185" lon="7.45128">
        <ele>630.70437511084</ele>
        <time>2021-01-27T14:13:56Z</time>
      </trkpt>
      <trkpt lat="43.81185" lon="7.4513">
        <ele>630.70439187523</ele>
        <time>2021-01-27T14:13:57Z</time>
      </trkpt>
      <trkpt lat="43.81184" lon="7.45133">
        <ele>630.7044678774</ele>
        <time>2021-01-27T14:13:59Z</time>
      </trkpt>
      <trkpt lat="43.81184" lon="7.45135">
        <ele>629.70448155429</ele>
        <time>2021-01-27T14:14:00Z</time>
      </trkpt>
      <trkpt lat="43.81184" lon="7.45137">
        <ele>629.70450135433</ele>
        <time>2021-01-27T14:14:01Z</time>
      </trkpt>
      <trkpt lat="43.81184" lon="7.45141">
        <ele>629.70456191942</ele>
        <time>2021-01-27T14:14:03Z</time>
      </trkpt>
      <trkpt lat="43.81184" lon="7.45144">
        <ele>627.70460203936</ele>
        <time>2021-01-27T14:14:05Z</time>
      </trkpt>
      <trkpt lat="43.81183" lon="7.45146">
        <ele>627.70464600289</ele>
        <time>2021-01-27T14:14:06Z</time>
      </trkpt>
      <trkpt lat="43.81182" lon="7.45147">
        <ele>627.70470621807</ele>
        <time>2021-01-27T14:14:07Z</time>
      </trkpt>
      <trkpt lat="43.81182" lon="7.45149">
        <ele>628.70475097917</ele>
        <time>2021-01-27T14:14:08Z</time>
      </trkpt>
      <trkpt lat="43.81181" lon="7.4515">
        <ele>627.70481189587</ele>
        <time>2021-01-27T14:14:09Z</time>
      </trkpt>
      <trkpt lat="43.8118" lon="7.45152">
        <ele>627.70485995173</ele>
        <time>2021-01-27T14:14:10Z</time>
      </trkpt>
      <trkpt lat="43.81179" lon="7.45153">
        <ele>627.70491240093</ele>
        <time>2021-01-27T14:14:11Z</time>
      </trkpt>
      <trkpt lat="43.81178" lon="7.45155">
        <ele>627.7049792004</ele>
        <time>2021-01-27T14:14:12Z</time>
      </trkpt>
      <trkpt lat="43.81176" lon="7.45158">
        <ele>628.70511320171</ele>
        <time>2021-01-27T14:14:14Z</time>
      </trkpt>
      <trkpt lat="43.81175" lon="7.4516">
        <ele>627.70516659716</ele>
        <time>2021-01-27T14:14:15Z</time>
      </trkpt>
      <trkpt lat="43.81174" lon="7.45161">
        <ele>627.70523469264</ele>
        <time>2021-01-27T14:14:16Z</time>
      </trkpt>
      <trkpt lat="43.81173" lon="7.45163">
        <ele>627.70530501762</ele>
        <time>2021-01-27T14:14:17Z</time>
      </trkpt>
      <trkpt lat="43.81172" lon="7.45164">
        <ele>627.70536472038</ele>
        <time>2021-01-27T14:14:18Z</time>
      </trkpt>
      <trkpt lat="43.81171" lon="7.45165">
        <ele>626.70542773827</ele>
        <time>2021-01-27T14:14:19Z</time>
      </trkpt>
      <trkpt lat="43.8117" lon="7.45166">
        <ele>626.7055003627</ele>
        <time>2021-01-27T14:14:20Z</time>
      </trkpt>
      <trkpt lat="43.81168" lon="7.45166">
        <ele>627.70558455344</ele>
        <time>2021-01-27T14:14:21Z</time>
      </trkpt>
      <trkpt lat="43.81167" lon="7.45167">
        <ele>627.70563284976</ele>
        <time>2021-01-27T14:14:22Z</time>
      </trkpt>
      <trkpt lat="43.81165" lon="7.45168">
        <ele>628.70571304705</ele>
        <time>2021-01-27T14:14:23Z</time>
      </trkpt>
      <trkpt lat="43.81164" lon="7.45168">
        <ele>628.70580243445</ele>
        <time>2021-01-27T14:14:24Z</time>
      </trkpt>
      <trkpt lat="43.81162" lon="7.45169">
        <ele>627.70588336831</ele>
        <time>2021-01-27T14:14:25Z</time>
      </trkpt>
      <trkpt lat="43.81161" lon="7.4517">
        <ele>627.70595302761</ele>
        <time>2021-01-27T14:14:26Z</time>
      </trkpt>
      <trkpt lat="43.8116" lon="7.4517">
        <ele>628.70602251848</ele>
        <time>2021-01-27T14:14:27Z</time>
      </trkpt>
      <trkpt lat="43.81158" lon="7.45171">
        <ele>627.70609064256</ele>
        <time>2021-01-27T14:14:28Z</time>
      </trkpt>
      <trkpt lat="43.81157" lon="7.45171">
        <ele>627.70614838407</ele>
        <time>2021-01-27T14:14:29Z</time>
      </trkpt>
      <trkpt lat="43.81156" lon="7.45172">
        <ele>627.70620639896</ele>
        <time>2021-01-27T14:14:30Z</time>
      </trkpt>
      <trkpt lat="43.81155" lon="7.45173">
        <ele>626.70628443528</ele>
        <time>2021-01-27T14:14:31Z</time>
      </trkpt>
      <trkpt lat="43.81153" lon="7.45173">
        <ele>626.70635153158</ele>
        <time>2021-01-27T14:14:32Z</time>
      </trkpt>
      <trkpt lat="43.81152" lon="7.45174">
        <ele>626.70641821298</ele>
        <time>2021-01-27T14:14:33Z</time>
      </trkpt>
      <trkpt lat="43.81149" lon="7.45175">
        <ele>626.70657957671</ele>
        <time>2021-01-27T14:14:35Z</time>
      </trkpt>
      <trkpt lat="43.81147" lon="7.45174">
        <ele>625.70664752448</ele>
        <time>2021-01-27T14:14:36Z</time>
      </trkpt>
      <trkpt lat="43.81145" lon="7.45174">
        <ele>625.70672984947</ele>
        <time>2021-01-27T14:14:37Z</time>
      </trkpt>
      <trkpt lat="43.81143" lon="7.45173">
        <ele>624.70681402084</ele>
        <time>2021-01-27T14:14:38Z</time>
      </trkpt>
      <trkpt lat="43.81142" lon="7.45172">
        <ele>623.70688236243</ele>
        <time>2021-01-27T14:14:39Z</time>
      </trkpt>
      <trkpt lat="43.8114" lon="7.45171">
        <ele>623.70695915875</ele>
        <time>2021-01-27T14:14:40Z</time>
      </trkpt>
      <trkpt lat="43.81138" lon="7.45169">
        <ele>622.70702319768</ele>
        <time>2021-01-27T14:14:41Z</time>
      </trkpt>
      <trkpt lat="43.81137" lon="7.45168">
        <ele>623.70706818645</ele>
        <time>2021-01-27T14:14:42Z</time>
      </trkpt>
      <trkpt lat="43.81136" lon="7.45167">
        <ele>623.7071216161</ele>
        <time>2021-01-27T14:14:43Z</time>
      </trkpt>
      <trkpt lat="43.81135" lon="7.45166">
        <ele>623.70716527435</ele>
        <time>2021-01-27T14:14:44Z</time>
      </trkpt>
      <trkpt lat="43.81134" lon="7.45165">
        <ele>623.70720821889</ele>
        <time>2021-01-27T14:14:45Z</time>
      </trkpt>
      <trkpt lat="43.81132" lon="7.45165">
        <ele>623.70726892596</ele>
        <time>2021-01-27T14:14:46Z</time>
      </trkpt>
      <trkpt lat="43.81131" lon="7.45164">
        <ele>623.70729679892</ele>
        <time>2021-01-27T14:14:47Z</time>
      </trkpt>
      <trkpt lat="43.8113" lon="7.45161">
        <ele>624.70735210374</ele>
        <time>2021-01-27T14:14:49Z</time>
      </trkpt>
      <trkpt lat="43.81129" lon="7.45162">
        <ele>623.70738441796</ele>
        <time>2021-01-27T14:14:50Z</time>
      </trkpt>
      <trkpt lat="43.81128" lon="7.45162">
        <ele>623.70744661178</ele>
        <time>2021-01-27T14:14:51Z</time>
      </trkpt>
      <trkpt lat="43.81127" lon="7.45162">
        <ele>623.70750695395</ele>
        <time>2021-01-27T14:14:52Z</time>
      </trkpt>
      <trkpt lat="43.81125" lon="7.45164">
        <ele>623.70762645845</ele>
        <time>2021-01-27T14:14:54Z</time>
      </trkpt>
      <trkpt lat="43.81124" lon="7.45165">
        <ele>622.70767072951</ele>
        <time>2021-01-27T14:14:55Z</time>
      </trkpt>
      <trkpt lat="43.81124" lon="7.45167">
        <ele>622.70770287041</ele>
        <time>2021-01-27T14:14:56Z</time>
      </trkpt>
      <trkpt lat="43.81123" lon="7.45169">
        <ele>622.70777487029</ele>
        <time>2021-01-27T14:14:58Z</time>
      </trkpt>
      <trkpt lat="43.81122" lon="7.45172">
        <ele>622.707810203</ele>
        <time>2021-01-27T14:15:00Z</time>
      </trkpt>
      <trkpt lat="43.81122" lon="7.45174">
        <ele>622.70784307093</ele>
        <time>2021-01-27T14:15:01Z</time>
      </trkpt>
      <trkpt lat="43.81122" lon="7.45176">
        <ele>622.70785245045</ele>
        <time>2021-01-27T14:15:02Z</time>
      </trkpt>
      <trkpt lat="43.81122" lon="7.4518">
        <ele>621.70788839221</ele>
        <time>2021-01-27T14:15:04Z</time>
      </trkpt>
      <trkpt lat="43.81122" lon="7.45182">
        <ele>621.70791700664</ele>
        <time>2021-01-27T14:15:05Z</time>
      </trkpt>
      <trkpt lat="43.81122" lon="7.45183">
        <ele>621.70796432494</ele>
        <time>2021-01-27T14:15:06Z</time>
      </trkpt>
      <trkpt lat="43.81122" lon="7.45185">
        <ele>621.70797071196</ele>
        <time>2021-01-27T14:15:07Z</time>
      </trkpt>
      <trkpt lat="43.81121" lon="7.45187">
        <ele>621.70801607573</ele>
        <time>2021-01-27T14:15:08Z</time>
      </trkpt>
      <trkpt lat="43.8112" lon="7.45188">
        <ele>621.70806003239</ele>
        <time>2021-01-27T14:15:09Z</time>
      </trkpt>
      <trkpt lat="43.8112" lon="7.4519">
        <ele>621.70810193051</ele>
        <time>2021-01-27T14:15:10Z</time>
      </trkpt>
      <trkpt lat="43.8112" lon="7.45193">
        <ele>620.70814819915</ele>
        <time>2021-01-27T14:15:11Z</time>
      </trkpt>
      <trkpt lat="43.81118" lon="7.45195">
        <ele>620.70823474807</ele>
        <time>2021-01-27T14:15:12Z</time>
      </trkpt>
      <trkpt lat="43.81117" lon="7.45197">
        <ele>620.70832083956</ele>
        <time>2021-01-27T14:15:13Z</time>
      </trkpt>
      <trkpt lat="43.81116" lon="7.45198">
        <ele>621.70838262076</ele>
        <time>2021-01-27T14:15:14Z</time>
      </trkpt>
      <trkpt lat="43.81115" lon="7.45199">
        <ele>621.70844776004</ele>
        <time>2021-01-27T14:15:15Z</time>
      </trkpt>
      <trkpt lat="43.81114" lon="7.45199">
        <ele>620.70849184648</ele>
        <time>2021-01-27T14:15:16Z</time>
      </trkpt>
      <trkpt lat="43.81113" lon="7.452">
        <ele>620.70852356372</ele>
        <time>2021-01-27T14:15:17Z</time>
      </trkpt>
      <trkpt lat="43.81113" lon="7.45202">
        <ele>620.708575891</ele>
        <time>2021-01-27T14:15:18Z</time>
      </trkpt>
      <trkpt lat="43.81112" lon="7.45204">
        <ele>620.70860515513</ele>
        <time>2021-01-27T14:15:19Z</time>
      </trkpt>
      <trkpt lat="43.81112" lon="7.45205">
        <ele>620.70863508374</ele>
        <time>2021-01-27T14:15:20Z</time>
      </trkpt>
      <trkpt lat="43.81112" lon="7.45205">
        <ele>620.70863256842</ele>
        <time>2021-01-27T14:15:21Z</time>
      </trkpt>
      <trkpt lat="43.81111" lon="7.45206">
        <ele>619.70867037936</ele>
        <time>2021-01-27T14:15:22Z</time>
      </trkpt>
      <trkpt lat="43.81111" lon="7.45208">
        <ele>619.7087211986</ele>
        <time>2021-01-27T14:15:23Z</time>
      </trkpt>
      <trkpt lat="43.8111" lon="7.4521">
        <ele>619.70879603099</ele>
        <time>2021-01-27T14:15:24Z</time>
      </trkpt>
      <trkpt lat="43.81108" lon="7.45211">
        <ele>619.70886320778</ele>
        <time>2021-01-27T14:15:25Z</time>
      </trkpt>
      <trkpt lat="43.81107" lon="7.45212">
        <ele>620.70892653069</ele>
        <time>2021-01-27T14:15:26Z</time>
      </trkpt>
      <trkpt lat="43.81105" lon="7.45214">
        <ele>621.70903475928</ele>
        <time>2021-01-27T14:15:28Z</time>
      </trkpt>
      <trkpt lat="43.81104" lon="7.45216">
        <ele>621.70911418364</ele>
        <time>2021-01-27T14:15:29Z</time>
      </trkpt>
      <trkpt lat="43.81103" lon="7.45218">
        <ele>621.70918204724</ele>
        <time>2021-01-27T14:15:30Z</time>
      </trkpt>
      <trkpt lat="43.81102" lon="7.45219">
        <ele>621.70923512819</ele>
        <time>2021-01-27T14:15:31Z</time>
      </trkpt>
      <trkpt lat="43.81101" lon="7.45221">
        <ele>621.7093009261</ele>
        <time>2021-01-27T14:15:32Z</time>
      </trkpt>
      <trkpt lat="43.81099" lon="7.45222">
        <ele>621.70943638126</ele>
        <time>2021-01-27T14:15:34Z</time>
      </trkpt>
      <trkpt lat="43.81097" lon="7.45223">
        <ele>621.70949683132</ele>
        <time>2021-01-27T14:15:35Z</time>
      </trkpt>
      <trkpt lat="43.81096" lon="7.45223">
        <ele>621.70956746977</ele>
        <time>2021-01-27T14:15:36Z</time>
      </trkpt>
      <trkpt lat="43.81094" lon="7.45223">
        <ele>621.70964032445</ele>
        <time>2021-01-27T14:15:37Z</time>
      </trkpt>
      <trkpt lat="43.81093" lon="7.45223">
        <ele>621.70972288928</ele>
        <time>2021-01-27T14:15:38Z</time>
      </trkpt>
      <trkpt lat="43.8109" lon="7.45226">
        <ele>620.70986404469</ele>
        <time>2021-01-27T14:15:40Z</time>
      </trkpt>
      <trkpt lat="43.81089" lon="7.45227">
        <ele>620.7099243019</ele>
        <time>2021-01-27T14:15:41Z</time>
      </trkpt>
      <trkpt lat="43.81088" lon="7.45228">
        <ele>619.7099863701</ele>
        <time>2021-01-27T14:15:42Z</time>
      </trkpt>
      <trkpt lat="43.81088" lon="7.45231">
        <ele>619.710026915</ele>
        <time>2021-01-27T14:15:44Z</time>
      </trkpt>
      <trkpt lat="43.81088" lon="7.45234">
        <ele>619.71006183291</ele>
        <time>2021-01-27T14:15:45Z</time>
      </trkpt>
      <trkpt lat="43.81087" lon="7.45236">
        <ele>619.71009951727</ele>
        <time>2021-01-27T14:15:46Z</time>
      </trkpt>
      <trkpt lat="43.81087" lon="7.45238">
        <ele>618.71016083936</ele>
        <time>2021-01-27T14:15:47Z</time>
      </trkpt>
      <trkpt lat="43.81086" lon="7.4524">
        <ele>618.7102266005</ele>
        <time>2021-01-27T14:15:48Z</time>
      </trkpt>
      <trkpt lat="43.81084" lon="7.45241">
        <ele>618.71030745071</ele>
        <time>2021-01-27T14:15:49Z</time>
      </trkpt>
      <trkpt lat="43.81083" lon="7.45243">
        <ele>617.71037691181</ele>
        <time>2021-01-27T14:15:50Z</time>
      </trkpt>
      <trkpt lat="43.81081" lon="7.45244">
        <ele>617.71046439094</ele>
        <time>2021-01-27T14:15:51Z</time>
      </trkpt>
      <trkpt lat="43.8108" lon="7.45244">
        <ele>617.71054921384</ele>
        <time>2021-01-27T14:15:52Z</time>
      </trkpt>
      <trkpt lat="43.81078" lon="7.45245">
        <ele>617.71063620937</ele>
        <time>2021-01-27T14:15:53Z</time>
      </trkpt>
      <trkpt lat="43.81077" lon="7.45245">
        <ele>617.71068990116</ele>
        <time>2021-01-27T14:15:54Z</time>
      </trkpt>
      <trkpt lat="43.81076" lon="7.45244">
        <ele>617.71074220936</ele>
        <time>2021-01-27T14:15:55Z</time>
      </trkpt>
      <trkpt lat="43.81074" lon="7.45242">
        <ele>617.71079685699</ele>
        <time>2021-01-27T14:15:56Z</time>
      </trkpt>
      <trkpt lat="43.81071" lon="7.4524">
        <ele>618.71092098124</ele>
        <time>2021-01-27T14:15:58Z</time>
      </trkpt>
      <trkpt lat="43.8107" lon="7.45241">
        <ele>618.71099300185</ele>
        <time>2021-01-27T14:15:59Z</time>
      </trkpt>
      <trkpt lat="43.81068" lon="7.45241">
        <ele>617.71106246588</ele>
        <time>2021-01-27T14:16:00Z</time>
      </trkpt>
      <trkpt lat="43.81067" lon="7.45242">
        <ele>617.71111555347</ele>
        <time>2021-01-27T14:16:01Z</time>
      </trkpt>
      <trkpt lat="43.81067" lon="7.45243">
        <ele>617.71116970374</ele>
        <time>2021-01-27T14:16:02Z</time>
      </trkpt>
      <trkpt lat="43.81066" lon="7.45246">
        <ele>616.71122108053</ele>
        <time>2021-01-27T14:16:04Z</time>
      </trkpt>
      <trkpt lat="43.81066" lon="7.45248">
        <ele>616.71123831743</ele>
        <time>2021-01-27T14:16:05Z</time>
      </trkpt>
      <trkpt lat="43.81066" lon="7.4525">
        <ele>616.71126471148</ele>
        <time>2021-01-27T14:16:06Z</time>
      </trkpt>
      <trkpt lat="43.81065" lon="7.45252">
        <ele>616.71130829469</ele>
        <time>2021-01-27T14:16:07Z</time>
      </trkpt>
      <trkpt lat="43.81065" lon="7.45254">
        <ele>616.71132928686</ele>
        <time>2021-01-27T14:16:08Z</time>
      </trkpt>
      <trkpt lat="43.81066" lon="7.45256">
        <ele>616.71133980266</ele>
        <time>2021-01-27T14:16:09Z</time>
      </trkpt>
      <trkpt lat="43.81066" lon="7.45258">
        <ele>616.7113424155</ele>
        <time>2021-01-27T14:16:10Z</time>
      </trkpt>
      <trkpt lat="43.81066" lon="7.45261">
        <ele>615.71134417852</ele>
        <time>2021-01-27T14:16:11Z</time>
      </trkpt>
      <trkpt lat="43.81068" lon="7.45264">
        <ele>615.71131457105</ele>
        <time>2021-01-27T14:16:13Z</time>
      </trkpt>
      <trkpt lat="43.81069" lon="7.45267">
        <ele>615.71126756217</ele>
        <time>2021-01-27T14:16:15Z</time>
      </trkpt>
      <trkpt lat="43.8107" lon="7.45269">
        <ele>615.71123714419</ele>
        <time>2021-01-27T14:16:16Z</time>
      </trkpt>
      <trkpt lat="43.81071" lon="7.45271">
        <ele>616.71121391155</ele>
        <time>2021-01-27T14:16:17Z</time>
      </trkpt>
      <trkpt lat="43.81072" lon="7.45274">
        <ele>616.71121868919</ele>
        <time>2021-01-27T14:16:19Z</time>
      </trkpt>
      <trkpt lat="43.81072" lon="7.45276">
        <ele>615.71123261488</ele>
        <time>2021-01-27T14:16:20Z</time>
      </trkpt>
      <trkpt lat="43.81072" lon="7.45279">
        <ele>615.71124143673</ele>
        <time>2021-01-27T14:16:21Z</time>
      </trkpt>
      <trkpt lat="43.81072" lon="7.45282">
        <ele>615.7112785383</ele>
        <time>2021-01-27T14:16:23Z</time>
      </trkpt>
      <trkpt lat="43.81072" lon="7.45283">
        <ele>614.71128869653</ele>
        <time>2021-01-27T14:16:24Z</time>
      </trkpt>
      <trkpt lat="43.81072" lon="7.45285">
        <ele>614.71131068391</ele>
        <time>2021-01-27T14:16:25Z</time>
      </trkpt>
      <trkpt lat="43.81072" lon="7.45286">
        <ele>614.71132469884</ele>
        <time>2021-01-27T14:16:26Z</time>
      </trkpt>
      <trkpt lat="43.81072" lon="7.45288">
        <ele>613.71136863209</ele>
        <time>2021-01-27T14:16:27Z</time>
      </trkpt>
      <trkpt lat="43.81071" lon="7.45289">
        <ele>612.71141455515</ele>
        <time>2021-01-27T14:16:28Z</time>
      </trkpt>
      <trkpt lat="43.8107" lon="7.45291">
        <ele>611.71147084</ele>
        <time>2021-01-27T14:16:29Z</time>
      </trkpt>
      <trkpt lat="43.8107" lon="7.45293">
        <ele>611.71150348118</ele>
        <time>2021-01-27T14:16:30Z</time>
      </trkpt>
      <trkpt lat="43.81069" lon="7.45294">
        <ele>611.71154552953</ele>
        <time>2021-01-27T14:16:31Z</time>
      </trkpt>
      <trkpt lat="43.81069" lon="7.45298">
        <ele>610.71160214286</ele>
        <time>2021-01-27T14:16:33Z</time>
      </trkpt>
      <trkpt lat="43.81067" lon="7.45301">
        <ele>609.71171232561</ele>
        <time>2021-01-27T14:16:35Z</time>
      </trkpt>
      <trkpt lat="43.81066" lon="7.45303">
        <ele>609.71176674239</ele>
        <time>2021-01-27T14:16:36Z</time>
      </trkpt>
      <trkpt lat="43.81066" lon="7.45305">
        <ele>609.7118035821</ele>
        <time>2021-01-27T14:16:37Z</time>
      </trkpt>
      <trkpt lat="43.81065" lon="7.45307">
        <ele>610.71184749757</ele>
        <time>2021-01-27T14:16:38Z</time>
      </trkpt>
      <trkpt lat="43.81065" lon="7.45308">
        <ele>609.71187638667</ele>
        <time>2021-01-27T14:16:39Z</time>
      </trkpt>
      <trkpt lat="43.81065" lon="7.4531">
        <ele>609.71189723892</ele>
        <time>2021-01-27T14:16:40Z</time>
      </trkpt>
      <trkpt lat="43.81065" lon="7.45312">
        <ele>609.71192759067</ele>
        <time>2021-01-27T14:16:41Z</time>
      </trkpt>
      <trkpt lat="43.81064" lon="7.45314">
        <ele>610.71196132735</ele>
        <time>2021-01-27T14:16:42Z</time>
      </trkpt>
      <trkpt lat="43.81064" lon="7.45318">
        <ele>608.71203914386</ele>
        <time>2021-01-27T14:16:44Z</time>
      </trkpt>
      <trkpt lat="43.81063" lon="7.4532">
        <ele>608.71209070454</ele>
        <time>2021-01-27T14:16:45Z</time>
      </trkpt>
      <trkpt lat="43.81062" lon="7.45322">
        <ele>608.71214476939</ele>
        <time>2021-01-27T14:16:46Z</time>
      </trkpt>
      <trkpt lat="43.81061" lon="7.45323">
        <ele>607.71221203956</ele>
        <time>2021-01-27T14:16:47Z</time>
      </trkpt>
      <trkpt lat="43.8106" lon="7.45324">
        <ele>607.71225917308</ele>
        <time>2021-01-27T14:16:48Z</time>
      </trkpt>
      <trkpt lat="43.81059" lon="7.45326">
        <ele>607.71231231405</ele>
        <time>2021-01-27T14:16:49Z</time>
      </trkpt>
      <trkpt lat="43.81059" lon="7.45328">
        <ele>606.71236791924</ele>
        <time>2021-01-27T14:16:50Z</time>
      </trkpt>
      <trkpt lat="43.81058" lon="7.4533">
        <ele>606.71241005546</ele>
        <time>2021-01-27T14:16:51Z</time>
      </trkpt>
      <trkpt lat="43.81058" lon="7.45333">
        <ele>605.71246026893</ele>
        <time>2021-01-27T14:16:52Z</time>
      </trkpt>
      <trkpt lat="43.81057" lon="7.45334">
        <ele>605.71252089174</ele>
        <time>2021-01-27T14:16:53Z</time>
      </trkpt>
      <trkpt lat="43.81056" lon="7.45336">
        <ele>605.71258485172</ele>
        <time>2021-01-27T14:16:54Z</time>
      </trkpt>
      <trkpt lat="43.81055" lon="7.45337">
        <ele>604.71264361866</ele>
        <time>2021-01-27T14:16:55Z</time>
      </trkpt>
      <trkpt lat="43.81054" lon="7.45339">
        <ele>604.71268769164</ele>
        <time>2021-01-27T14:16:56Z</time>
      </trkpt>
      <trkpt lat="43.81053" lon="7.4534">
        <ele>604.71275290781</ele>
        <time>2021-01-27T14:16:57Z</time>
      </trkpt>
      <trkpt lat="43.81051" lon="7.45341">
        <ele>604.71283742725</ele>
        <time>2021-01-27T14:16:58Z</time>
      </trkpt>
      <trkpt lat="43.8105" lon="7.45341">
        <ele>604.71290750869</ele>
        <time>2021-01-27T14:16:59Z</time>
      </trkpt>
      <trkpt lat="43.81048" lon="7.45341">
        <ele>603.71299502011</ele>
        <time>2021-01-27T14:17:00Z</time>
      </trkpt>
      <trkpt lat="43.81047" lon="7.45341">
        <ele>603.71305206371</ele>
        <time>2021-01-27T14:17:01Z</time>
      </trkpt>
      <trkpt lat="43.81045" lon="7.4534">
        <ele>602.71312009946</ele>
        <time>2021-01-27T14:17:02Z</time>
      </trkpt>
      <trkpt lat="43.81044" lon="7.4534">
        <ele>602.71317936802</ele>
        <time>2021-01-27T14:17:03Z</time>
      </trkpt>
      <trkpt lat="43.81043" lon="7.45339">
        <ele>602.7132083969</ele>
        <time>2021-01-27T14:17:04Z</time>
      </trkpt>
      <trkpt lat="43.81043" lon="7.45338">
        <ele>601.71322246574</ele>
        <time>2021-01-27T14:17:05Z</time>
      </trkpt>
      <trkpt lat="43.81042" lon="7.45339">
        <ele>601.71324413121</ele>
        <time>2021-01-27T14:17:07Z</time>
      </trkpt>
      <trkpt lat="43.81043" lon="7.45339">
        <ele>600.71323730274</ele>
        <time>2021-01-27T14:17:08Z</time>
      </trkpt>
      <trkpt lat="43.81041" lon="7.45338">
        <ele>599.71331511542</ele>
        <time>2021-01-27T14:17:11Z</time>
      </trkpt>
      <trkpt lat="43.8104" lon="7.45339">
        <ele>599.71333699346</ele>
        <time>2021-01-27T14:17:12Z</time>
      </trkpt>
      <trkpt lat="43.81038" lon="7.45338">
        <ele>598.71344312599</ele>
        <time>2021-01-27T14:17:15Z</time>
      </trkpt>
      <trkpt lat="43.81037" lon="7.45338">
        <ele>599.71347864981</ele>
        <time>2021-01-27T14:17:29Z</time>
      </trkpt>
      <trkpt lat="43.81037" lon="7.45335">
        <ele>599.71345799185</ele>
        <time>2021-01-27T14:17:31Z</time>
      </trkpt>
      <trkpt lat="43.81037" lon="7.45334">
        <ele>600.71344698773</ele>
        <time>2021-01-27T14:17:32Z</time>
      </trkpt>
      <trkpt lat="43.81036" lon="7.45333">
        <ele>601.71346821992</ele>
        <time>2021-01-27T14:17:33Z</time>
      </trkpt>
      <trkpt lat="43.81036" lon="7.45332">
        <ele>601.71349056209</ele>
        <time>2021-01-27T14:18:46Z</time>
      </trkpt>
      <trkpt lat="43.81036" lon="7.45332">
        <ele>601.71349015736</ele>
        <time>2021-01-27T14:19:41Z</time>
      </trkpt>
      <trkpt lat="43.81035" lon="7.45332">
        <ele>601.71354433294</ele>
        <time>2021-01-27T14:19:42Z</time>
      </trkpt>
      <trkpt lat="43.81034" lon="7.45333">
        <ele>601.71357544478</ele>
        <time>2021-01-27T14:19:47Z</time>
      </trkpt>
      <trkpt lat="43.81034" lon="7.45332">
        <ele>601.71356792241</ele>
        <time>2021-01-27T14:19:50Z</time>
      </trkpt>
      <trkpt lat="43.81034" lon="7.45331">
        <ele>601.71356858671</ele>
        <time>2021-01-27T14:19:58Z</time>
      </trkpt>
      <trkpt lat="43.81035" lon="7.45333">
        <ele>600.71352104444</ele>
        <time>2021-01-27T14:19:59Z</time>
      </trkpt>
      <trkpt lat="43.81035" lon="7.45333">
        <ele>600.71353984567</ele>
        <time>2021-01-27T14:20:03Z</time>
      </trkpt>
      <trkpt lat="43.81034" lon="7.45332">
        <ele>602.71355594204</ele>
        <time>2021-01-27T14:20:05Z</time>
      </trkpt>
      <trkpt lat="43.81034" lon="7.45332">
        <ele>602.71356472242</ele>
        <time>2021-01-27T14:21:00Z</time>
      </trkpt>
      <trkpt lat="43.81035" lon="7.45333">
        <ele>603.71354100221</ele>
        <time>2021-01-27T14:21:01Z</time>
      </trkpt>
      <trkpt lat="43.81035" lon="7.45332">
        <ele>603.71351218206</ele>
        <time>2021-01-27T14:21:09Z</time>
      </trkpt>
      <trkpt lat="43.81036" lon="7.45332">
        <ele>602.71348462002</ele>
        <time>2021-01-27T14:21:13Z</time>
      </trkpt>
      <trkpt lat="43.81036" lon="7.45331">
        <ele>603.71348264197</ele>
        <time>2021-01-27T14:21:16Z</time>
      </trkpt>
      <trkpt lat="43.81036" lon="7.4533">
        <ele>602.71348045858</ele>
        <time>2021-01-27T14:21:18Z</time>
      </trkpt>
      <trkpt lat="43.81036" lon="7.4533">
        <ele>601.71346119324</ele>
        <time>2021-01-27T14:21:19Z</time>
      </trkpt>
      <trkpt lat="43.81037" lon="7.4533">
        <ele>601.71343997098</ele>
        <time>2021-01-27T14:21:31Z</time>
      </trkpt>
      <trkpt lat="43.81036" lon="7.45328">
        <ele>600.71346123126</ele>
        <time>2021-01-27T14:21:33Z</time>
      </trkpt>
      <trkpt lat="43.81036" lon="7.45329">
        <ele>600.71346564662</ele>
        <time>2021-01-27T14:21:52Z</time>
      </trkpt>
      <trkpt lat="43.81038" lon="7.45329">
        <ele>597.71337610307</ele>
        <time>2021-01-27T14:21:55Z</time>
      </trkpt>
      <trkpt lat="43.81038" lon="7.45329">
        <ele>596.7133572019</ele>
        <time>2021-01-27T14:21:57Z</time>
      </trkpt>
      <trkpt lat="43.81038" lon="7.4533">
        <ele>595.71338458862</ele>
        <time>2021-01-27T14:22:00Z</time>
      </trkpt>
      <trkpt lat="43.81039" lon="7.45331">
        <ele>594.71334670318</ele>
        <time>2021-01-27T14:22:01Z</time>
      </trkpt>
      <trkpt lat="43.81038" lon="7.45331">
        <ele>594.7133580502</ele>
        <time>2021-01-27T14:22:04Z</time>
      </trkpt>
      <trkpt lat="43.81038" lon="7.45332">
        <ele>594.71339268924</ele>
        <time>2021-01-27T14:22:05Z</time>
      </trkpt>
      <trkpt lat="43.81037" lon="7.45333">
        <ele>594.71342167656</ele>
        <time>2021-01-27T14:22:07Z</time>
      </trkpt>
      <trkpt lat="43.81036" lon="7.45335">
        <ele>594.71350372947</ele>
        <time>2021-01-27T14:22:09Z</time>
      </trkpt>
      <trkpt lat="43.81035" lon="7.45334">
        <ele>595.71353205611</ele>
        <time>2021-01-27T14:22:11Z</time>
      </trkpt>
      <trkpt lat="43.81033" lon="7.45334">
        <ele>596.71363082788</ele>
        <time>2021-01-27T14:22:13Z</time>
      </trkpt>
      <trkpt lat="43.81032" lon="7.45333">
        <ele>597.7136865759</ele>
        <time>2021-01-27T14:22:14Z</time>
      </trkpt>
      <trkpt lat="43.8103" lon="7.45332">
        <ele>597.71375093735</ele>
        <time>2021-01-27T14:22:15Z</time>
      </trkpt>
      <trkpt lat="43.81029" lon="7.45332">
        <ele>597.71380125302</ele>
        <time>2021-01-27T14:22:16Z</time>
      </trkpt>
      <trkpt lat="43.81028" lon="7.45331">
        <ele>597.71384483718</ele>
        <time>2021-01-27T14:22:17Z</time>
      </trkpt>
      <trkpt lat="43.81028" lon="7.45331">
        <ele>597.71386927629</ele>
        <time>2021-01-27T14:22:18Z</time>
      </trkpt>
      <trkpt lat="43.81025" lon="7.45331">
        <ele>597.7140077559</ele>
        <time>2021-01-27T14:22:20Z</time>
      </trkpt>
      <trkpt lat="43.81024" lon="7.45331">
        <ele>597.71404950932</ele>
        <time>2021-01-27T14:22:21Z</time>
      </trkpt>
      <trkpt lat="43.81023" lon="7.45332">
        <ele>598.71411594181</ele>
        <time>2021-01-27T14:22:23Z</time>
      </trkpt>
      <trkpt lat="43.81021" lon="7.45333">
        <ele>597.71418626392</ele>
        <time>2021-01-27T14:22:24Z</time>
      </trkpt>
      <trkpt lat="43.8102" lon="7.45334">
        <ele>597.71425460278</ele>
        <time>2021-01-27T14:22:25Z</time>
      </trkpt>
      <trkpt lat="43.81019" lon="7.45334">
        <ele>598.71432632024</ele>
        <time>2021-01-27T14:22:26Z</time>
      </trkpt>
      <trkpt lat="43.81018" lon="7.45335">
        <ele>599.71438562075</ele>
        <time>2021-01-27T14:22:27Z</time>
      </trkpt>
      <trkpt lat="43.81015" lon="7.45337">
        <ele>599.71453437484</ele>
        <time>2021-01-27T14:22:29Z</time>
      </trkpt>
      <trkpt lat="43.81013" lon="7.45339">
        <ele>600.71463160789</ele>
        <time>2021-01-27T14:22:30Z</time>
      </trkpt>
      <trkpt lat="43.81012" lon="7.4534">
        <ele>600.71470119314</ele>
        <time>2021-01-27T14:22:31Z</time>
      </trkpt>
      <trkpt lat="43.81011" lon="7.4534">
        <ele>601.71476567969</ele>
        <time>2021-01-27T14:22:32Z</time>
      </trkpt>
      <trkpt lat="43.81009" lon="7.45341">
        <ele>601.7148477064</ele>
        <time>2021-01-27T14:22:33Z</time>
      </trkpt>
      <trkpt lat="43.81008" lon="7.45342">
        <ele>601.71491575308</ele>
        <time>2021-01-27T14:22:34Z</time>
      </trkpt>
      <trkpt lat="43.81006" lon="7.45342">
        <ele>601.71497645803</ele>
        <time>2021-01-27T14:22:35Z</time>
      </trkpt>
      <trkpt lat="43.81005" lon="7.45342">
        <ele>601.71503680932</ele>
        <time>2021-01-27T14:22:36Z</time>
      </trkpt>
      <trkpt lat="43.81003" lon="7.45343">
        <ele>602.71515863828</ele>
        <time>2021-01-27T14:22:38Z</time>
      </trkpt>
      <trkpt lat="43.81002" lon="7.45342">
        <ele>602.71520550493</ele>
        <time>2021-01-27T14:22:39Z</time>
      </trkpt>
      <trkpt lat="43.81001" lon="7.45343">
        <ele>602.71526075652</ele>
        <time>2021-01-27T14:22:40Z</time>
      </trkpt>
      <trkpt lat="43.81" lon="7.45343">
        <ele>602.7153032185</ele>
        <time>2021-01-27T14:22:41Z</time>
      </trkpt>
      <trkpt lat="43.80999" lon="7.45343">
        <ele>603.71534646353</ele>
        <time>2021-01-27T14:22:42Z</time>
      </trkpt>
      <trkpt lat="43.80998" lon="7.45343">
        <ele>603.71540111153</ele>
        <time>2021-01-27T14:22:43Z</time>
      </trkpt>
      <trkpt lat="43.80997" lon="7.45344">
        <ele>603.7154598057</ele>
        <time>2021-01-27T14:22:44Z</time>
      </trkpt>
      <trkpt lat="43.80995" lon="7.45347">
        <ele>603.71556973395</ele>
        <time>2021-01-27T14:22:46Z</time>
      </trkpt>
      <trkpt lat="43.80994" lon="7.45348">
        <ele>604.71563700577</ele>
        <time>2021-01-27T14:22:47Z</time>
      </trkpt>
      <trkpt lat="43.80992" lon="7.45349">
        <ele>604.71571662662</ele>
        <time>2021-01-27T14:22:48Z</time>
      </trkpt>
      <trkpt lat="43.8099" lon="7.45351">
        <ele>604.7158392534</ele>
        <time>2021-01-27T14:22:50Z</time>
      </trkpt>
      <trkpt lat="43.80989" lon="7.45353">
        <ele>605.71590606463</ele>
        <time>2021-01-27T14:22:51Z</time>
      </trkpt>
      <trkpt lat="43.80988" lon="7.45354">
        <ele>605.71596851099</ele>
        <time>2021-01-27T14:22:52Z</time>
      </trkpt>
      <trkpt lat="43.80987" lon="7.45355">
        <ele>605.71602951816</ele>
        <time>2021-01-27T14:22:53Z</time>
      </trkpt>
      <trkpt lat="43.80986" lon="7.45357">
        <ele>606.71607866451</ele>
        <time>2021-01-27T14:22:54Z</time>
      </trkpt>
      <trkpt lat="43.80986" lon="7.45359">
        <ele>606.71612880107</ele>
        <time>2021-01-27T14:22:55Z</time>
      </trkpt>
      <trkpt lat="43.80985" lon="7.45361">
        <ele>605.71616944697</ele>
        <time>2021-01-27T14:22:56Z</time>
      </trkpt>
      <trkpt lat="43.80983" lon="7.45364">
        <ele>605.7163038626</ele>
        <time>2021-01-27T14:22:58Z</time>
      </trkpt>
      <trkpt lat="43.80982" lon="7.45366">
        <ele>606.71634563086</ele>
        <time>2021-01-27T14:22:59Z</time>
      </trkpt>
      <trkpt lat="43.80982" lon="7.45368">
        <ele>606.71637984557</ele>
        <time>2021-01-27T14:23:00Z</time>
      </trkpt>
      <trkpt lat="43.80982" lon="7.4537">
        <ele>606.71641396309</ele>
        <time>2021-01-27T14:23:01Z</time>
      </trkpt>
      <trkpt lat="43.80981" lon="7.45372">
        <ele>606.71646895757</ele>
        <time>2021-01-27T14:23:02Z</time>
      </trkpt>
      <trkpt lat="43.80981" lon="7.45375">
        <ele>606.71651805642</ele>
        <time>2021-01-27T14:23:03Z</time>
      </trkpt>
      <trkpt lat="43.8098" lon="7.45377">
        <ele>606.71654680968</ele>
        <time>2021-01-27T14:23:04Z</time>
      </trkpt>
      <trkpt lat="43.8098" lon="7.45379">
        <ele>606.71660110425</ele>
        <time>2021-01-27T14:23:05Z</time>
      </trkpt>
      <trkpt lat="43.80979" lon="7.4538">
        <ele>605.71664377701</ele>
        <time>2021-01-27T14:23:06Z</time>
      </trkpt>
      <trkpt lat="43.80978" lon="7.45382">
        <ele>605.71668722671</ele>
        <time>2021-01-27T14:23:07Z</time>
      </trkpt>
      <trkpt lat="43.80977" lon="7.45384">
        <ele>605.71677275169</ele>
        <time>2021-01-27T14:23:09Z</time>
      </trkpt>
      <trkpt lat="43.80977" lon="7.45385">
        <ele>605.71678930461</ele>
        <time>2021-01-27T14:23:10Z</time>
      </trkpt>
      <trkpt lat="43.80977" lon="7.45387">
        <ele>606.71680926924</ele>
        <time>2021-01-27T14:23:11Z</time>
      </trkpt>
      <trkpt lat="43.80976" lon="7.45389">
        <ele>606.71685674387</ele>
        <time>2021-01-27T14:23:12Z</time>
      </trkpt>
      <trkpt lat="43.80976" lon="7.45391">
        <ele>606.71689243327</ele>
        <time>2021-01-27T14:23:13Z</time>
      </trkpt>
      <trkpt lat="43.80975" lon="7.45392">
        <ele>606.7169468485</ele>
        <time>2021-01-27T14:23:14Z</time>
      </trkpt>
      <trkpt lat="43.80974" lon="7.45394">
        <ele>606.71700821505</ele>
        <time>2021-01-27T14:23:15Z</time>
      </trkpt>
      <trkpt lat="43.80973" lon="7.45395">
        <ele>607.71705724382</ele>
        <time>2021-01-27T14:23:16Z</time>
      </trkpt>
      <trkpt lat="43.80972" lon="7.45395">
        <ele>606.71713562972</ele>
        <time>2021-01-27T14:23:17Z</time>
      </trkpt>
      <trkpt lat="43.8097" lon="7.45395">
        <ele>606.71720413266</ele>
        <time>2021-01-27T14:23:18Z</time>
      </trkpt>
      <trkpt lat="43.80967" lon="7.45394">
        <ele>604.71735244647</ele>
        <time>2021-01-27T14:23:20Z</time>
      </trkpt>
      <trkpt lat="43.80965" lon="7.45394">
        <ele>603.71741876771</ele>
        <time>2021-01-27T14:23:21Z</time>
      </trkpt>
      <trkpt lat="43.80964" lon="7.45394">
        <ele>603.71749754631</ele>
        <time>2021-01-27T14:23:22Z</time>
      </trkpt>
      <trkpt lat="43.80963" lon="7.45393">
        <ele>603.71754456599</ele>
        <time>2021-01-27T14:23:23Z</time>
      </trkpt>
      <trkpt lat="43.80961" lon="7.45393">
        <ele>603.71759783616</ele>
        <time>2021-01-27T14:23:24Z</time>
      </trkpt>
      <trkpt lat="43.8096" lon="7.45392">
        <ele>603.7176631819</ele>
        <time>2021-01-27T14:23:25Z</time>
      </trkpt>
      <trkpt lat="43.80959" lon="7.45392">
        <ele>603.71772721863</ele>
        <time>2021-01-27T14:23:26Z</time>
      </trkpt>
      <trkpt lat="43.80957" lon="7.45392">
        <ele>602.71779198772</ele>
        <time>2021-01-27T14:23:27Z</time>
      </trkpt>
      <trkpt lat="43.80955" lon="7.45391">
        <ele>602.71789998334</ele>
        <time>2021-01-27T14:23:29Z</time>
      </trkpt>
      <trkpt lat="43.80953" lon="7.45391">
        <ele>603.71798159187</ele>
        <time>2021-01-27T14:23:30Z</time>
      </trkpt>
      <trkpt lat="43.80952" lon="7.45391">
        <ele>603.71804764546</ele>
        <time>2021-01-27T14:23:31Z</time>
      </trkpt>
      <trkpt lat="43.8095" lon="7.45391">
        <ele>603.71811126264</ele>
        <time>2021-01-27T14:23:32Z</time>
      </trkpt>
      <trkpt lat="43.80948" lon="7.45393">
        <ele>603.71824846812</ele>
        <time>2021-01-27T14:23:34Z</time>
      </trkpt>
      <trkpt lat="43.80946" lon="7.45393">
        <ele>603.71833272757</ele>
        <time>2021-01-27T14:23:35Z</time>
      </trkpt>
      <trkpt lat="43.80944" lon="7.45393">
        <ele>603.71840471222</ele>
        <time>2021-01-27T14:23:36Z</time>
      </trkpt>
      <trkpt lat="43.80942" lon="7.45392">
        <ele>603.71852992747</ele>
        <time>2021-01-27T14:23:38Z</time>
      </trkpt>
      <trkpt lat="43.8094" lon="7.45392">
        <ele>603.71858798137</ele>
        <time>2021-01-27T14:23:39Z</time>
      </trkpt>
      <trkpt lat="43.80939" lon="7.45392">
        <ele>603.71866152791</ele>
        <time>2021-01-27T14:23:40Z</time>
      </trkpt>
      <trkpt lat="43.80937" lon="7.45393">
        <ele>602.7187354722</ele>
        <time>2021-01-27T14:23:41Z</time>
      </trkpt>
      <trkpt lat="43.80936" lon="7.45393">
        <ele>602.71879892893</ele>
        <time>2021-01-27T14:23:42Z</time>
      </trkpt>
      <trkpt lat="43.80933" lon="7.45395">
        <ele>602.7189579482</ele>
        <time>2021-01-27T14:23:44Z</time>
      </trkpt>
      <trkpt lat="43.80931" lon="7.45396">
        <ele>602.71905051095</ele>
        <time>2021-01-27T14:23:45Z</time>
      </trkpt>
      <trkpt lat="43.8093" lon="7.45397">
        <ele>602.71913310968</ele>
        <time>2021-01-27T14:23:46Z</time>
      </trkpt>
      <trkpt lat="43.80928" lon="7.45397">
        <ele>602.71921092603</ele>
        <time>2021-01-27T14:23:47Z</time>
      </trkpt>
      <trkpt lat="43.80927" lon="7.45397">
        <ele>601.71928290036</ele>
        <time>2021-01-27T14:23:48Z</time>
      </trkpt>
      <trkpt lat="43.80925" lon="7.45397">
        <ele>601.7193534931</ele>
        <time>2021-01-27T14:23:49Z</time>
      </trkpt>
      <trkpt lat="43.80924" lon="7.45398">
        <ele>601.71943190282</ele>
        <time>2021-01-27T14:23:50Z</time>
      </trkpt>
      <trkpt lat="43.80923" lon="7.45398">
        <ele>601.7194905814</ele>
        <time>2021-01-27T14:23:51Z</time>
      </trkpt>
      <trkpt lat="43.80921" lon="7.45399">
        <ele>601.71956080987</ele>
        <time>2021-01-27T14:23:52Z</time>
      </trkpt>
      <trkpt lat="43.80919" lon="7.454">
        <ele>601.71968831746</ele>
        <time>2021-01-27T14:23:54Z</time>
      </trkpt>
      <trkpt lat="43.80918" lon="7.45401">
        <ele>602.71975373427</ele>
        <time>2021-01-27T14:23:55Z</time>
      </trkpt>
      <trkpt lat="43.80916" lon="7.45402">
        <ele>601.71981454387</ele>
        <time>2021-01-27T14:23:56Z</time>
      </trkpt>
      <trkpt lat="43.80914" lon="7.45403">
        <ele>601.71995881906</ele>
        <time>2021-01-27T14:23:58Z</time>
      </trkpt>
      <trkpt lat="43.80912" lon="7.45404">
        <ele>601.72002569348</ele>
        <time>2021-01-27T14:23:59Z</time>
      </trkpt>
      <trkpt lat="43.80911" lon="7.45404">
        <ele>601.72009320204</ele>
        <time>2021-01-27T14:24:00Z</time>
      </trkpt>
      <trkpt lat="43.8091" lon="7.45405">
        <ele>600.72016605783</ele>
        <time>2021-01-27T14:24:01Z</time>
      </trkpt>
      <trkpt lat="43.80908" lon="7.45406">
        <ele>600.72023637399</ele>
        <time>2021-01-27T14:24:02Z</time>
      </trkpt>
      <trkpt lat="43.80907" lon="7.45407">
        <ele>600.72030851578</ele>
        <time>2021-01-27T14:24:03Z</time>
      </trkpt>
      <trkpt lat="43.80905" lon="7.45407">
        <ele>599.72039093681</ele>
        <time>2021-01-27T14:24:04Z</time>
      </trkpt>
      <trkpt lat="43.80904" lon="7.45408">
        <ele>599.72047624281</ele>
        <time>2021-01-27T14:24:05Z</time>
      </trkpt>
      <trkpt lat="43.80902" lon="7.45409">
        <ele>598.72056262634</ele>
        <time>2021-01-27T14:24:06Z</time>
      </trkpt>
      <trkpt lat="43.809" lon="7.45409">
        <ele>598.72065667757</ele>
        <time>2021-01-27T14:24:07Z</time>
      </trkpt>
      <trkpt lat="43.80898" lon="7.45409">
        <ele>598.72073219835</ele>
        <time>2021-01-27T14:24:08Z</time>
      </trkpt>
      <trkpt lat="43.80895" lon="7.45409">
        <ele>598.72087499292</ele>
        <time>2021-01-27T14:24:10Z</time>
      </trkpt>
      <trkpt lat="43.80894" lon="7.45409">
        <ele>598.72094535985</ele>
        <time>2021-01-27T14:24:11Z</time>
      </trkpt>
      <trkpt lat="43.80893" lon="7.4541">
        <ele>598.72101587641</ele>
        <time>2021-01-27T14:24:12Z</time>
      </trkpt>
      <trkpt lat="43.80891" lon="7.4541">
        <ele>598.7210831722</ele>
        <time>2021-01-27T14:24:13Z</time>
      </trkpt>
      <trkpt lat="43.80889" lon="7.45409">
        <ele>598.7211704495</ele>
        <time>2021-01-27T14:24:14Z</time>
      </trkpt>
      <trkpt lat="43.80886" lon="7.45409">
        <ele>599.721321486</ele>
        <time>2021-01-27T14:24:16Z</time>
      </trkpt>
      <trkpt lat="43.80885" lon="7.45409">
        <ele>599.72138864</ele>
        <time>2021-01-27T14:24:17Z</time>
      </trkpt>
      <trkpt lat="43.80883" lon="7.45408">
        <ele>600.72144712515</ele>
        <time>2021-01-27T14:24:18Z</time>
      </trkpt>
      <trkpt lat="43.80882" lon="7.45407">
        <ele>599.72151054006</ele>
        <time>2021-01-27T14:24:19Z</time>
      </trkpt>
      <trkpt lat="43.8088" lon="7.45407">
        <ele>598.72158681044</ele>
        <time>2021-01-27T14:24:20Z</time>
      </trkpt>
      <trkpt lat="43.80879" lon="7.45407">
        <ele>598.72165286012</ele>
        <time>2021-01-27T14:24:21Z</time>
      </trkpt>
      <trkpt lat="43.80877" lon="7.45405">
        <ele>597.72172438215</ele>
        <time>2021-01-27T14:24:22Z</time>
      </trkpt>
      <trkpt lat="43.80875" lon="7.45405">
        <ele>597.72180189613</ele>
        <time>2021-01-27T14:24:23Z</time>
      </trkpt>
      <trkpt lat="43.80874" lon="7.45405">
        <ele>597.72187529886</ele>
        <time>2021-01-27T14:24:24Z</time>
      </trkpt>
      <trkpt lat="43.80872" lon="7.45405">
        <ele>597.72194325646</ele>
        <time>2021-01-27T14:24:25Z</time>
      </trkpt>
      <trkpt lat="43.8087" lon="7.45405">
        <ele>596.72202045463</ele>
        <time>2021-01-27T14:24:26Z</time>
      </trkpt>
      <trkpt lat="43.80869" lon="7.45405">
        <ele>596.72207744831</ele>
        <time>2021-01-27T14:24:27Z</time>
      </trkpt>
      <trkpt lat="43.80868" lon="7.45405">
        <ele>596.72214770384</ele>
        <time>2021-01-27T14:24:28Z</time>
      </trkpt>
      <trkpt lat="43.80866" lon="7.45405">
        <ele>596.72222131239</ele>
        <time>2021-01-27T14:24:29Z</time>
      </trkpt>
      <trkpt lat="43.80865" lon="7.45404">
        <ele>597.72229140962</ele>
        <time>2021-01-27T14:24:30Z</time>
      </trkpt>
      <trkpt lat="43.80863" lon="7.45404">
        <ele>597.72236532481</ele>
        <time>2021-01-27T14:24:31Z</time>
      </trkpt>
      <trkpt lat="43.80861" lon="7.45405">
        <ele>596.72244542873</ele>
        <time>2021-01-27T14:24:32Z</time>
      </trkpt>
      <trkpt lat="43.8086" lon="7.45405">
        <ele>596.72251284752</ele>
        <time>2021-01-27T14:24:33Z</time>
      </trkpt>
      <trkpt lat="43.80858" lon="7.45405">
        <ele>596.72259271844</ele>
        <time>2021-01-27T14:24:34Z</time>
      </trkpt>
      <trkpt lat="43.80857" lon="7.45404">
        <ele>596.72266063499</ele>
        <time>2021-01-27T14:24:35Z</time>
      </trkpt>
      <trkpt lat="43.80855" lon="7.45404">
        <ele>595.72273596887</ele>
        <time>2021-01-27T14:24:36Z</time>
      </trkpt>
      <trkpt lat="43.80854" lon="7.45404">
        <ele>595.72280166143</ele>
        <time>2021-01-27T14:24:37Z</time>
      </trkpt>
      <trkpt lat="43.80852" lon="7.45404">
        <ele>595.7228717706</ele>
        <time>2021-01-27T14:24:38Z</time>
      </trkpt>
      <trkpt lat="43.8085" lon="7.45404">
        <ele>596.72300273266</ele>
        <time>2021-01-27T14:24:40Z</time>
      </trkpt>
      <trkpt lat="43.80848" lon="7.45404">
        <ele>596.72308156478</ele>
        <time>2021-01-27T14:24:41Z</time>
      </trkpt>
      <trkpt lat="43.80846" lon="7.45404">
        <ele>596.72316825253</ele>
        <time>2021-01-27T14:24:42Z</time>
      </trkpt>
      <trkpt lat="43.80843" lon="7.45405">
        <ele>596.72333091267</ele>
        <time>2021-01-27T14:24:44Z</time>
      </trkpt>
      <trkpt lat="43.80841" lon="7.45405">
        <ele>596.72339881481</ele>
        <time>2021-01-27T14:24:45Z</time>
      </trkpt>
      <trkpt lat="43.8084" lon="7.45405">
        <ele>596.72347708328</ele>
        <time>2021-01-27T14:24:46Z</time>
      </trkpt>
      <trkpt lat="43.80838" lon="7.45405">
        <ele>597.7235803166</ele>
        <time>2021-01-27T14:24:47Z</time>
      </trkpt>
      <trkpt lat="43.80836" lon="7.45406">
        <ele>598.72366403379</ele>
        <time>2021-01-27T14:24:48Z</time>
      </trkpt>
      <trkpt lat="43.80834" lon="7.45405">
        <ele>598.72373178568</ele>
        <time>2021-01-27T14:24:49Z</time>
      </trkpt>
      <trkpt lat="43.80833" lon="7.45405">
        <ele>597.72378946175</ele>
        <time>2021-01-27T14:24:50Z</time>
      </trkpt>
      <trkpt lat="43.80832" lon="7.45405">
        <ele>597.72385494406</ele>
        <time>2021-01-27T14:24:51Z</time>
      </trkpt>
      <trkpt lat="43.8083" lon="7.45406">
        <ele>597.7239312695</ele>
        <time>2021-01-27T14:24:52Z</time>
      </trkpt>
      <trkpt lat="43.80829" lon="7.45406">
        <ele>597.7240081997</ele>
        <time>2021-01-27T14:24:53Z</time>
      </trkpt>
      <trkpt lat="43.80826" lon="7.45408">
        <ele>597.72413999483</ele>
        <time>2021-01-27T14:24:55Z</time>
      </trkpt>
      <trkpt lat="43.80825" lon="7.45408">
        <ele>597.72418783271</ele>
        <time>2021-01-27T14:24:56Z</time>
      </trkpt>
      <trkpt lat="43.80825" lon="7.45408">
        <ele>597.72422593749</ele>
        <time>2021-01-27T14:24:57Z</time>
      </trkpt>
      <trkpt lat="43.80821" lon="7.45409">
        <ele>597.72439580932</ele>
        <time>2021-01-27T14:24:59Z</time>
      </trkpt>
      <trkpt lat="43.8082" lon="7.45411">
        <ele>597.72447710998</ele>
        <time>2021-01-27T14:25:00Z</time>
      </trkpt>
      <trkpt lat="43.80818" lon="7.45413">
        <ele>597.72455713086</ele>
        <time>2021-01-27T14:25:01Z</time>
      </trkpt>
      <trkpt lat="43.80817" lon="7.45414">
        <ele>598.72464688098</ele>
        <time>2021-01-27T14:25:02Z</time>
      </trkpt>
      <trkpt lat="43.80816" lon="7.45415">
        <ele>598.72471403979</ele>
        <time>2021-01-27T14:25:03Z</time>
      </trkpt>
      <trkpt lat="43.80814" lon="7.45416">
        <ele>598.72478856815</ele>
        <time>2021-01-27T14:25:04Z</time>
      </trkpt>
      <trkpt lat="43.80813" lon="7.45417">
        <ele>598.72487246356</ele>
        <time>2021-01-27T14:25:05Z</time>
      </trkpt>
      <trkpt lat="43.80811" lon="7.45418">
        <ele>598.7249508125</ele>
        <time>2021-01-27T14:25:06Z</time>
      </trkpt>
      <trkpt lat="43.8081" lon="7.45419">
        <ele>598.72501608698</ele>
        <time>2021-01-27T14:25:07Z</time>
      </trkpt>
      <trkpt lat="43.80808" lon="7.45419">
        <ele>598.72509344657</ele>
        <time>2021-01-27T14:25:08Z</time>
      </trkpt>
      <trkpt lat="43.80806" lon="7.4542">
        <ele>598.72522936245</ele>
        <time>2021-01-27T14:25:10Z</time>
      </trkpt>
      <trkpt lat="43.80805" lon="7.45421">
        <ele>598.72528875115</ele>
        <time>2021-01-27T14:25:11Z</time>
      </trkpt>
      <trkpt lat="43.80803" lon="7.45422">
        <ele>598.72536272767</ele>
        <time>2021-01-27T14:25:12Z</time>
      </trkpt>
      <trkpt lat="43.80802" lon="7.45423">
        <ele>598.72542990118</ele>
        <time>2021-01-27T14:25:13Z</time>
      </trkpt>
      <trkpt lat="43.80801" lon="7.45424">
        <ele>598.72548634486</ele>
        <time>2021-01-27T14:25:14Z</time>
      </trkpt>
      <trkpt lat="43.808" lon="7.45424">
        <ele>598.7255628594</ele>
        <time>2021-01-27T14:25:15Z</time>
      </trkpt>
      <trkpt lat="43.80798" lon="7.45425">
        <ele>598.7256388694</ele>
        <time>2021-01-27T14:25:16Z</time>
      </trkpt>
      <trkpt lat="43.80796" lon="7.45425">
        <ele>598.72572034559</ele>
        <time>2021-01-27T14:25:17Z</time>
      </trkpt>
      <trkpt lat="43.80795" lon="7.45425">
        <ele>597.72579511301</ele>
        <time>2021-01-27T14:25:18Z</time>
      </trkpt>
      <trkpt lat="43.80793" lon="7.45426">
        <ele>597.72587748488</ele>
        <time>2021-01-27T14:25:19Z</time>
      </trkpt>
      <trkpt lat="43.80792" lon="7.45426">
        <ele>597.72595332934</ele>
        <time>2021-01-27T14:25:20Z</time>
      </trkpt>
      <trkpt lat="43.8079" lon="7.45426">
        <ele>596.72602012398</ele>
        <time>2021-01-27T14:25:21Z</time>
      </trkpt>
      <trkpt lat="43.80787" lon="7.45425">
        <ele>595.72616009708</ele>
        <time>2021-01-27T14:25:23Z</time>
      </trkpt>
      <trkpt lat="43.80786" lon="7.45425">
        <ele>595.72622952418</ele>
        <time>2021-01-27T14:25:24Z</time>
      </trkpt>
      <trkpt lat="43.80784" lon="7.45425">
        <ele>595.7262972871</ele>
        <time>2021-01-27T14:25:25Z</time>
      </trkpt>
      <trkpt lat="43.80783" lon="7.45426">
        <ele>594.72636929944</ele>
        <time>2021-01-27T14:25:26Z</time>
      </trkpt>
      <trkpt lat="43.80781" lon="7.45425">
        <ele>594.72644435697</ele>
        <time>2021-01-27T14:25:27Z</time>
      </trkpt>
      <trkpt lat="43.8078" lon="7.45425">
        <ele>594.72651838911</ele>
        <time>2021-01-27T14:25:28Z</time>
      </trkpt>
      <trkpt lat="43.80778" lon="7.45426">
        <ele>594.72660179896</ele>
        <time>2021-01-27T14:25:29Z</time>
      </trkpt>
      <trkpt lat="43.80776" lon="7.45426">
        <ele>594.72667462294</ele>
        <time>2021-01-27T14:25:30Z</time>
      </trkpt>
      <trkpt lat="43.80775" lon="7.45426">
        <ele>594.72675700217</ele>
        <time>2021-01-27T14:25:31Z</time>
      </trkpt>
      <trkpt lat="43.80773" lon="7.45426">
        <ele>594.72682924682</ele>
        <time>2021-01-27T14:25:32Z</time>
      </trkpt>
      <trkpt lat="43.80772" lon="7.45426">
        <ele>593.7269007046</ele>
        <time>2021-01-27T14:25:33Z</time>
      </trkpt>
      <trkpt lat="43.80769" lon="7.45425">
        <ele>593.72701576475</ele>
        <time>2021-01-27T14:25:35Z</time>
      </trkpt>
      <trkpt lat="43.80768" lon="7.45425">
        <ele>592.72707940403</ele>
        <time>2021-01-27T14:25:36Z</time>
      </trkpt>
      <trkpt lat="43.80766" lon="7.45425">
        <ele>592.72714507479</ele>
        <time>2021-01-27T14:25:37Z</time>
      </trkpt>
      <trkpt lat="43.80765" lon="7.45424">
        <ele>592.72719475498</ele>
        <time>2021-01-27T14:25:38Z</time>
      </trkpt>
      <trkpt lat="43.80764" lon="7.45423">
        <ele>591.72725261405</ele>
        <time>2021-01-27T14:25:39Z</time>
      </trkpt>
      <trkpt lat="43.80762" lon="7.45422">
        <ele>591.72731006775</ele>
        <time>2021-01-27T14:25:40Z</time>
      </trkpt>
      <trkpt lat="43.8076" lon="7.4542">
        <ele>591.72737378739</ele>
        <time>2021-01-27T14:25:41Z</time>
      </trkpt>
      <trkpt lat="43.80759" lon="7.45419">
        <ele>591.72742912483</ele>
        <time>2021-01-27T14:25:42Z</time>
      </trkpt>
      <trkpt lat="43.80758" lon="7.45418">
        <ele>591.72747365425</ele>
        <time>2021-01-27T14:25:43Z</time>
      </trkpt>
      <trkpt lat="43.80757" lon="7.45416">
        <ele>591.72750593035</ele>
        <time>2021-01-27T14:25:44Z</time>
      </trkpt>
      <trkpt lat="43.80756" lon="7.45414">
        <ele>591.7275280375</ele>
        <time>2021-01-27T14:25:45Z</time>
      </trkpt>
      <trkpt lat="43.80755" lon="7.45412">
        <ele>591.72754945709</ele>
        <time>2021-01-27T14:25:46Z</time>
      </trkpt>
      <trkpt lat="43.80754" lon="7.4541">
        <ele>590.72757611834</ele>
        <time>2021-01-27T14:25:47Z</time>
      </trkpt>
      <trkpt lat="43.80753" lon="7.45408">
        <ele>590.72759729473</ele>
        <time>2021-01-27T14:25:48Z</time>
      </trkpt>
      <trkpt lat="43.80752" lon="7.45406">
        <ele>591.72762129884</ele>
        <time>2021-01-27T14:25:49Z</time>
      </trkpt>
      <trkpt lat="43.80752" lon="7.45404">
        <ele>590.7276501364</ele>
        <time>2021-01-27T14:25:50Z</time>
      </trkpt>
      <trkpt lat="43.8075" lon="7.45402">
        <ele>590.72768794417</ele>
        <time>2021-01-27T14:25:51Z</time>
      </trkpt>
      <trkpt lat="43.8075" lon="7.454">
        <ele>589.72770134716</ele>
        <time>2021-01-27T14:25:52Z</time>
      </trkpt>
      <trkpt lat="43.80749" lon="7.45399">
        <ele>589.72771942142</ele>
        <time>2021-01-27T14:25:53Z</time>
      </trkpt>
      <trkpt lat="43.80748" lon="7.45396">
        <ele>590.72775272376</ele>
        <time>2021-01-27T14:25:55Z</time>
      </trkpt>
      <trkpt lat="43.80747" lon="7.45395">
        <ele>590.72777844594</ele>
        <time>2021-01-27T14:25:56Z</time>
      </trkpt>
      <trkpt lat="43.80746" lon="7.45394">
        <ele>590.72781000991</ele>
        <time>2021-01-27T14:25:57Z</time>
      </trkpt>
      <trkpt lat="43.80744" lon="7.4539">
        <ele>590.72786830548</ele>
        <time>2021-01-27T14:25:59Z</time>
      </trkpt>
      <trkpt lat="43.80743" lon="7.45388">
        <ele>590.72788300307</ele>
        <time>2021-01-27T14:26:00Z</time>
      </trkpt>
      <trkpt lat="43.80743" lon="7.45387">
        <ele>590.72790165143</ele>
        <time>2021-01-27T14:26:01Z</time>
      </trkpt>
      <trkpt lat="43.80742" lon="7.45385">
        <ele>590.72791698023</ele>
        <time>2021-01-27T14:26:02Z</time>
      </trkpt>
      <trkpt lat="43.80741" lon="7.45384">
        <ele>589.72793698905</ele>
        <time>2021-01-27T14:26:03Z</time>
      </trkpt>
      <trkpt lat="43.8074" lon="7.4538">
        <ele>589.72798779592</ele>
        <time>2021-01-27T14:26:05Z</time>
      </trkpt>
      <trkpt lat="43.80739" lon="7.45379">
        <ele>588.72801050239</ele>
        <time>2021-01-27T14:26:06Z</time>
      </trkpt>
      <trkpt lat="43.80738" lon="7.45376">
        <ele>588.72803136205</ele>
        <time>2021-01-27T14:26:07Z</time>
      </trkpt>
      <trkpt lat="43.80737" lon="7.45375">
        <ele>588.72806434624</ele>
        <time>2021-01-27T14:26:08Z</time>
      </trkpt>
      <trkpt lat="43.80737" lon="7.45374">
        <ele>588.72807377394</ele>
        <time>2021-01-27T14:26:09Z</time>
      </trkpt>
      <trkpt lat="43.80736" lon="7.45373">
        <ele>588.72809069594</ele>
        <time>2021-01-27T14:26:10Z</time>
      </trkpt>
      <trkpt lat="43.80736" lon="7.45371">
        <ele>587.72809448016</ele>
        <time>2021-01-27T14:26:11Z</time>
      </trkpt>
      <trkpt lat="43.80735" lon="7.4537">
        <ele>587.72811136062</ele>
        <time>2021-01-27T14:26:12Z</time>
      </trkpt>
      <trkpt lat="43.80735" lon="7.45369">
        <ele>587.7281260128</ele>
        <time>2021-01-27T14:26:13Z</time>
      </trkpt>
      <trkpt lat="43.80734" lon="7.45368">
        <ele>587.72815576009</ele>
        <time>2021-01-27T14:26:14Z</time>
      </trkpt>
      <trkpt lat="43.80733" lon="7.45368">
        <ele>586.7281937051</ele>
        <time>2021-01-27T14:26:15Z</time>
      </trkpt>
      <trkpt lat="43.80732" lon="7.45368">
        <ele>586.72821903662</ele>
        <time>2021-01-27T14:26:16Z</time>
      </trkpt>
      <trkpt lat="43.80731" lon="7.45367">
        <ele>585.72826561957</ele>
        <time>2021-01-27T14:26:17Z</time>
      </trkpt>
      <trkpt lat="43.8073" lon="7.45367">
        <ele>585.72831420842</ele>
        <time>2021-01-27T14:26:18Z</time>
      </trkpt>
      <trkpt lat="43.80729" lon="7.45366">
        <ele>585.72837460745</ele>
        <time>2021-01-27T14:26:19Z</time>
      </trkpt>
      <trkpt lat="43.80727" lon="7.45364">
        <ele>585.72842333587</ele>
        <time>2021-01-27T14:26:20Z</time>
      </trkpt>
      <trkpt lat="43.80726" lon="7.45362">
        <ele>585.72845600326</ele>
        <time>2021-01-27T14:26:21Z</time>
      </trkpt>
      <trkpt lat="43.80725" lon="7.45362">
        <ele>585.72852132498</ele>
        <time>2021-01-27T14:26:22Z</time>
      </trkpt>
      <trkpt lat="43.80724" lon="7.45361">
        <ele>584.72856593452</ele>
        <time>2021-01-27T14:26:23Z</time>
      </trkpt>
      <trkpt lat="43.80723" lon="7.45361">
        <ele>584.72859185762</ele>
        <time>2021-01-27T14:26:24Z</time>
      </trkpt>
      <trkpt lat="43.80723" lon="7.4536">
        <ele>584.72859354695</ele>
        <time>2021-01-27T14:26:25Z</time>
      </trkpt>
      <trkpt lat="43.80723" lon="7.45359">
        <ele>580.72857122849</ele>
        <time>2021-01-27T14:26:32Z</time>
      </trkpt>
      <trkpt lat="43.80721" lon="7.45358">
        <ele>581.72866129357</ele>
        <time>2021-01-27T14:26:34Z</time>
      </trkpt>
      <trkpt lat="43.80721" lon="7.45358">
        <ele>581.72869415571</ele>
        <time>2021-01-27T14:26:37Z</time>
      </trkpt>
      <trkpt lat="43.80719" lon="7.45355">
        <ele>582.72871855988</ele>
        <time>2021-01-27T14:26:39Z</time>
      </trkpt>
      <trkpt lat="43.80718" lon="7.45354">
        <ele>583.72878339125</ele>
        <time>2021-01-27T14:26:41Z</time>
      </trkpt>
      <trkpt lat="43.80717" lon="7.45353">
        <ele>583.72880675006</ele>
        <time>2021-01-27T14:26:42Z</time>
      </trkpt>
      <trkpt lat="43.80716" lon="7.45352">
        <ele>582.72886391464</ele>
        <time>2021-01-27T14:26:44Z</time>
      </trkpt>
      <trkpt lat="43.80715" lon="7.45351">
        <ele>582.7289116362</ele>
        <time>2021-01-27T14:26:45Z</time>
      </trkpt>
      <trkpt lat="43.80714" lon="7.45351">
        <ele>582.72894358648</ele>
        <time>2021-01-27T14:26:46Z</time>
      </trkpt>
      <trkpt lat="43.80713" lon="7.4535">
        <ele>582.72896019432</ele>
        <time>2021-01-27T14:26:47Z</time>
      </trkpt>
      <trkpt lat="43.80712" lon="7.45349">
        <ele>581.72899413075</ele>
        <time>2021-01-27T14:26:48Z</time>
      </trkpt>
      <trkpt lat="43.80712" lon="7.45347">
        <ele>582.72901637955</ele>
        <time>2021-01-27T14:26:49Z</time>
      </trkpt>
      <trkpt lat="43.80711" lon="7.45347">
        <ele>581.72903034771</ele>
        <time>2021-01-27T14:26:50Z</time>
      </trkpt>
      <trkpt lat="43.80711" lon="7.45346">
        <ele>581.72905485595</ele>
        <time>2021-01-27T14:26:51Z</time>
      </trkpt>
      <trkpt lat="43.80709" lon="7.45344">
        <ele>582.72911157466</ele>
        <time>2021-01-27T14:26:52Z</time>
      </trkpt>
      <trkpt lat="43.80708" lon="7.45344">
        <ele>581.72915781141</ele>
        <time>2021-01-27T14:26:53Z</time>
      </trkpt>
      <trkpt lat="43.80707" lon="7.45343">
        <ele>581.7291977776</ele>
        <time>2021-01-27T14:26:54Z</time>
      </trkpt>
      <trkpt lat="43.80705" lon="7.45342">
        <ele>581.72926480707</ele>
        <time>2021-01-27T14:26:55Z</time>
      </trkpt>
      <trkpt lat="43.80704" lon="7.45341">
        <ele>581.72932341264</ele>
        <time>2021-01-27T14:26:56Z</time>
      </trkpt>
      <trkpt lat="43.80703" lon="7.45341">
        <ele>581.72938267871</ele>
        <time>2021-01-27T14:26:57Z</time>
      </trkpt>
      <trkpt lat="43.80702" lon="7.4534">
        <ele>581.72940709685</ele>
        <time>2021-01-27T14:26:58Z</time>
      </trkpt>
      <trkpt lat="43.80701" lon="7.4534">
        <ele>581.72944819198</ele>
        <time>2021-01-27T14:26:59Z</time>
      </trkpt>
      <trkpt lat="43.807" lon="7.45339">
        <ele>581.72947359063</ele>
        <time>2021-01-27T14:27:00Z</time>
      </trkpt>
      <trkpt lat="43.807" lon="7.45338">
        <ele>582.72950324631</ele>
        <time>2021-01-27T14:27:01Z</time>
      </trkpt>
      <trkpt lat="43.80699" lon="7.45338">
        <ele>582.72953353107</ele>
        <time>2021-01-27T14:27:02Z</time>
      </trkpt>
      <trkpt lat="43.80698" lon="7.45337">
        <ele>582.72955921593</ele>
        <time>2021-01-27T14:27:03Z</time>
      </trkpt>
      <trkpt lat="43.80697" lon="7.45335">
        <ele>581.72958802429</ele>
        <time>2021-01-27T14:27:04Z</time>
      </trkpt>
      <trkpt lat="43.80696" lon="7.45334">
        <ele>580.72964159427</ele>
        <time>2021-01-27T14:27:05Z</time>
      </trkpt>
      <trkpt lat="43.80695" lon="7.45333">
        <ele>579.72968442313</ele>
        <time>2021-01-27T14:27:06Z</time>
      </trkpt>
      <trkpt lat="43.80693" lon="7.45332">
        <ele>579.72977440718</ele>
        <time>2021-01-27T14:27:08Z</time>
      </trkpt>
      <trkpt lat="43.80692" lon="7.45331">
        <ele>579.72981115786</ele>
        <time>2021-01-27T14:27:09Z</time>
      </trkpt>
      <trkpt lat="43.80691" lon="7.4533">
        <ele>579.72984598189</ele>
        <time>2021-01-27T14:27:10Z</time>
      </trkpt>
      <trkpt lat="43.8069" lon="7.45328">
        <ele>579.72988462672</ele>
        <time>2021-01-27T14:27:11Z</time>
      </trkpt>
      <trkpt lat="43.80689" lon="7.45327">
        <ele>579.72991109941</ele>
        <time>2021-01-27T14:27:12Z</time>
      </trkpt>
      <trkpt lat="43.80688" lon="7.45326">
        <ele>578.72992806278</ele>
        <time>2021-01-27T14:27:13Z</time>
      </trkpt>
      <trkpt lat="43.80688" lon="7.45325">
        <ele>577.72994990369</ele>
        <time>2021-01-27T14:27:14Z</time>
      </trkpt>
      <trkpt lat="43.80687" lon="7.45324">
        <ele>577.72998059872</ele>
        <time>2021-01-27T14:27:15Z</time>
      </trkpt>
      <trkpt lat="43.80686" lon="7.45323">
        <ele>576.73001101058</ele>
        <time>2021-01-27T14:27:16Z</time>
      </trkpt>
      <trkpt lat="43.80685" lon="7.45322">
        <ele>577.730057717</ele>
        <time>2021-01-27T14:27:17Z</time>
      </trkpt>
      <trkpt lat="43.80684" lon="7.45322">
        <ele>577.73008641879</ele>
        <time>2021-01-27T14:27:18Z</time>
      </trkpt>
      <trkpt lat="43.80683" lon="7.4532">
        <ele>577.73011840426</ele>
        <time>2021-01-27T14:27:19Z</time>
      </trkpt>
      <trkpt lat="43.80682" lon="7.45319">
        <ele>578.73015587777</ele>
        <time>2021-01-27T14:27:20Z</time>
      </trkpt>
      <trkpt lat="43.80681" lon="7.45318">
        <ele>578.73019885585</ele>
        <time>2021-01-27T14:27:21Z</time>
      </trkpt>
      <trkpt lat="43.8068" lon="7.45317">
        <ele>578.73024928578</ele>
        <time>2021-01-27T14:27:22Z</time>
      </trkpt>
      <trkpt lat="43.80679" lon="7.45316">
        <ele>578.73028995811</ele>
        <time>2021-01-27T14:27:23Z</time>
      </trkpt>
      <trkpt lat="43.80677" lon="7.45314">
        <ele>577.73035285025</ele>
        <time>2021-01-27T14:27:25Z</time>
      </trkpt>
      <trkpt lat="43.80676" lon="7.45314">
        <ele>577.73038071657</ele>
        <time>2021-01-27T14:27:26Z</time>
      </trkpt>
      <trkpt lat="43.80676" lon="7.45313">
        <ele>577.73041467411</ele>
        <time>2021-01-27T14:27:27Z</time>
      </trkpt>
      <trkpt lat="43.80673" lon="7.45312">
        <ele>577.7305045513</ele>
        <time>2021-01-27T14:27:29Z</time>
      </trkpt>
      <trkpt lat="43.80672" lon="7.45313">
        <ele>578.73057691449</ele>
        <time>2021-01-27T14:27:30Z</time>
      </trkpt>
      <trkpt lat="43.80671" lon="7.45314">
        <ele>578.73063109541</ele>
        <time>2021-01-27T14:27:31Z</time>
      </trkpt>
      <trkpt lat="43.8067" lon="7.45315">
        <ele>578.73068810044</ele>
        <time>2021-01-27T14:27:32Z</time>
      </trkpt>
      <trkpt lat="43.8067" lon="7.45316">
        <ele>578.73073317908</ele>
        <time>2021-01-27T14:27:33Z</time>
      </trkpt>
      <trkpt lat="43.80668" lon="7.45318">
        <ele>578.73080408344</ele>
        <time>2021-01-27T14:27:35Z</time>
      </trkpt>
      <trkpt lat="43.80668" lon="7.45319">
        <ele>578.73083047799</ele>
        <time>2021-01-27T14:27:36Z</time>
      </trkpt>
      <trkpt lat="43.80668" lon="7.45321">
        <ele>578.73085543941</ele>
        <time>2021-01-27T14:27:37Z</time>
      </trkpt>
      <trkpt lat="43.80668" lon="7.45324">
        <ele>578.73085722732</ele>
        <time>2021-01-27T14:27:39Z</time>
      </trkpt>
      <trkpt lat="43.80668" lon="7.45326">
        <ele>577.73087192586</ele>
        <time>2021-01-27T14:27:40Z</time>
      </trkpt>
      <trkpt lat="43.80669" lon="7.45328">
        <ele>578.73087541965</ele>
        <time>2021-01-27T14:27:41Z</time>
      </trkpt>
      <trkpt lat="43.80669" lon="7.45329">
        <ele>578.73086337197</ele>
        <time>2021-01-27T14:27:42Z</time>
      </trkpt>
      <trkpt lat="43.8067" lon="7.45331">
        <ele>578.73084165035</ele>
        <time>2021-01-27T14:27:43Z</time>
      </trkpt>
      <trkpt lat="43.80671" lon="7.45333">
        <ele>578.73081824819</ele>
        <time>2021-01-27T14:27:44Z</time>
      </trkpt>
      <trkpt lat="43.80671" lon="7.45334">
        <ele>579.73081774349</ele>
        <time>2021-01-27T14:27:45Z</time>
      </trkpt>
      <trkpt lat="43.80672" lon="7.45336">
        <ele>579.73080353305</ele>
        <time>2021-01-27T14:27:46Z</time>
      </trkpt>
      <trkpt lat="43.80671" lon="7.4534">
        <ele>579.73086689355</ele>
        <time>2021-01-27T14:27:48Z</time>
      </trkpt>
      <trkpt lat="43.80671" lon="7.45342">
        <ele>579.73090645548</ele>
        <time>2021-01-27T14:27:49Z</time>
      </trkpt>
      <trkpt lat="43.8067" lon="7.45343">
        <ele>579.73094969946</ele>
        <time>2021-01-27T14:27:50Z</time>
      </trkpt>
      <trkpt lat="43.80669" lon="7.45345">
        <ele>579.73100551456</ele>
        <time>2021-01-27T14:27:51Z</time>
      </trkpt>
      <trkpt lat="43.80669" lon="7.45347">
        <ele>579.7310480495</ele>
        <time>2021-01-27T14:27:52Z</time>
      </trkpt>
      <trkpt lat="43.80667" lon="7.45349">
        <ele>579.73113118175</ele>
        <time>2021-01-27T14:27:54Z</time>
      </trkpt>
      <trkpt lat="43.80667" lon="7.45351">
        <ele>579.73118103601</ele>
        <time>2021-01-27T14:27:55Z</time>
      </trkpt>
      <trkpt lat="43.80666" lon="7.45352">
        <ele>579.73123703254</ele>
        <time>2021-01-27T14:27:56Z</time>
      </trkpt>
      <trkpt lat="43.80665" lon="7.45353">
        <ele>579.73129864217</ele>
        <time>2021-01-27T14:27:57Z</time>
      </trkpt>
      <trkpt lat="43.80664" lon="7.45355">
        <ele>578.73134958017</ele>
        <time>2021-01-27T14:27:58Z</time>
      </trkpt>
      <trkpt lat="43.80664" lon="7.45357">
        <ele>578.7313902375</ele>
        <time>2021-01-27T14:27:59Z</time>
      </trkpt>
      <trkpt lat="43.80663" lon="7.45359">
        <ele>578.73140925633</ele>
        <time>2021-01-27T14:28:00Z</time>
      </trkpt>
      <trkpt lat="43.80663" lon="7.45361">
        <ele>578.73144153263</ele>
        <time>2021-01-27T14:28:01Z</time>
      </trkpt>
      <trkpt lat="43.80662" lon="7.45362">
        <ele>578.73149423142</ele>
        <time>2021-01-27T14:28:02Z</time>
      </trkpt>
      <trkpt lat="43.80662" lon="7.45363">
        <ele>578.73153508239</ele>
        <time>2021-01-27T14:28:03Z</time>
      </trkpt>
      <trkpt lat="43.8066" lon="7.45366">
        <ele>579.731645093</ele>
        <time>2021-01-27T14:28:05Z</time>
      </trkpt>
      <trkpt lat="43.80659" lon="7.45367">
        <ele>579.73169107345</ele>
        <time>2021-01-27T14:28:06Z</time>
      </trkpt>
      <trkpt lat="43.80659" lon="7.45368">
        <ele>579.73172448372</ele>
        <time>2021-01-27T14:28:07Z</time>
      </trkpt>
      <trkpt lat="43.80658" lon="7.4537">
        <ele>579.73175827154</ele>
        <time>2021-01-27T14:28:08Z</time>
      </trkpt>
      <trkpt lat="43.80657" lon="7.45371">
        <ele>580.73180224025</ele>
        <time>2021-01-27T14:28:09Z</time>
      </trkpt>
      <trkpt lat="43.80656" lon="7.45372">
        <ele>580.73186373331</ele>
        <time>2021-01-27T14:28:10Z</time>
      </trkpt>
      <trkpt lat="43.80655" lon="7.45373">
        <ele>580.73191775272</ele>
        <time>2021-01-27T14:28:11Z</time>
      </trkpt>
      <trkpt lat="43.80655" lon="7.45374">
        <ele>580.73193874805</ele>
        <time>2021-01-27T14:28:12Z</time>
      </trkpt>
      <trkpt lat="43.80655" lon="7.45375">
        <ele>580.7319582688</ele>
        <time>2021-01-27T14:28:13Z</time>
      </trkpt>
      <trkpt lat="43.80655" lon="7.45376">
        <ele>581.73197775658</ele>
        <time>2021-01-27T14:28:15Z</time>
      </trkpt>
      <trkpt lat="43.80655" lon="7.45378">
        <ele>582.73199528571</ele>
        <time>2021-01-27T14:28:16Z</time>
      </trkpt>
      <trkpt lat="43.80654" lon="7.45378">
        <ele>582.73201448738</ele>
        <time>2021-01-27T14:28:17Z</time>
      </trkpt>
      <trkpt lat="43.80654" lon="7.45379">
        <ele>583.73206207281</ele>
        <time>2021-01-27T14:28:18Z</time>
      </trkpt>
      <trkpt lat="43.80653" lon="7.45381">
        <ele>583.73210875825</ele>
        <time>2021-01-27T14:28:19Z</time>
      </trkpt>
      <trkpt lat="43.80653" lon="7.45382">
        <ele>583.73213004181</ele>
        <time>2021-01-27T14:28:20Z</time>
      </trkpt>
      <trkpt lat="43.80652" lon="7.45383">
        <ele>585.732162567</ele>
        <time>2021-01-27T14:28:21Z</time>
      </trkpt>
      <trkpt lat="43.80651" lon="7.45384">
        <ele>585.73220887545</ele>
        <time>2021-01-27T14:28:22Z</time>
      </trkpt>
      <trkpt lat="43.8065" lon="7.45385">
        <ele>585.73226298366</ele>
        <time>2021-01-27T14:28:23Z</time>
      </trkpt>
      <trkpt lat="43.8065" lon="7.45386">
        <ele>586.73230974678</ele>
        <time>2021-01-27T14:28:24Z</time>
      </trkpt>
      <trkpt lat="43.80649" lon="7.45386">
        <ele>586.7323354199</ele>
        <time>2021-01-27T14:28:25Z</time>
      </trkpt>
      <trkpt lat="43.80648" lon="7.45388">
        <ele>586.73237922376</ele>
        <time>2021-01-27T14:28:26Z</time>
      </trkpt>
      <trkpt lat="43.80648" lon="7.45389">
        <ele>586.73241701742</ele>
        <time>2021-01-27T14:28:27Z</time>
      </trkpt>
      <trkpt lat="43.80648" lon="7.45391">
        <ele>586.7324495317</ele>
        <time>2021-01-27T14:28:28Z</time>
      </trkpt>
      <trkpt lat="43.80647" lon="7.45392">
        <ele>587.73247702759</ele>
        <time>2021-01-27T14:28:29Z</time>
      </trkpt>
      <trkpt lat="43.80646" lon="7.45394">
        <ele>587.73253301952</ele>
        <time>2021-01-27T14:28:30Z</time>
      </trkpt>
      <trkpt lat="43.80646" lon="7.45395">
        <ele>587.73257735598</ele>
        <time>2021-01-27T14:28:31Z</time>
      </trkpt>
      <trkpt lat="43.80645" lon="7.45396">
        <ele>587.73262761695</ele>
        <time>2021-01-27T14:28:32Z</time>
      </trkpt>
      <trkpt lat="43.80644" lon="7.45397">
        <ele>587.73269664879</ele>
        <time>2021-01-27T14:28:33Z</time>
      </trkpt>
      <trkpt lat="43.80642" lon="7.45398">
        <ele>587.73276583775</ele>
        <time>2021-01-27T14:28:34Z</time>
      </trkpt>
      <trkpt lat="43.80641" lon="7.45399">
        <ele>587.73283240299</ele>
        <time>2021-01-27T14:28:35Z</time>
      </trkpt>
      <trkpt lat="43.8064" lon="7.454">
        <ele>587.73289725422</ele>
        <time>2021-01-27T14:28:36Z</time>
      </trkpt>
      <trkpt lat="43.80639" lon="7.45401">
        <ele>587.7329445325</ele>
        <time>2021-01-27T14:28:37Z</time>
      </trkpt>
      <trkpt lat="43.80638" lon="7.45402">
        <ele>587.73299965279</ele>
        <time>2021-01-27T14:28:38Z</time>
      </trkpt>
      <trkpt lat="43.80637" lon="7.45403">
        <ele>587.73306366229</ele>
        <time>2021-01-27T14:28:39Z</time>
      </trkpt>
      <trkpt lat="43.80635" lon="7.45405">
        <ele>588.7331946866</ele>
        <time>2021-01-27T14:28:41Z</time>
      </trkpt>
      <trkpt lat="43.80633" lon="7.45405">
        <ele>588.73325062847</ele>
        <time>2021-01-27T14:28:42Z</time>
      </trkpt>
      <trkpt lat="43.80632" lon="7.45405">
        <ele>587.7333036794</ele>
        <time>2021-01-27T14:28:43Z</time>
      </trkpt>
      <trkpt lat="43.80631" lon="7.45406">
        <ele>587.73335246139</ele>
        <time>2021-01-27T14:28:44Z</time>
      </trkpt>
      <trkpt lat="43.80631" lon="7.45407">
        <ele>588.73338864472</ele>
        <time>2021-01-27T14:28:45Z</time>
      </trkpt>
      <trkpt lat="43.8063" lon="7.45407">
        <ele>588.73342479499</ele>
        <time>2021-01-27T14:28:46Z</time>
      </trkpt>
      <trkpt lat="43.80629" lon="7.45408">
        <ele>588.73347588103</ele>
        <time>2021-01-27T14:28:47Z</time>
      </trkpt>
      <trkpt lat="43.80627" lon="7.45408">
        <ele>588.73359590643</ele>
        <time>2021-01-27T14:28:49Z</time>
      </trkpt>
      <trkpt lat="43.80626" lon="7.45409">
        <ele>587.73365133331</ele>
        <time>2021-01-27T14:28:50Z</time>
      </trkpt>
      <trkpt lat="43.80625" lon="7.4541">
        <ele>588.73370936548</ele>
        <time>2021-01-27T14:28:51Z</time>
      </trkpt>
      <trkpt lat="43.80623" lon="7.45412">
        <ele>588.73381771905</ele>
        <time>2021-01-27T14:28:53Z</time>
      </trkpt>
      <trkpt lat="43.80622" lon="7.45413">
        <ele>588.7338662523</ele>
        <time>2021-01-27T14:28:54Z</time>
      </trkpt>
      <trkpt lat="43.80621" lon="7.45414">
        <ele>588.7339121525</ele>
        <time>2021-01-27T14:28:55Z</time>
      </trkpt>
      <trkpt lat="43.80621" lon="7.45415">
        <ele>589.73395061848</ele>
        <time>2021-01-27T14:28:56Z</time>
      </trkpt>
      <trkpt lat="43.80619" lon="7.45417">
        <ele>589.73403395288</ele>
        <time>2021-01-27T14:28:58Z</time>
      </trkpt>
      <trkpt lat="43.80618" lon="7.45417">
        <ele>589.73406832922</ele>
        <time>2021-01-27T14:28:59Z</time>
      </trkpt>
      <trkpt lat="43.80617" lon="7.45419">
        <ele>589.7341321393</ele>
        <time>2021-01-27T14:29:00Z</time>
      </trkpt>
      <trkpt lat="43.80616" lon="7.4542">
        <ele>589.73420049599</ele>
        <time>2021-01-27T14:29:01Z</time>
      </trkpt>
      <trkpt lat="43.80615" lon="7.4542">
        <ele>589.73426284709</ele>
        <time>2021-01-27T14:29:02Z</time>
      </trkpt>
      <trkpt lat="43.80614" lon="7.4542">
        <ele>590.73430841907</ele>
        <time>2021-01-27T14:29:03Z</time>
      </trkpt>
      <trkpt lat="43.80613" lon="7.4542">
        <ele>590.7343592436</ele>
        <time>2021-01-27T14:29:04Z</time>
      </trkpt>
      <trkpt lat="43.80612" lon="7.4542">
        <ele>590.73440477327</ele>
        <time>2021-01-27T14:29:05Z</time>
      </trkpt>
      <trkpt lat="43.80611" lon="7.4542">
        <ele>590.73443716598</ele>
        <time>2021-01-27T14:29:06Z</time>
      </trkpt>
      <trkpt lat="43.8061" lon="7.4542">
        <ele>589.73447189746</ele>
        <time>2021-01-27T14:29:07Z</time>
      </trkpt>
      <trkpt lat="43.8061" lon="7.4542">
        <ele>590.73449571982</ele>
        <time>2021-01-27T14:29:08Z</time>
      </trkpt>
      <trkpt lat="43.80609" lon="7.4542">
        <ele>591.73453883643</ele>
        <time>2021-01-27T14:29:09Z</time>
      </trkpt>
      <trkpt lat="43.80608" lon="7.4542">
        <ele>591.73457990099</ele>
        <time>2021-01-27T14:29:10Z</time>
      </trkpt>
      <trkpt lat="43.80607" lon="7.45422">
        <ele>591.7346266787</ele>
        <time>2021-01-27T14:29:11Z</time>
      </trkpt>
      <trkpt lat="43.80607" lon="7.45423">
        <ele>591.73468020444</ele>
        <time>2021-01-27T14:29:12Z</time>
      </trkpt>
      <trkpt lat="43.80605" lon="7.45423">
        <ele>591.7347381334</ele>
        <time>2021-01-27T14:29:13Z</time>
      </trkpt>
      <trkpt lat="43.80604" lon="7.45424">
        <ele>591.7347939264</ele>
        <time>2021-01-27T14:29:14Z</time>
      </trkpt>
      <trkpt lat="43.80604" lon="7.45425">
        <ele>591.73483158454</ele>
        <time>2021-01-27T14:29:15Z</time>
      </trkpt>
      <trkpt lat="43.80603" lon="7.45425">
        <ele>591.73486344834</ele>
        <time>2021-01-27T14:29:16Z</time>
      </trkpt>
      <trkpt lat="43.80602" lon="7.45426">
        <ele>591.73491074387</ele>
        <time>2021-01-27T14:29:17Z</time>
      </trkpt>
      <trkpt lat="43.80601" lon="7.45427">
        <ele>592.73496277648</ele>
        <time>2021-01-27T14:29:18Z</time>
      </trkpt>
      <trkpt lat="43.80599" lon="7.45428">
        <ele>592.73506592964</ele>
        <time>2021-01-27T14:29:20Z</time>
      </trkpt>
      <trkpt lat="43.80598" lon="7.45429">
        <ele>592.73512054499</ele>
        <time>2021-01-27T14:29:21Z</time>
      </trkpt>
      <trkpt lat="43.80597" lon="7.4543">
        <ele>592.73517781383</ele>
        <time>2021-01-27T14:29:22Z</time>
      </trkpt>
      <trkpt lat="43.80597" lon="7.45432">
        <ele>592.73522624838</ele>
        <time>2021-01-27T14:29:23Z</time>
      </trkpt>
      <trkpt lat="43.80596" lon="7.45433">
        <ele>593.73528940801</ele>
        <time>2021-01-27T14:29:24Z</time>
      </trkpt>
      <trkpt lat="43.80594" lon="7.45434">
        <ele>593.73535406986</ele>
        <time>2021-01-27T14:29:25Z</time>
      </trkpt>
      <trkpt lat="43.80594" lon="7.45435">
        <ele>593.73539695747</ele>
        <time>2021-01-27T14:29:26Z</time>
      </trkpt>
      <trkpt lat="43.80593" lon="7.45436">
        <ele>593.73545978481</ele>
        <time>2021-01-27T14:29:27Z</time>
      </trkpt>
      <trkpt lat="43.80591" lon="7.45438">
        <ele>593.73556871882</ele>
        <time>2021-01-27T14:29:29Z</time>
      </trkpt>
      <trkpt lat="43.80589" lon="7.4544">
        <ele>593.73564882443</ele>
        <time>2021-01-27T14:29:31Z</time>
      </trkpt>
      <trkpt lat="43.80589" lon="7.45441">
        <ele>593.73567964237</ele>
        <time>2021-01-27T14:29:32Z</time>
      </trkpt>
      <trkpt lat="43.80588" lon="7.45442">
        <ele>593.73572705904</ele>
        <time>2021-01-27T14:29:33Z</time>
      </trkpt>
      <trkpt lat="43.80586" lon="7.45445">
        <ele>592.73582975483</ele>
        <time>2021-01-27T14:29:35Z</time>
      </trkpt>
      <trkpt lat="43.80585" lon="7.45446">
        <ele>593.73588941007</ele>
        <time>2021-01-27T14:29:36Z</time>
      </trkpt>
      <trkpt lat="43.80585" lon="7.45447">
        <ele>593.73593401271</ele>
        <time>2021-01-27T14:29:37Z</time>
      </trkpt>
      <trkpt lat="43.80584" lon="7.45448">
        <ele>593.73597020108</ele>
        <time>2021-01-27T14:29:38Z</time>
      </trkpt>
      <trkpt lat="43.80584" lon="7.4545">
        <ele>594.73600845882</ele>
        <time>2021-01-27T14:29:39Z</time>
      </trkpt>
      <trkpt lat="43.80583" lon="7.45452">
        <ele>594.73605169385</ele>
        <time>2021-01-27T14:29:40Z</time>
      </trkpt>
      <trkpt lat="43.80582" lon="7.45454">
        <ele>594.73610057987</ele>
        <time>2021-01-27T14:29:41Z</time>
      </trkpt>
      <trkpt lat="43.80582" lon="7.45456">
        <ele>595.7361510729</ele>
        <time>2021-01-27T14:29:42Z</time>
      </trkpt>
      <trkpt lat="43.8058" lon="7.4546">
        <ele>595.73626562884</ele>
        <time>2021-01-27T14:29:44Z</time>
      </trkpt>
      <trkpt lat="43.80579" lon="7.45462">
        <ele>596.73631684256</ele>
        <time>2021-01-27T14:29:45Z</time>
      </trkpt>
      <trkpt lat="43.80579" lon="7.45463">
        <ele>596.73635652093</ele>
        <time>2021-01-27T14:29:46Z</time>
      </trkpt>
      <trkpt lat="43.80578" lon="7.45465">
        <ele>596.73640520107</ele>
        <time>2021-01-27T14:29:47Z</time>
      </trkpt>
      <trkpt lat="43.80577" lon="7.45466">
        <ele>596.73644743047</ele>
        <time>2021-01-27T14:29:48Z</time>
      </trkpt>
      <trkpt lat="43.80577" lon="7.45467">
        <ele>597.73649756976</ele>
        <time>2021-01-27T14:29:49Z</time>
      </trkpt>
      <trkpt lat="43.80576" lon="7.45469">
        <ele>598.73654230914</ele>
        <time>2021-01-27T14:29:50Z</time>
      </trkpt>
      <trkpt lat="43.80576" lon="7.4547">
        <ele>599.73656671376</ele>
        <time>2021-01-27T14:29:51Z</time>
      </trkpt>
      <trkpt lat="43.80575" lon="7.45472">
        <ele>599.73662094929</ele>
        <time>2021-01-27T14:29:52Z</time>
      </trkpt>
      <trkpt lat="43.80574" lon="7.45473">
        <ele>599.73669204081</ele>
        <time>2021-01-27T14:29:53Z</time>
      </trkpt>
      <trkpt lat="43.80572" lon="7.45474">
        <ele>599.73675662236</ele>
        <time>2021-01-27T14:29:54Z</time>
      </trkpt>
      <trkpt lat="43.80571" lon="7.45475">
        <ele>599.73682902961</ele>
        <time>2021-01-27T14:29:55Z</time>
      </trkpt>
      <trkpt lat="43.8057" lon="7.45477">
        <ele>599.73689752827</ele>
        <time>2021-01-27T14:29:56Z</time>
      </trkpt>
      <trkpt lat="43.80569" lon="7.45478">
        <ele>599.73696659439</ele>
        <time>2021-01-27T14:29:57Z</time>
      </trkpt>
      <trkpt lat="43.80567" lon="7.45479">
        <ele>598.73703306407</ele>
        <time>2021-01-27T14:29:58Z</time>
      </trkpt>
      <trkpt lat="43.80566" lon="7.45479">
        <ele>598.73709416509</ele>
        <time>2021-01-27T14:29:59Z</time>
      </trkpt>
      <trkpt lat="43.80565" lon="7.4548">
        <ele>598.73716113393</ele>
        <time>2021-01-27T14:30:00Z</time>
      </trkpt>
      <trkpt lat="43.80563" lon="7.45481">
        <ele>597.73725674781</ele>
        <time>2021-01-27T14:30:01Z</time>
      </trkpt>
      <trkpt lat="43.80561" lon="7.45482">
        <ele>596.73734627617</ele>
        <time>2021-01-27T14:30:02Z</time>
      </trkpt>
      <trkpt lat="43.8056" lon="7.45483">
        <ele>596.73741846624</ele>
        <time>2021-01-27T14:30:03Z</time>
      </trkpt>
      <trkpt lat="43.80559" lon="7.45483">
        <ele>595.73747456324</ele>
        <time>2021-01-27T14:30:04Z</time>
      </trkpt>
      <trkpt lat="43.80558" lon="7.45485">
        <ele>595.73754057607</ele>
        <time>2021-01-27T14:30:05Z</time>
      </trkpt>
      <trkpt lat="43.80557" lon="7.45486">
        <ele>595.73760183148</ele>
        <time>2021-01-27T14:30:06Z</time>
      </trkpt>
      <trkpt lat="43.80556" lon="7.45488">
        <ele>595.73766224183</ele>
        <time>2021-01-27T14:30:07Z</time>
      </trkpt>
      <trkpt lat="43.80554" lon="7.45489">
        <ele>595.73774158148</ele>
        <time>2021-01-27T14:30:08Z</time>
      </trkpt>
      <trkpt lat="43.80553" lon="7.45492">
        <ele>596.7378337924</ele>
        <time>2021-01-27T14:30:09Z</time>
      </trkpt>
      <trkpt lat="43.80552" lon="7.45493">
        <ele>596.73789896755</ele>
        <time>2021-01-27T14:30:10Z</time>
      </trkpt>
      <trkpt lat="43.80551" lon="7.45496">
        <ele>596.73796036637</ele>
        <time>2021-01-27T14:30:11Z</time>
      </trkpt>
      <trkpt lat="43.8055" lon="7.45497">
        <ele>596.73803364652</ele>
        <time>2021-01-27T14:30:12Z</time>
      </trkpt>
      <trkpt lat="43.80549" lon="7.455">
        <ele>596.73809500693</ele>
        <time>2021-01-27T14:30:13Z</time>
      </trkpt>
      <trkpt lat="43.80548" lon="7.45501">
        <ele>596.73814344958</ele>
        <time>2021-01-27T14:30:14Z</time>
      </trkpt>
      <trkpt lat="43.80547" lon="7.45503">
        <ele>596.73819460103</ele>
        <time>2021-01-27T14:30:15Z</time>
      </trkpt>
      <trkpt lat="43.80546" lon="7.45505">
        <ele>596.73825830486</ele>
        <time>2021-01-27T14:30:16Z</time>
      </trkpt>
      <trkpt lat="43.80545" lon="7.45506">
        <ele>595.73832499687</ele>
        <time>2021-01-27T14:30:17Z</time>
      </trkpt>
      <trkpt lat="43.80543" lon="7.45507">
        <ele>595.73841799555</ele>
        <time>2021-01-27T14:30:18Z</time>
      </trkpt>
      <trkpt lat="43.80542" lon="7.45509">
        <ele>594.73850269046</ele>
        <time>2021-01-27T14:30:19Z</time>
      </trkpt>
      <trkpt lat="43.80541" lon="7.4551">
        <ele>594.73857357819</ele>
        <time>2021-01-27T14:30:20Z</time>
      </trkpt>
      <trkpt lat="43.80539" lon="7.45511">
        <ele>594.73866045351</ele>
        <time>2021-01-27T14:30:21Z</time>
      </trkpt>
      <trkpt lat="43.80538" lon="7.45512">
        <ele>594.73871334234</ele>
        <time>2021-01-27T14:30:22Z</time>
      </trkpt>
      <trkpt lat="43.80537" lon="7.45513">
        <ele>595.73874983788</ele>
        <time>2021-01-27T14:30:23Z</time>
      </trkpt>
      <trkpt lat="43.80535" lon="7.45515">
        <ele>595.7388680225</ele>
        <time>2021-01-27T14:30:25Z</time>
      </trkpt>
      <trkpt lat="43.80534" lon="7.45516">
        <ele>595.73893665825</ele>
        <time>2021-01-27T14:30:26Z</time>
      </trkpt>
      <trkpt lat="43.80533" lon="7.45516">
        <ele>595.73901100059</ele>
        <time>2021-01-27T14:30:27Z</time>
      </trkpt>
      <trkpt lat="43.80531" lon="7.45516">
        <ele>595.73909129335</ele>
        <time>2021-01-27T14:30:28Z</time>
      </trkpt>
      <trkpt lat="43.8053" lon="7.45517">
        <ele>595.73914774066</ele>
        <time>2021-01-27T14:30:29Z</time>
      </trkpt>
      <trkpt lat="43.80529" lon="7.45518">
        <ele>595.73921592228</ele>
        <time>2021-01-27T14:30:30Z</time>
      </trkpt>
      <trkpt lat="43.80527" lon="7.45519">
        <ele>595.7392820486</ele>
        <time>2021-01-27T14:30:31Z</time>
      </trkpt>
      <trkpt lat="43.80526" lon="7.4552">
        <ele>595.73934861593</ele>
        <time>2021-01-27T14:30:32Z</time>
      </trkpt>
      <trkpt lat="43.80524" lon="7.45522">
        <ele>594.73948263203</ele>
        <time>2021-01-27T14:30:34Z</time>
      </trkpt>
      <trkpt lat="43.80523" lon="7.45523">
        <ele>594.73951662447</ele>
        <time>2021-01-27T14:30:35Z</time>
      </trkpt>
      <trkpt lat="43.80522" lon="7.45524">
        <ele>594.7395792736</ele>
        <time>2021-01-27T14:30:36Z</time>
      </trkpt>
      <trkpt lat="43.80521" lon="7.45525">
        <ele>594.73964471272</ele>
        <time>2021-01-27T14:30:37Z</time>
      </trkpt>
      <trkpt lat="43.80519" lon="7.45526">
        <ele>594.73972585886</ele>
        <time>2021-01-27T14:30:38Z</time>
      </trkpt>
      <trkpt lat="43.80518" lon="7.45526">
        <ele>594.73980564821</ele>
        <time>2021-01-27T14:30:39Z</time>
      </trkpt>
      <trkpt lat="43.80516" lon="7.45528">
        <ele>594.73987363909</ele>
        <time>2021-01-27T14:30:40Z</time>
      </trkpt>
      <trkpt lat="43.80516" lon="7.45528">
        <ele>594.73991485694</ele>
        <time>2021-01-27T14:30:41Z</time>
      </trkpt>
      <trkpt lat="43.80515" lon="7.45529">
        <ele>594.73996402273</ele>
        <time>2021-01-27T14:30:42Z</time>
      </trkpt>
      <trkpt lat="43.80514" lon="7.45531">
        <ele>595.7400030519</ele>
        <time>2021-01-27T14:30:43Z</time>
      </trkpt>
      <trkpt lat="43.80513" lon="7.45531">
        <ele>595.74006190663</ele>
        <time>2021-01-27T14:30:44Z</time>
      </trkpt>
      <trkpt lat="43.80512" lon="7.45532">
        <ele>595.74012312534</ele>
        <time>2021-01-27T14:30:45Z</time>
      </trkpt>
      <trkpt lat="43.80511" lon="7.45533">
        <ele>596.74018663106</ele>
        <time>2021-01-27T14:30:46Z</time>
      </trkpt>
      <trkpt lat="43.80509" lon="7.45534">
        <ele>596.74026225313</ele>
        <time>2021-01-27T14:30:47Z</time>
      </trkpt>
      <trkpt lat="43.80508" lon="7.45535">
        <ele>596.74032529069</ele>
        <time>2021-01-27T14:30:48Z</time>
      </trkpt>
      <trkpt lat="43.80506" lon="7.45535">
        <ele>596.74044526633</ele>
        <time>2021-01-27T14:30:50Z</time>
      </trkpt>
      <trkpt lat="43.80505" lon="7.45535">
        <ele>596.74049507825</ele>
        <time>2021-01-27T14:30:51Z</time>
      </trkpt>
      <trkpt lat="43.80503" lon="7.45535">
        <ele>596.74055125547</ele>
        <time>2021-01-27T14:30:52Z</time>
      </trkpt>
      <trkpt lat="43.80501" lon="7.45535">
        <ele>596.74065704601</ele>
        <time>2021-01-27T14:30:54Z</time>
      </trkpt>
      <trkpt lat="43.80501" lon="7.45538">
        <ele>594.74070461491</ele>
        <time>2021-01-27T14:30:56Z</time>
      </trkpt>
      <trkpt lat="43.805" lon="7.4554">
        <ele>595.74075653715</ele>
        <time>2021-01-27T14:30:57Z</time>
      </trkpt>
      <trkpt lat="43.80499" lon="7.45541">
        <ele>595.74082878441</ele>
        <time>2021-01-27T14:30:58Z</time>
      </trkpt>
      <trkpt lat="43.80498" lon="7.45543">
        <ele>595.74089086215</ele>
        <time>2021-01-27T14:30:59Z</time>
      </trkpt>
      <trkpt lat="43.80497" lon="7.45545">
        <ele>595.74095952316</ele>
        <time>2021-01-27T14:31:00Z</time>
      </trkpt>
      <trkpt lat="43.80496" lon="7.45547">
        <ele>595.74102383849</ele>
        <time>2021-01-27T14:31:01Z</time>
      </trkpt>
      <trkpt lat="43.80494" lon="7.45548">
        <ele>594.74109150549</ele>
        <time>2021-01-27T14:31:02Z</time>
      </trkpt>
      <trkpt lat="43.80493" lon="7.4555">
        <ele>595.74116802634</ele>
        <time>2021-01-27T14:31:03Z</time>
      </trkpt>
      <trkpt lat="43.8049" lon="7.45551">
        <ele>595.74131454344</ele>
        <time>2021-01-27T14:31:05Z</time>
      </trkpt>
      <trkpt lat="43.80488" lon="7.45552">
        <ele>596.74140586443</ele>
        <time>2021-01-27T14:31:06Z</time>
      </trkpt>
      <trkpt lat="43.80487" lon="7.45553">
        <ele>595.74147494424</ele>
        <time>2021-01-27T14:31:07Z</time>
      </trkpt>
      <trkpt lat="43.80486" lon="7.45554">
        <ele>595.74153795238</ele>
        <time>2021-01-27T14:31:08Z</time>
      </trkpt>
      <trkpt lat="43.80484" lon="7.45556">
        <ele>595.74164094141</ele>
        <time>2021-01-27T14:31:10Z</time>
      </trkpt>
      <trkpt lat="43.80483" lon="7.45558">
        <ele>595.74171303637</ele>
        <time>2021-01-27T14:31:11Z</time>
      </trkpt>
      <trkpt lat="43.80482" lon="7.4556">
        <ele>595.74178574722</ele>
        <time>2021-01-27T14:31:12Z</time>
      </trkpt>
      <trkpt lat="43.8048" lon="7.45561">
        <ele>594.74185996317</ele>
        <time>2021-01-27T14:31:13Z</time>
      </trkpt>
      <trkpt lat="43.80479" lon="7.45562">
        <ele>595.74192405005</ele>
        <time>2021-01-27T14:31:14Z</time>
      </trkpt>
      <trkpt lat="43.80478" lon="7.45563">
        <ele>595.74199976561</ele>
        <time>2021-01-27T14:31:15Z</time>
      </trkpt>
      <trkpt lat="43.80476" lon="7.45564">
        <ele>596.74208233801</ele>
        <time>2021-01-27T14:31:16Z</time>
      </trkpt>
      <trkpt lat="43.80475" lon="7.45565">
        <ele>595.74215393513</ele>
        <time>2021-01-27T14:31:17Z</time>
      </trkpt>
      <trkpt lat="43.80474" lon="7.45566">
        <ele>595.74222447215</ele>
        <time>2021-01-27T14:31:18Z</time>
      </trkpt>
      <trkpt lat="43.80472" lon="7.45567">
        <ele>595.74231477168</ele>
        <time>2021-01-27T14:31:19Z</time>
      </trkpt>
      <trkpt lat="43.8047" lon="7.45568">
        <ele>595.74239874488</ele>
        <time>2021-01-27T14:31:20Z</time>
      </trkpt>
      <trkpt lat="43.80469" lon="7.45569">
        <ele>595.74248255711</ele>
        <time>2021-01-27T14:31:21Z</time>
      </trkpt>
      <trkpt lat="43.80467" lon="7.45569">
        <ele>596.74255099876</ele>
        <time>2021-01-27T14:31:22Z</time>
      </trkpt>
      <trkpt lat="43.80466" lon="7.4557">
        <ele>596.74261595516</ele>
        <time>2021-01-27T14:31:23Z</time>
      </trkpt>
      <trkpt lat="43.80465" lon="7.4557">
        <ele>596.74268798588</ele>
        <time>2021-01-27T14:31:24Z</time>
      </trkpt>
      <trkpt lat="43.80463" lon="7.4557">
        <ele>596.74274466264</ele>
        <time>2021-01-27T14:31:25Z</time>
      </trkpt>
      <trkpt lat="43.80462" lon="7.4557">
        <ele>596.74281628009</ele>
        <time>2021-01-27T14:31:26Z</time>
      </trkpt>
      <trkpt lat="43.8046" lon="7.45571">
        <ele>596.74289580634</ele>
        <time>2021-01-27T14:31:27Z</time>
      </trkpt>
      <trkpt lat="43.80459" lon="7.45571">
        <ele>597.74297129202</ele>
        <time>2021-01-27T14:31:28Z</time>
      </trkpt>
      <trkpt lat="43.80457" lon="7.4557">
        <ele>597.74303950504</ele>
        <time>2021-01-27T14:31:29Z</time>
      </trkpt>
      <trkpt lat="43.80456" lon="7.4557">
        <ele>597.7430928738</ele>
        <time>2021-01-27T14:31:30Z</time>
      </trkpt>
      <trkpt lat="43.80455" lon="7.4557">
        <ele>597.74314599059</ele>
        <time>2021-01-27T14:31:31Z</time>
      </trkpt>
      <trkpt lat="43.80454" lon="7.45571">
        <ele>596.74319555039</ele>
        <time>2021-01-27T14:31:32Z</time>
      </trkpt>
      <trkpt lat="43.80453" lon="7.45571">
        <ele>596.74322799669</ele>
        <time>2021-01-27T14:31:33Z</time>
      </trkpt>
      <trkpt lat="43.80452" lon="7.45571">
        <ele>596.74326264706</ele>
        <time>2021-01-27T14:31:34Z</time>
      </trkpt>
      <trkpt lat="43.80452" lon="7.45571">
        <ele>596.74330668278</ele>
        <time>2021-01-27T14:31:35Z</time>
      </trkpt>
      <trkpt lat="43.8045" lon="7.45571">
        <ele>596.74336201122</ele>
        <time>2021-01-27T14:31:36Z</time>
      </trkpt>
      <trkpt lat="43.80449" lon="7.45571">
        <ele>595.74341625698</ele>
        <time>2021-01-27T14:31:37Z</time>
      </trkpt>
      <trkpt lat="43.80448" lon="7.4557">
        <ele>595.74344923025</ele>
        <time>2021-01-27T14:31:38Z</time>
      </trkpt>
      <trkpt lat="43.80448" lon="7.4557">
        <ele>594.74347318813</ele>
        <time>2021-01-27T14:31:42Z</time>
      </trkpt>
      <trkpt lat="43.80447" lon="7.45567">
        <ele>596.74349434343</ele>
        <time>2021-01-27T14:31:44Z</time>
      </trkpt>
      <trkpt lat="43.80446" lon="7.45566">
        <ele>595.74351414232</ele>
        <time>2021-01-27T14:31:45Z</time>
      </trkpt>
      <trkpt lat="43.80447" lon="7.45567">
        <ele>595.74350373194</ele>
        <time>2021-01-27T14:31:46Z</time>
      </trkpt>
      <trkpt lat="43.80446" lon="7.45567">
        <ele>595.74352654504</ele>
        <time>2021-01-27T14:31:54Z</time>
      </trkpt>
      <trkpt lat="43.80445" lon="7.45567">
        <ele>596.7435755419</ele>
        <time>2021-01-27T14:31:56Z</time>
      </trkpt>
      <trkpt lat="43.80445" lon="7.45566">
        <ele>597.74357221246</ele>
        <time>2021-01-27T14:32:02Z</time>
      </trkpt>
      <trkpt lat="43.80444" lon="7.45566">
        <ele>598.743642257</ele>
        <time>2021-01-27T14:32:03Z</time>
      </trkpt>
      <trkpt lat="43.80444" lon="7.45566">
        <ele>598.74364373323</ele>
        <time>2021-01-27T14:32:10Z</time>
      </trkpt>
      <trkpt lat="43.80445" lon="7.45566">
        <ele>598.74359586143</ele>
        <time>2021-01-27T14:32:11Z</time>
      </trkpt>
      <trkpt lat="43.80444" lon="7.45566">
        <ele>599.74360971745</ele>
        <time>2021-01-27T14:32:13Z</time>
      </trkpt>
      <trkpt lat="43.80443" lon="7.45565">
        <ele>598.74365458084</ele>
        <time>2021-01-27T14:32:14Z</time>
      </trkpt>
      <trkpt lat="43.80442" lon="7.45565">
        <ele>598.74371014668</ele>
        <time>2021-01-27T14:32:15Z</time>
      </trkpt>
      <trkpt lat="43.8044" lon="7.45566">
        <ele>598.74379440212</ele>
        <time>2021-01-27T14:32:16Z</time>
      </trkpt>
      <trkpt lat="43.80438" lon="7.45565">
        <ele>597.74387668174</ele>
        <time>2021-01-27T14:32:17Z</time>
      </trkpt>
      <trkpt lat="43.80437" lon="7.45564">
        <ele>598.74395411725</ele>
        <time>2021-01-27T14:32:18Z</time>
      </trkpt>
      <trkpt lat="43.80435" lon="7.45563">
        <ele>598.74403867585</ele>
        <time>2021-01-27T14:32:19Z</time>
      </trkpt>
      <trkpt lat="43.80433" lon="7.45563">
        <ele>598.74409770525</ele>
        <time>2021-01-27T14:32:20Z</time>
      </trkpt>
      <trkpt lat="43.80432" lon="7.45562">
        <ele>598.74414840438</ele>
        <time>2021-01-27T14:32:21Z</time>
      </trkpt>
      <trkpt lat="43.8043" lon="7.45562">
        <ele>598.74422161361</ele>
        <time>2021-01-27T14:32:22Z</time>
      </trkpt>
      <trkpt lat="43.80429" lon="7.45561">
        <ele>598.7442839142</ele>
        <time>2021-01-27T14:32:23Z</time>
      </trkpt>
      <trkpt lat="43.80426" lon="7.4556">
        <ele>598.74439278867</ele>
        <time>2021-01-27T14:32:25Z</time>
      </trkpt>
      <trkpt lat="43.80425" lon="7.4556">
        <ele>598.74446549823</ele>
        <time>2021-01-27T14:32:26Z</time>
      </trkpt>
      <trkpt lat="43.80423" lon="7.45559">
        <ele>598.74454274964</ele>
        <time>2021-01-27T14:32:27Z</time>
      </trkpt>
      <trkpt lat="43.80422" lon="7.45559">
        <ele>598.74460324172</ele>
        <time>2021-01-27T14:32:28Z</time>
      </trkpt>
      <trkpt lat="43.8042" lon="7.45559">
        <ele>598.7446689526</ele>
        <time>2021-01-27T14:32:29Z</time>
      </trkpt>
      <trkpt lat="43.80419" lon="7.45558">
        <ele>598.74472916882</ele>
        <time>2021-01-27T14:32:30Z</time>
      </trkpt>
      <trkpt lat="43.80418" lon="7.45558">
        <ele>598.74478319428</ele>
        <time>2021-01-27T14:32:31Z</time>
      </trkpt>
      <trkpt lat="43.80416" lon="7.45557">
        <ele>599.74483946786</ele>
        <time>2021-01-27T14:32:32Z</time>
      </trkpt>
      <trkpt lat="43.80416" lon="7.45558">
        <ele>599.74486472179</ele>
        <time>2021-01-27T14:32:33Z</time>
      </trkpt>
      <trkpt lat="43.80415" lon="7.45558">
        <ele>599.74490181748</ele>
        <time>2021-01-27T14:32:34Z</time>
      </trkpt>
      <trkpt lat="43.80414" lon="7.45558">
        <ele>598.7449504798</ele>
        <time>2021-01-27T14:32:35Z</time>
      </trkpt>
      <trkpt lat="43.80413" lon="7.45557">
        <ele>599.74498356246</ele>
        <time>2021-01-27T14:32:36Z</time>
      </trkpt>
      <trkpt lat="43.80413" lon="7.45557">
        <ele>599.74500755007</ele>
        <time>2021-01-27T14:32:37Z</time>
      </trkpt>
      <trkpt lat="43.80412" lon="7.45556">
        <ele>599.74503552483</ele>
        <time>2021-01-27T14:32:39Z</time>
      </trkpt>
      <trkpt lat="43.80412" lon="7.45556">
        <ele>599.74504303356</ele>
        <time>2021-01-27T14:32:40Z</time>
      </trkpt>
      <trkpt lat="43.80411" lon="7.45555">
        <ele>599.74507530848</ele>
        <time>2021-01-27T14:32:41Z</time>
      </trkpt>
      <trkpt lat="43.8041" lon="7.45554">
        <ele>598.74510840794</ele>
        <time>2021-01-27T14:32:42Z</time>
      </trkpt>
      <trkpt lat="43.80409" lon="7.45551">
        <ele>598.74516626956</ele>
        <time>2021-01-27T14:32:44Z</time>
      </trkpt>
      <trkpt lat="43.80407" lon="7.4555">
        <ele>599.74520718866</ele>
        <time>2021-01-27T14:32:45Z</time>
      </trkpt>
      <trkpt lat="43.80406" lon="7.45549">
        <ele>599.74524775216</ele>
        <time>2021-01-27T14:32:46Z</time>
      </trkpt>
      <trkpt lat="43.80406" lon="7.45549">
        <ele>599.74527328723</ele>
        <time>2021-01-27T14:32:47Z</time>
      </trkpt>
      <trkpt lat="43.80405" lon="7.45548">
        <ele>599.74531084</ele>
        <time>2021-01-27T14:32:48Z</time>
      </trkpt>
      <trkpt lat="43.80404" lon="7.45548">
        <ele>599.74533089671</ele>
        <time>2021-01-27T14:32:49Z</time>
      </trkpt>
      <trkpt lat="43.80404" lon="7.45548">
        <ele>599.74536408049</ele>
        <time>2021-01-27T14:32:50Z</time>
      </trkpt>
      <trkpt lat="43.80403" lon="7.45549">
        <ele>600.74537838816</ele>
        <time>2021-01-27T14:32:51Z</time>
      </trkpt>
      <trkpt lat="43.80403" lon="7.4555">
        <ele>601.74541970104</ele>
        <time>2021-01-27T14:32:52Z</time>
      </trkpt>
      <trkpt lat="43.80402" lon="7.4555">
        <ele>601.74545513773</ele>
        <time>2021-01-27T14:32:53Z</time>
      </trkpt>
      <trkpt lat="43.80402" lon="7.45551">
        <ele>601.74549468455</ele>
        <time>2021-01-27T14:32:54Z</time>
      </trkpt>
      <trkpt lat="43.80401" lon="7.45551">
        <ele>601.74551923017</ele>
        <time>2021-01-27T14:32:55Z</time>
      </trkpt>
      <trkpt lat="43.80401" lon="7.45553">
        <ele>601.74554706972</ele>
        <time>2021-01-27T14:32:56Z</time>
      </trkpt>
      <trkpt lat="43.804" lon="7.45554">
        <ele>601.74559411393</ele>
        <time>2021-01-27T14:32:57Z</time>
      </trkpt>
      <trkpt lat="43.80398" lon="7.45557">
        <ele>600.7457049544</ele>
        <time>2021-01-27T14:32:59Z</time>
      </trkpt>
      <trkpt lat="43.80397" lon="7.45558">
        <ele>600.74574383433</ele>
        <time>2021-01-27T14:33:00Z</time>
      </trkpt>
      <trkpt lat="43.80397" lon="7.45559">
        <ele>601.74578427237</ele>
        <time>2021-01-27T14:33:01Z</time>
      </trkpt>
      <trkpt lat="43.80396" lon="7.4556">
        <ele>601.7458343024</ele>
        <time>2021-01-27T14:33:02Z</time>
      </trkpt>
      <trkpt lat="43.80395" lon="7.45561">
        <ele>601.74587820922</ele>
        <time>2021-01-27T14:33:03Z</time>
      </trkpt>
      <trkpt lat="43.80394" lon="7.45564">
        <ele>601.74594379237</ele>
        <time>2021-01-27T14:33:05Z</time>
      </trkpt>
      <trkpt lat="43.80394" lon="7.45565">
        <ele>601.74598320329</ele>
        <time>2021-01-27T14:33:06Z</time>
      </trkpt>
      <trkpt lat="43.80393" lon="7.45566">
        <ele>600.74603133427</ele>
        <time>2021-01-27T14:33:07Z</time>
      </trkpt>
      <trkpt lat="43.8039" lon="7.45567">
        <ele>601.74615476738</ele>
        <time>2021-01-27T14:33:09Z</time>
      </trkpt>
      <trkpt lat="43.8039" lon="7.45568">
        <ele>601.74620445548</ele>
        <time>2021-01-27T14:33:10Z</time>
      </trkpt>
      <trkpt lat="43.80389" lon="7.45569">
        <ele>601.74624374864</ele>
        <time>2021-01-27T14:33:11Z</time>
      </trkpt>
      <trkpt lat="43.80388" lon="7.4557">
        <ele>602.74628680573</ele>
        <time>2021-01-27T14:33:12Z</time>
      </trkpt>
      <trkpt lat="43.80387" lon="7.45572">
        <ele>602.74633138564</ele>
        <time>2021-01-27T14:33:13Z</time>
      </trkpt>
      <trkpt lat="43.80387" lon="7.45573">
        <ele>602.7463745509</ele>
        <time>2021-01-27T14:33:14Z</time>
      </trkpt>
      <trkpt lat="43.80386" lon="7.45574">
        <ele>603.74642973012</ele>
        <time>2021-01-27T14:33:15Z</time>
      </trkpt>
      <trkpt lat="43.80385" lon="7.45576">
        <ele>604.74648472757</ele>
        <time>2021-01-27T14:33:16Z</time>
      </trkpt>
      <trkpt lat="43.80384" lon="7.45577">
        <ele>603.74652667109</ele>
        <time>2021-01-27T14:33:17Z</time>
      </trkpt>
      <trkpt lat="43.80384" lon="7.45578">
        <ele>603.74655805797</ele>
        <time>2021-01-27T14:33:18Z</time>
      </trkpt>
      <trkpt lat="43.80383" lon="7.4558">
        <ele>603.74661405331</ele>
        <time>2021-01-27T14:33:20Z</time>
      </trkpt>
      <trkpt lat="43.80383" lon="7.45582">
        <ele>603.74665034493</ele>
        <time>2021-01-27T14:33:21Z</time>
      </trkpt>
      <trkpt lat="43.80381" lon="7.45583">
        <ele>603.74671500817</ele>
        <time>2021-01-27T14:33:22Z</time>
      </trkpt>
      <trkpt lat="43.8038" lon="7.45583">
        <ele>604.74677872154</ele>
        <time>2021-01-27T14:33:23Z</time>
      </trkpt>
      <trkpt lat="43.80379" lon="7.45584">
        <ele>604.74681959967</ele>
        <time>2021-01-27T14:33:24Z</time>
      </trkpt>
      <trkpt lat="43.80378" lon="7.45585">
        <ele>604.74687097762</ele>
        <time>2021-01-27T14:33:25Z</time>
      </trkpt>
      <trkpt lat="43.80377" lon="7.45586">
        <ele>604.74692645077</ele>
        <time>2021-01-27T14:33:26Z</time>
      </trkpt>
      <trkpt lat="43.80377" lon="7.45587">
        <ele>604.74697487338</ele>
        <time>2021-01-27T14:33:27Z</time>
      </trkpt>
      <trkpt lat="43.80376" lon="7.45588">
        <ele>605.74701903056</ele>
        <time>2021-01-27T14:33:28Z</time>
      </trkpt>
      <trkpt lat="43.80375" lon="7.45589">
        <ele>605.7470618699</ele>
        <time>2021-01-27T14:33:29Z</time>
      </trkpt>
      <trkpt lat="43.80374" lon="7.45591">
        <ele>605.7471111461</ele>
        <time>2021-01-27T14:33:30Z</time>
      </trkpt>
      <trkpt lat="43.80374" lon="7.45592">
        <ele>605.74715835173</ele>
        <time>2021-01-27T14:33:31Z</time>
      </trkpt>
      <trkpt lat="43.80372" lon="7.45593">
        <ele>605.74721971377</ele>
        <time>2021-01-27T14:33:32Z</time>
      </trkpt>
      <trkpt lat="43.80371" lon="7.45594">
        <ele>605.74727357968</ele>
        <time>2021-01-27T14:33:33Z</time>
      </trkpt>
      <trkpt lat="43.80371" lon="7.45595">
        <ele>605.74732524683</ele>
        <time>2021-01-27T14:33:34Z</time>
      </trkpt>
      <trkpt lat="43.8037" lon="7.45596">
        <ele>605.74738226371</ele>
        <time>2021-01-27T14:33:35Z</time>
      </trkpt>
      <trkpt lat="43.80369" lon="7.45597">
        <ele>605.74743543284</ele>
        <time>2021-01-27T14:33:36Z</time>
      </trkpt>
      <trkpt lat="43.80368" lon="7.45598">
        <ele>605.74748434498</ele>
        <time>2021-01-27T14:33:37Z</time>
      </trkpt>
      <trkpt lat="43.80367" lon="7.45599">
        <ele>605.74753809358</ele>
        <time>2021-01-27T14:33:38Z</time>
      </trkpt>
      <trkpt lat="43.80366" lon="7.45599">
        <ele>604.74759245331</ele>
        <time>2021-01-27T14:33:39Z</time>
      </trkpt>
      <trkpt lat="43.80365" lon="7.456">
        <ele>604.74764785017</ele>
        <time>2021-01-27T14:33:40Z</time>
      </trkpt>
      <trkpt lat="43.80363" lon="7.456">
        <ele>604.74770331183</ele>
        <time>2021-01-27T14:33:41Z</time>
      </trkpt>
      <trkpt lat="43.80362" lon="7.45601">
        <ele>604.74776576763</ele>
        <time>2021-01-27T14:33:42Z</time>
      </trkpt>
      <trkpt lat="43.80361" lon="7.45601">
        <ele>604.74782794752</ele>
        <time>2021-01-27T14:33:43Z</time>
      </trkpt>
      <trkpt lat="43.8036" lon="7.45601">
        <ele>604.74790082452</ele>
        <time>2021-01-27T14:33:44Z</time>
      </trkpt>
      <trkpt lat="43.80358" lon="7.45602">
        <ele>605.74798125553</ele>
        <time>2021-01-27T14:33:45Z</time>
      </trkpt>
      <trkpt lat="43.80357" lon="7.45603">
        <ele>605.74805138813</ele>
        <time>2021-01-27T14:33:46Z</time>
      </trkpt>
      <trkpt lat="43.80355" lon="7.45603">
        <ele>605.74810809133</ele>
        <time>2021-01-27T14:33:47Z</time>
      </trkpt>
      <trkpt lat="43.80352" lon="7.45603">
        <ele>604.7482472982</ele>
        <time>2021-01-27T14:33:49Z</time>
      </trkpt>
      <trkpt lat="43.80351" lon="7.45603">
        <ele>604.74830261886</ele>
        <time>2021-01-27T14:33:50Z</time>
      </trkpt>
      <trkpt lat="43.8035" lon="7.45603">
        <ele>604.74837630918</ele>
        <time>2021-01-27T14:33:51Z</time>
      </trkpt>
      <trkpt lat="43.80349" lon="7.45604">
        <ele>604.74843139772</ele>
        <time>2021-01-27T14:33:52Z</time>
      </trkpt>
      <trkpt lat="43.80347" lon="7.45603">
        <ele>604.74849932879</ele>
        <time>2021-01-27T14:33:53Z</time>
      </trkpt>
      <trkpt lat="43.80346" lon="7.45603">
        <ele>603.74855681656</ele>
        <time>2021-01-27T14:33:54Z</time>
      </trkpt>
      <trkpt lat="43.80345" lon="7.45603">
        <ele>604.74862082777</ele>
        <time>2021-01-27T14:33:55Z</time>
      </trkpt>
      <trkpt lat="43.80343" lon="7.45603">
        <ele>604.74869709515</ele>
        <time>2021-01-27T14:33:56Z</time>
      </trkpt>
      <trkpt lat="43.80342" lon="7.45604">
        <ele>604.7487553692</ele>
        <time>2021-01-27T14:33:57Z</time>
      </trkpt>
      <trkpt lat="43.80339" lon="7.45604">
        <ele>604.7489126458</ele>
        <time>2021-01-27T14:33:59Z</time>
      </trkpt>
      <trkpt lat="43.80337" lon="7.45604">
        <ele>604.74897374025</ele>
        <time>2021-01-27T14:34:00Z</time>
      </trkpt>
      <trkpt lat="43.80336" lon="7.45603">
        <ele>604.74904455166</ele>
        <time>2021-01-27T14:34:01Z</time>
      </trkpt>
      <trkpt lat="43.80334" lon="7.45602">
        <ele>604.74909825157</ele>
        <time>2021-01-27T14:34:02Z</time>
      </trkpt>
      <trkpt lat="43.80333" lon="7.45602">
        <ele>605.74916105875</ele>
        <time>2021-01-27T14:34:03Z</time>
      </trkpt>
      <trkpt lat="43.80332" lon="7.45602">
        <ele>605.74920778085</ele>
        <time>2021-01-27T14:34:04Z</time>
      </trkpt>
      <trkpt lat="43.80331" lon="7.45601">
        <ele>605.74925527654</ele>
        <time>2021-01-27T14:34:05Z</time>
      </trkpt>
      <trkpt lat="43.8033" lon="7.456">
        <ele>604.74929484616</ele>
        <time>2021-01-27T14:34:06Z</time>
      </trkpt>
      <trkpt lat="43.80328" lon="7.456">
        <ele>604.74935617989</ele>
        <time>2021-01-27T14:34:07Z</time>
      </trkpt>
      <trkpt lat="43.80327" lon="7.456">
        <ele>604.74940410953</ele>
        <time>2021-01-27T14:34:08Z</time>
      </trkpt>
      <trkpt lat="43.80326" lon="7.45601">
        <ele>603.74946018356</ele>
        <time>2021-01-27T14:34:09Z</time>
      </trkpt>
      <trkpt lat="43.80325" lon="7.45601">
        <ele>603.74952648078</ele>
        <time>2021-01-27T14:34:10Z</time>
      </trkpt>
      <trkpt lat="43.80324" lon="7.45602">
        <ele>602.74959039058</ele>
        <time>2021-01-27T14:34:11Z</time>
      </trkpt>
      <trkpt lat="43.80322" lon="7.45602">
        <ele>602.74966187771</ele>
        <time>2021-01-27T14:34:12Z</time>
      </trkpt>
      <trkpt lat="43.80321" lon="7.45602">
        <ele>602.74972230503</ele>
        <time>2021-01-27T14:34:13Z</time>
      </trkpt>
      <trkpt lat="43.8032" lon="7.45602">
        <ele>602.74978310758</ele>
        <time>2021-01-27T14:34:14Z</time>
      </trkpt>
      <trkpt lat="43.80318" lon="7.45603">
        <ele>602.74984488473</ele>
        <time>2021-01-27T14:34:15Z</time>
      </trkpt>
      <trkpt lat="43.80317" lon="7.45603">
        <ele>601.74991395418</ele>
        <time>2021-01-27T14:34:16Z</time>
      </trkpt>
      <trkpt lat="43.80316" lon="7.45603">
        <ele>601.74998477525</ele>
        <time>2021-01-27T14:34:17Z</time>
      </trkpt>
      <trkpt lat="43.80313" lon="7.45601">
        <ele>600.75006684136</ele>
        <time>2021-01-27T14:34:19Z</time>
      </trkpt>
      <trkpt lat="43.80312" lon="7.45602">
        <ele>600.75012355149</ele>
        <time>2021-01-27T14:34:20Z</time>
      </trkpt>
      <trkpt lat="43.80311" lon="7.45602">
        <ele>600.75018624748</ele>
        <time>2021-01-27T14:34:21Z</time>
      </trkpt>
      <trkpt lat="43.80309" lon="7.45603">
        <ele>600.75027179151</ele>
        <time>2021-01-27T14:34:22Z</time>
      </trkpt>
      <trkpt lat="43.80308" lon="7.45602">
        <ele>600.75032176823</ele>
        <time>2021-01-27T14:34:23Z</time>
      </trkpt>
      <trkpt lat="43.80307" lon="7.45602">
        <ele>599.75036342801</ele>
        <time>2021-01-27T14:34:24Z</time>
      </trkpt>
      <trkpt lat="43.80304" lon="7.45602">
        <ele>599.75050439729</ele>
        <time>2021-01-27T14:34:26Z</time>
      </trkpt>
      <trkpt lat="43.80303" lon="7.45602">
        <ele>599.75056251791</ele>
        <time>2021-01-27T14:34:27Z</time>
      </trkpt>
      <trkpt lat="43.80301" lon="7.45601">
        <ele>599.75064282724</ele>
        <time>2021-01-27T14:34:28Z</time>
      </trkpt>
      <trkpt lat="43.803" lon="7.45601">
        <ele>599.75070512272</ele>
        <time>2021-01-27T14:34:29Z</time>
      </trkpt>
      <trkpt lat="43.80299" lon="7.45601">
        <ele>599.75075565852</ele>
        <time>2021-01-27T14:34:30Z</time>
      </trkpt>
      <trkpt lat="43.80297" lon="7.456">
        <ele>599.75081995932</ele>
        <time>2021-01-27T14:34:31Z</time>
      </trkpt>
      <trkpt lat="43.80296" lon="7.456">
        <ele>599.75087231961</ele>
        <time>2021-01-27T14:34:32Z</time>
      </trkpt>
      <trkpt lat="43.80295" lon="7.456">
        <ele>600.75093934755</ele>
        <time>2021-01-27T14:34:33Z</time>
      </trkpt>
      <trkpt lat="43.80293" lon="7.456">
        <ele>600.75100594319</ele>
        <time>2021-01-27T14:34:34Z</time>
      </trkpt>
      <trkpt lat="43.80292" lon="7.456">
        <ele>600.75106827238</ele>
        <time>2021-01-27T14:34:35Z</time>
      </trkpt>
      <trkpt lat="43.80291" lon="7.456">
        <ele>600.75113001002</ele>
        <time>2021-01-27T14:34:36Z</time>
      </trkpt>
      <trkpt lat="43.80289" lon="7.456">
        <ele>600.75120078573</ele>
        <time>2021-01-27T14:34:37Z</time>
      </trkpt>
      <trkpt lat="43.80288" lon="7.45599">
        <ele>601.75125197691</ele>
        <time>2021-01-27T14:34:38Z</time>
      </trkpt>
      <trkpt lat="43.80287" lon="7.45598">
        <ele>601.75130884139</ele>
        <time>2021-01-27T14:34:39Z</time>
      </trkpt>
      <trkpt lat="43.80285" lon="7.45598">
        <ele>601.75136347995</ele>
        <time>2021-01-27T14:34:40Z</time>
      </trkpt>
      <trkpt lat="43.80284" lon="7.45598">
        <ele>601.75143390141</ele>
        <time>2021-01-27T14:34:41Z</time>
      </trkpt>
      <trkpt lat="43.80282" lon="7.45597">
        <ele>600.75150018433</ele>
        <time>2021-01-27T14:34:42Z</time>
      </trkpt>
      <trkpt lat="43.80281" lon="7.45597">
        <ele>600.75157483597</ele>
        <time>2021-01-27T14:34:43Z</time>
      </trkpt>
      <trkpt lat="43.80279" lon="7.45597">
        <ele>600.75164810011</ele>
        <time>2021-01-27T14:34:44Z</time>
      </trkpt>
      <trkpt lat="43.80278" lon="7.45598">
        <ele>600.75172538802</ele>
        <time>2021-01-27T14:34:45Z</time>
      </trkpt>
      <trkpt lat="43.80276" lon="7.45598">
        <ele>600.75180228872</ele>
        <time>2021-01-27T14:34:46Z</time>
      </trkpt>
      <trkpt lat="43.80275" lon="7.456">
        <ele>600.75187514819</ele>
        <time>2021-01-27T14:34:47Z</time>
      </trkpt>
      <trkpt lat="43.80274" lon="7.45601">
        <ele>600.75193536192</ele>
        <time>2021-01-27T14:34:48Z</time>
      </trkpt>
      <trkpt lat="43.80273" lon="7.45602">
        <ele>601.75198336679</ele>
        <time>2021-01-27T14:34:49Z</time>
      </trkpt>
      <trkpt lat="43.80272" lon="7.45603">
        <ele>600.75203814174</ele>
        <time>2021-01-27T14:34:50Z</time>
      </trkpt>
      <trkpt lat="43.80271" lon="7.45605">
        <ele>600.75207945067</ele>
        <time>2021-01-27T14:34:51Z</time>
      </trkpt>
      <trkpt lat="43.80271" lon="7.45608">
        <ele>600.75213043041</ele>
        <time>2021-01-27T14:34:52Z</time>
      </trkpt>
      <trkpt lat="43.8027" lon="7.4561">
        <ele>600.7521848994</ele>
        <time>2021-01-27T14:34:53Z</time>
      </trkpt>
      <trkpt lat="43.80269" lon="7.45612">
        <ele>600.75223458082</ele>
        <time>2021-01-27T14:34:54Z</time>
      </trkpt>
      <trkpt lat="43.80268" lon="7.45615">
        <ele>600.75234197599</ele>
        <time>2021-01-27T14:34:56Z</time>
      </trkpt>
      <trkpt lat="43.80267" lon="7.45617">
        <ele>600.75238471857</ele>
        <time>2021-01-27T14:34:57Z</time>
      </trkpt>
      <trkpt lat="43.80267" lon="7.45619">
        <ele>600.75241997117</ele>
        <time>2021-01-27T14:34:58Z</time>
      </trkpt>
      <trkpt lat="43.80266" lon="7.4562">
        <ele>600.75247131636</ele>
        <time>2021-01-27T14:34:59Z</time>
      </trkpt>
      <trkpt lat="43.80264" lon="7.45625">
        <ele>600.75257751526</ele>
        <time>2021-01-27T14:35:01Z</time>
      </trkpt>
      <trkpt lat="43.80263" lon="7.45627">
        <ele>600.75263227601</ele>
        <time>2021-01-27T14:35:02Z</time>
      </trkpt>
      <trkpt lat="43.80263" lon="7.45628">
        <ele>600.75268540496</ele>
        <time>2021-01-27T14:35:03Z</time>
      </trkpt>
      <trkpt lat="43.80262" lon="7.4563">
        <ele>600.75272541155</ele>
        <time>2021-01-27T14:35:04Z</time>
      </trkpt>
      <trkpt lat="43.80262" lon="7.45632">
        <ele>600.75276620271</ele>
        <time>2021-01-27T14:35:05Z</time>
      </trkpt>
      <trkpt lat="43.80261" lon="7.45635">
        <ele>600.75282477493</ele>
        <time>2021-01-27T14:35:06Z</time>
      </trkpt>
      <trkpt lat="43.8026" lon="7.45637">
        <ele>601.75286888874</ele>
        <time>2021-01-27T14:35:07Z</time>
      </trkpt>
      <trkpt lat="43.80259" lon="7.4564">
        <ele>601.75297175104</ele>
        <time>2021-01-27T14:35:09Z</time>
      </trkpt>
      <trkpt lat="43.80258" lon="7.45644">
        <ele>601.75305341264</ele>
        <time>2021-01-27T14:35:11Z</time>
      </trkpt>
      <trkpt lat="43.80257" lon="7.45645">
        <ele>601.75309709306</ele>
        <time>2021-01-27T14:35:12Z</time>
      </trkpt>
      <trkpt lat="43.80257" lon="7.45648">
        <ele>602.75313154524</ele>
        <time>2021-01-27T14:35:13Z</time>
      </trkpt>
      <trkpt lat="43.80256" lon="7.45651">
        <ele>601.75319204271</ele>
        <time>2021-01-27T14:35:15Z</time>
      </trkpt>
      <trkpt lat="43.80256" lon="7.45653">
        <ele>601.75322726635</ele>
        <time>2021-01-27T14:35:16Z</time>
      </trkpt>
      <trkpt lat="43.80255" lon="7.45655">
        <ele>601.75326287543</ele>
        <time>2021-01-27T14:35:17Z</time>
      </trkpt>
      <trkpt lat="43.80255" lon="7.45657">
        <ele>601.7532978687</ele>
        <time>2021-01-27T14:35:18Z</time>
      </trkpt>
      <trkpt lat="43.80254" lon="7.45658">
        <ele>601.75332831052</ele>
        <time>2021-01-27T14:35:19Z</time>
      </trkpt>
      <trkpt lat="43.80254" lon="7.4566">
        <ele>601.75337306851</ele>
        <time>2021-01-27T14:35:20Z</time>
      </trkpt>
      <trkpt lat="43.80253" lon="7.45662">
        <ele>601.75341917342</ele>
        <time>2021-01-27T14:35:21Z</time>
      </trkpt>
      <trkpt lat="43.80252" lon="7.45665">
        <ele>602.75347484647</ele>
        <time>2021-01-27T14:35:22Z</time>
      </trkpt>
      <trkpt lat="43.80252" lon="7.45667">
        <ele>602.75352565646</ele>
        <time>2021-01-27T14:35:23Z</time>
      </trkpt>
      <trkpt lat="43.80251" lon="7.45669">
        <ele>602.75355760945</ele>
        <time>2021-01-27T14:35:24Z</time>
      </trkpt>
      <trkpt lat="43.80251" lon="7.45671">
        <ele>602.75359179161</ele>
        <time>2021-01-27T14:35:25Z</time>
      </trkpt>
      <trkpt lat="43.8025" lon="7.45673">
        <ele>602.75363955005</ele>
        <time>2021-01-27T14:35:26Z</time>
      </trkpt>
      <trkpt lat="43.80249" lon="7.45675">
        <ele>602.75369271087</ele>
        <time>2021-01-27T14:35:27Z</time>
      </trkpt>
      <trkpt lat="43.80248" lon="7.45676">
        <ele>602.75376029139</ele>
        <time>2021-01-27T14:35:28Z</time>
      </trkpt>
      <trkpt lat="43.80247" lon="7.45678">
        <ele>602.75381664969</ele>
        <time>2021-01-27T14:35:29Z</time>
      </trkpt>
      <trkpt lat="43.80247" lon="7.45679">
        <ele>602.75385415806</ele>
        <time>2021-01-27T14:35:30Z</time>
      </trkpt>
      <trkpt lat="43.80247" lon="7.45681">
        <ele>602.7538871854</ele>
        <time>2021-01-27T14:35:31Z</time>
      </trkpt>
      <trkpt lat="43.80246" lon="7.45683">
        <ele>601.75393060878</ele>
        <time>2021-01-27T14:35:32Z</time>
      </trkpt>
      <trkpt lat="43.80245" lon="7.45685">
        <ele>601.75397132201</ele>
        <time>2021-01-27T14:35:33Z</time>
      </trkpt>
      <trkpt lat="43.80245" lon="7.45689">
        <ele>601.75403211651</ele>
        <time>2021-01-27T14:35:35Z</time>
      </trkpt>
      <trkpt lat="43.80245" lon="7.45691">
        <ele>601.75406207204</ele>
        <time>2021-01-27T14:35:36Z</time>
      </trkpt>
      <trkpt lat="43.80245" lon="7.45693">
        <ele>601.75408017072</ele>
        <time>2021-01-27T14:35:37Z</time>
      </trkpt>
      <trkpt lat="43.80244" lon="7.45696">
        <ele>601.75414429638</ele>
        <time>2021-01-27T14:35:39Z</time>
      </trkpt>
      <trkpt lat="43.80243" lon="7.45699">
        <ele>601.7542134852</ele>
        <time>2021-01-27T14:35:41Z</time>
      </trkpt>
      <trkpt lat="43.80242" lon="7.45701">
        <ele>600.75425193809</ele>
        <time>2021-01-27T14:35:42Z</time>
      </trkpt>
      <trkpt lat="43.80242" lon="7.45702">
        <ele>600.7542968442</ele>
        <time>2021-01-27T14:35:43Z</time>
      </trkpt>
      <trkpt lat="43.8024" lon="7.45706">
        <ele>599.7543872238</ele>
        <time>2021-01-27T14:35:45Z</time>
      </trkpt>
      <trkpt lat="43.8024" lon="7.45709">
        <ele>599.75441129118</ele>
        <time>2021-01-27T14:35:46Z</time>
      </trkpt>
      <trkpt lat="43.8024" lon="7.45711">
        <ele>600.75444877966</ele>
        <time>2021-01-27T14:35:47Z</time>
      </trkpt>
      <trkpt lat="43.80239" lon="7.45714">
        <ele>599.75453628059</ele>
        <time>2021-01-27T14:35:49Z</time>
      </trkpt>
      <trkpt lat="43.80237" lon="7.45718">
        <ele>599.75461689838</ele>
        <time>2021-01-27T14:35:51Z</time>
      </trkpt>
      <trkpt lat="43.80237" lon="7.4572">
        <ele>599.75467027204</ele>
        <time>2021-01-27T14:35:52Z</time>
      </trkpt>
      <trkpt lat="43.80236" lon="7.45721">
        <ele>599.7547106991</ele>
        <time>2021-01-27T14:35:53Z</time>
      </trkpt>
      <trkpt lat="43.80236" lon="7.45723">
        <ele>599.75474911825</ele>
        <time>2021-01-27T14:35:54Z</time>
      </trkpt>
      <trkpt lat="43.80235" lon="7.45725">
        <ele>599.75477650002</ele>
        <time>2021-01-27T14:35:55Z</time>
      </trkpt>
      <trkpt lat="43.80235" lon="7.45727">
        <ele>600.75483330788</ele>
        <time>2021-01-27T14:35:56Z</time>
      </trkpt>
      <trkpt lat="43.80234" lon="7.45729">
        <ele>600.75487794266</ele>
        <time>2021-01-27T14:35:57Z</time>
      </trkpt>
      <trkpt lat="43.80234" lon="7.45731">
        <ele>600.75490465387</ele>
        <time>2021-01-27T14:35:58Z</time>
      </trkpt>
      <trkpt lat="43.80233" lon="7.45734">
        <ele>601.75494952448</ele>
        <time>2021-01-27T14:36:00Z</time>
      </trkpt>
      <trkpt lat="43.80233" lon="7.45736">
        <ele>600.75496248572</ele>
        <time>2021-01-27T14:36:01Z</time>
      </trkpt>
      <trkpt lat="43.80233" lon="7.45738">
        <ele>600.75498853798</ele>
        <time>2021-01-27T14:36:02Z</time>
      </trkpt>
      <trkpt lat="43.80233" lon="7.4574">
        <ele>600.75500934583</ele>
        <time>2021-01-27T14:36:03Z</time>
      </trkpt>
      <trkpt lat="43.80233" lon="7.45742">
        <ele>600.7550245656</ele>
        <time>2021-01-27T14:36:04Z</time>
      </trkpt>
      <trkpt lat="43.80233" lon="7.45744">
        <ele>600.75504059585</ele>
        <time>2021-01-27T14:36:05Z</time>
      </trkpt>
      <trkpt lat="43.80233" lon="7.45746">
        <ele>600.75505892255</ele>
        <time>2021-01-27T14:36:06Z</time>
      </trkpt>
      <trkpt lat="43.80233" lon="7.45748">
        <ele>600.7550739792</ele>
        <time>2021-01-27T14:36:07Z</time>
      </trkpt>
      <trkpt lat="43.80234" lon="7.45751">
        <ele>601.75507055527</ele>
        <time>2021-01-27T14:36:09Z</time>
      </trkpt>
      <trkpt lat="43.80234" lon="7.45755">
        <ele>601.75508254216</ele>
        <time>2021-01-27T14:36:11Z</time>
      </trkpt>
      <trkpt lat="43.80234" lon="7.45756">
        <ele>601.7550847208</ele>
        <time>2021-01-27T14:36:12Z</time>
      </trkpt>
      <trkpt lat="43.80235" lon="7.45758">
        <ele>601.75509128512</ele>
        <time>2021-01-27T14:36:13Z</time>
      </trkpt>
      <trkpt lat="43.80235" lon="7.45762">
        <ele>600.75510885371</ele>
        <time>2021-01-27T14:36:15Z</time>
      </trkpt>
      <trkpt lat="43.80235" lon="7.45764">
        <ele>600.75510750267</ele>
        <time>2021-01-27T14:36:16Z</time>
      </trkpt>
      <trkpt lat="43.80236" lon="7.45766">
        <ele>601.75509511847</ele>
        <time>2021-01-27T14:36:17Z</time>
      </trkpt>
      <trkpt lat="43.80236" lon="7.45768">
        <ele>601.75510830228</ele>
        <time>2021-01-27T14:36:18Z</time>
      </trkpt>
      <trkpt lat="43.80236" lon="7.45772">
        <ele>601.75514543074</ele>
        <time>2021-01-27T14:36:20Z</time>
      </trkpt>
      <trkpt lat="43.80236" lon="7.45774">
        <ele>601.75514394033</ele>
        <time>2021-01-27T14:36:21Z</time>
      </trkpt>
      <trkpt lat="43.80236" lon="7.45776">
        <ele>601.75515729433</ele>
        <time>2021-01-27T14:36:22Z</time>
      </trkpt>
      <trkpt lat="43.80236" lon="7.45782">
        <ele>600.75520463587</ele>
        <time>2021-01-27T14:36:25Z</time>
      </trkpt>
      <trkpt lat="43.80236" lon="7.45783">
        <ele>600.75520939948</ele>
        <time>2021-01-27T14:36:26Z</time>
      </trkpt>
      <trkpt lat="43.80237" lon="7.45785">
        <ele>600.75521505034</ele>
        <time>2021-01-27T14:36:27Z</time>
      </trkpt>
      <trkpt lat="43.80237" lon="7.45787">
        <ele>600.75523063006</ele>
        <time>2021-01-27T14:36:28Z</time>
      </trkpt>
      <trkpt lat="43.80237" lon="7.45789">
        <ele>600.75523942436</ele>
        <time>2021-01-27T14:36:29Z</time>
      </trkpt>
      <trkpt lat="43.80237" lon="7.4579">
        <ele>600.75524882211</ele>
        <time>2021-01-27T14:36:30Z</time>
      </trkpt>
      <trkpt lat="43.80237" lon="7.45793">
        <ele>599.75524420461</ele>
        <time>2021-01-27T14:36:31Z</time>
      </trkpt>
      <trkpt lat="43.80238" lon="7.45794">
        <ele>599.75524230847</ele>
        <time>2021-01-27T14:36:32Z</time>
      </trkpt>
      <trkpt lat="43.80238" lon="7.45796">
        <ele>599.75523154237</ele>
        <time>2021-01-27T14:36:33Z</time>
      </trkpt>
      <trkpt lat="43.80239" lon="7.45798">
        <ele>599.7552232141</ele>
        <time>2021-01-27T14:36:34Z</time>
      </trkpt>
      <trkpt lat="43.80239" lon="7.458">
        <ele>599.75520964106</ele>
        <time>2021-01-27T14:36:35Z</time>
      </trkpt>
      <trkpt lat="43.8024" lon="7.45801">
        <ele>599.75521262423</ele>
        <time>2021-01-27T14:36:36Z</time>
      </trkpt>
      <trkpt lat="43.8024" lon="7.45804">
        <ele>600.75520546845</ele>
        <time>2021-01-27T14:36:37Z</time>
      </trkpt>
      <trkpt lat="43.80241" lon="7.45805">
        <ele>600.7552052881</ele>
        <time>2021-01-27T14:36:38Z</time>
      </trkpt>
      <trkpt lat="43.80241" lon="7.45807">
        <ele>599.75520745374</ele>
        <time>2021-01-27T14:36:39Z</time>
      </trkpt>
      <trkpt lat="43.80241" lon="7.45809">
        <ele>599.75520375328</ele>
        <time>2021-01-27T14:36:40Z</time>
      </trkpt>
      <trkpt lat="43.80242" lon="7.4581">
        <ele>599.75520075109</ele>
        <time>2021-01-27T14:36:41Z</time>
      </trkpt>
      <trkpt lat="43.80242" lon="7.45812">
        <ele>599.7551972292</ele>
        <time>2021-01-27T14:36:42Z</time>
      </trkpt>
      <trkpt lat="43.80242" lon="7.45815">
        <ele>598.75522269818</ele>
        <time>2021-01-27T14:36:44Z</time>
      </trkpt>
      <trkpt lat="43.80241" lon="7.45818">
        <ele>597.75528552528</ele>
        <time>2021-01-27T14:36:46Z</time>
      </trkpt>
      <trkpt lat="43.80241" lon="7.45821">
        <ele>598.75530084102</ele>
        <time>2021-01-27T14:36:47Z</time>
      </trkpt>
      <trkpt lat="43.80241" lon="7.45823">
        <ele>598.75532140354</ele>
        <time>2021-01-27T14:36:48Z</time>
      </trkpt>
      <trkpt lat="43.80241" lon="7.45824">
        <ele>598.75536358777</ele>
        <time>2021-01-27T14:36:49Z</time>
      </trkpt>
      <trkpt lat="43.80239" lon="7.45827">
        <ele>599.75545254893</ele>
        <time>2021-01-27T14:36:51Z</time>
      </trkpt>
      <trkpt lat="43.80239" lon="7.45828">
        <ele>598.75549342881</ele>
        <time>2021-01-27T14:36:52Z</time>
      </trkpt>
      <trkpt lat="43.80238" lon="7.45829">
        <ele>598.75552821076</ele>
        <time>2021-01-27T14:36:53Z</time>
      </trkpt>
      <trkpt lat="43.80236" lon="7.45831">
        <ele>599.75562461971</ele>
        <time>2021-01-27T14:36:55Z</time>
      </trkpt>
      <trkpt lat="43.80235" lon="7.45832">
        <ele>599.75568662195</ele>
        <time>2021-01-27T14:36:56Z</time>
      </trkpt>
      <trkpt lat="43.80235" lon="7.45834">
        <ele>599.75572141458</ele>
        <time>2021-01-27T14:36:57Z</time>
      </trkpt>
      <trkpt lat="43.80233" lon="7.45835">
        <ele>600.75581969832</ele>
        <time>2021-01-27T14:36:59Z</time>
      </trkpt>
      <trkpt lat="43.80231" lon="7.45837">
        <ele>600.75591220785</ele>
        <time>2021-01-27T14:37:01Z</time>
      </trkpt>
      <trkpt lat="43.8023" lon="7.45837">
        <ele>599.75596684189</ele>
        <time>2021-01-27T14:37:02Z</time>
      </trkpt>
      <trkpt lat="43.8023" lon="7.45838">
        <ele>600.75599669004</ele>
        <time>2021-01-27T14:37:03Z</time>
      </trkpt>
      <trkpt lat="43.80228" lon="7.45839">
        <ele>600.75607514859</ele>
        <time>2021-01-27T14:37:05Z</time>
      </trkpt>
      <trkpt lat="43.80227" lon="7.45839">
        <ele>600.7561149285</ele>
        <time>2021-01-27T14:37:07Z</time>
      </trkpt>
      <trkpt lat="43.80227" lon="7.45838">
        <ele>600.75611824901</ele>
        <time>2021-01-27T14:37:35Z</time>
      </trkpt>
      <trkpt lat="43.80227" lon="7.45836">
        <ele>599.75610698233</ele>
        <time>2021-01-27T14:37:36Z</time>
      </trkpt>
      <trkpt lat="43.80227" lon="7.45836">
        <ele>599.75611206334</ele>
        <time>2021-01-27T14:37:52Z</time>
      </trkpt>
      <trkpt lat="43.80226" lon="7.45835">
        <ele>596.75613199784</ele>
        <time>2021-01-27T14:38:58Z</time>
      </trkpt>
      <trkpt lat="43.80228" lon="7.45836">
        <ele>595.75607161932</ele>
        <time>2021-01-27T14:39:00Z</time>
      </trkpt>
      <trkpt lat="43.80227" lon="7.45836">
        <ele>601.75609588006</ele>
        <time>2021-01-27T14:41:06Z</time>
      </trkpt>
      <trkpt lat="43.80227" lon="7.45836">
        <ele>601.75609588006</ele>
        <time>2021-01-27T14:41:07Z</time>
      </trkpt>
    </trkseg>
  </trk>
</gpx>